<?xml version='1.0' encoding='UTF-8'?><gpx version="1.1" creator="JPX - https://github.com/jenetics/jpx" xmlns="http://www.topografix.com/GPX/1/1"><trk><trkseg><trkpt lat="42.54374221356741" lon="12.038474863012917"><ele>529.0</ele><time>2026-03-29T11:32:09.472Z</time></trkpt><trkpt lat="42.543731156780574" lon="12.038364802056146"><ele>529.0</ele><time>2026-03-29T11:32:11.472Z</time></trkpt><trkpt lat="42.54364342233878" lon="12.038290534999193"><ele>529.0</ele><time>2026-03-29T11:32:13.472Z</time></trkpt><trkpt lat="42.54358015254391" lon="12.038244843191183"><ele>529.0</ele><time>2026-03-29T11:32:14.422Z</time></trkpt><trkpt lat="42.5435033239527" lon="12.038193559339403"><ele>529.0</ele><time>2026-03-29T11:32:15.491Z</time></trkpt><trkpt lat="42.54343929730457" lon="12.038141553809783"><ele>529.0</ele><time>2026-03-29T11:32:16.441Z</time></trkpt><trkpt lat="42.54335069902169" lon="12.038057304169975"><ele>530.0</ele><time>2026-03-29T11:32:18.341Z</time></trkpt><trkpt lat="42.54329448487271" lon="12.037983388887632"><ele>531.0</ele><time>2026-03-29T11:32:20.241Z</time></trkpt><trkpt lat="42.54336884600371" lon="12.037948568257995"><ele>532.0</ele><time>2026-03-29T11:32:24.041Z</time></trkpt><trkpt lat="42.54349825514498" lon="12.038018908850074"><ele>533.0</ele><time>2026-03-29T11:32:26Z</time></trkpt><trkpt lat="42.54357701004866" lon="12.038039790293288"><ele>534.0</ele><time>2026-03-29T11:32:27Z</time></trkpt><trkpt lat="42.54368785559951" lon="12.038061256479578"><ele>533.8</ele><time>2026-03-29T11:32:28Z</time></trkpt><trkpt lat="42.543811128282485" lon="12.038078019782345"><ele>533.5999999999999</ele><time>2026-03-29T11:32:29Z</time></trkpt><trkpt lat="42.54391014886706" lon="12.038129198899059"><ele>533.4</ele><time>2026-03-29T11:32:30Z</time></trkpt><trkpt lat="42.544000427237975" lon="12.038161203087217"><ele>533.1999999999999</ele><time>2026-03-29T11:32:31Z</time></trkpt><trkpt lat="42.544073710458335" lon="12.038187861108547"><ele>533.0</ele><time>2026-03-29T11:32:32Z</time></trkpt><trkpt lat="42.54417368351305" lon="12.038017327296483"><ele>533.0</ele><time>2026-03-29T11:32:33Z</time></trkpt><trkpt lat="42.54419393106116" lon="12.037925065697612"><ele>533.0</ele><time>2026-03-29T11:32:34Z</time></trkpt><trkpt lat="42.544223134911704" lon="12.037822162851393"><ele>533.0</ele><time>2026-03-29T11:32:35Z</time></trkpt><trkpt lat="42.54425538346272" lon="12.037714855433498"><ele>533.0</ele><time>2026-03-29T11:32:36Z</time></trkpt><trkpt lat="42.5442902277232" lon="12.037581004089677"><ele>533.0</ele><time>2026-03-29T11:32:37Z</time></trkpt><trkpt lat="42.5443682114983" lon="12.037451313065466"><ele>533.4</ele><time>2026-03-29T11:32:38Z</time></trkpt><trkpt lat="42.54441103912461" lon="12.037325050094257"><ele>533.8</ele><time>2026-03-29T11:32:39Z</time></trkpt><trkpt lat="42.54445827992271" lon="12.037192738529948"><ele>534.2</ele><time>2026-03-29T11:32:40Z</time></trkpt><trkpt lat="42.54450739689661" lon="12.037050501863474"><ele>534.6</ele><time>2026-03-29T11:32:41Z</time></trkpt><trkpt lat="42.54452093621368" lon="12.036891927015432"><ele>535.0</ele><time>2026-03-29T11:32:42Z</time></trkpt><trkpt lat="42.54456589612074" lon="12.036744006364652"><ele>537.25</ele><time>2026-03-29T11:32:43Z</time></trkpt><trkpt lat="42.544611128494715" lon="12.036592329963309"><ele>539.5</ele><time>2026-03-29T11:32:44Z</time></trkpt><trkpt lat="42.54465430525635" lon="12.03643749124261"><ele>541.75</ele><time>2026-03-29T11:32:45Z</time></trkpt><trkpt lat="42.544673119852995" lon="12.03628342086124"><ele>544.0</ele><time>2026-03-29T11:32:46Z</time></trkpt><trkpt lat="42.54469343942742" lon="12.036121332724761"><ele>544.0</ele><time>2026-03-29T11:32:47Z</time></trkpt><trkpt lat="42.54471414392367" lon="12.035922074157481"><ele>544.0</ele><time>2026-03-29T11:32:48Z</time></trkpt><trkpt lat="42.54472191678525" lon="12.035761136416106"><ele>544.0</ele><time>2026-03-29T11:32:49Z</time></trkpt><trkpt lat="42.54472926494319" lon="12.035608992260245"><ele>544.0</ele><time>2026-03-29T11:32:50Z</time></trkpt><trkpt lat="42.54472268027285" lon="12.035481332572822"><ele>544.5</ele><time>2026-03-29T11:32:51Z</time></trkpt><trkpt lat="42.54473789028662" lon="12.03536175986143"><ele>545.0</ele><time>2026-03-29T11:32:52Z</time></trkpt><trkpt lat="42.544762701126196" lon="12.035259570973219"><ele>545.5</ele><time>2026-03-29T11:32:53Z</time></trkpt><trkpt lat="42.54480643879368" lon="12.035178278251683"><ele>546.0</ele><time>2026-03-29T11:32:54Z</time></trkpt><trkpt lat="42.544860113137574" lon="12.035123744065455"><ele>546.5</ele><time>2026-03-29T11:32:55Z</time></trkpt><trkpt lat="42.544925857601285" lon="12.035084536330363"><ele>547.0</ele><time>2026-03-29T11:32:56Z</time></trkpt><trkpt lat="42.545013428699974" lon="12.035089105635864"><ele>547.0</ele><time>2026-03-29T11:32:57Z</time></trkpt><trkpt lat="42.54509740830152" lon="12.03506237861771"><ele>547.0</ele><time>2026-03-29T11:32:58Z</time></trkpt><trkpt lat="42.54519352804267" lon="12.035035192336208"><ele>547.0</ele><time>2026-03-29T11:32:59Z</time></trkpt><trkpt lat="42.54528972674089" lon="12.03499566903418"><ele>547.0</ele><time>2026-03-29T11:33:00Z</time></trkpt><trkpt lat="42.5453977860504" lon="12.03495896406961"><ele>547.0</ele><time>2026-03-29T11:33:01Z</time></trkpt><trkpt lat="42.545509003088455" lon="12.034916588301947"><ele>549.75</ele><time>2026-03-29T11:33:02Z</time></trkpt><trkpt lat="42.54562068005194" lon="12.03486911182721"><ele>552.5</ele><time>2026-03-29T11:33:03Z</time></trkpt><trkpt lat="42.5457347794403" lon="12.034824465820952"><ele>555.25</ele><time>2026-03-29T11:33:04Z</time></trkpt><trkpt lat="42.545851958687706" lon="12.03476938565996"><ele>558.0</ele><time>2026-03-29T11:33:05Z</time></trkpt><trkpt lat="42.545964047846034" lon="12.034713381611178"><ele>558.0</ele><time>2026-03-29T11:33:06Z</time></trkpt><trkpt lat="42.54608756606404" lon="12.034653477437821"><ele>558.0</ele><time>2026-03-29T11:33:07Z</time></trkpt><trkpt lat="42.54620788323584" lon="12.034587770062622"><ele>558.0</ele><time>2026-03-29T11:33:08Z</time></trkpt><trkpt lat="42.54632790608557" lon="12.03452977020566"><ele>558.0</ele><time>2026-03-29T11:33:09Z</time></trkpt><trkpt lat="42.546450161376676" lon="12.034470377382165"><ele>557.0</ele><time>2026-03-29T11:33:10Z</time></trkpt><trkpt lat="42.546571212223185" lon="12.03440882831697"><ele>556.0</ele><time>2026-03-29T11:33:11Z</time></trkpt><trkpt lat="42.54669521383684" lon="12.034346149543044"><ele>555.0</ele><time>2026-03-29T11:33:12Z</time></trkpt><trkpt lat="42.54681262705864" lon="12.034277204484566"><ele>554.0</ele><time>2026-03-29T11:33:13Z</time></trkpt><trkpt lat="42.54693008921277" lon="12.034207862104957"><ele>554.75</ele><time>2026-03-29T11:33:14Z</time></trkpt><trkpt lat="42.54704563947344" lon="12.034122428045652"><ele>555.5</ele><time>2026-03-29T11:33:15Z</time></trkpt><trkpt lat="42.547145047115386" lon="12.034041967543342"><ele>556.25</ele><time>2026-03-29T11:33:16Z</time></trkpt><trkpt lat="42.547249328460566" lon="12.033961481002553"><ele>557.0</ele><time>2026-03-29T11:33:17Z</time></trkpt><trkpt lat="42.547356987372645" lon="12.033882080693862"><ele>557.0</ele><time>2026-03-29T11:33:18Z</time></trkpt><trkpt lat="42.54746101660626" lon="12.033803893503368"><ele>557.0</ele><time>2026-03-29T11:33:19Z</time></trkpt><trkpt lat="42.54757595502174" lon="12.033739958023036"><ele>557.0</ele><time>2026-03-29T11:33:20Z</time></trkpt><trkpt lat="42.5476655390953" lon="12.033663352629734"><ele>557.0</ele><time>2026-03-29T11:33:21Z</time></trkpt><trkpt lat="42.547763526747914" lon="12.03360376719105"><ele>557.0</ele><time>2026-03-29T11:33:22Z</time></trkpt><trkpt lat="42.54784594288204" lon="12.033536823317084"><ele>557.0</ele><time>2026-03-29T11:33:23Z</time></trkpt><trkpt lat="42.547917026495746" lon="12.033462265936203"><ele>557.0</ele><time>2026-03-29T11:33:24Z</time></trkpt><trkpt lat="42.547997115919486" lon="12.033386137451034"><ele>557.0</ele><time>2026-03-29T11:33:25Z</time></trkpt><trkpt lat="42.54806864749536" lon="12.033290040465562"><ele>557.0</ele><time>2026-03-29T11:33:26Z</time></trkpt><trkpt lat="42.54813476366544" lon="12.033184287594738"><ele>556.8000000000001</ele><time>2026-03-29T11:33:27Z</time></trkpt><trkpt lat="42.54820697222701" lon="12.033077582376114"><ele>556.6</ele><time>2026-03-29T11:33:28Z</time></trkpt><trkpt lat="42.548277443502634" lon="12.032976289286093"><ele>556.4000000000001</ele><time>2026-03-29T11:33:29Z</time></trkpt><trkpt lat="42.5483388988422" lon="12.032867935324846"><ele>556.2</ele><time>2026-03-29T11:33:30Z</time></trkpt><trkpt lat="42.548403480454205" lon="12.032752478263502"><ele>556.0</ele><time>2026-03-29T11:33:31Z</time></trkpt><trkpt lat="42.548466838081936" lon="12.032640296770518"><ele>556.0</ele><time>2026-03-29T11:33:32Z</time></trkpt><trkpt lat="42.54853325587942" lon="12.032512759890137"><ele>556.0</ele><time>2026-03-29T11:33:33Z</time></trkpt><trkpt lat="42.54859647626333" lon="12.032378710922266"><ele>556.0</ele><time>2026-03-29T11:33:34Z</time></trkpt><trkpt lat="42.5486522245257" lon="12.032245807957286"><ele>556.0</ele><time>2026-03-29T11:33:35Z</time></trkpt><trkpt lat="42.548714635460215" lon="12.032108981232017"><ele>554.25</ele><time>2026-03-29T11:33:36Z</time></trkpt><trkpt lat="42.548781028333764" lon="12.031965997388602"><ele>552.5</ele><time>2026-03-29T11:33:37Z</time></trkpt><trkpt lat="42.54883205160469" lon="12.0318147473776"><ele>550.75</ele><time>2026-03-29T11:33:37.999Z</time></trkpt><trkpt lat="42.54888161619527" lon="12.03166233885293"><ele>549.0</ele><time>2026-03-29T11:33:38.999Z</time></trkpt><trkpt lat="42.548937323755695" lon="12.031520321222597"><ele>546.0</ele><time>2026-03-29T11:33:39.999Z</time></trkpt><trkpt lat="42.548977128012105" lon="12.031360819369278"><ele>543.0</ele><time>2026-03-29T11:33:40.999Z</time></trkpt><trkpt lat="42.54901058197541" lon="12.031194660435395"><ele>540.0</ele><time>2026-03-29T11:33:41.999Z</time></trkpt><trkpt lat="42.549023083282776" lon="12.031030056032202"><ele>537.0</ele><time>2026-03-29T11:33:42.999Z</time></trkpt><trkpt lat="42.549022137746086" lon="12.030859116003095"><ele>536.0</ele><time>2026-03-29T11:33:43.999Z</time></trkpt><trkpt lat="42.54900800664447" lon="12.030695160960136"><ele>535.0</ele><time>2026-03-29T11:33:44.999Z</time></trkpt><trkpt lat="42.54899553745197" lon="12.03053221211141"><ele>534.0</ele><time>2026-03-29T11:33:45.999Z</time></trkpt><trkpt lat="42.5489662826425" lon="12.030374533441462"><ele>533.0</ele><time>2026-03-29T11:33:46.999Z</time></trkpt><trkpt lat="42.54895298938437" lon="12.030220939075004"><ele>533.0</ele><time>2026-03-29T11:33:47.999Z</time></trkpt><trkpt lat="42.54893242903949" lon="12.030092124026428"><ele>533.0</ele><time>2026-03-29T11:33:48.999Z</time></trkpt><trkpt lat="42.54893781717629" lon="12.029988597758484"><ele>533.0</ele><time>2026-03-29T11:33:49.999Z</time></trkpt><trkpt lat="42.54895935141646" lon="12.029894505940229"><ele>533.0</ele><time>2026-03-29T11:33:51.999Z</time></trkpt><trkpt lat="42.54898627412849" lon="12.029800765393015"><ele>533.0</ele><time>2026-03-29T11:33:54.999Z</time></trkpt><trkpt lat="42.54904177626005" lon="12.029742581297487"><ele>533.0</ele><time>2026-03-29T11:33:55.999Z</time></trkpt><trkpt lat="42.54911584333146" lon="12.029669713441223"><ele>532.6</ele><time>2026-03-29T11:33:56.999Z</time></trkpt><trkpt lat="42.54919545387015" lon="12.029581109135355"><ele>532.1999999999999</ele><time>2026-03-29T11:33:57.999Z</time></trkpt><trkpt lat="42.549283523169024" lon="12.029487065773454"><ele>531.8</ele><time>2026-03-29T11:33:58.999Z</time></trkpt><trkpt lat="42.54937376980626" lon="12.0294093476275"><ele>531.4</ele><time>2026-03-29T11:33:59.999Z</time></trkpt><trkpt lat="42.549457553786866" lon="12.029326406007852"><ele>531.0</ele><time>2026-03-29T11:34:00.998Z</time></trkpt><trkpt lat="42.54953707423397" lon="12.02925338707494"><ele>531.0</ele><time>2026-03-29T11:34:01.998Z</time></trkpt><trkpt lat="42.549621903343855" lon="12.029179591012003"><ele>531.0</ele><time>2026-03-29T11:34:02.998Z</time></trkpt><trkpt lat="42.54970748121938" lon="12.029113418391606"><ele>531.0</ele><time>2026-03-29T11:34:03.998Z</time></trkpt><trkpt lat="42.549787169327004" lon="12.029048205274053"><ele>531.0</ele><time>2026-03-29T11:34:04.998Z</time></trkpt><trkpt lat="42.549865051831524" lon="12.02898653029159"><ele>531.0</ele><time>2026-03-29T11:34:05.998Z</time></trkpt><trkpt lat="42.54993543722675" lon="12.028929050159544"><ele>531.0</ele><time>2026-03-29T11:34:06.998Z</time></trkpt><trkpt lat="42.550012065053004" lon="12.028870716996197"><ele>531.0</ele><time>2026-03-29T11:34:07.998Z</time></trkpt><trkpt lat="42.5501034410079" lon="12.02881569340743"><ele>531.0</ele><time>2026-03-29T11:34:08.998Z</time></trkpt><trkpt lat="42.55019305008978" lon="12.028743189483494"><ele>531.0</ele><time>2026-03-29T11:34:09.998Z</time></trkpt><trkpt lat="42.55029885447021" lon="12.028668641958973"><ele>531.0</ele><time>2026-03-29T11:34:10.998Z</time></trkpt><trkpt lat="42.55041059617332" lon="12.02859209871699"><ele>531.0</ele><time>2026-03-29T11:34:11.998Z</time></trkpt><trkpt lat="42.55052228608091" lon="12.028494733311701"><ele>531.0</ele><time>2026-03-29T11:34:12.998Z</time></trkpt><trkpt lat="42.55063128453988" lon="12.028418422045458"><ele>531.0</ele><time>2026-03-29T11:34:13.998Z</time></trkpt><trkpt lat="42.55069450861962" lon="12.02827700525407"><ele>531.0</ele><time>2026-03-29T11:34:14.998Z</time></trkpt><trkpt lat="42.55073579438509" lon="12.028146621421849"><ele>531.75</ele><time>2026-03-29T11:34:15.998Z</time></trkpt><trkpt lat="42.55073693373131" lon="12.027995371686728"><ele>532.5</ele><time>2026-03-29T11:34:16.998Z</time></trkpt><trkpt lat="42.55070861884989" lon="12.027855150809565"><ele>533.25</ele><time>2026-03-29T11:34:17.998Z</time></trkpt><trkpt lat="42.550645932355025" lon="12.027730612959811"><ele>534.0</ele><time>2026-03-29T11:34:18.998Z</time></trkpt><trkpt lat="42.550569179406416" lon="12.027601613837929"><ele>534.0</ele><time>2026-03-29T11:34:19.998Z</time></trkpt><trkpt lat="42.55049336838286" lon="12.027461776778885"><ele>534.0</ele><time>2026-03-29T11:34:20.998Z</time></trkpt><trkpt lat="42.55042472184094" lon="12.027291311278686"><ele>534.0</ele><time>2026-03-29T11:34:21.998Z</time></trkpt><trkpt lat="42.55037028102761" lon="12.027104005016634"><ele>534.0</ele><time>2026-03-29T11:34:22.998Z</time></trkpt><trkpt lat="42.550359057758186" lon="12.026900727197514"><ele>534.0</ele><time>2026-03-29T11:34:23.998Z</time></trkpt><trkpt lat="42.550354718164165" lon="12.026699604627122"><ele>534.0</ele><time>2026-03-29T11:34:24.998Z</time></trkpt><trkpt lat="42.550346056234616" lon="12.026479451710408"><ele>534.0</ele><time>2026-03-29T11:34:25.998Z</time></trkpt><trkpt lat="42.55035796735284" lon="12.026253771583841"><ele>534.0</ele><time>2026-03-29T11:34:26.998Z</time></trkpt><trkpt lat="42.5503743387394" lon="12.026029363130126"><ele>534.0</ele><time>2026-03-29T11:34:27.998Z</time></trkpt><trkpt lat="42.55039121632571" lon="12.025793703886903"><ele>534.0</ele><time>2026-03-29T11:34:28.998Z</time></trkpt><trkpt lat="42.550400104005355" lon="12.02558948075411"><ele>534.0</ele><time>2026-03-29T11:34:29.998Z</time></trkpt><trkpt lat="42.55040691417695" lon="12.025387212529568"><ele>534.0</ele><time>2026-03-29T11:34:30.998Z</time></trkpt><trkpt lat="42.55043457450779" lon="12.02520974505217"><ele>534.0</ele><time>2026-03-29T11:34:31.998Z</time></trkpt><trkpt lat="42.550474757861416" lon="12.025038720882206"><ele>534.0</ele><time>2026-03-29T11:34:32.998Z</time></trkpt><trkpt lat="42.55054712882423" lon="12.024906873466769"><ele>531.75</ele><time>2026-03-29T11:34:33.998Z</time></trkpt><trkpt lat="42.55065404217035" lon="12.024813195183231"><ele>529.5</ele><time>2026-03-29T11:34:34.998Z</time></trkpt><trkpt lat="42.550768463343076" lon="12.02472762653698"><ele>527.25</ele><time>2026-03-29T11:34:35.998Z</time></trkpt><trkpt lat="42.550899145913014" lon="12.02465066475789"><ele>525.0</ele><time>2026-03-29T11:34:36.998Z</time></trkpt><trkpt lat="42.55102183409919" lon="12.024553643910917"><ele>525.0</ele><time>2026-03-29T11:34:37.998Z</time></trkpt><trkpt lat="42.5511501160481" lon="12.024438672724852"><ele>525.0</ele><time>2026-03-29T11:34:38.998Z</time></trkpt><trkpt lat="42.5512695572384" lon="12.024307395357166"><ele>525.0</ele><time>2026-03-29T11:34:39.998Z</time></trkpt><trkpt lat="42.55137779401049" lon="12.024157709575567"><ele>526.6666666666666</ele><time>2026-03-29T11:34:40.998Z</time></trkpt><trkpt lat="42.55147012124346" lon="12.023983081698747"><ele>528.3333333333333</ele><time>2026-03-29T11:34:41.998Z</time></trkpt><trkpt lat="42.551570091002425" lon="12.02380710509978"><ele>530.0</ele><time>2026-03-29T11:34:42.998Z</time></trkpt><trkpt lat="42.55166899248699" lon="12.023628154323067"><ele>530.0</ele><time>2026-03-29T11:34:43.998Z</time></trkpt><trkpt lat="42.55176213782063" lon="12.023447200426581"><ele>530.0</ele><time>2026-03-29T11:34:44.998Z</time></trkpt><trkpt lat="42.551854635003544" lon="12.023276252136501"><ele>530.0</ele><time>2026-03-29T11:34:45.998Z</time></trkpt><trkpt lat="42.55193859978123" lon="12.023096674198849"><ele>529.25</ele><time>2026-03-29T11:34:46.998Z</time></trkpt><trkpt lat="42.55202354450788" lon="12.022926342324071"><ele>528.5</ele><time>2026-03-29T11:34:47.998Z</time></trkpt><trkpt lat="42.55210354600191" lon="12.022757481563966"><ele>527.75</ele><time>2026-03-29T11:34:48.998Z</time></trkpt><trkpt lat="42.552159810028236" lon="12.022579488276293"><ele>527.0</ele><time>2026-03-29T11:34:49.998Z</time></trkpt><trkpt lat="42.55218554143177" lon="12.02238321368579"><ele>531.6666666666666</ele><time>2026-03-29T11:34:50.997Z</time></trkpt><trkpt lat="42.55219211999344" lon="12.02217712404937"><ele>536.3333333333334</ele><time>2026-03-29T11:34:51.997Z</time></trkpt><trkpt lat="42.55219683582043" lon="12.02196720483212"><ele>541.0</ele><time>2026-03-29T11:34:52.997Z</time></trkpt><trkpt lat="42.55219343728703" lon="12.021757788460361"><ele>542.6666666666667</ele><time>2026-03-29T11:34:53.997Z</time></trkpt><trkpt lat="42.55218937130812" lon="12.021544925211996"><ele>544.3333333333334</ele><time>2026-03-29T11:34:54.997Z</time></trkpt><trkpt lat="42.552190331921345" lon="12.02133155814829"><ele>546.0</ele><time>2026-03-29T11:34:55.997Z</time></trkpt><trkpt lat="42.552174571793756" lon="12.021118145705719"><ele>546.0</ele><time>2026-03-29T11:34:56.997Z</time></trkpt><trkpt lat="42.55213939844162" lon="12.0209099475576"><ele>546.0</ele><time>2026-03-29T11:34:57.997Z</time></trkpt><trkpt lat="42.55208542829369" lon="12.020697464455832"><ele>546.0</ele><time>2026-03-29T11:34:58.997Z</time></trkpt><trkpt lat="42.55202501652859" lon="12.020503466006929"><ele>538.25</ele><time>2026-03-29T11:34:59.997Z</time></trkpt><trkpt lat="42.55197695501945" lon="12.020311006502881"><ele>530.5</ele><time>2026-03-29T11:35:00.997Z</time></trkpt><trkpt lat="42.55193939068599" lon="12.020125513923123"><ele>522.75</ele><time>2026-03-29T11:35:01.997Z</time></trkpt><trkpt lat="42.55192449219263" lon="12.019941516338605"><ele>515.0</ele><time>2026-03-29T11:35:02.997Z</time></trkpt><trkpt lat="42.55193210537217" lon="12.019775472029826"><ele>512.0</ele><time>2026-03-29T11:35:03.997Z</time></trkpt><trkpt lat="42.551965718813165" lon="12.01962704364054"><ele>509.0</ele><time>2026-03-29T11:35:04.997Z</time></trkpt><trkpt lat="42.552139804331865" lon="12.019440168169982"><ele>506.0</ele><time>2026-03-29T11:35:06.997Z</time></trkpt><trkpt lat="42.55224699578174" lon="12.019364763912781"><ele>510.25</ele><time>2026-03-29T11:35:07.997Z</time></trkpt><trkpt lat="42.5523495930081" lon="12.019260913230758"><ele>514.5</ele><time>2026-03-29T11:35:08.997Z</time></trkpt><trkpt lat="42.55246758670175" lon="12.019176440496576"><ele>518.75</ele><time>2026-03-29T11:35:09.997Z</time></trkpt><trkpt lat="42.55255989714627" lon="12.019041370690577"><ele>523.0</ele><time>2026-03-29T11:35:10.997Z</time></trkpt><trkpt lat="42.5526292289671" lon="12.018871166567243"><ele>523.0</ele><time>2026-03-29T11:35:11.997Z</time></trkpt><trkpt lat="42.552658868527416" lon="12.018682282284457"><ele>523.0</ele><time>2026-03-29T11:35:12.997Z</time></trkpt><trkpt lat="42.552677679027376" lon="12.018484313015426"><ele>523.0</ele><time>2026-03-29T11:35:13.997Z</time></trkpt><trkpt lat="42.552676227273196" lon="12.018287083222853"><ele>523.0</ele><time>2026-03-29T11:35:14.997Z</time></trkpt><trkpt lat="42.55264276884617" lon="12.018092739045178"><ele>523.6666666666667</ele><time>2026-03-29T11:35:15.997Z</time></trkpt><trkpt lat="42.552591868104464" lon="12.017900109643659"><ele>524.3333333333334</ele><time>2026-03-29T11:35:16.997Z</time></trkpt><trkpt lat="42.55253638066666" lon="12.017706605170842"><ele>525.0</ele><time>2026-03-29T11:35:17.997Z</time></trkpt><trkpt lat="42.55250170421367" lon="12.017501574092297"><ele>525.0</ele><time>2026-03-29T11:35:18.997Z</time></trkpt><trkpt lat="42.55245559569452" lon="12.017309538708371"><ele>525.0</ele><time>2026-03-29T11:35:19.997Z</time></trkpt><trkpt lat="42.55241331825653" lon="12.017128121769177"><ele>525.0</ele><time>2026-03-29T11:35:20.997Z</time></trkpt><trkpt lat="42.55241031246941" lon="12.016941269593675"><ele>525.0</ele><time>2026-03-29T11:35:21.997Z</time></trkpt><trkpt lat="42.55243421137734" lon="12.01676830617415"><ele>522.25</ele><time>2026-03-29T11:35:22.997Z</time></trkpt><trkpt lat="42.55250779950097" lon="12.016628745172474"><ele>519.5</ele><time>2026-03-29T11:35:23.997Z</time></trkpt><trkpt lat="42.5525853811213" lon="12.016493857250062"><ele>516.75</ele><time>2026-03-29T11:35:24.997Z</time></trkpt><trkpt lat="42.55267318819001" lon="12.016336482173596"><ele>514.0</ele><time>2026-03-29T11:35:25.997Z</time></trkpt><trkpt lat="42.5527463557396" lon="12.016151278131161"><ele>514.0</ele><time>2026-03-29T11:35:26.997Z</time></trkpt><trkpt lat="42.55279756029489" lon="12.0159423077583"><ele>514.0</ele><time>2026-03-29T11:35:27.997Z</time></trkpt><trkpt lat="42.55283448759517" lon="12.01574616768539"><ele>514.0</ele><time>2026-03-29T11:35:28.997Z</time></trkpt><trkpt lat="42.55287925516905" lon="12.01554615639142"><ele>522.6666666666667</ele><time>2026-03-29T11:35:29.997Z</time></trkpt><trkpt lat="42.552923751288084" lon="12.01533015165954"><ele>531.3333333333334</ele><time>2026-03-29T11:35:30.997Z</time></trkpt><trkpt lat="42.552970574956944" lon="12.015127321484995"><ele>540.0</ele><time>2026-03-29T11:35:31.997Z</time></trkpt><trkpt lat="42.553009644440024" lon="12.014927788478161"><ele>540.3333333333334</ele><time>2026-03-29T11:35:32.997Z</time></trkpt><trkpt lat="42.553052627879566" lon="12.01473103759943"><ele>540.6666666666667</ele><time>2026-03-29T11:35:33.997Z</time></trkpt><trkpt lat="42.55303216809483" lon="12.014519146501076"><ele>541.0</ele><time>2026-03-29T11:35:34.997Z</time></trkpt><trkpt lat="42.55299648034282" lon="12.014320413213225"><ele>539.0</ele><time>2026-03-29T11:35:35.997Z</time></trkpt><trkpt lat="42.552939166331925" lon="12.014132989413831"><ele>537.0</ele><time>2026-03-29T11:35:36.997Z</time></trkpt><trkpt lat="42.5528789981694" lon="12.013942244487579"><ele>535.0</ele><time>2026-03-29T11:35:37.997Z</time></trkpt><trkpt lat="42.55283313945562" lon="12.013744364065076"><ele>533.0</ele><time>2026-03-29T11:35:38.997Z</time></trkpt><trkpt lat="42.55280535507084" lon="12.01353959429154"><ele>531.0</ele><time>2026-03-29T11:35:39.997Z</time></trkpt><trkpt lat="42.55281280597414" lon="12.013343866696774"><ele>529.0</ele><time>2026-03-29T11:35:40.997Z</time></trkpt><trkpt lat="42.55285828167155" lon="12.01315807856605"><ele>527.0</ele><time>2026-03-29T11:35:41.997Z</time></trkpt><trkpt lat="42.55292796380173" lon="12.012986136907244"><ele>527.0</ele><time>2026-03-29T11:35:42.997Z</time></trkpt><trkpt lat="42.55301071000232" lon="12.012815837524572"><ele>527.0</ele><time>2026-03-29T11:35:43.997Z</time></trkpt><trkpt lat="42.55308906709844" lon="12.01263239624134"><ele>527.0</ele><time>2026-03-29T11:35:44.997Z</time></trkpt><trkpt lat="42.55315692363669" lon="12.012432245278514"><ele>525.6666666666666</ele><time>2026-03-29T11:35:45.997Z</time></trkpt><trkpt lat="42.55321773452488" lon="12.012227335090094"><ele>524.3333333333334</ele><time>2026-03-29T11:35:46.997Z</time></trkpt><trkpt lat="42.553271460176404" lon="12.012019911287268"><ele>523.0</ele><time>2026-03-29T11:35:47.997Z</time></trkpt><trkpt lat="42.5533190057595" lon="12.011803007588151"><ele>521.3333333333334</ele><time>2026-03-29T11:35:48.997Z</time></trkpt><trkpt lat="42.553357289644445" lon="12.011588863194078"><ele>519.6666666666666</ele><time>2026-03-29T11:35:49.997Z</time></trkpt><trkpt lat="42.55339938408043" lon="12.011388644991536"><ele>518.0</ele><time>2026-03-29T11:35:50.997Z</time></trkpt><trkpt lat="42.55345980685901" lon="12.011190241653246"><ele>518.0</ele><time>2026-03-29T11:35:51.997Z</time></trkpt><trkpt lat="42.5535313313749" lon="12.01100860417771"><ele>518.0</ele><time>2026-03-29T11:35:52.997Z</time></trkpt><trkpt lat="42.55362291100215" lon="12.010840941246583"><ele>518.0</ele><time>2026-03-29T11:35:53.997Z</time></trkpt><trkpt lat="42.55373823461674" lon="12.010693901330455"><ele>518.25</ele><time>2026-03-29T11:35:54.997Z</time></trkpt><trkpt lat="42.55384745005517" lon="12.010549004319605"><ele>518.5</ele><time>2026-03-29T11:35:55.997Z</time></trkpt><trkpt lat="42.55394084318567" lon="12.01039408080454"><ele>518.75</ele><time>2026-03-29T11:35:56.997Z</time></trkpt><trkpt lat="42.55401512558324" lon="12.010225864318473"><ele>519.0</ele><time>2026-03-29T11:35:57.997Z</time></trkpt><trkpt lat="42.554072553607995" lon="12.010047684926759"><ele>518.0</ele><time>2026-03-29T11:35:58.997Z</time></trkpt><trkpt lat="42.55411132378977" lon="12.009861938542384"><ele>517.0</ele><time>2026-03-29T11:35:59.997Z</time></trkpt><trkpt lat="42.554149620719706" lon="12.009657325967348"><ele>516.0</ele><time>2026-03-29T11:36:00.997Z</time></trkpt><trkpt lat="42.55418704964207" lon="12.009452993868782"><ele>516.0</ele><time>2026-03-29T11:36:01.997Z</time></trkpt><trkpt lat="42.55422784436718" lon="12.009247668408143"><ele>516.0</ele><time>2026-03-29T11:36:02.996Z</time></trkpt><trkpt lat="42.55426089730479" lon="12.009033112329268"><ele>516.0</ele><time>2026-03-29T11:36:03.996Z</time></trkpt><trkpt lat="42.55427944962095" lon="12.008814390998108"><ele>516.0</ele><time>2026-03-29T11:36:04.996Z</time></trkpt><trkpt lat="42.55428632547385" lon="12.008590104158213"><ele>516.0</ele><time>2026-03-29T11:36:05.996Z</time></trkpt><trkpt lat="42.554282280422" lon="12.008369362200762"><ele>516.0</ele><time>2026-03-29T11:36:06.996Z</time></trkpt><trkpt lat="42.55428441785582" lon="12.008137037799067"><ele>515.3333333333334</ele><time>2026-03-29T11:36:07.996Z</time></trkpt><trkpt lat="42.55428514822973" lon="12.00790128859171"><ele>514.6666666666667</ele><time>2026-03-29T11:36:08.996Z</time></trkpt><trkpt lat="42.55428585352663" lon="12.007687682201285"><ele>514.0</ele><time>2026-03-29T11:36:09.996Z</time></trkpt><trkpt lat="42.55428871217569" lon="12.007480412745542"><ele>515.0</ele><time>2026-03-29T11:36:10.996Z</time></trkpt><trkpt lat="42.55425229419487" lon="12.007293552483784"><ele>516.0</ele><time>2026-03-29T11:36:11.996Z</time></trkpt><trkpt lat="42.55419789546671" lon="12.007084040776808"><ele>517.0</ele><time>2026-03-29T11:36:12.996Z</time></trkpt><trkpt lat="42.55413409368494" lon="12.006920386758175"><ele>518.0</ele><time>2026-03-29T11:36:13.996Z</time></trkpt><trkpt lat="42.554051447093514" lon="12.006763149969892"><ele>518.3333333333333</ele><time>2026-03-29T11:36:14.996Z</time></trkpt><trkpt lat="42.55396929760886" lon="12.006585855187403"><ele>518.6666666666666</ele><time>2026-03-29T11:36:15.996Z</time></trkpt><trkpt lat="42.553888151533364" lon="12.006400243925835"><ele>519.0</ele><time>2026-03-29T11:36:16.996Z</time></trkpt><trkpt lat="42.55381201758012" lon="12.006220644308964"><ele>519.0</ele><time>2026-03-29T11:36:17.996Z</time></trkpt><trkpt lat="42.55373962194879" lon="12.006046826992216"><ele>519.0</ele><time>2026-03-29T11:36:18.996Z</time></trkpt><trkpt lat="42.55366603926896" lon="12.005890301789314"><ele>519.0</ele><time>2026-03-29T11:36:19.996Z</time></trkpt><trkpt lat="42.5536158795822" lon="12.00573237903714"><ele>519.0</ele><time>2026-03-29T11:36:20.996Z</time></trkpt><trkpt lat="42.55358771752225" lon="12.005576253979253"><ele>516.2</ele><time>2026-03-29T11:36:21.996Z</time></trkpt><trkpt lat="42.55360378584948" lon="12.00544372267512"><ele>513.4</ele><time>2026-03-29T11:36:22.996Z</time></trkpt><trkpt lat="42.55365367320559" lon="12.00531636427258"><ele>510.6</ele><time>2026-03-29T11:36:23.996Z</time></trkpt><trkpt lat="42.55373277832228" lon="12.005230398653792"><ele>507.8</ele><time>2026-03-29T11:36:24.996Z</time></trkpt><trkpt lat="42.55382467414429" lon="12.005188401444379"><ele>505.0</ele><time>2026-03-29T11:36:25.996Z</time></trkpt><trkpt lat="42.55392790543483" lon="12.005203347634954"><ele>505.0</ele><time>2026-03-29T11:36:26.996Z</time></trkpt><trkpt lat="42.55403165524788" lon="12.00524936227787"><ele>505.0</ele><time>2026-03-29T11:36:27.996Z</time></trkpt><trkpt lat="42.554126845675874" lon="12.005319206568549"><ele>505.0</ele><time>2026-03-29T11:36:28.996Z</time></trkpt><trkpt lat="42.55424335056329" lon="12.005390357914699"><ele>505.0</ele><time>2026-03-29T11:36:29.996Z</time></trkpt><trkpt lat="42.55436391898171" lon="12.005470537507305"><ele>505.0</ele><time>2026-03-29T11:36:30.996Z</time></trkpt><trkpt lat="42.55449379485576" lon="12.00556309526656"><ele>505.0</ele><time>2026-03-29T11:36:31.996Z</time></trkpt><trkpt lat="42.55463804781145" lon="12.005636372634193"><ele>505.0</ele><time>2026-03-29T11:36:32.996Z</time></trkpt><trkpt lat="42.55479051383245" lon="12.005695478378529"><ele>499.6666666666667</ele><time>2026-03-29T11:36:33.996Z</time></trkpt><trkpt lat="42.554949208507196" lon="12.005734630274226"><ele>494.33333333333337</ele><time>2026-03-29T11:36:34.996Z</time></trkpt><trkpt lat="42.555115623241534" lon="12.005745821768604"><ele>489.0</ele><time>2026-03-29T11:36:35.996Z</time></trkpt><trkpt lat="42.55528429405703" lon="12.005727642249864"><ele>488.66666666666663</ele><time>2026-03-29T11:36:36.996Z</time></trkpt><trkpt lat="42.55546053295263" lon="12.005679687753592"><ele>488.3333333333333</ele><time>2026-03-29T11:36:37.996Z</time></trkpt><trkpt lat="42.555637889748326" lon="12.005603417793715"><ele>488.0</ele><time>2026-03-29T11:36:38.996Z</time></trkpt><trkpt lat="42.555807513247025" lon="12.00549839723872"><ele>488.0</ele><time>2026-03-29T11:36:39.996Z</time></trkpt><trkpt lat="42.55596986401346" lon="12.00537334656401"><ele>488.0</ele><time>2026-03-29T11:36:40.996Z</time></trkpt><trkpt lat="42.556128010582746" lon="12.005256037180567"><ele>488.0</ele><time>2026-03-29T11:36:41.996Z</time></trkpt><trkpt lat="42.556276360822075" lon="12.005131923189145"><ele>486.3333333333333</ele><time>2026-03-29T11:36:42.996Z</time></trkpt><trkpt lat="42.55642733123968" lon="12.005015883866902"><ele>484.66666666666663</ele><time>2026-03-29T11:36:43.996Z</time></trkpt><trkpt lat="42.55658343213338" lon="12.004907712468798"><ele>483.0</ele><time>2026-03-29T11:36:44.996Z</time></trkpt><trkpt lat="42.556740642184224" lon="12.004827407946221"><ele>483.0</ele><time>2026-03-29T11:36:45.996Z</time></trkpt><trkpt lat="42.55689224536851" lon="12.00479068661196"><ele>483.0</ele><time>2026-03-29T11:36:46.996Z</time></trkpt><trkpt lat="42.55704308911528" lon="12.004797081539202"><ele>483.0</ele><time>2026-03-29T11:36:47.996Z</time></trkpt><trkpt lat="42.557202484158296" lon="12.004828338241873"><ele>481.33333333333337</ele><time>2026-03-29T11:36:48.996Z</time></trkpt><trkpt lat="42.55737290158847" lon="12.00486723096495"><ele>479.6666666666667</ele><time>2026-03-29T11:36:49.996Z</time></trkpt><trkpt lat="42.557533565085905" lon="12.004921746764094"><ele>478.0</ele><time>2026-03-29T11:36:50.996Z</time></trkpt><trkpt lat="42.5576912157861" lon="12.0050007252294"><ele>479.33333333333337</ele><time>2026-03-29T11:36:51.996Z</time></trkpt><trkpt lat="42.55784522767773" lon="12.005093675923414"><ele>480.66666666666663</ele><time>2026-03-29T11:36:52.996Z</time></trkpt><trkpt lat="42.55798853723995" lon="12.005194713448038"><ele>482.0</ele><time>2026-03-29T11:36:53.996Z</time></trkpt><trkpt lat="42.55812664820353" lon="12.005304716182541"><ele>482.0</ele><time>2026-03-29T11:36:54.996Z</time></trkpt><trkpt lat="42.558258500552064" lon="12.00542489720195"><ele>482.0</ele><time>2026-03-29T11:36:55.996Z</time></trkpt><trkpt lat="42.558387456055" lon="12.005552224057771"><ele>482.0</ele><time>2026-03-29T11:36:56.996Z</time></trkpt><trkpt lat="42.558504160370155" lon="12.005687615918312"><ele>481.0</ele><time>2026-03-29T11:36:57.996Z</time></trkpt><trkpt lat="42.55860279561522" lon="12.00584649120295"><ele>480.0</ele><time>2026-03-29T11:36:58.996Z</time></trkpt><trkpt lat="42.55868375814941" lon="12.006014045023509"><ele>479.0</ele><time>2026-03-29T11:36:59.996Z</time></trkpt><trkpt lat="42.5587378772507" lon="12.006193584892582"><ele>478.0</ele><time>2026-03-29T11:37:00.996Z</time></trkpt><trkpt lat="42.55880159880999" lon="12.00636532475472"><ele>478.0</ele><time>2026-03-29T11:37:01.996Z</time></trkpt><trkpt lat="42.55889739632496" lon="12.006499617938173"><ele>478.0</ele><time>2026-03-29T11:37:02.996Z</time></trkpt><trkpt lat="42.55898170135616" lon="12.006617526700326"><ele>478.0</ele><time>2026-03-29T11:37:03.996Z</time></trkpt><trkpt lat="42.559086516384944" lon="12.006695637596929"><ele>478.0</ele><time>2026-03-29T11:37:04.996Z</time></trkpt><trkpt lat="42.55920082507003" lon="12.006729041591417"><ele>478.0</ele><time>2026-03-29T11:37:05.996Z</time></trkpt><trkpt lat="42.559313619765746" lon="12.006712133409996"><ele>478.0</ele><time>2026-03-29T11:37:06.996Z</time></trkpt><trkpt lat="42.55942132068522" lon="12.006657937677076"><ele>478.0</ele><time>2026-03-29T11:37:07.996Z</time></trkpt><trkpt lat="42.55952728314948" lon="12.00656566642"><ele>478.0</ele><time>2026-03-29T11:37:08.996Z</time></trkpt><trkpt lat="42.55963749203488" lon="12.006452880086304"><ele>476.0</ele><time>2026-03-29T11:37:09.996Z</time></trkpt><trkpt lat="42.55975000440783" lon="12.006323673182449"><ele>474.0</ele><time>2026-03-29T11:37:10.996Z</time></trkpt><trkpt lat="42.55987759309101" lon="12.006212891591444"><ele>472.0</ele><time>2026-03-29T11:37:11.996Z</time></trkpt><trkpt lat="42.560019083030234" lon="12.006136820229273"><ele>472.0</ele><time>2026-03-29T11:37:12.996Z</time></trkpt><trkpt lat="42.56016044875676" lon="12.006104990323575"><ele>472.0</ele><time>2026-03-29T11:37:13.996Z</time></trkpt><trkpt lat="42.56031107966969" lon="12.006103803382299"><ele>472.0</ele><time>2026-03-29T11:37:14.995Z</time></trkpt><trkpt lat="42.560467459335925" lon="12.006139705980067"><ele>471.33333333333337</ele><time>2026-03-29T11:37:15.995Z</time></trkpt><trkpt lat="42.56062295886594" lon="12.006195756041764"><ele>470.66666666666663</ele><time>2026-03-29T11:37:16.995Z</time></trkpt><trkpt lat="42.56079532308203" lon="12.006217942249453"><ele>470.0</ele><time>2026-03-29T11:37:17.995Z</time></trkpt><trkpt lat="42.560962317925195" lon="12.006256846637124"><ele>470.0</ele><time>2026-03-29T11:37:18.995Z</time></trkpt><trkpt lat="42.56112859204234" lon="12.006320925381834"><ele>470.0</ele><time>2026-03-29T11:37:19.995Z</time></trkpt><trkpt lat="42.56129831861934" lon="12.006341909052523"><ele>470.0</ele><time>2026-03-29T11:37:20.995Z</time></trkpt><trkpt lat="42.56146810697272" lon="12.006390941570922"><ele>468.3333333333333</ele><time>2026-03-29T11:37:21.995Z</time></trkpt><trkpt lat="42.561646523327326" lon="12.006442113118219"><ele>466.66666666666663</ele><time>2026-03-29T11:37:22.995Z</time></trkpt><trkpt lat="42.56182471551542" lon="12.006487669574883"><ele>465.0</ele><time>2026-03-29T11:37:23.995Z</time></trkpt><trkpt lat="42.56200408742987" lon="12.006531599863017"><ele>465.33333333333337</ele><time>2026-03-29T11:37:24.995Z</time></trkpt><trkpt lat="42.56218897428104" lon="12.0065779389175"><ele>465.6666666666667</ele><time>2026-03-29T11:37:25.995Z</time></trkpt><trkpt lat="42.562373888402945" lon="12.006623236523822"><ele>466.0</ele><time>2026-03-29T11:37:26.995Z</time></trkpt><trkpt lat="42.562560249388575" lon="12.006671716499174"><ele>466.0</ele><time>2026-03-29T11:37:27.995Z</time></trkpt><trkpt lat="42.56274541016778" lon="12.006714606085412"><ele>466.0</ele><time>2026-03-29T11:37:28.995Z</time></trkpt><trkpt lat="42.56293240144742" lon="12.006760647171903"><ele>466.0</ele><time>2026-03-29T11:37:29.995Z</time></trkpt><trkpt lat="42.56312037546579" lon="12.00680750132101"><ele>465.33333333333337</ele><time>2026-03-29T11:37:30.995Z</time></trkpt><trkpt lat="42.56330619378283" lon="12.00685247616528"><ele>464.66666666666663</ele><time>2026-03-29T11:37:31.995Z</time></trkpt><trkpt lat="42.56349405661328" lon="12.006893508737278"><ele>464.0</ele><time>2026-03-29T11:37:32.995Z</time></trkpt><trkpt lat="42.56367689840753" lon="12.006937448784667"><ele>462.0</ele><time>2026-03-29T11:37:33.995Z</time></trkpt><trkpt lat="42.56386421740989" lon="12.006986056440478"><ele>460.0</ele><time>2026-03-29T11:37:34.995Z</time></trkpt><trkpt lat="42.564055328792804" lon="12.007036043842145"><ele>458.0</ele><time>2026-03-29T11:37:35.995Z</time></trkpt><trkpt lat="42.564248020737885" lon="12.007078001024516"><ele>458.0</ele><time>2026-03-29T11:37:36.995Z</time></trkpt><trkpt lat="42.56444180166703" lon="12.00712500590363"><ele>458.0</ele><time>2026-03-29T11:37:37.995Z</time></trkpt><trkpt lat="42.56463691710525" lon="12.00717523256636"><ele>458.0</ele><time>2026-03-29T11:37:38.995Z</time></trkpt><trkpt lat="42.56483494781412" lon="12.007224578934228"><ele>458.0</ele><time>2026-03-29T11:37:39.995Z</time></trkpt><trkpt lat="42.56503292245333" lon="12.007276677912888"><ele>458.0</ele><time>2026-03-29T11:37:40.995Z</time></trkpt><trkpt lat="42.56523323345572" lon="12.007325436901098"><ele>458.0</ele><time>2026-03-29T11:37:41.995Z</time></trkpt><trkpt lat="42.56541757951626" lon="12.007375693499492"><ele>458.0</ele><time>2026-03-29T11:37:42.995Z</time></trkpt><trkpt lat="42.565595084510186" lon="12.007439739833135"><ele>458.0</ele><time>2026-03-29T11:37:43.995Z</time></trkpt><trkpt lat="42.56575897690547" lon="12.00754241745036"><ele>458.0</ele><time>2026-03-29T11:37:44.995Z</time></trkpt><trkpt lat="42.56590566971854" lon="12.007675469773153"><ele>455.0</ele><time>2026-03-29T11:37:45.995Z</time></trkpt><trkpt lat="42.56603650877067" lon="12.007845357745408"><ele>452.0</ele><time>2026-03-29T11:37:46.995Z</time></trkpt><trkpt lat="42.56615087565774" lon="12.008034458584946"><ele>449.0</ele><time>2026-03-29T11:37:47.995Z</time></trkpt><trkpt lat="42.566268059743834" lon="12.008225546610248"><ele>446.66666666666663</ele><time>2026-03-29T11:37:48.995Z</time></trkpt><trkpt lat="42.5663925387145" lon="12.008415312029747"><ele>444.33333333333337</ele><time>2026-03-29T11:37:49.995Z</time></trkpt><trkpt lat="42.566514132376966" lon="12.008607360147787"><ele>442.0</ele><time>2026-03-29T11:37:50.995Z</time></trkpt><trkpt lat="42.56663079202071" lon="12.00879705176112"><ele>442.0</ele><time>2026-03-29T11:37:51.995Z</time></trkpt><trkpt lat="42.566747961738756" lon="12.00897903401793"><ele>442.0</ele><time>2026-03-29T11:37:52.995Z</time></trkpt><trkpt lat="42.56687251681986" lon="12.00914452291618"><ele>442.0</ele><time>2026-03-29T11:37:53.995Z</time></trkpt><trkpt lat="42.56700836608106" lon="12.009288752795179"><ele>440.33333333333337</ele><time>2026-03-29T11:37:54.995Z</time></trkpt><trkpt lat="42.56715518413576" lon="12.009401940852767"><ele>438.66666666666663</ele><time>2026-03-29T11:37:55.995Z</time></trkpt><trkpt lat="42.56731097077579" lon="12.00947829571383"><ele>437.0</ele><time>2026-03-29T11:37:56.995Z</time></trkpt><trkpt lat="42.567478111371535" lon="12.00951207156995"><ele>437.0</ele><time>2026-03-29T11:37:57.995Z</time></trkpt><trkpt lat="42.567645018188955" lon="12.009518933683934"><ele>437.0</ele><time>2026-03-29T11:37:58.995Z</time></trkpt><trkpt lat="42.56781431390433" lon="12.009496395399635"><ele>437.0</ele><time>2026-03-29T11:37:59.995Z</time></trkpt><trkpt lat="42.56799157656788" lon="12.009472233919197"><ele>436.0</ele><time>2026-03-29T11:38:00.995Z</time></trkpt><trkpt lat="42.56816813094039" lon="12.009448414046224"><ele>435.0</ele><time>2026-03-29T11:38:01.995Z</time></trkpt><trkpt lat="42.568350290247004" lon="12.009422610179248"><ele>434.0</ele><time>2026-03-29T11:38:02.995Z</time></trkpt><trkpt lat="42.56853506995652" lon="12.00939935900596"><ele>430.3333333333333</ele><time>2026-03-29T11:38:03.995Z</time></trkpt><trkpt lat="42.56872238685274" lon="12.009368818952453"><ele>426.66666666666663</ele><time>2026-03-29T11:38:04.995Z</time></trkpt><trkpt lat="42.56891259491759" lon="12.009340537695861"><ele>423.0</ele><time>2026-03-29T11:38:05.995Z</time></trkpt><trkpt lat="42.56911587956349" lon="12.00933903258227"><ele>423.0</ele><time>2026-03-29T11:38:06.995Z</time></trkpt><trkpt lat="42.569313534864904" lon="12.009308375685114"><ele>423.0</ele><time>2026-03-29T11:38:07.995Z</time></trkpt><trkpt lat="42.5695124399999" lon="12.009278683113246"><ele>423.0</ele><time>2026-03-29T11:38:08.995Z</time></trkpt><trkpt lat="42.56971092946406" lon="12.009254599080188"><ele>422.66666666666663</ele><time>2026-03-29T11:38:09.995Z</time></trkpt><trkpt lat="42.56991184020485" lon="12.009232450968165"><ele>422.3333333333333</ele><time>2026-03-29T11:38:10.995Z</time></trkpt><trkpt lat="42.57011000863721" lon="12.009213482287436"><ele>422.0</ele><time>2026-03-29T11:38:11.995Z</time></trkpt><trkpt lat="42.57031485546621" lon="12.009210979126344"><ele>422.3333333333333</ele><time>2026-03-29T11:38:12.995Z</time></trkpt><trkpt lat="42.57051578123315" lon="12.009239152242246"><ele>422.66666666666663</ele><time>2026-03-29T11:38:13.995Z</time></trkpt><trkpt lat="42.57071724061227" lon="12.009282495235944"><ele>423.0</ele><time>2026-03-29T11:38:14.995Z</time></trkpt><trkpt lat="42.57091372929371" lon="12.009328664481053"><ele>423.0</ele><time>2026-03-29T11:38:15.995Z</time></trkpt><trkpt lat="42.571109318739815" lon="12.009371786955327"><ele>423.0</ele><time>2026-03-29T11:38:16.995Z</time></trkpt><trkpt lat="42.571304967445656" lon="12.009418674584234"><ele>423.0</ele><time>2026-03-29T11:38:17.995Z</time></trkpt><trkpt lat="42.57149751575855" lon="12.00946945358573"><ele>423.0</ele><time>2026-03-29T11:38:18.995Z</time></trkpt><trkpt lat="42.57169090051487" lon="12.009515083007356"><ele>423.0</ele><time>2026-03-29T11:38:19.995Z</time></trkpt><trkpt lat="42.57188426812852" lon="12.00956009520426"><ele>423.0</ele><time>2026-03-29T11:38:20.995Z</time></trkpt><trkpt lat="42.572079067361294" lon="12.009604909837435"><ele>423.0</ele><time>2026-03-29T11:38:21.995Z</time></trkpt><trkpt lat="42.57227128015882" lon="12.009646230821497"><ele>423.0</ele><time>2026-03-29T11:38:22.995Z</time></trkpt><trkpt lat="42.57246451518437" lon="12.009690219504135"><ele>423.0</ele><time>2026-03-29T11:38:23.995Z</time></trkpt><trkpt lat="42.572655050271116" lon="12.009731977843044"><ele>423.0</ele><time>2026-03-29T11:38:24.995Z</time></trkpt><trkpt lat="42.572846581571646" lon="12.00977702732862"><ele>423.0</ele><time>2026-03-29T11:38:25.995Z</time></trkpt><trkpt lat="42.57303583535287" lon="12.009823206613824"><ele>423.0</ele><time>2026-03-29T11:38:26.994Z</time></trkpt><trkpt lat="42.57322450853759" lon="12.0098616096451"><ele>424.0</ele><time>2026-03-29T11:38:27.994Z</time></trkpt><trkpt lat="42.57340902264933" lon="12.009909695624813"><ele>425.0</ele><time>2026-03-29T11:38:28.994Z</time></trkpt><trkpt lat="42.57359721927304" lon="12.009934071586363"><ele>426.0</ele><time>2026-03-29T11:38:29.994Z</time></trkpt><trkpt lat="42.573781547013866" lon="12.009968075137966"><ele>426.66666666666663</ele><time>2026-03-29T11:38:30.994Z</time></trkpt><trkpt lat="42.57396992289396" lon="12.009986122193778"><ele>427.3333333333333</ele><time>2026-03-29T11:38:31.994Z</time></trkpt><trkpt lat="42.574159006439494" lon="12.010004222066183"><ele>428.0</ele><time>2026-03-29T11:38:32.994Z</time></trkpt><trkpt lat="42.574346515235476" lon="12.010021679161685"><ele>426.66666666666663</ele><time>2026-03-29T11:38:33.994Z</time></trkpt><trkpt lat="42.574535431038" lon="12.01003723993759"><ele>425.33333333333337</ele><time>2026-03-29T11:38:34.994Z</time></trkpt><trkpt lat="42.57472425109121" lon="12.010051397790308"><ele>424.0</ele><time>2026-03-29T11:38:35.994Z</time></trkpt><trkpt lat="42.574912185975506" lon="12.010069881912823"><ele>424.0</ele><time>2026-03-29T11:38:36.994Z</time></trkpt><trkpt lat="42.57509966409129" lon="12.010087392568257"><ele>424.0</ele><time>2026-03-29T11:38:37.994Z</time></trkpt><trkpt lat="42.57528974985677" lon="12.010098868941148"><ele>424.0</ele><time>2026-03-29T11:38:38.994Z</time></trkpt><trkpt lat="42.575480102086104" lon="12.010115478402986"><ele>423.6666666666667</ele><time>2026-03-29T11:38:39.994Z</time></trkpt><trkpt lat="42.575666958305234" lon="12.010127619166287"><ele>423.33333333333337</ele><time>2026-03-29T11:38:40.994Z</time></trkpt><trkpt lat="42.57585836253037" lon="12.010146222006535"><ele>423.0</ele><time>2026-03-29T11:38:41.994Z</time></trkpt><trkpt lat="42.57605286742" lon="12.010171273473688"><ele>422.66666666666663</ele><time>2026-03-29T11:38:42.994Z</time></trkpt><trkpt lat="42.57624773825915" lon="12.010186677496208"><ele>422.3333333333333</ele><time>2026-03-29T11:38:43.994Z</time></trkpt><trkpt lat="42.57643852214799" lon="12.010200298083019"><ele>422.0</ele><time>2026-03-29T11:38:44.994Z</time></trkpt><trkpt lat="42.57663385925292" lon="12.010216324642855"><ele>422.0</ele><time>2026-03-29T11:38:45.994Z</time></trkpt><trkpt lat="42.57682808203029" lon="12.010233505839153"><ele>422.0</ele><time>2026-03-29T11:38:46.994Z</time></trkpt><trkpt lat="42.57702207666636" lon="12.010249570090746"><ele>422.0</ele><time>2026-03-29T11:38:47.994Z</time></trkpt><trkpt lat="42.57722070686917" lon="12.010266428898955"><ele>422.66666666666663</ele><time>2026-03-29T11:38:48.994Z</time></trkpt><trkpt lat="42.57741722623053" lon="12.010281523128771"><ele>423.33333333333337</ele><time>2026-03-29T11:38:49.994Z</time></trkpt><trkpt lat="42.57761223144871" lon="12.010299218703098"><ele>424.0</ele><time>2026-03-29T11:38:50.994Z</time></trkpt><trkpt lat="42.57780873866505" lon="12.010319241052526"><ele>424.0</ele><time>2026-03-29T11:38:51.994Z</time></trkpt><trkpt lat="42.57800285119454" lon="12.01033334805353"><ele>424.0</ele><time>2026-03-29T11:38:52.994Z</time></trkpt><trkpt lat="42.57819226677001" lon="12.010351596531564"><ele>424.0</ele><time>2026-03-29T11:38:53.994Z</time></trkpt><trkpt lat="42.57837761861104" lon="12.010368404056392"><ele>424.0</ele><time>2026-03-29T11:38:54.994Z</time></trkpt><trkpt lat="42.57856455691412" lon="12.010383678993897"><ele>424.0</ele><time>2026-03-29T11:38:55.994Z</time></trkpt><trkpt lat="42.57874451920543" lon="12.010404093574513"><ele>424.0</ele><time>2026-03-29T11:38:56.994Z</time></trkpt><trkpt lat="42.5789187707093" lon="12.010417985922498"><ele>421.0</ele><time>2026-03-29T11:38:57.994Z</time></trkpt><trkpt lat="42.57908680502026" lon="12.010434696706383"><ele>418.0</ele><time>2026-03-29T11:38:58.994Z</time></trkpt><trkpt lat="42.57924741572601" lon="12.010432948451637"><ele>415.0</ele><time>2026-03-29T11:38:59.994Z</time></trkpt><trkpt lat="42.57940490400213" lon="12.010393628902756"><ele>414.33333333333337</ele><time>2026-03-29T11:39:00.994Z</time></trkpt><trkpt lat="42.57954427018105" lon="12.010298787548626"><ele>413.66666666666663</ele><time>2026-03-29T11:39:01.994Z</time></trkpt><trkpt lat="42.5796651658922" lon="12.010160807881629"><ele>413.0</ele><time>2026-03-29T11:39:02.994Z</time></trkpt><trkpt lat="42.579773609039286" lon="12.010008141156455"><ele>412.3333333333333</ele><time>2026-03-29T11:39:03.994Z</time></trkpt><trkpt lat="42.57989594129988" lon="12.00985323104991"><ele>411.66666666666663</ele><time>2026-03-29T11:39:04.994Z</time></trkpt><trkpt lat="42.58000417442496" lon="12.00967109410614"><ele>411.0</ele><time>2026-03-29T11:39:05.994Z</time></trkpt><trkpt lat="42.580128140485606" lon="12.009507388578653"><ele>411.0</ele><time>2026-03-29T11:39:06.994Z</time></trkpt><trkpt lat="42.580259570154254" lon="12.009327433713388"><ele>411.0</ele><time>2026-03-29T11:39:07.994Z</time></trkpt><trkpt lat="42.580385293768884" lon="12.00915267636398"><ele>411.0</ele><time>2026-03-29T11:39:08.994Z</time></trkpt><trkpt lat="42.58052072867838" lon="12.008987960838562"><ele>410.0</ele><time>2026-03-29T11:39:09.994Z</time></trkpt><trkpt lat="42.58064582942751" lon="12.008818900567338"><ele>409.0</ele><time>2026-03-29T11:39:10.994Z</time></trkpt><trkpt lat="42.58075768595637" lon="12.008640953245749"><ele>408.0</ele><time>2026-03-29T11:39:11.994Z</time></trkpt><trkpt lat="42.5808898166962" lon="12.008500706207458"><ele>408.0</ele><time>2026-03-29T11:39:12.994Z</time></trkpt><trkpt lat="42.581032292269356" lon="12.008390938437724"><ele>408.0</ele><time>2026-03-29T11:39:13.994Z</time></trkpt><trkpt lat="42.58118172768838" lon="12.00832109591373"><ele>408.0</ele><time>2026-03-29T11:39:14.994Z</time></trkpt><trkpt lat="42.58133611878035" lon="12.008314474366662"><ele>404.66666666666663</ele><time>2026-03-29T11:39:15.994Z</time></trkpt><trkpt lat="42.581488633057916" lon="12.008304532866275"><ele>401.3333333333333</ele><time>2026-03-29T11:39:16.994Z</time></trkpt><trkpt lat="42.5816406712683" lon="12.00830295172752"><ele>398.0</ele><time>2026-03-29T11:39:17.994Z</time></trkpt><trkpt lat="42.58178708460114" lon="12.008295281511739"><ele>398.0</ele><time>2026-03-29T11:39:18.994Z</time></trkpt><trkpt lat="42.58193673507373" lon="12.008267768444798"><ele>398.0</ele><time>2026-03-29T11:39:19.994Z</time></trkpt><trkpt lat="42.5820794924139" lon="12.008166389696276"><ele>398.0</ele><time>2026-03-29T11:39:20.994Z</time></trkpt><trkpt lat="42.582211717170566" lon="12.008038297668888"><ele>399.66666666666663</ele><time>2026-03-29T11:39:21.994Z</time></trkpt><trkpt lat="42.5823405662118" lon="12.007902332404145"><ele>401.33333333333337</ele><time>2026-03-29T11:39:22.994Z</time></trkpt><trkpt lat="42.58246940673156" lon="12.007765218072883"><ele>403.0</ele><time>2026-03-29T11:39:23.994Z</time></trkpt><trkpt lat="42.58260118128091" lon="12.007624981268506"><ele>402.33333333333337</ele><time>2026-03-29T11:39:24.994Z</time></trkpt><trkpt lat="42.58273543964283" lon="12.00748210127408"><ele>401.66666666666663</ele><time>2026-03-29T11:39:25.994Z</time></trkpt><trkpt lat="42.58287289824791" lon="12.007335815249414"><ele>401.0</ele><time>2026-03-29T11:39:26.994Z</time></trkpt><trkpt lat="42.583000979017996" lon="12.007196334770324"><ele>401.0</ele><time>2026-03-29T11:39:27.994Z</time></trkpt><trkpt lat="42.58312881275493" lon="12.00705646655742"><ele>401.0</ele><time>2026-03-29T11:39:28.994Z</time></trkpt><trkpt lat="42.583245587998675" lon="12.006897569111462"><ele>401.0</ele><time>2026-03-29T11:39:29.994Z</time></trkpt><trkpt lat="42.583363623248644" lon="12.006737445689405"><ele>398.66666666666663</ele><time>2026-03-29T11:39:30.994Z</time></trkpt><trkpt lat="42.58346736650951" lon="12.006567034244911"><ele>396.33333333333337</ele><time>2026-03-29T11:39:31.994Z</time></trkpt><trkpt lat="42.58356480276619" lon="12.00638817278134"><ele>394.0</ele><time>2026-03-29T11:39:32.994Z</time></trkpt><trkpt lat="42.58366320678682" lon="12.006215694412353"><ele>392.33333333333337</ele><time>2026-03-29T11:39:33.994Z</time></trkpt><trkpt lat="42.58376935566974" lon="12.006057189549333"><ele>390.66666666666663</ele><time>2026-03-29T11:39:34.994Z</time></trkpt><trkpt lat="42.58388865133228" lon="12.005912878299133"><ele>389.0</ele><time>2026-03-29T11:39:35.994Z</time></trkpt><trkpt lat="42.58402601891005" lon="12.00579294891114"><ele>389.0</ele><time>2026-03-29T11:39:36.994Z</time></trkpt><trkpt lat="42.58417448815728" lon="12.005689035062712"><ele>389.0</ele><time>2026-03-29T11:39:37.994Z</time></trkpt><trkpt lat="42.58432208083132" lon="12.005591820791457"><ele>389.0</ele><time>2026-03-29T11:39:38.993Z</time></trkpt><trkpt lat="42.58447145987864" lon="12.005484005334461"><ele>392.3333333333333</ele><time>2026-03-29T11:39:39.993Z</time></trkpt><trkpt lat="42.58461881897085" lon="12.0053751146645"><ele>395.66666666666663</ele><time>2026-03-29T11:39:40.993Z</time></trkpt><trkpt lat="42.58476538154607" lon="12.005268933885322"><ele>399.0</ele><time>2026-03-29T11:39:41.993Z</time></trkpt><trkpt lat="42.58490638478846" lon="12.005169879628639"><ele>399.0</ele><time>2026-03-29T11:39:42.993Z</time></trkpt><trkpt lat="42.585042181917544" lon="12.005066664047504"><ele>399.0</ele><time>2026-03-29T11:39:43.993Z</time></trkpt><trkpt lat="42.58517373250471" lon="12.00496729008397"><ele>399.0</ele><time>2026-03-29T11:39:44.993Z</time></trkpt><trkpt lat="42.58530208532074" lon="12.004868967419691"><ele>399.5</ele><time>2026-03-29T11:39:45.993Z</time></trkpt><trkpt lat="42.585426485165655" lon="12.004761760323117"><ele>400.0</ele><time>2026-03-29T11:39:46.993Z</time></trkpt><trkpt lat="42.58553568089721" lon="12.004644258422662"><ele>400.5</ele><time>2026-03-29T11:39:47.993Z</time></trkpt><trkpt lat="42.58562608853264" lon="12.00450289541809"><ele>401.0</ele><time>2026-03-29T11:39:48.993Z</time></trkpt><trkpt lat="42.58568187537857" lon="12.004343073939998"><ele>401.0</ele><time>2026-03-29T11:39:49.993Z</time></trkpt><trkpt lat="42.58570117224861" lon="12.004168460880765"><ele>401.0</ele><time>2026-03-29T11:39:50.993Z</time></trkpt><trkpt lat="42.58568703250435" lon="12.003997474965722"><ele>401.0</ele><time>2026-03-29T11:39:51.993Z</time></trkpt><trkpt lat="42.585636962311426" lon="12.003837913049656"><ele>401.0</ele><time>2026-03-29T11:39:52.993Z</time></trkpt><trkpt lat="42.5855597502268" lon="12.003696081711933"><ele>401.25</ele><time>2026-03-29T11:39:53.993Z</time></trkpt><trkpt lat="42.585476054968254" lon="12.003567253365652"><ele>401.5</ele><time>2026-03-29T11:39:54.993Z</time></trkpt><trkpt lat="42.58539986242145" lon="12.00342328674031"><ele>401.75</ele><time>2026-03-29T11:39:55.993Z</time></trkpt><trkpt lat="42.58531550891409" lon="12.003289478314532"><ele>402.0</ele><time>2026-03-29T11:39:56.993Z</time></trkpt><trkpt lat="42.585236744926746" lon="12.00316453652277"><ele>399.0</ele><time>2026-03-29T11:39:57.993Z</time></trkpt><trkpt lat="42.58516727538213" lon="12.003030438094832"><ele>396.0</ele><time>2026-03-29T11:39:58.993Z</time></trkpt><trkpt lat="42.585107919343535" lon="12.00290774862674"><ele>393.0</ele><time>2026-03-29T11:39:59.993Z</time></trkpt><trkpt lat="42.58509224172721" lon="12.002746950800507"><ele>390.0</ele><time>2026-03-29T11:40:00.993Z</time></trkpt><trkpt lat="42.58511117634832" lon="12.002590465651123"><ele>389.0</ele><time>2026-03-29T11:40:01.993Z</time></trkpt><trkpt lat="42.58517375622231" lon="12.002468857470104"><ele>388.0</ele><time>2026-03-29T11:40:02.993Z</time></trkpt><trkpt lat="42.5852622029124" lon="12.002369642380724"><ele>387.0</ele><time>2026-03-29T11:40:03.993Z</time></trkpt><trkpt lat="42.58537070478139" lon="12.002289227673886"><ele>386.0</ele><time>2026-03-29T11:40:04.993Z</time></trkpt><trkpt lat="42.58549154792036" lon="12.002237308883759"><ele>386.0</ele><time>2026-03-29T11:40:05.993Z</time></trkpt><trkpt lat="42.585621317862845" lon="12.002189197788276"><ele>386.0</ele><time>2026-03-29T11:40:06.993Z</time></trkpt><trkpt lat="42.585755755266234" lon="12.002141193954312"><ele>386.0</ele><time>2026-03-29T11:40:07.993Z</time></trkpt><trkpt lat="42.58589943656814" lon="12.002090060551797"><ele>386.0</ele><time>2026-03-29T11:40:08.993Z</time></trkpt><trkpt lat="42.586052102496026" lon="12.002050468459604"><ele>387.0</ele><time>2026-03-29T11:40:09.993Z</time></trkpt><trkpt lat="42.58621011124203" lon="12.001988723835886"><ele>388.0</ele><time>2026-03-29T11:40:10.993Z</time></trkpt><trkpt lat="42.58636817381689" lon="12.001932596444334"><ele>389.0</ele><time>2026-03-29T11:40:11.993Z</time></trkpt><trkpt lat="42.586529366264145" lon="12.001878122151025"><ele>389.0</ele><time>2026-03-29T11:40:12.993Z</time></trkpt><trkpt lat="42.58669390131316" lon="12.00183096732152"><ele>389.0</ele><time>2026-03-29T11:40:13.993Z</time></trkpt><trkpt lat="42.58686855433282" lon="12.00181878960876"><ele>389.0</ele><time>2026-03-29T11:40:14.993Z</time></trkpt><trkpt lat="42.58704487367412" lon="12.001827459043993"><ele>388.0</ele><time>2026-03-29T11:40:15.993Z</time></trkpt><trkpt lat="42.58722126235809" lon="12.00183647286758"><ele>387.0</ele><time>2026-03-29T11:40:16.993Z</time></trkpt><trkpt lat="42.58739942916357" lon="12.001872981304409"><ele>386.0</ele><time>2026-03-29T11:40:17.993Z</time></trkpt><trkpt lat="42.587578992035525" lon="12.001883836366993"><ele>386.0</ele><time>2026-03-29T11:40:18.993Z</time></trkpt><trkpt lat="42.58776221482379" lon="12.001871061110554"><ele>386.0</ele><time>2026-03-29T11:40:19.993Z</time></trkpt><trkpt lat="42.587936822084515" lon="12.001800682953146"><ele>386.0</ele><time>2026-03-29T11:40:20.993Z</time></trkpt><trkpt lat="42.58811580996277" lon="12.001739563140395"><ele>386.0</ele><time>2026-03-29T11:40:21.993Z</time></trkpt><trkpt lat="42.58829131698825" lon="12.001689814384351"><ele>386.0</ele><time>2026-03-29T11:40:22.993Z</time></trkpt><trkpt lat="42.58846879087788" lon="12.00162494197628"><ele>386.0</ele><time>2026-03-29T11:40:23.993Z</time></trkpt><trkpt lat="42.58864653339217" lon="12.00156364910817"><ele>383.3333333333333</ele><time>2026-03-29T11:40:24.993Z</time></trkpt><trkpt lat="42.588827552875486" lon="12.001501586796655"><ele>380.66666666666663</ele><time>2026-03-29T11:40:25.993Z</time></trkpt><trkpt lat="42.589010067575245" lon="12.001439165063037"><ele>378.0</ele><time>2026-03-29T11:40:26.993Z</time></trkpt><trkpt lat="42.58919411270869" lon="12.001373488925381"><ele>378.0</ele><time>2026-03-29T11:40:27.993Z</time></trkpt><trkpt lat="42.58937327242039" lon="12.001287183402574"><ele>378.0</ele><time>2026-03-29T11:40:28.993Z</time></trkpt><trkpt lat="42.589546705457224" lon="12.001183589415021"><ele>378.0</ele><time>2026-03-29T11:40:29.993Z</time></trkpt><trkpt lat="42.58970362208931" lon="12.00103576465958"><ele>378.6666666666667</ele><time>2026-03-29T11:40:30.993Z</time></trkpt><trkpt lat="42.58986573085222" lon="12.000905633872353"><ele>379.33333333333337</ele><time>2026-03-29T11:40:31.993Z</time></trkpt><trkpt lat="42.59003994620206" lon="12.000797972882113"><ele>380.0</ele><time>2026-03-29T11:40:32.993Z</time></trkpt><trkpt lat="42.59022282018354" lon="12.000713020058594"><ele>377.6666666666667</ele><time>2026-03-29T11:40:33.993Z</time></trkpt><trkpt lat="42.59041275578611" lon="12.000657751823823"><ele>375.3333333333333</ele><time>2026-03-29T11:40:34.993Z</time></trkpt><trkpt lat="42.590607648816594" lon="12.000646242327198"><ele>373.0</ele><time>2026-03-29T11:40:35.993Z</time></trkpt><trkpt lat="42.59080789604536" lon="12.00067045484384"><ele>373.0</ele><time>2026-03-29T11:40:36.993Z</time></trkpt><trkpt lat="42.59101320661012" lon="12.000709700169645"><ele>373.0</ele><time>2026-03-29T11:40:37.993Z</time></trkpt><trkpt lat="42.59121902376479" lon="12.000753319065797"><ele>373.0</ele><time>2026-03-29T11:40:38.993Z</time></trkpt><trkpt lat="42.5914240774099" lon="12.000789872577068"><ele>372.3333333333333</ele><time>2026-03-29T11:40:39.993Z</time></trkpt><trkpt lat="42.59162790536678" lon="12.000825753270586"><ele>371.6666666666667</ele><time>2026-03-29T11:40:40.993Z</time></trkpt><trkpt lat="42.59182786418642" lon="12.000851173747357"><ele>371.0</ele><time>2026-03-29T11:40:41.993Z</time></trkpt><trkpt lat="42.59202739496063" lon="12.000853401243463"><ele>367.0</ele><time>2026-03-29T11:40:42.993Z</time></trkpt><trkpt lat="42.592226480644776" lon="12.000830377368239"><ele>363.0</ele><time>2026-03-29T11:40:43.993Z</time></trkpt><trkpt lat="42.592434227769196" lon="12.000795994516896"><ele>359.0</ele><time>2026-03-29T11:40:44.993Z</time></trkpt><trkpt lat="42.592638489144555" lon="12.000750293117967"><ele>358.0</ele><time>2026-03-29T11:40:45.993Z</time></trkpt><trkpt lat="42.592855666971445" lon="12.000689189782793"><ele>357.0</ele><time>2026-03-29T11:40:46.993Z</time></trkpt><trkpt lat="42.59306024761483" lon="12.000635371067935"><ele>356.0</ele><time>2026-03-29T11:40:47.993Z</time></trkpt><trkpt lat="42.593276519766" lon="12.00060248962182"><ele>356.0</ele><time>2026-03-29T11:40:48.993Z</time></trkpt><trkpt lat="42.593491269426984" lon="12.000580117432545"><ele>356.0</ele><time>2026-03-29T11:40:49.993Z</time></trkpt><trkpt lat="42.593721781811695" lon="12.000575488177272"><ele>356.0</ele><time>2026-03-29T11:40:50.993Z</time></trkpt><trkpt lat="42.593952644862576" lon="12.000571991231764"><ele>355.33333333333337</ele><time>2026-03-29T11:40:51.992Z</time></trkpt><trkpt lat="42.59417740358245" lon="12.000556428644256"><ele>354.6666666666667</ele><time>2026-03-29T11:40:52.992Z</time></trkpt><trkpt lat="42.59438836808296" lon="12.000547196481936"><ele>354.0</ele><time>2026-03-29T11:40:53.992Z</time></trkpt><trkpt lat="42.59458032781261" lon="12.000528701409852"><ele>353.3333333333333</ele><time>2026-03-29T11:40:54.992Z</time></trkpt><trkpt lat="42.594766027127584" lon="12.00049937880393"><ele>352.66666666666663</ele><time>2026-03-29T11:40:55.992Z</time></trkpt><trkpt lat="42.5949492763007" lon="12.000448361698176"><ele>352.0</ele><time>2026-03-29T11:40:56.992Z</time></trkpt><trkpt lat="42.595136482785854" lon="12.000371486727449"><ele>352.0</ele><time>2026-03-29T11:40:57.992Z</time></trkpt><trkpt lat="42.59532265055239" lon="12.0002577002072"><ele>352.0</ele><time>2026-03-29T11:40:58.992Z</time></trkpt><trkpt lat="42.595494536365536" lon="12.000137797147838"><ele>352.0</ele><time>2026-03-29T11:40:59.992Z</time></trkpt><trkpt lat="42.59567998430293" lon="12.000014963473369"><ele>351.66666666666663</ele><time>2026-03-29T11:41:00.992Z</time></trkpt><trkpt lat="42.59586539658921" lon="11.999885828794705"><ele>351.3333333333333</ele><time>2026-03-29T11:41:01.992Z</time></trkpt><trkpt lat="42.59604968540932" lon="11.999761242196255"><ele>351.0</ele><time>2026-03-29T11:41:02.992Z</time></trkpt><trkpt lat="42.5962406406295" lon="11.999645347546435"><ele>351.0</ele><time>2026-03-29T11:41:03.992Z</time></trkpt><trkpt lat="42.59643184364255" lon="11.9995498611311"><ele>351.0</ele><time>2026-03-29T11:41:04.992Z</time></trkpt><trkpt lat="42.59662885449866" lon="11.999480698964287"><ele>351.0</ele><time>2026-03-29T11:41:05.992Z</time></trkpt><trkpt lat="42.596826017088866" lon="11.9994445799937"><ele>350.3333333333333</ele><time>2026-03-29T11:41:06.992Z</time></trkpt><trkpt lat="42.59702244550865" lon="11.999444677816493"><ele>349.66666666666663</ele><time>2026-03-29T11:41:07.992Z</time></trkpt><trkpt lat="42.59723606866212" lon="11.999492170713525"><ele>349.0</ele><time>2026-03-29T11:41:08.992Z</time></trkpt><trkpt lat="42.59747046830233" lon="11.999528795064347"><ele>349.0</ele><time>2026-03-29T11:41:09.992Z</time></trkpt><trkpt lat="42.597704097434395" lon="11.999562442690197"><ele>349.0</ele><time>2026-03-29T11:41:10.992Z</time></trkpt><trkpt lat="42.59794487926604" lon="11.99958857182996"><ele>348.5</ele><time>2026-03-29T11:41:11.992Z</time></trkpt><trkpt lat="42.59822210212785" lon="11.999583659646882"><ele>348.0</ele><time>2026-03-29T11:41:12.992Z</time></trkpt><trkpt lat="42.59850712936617" lon="11.999523306656872"><ele>348.0</ele><time>2026-03-29T11:41:13.992Z</time></trkpt><trkpt lat="42.59870472190953" lon="11.99936116748669"><ele>348.0</ele><time>2026-03-29T11:41:15.992Z</time></trkpt><trkpt lat="42.59887879362053" lon="11.999217125243286"><ele>348.0</ele><time>2026-03-29T11:41:16.992Z</time></trkpt><trkpt lat="42.59906021324918" lon="11.99907446597047"><ele>344.6666666666667</ele><time>2026-03-29T11:41:17.992Z</time></trkpt><trkpt lat="42.59925243642794" lon="11.998951742808902"><ele>341.33333333333337</ele><time>2026-03-29T11:41:18.992Z</time></trkpt><trkpt lat="42.599446821185126" lon="11.998824153479154"><ele>338.0</ele><time>2026-03-29T11:41:19.992Z</time></trkpt><trkpt lat="42.59964092596239" lon="11.998696102325885"><ele>338.0</ele><time>2026-03-29T11:41:20.992Z</time></trkpt><trkpt lat="42.59984051154238" lon="11.998589981692094"><ele>338.0</ele><time>2026-03-29T11:41:21.992Z</time></trkpt><trkpt lat="42.600054167241794" lon="11.998553957752037"><ele>338.0</ele><time>2026-03-29T11:41:22.992Z</time></trkpt><trkpt lat="42.60027320799117" lon="11.998506236174643"><ele>339.0</ele><time>2026-03-29T11:41:23.992Z</time></trkpt><trkpt lat="42.60050183738282" lon="11.998463665874015"><ele>340.0</ele><time>2026-03-29T11:41:24.992Z</time></trkpt><trkpt lat="42.60072704569556" lon="11.998422385598246"><ele>340.0</ele><time>2026-03-29T11:41:25.992Z</time></trkpt><trkpt lat="42.60094692398089" lon="11.998381293115136"><ele>340.0</ele><time>2026-03-29T11:41:26.992Z</time></trkpt><trkpt lat="42.60116226802744" lon="11.998341081331137"><ele>340.0</ele><time>2026-03-29T11:41:27.992Z</time></trkpt><trkpt lat="42.601379536717836" lon="11.998301278852614"><ele>336.3333333333333</ele><time>2026-03-29T11:41:28.992Z</time></trkpt><trkpt lat="42.60159385966897" lon="11.998262017745919"><ele>332.6666666666667</ele><time>2026-03-29T11:41:29.992Z</time></trkpt><trkpt lat="42.6018064082802" lon="11.998201766272985"><ele>329.0</ele><time>2026-03-29T11:41:30.992Z</time></trkpt><trkpt lat="42.602012766980216" lon="11.998186182374694"><ele>328.6666666666667</ele><time>2026-03-29T11:41:31.992Z</time></trkpt><trkpt lat="42.602208113800344" lon="11.998150686902814"><ele>328.3333333333333</ele><time>2026-03-29T11:41:32.992Z</time></trkpt><trkpt lat="42.60239634152912" lon="11.998116485028138"><ele>328.0</ele><time>2026-03-29T11:41:33.992Z</time></trkpt><trkpt lat="42.60259764372727" lon="11.99809232862377"><ele>328.0</ele><time>2026-03-29T11:41:34.992Z</time></trkpt><trkpt lat="42.60278275777981" lon="11.998050244774323"><ele>328.0</ele><time>2026-03-29T11:41:35.992Z</time></trkpt><trkpt lat="42.602962991962634" lon="11.997978483261209"><ele>328.0</ele><time>2026-03-29T11:41:36.992Z</time></trkpt><trkpt lat="42.60313293743269" lon="11.997848514379884"><ele>329.0</ele><time>2026-03-29T11:41:37.992Z</time></trkpt><trkpt lat="42.60327085520086" lon="11.997638477089664"><ele>330.0</ele><time>2026-03-29T11:41:38.992Z</time></trkpt><trkpt lat="42.6034324917499" lon="11.997482356434203"><ele>331.0</ele><time>2026-03-29T11:41:39.992Z</time></trkpt><trkpt lat="42.603601477273756" lon="11.997341055382755"><ele>326.66666666666663</ele><time>2026-03-29T11:41:40.992Z</time></trkpt><trkpt lat="42.60376351334693" lon="11.997204779843798"><ele>322.3333333333333</ele><time>2026-03-29T11:41:41.992Z</time></trkpt><trkpt lat="42.60391340013706" lon="11.997061849676353"><ele>318.0</ele><time>2026-03-29T11:41:42.992Z</time></trkpt><trkpt lat="42.60406623889413" lon="11.996921746704272"><ele>318.0</ele><time>2026-03-29T11:41:43.992Z</time></trkpt><trkpt lat="42.604221846090766" lon="11.996775168717974"><ele>318.0</ele><time>2026-03-29T11:41:44.992Z</time></trkpt><trkpt lat="42.60437451661661" lon="11.996632167215996"><ele>318.0</ele><time>2026-03-29T11:41:45.992Z</time></trkpt><trkpt lat="42.60453830352655" lon="11.996503822106028"><ele>317.3333333333333</ele><time>2026-03-29T11:41:46.992Z</time></trkpt><trkpt lat="42.60470669705767" lon="11.996443463064422"><ele>316.66666666666663</ele><time>2026-03-29T11:41:47.992Z</time></trkpt><trkpt lat="42.60488249305302" lon="11.99642457108971"><ele>316.0</ele><time>2026-03-29T11:41:48.992Z</time></trkpt><trkpt lat="42.60506366343413" lon="11.99643797070685"><ele>316.0</ele><time>2026-03-29T11:41:49.992Z</time></trkpt><trkpt lat="42.605245086645894" lon="11.99644328816847"><ele>316.0</ele><time>2026-03-29T11:41:50.992Z</time></trkpt><trkpt lat="42.605432984468074" lon="11.996456079698808"><ele>316.0</ele><time>2026-03-29T11:41:51.992Z</time></trkpt><trkpt lat="42.60561349792706" lon="11.996494168692127"><ele>315.0</ele><time>2026-03-29T11:41:52.992Z</time></trkpt><trkpt lat="42.60579445560012" lon="11.996511230484538"><ele>314.0</ele><time>2026-03-29T11:41:53.992Z</time></trkpt><trkpt lat="42.605981457126305" lon="11.996505269510704"><ele>313.0</ele><time>2026-03-29T11:41:54.992Z</time></trkpt><trkpt lat="42.60616839618425" lon="11.99652430795118"><ele>312.66666666666663</ele><time>2026-03-29T11:41:55.992Z</time></trkpt><trkpt lat="42.60635752514421" lon="11.99657005970381"><ele>312.3333333333333</ele><time>2026-03-29T11:41:56.992Z</time></trkpt><trkpt lat="42.606542025948706" lon="11.996582250197537"><ele>312.0</ele><time>2026-03-29T11:41:57.992Z</time></trkpt><trkpt lat="42.606727611331266" lon="11.99659422007035"><ele>312.0</ele><time>2026-03-29T11:41:58.992Z</time></trkpt><trkpt lat="42.606913345832155" lon="11.996606697079407"><ele>312.0</ele><time>2026-03-29T11:41:59.992Z</time></trkpt><trkpt lat="42.607095217724584" lon="11.996617623361313"><ele>312.0</ele><time>2026-03-29T11:42:00.992Z</time></trkpt><trkpt lat="42.607282120283934" lon="11.996637257332663"><ele>312.0</ele><time>2026-03-29T11:42:01.992Z</time></trkpt><trkpt lat="42.60746731499412" lon="11.996652174102396"><ele>312.0</ele><time>2026-03-29T11:42:02.992Z</time></trkpt><trkpt lat="42.60765085635748" lon="11.996666580224504"><ele>312.0</ele><time>2026-03-29T11:42:03.991Z</time></trkpt><trkpt lat="42.60783082842982" lon="11.996686351421582"><ele>313.3333333333333</ele><time>2026-03-29T11:42:04.991Z</time></trkpt><trkpt lat="42.608018122642235" lon="11.996696841858295"><ele>314.66666666666663</ele><time>2026-03-29T11:42:05.991Z</time></trkpt><trkpt lat="42.6082016845364" lon="11.996722527256447"><ele>316.0</ele><time>2026-03-29T11:42:06.991Z</time></trkpt><trkpt lat="42.60839000467458" lon="11.996740038802379"><ele>316.0</ele><time>2026-03-29T11:42:07.991Z</time></trkpt><trkpt lat="42.60858480076134" lon="11.99675748741563"><ele>316.0</ele><time>2026-03-29T11:42:08.991Z</time></trkpt><trkpt lat="42.608775773982686" lon="11.99677769105357"><ele>316.0</ele><time>2026-03-29T11:42:09.991Z</time></trkpt><trkpt lat="42.60896697296152" lon="11.996799220192711"><ele>317.66666666666663</ele><time>2026-03-29T11:42:10.991Z</time></trkpt><trkpt lat="42.609160294525225" lon="11.99681318051925"><ele>319.3333333333333</ele><time>2026-03-29T11:42:11.991Z</time></trkpt><trkpt lat="42.609355974766025" lon="11.996820759812294"><ele>321.0</ele><time>2026-03-29T11:42:12.991Z</time></trkpt><trkpt lat="42.609556267816444" lon="11.996819009571498"><ele>325.3333333333333</ele><time>2026-03-29T11:42:13.991Z</time></trkpt><trkpt lat="42.60975266194591" lon="11.996808615542252"><ele>329.66666666666663</ele><time>2026-03-29T11:42:14.991Z</time></trkpt><trkpt lat="42.60995096709103" lon="11.9967989684952"><ele>334.0</ele><time>2026-03-29T11:42:15.991Z</time></trkpt><trkpt lat="42.610148650963666" lon="11.996792938201578"><ele>333.0</ele><time>2026-03-29T11:42:16.991Z</time></trkpt><trkpt lat="42.61034351086032" lon="11.996788129449763"><ele>332.0</ele><time>2026-03-29T11:42:17.991Z</time></trkpt><trkpt lat="42.610540500735866" lon="11.996803434652826"><ele>331.0</ele><time>2026-03-29T11:42:18.991Z</time></trkpt><trkpt lat="42.61073139581693" lon="11.99680108082391"><ele>331.0</ele><time>2026-03-29T11:42:19.991Z</time></trkpt><trkpt lat="42.61092100181101" lon="11.996829559905313"><ele>331.0</ele><time>2026-03-29T11:42:20.991Z</time></trkpt><trkpt lat="42.611102731114364" lon="11.996888190126953"><ele>331.0</ele><time>2026-03-29T11:42:21.991Z</time></trkpt><trkpt lat="42.611275403772176" lon="11.99699950793944"><ele>328.3333333333333</ele><time>2026-03-29T11:42:22.991Z</time></trkpt><trkpt lat="42.61146167701173" lon="11.997087120892534"><ele>325.6666666666667</ele><time>2026-03-29T11:42:23.991Z</time></trkpt><trkpt lat="42.611635854415496" lon="11.997193268985246"><ele>323.0</ele><time>2026-03-29T11:42:24.991Z</time></trkpt><trkpt lat="42.611813140821724" lon="11.997285296015216"><ele>323.0</ele><time>2026-03-29T11:42:25.991Z</time></trkpt><trkpt lat="42.611987618235474" lon="11.997369404930152"><ele>323.0</ele><time>2026-03-29T11:42:26.991Z</time></trkpt><trkpt lat="42.612163151868224" lon="11.997454137197867"><ele>323.0</ele><time>2026-03-29T11:42:27.991Z</time></trkpt><trkpt lat="42.61234562229237" lon="11.997523854677404"><ele>328.6666666666667</ele><time>2026-03-29T11:42:28.991Z</time></trkpt><trkpt lat="42.6125295733083" lon="11.997565072430707"><ele>334.3333333333333</ele><time>2026-03-29T11:42:29.991Z</time></trkpt><trkpt lat="42.61272212282268" lon="11.99758546726113"><ele>340.0</ele><time>2026-03-29T11:42:30.991Z</time></trkpt><trkpt lat="42.612909642274694" lon="11.997573890370743"><ele>340.0</ele><time>2026-03-29T11:42:31.991Z</time></trkpt><trkpt lat="42.61309926622656" lon="11.997537611396774"><ele>340.0</ele><time>2026-03-29T11:42:32.991Z</time></trkpt><trkpt lat="42.61328764986909" lon="11.997481354061078"><ele>340.0</ele><time>2026-03-29T11:42:33.991Z</time></trkpt><trkpt lat="42.61347506374387" lon="11.997414938060322"><ele>334.3333333333333</ele><time>2026-03-29T11:42:34.991Z</time></trkpt><trkpt lat="42.613662359447204" lon="11.997341742870754"><ele>328.6666666666667</ele><time>2026-03-29T11:42:35.991Z</time></trkpt><trkpt lat="42.61384277491973" lon="11.997255700113309"><ele>323.0</ele><time>2026-03-29T11:42:36.991Z</time></trkpt><trkpt lat="42.6140139607088" lon="11.997155003582215"><ele>323.0</ele><time>2026-03-29T11:42:37.991Z</time></trkpt><trkpt lat="42.6141867281112" lon="11.997047558443871"><ele>323.0</ele><time>2026-03-29T11:42:38.991Z</time></trkpt><trkpt lat="42.61436252485714" lon="11.996933220444175"><ele>323.0</ele><time>2026-03-29T11:42:39.991Z</time></trkpt><trkpt lat="42.61452804162486" lon="11.996830912147022"><ele>325.33333333333337</ele><time>2026-03-29T11:42:40.991Z</time></trkpt><trkpt lat="42.614683414195916" lon="11.996722845538015"><ele>327.6666666666667</ele><time>2026-03-29T11:42:41.991Z</time></trkpt><trkpt lat="42.61483086275341" lon="11.996610458460795"><ele>330.0</ele><time>2026-03-29T11:42:42.991Z</time></trkpt><trkpt lat="42.61497106424404" lon="11.996474863552766"><ele>327.0</ele><time>2026-03-29T11:42:43.991Z</time></trkpt><trkpt lat="42.615095614308935" lon="11.996319463241086"><ele>324.0</ele><time>2026-03-29T11:42:44.991Z</time></trkpt><trkpt lat="42.615213135018934" lon="11.996157009928472"><ele>321.0</ele><time>2026-03-29T11:42:45.991Z</time></trkpt><trkpt lat="42.615344616748224" lon="11.996023191044664"><ele>321.0</ele><time>2026-03-29T11:42:46.991Z</time></trkpt><trkpt lat="42.615466272388716" lon="11.995906309301722"><ele>321.0</ele><time>2026-03-29T11:42:47.991Z</time></trkpt><trkpt lat="42.61560943639913" lon="11.995861522172396"><ele>321.0</ele><time>2026-03-29T11:42:48.991Z</time></trkpt><trkpt lat="42.61573670459507" lon="11.995877322502455"><ele>321.0</ele><time>2026-03-29T11:42:49.991Z</time></trkpt><trkpt lat="42.61584966226742" lon="11.99594681466946"><ele>321.0</ele><time>2026-03-29T11:42:50.991Z</time></trkpt><trkpt lat="42.61597040240909" lon="11.996070770719834"><ele>321.0</ele><time>2026-03-29T11:42:51.991Z</time></trkpt><trkpt lat="42.61610286752692" lon="11.99617478699759"><ele>321.0</ele><time>2026-03-29T11:42:52.991Z</time></trkpt><trkpt lat="42.61623271729238" lon="11.996287575237266"><ele>318.3333333333333</ele><time>2026-03-29T11:42:53.991Z</time></trkpt><trkpt lat="42.61637508315702" lon="11.996394842426273"><ele>315.66666666666663</ele><time>2026-03-29T11:42:54.991Z</time></trkpt><trkpt lat="42.61652072105568" lon="11.996497084391825"><ele>313.0</ele><time>2026-03-29T11:42:55.991Z</time></trkpt><trkpt lat="42.61667536408886" lon="11.996579788473921"><ele>314.3333333333333</ele><time>2026-03-29T11:42:56.991Z</time></trkpt><trkpt lat="42.61683843761653" lon="11.996682051613316"><ele>315.6666666666667</ele><time>2026-03-29T11:42:57.991Z</time></trkpt><trkpt lat="42.61701183007973" lon="11.996730611237764"><ele>317.0</ele><time>2026-03-29T11:42:58.991Z</time></trkpt><trkpt lat="42.61718669225583" lon="11.996765958431613"><ele>317.0</ele><time>2026-03-29T11:42:59.991Z</time></trkpt><trkpt lat="42.61736855063283" lon="11.99681053614045"><ele>317.0</ele><time>2026-03-29T11:43:00.991Z</time></trkpt><trkpt lat="42.61755455602251" lon="11.996863004718298"><ele>317.0</ele><time>2026-03-29T11:43:01.991Z</time></trkpt><trkpt lat="42.617739212822464" lon="11.99691308432147"><ele>316.6666666666667</ele><time>2026-03-29T11:43:02.991Z</time></trkpt><trkpt lat="42.61793087243981" lon="11.996950087774108"><ele>316.3333333333333</ele><time>2026-03-29T11:43:03.991Z</time></trkpt><trkpt lat="42.618119087577924" lon="11.996995623732175"><ele>316.0</ele><time>2026-03-29T11:43:04.991Z</time></trkpt><trkpt lat="42.61831291886888" lon="11.99704612201832"><ele>316.0</ele><time>2026-03-29T11:43:05.991Z</time></trkpt><trkpt lat="42.618506455813794" lon="11.997096190682104"><ele>316.0</ele><time>2026-03-29T11:43:06.991Z</time></trkpt><trkpt lat="42.61870642404527" lon="11.99714998595893"><ele>316.0</ele><time>2026-03-29T11:43:07.991Z</time></trkpt><trkpt lat="42.61890746215736" lon="11.997214588324429"><ele>316.0</ele><time>2026-03-29T11:43:08.991Z</time></trkpt><trkpt lat="42.61910336670868" lon="11.997313242020875"><ele>316.0</ele><time>2026-03-29T11:43:09.991Z</time></trkpt><trkpt lat="42.6192901059296" lon="11.997447860721266"><ele>316.0</ele><time>2026-03-29T11:43:10.991Z</time></trkpt><trkpt lat="42.61946545207992" lon="11.997596623808999"><ele>318.3333333333333</ele><time>2026-03-29T11:43:11.991Z</time></trkpt><trkpt lat="42.61963780117487" lon="11.997751225438579"><ele>320.6666666666667</ele><time>2026-03-29T11:43:12.991Z</time></trkpt><trkpt lat="42.619811883331366" lon="11.997891006824926"><ele>323.0</ele><time>2026-03-29T11:43:13.991Z</time></trkpt><trkpt lat="42.61998974339686" lon="11.997995390435952"><ele>323.0</ele><time>2026-03-29T11:43:14.991Z</time></trkpt><trkpt lat="42.620170155845216" lon="11.998055679770495"><ele>323.0</ele><time>2026-03-29T11:43:15.99Z</time></trkpt><trkpt lat="42.620353798082526" lon="11.998085442526184"><ele>323.0</ele><time>2026-03-29T11:43:16.99Z</time></trkpt><trkpt lat="42.62053199198789" lon="11.998091460488826"><ele>321.6666666666667</ele><time>2026-03-29T11:43:17.99Z</time></trkpt><trkpt lat="42.620708274672516" lon="11.9980989510376"><ele>320.3333333333333</ele><time>2026-03-29T11:43:18.99Z</time></trkpt><trkpt lat="42.62089273947018" lon="11.998109998714796"><ele>319.0</ele><time>2026-03-29T11:43:19.99Z</time></trkpt><trkpt lat="42.62108073980157" lon="11.99814695407419"><ele>318.66666666666663</ele><time>2026-03-29T11:43:20.99Z</time></trkpt><trkpt lat="42.621268409977546" lon="11.998163467982216"><ele>318.3333333333333</ele><time>2026-03-29T11:43:21.99Z</time></trkpt><trkpt lat="42.621459829268225" lon="11.998181516024081"><ele>318.0</ele><time>2026-03-29T11:43:22.99Z</time></trkpt><trkpt lat="42.62164859932036" lon="11.998200047110913"><ele>318.0</ele><time>2026-03-29T11:43:23.99Z</time></trkpt><trkpt lat="42.62183767792683" lon="11.998218969793514"><ele>318.0</ele><time>2026-03-29T11:43:24.99Z</time></trkpt><trkpt lat="42.62202418661486" lon="11.998237868433955"><ele>318.0</ele><time>2026-03-29T11:43:25.99Z</time></trkpt><trkpt lat="42.622212301209245" lon="11.99826181209181"><ele>317.6666666666667</ele><time>2026-03-29T11:43:26.99Z</time></trkpt><trkpt lat="42.622398012333576" lon="11.998282693608648"><ele>317.33333333333337</ele><time>2026-03-29T11:43:27.99Z</time></trkpt><trkpt lat="42.62256436547576" lon="11.998380858512245"><ele>317.0</ele><time>2026-03-29T11:43:28.99Z</time></trkpt><trkpt lat="42.622701695575834" lon="11.998545819882775"><ele>317.6666666666667</ele><time>2026-03-29T11:43:29.99Z</time></trkpt><trkpt lat="42.62282441868418" lon="11.998725772948497"><ele>318.3333333333333</ele><time>2026-03-29T11:43:30.99Z</time></trkpt><trkpt lat="42.622957916451035" lon="11.998873020740367"><ele>319.0</ele><time>2026-03-29T11:43:31.99Z</time></trkpt><trkpt lat="42.623071674514996" lon="11.999032129723616"><ele>319.0</ele><time>2026-03-29T11:43:32.99Z</time></trkpt><trkpt lat="42.62320357225801" lon="11.99916050259632"><ele>319.0</ele><time>2026-03-29T11:43:33.99Z</time></trkpt><trkpt lat="42.623353989419144" lon="11.999259509744848"><ele>319.0</ele><time>2026-03-29T11:43:34.99Z</time></trkpt><trkpt lat="42.62350756381542" lon="11.999334454981266"><ele>321.0</ele><time>2026-03-29T11:43:35.99Z</time></trkpt><trkpt lat="42.62366914235903" lon="11.999389738897237"><ele>323.0</ele><time>2026-03-29T11:43:36.99Z</time></trkpt><trkpt lat="42.62383098507463" lon="11.99941335650058"><ele>325.0</ele><time>2026-03-29T11:43:37.99Z</time></trkpt><trkpt lat="42.62400247967343" lon="11.999422321693647"><ele>325.0</ele><time>2026-03-29T11:43:38.99Z</time></trkpt><trkpt lat="42.62417900713151" lon="11.99941280289175"><ele>325.0</ele><time>2026-03-29T11:43:39.99Z</time></trkpt><trkpt lat="42.62436015074476" lon="11.999401733129236"><ele>325.0</ele><time>2026-03-29T11:43:40.99Z</time></trkpt><trkpt lat="42.624540206578764" lon="11.999394129930948"><ele>327.0</ele><time>2026-03-29T11:43:41.99Z</time></trkpt><trkpt lat="42.624724392804424" lon="11.999387450456384"><ele>329.0</ele><time>2026-03-29T11:43:42.99Z</time></trkpt><trkpt lat="42.62490905620222" lon="11.999379437941759"><ele>331.0</ele><time>2026-03-29T11:43:43.99Z</time></trkpt><trkpt lat="42.62509447557127" lon="11.999373171994346"><ele>331.0</ele><time>2026-03-29T11:43:44.99Z</time></trkpt><trkpt lat="42.625285108659355" lon="11.999359476081894"><ele>331.0</ele><time>2026-03-29T11:43:45.99Z</time></trkpt><trkpt lat="42.625482833224424" lon="11.999372255169293"><ele>331.0</ele><time>2026-03-29T11:43:46.99Z</time></trkpt><trkpt lat="42.625676106189" lon="11.999357409376213"><ele>335.0</ele><time>2026-03-29T11:43:47.99Z</time></trkpt><trkpt lat="42.62587092601337" lon="11.999347169192497"><ele>339.0</ele><time>2026-03-29T11:43:48.99Z</time></trkpt><trkpt lat="42.62606234972374" lon="11.99933675744619"><ele>343.0</ele><time>2026-03-29T11:43:49.99Z</time></trkpt><trkpt lat="42.62625637949217" lon="11.999328051897118"><ele>346.3333333333333</ele><time>2026-03-29T11:43:50.99Z</time></trkpt><trkpt lat="42.626436821537084" lon="11.999310389994426"><ele>349.6666666666667</ele><time>2026-03-29T11:43:51.99Z</time></trkpt><trkpt lat="42.62661945473752" lon="11.9992770257509"><ele>353.0</ele><time>2026-03-29T11:43:52.99Z</time></trkpt><trkpt lat="42.626791627449265" lon="11.99921227870687"><ele>344.33333333333337</ele><time>2026-03-29T11:43:53.99Z</time></trkpt><trkpt lat="42.62696788483026" lon="11.99914598036543"><ele>335.6666666666667</ele><time>2026-03-29T11:43:54.99Z</time></trkpt><trkpt lat="42.6271564561679" lon="11.999097785330523"><ele>327.0</ele><time>2026-03-29T11:43:55.99Z</time></trkpt><trkpt lat="42.62734278774214" lon="11.99902499260378"><ele>327.0</ele><time>2026-03-29T11:43:56.99Z</time></trkpt><trkpt lat="42.627530164835136" lon="11.998953563446525"><ele>327.0</ele><time>2026-03-29T11:43:57.99Z</time></trkpt><trkpt lat="42.62770485584802" lon="11.99886111787722"><ele>327.0</ele><time>2026-03-29T11:43:58.99Z</time></trkpt><trkpt lat="42.627878811883114" lon="11.998790074674764"><ele>329.0</ele><time>2026-03-29T11:43:59.99Z</time></trkpt><trkpt lat="42.62804491707232" lon="11.998709880187139"><ele>331.0</ele><time>2026-03-29T11:44:00.99Z</time></trkpt><trkpt lat="42.628214465546556" lon="11.998628786257221"><ele>333.0</ele><time>2026-03-29T11:44:01.99Z</time></trkpt><trkpt lat="42.628381732960385" lon="11.998551353606567"><ele>333.0</ele><time>2026-03-29T11:44:02.99Z</time></trkpt><trkpt lat="42.62855210665337" lon="11.998495231768805"><ele>333.0</ele><time>2026-03-29T11:44:03.99Z</time></trkpt><trkpt lat="42.628720513059505" lon="11.99845244860251"><ele>333.0</ele><time>2026-03-29T11:44:04.99Z</time></trkpt><trkpt lat="42.628882928620925" lon="11.998423852770273"><ele>335.6666666666667</ele><time>2026-03-29T11:44:05.99Z</time></trkpt><trkpt lat="42.62903361433493" lon="11.998392072642575"><ele>338.33333333333337</ele><time>2026-03-29T11:44:06.99Z</time></trkpt><trkpt lat="42.629187370890975" lon="11.998357934425385"><ele>341.0</ele><time>2026-03-29T11:44:07.99Z</time></trkpt><trkpt lat="42.629335944827886" lon="11.998335170172124"><ele>336.0</ele><time>2026-03-29T11:44:08.99Z</time></trkpt><trkpt lat="42.629484409107796" lon="11.998316626006073"><ele>331.0</ele><time>2026-03-29T11:44:09.99Z</time></trkpt><trkpt lat="42.62963842741299" lon="11.998297119646104"><ele>326.0</ele><time>2026-03-29T11:44:10.99Z</time></trkpt><trkpt lat="42.629799759157585" lon="11.99830519092408"><ele>326.0</ele><time>2026-03-29T11:44:11.99Z</time></trkpt><trkpt lat="42.62996283464502" lon="11.998257416391917"><ele>326.0</ele><time>2026-03-29T11:44:12.99Z</time></trkpt><trkpt lat="42.63012829461398" lon="11.998219327399745"><ele>326.0</ele><time>2026-03-29T11:44:13.99Z</time></trkpt><trkpt lat="42.6302917600027" lon="11.998187688353651"><ele>330.33333333333337</ele><time>2026-03-29T11:44:14.99Z</time></trkpt><trkpt lat="42.63044841845468" lon="11.99812681621732"><ele>334.6666666666667</ele><time>2026-03-29T11:44:15.99Z</time></trkpt><trkpt lat="42.63060494515828" lon="11.998060070618976"><ele>339.0</ele><time>2026-03-29T11:44:16.99Z</time></trkpt><trkpt lat="42.63076512642799" lon="11.99798587460787"><ele>339.0</ele><time>2026-03-29T11:44:17.99Z</time></trkpt><trkpt lat="42.630929589691604" lon="11.997904720057713"><ele>339.0</ele><time>2026-03-29T11:44:18.99Z</time></trkpt><trkpt lat="42.63108934987488" lon="11.997821298623421"><ele>339.0</ele><time>2026-03-29T11:44:19.99Z</time></trkpt><trkpt lat="42.631250310000496" lon="11.997734658215727"><ele>335.0</ele><time>2026-03-29T11:44:20.99Z</time></trkpt><trkpt lat="42.631410816436734" lon="11.997642382127276"><ele>331.0</ele><time>2026-03-29T11:44:21.99Z</time></trkpt><trkpt lat="42.63157131747845" lon="11.99755079961372"><ele>327.0</ele><time>2026-03-29T11:44:22.99Z</time></trkpt><trkpt lat="42.63172970945539" lon="11.997444824606072"><ele>327.0</ele><time>2026-03-29T11:44:23.99Z</time></trkpt><trkpt lat="42.63189390260726" lon="11.997369613939124"><ele>327.0</ele><time>2026-03-29T11:44:24.99Z</time></trkpt><trkpt lat="42.63205186099213" lon="11.997273509604947"><ele>327.0</ele><time>2026-03-29T11:44:25.99Z</time></trkpt><trkpt lat="42.63220550733741" lon="11.997157214336074"><ele>331.3333333333333</ele><time>2026-03-29T11:44:26.99Z</time></trkpt><trkpt lat="42.6323781445319" lon="11.997084020144081"><ele>335.66666666666663</ele><time>2026-03-29T11:44:27.989Z</time></trkpt><trkpt lat="42.632535933511726" lon="11.996997862378706"><ele>340.0</ele><time>2026-03-29T11:44:28.989Z</time></trkpt><trkpt lat="42.63270034407468" lon="11.996887946214274"><ele>343.3333333333333</ele><time>2026-03-29T11:44:29.989Z</time></trkpt><trkpt lat="42.63285153449892" lon="11.996769314598051"><ele>346.6666666666667</ele><time>2026-03-29T11:44:30.989Z</time></trkpt><trkpt lat="42.63300252895649" lon="11.996643175892224"><ele>350.0</ele><time>2026-03-29T11:44:31.989Z</time></trkpt><trkpt lat="42.63315344835872" lon="11.996510148335041"><ele>343.33333333333337</ele><time>2026-03-29T11:44:32.989Z</time></trkpt><trkpt lat="42.63330617347242" lon="11.99636424819251"><ele>336.6666666666667</ele><time>2026-03-29T11:44:33.989Z</time></trkpt><trkpt lat="42.63345791608428" lon="11.996224306948172"><ele>330.0</ele><time>2026-03-29T11:44:34.989Z</time></trkpt><trkpt lat="42.633609424098" lon="11.996085556449616"><ele>333.0</ele><time>2026-03-29T11:44:35.989Z</time></trkpt><trkpt lat="42.63375988352219" lon="11.995947050952372"><ele>336.0</ele><time>2026-03-29T11:44:36.989Z</time></trkpt><trkpt lat="42.63391066489624" lon="11.995802026701842"><ele>339.0</ele><time>2026-03-29T11:44:37.989Z</time></trkpt><trkpt lat="42.63406203904108" lon="11.99566690395612"><ele>333.0</ele><time>2026-03-29T11:44:38.989Z</time></trkpt><trkpt lat="42.63421591679621" lon="11.99554472576224"><ele>327.0</ele><time>2026-03-29T11:44:39.989Z</time></trkpt><trkpt lat="42.63437305259734" lon="11.995425906303181"><ele>321.0</ele><time>2026-03-29T11:44:40.989Z</time></trkpt><trkpt lat="42.63453187552675" lon="11.99532055815577"><ele>321.0</ele><time>2026-03-29T11:44:41.989Z</time></trkpt><trkpt lat="42.63469623254892" lon="11.995234668870319"><ele>321.0</ele><time>2026-03-29T11:44:42.989Z</time></trkpt><trkpt lat="42.634867860507434" lon="11.995169708545331"><ele>321.0</ele><time>2026-03-29T11:44:43.989Z</time></trkpt><trkpt lat="42.63503630907101" lon="11.995111001955575"><ele>321.0</ele><time>2026-03-29T11:44:44.989Z</time></trkpt><trkpt lat="42.63520384173159" lon="11.995057043569703"><ele>321.0</ele><time>2026-03-29T11:44:45.989Z</time></trkpt><trkpt lat="42.63537293599978" lon="11.995007792728115"><ele>321.0</ele><time>2026-03-29T11:44:46.989Z</time></trkpt><trkpt lat="42.63554195558809" lon="11.994955796857983"><ele>318.6666666666667</ele><time>2026-03-29T11:44:47.989Z</time></trkpt><trkpt lat="42.63570708774599" lon="11.994911322359565"><ele>316.33333333333337</ele><time>2026-03-29T11:44:48.989Z</time></trkpt><trkpt lat="42.63587268096495" lon="11.994858289854474"><ele>314.0</ele><time>2026-03-29T11:44:49.989Z</time></trkpt><trkpt lat="42.63603904344243" lon="11.994796712363543"><ele>315.6666666666667</ele><time>2026-03-29T11:44:50.989Z</time></trkpt><trkpt lat="42.63620370267424" lon="11.994737171044155"><ele>317.3333333333333</ele><time>2026-03-29T11:44:51.989Z</time></trkpt><trkpt lat="42.63636659360439" lon="11.994668055211928"><ele>319.0</ele><time>2026-03-29T11:44:52.989Z</time></trkpt><trkpt lat="42.63652440197426" lon="11.994585467875313"><ele>319.0</ele><time>2026-03-29T11:44:53.989Z</time></trkpt><trkpt lat="42.6366796613897" lon="11.994487909630667"><ele>319.0</ele><time>2026-03-29T11:44:54.989Z</time></trkpt><trkpt lat="42.636828281259874" lon="11.99437498366454"><ele>319.0</ele><time>2026-03-29T11:44:55.989Z</time></trkpt><trkpt lat="42.63696939668896" lon="11.994253601880754"><ele>318.3333333333333</ele><time>2026-03-29T11:44:56.989Z</time></trkpt><trkpt lat="42.637101552599404" lon="11.99413679427248"><ele>317.6666666666667</ele><time>2026-03-29T11:44:57.989Z</time></trkpt><trkpt lat="42.63723137310538" lon="11.994032825353143"><ele>317.0</ele><time>2026-03-29T11:44:58.989Z</time></trkpt><trkpt lat="42.63735762362956" lon="11.993925736690343"><ele>317.0</ele><time>2026-03-29T11:44:59.989Z</time></trkpt><trkpt lat="42.63748073385755" lon="11.993808247104992"><ele>317.0</ele><time>2026-03-29T11:45:00.989Z</time></trkpt><trkpt lat="42.63761010251082" lon="11.99368829295815"><ele>317.0</ele><time>2026-03-29T11:45:01.989Z</time></trkpt><trkpt lat="42.63774790785187" lon="11.993572355704927"><ele>317.6666666666667</ele><time>2026-03-29T11:45:02.989Z</time></trkpt><trkpt lat="42.63787829617074" lon="11.993457327800106"><ele>318.3333333333333</ele><time>2026-03-29T11:45:03.989Z</time></trkpt><trkpt lat="42.63801476829074" lon="11.993348105874254"><ele>319.0</ele><time>2026-03-29T11:45:04.989Z</time></trkpt><trkpt lat="42.638156055098214" lon="11.993232528728177"><ele>319.0</ele><time>2026-03-29T11:45:05.989Z</time></trkpt><trkpt lat="42.63829933364503" lon="11.993123244769706"><ele>319.0</ele><time>2026-03-29T11:45:06.989Z</time></trkpt><trkpt lat="42.63843938444581" lon="11.993003946496737"><ele>319.0</ele><time>2026-03-29T11:45:07.989Z</time></trkpt><trkpt lat="42.638570985367835" lon="11.992868265370566"><ele>320.3333333333333</ele><time>2026-03-29T11:45:08.989Z</time></trkpt><trkpt lat="42.63869576314134" lon="11.992723913772487"><ele>321.6666666666667</ele><time>2026-03-29T11:45:09.989Z</time></trkpt><trkpt lat="42.6388127624602" lon="11.992575337687414"><ele>323.0</ele><time>2026-03-29T11:45:10.989Z</time></trkpt><trkpt lat="42.63892676770218" lon="11.99242840420464"><ele>323.0</ele><time>2026-03-29T11:45:11.989Z</time></trkpt><trkpt lat="42.63904061780563" lon="11.99228552383392"><ele>323.0</ele><time>2026-03-29T11:45:12.989Z</time></trkpt><trkpt lat="42.63915286173483" lon="11.992143508447047"><ele>323.0</ele><time>2026-03-29T11:45:13.989Z</time></trkpt><trkpt lat="42.63927820352997" lon="11.992018558818291"><ele>323.0</ele><time>2026-03-29T11:45:14.989Z</time></trkpt><trkpt lat="42.639388267541065" lon="11.991883254197882"><ele>323.0</ele><time>2026-03-29T11:45:15.989Z</time></trkpt><trkpt lat="42.63948627442087" lon="11.991737405642505"><ele>323.0</ele><time>2026-03-29T11:45:16.989Z</time></trkpt><trkpt lat="42.63959443987807" lon="11.99161657766159"><ele>323.0</ele><time>2026-03-29T11:45:17.989Z</time></trkpt><trkpt lat="42.63970765380715" lon="11.991505179021273"><ele>322.25</ele><time>2026-03-29T11:45:18.989Z</time></trkpt><trkpt lat="42.63983289391984" lon="11.991417761817877"><ele>321.5</ele><time>2026-03-29T11:45:19.989Z</time></trkpt><trkpt lat="42.639955181135726" lon="11.991314193196235"><ele>320.75</ele><time>2026-03-29T11:45:20.989Z</time></trkpt><trkpt lat="42.640074051890586" lon="11.991212047535145"><ele>320.0</ele><time>2026-03-29T11:45:21.989Z</time></trkpt><trkpt lat="42.64018956069174" lon="11.99111207747609"><ele>320.0</ele><time>2026-03-29T11:45:22.989Z</time></trkpt><trkpt lat="42.640305572648415" lon="11.991018308716678"><ele>320.0</ele><time>2026-03-29T11:45:23.989Z</time></trkpt><trkpt lat="42.64041700970897" lon="11.990928186969764"><ele>320.0</ele><time>2026-03-29T11:45:24.989Z</time></trkpt><trkpt lat="42.64052499987069" lon="11.990839036167953"><ele>320.0</ele><time>2026-03-29T11:45:25.989Z</time></trkpt><trkpt lat="42.64063159145364" lon="11.99075030596373"><ele>320.0</ele><time>2026-03-29T11:45:26.989Z</time></trkpt><trkpt lat="42.64073653188269" lon="11.990665486052372"><ele>320.0</ele><time>2026-03-29T11:45:27.989Z</time></trkpt><trkpt lat="42.64084062309701" lon="11.990583106694954"><ele>320.0</ele><time>2026-03-29T11:45:28.989Z</time></trkpt><trkpt lat="42.640940860301185" lon="11.990496456968362"><ele>320.0</ele><time>2026-03-29T11:45:29.989Z</time></trkpt><trkpt lat="42.6410406155561" lon="11.990404466601628"><ele>320.0</ele><time>2026-03-29T11:45:30.989Z</time></trkpt><trkpt lat="42.64113281754158" lon="11.990300907042256"><ele>320.0</ele><time>2026-03-29T11:45:31.989Z</time></trkpt><trkpt lat="42.64122347573647" lon="11.990193697315883"><ele>320.0</ele><time>2026-03-29T11:45:32.989Z</time></trkpt><trkpt lat="42.641305280833556" lon="11.990079014787408"><ele>320.0</ele><time>2026-03-29T11:45:33.989Z</time></trkpt><trkpt lat="42.641379296184375" lon="11.989958110049228"><ele>320.0</ele><time>2026-03-29T11:45:34.989Z</time></trkpt><trkpt lat="42.64145211349285" lon="11.989836458501944"><ele>320.0</ele><time>2026-03-29T11:45:35.989Z</time></trkpt><trkpt lat="42.641522969706635" lon="11.989716300412189"><ele>320.0</ele><time>2026-03-29T11:45:36.989Z</time></trkpt><trkpt lat="42.641593931800514" lon="11.989596313637412"><ele>320.0</ele><time>2026-03-29T11:45:37.989Z</time></trkpt><trkpt lat="42.641667694716325" lon="11.98947168002406"><ele>320.0</ele><time>2026-03-29T11:45:38.989Z</time></trkpt><trkpt lat="42.64174144335111" lon="11.989343671035884"><ele>320.0</ele><time>2026-03-29T11:45:39.988Z</time></trkpt><trkpt lat="42.64181742757068" lon="11.989213869697263"><ele>320.0</ele><time>2026-03-29T11:45:40.988Z</time></trkpt><trkpt lat="42.64188858267178" lon="11.989083675945079"><ele>320.0</ele><time>2026-03-29T11:45:41.988Z</time></trkpt><trkpt lat="42.64196566408703" lon="11.988953219649344"><ele>319.75</ele><time>2026-03-29T11:45:42.988Z</time></trkpt><trkpt lat="42.64204358439858" lon="11.988823974525177"><ele>319.5</ele><time>2026-03-29T11:45:43.988Z</time></trkpt><trkpt lat="42.64212255359488" lon="11.988697845745614"><ele>319.25</ele><time>2026-03-29T11:45:44.988Z</time></trkpt><trkpt lat="42.64220646937544" lon="11.98857600830663"><ele>319.0</ele><time>2026-03-29T11:45:45.988Z</time></trkpt><trkpt lat="42.6422946933122" lon="11.988461781230471"><ele>319.0</ele><time>2026-03-29T11:45:46.988Z</time></trkpt><trkpt lat="42.642388293086796" lon="11.988355647050094"><ele>319.0</ele><time>2026-03-29T11:45:47.988Z</time></trkpt><trkpt lat="42.64248235366816" lon="11.988253160042577"><ele>319.0</ele><time>2026-03-29T11:45:48.988Z</time></trkpt><trkpt lat="42.64257545964729" lon="11.988150967499278"><ele>319.0</ele><time>2026-03-29T11:45:49.988Z</time></trkpt><trkpt lat="42.64266860893191" lon="11.988046673938952"><ele>319.5</ele><time>2026-03-29T11:45:50.988Z</time></trkpt><trkpt lat="42.642763881025246" lon="11.987946064458136"><ele>320.0</ele><time>2026-03-29T11:45:51.988Z</time></trkpt><trkpt lat="42.64287239535161" lon="11.987867205671648"><ele>320.5</ele><time>2026-03-29T11:45:52.988Z</time></trkpt><trkpt lat="42.642965739323614" lon="11.987769191989802"><ele>321.0</ele><time>2026-03-29T11:45:53.988Z</time></trkpt><trkpt lat="42.64305936623564" lon="11.987670741813318"><ele>321.0</ele><time>2026-03-29T11:45:54.988Z</time></trkpt><trkpt lat="42.643151163534775" lon="11.987574124667823"><ele>321.0</ele><time>2026-03-29T11:45:55.988Z</time></trkpt><trkpt lat="42.643241540291235" lon="11.987476968171716"><ele>321.0</ele><time>2026-03-29T11:45:56.988Z</time></trkpt><trkpt lat="42.64333103652102" lon="11.987384522383195"><ele>321.0</ele><time>2026-03-29T11:45:57.988Z</time></trkpt><trkpt lat="42.6434150802635" lon="11.987295234610325"><ele>320.5</ele><time>2026-03-29T11:45:58.988Z</time></trkpt><trkpt lat="42.64349017468381" lon="11.987209238388402"><ele>320.0</ele><time>2026-03-29T11:45:59.988Z</time></trkpt><trkpt lat="42.64356040912395" lon="11.987127283071846"><ele>319.5</ele><time>2026-03-29T11:46:00.988Z</time></trkpt><trkpt lat="42.64362680681134" lon="11.987051050805894"><ele>319.0</ele><time>2026-03-29T11:46:01.988Z</time></trkpt><trkpt lat="42.64368844902286" lon="11.986977721254206"><ele>318.5</ele><time>2026-03-29T11:46:02.988Z</time></trkpt><trkpt lat="42.64374884400063" lon="11.986916407982779"><ele>318.0</ele><time>2026-03-29T11:46:03.988Z</time></trkpt><trkpt lat="42.643809817718854" lon="11.986866992074514"><ele>318.3333333333333</ele><time>2026-03-29T11:46:04.988Z</time></trkpt><trkpt lat="42.64386199235997" lon="11.986817300135431"><ele>318.6666666666667</ele><time>2026-03-29T11:46:05.988Z</time></trkpt><trkpt lat="42.64395153741154" lon="11.986728790682943"><ele>319.0</ele><time>2026-03-29T11:46:07.988Z</time></trkpt><trkpt lat="42.644025506025244" lon="11.986652884958055"><ele>319.33333333333337</ele><time>2026-03-29T11:46:09.988Z</time></trkpt><trkpt lat="42.644086168706565" lon="11.986558505729057"><ele>319.6666666666667</ele><time>2026-03-29T11:46:16.988Z</time></trkpt><trkpt lat="42.64412721765557" lon="11.986486689452152"><ele>320.0</ele><time>2026-03-29T11:46:17.988Z</time></trkpt><trkpt lat="42.644171446958126" lon="11.986396189581226"><ele>320.0</ele><time>2026-03-29T11:46:18.988Z</time></trkpt><trkpt lat="42.64421543403602" lon="11.986290781381857"><ele>320.0</ele><time>2026-03-29T11:46:19.988Z</time></trkpt><trkpt lat="42.64425211908026" lon="11.986172851023333"><ele>320.0</ele><time>2026-03-29T11:46:20.988Z</time></trkpt><trkpt lat="42.644287146206906" lon="11.986043266781401"><ele>320.0</ele><time>2026-03-29T11:46:21.988Z</time></trkpt><trkpt lat="42.6443261752396" lon="11.985910243256447"><ele>320.0</ele><time>2026-03-29T11:46:22.988Z</time></trkpt><trkpt lat="42.644371224785324" lon="11.985776950229939"><ele>319.5</ele><time>2026-03-29T11:46:23.988Z</time></trkpt><trkpt lat="42.64442803061982" lon="11.985638221032225"><ele>319.0</ele><time>2026-03-29T11:46:24.988Z</time></trkpt><trkpt lat="42.64450718151244" lon="11.985517914643545"><ele>318.5</ele><time>2026-03-29T11:46:25.988Z</time></trkpt><trkpt lat="42.644594242354756" lon="11.985404734887698"><ele>318.0</ele><time>2026-03-29T11:46:26.988Z</time></trkpt><trkpt lat="42.64468324269325" lon="11.98529558295604"><ele>317.75</ele><time>2026-03-29T11:46:27.988Z</time></trkpt><trkpt lat="42.644779352706685" lon="11.985189154584859"><ele>317.5</ele><time>2026-03-29T11:46:28.988Z</time></trkpt><trkpt lat="42.64487059440352" lon="11.98508617002086"><ele>317.25</ele><time>2026-03-29T11:46:29.988Z</time></trkpt><trkpt lat="42.64495813096864" lon="11.984963051141731"><ele>317.0</ele><time>2026-03-29T11:46:30.988Z</time></trkpt><trkpt lat="42.645038087412665" lon="11.984822092036206"><ele>317.0</ele><time>2026-03-29T11:46:31.988Z</time></trkpt><trkpt lat="42.64510923104355" lon="11.984673361909243"><ele>317.0</ele><time>2026-03-29T11:46:32.988Z</time></trkpt><trkpt lat="42.64517579256652" lon="11.984520997587536"><ele>317.0</ele><time>2026-03-29T11:46:33.988Z</time></trkpt><trkpt lat="42.64525506157193" lon="11.984376218215358"><ele>317.0</ele><time>2026-03-29T11:46:34.988Z</time></trkpt><trkpt lat="42.64534416793787" lon="11.984230458603745"><ele>317.75</ele><time>2026-03-29T11:46:35.988Z</time></trkpt><trkpt lat="42.64543623567387" lon="11.984088401791364"><ele>318.5</ele><time>2026-03-29T11:46:36.988Z</time></trkpt><trkpt lat="42.64552903490265" lon="11.983951047359374"><ele>319.25</ele><time>2026-03-29T11:46:37.988Z</time></trkpt><trkpt lat="42.6456149916101" lon="11.983836723058229"><ele>320.0</ele><time>2026-03-29T11:46:38.988Z</time></trkpt><trkpt lat="42.64569720541897" lon="11.983726398228852"><ele>320.0</ele><time>2026-03-29T11:46:39.988Z</time></trkpt><trkpt lat="42.64579100282569" lon="11.983610303310895"><ele>320.0</ele><time>2026-03-29T11:46:40.988Z</time></trkpt><trkpt lat="42.645882251791214" lon="11.983488066521911"><ele>320.0</ele><time>2026-03-29T11:46:41.988Z</time></trkpt><trkpt lat="42.64596755465636" lon="11.983358636179645"><ele>320.0</ele><time>2026-03-29T11:46:42.988Z</time></trkpt><trkpt lat="42.64605231406389" lon="11.983229993037014"><ele>320.25</ele><time>2026-03-29T11:46:43.988Z</time></trkpt><trkpt lat="42.64614142362071" lon="11.983102415397292"><ele>320.5</ele><time>2026-03-29T11:46:44.988Z</time></trkpt><trkpt lat="42.646232512587524" lon="11.98297458168534"><ele>320.75</ele><time>2026-03-29T11:46:45.988Z</time></trkpt><trkpt lat="42.64631782364967" lon="11.98284403864703"><ele>321.0</ele><time>2026-03-29T11:46:46.988Z</time></trkpt><trkpt lat="42.64638943093563" lon="11.982710703255538"><ele>321.0</ele><time>2026-03-29T11:46:47.988Z</time></trkpt><trkpt lat="42.64645574856164" lon="11.982557815659193"><ele>321.0</ele><time>2026-03-29T11:46:48.988Z</time></trkpt><trkpt lat="42.646510651753225" lon="11.982396359477658"><ele>321.0</ele><time>2026-03-29T11:46:49.988Z</time></trkpt><trkpt lat="42.646560153693294" lon="11.982228473040614"><ele>321.0</ele><time>2026-03-29T11:46:50.988Z</time></trkpt><trkpt lat="42.646607506934565" lon="11.98206359564443"><ele>320.75</ele><time>2026-03-29T11:46:51.987Z</time></trkpt><trkpt lat="42.64665627633827" lon="11.981902519429768"><ele>320.5</ele><time>2026-03-29T11:46:52.987Z</time></trkpt><trkpt lat="42.64670268209354" lon="11.981737582348282"><ele>320.25</ele><time>2026-03-29T11:46:53.987Z</time></trkpt><trkpt lat="42.64674441736135" lon="11.981568443499423"><ele>320.0</ele><time>2026-03-29T11:46:54.987Z</time></trkpt><trkpt lat="42.64678555556692" lon="11.981404339720532"><ele>319.25</ele><time>2026-03-29T11:46:55.987Z</time></trkpt><trkpt lat="42.64682956242028" lon="11.981246468862624"><ele>318.5</ele><time>2026-03-29T11:46:56.987Z</time></trkpt><trkpt lat="42.646870342442575" lon="11.981084604009583"><ele>317.75</ele><time>2026-03-29T11:46:57.987Z</time></trkpt><trkpt lat="42.646912257712735" lon="11.980914546862188"><ele>317.0</ele><time>2026-03-29T11:46:58.987Z</time></trkpt><trkpt lat="42.64695736665096" lon="11.980735258196333"><ele>317.5</ele><time>2026-03-29T11:46:59.987Z</time></trkpt><trkpt lat="42.64700566252132" lon="11.980556557387555"><ele>318.0</ele><time>2026-03-29T11:47:00.987Z</time></trkpt><trkpt lat="42.647050604679" lon="11.980373499872114"><ele>318.5</ele><time>2026-03-29T11:47:01.987Z</time></trkpt><trkpt lat="42.64709747228418" lon="11.980193728406373"><ele>319.0</ele><time>2026-03-29T11:47:02.987Z</time></trkpt><trkpt lat="42.647142068853924" lon="11.980008491326616"><ele>319.0</ele><time>2026-03-29T11:47:03.987Z</time></trkpt><trkpt lat="42.647186616298086" lon="11.979820592925272"><ele>319.0</ele><time>2026-03-29T11:47:04.987Z</time></trkpt><trkpt lat="42.64723591043805" lon="11.979631395470811"><ele>319.0</ele><time>2026-03-29T11:47:05.987Z</time></trkpt><trkpt lat="42.64728480161034" lon="11.97944986551989"><ele>319.0</ele><time>2026-03-29T11:47:06.987Z</time></trkpt><trkpt lat="42.64733276687171" lon="11.979268284879065"><ele>317.75</ele><time>2026-03-29T11:47:07.987Z</time></trkpt><trkpt lat="42.64737963345886" lon="11.97908743488702"><ele>316.5</ele><time>2026-03-29T11:47:08.987Z</time></trkpt><trkpt lat="42.64742455407847" lon="11.978899809465641"><ele>315.25</ele><time>2026-03-29T11:47:09.987Z</time></trkpt><trkpt lat="42.64746945164603" lon="11.978713364711515"><ele>314.0</ele><time>2026-03-29T11:47:10.987Z</time></trkpt><trkpt lat="42.64751981920595" lon="11.978527693898192"><ele>313.75</ele><time>2026-03-29T11:47:11.987Z</time></trkpt><trkpt lat="42.647571577241" lon="11.97834141968348"><ele>313.5</ele><time>2026-03-29T11:47:12.987Z</time></trkpt><trkpt lat="42.64761884118588" lon="11.978153976870313"><ele>313.25</ele><time>2026-03-29T11:47:13.987Z</time></trkpt><trkpt lat="42.64766395547311" lon="11.97797451061739"><ele>313.0</ele><time>2026-03-29T11:47:14.987Z</time></trkpt><trkpt lat="42.64771210577641" lon="11.977798299767834"><ele>313.0</ele><time>2026-03-29T11:47:15.987Z</time></trkpt><trkpt lat="42.64775913711642" lon="11.977611844586988"><ele>313.0</ele><time>2026-03-29T11:47:16.987Z</time></trkpt><trkpt lat="42.64780555809956" lon="11.977425995138436"><ele>313.0</ele><time>2026-03-29T11:47:17.987Z</time></trkpt><trkpt lat="42.64785368728591" lon="11.977236437064018"><ele>313.0</ele><time>2026-03-29T11:47:18.987Z</time></trkpt><trkpt lat="42.64790332038536" lon="11.977047163048475"><ele>313.0</ele><time>2026-03-29T11:47:19.987Z</time></trkpt><trkpt lat="42.64795038004151" lon="11.9768575316202"><ele>313.0</ele><time>2026-03-29T11:47:20.987Z</time></trkpt><trkpt lat="42.64799466344466" lon="11.97666466625047"><ele>313.0</ele><time>2026-03-29T11:47:21.987Z</time></trkpt><trkpt lat="42.648043075449394" lon="11.976471866985351"><ele>313.0</ele><time>2026-03-29T11:47:22.987Z</time></trkpt><trkpt lat="42.64809006567315" lon="11.976276798288502"><ele>312.3333333333333</ele><time>2026-03-29T11:47:23.987Z</time></trkpt><trkpt lat="42.648136976282984" lon="11.976084295671942"><ele>311.6666666666667</ele><time>2026-03-29T11:47:24.987Z</time></trkpt><trkpt lat="42.64818780508886" lon="11.97589132223142"><ele>311.0</ele><time>2026-03-29T11:47:25.987Z</time></trkpt><trkpt lat="42.64823836649024" lon="11.9756987049855"><ele>310.33333333333337</ele><time>2026-03-29T11:47:26.987Z</time></trkpt><trkpt lat="42.64828571905494" lon="11.975501725147536"><ele>309.6666666666667</ele><time>2026-03-29T11:47:27.987Z</time></trkpt><trkpt lat="42.6483341260557" lon="11.975305097382547"><ele>309.0</ele><time>2026-03-29T11:47:28.987Z</time></trkpt><trkpt lat="42.64838186107076" lon="11.975107695298647"><ele>308.6666666666667</ele><time>2026-03-29T11:47:29.987Z</time></trkpt><trkpt lat="42.64842904244989" lon="11.974915651896955"><ele>308.33333333333337</ele><time>2026-03-29T11:47:30.987Z</time></trkpt><trkpt lat="42.64847504558073" lon="11.974722845119855"><ele>308.0</ele><time>2026-03-29T11:47:31.987Z</time></trkpt><trkpt lat="42.648520907276556" lon="11.974525484660713"><ele>308.0</ele><time>2026-03-29T11:47:32.987Z</time></trkpt><trkpt lat="42.64856628661266" lon="11.974322136146466"><ele>308.0</ele><time>2026-03-29T11:47:33.987Z</time></trkpt><trkpt lat="42.64860949123792" lon="11.974120095673742"><ele>308.0</ele><time>2026-03-29T11:47:34.987Z</time></trkpt><trkpt lat="42.64865308537547" lon="11.973916936579128"><ele>308.33333333333337</ele><time>2026-03-29T11:47:35.987Z</time></trkpt><trkpt lat="42.648692278793" lon="11.973712868716387"><ele>308.6666666666667</ele><time>2026-03-29T11:47:36.987Z</time></trkpt><trkpt lat="42.64873474641253" lon="11.973509635267146"><ele>309.0</ele><time>2026-03-29T11:47:37.987Z</time></trkpt><trkpt lat="42.64877558840824" lon="11.973311314671035"><ele>308.3333333333333</ele><time>2026-03-29T11:47:38.987Z</time></trkpt><trkpt lat="42.64881378609168" lon="11.973109877515254"><ele>307.66666666666663</ele><time>2026-03-29T11:47:39.987Z</time></trkpt><trkpt lat="42.648855053832" lon="11.972905219405845"><ele>307.0</ele><time>2026-03-29T11:47:40.987Z</time></trkpt><trkpt lat="42.64891213818417" lon="11.972713699703137"><ele>306.66666666666663</ele><time>2026-03-29T11:47:41.987Z</time></trkpt><trkpt lat="42.64895067782952" lon="11.972515248686618"><ele>306.3333333333333</ele><time>2026-03-29T11:47:42.987Z</time></trkpt><trkpt lat="42.6489947525614" lon="11.97231912484267"><ele>306.0</ele><time>2026-03-29T11:47:43.987Z</time></trkpt><trkpt lat="42.649041375824" lon="11.972118319300025"><ele>306.0</ele><time>2026-03-29T11:47:44.987Z</time></trkpt><trkpt lat="42.64909288148602" lon="11.971915495029322"><ele>306.0</ele><time>2026-03-29T11:47:45.987Z</time></trkpt><trkpt lat="42.64914627302382" lon="11.971707142070674"><ele>306.0</ele><time>2026-03-29T11:47:46.987Z</time></trkpt><trkpt lat="42.64919990377862" lon="11.971493948905099"><ele>306.0</ele><time>2026-03-29T11:47:47.987Z</time></trkpt><trkpt lat="42.64925365108445" lon="11.97127658356412"><ele>306.0</ele><time>2026-03-29T11:47:48.987Z</time></trkpt><trkpt lat="42.64930821888525" lon="11.971058910666352"><ele>306.0</ele><time>2026-03-29T11:47:49.987Z</time></trkpt><trkpt lat="42.64936245909564" lon="11.970843119161481"><ele>306.3333333333333</ele><time>2026-03-29T11:47:50.987Z</time></trkpt><trkpt lat="42.64941753451546" lon="11.970627857221611"><ele>306.66666666666663</ele><time>2026-03-29T11:47:51.987Z</time></trkpt><trkpt lat="42.64947180069589" lon="11.970413253097218"><ele>307.0</ele><time>2026-03-29T11:47:52.987Z</time></trkpt><trkpt lat="42.649525382354305" lon="11.970200612338346"><ele>306.66666666666663</ele><time>2026-03-29T11:47:53.987Z</time></trkpt><trkpt lat="42.649582374101435" lon="11.969985249498075"><ele>306.3333333333333</ele><time>2026-03-29T11:47:54.987Z</time></trkpt><trkpt lat="42.649635773179895" lon="11.969774722387054"><ele>306.0</ele><time>2026-03-29T11:47:55.987Z</time></trkpt><trkpt lat="42.649688685809174" lon="11.969562150575506"><ele>306.0</ele><time>2026-03-29T11:47:56.987Z</time></trkpt><trkpt lat="42.64974008135061" lon="11.969351726039617"><ele>306.0</ele><time>2026-03-29T11:47:57.987Z</time></trkpt><trkpt lat="42.64978857004217" lon="11.969150573347042"><ele>306.0</ele><time>2026-03-29T11:47:58.987Z</time></trkpt><trkpt lat="42.64983805505893" lon="11.96893982583227"><ele>306.3333333333333</ele><time>2026-03-29T11:47:59.987Z</time></trkpt><trkpt lat="42.64988903663827" lon="11.968729755172609"><ele>306.66666666666663</ele><time>2026-03-29T11:48:00.987Z</time></trkpt><trkpt lat="42.64993308350867" lon="11.96851707527444"><ele>307.0</ele><time>2026-03-29T11:48:01.987Z</time></trkpt><trkpt lat="42.64997398047451" lon="11.968303532588738"><ele>307.0</ele><time>2026-03-29T11:48:02.987Z</time></trkpt><trkpt lat="42.650015129902144" lon="11.968091825246074"><ele>307.0</ele><time>2026-03-29T11:48:03.986Z</time></trkpt><trkpt lat="42.65005575193779" lon="11.967880564209594"><ele>307.0</ele><time>2026-03-29T11:48:04.986Z</time></trkpt><trkpt lat="42.65009824263003" lon="11.967665839557544"><ele>307.0</ele><time>2026-03-29T11:48:05.986Z</time></trkpt><trkpt lat="42.65013718962349" lon="11.967451464210948"><ele>307.0</ele><time>2026-03-29T11:48:06.986Z</time></trkpt><trkpt lat="42.65017749198058" lon="11.967238699036999"><ele>307.0</ele><time>2026-03-29T11:48:07.986Z</time></trkpt><trkpt lat="42.65021891633228" lon="11.967025920455107"><ele>307.0</ele><time>2026-03-29T11:48:08.986Z</time></trkpt><trkpt lat="42.65025482927148" lon="11.966809826691854"><ele>307.0</ele><time>2026-03-29T11:48:09.986Z</time></trkpt><trkpt lat="42.65028983662718" lon="11.96659401578048"><ele>307.0</ele><time>2026-03-29T11:48:10.986Z</time></trkpt><trkpt lat="42.65032459645637" lon="11.966379224068845"><ele>307.0</ele><time>2026-03-29T11:48:11.986Z</time></trkpt><trkpt lat="42.650356295933655" lon="11.966162149659693"><ele>307.0</ele><time>2026-03-29T11:48:12.986Z</time></trkpt><trkpt lat="42.65039033226735" lon="11.965946430596638"><ele>307.0</ele><time>2026-03-29T11:48:13.986Z</time></trkpt><trkpt lat="42.65042344538103" lon="11.965731482203477"><ele>307.0</ele><time>2026-03-29T11:48:14.986Z</time></trkpt><trkpt lat="42.65045711666906" lon="11.965512939943757"><ele>307.0</ele><time>2026-03-29T11:48:15.986Z</time></trkpt><trkpt lat="42.65048700942961" lon="11.965297142197466"><ele>307.0</ele><time>2026-03-29T11:48:16.986Z</time></trkpt><trkpt lat="42.65051747015774" lon="11.965075987896101"><ele>307.3333333333333</ele><time>2026-03-29T11:48:17.986Z</time></trkpt><trkpt lat="42.6505453571564" lon="11.964857809075326"><ele>307.6666666666667</ele><time>2026-03-29T11:48:18.986Z</time></trkpt><trkpt lat="42.65057440885114" lon="11.96464347988708"><ele>308.0</ele><time>2026-03-29T11:48:19.986Z</time></trkpt><trkpt lat="42.65060385414371" lon="11.964424022991963"><ele>308.0</ele><time>2026-03-29T11:48:20.986Z</time></trkpt><trkpt lat="42.65063135934701" lon="11.96420368261431"><ele>308.0</ele><time>2026-03-29T11:48:21.986Z</time></trkpt><trkpt lat="42.650663976884886" lon="11.963983225941847"><ele>308.0</ele><time>2026-03-29T11:48:22.986Z</time></trkpt><trkpt lat="42.65069125098829" lon="11.963765170056982"><ele>307.6666666666667</ele><time>2026-03-29T11:48:23.986Z</time></trkpt><trkpt lat="42.65071797183105" lon="11.963550026389859"><ele>307.3333333333333</ele><time>2026-03-29T11:48:24.986Z</time></trkpt><trkpt lat="42.65074406390783" lon="11.963333591963623"><ele>307.0</ele><time>2026-03-29T11:48:25.986Z</time></trkpt><trkpt lat="42.650770812699875" lon="11.96311750289434"><ele>307.0</ele><time>2026-03-29T11:48:26.986Z</time></trkpt><trkpt lat="42.65079831933217" lon="11.962901584486879"><ele>307.0</ele><time>2026-03-29T11:48:27.986Z</time></trkpt><trkpt lat="42.650826513631905" lon="11.962684304230697"><ele>307.0</ele><time>2026-03-29T11:48:28.986Z</time></trkpt><trkpt lat="42.65085843823334" lon="11.962468955634359"><ele>307.0</ele><time>2026-03-29T11:48:29.986Z</time></trkpt><trkpt lat="42.65088436106187" lon="11.962252143467305"><ele>307.0</ele><time>2026-03-29T11:48:30.986Z</time></trkpt><trkpt lat="42.65090947411253" lon="11.962034443864155"><ele>307.0</ele><time>2026-03-29T11:48:31.986Z</time></trkpt><trkpt lat="42.65093473743079" lon="11.961817829441875"><ele>307.3333333333333</ele><time>2026-03-29T11:48:32.986Z</time></trkpt><trkpt lat="42.65096019614836" lon="11.961597006588017"><ele>307.6666666666667</ele><time>2026-03-29T11:48:33.986Z</time></trkpt><trkpt lat="42.65098402193716" lon="11.961374790151288"><ele>308.0</ele><time>2026-03-29T11:48:34.986Z</time></trkpt><trkpt lat="42.6510082942679" lon="11.96115498175764"><ele>308.0</ele><time>2026-03-29T11:48:35.986Z</time></trkpt><trkpt lat="42.65103294762303" lon="11.960935989335256"><ele>308.0</ele><time>2026-03-29T11:48:36.986Z</time></trkpt><trkpt lat="42.651058415098596" lon="11.96071551343452"><ele>308.0</ele><time>2026-03-29T11:48:37.986Z</time></trkpt><trkpt lat="42.65108503246258" lon="11.960494321256814"><ele>307.6666666666667</ele><time>2026-03-29T11:48:38.986Z</time></trkpt><trkpt lat="42.65111161179615" lon="11.960277438606738"><ele>307.3333333333333</ele><time>2026-03-29T11:48:39.986Z</time></trkpt><trkpt lat="42.6511394924192" lon="11.96006125155062"><ele>307.0</ele><time>2026-03-29T11:48:40.986Z</time></trkpt><trkpt lat="42.6511681372141" lon="11.959846463993829"><ele>307.0</ele><time>2026-03-29T11:48:41.986Z</time></trkpt><trkpt lat="42.651197680075946" lon="11.959630856469442"><ele>307.0</ele><time>2026-03-29T11:48:42.986Z</time></trkpt><trkpt lat="42.65122720821747" lon="11.959414563338889"><ele>307.0</ele><time>2026-03-29T11:48:43.986Z</time></trkpt><trkpt lat="42.651256408994385" lon="11.959197662229782"><ele>306.66666666666663</ele><time>2026-03-29T11:48:44.986Z</time></trkpt><trkpt lat="42.651286035823674" lon="11.958983986602805"><ele>306.3333333333333</ele><time>2026-03-29T11:48:45.986Z</time></trkpt><trkpt lat="42.65131545398088" lon="11.958768726930815"><ele>306.0</ele><time>2026-03-29T11:48:46.986Z</time></trkpt><trkpt lat="42.651348097470304" lon="11.958549911463559"><ele>305.6666666666667</ele><time>2026-03-29T11:48:47.986Z</time></trkpt><trkpt lat="42.65137393790099" lon="11.958332788167612"><ele>305.33333333333337</ele><time>2026-03-29T11:48:48.986Z</time></trkpt><trkpt lat="42.651403047037" lon="11.958115469851059"><ele>305.0</ele><time>2026-03-29T11:48:49.986Z</time></trkpt><trkpt lat="42.651432705866306" lon="11.957895547948537"><ele>305.0</ele><time>2026-03-29T11:48:50.986Z</time></trkpt><trkpt lat="42.651465253482904" lon="11.957678199047665"><ele>305.0</ele><time>2026-03-29T11:48:51.986Z</time></trkpt><trkpt lat="42.65149799372299" lon="11.957458355962862"><ele>305.0</ele><time>2026-03-29T11:48:52.986Z</time></trkpt><trkpt lat="42.6515261349044" lon="11.957237614997041"><ele>305.6666666666667</ele><time>2026-03-29T11:48:53.986Z</time></trkpt><trkpt lat="42.651554777382806" lon="11.957018339174498"><ele>306.3333333333333</ele><time>2026-03-29T11:48:54.986Z</time></trkpt><trkpt lat="42.65158348246528" lon="11.956801437312643"><ele>307.0</ele><time>2026-03-29T11:48:55.986Z</time></trkpt><trkpt lat="42.65161107490374" lon="11.956585400960236"><ele>307.3333333333333</ele><time>2026-03-29T11:48:56.986Z</time></trkpt><trkpt lat="42.65164337658988" lon="11.956366338881358"><ele>307.6666666666667</ele><time>2026-03-29T11:48:57.986Z</time></trkpt><trkpt lat="42.65167287350292" lon="11.956147089276854"><ele>308.0</ele><time>2026-03-29T11:48:58.986Z</time></trkpt><trkpt lat="42.65170456114517" lon="11.955925966897379"><ele>308.33333333333337</ele><time>2026-03-29T11:48:59.986Z</time></trkpt><trkpt lat="42.65173435799584" lon="11.955698848162344"><ele>308.6666666666667</ele><time>2026-03-29T11:49:00.986Z</time></trkpt><trkpt lat="42.651761448492245" lon="11.955472727883791"><ele>309.0</ele><time>2026-03-29T11:49:01.986Z</time></trkpt><trkpt lat="42.651784843193255" lon="11.955246028570802"><ele>308.3333333333333</ele><time>2026-03-29T11:49:02.986Z</time></trkpt><trkpt lat="42.65181711528045" lon="11.955025236629048"><ele>307.66666666666663</ele><time>2026-03-29T11:49:03.986Z</time></trkpt><trkpt lat="42.65185128235314" lon="11.954798047464013"><ele>307.0</ele><time>2026-03-29T11:49:04.986Z</time></trkpt><trkpt lat="42.651883062354145" lon="11.954563551958259"><ele>307.0</ele><time>2026-03-29T11:49:05.986Z</time></trkpt><trkpt lat="42.65191414377588" lon="11.954330337030799"><ele>307.0</ele><time>2026-03-29T11:49:06.986Z</time></trkpt><trkpt lat="42.651944672808604" lon="11.954101640233738"><ele>307.0</ele><time>2026-03-29T11:49:07.986Z</time></trkpt><trkpt lat="42.65197391428348" lon="11.953872589929913"><ele>307.0</ele><time>2026-03-29T11:49:08.986Z</time></trkpt><trkpt lat="42.652004027369976" lon="11.95364725594703"><ele>307.0</ele><time>2026-03-29T11:49:09.986Z</time></trkpt><trkpt lat="42.652034225732976" lon="11.953427037622438"><ele>307.0</ele><time>2026-03-29T11:49:10.986Z</time></trkpt><trkpt lat="42.65206546971832" lon="11.953204813682179"><ele>307.0</ele><time>2026-03-29T11:49:11.986Z</time></trkpt><trkpt lat="42.65208949855853" lon="11.952979451586101"><ele>307.0</ele><time>2026-03-29T11:49:12.986Z</time></trkpt><trkpt lat="42.65211263438765" lon="11.952753717660734"><ele>307.0</ele><time>2026-03-29T11:49:13.986Z</time></trkpt><trkpt lat="42.65213834652586" lon="11.952527218084558"><ele>307.0</ele><time>2026-03-29T11:49:14.986Z</time></trkpt><trkpt lat="42.65216429579003" lon="11.952293377213554"><ele>307.0</ele><time>2026-03-29T11:49:15.985Z</time></trkpt><trkpt lat="42.6521890420034" lon="11.952049633342131"><ele>307.0</ele><time>2026-03-29T11:49:16.985Z</time></trkpt><trkpt lat="42.65221222693317" lon="11.95179916385186"><ele>306.66666666666663</ele><time>2026-03-29T11:49:17.985Z</time></trkpt><trkpt lat="42.65223426720996" lon="11.95154070130404"><ele>306.3333333333333</ele><time>2026-03-29T11:49:18.985Z</time></trkpt><trkpt lat="42.6522541538959" lon="11.951274475712337"><ele>306.0</ele><time>2026-03-29T11:49:19.985Z</time></trkpt><trkpt lat="42.65227208886696" lon="11.951004815390542"><ele>306.3333333333333</ele><time>2026-03-29T11:49:20.985Z</time></trkpt><trkpt lat="42.65229363590445" lon="11.95073522512993"><ele>306.66666666666663</ele><time>2026-03-29T11:49:21.985Z</time></trkpt><trkpt lat="42.65231478927356" lon="11.950466119933314"><ele>307.0</ele><time>2026-03-29T11:49:22.985Z</time></trkpt><trkpt lat="42.65233624248847" lon="11.950199146056635"><ele>306.66666666666663</ele><time>2026-03-29T11:49:23.985Z</time></trkpt><trkpt lat="42.65235779862752" lon="11.949929435521582"><ele>306.3333333333333</ele><time>2026-03-29T11:49:24.985Z</time></trkpt><trkpt lat="42.65238083059611" lon="11.94966014208161"><ele>306.0</ele><time>2026-03-29T11:49:25.985Z</time></trkpt><trkpt lat="42.65240258735893" lon="11.949391584926973"><ele>306.0</ele><time>2026-03-29T11:49:26.985Z</time></trkpt><trkpt lat="42.65242135647923" lon="11.949124108201783"><ele>306.0</ele><time>2026-03-29T11:49:27.985Z</time></trkpt><trkpt lat="42.652441019445234" lon="11.94886095615328"><ele>306.0</ele><time>2026-03-29T11:49:28.985Z</time></trkpt><trkpt lat="42.652460915977805" lon="11.948593946473"><ele>305.6666666666667</ele><time>2026-03-29T11:49:29.985Z</time></trkpt><trkpt lat="42.6524783987357" lon="11.948328208589668"><ele>305.33333333333337</ele><time>2026-03-29T11:49:30.985Z</time></trkpt><trkpt lat="42.65249578551678" lon="11.948062119152798"><ele>305.0</ele><time>2026-03-29T11:49:31.985Z</time></trkpt><trkpt lat="42.65251300661575" lon="11.947794718395158"><ele>305.0</ele><time>2026-03-29T11:49:32.985Z</time></trkpt><trkpt lat="42.65254479323542" lon="11.947528581250046"><ele>305.0</ele><time>2026-03-29T11:49:33.985Z</time></trkpt><trkpt lat="42.652566492459485" lon="11.947262597052672"><ele>305.0</ele><time>2026-03-29T11:49:34.985Z</time></trkpt><trkpt lat="42.65258220218876" lon="11.946992565356739"><ele>305.0</ele><time>2026-03-29T11:49:35.985Z</time></trkpt><trkpt lat="42.65259566788664" lon="11.946723722981261"><ele>305.0</ele><time>2026-03-29T11:49:36.985Z</time></trkpt><trkpt lat="42.65261198954102" lon="11.946455733943171"><ele>305.0</ele><time>2026-03-29T11:49:37.985Z</time></trkpt><trkpt lat="42.65263552739254" lon="11.946191053010129"><ele>305.33333333333337</ele><time>2026-03-29T11:49:38.985Z</time></trkpt><trkpt lat="42.65267709185281" lon="11.9459320251613"><ele>305.6666666666667</ele><time>2026-03-29T11:49:39.985Z</time></trkpt><trkpt lat="42.65274977387172" lon="11.945682031806093"><ele>306.0</ele><time>2026-03-29T11:49:40.985Z</time></trkpt><trkpt lat="42.65283665699382" lon="11.945442909297986"><ele>306.3333333333333</ele><time>2026-03-29T11:49:41.985Z</time></trkpt><trkpt lat="42.652937777615215" lon="11.945213096024247"><ele>306.66666666666663</ele><time>2026-03-29T11:49:42.985Z</time></trkpt><trkpt lat="42.65303733433174" lon="11.944982094863791"><ele>307.0</ele><time>2026-03-29T11:49:43.985Z</time></trkpt><trkpt lat="42.6531311201757" lon="11.944747322092047"><ele>307.0</ele><time>2026-03-29T11:49:44.985Z</time></trkpt><trkpt lat="42.653226116235714" lon="11.94450674197091"><ele>307.0</ele><time>2026-03-29T11:49:45.985Z</time></trkpt><trkpt lat="42.65332549805169" lon="11.944272277097381"><ele>307.0</ele><time>2026-03-29T11:49:46.985Z</time></trkpt><trkpt lat="42.65342260063566" lon="11.944036478843566"><ele>307.0</ele><time>2026-03-29T11:49:47.985Z</time></trkpt><trkpt lat="42.65351827111089" lon="11.943800553089316"><ele>307.0</ele><time>2026-03-29T11:49:48.985Z</time></trkpt><trkpt lat="42.653610940480746" lon="11.943565275760637"><ele>307.0</ele><time>2026-03-29T11:49:49.985Z</time></trkpt><trkpt lat="42.65370311988662" lon="11.943328867402519"><ele>307.0</ele><time>2026-03-29T11:49:50.985Z</time></trkpt><trkpt lat="42.653798180153075" lon="11.94309223984902"><ele>307.0</ele><time>2026-03-29T11:49:51.985Z</time></trkpt><trkpt lat="42.65389065488627" lon="11.942852925161144"><ele>307.0</ele><time>2026-03-29T11:49:52.985Z</time></trkpt><trkpt lat="42.653979254287094" lon="11.942612796241516"><ele>306.3333333333333</ele><time>2026-03-29T11:49:53.985Z</time></trkpt><trkpt lat="42.65406939226373" lon="11.942377519741775"><ele>305.6666666666667</ele><time>2026-03-29T11:49:54.985Z</time></trkpt><trkpt lat="42.65416035515511" lon="11.942142913998138"><ele>305.0</ele><time>2026-03-29T11:49:55.985Z</time></trkpt><trkpt lat="42.654252888436396" lon="11.941906446222756"><ele>305.6666666666667</ele><time>2026-03-29T11:49:56.985Z</time></trkpt><trkpt lat="42.65434405102415" lon="11.941670773114566"><ele>306.3333333333333</ele><time>2026-03-29T11:49:57.985Z</time></trkpt><trkpt lat="42.65443548140586" lon="11.941434818884497"><ele>307.0</ele><time>2026-03-29T11:49:58.985Z</time></trkpt><trkpt lat="42.654529358224345" lon="11.941196090340645"><ele>307.0</ele><time>2026-03-29T11:49:59.985Z</time></trkpt><trkpt lat="42.65462032937227" lon="11.94095957458683"><ele>307.0</ele><time>2026-03-29T11:50:00.985Z</time></trkpt><trkpt lat="42.65470743809354" lon="11.940720713142852"><ele>307.0</ele><time>2026-03-29T11:50:01.985Z</time></trkpt><trkpt lat="42.65479790648868" lon="11.940481888291302"><ele>307.0</ele><time>2026-03-29T11:50:02.985Z</time></trkpt><trkpt lat="42.6548896163752" lon="11.940247440540881"><ele>307.0</ele><time>2026-03-29T11:50:03.985Z</time></trkpt><trkpt lat="42.65498108734779" lon="11.94001358824175"><ele>307.0</ele><time>2026-03-29T11:50:04.985Z</time></trkpt><trkpt lat="42.655072536763704" lon="11.939773416364005"><ele>307.66666666666663</ele><time>2026-03-29T11:50:05.985Z</time></trkpt><trkpt lat="42.655166188476585" lon="11.939537343530052"><ele>308.3333333333333</ele><time>2026-03-29T11:50:06.985Z</time></trkpt><trkpt lat="42.65525885188079" lon="11.939304995092003"><ele>309.0</ele><time>2026-03-29T11:50:07.985Z</time></trkpt><trkpt lat="42.65535773204585" lon="11.93907227801166"><ele>309.0</ele><time>2026-03-29T11:50:08.985Z</time></trkpt><trkpt lat="42.655453812875734" lon="11.938837419378505"><ele>309.0</ele><time>2026-03-29T11:50:09.985Z</time></trkpt><trkpt lat="42.6555500659677" lon="11.938600561327254"><ele>309.0</ele><time>2026-03-29T11:50:10.985Z</time></trkpt><trkpt lat="42.655643995472204" lon="11.938366828179497"><ele>309.0</ele><time>2026-03-29T11:50:11.985Z</time></trkpt><trkpt lat="42.6557409465777" lon="11.938130511219939"><ele>309.0</ele><time>2026-03-29T11:50:12.985Z</time></trkpt><trkpt lat="42.655836798135574" lon="11.937894638637356"><ele>309.0</ele><time>2026-03-29T11:50:13.985Z</time></trkpt><trkpt lat="42.65593158612146" lon="11.937659275226364"><ele>309.6666666666667</ele><time>2026-03-29T11:50:14.985Z</time></trkpt><trkpt lat="42.656028427558404" lon="11.93742135442751"><ele>310.33333333333337</ele><time>2026-03-29T11:50:15.985Z</time></trkpt><trkpt lat="42.65612629662268" lon="11.937186966370765"><ele>311.0</ele><time>2026-03-29T11:50:16.985Z</time></trkpt><trkpt lat="42.65622121389919" lon="11.936951875316572"><ele>311.0</ele><time>2026-03-29T11:50:17.985Z</time></trkpt><trkpt lat="42.65631418099472" lon="11.936711192311652"><ele>311.0</ele><time>2026-03-29T11:50:18.985Z</time></trkpt><trkpt lat="42.65638626010384" lon="11.936469320949135"><ele>311.0</ele><time>2026-03-29T11:50:19.985Z</time></trkpt><trkpt lat="42.65644555230024" lon="11.936214766772013"><ele>311.0</ele><time>2026-03-29T11:50:20.985Z</time></trkpt><trkpt lat="42.656482739532464" lon="11.935949307629272"><ele>311.0</ele><time>2026-03-29T11:50:21.985Z</time></trkpt><trkpt lat="42.656510251448346" lon="11.935678480062851"><ele>311.0</ele><time>2026-03-29T11:50:22.985Z</time></trkpt><trkpt lat="42.65653256019949" lon="11.935404698484291"><ele>311.0</ele><time>2026-03-29T11:50:23.985Z</time></trkpt><trkpt lat="42.65654637305593" lon="11.935131587188355"><ele>311.0</ele><time>2026-03-29T11:50:24.985Z</time></trkpt><trkpt lat="42.65656555113988" lon="11.934859090991742"><ele>311.0</ele><time>2026-03-29T11:50:25.985Z</time></trkpt><trkpt lat="42.65658499437021" lon="11.93458989180567"><ele>311.0</ele><time>2026-03-29T11:50:26.985Z</time></trkpt><trkpt lat="42.65659866859965" lon="11.934324400134908"><ele>311.0</ele><time>2026-03-29T11:50:27.985Z</time></trkpt><trkpt lat="42.65661200336281" lon="11.934056389128282"><ele>311.0</ele><time>2026-03-29T11:50:28.984Z</time></trkpt><trkpt lat="42.65662451795741" lon="11.933792594679174"><ele>311.0</ele><time>2026-03-29T11:50:29.984Z</time></trkpt><trkpt lat="42.65663938235084" lon="11.933526368538912"><ele>311.0</ele><time>2026-03-29T11:50:30.984Z</time></trkpt><trkpt lat="42.65665010052973" lon="11.933259150453917"><ele>311.0</ele><time>2026-03-29T11:50:31.984Z</time></trkpt><trkpt lat="42.65665056239668" lon="11.932991087751157"><ele>311.33333333333337</ele><time>2026-03-29T11:50:32.984Z</time></trkpt><trkpt lat="42.65664698372156" lon="11.932721001081276"><ele>311.6666666666667</ele><time>2026-03-29T11:50:33.984Z</time></trkpt><trkpt lat="42.65663381067754" lon="11.93245213021023"><ele>312.0</ele><time>2026-03-29T11:50:34.984Z</time></trkpt><trkpt lat="42.65661777428678" lon="11.932184726228972"><ele>312.0</ele><time>2026-03-29T11:50:35.984Z</time></trkpt><trkpt lat="42.65659762356707" lon="11.931920466617514"><ele>312.0</ele><time>2026-03-29T11:50:36.984Z</time></trkpt><trkpt lat="42.65657355222888" lon="11.931658495830792"><ele>312.0</ele><time>2026-03-29T11:50:37.984Z</time></trkpt><trkpt lat="42.65655102418606" lon="11.931394145547602"><ele>311.3333333333333</ele><time>2026-03-29T11:50:38.984Z</time></trkpt><trkpt lat="42.65653240507328" lon="11.931130247714693"><ele>310.66666666666663</ele><time>2026-03-29T11:50:39.984Z</time></trkpt><trkpt lat="42.65652005763358" lon="11.9308613840136"><ele>310.0</ele><time>2026-03-29T11:50:40.984Z</time></trkpt><trkpt lat="42.65651725926963" lon="11.930592791753938"><ele>310.0</ele><time>2026-03-29T11:50:41.984Z</time></trkpt><trkpt lat="42.6565186580878" lon="11.930323994754701"><ele>310.0</ele><time>2026-03-29T11:50:42.984Z</time></trkpt><trkpt lat="42.65652097839084" lon="11.93005462681098"><ele>310.0</ele><time>2026-03-29T11:50:43.984Z</time></trkpt><trkpt lat="42.656522898086955" lon="11.929785235178212"><ele>310.0</ele><time>2026-03-29T11:50:44.984Z</time></trkpt><trkpt lat="42.65652486670218" lon="11.929515499036428"><ele>310.0</ele><time>2026-03-29T11:50:45.984Z</time></trkpt><trkpt lat="42.656525775230484" lon="11.929244046999077"><ele>310.0</ele><time>2026-03-29T11:50:46.984Z</time></trkpt><trkpt lat="42.65652048936612" lon="11.928971596880746"><ele>310.3333333333333</ele><time>2026-03-29T11:50:47.984Z</time></trkpt><trkpt lat="42.65650132511135" lon="11.928703530060103"><ele>310.6666666666667</ele><time>2026-03-29T11:50:48.984Z</time></trkpt><trkpt lat="42.656475302596355" lon="11.92843537740477"><ele>311.0</ele><time>2026-03-29T11:50:49.984Z</time></trkpt><trkpt lat="42.65645118937374" lon="11.928167733772753"><ele>311.0</ele><time>2026-03-29T11:50:50.984Z</time></trkpt><trkpt lat="42.65642983543417" lon="11.927901932814216"><ele>311.0</ele><time>2026-03-29T11:50:51.984Z</time></trkpt><trkpt lat="42.65641236870965" lon="11.927636373028893"><ele>311.0</ele><time>2026-03-29T11:50:52.984Z</time></trkpt><trkpt lat="42.656395482841056" lon="11.927373190810657"><ele>311.0</ele><time>2026-03-29T11:50:53.984Z</time></trkpt><trkpt lat="42.65638043125262" lon="11.927111357630569"><ele>311.0</ele><time>2026-03-29T11:50:54.984Z</time></trkpt><trkpt lat="42.65636759326902" lon="11.926845367930936"><ele>311.0</ele><time>2026-03-29T11:50:55.984Z</time></trkpt><trkpt lat="42.65635172558635" lon="11.926577633383163"><ele>311.0</ele><time>2026-03-29T11:50:56.984Z</time></trkpt><trkpt lat="42.65633990007391" lon="11.92630781368497"><ele>311.0</ele><time>2026-03-29T11:50:57.984Z</time></trkpt><trkpt lat="42.65632982391709" lon="11.926035055249299"><ele>311.0</ele><time>2026-03-29T11:50:58.984Z</time></trkpt><trkpt lat="42.656319441419676" lon="11.925769814644001"><ele>311.0</ele><time>2026-03-29T11:50:59.984Z</time></trkpt><trkpt lat="42.656307952672286" lon="11.925503257690885"><ele>311.0</ele><time>2026-03-29T11:51:00.984Z</time></trkpt><trkpt lat="42.656299524456934" lon="11.92523193988555"><ele>311.0</ele><time>2026-03-29T11:51:01.984Z</time></trkpt><trkpt lat="42.65629946835783" lon="11.92496170883187"><ele>311.0</ele><time>2026-03-29T11:51:02.984Z</time></trkpt><trkpt lat="42.656304886800385" lon="11.924695162071316"><ele>311.0</ele><time>2026-03-29T11:51:03.984Z</time></trkpt><trkpt lat="42.656312297732526" lon="11.924428130716102"><ele>311.0</ele><time>2026-03-29T11:51:04.984Z</time></trkpt><trkpt lat="42.65631365542701" lon="11.924160412506088"><ele>311.0</ele><time>2026-03-29T11:51:05.984Z</time></trkpt><trkpt lat="42.65630725855022" lon="11.923890095754347"><ele>311.0</ele><time>2026-03-29T11:51:06.984Z</time></trkpt><trkpt lat="42.656292119797236" lon="11.923623813253782"><ele>311.0</ele><time>2026-03-29T11:51:07.984Z</time></trkpt><trkpt lat="42.656261100211566" lon="11.92336119753748"><ele>311.0</ele><time>2026-03-29T11:51:08.984Z</time></trkpt><trkpt lat="42.656215836778955" lon="11.923105160857414"><ele>311.0</ele><time>2026-03-29T11:51:09.984Z</time></trkpt><trkpt lat="42.656161846081396" lon="11.922848368082182"><ele>311.0</ele><time>2026-03-29T11:51:10.984Z</time></trkpt><trkpt lat="42.6561036213244" lon="11.92259089383551"><ele>310.6666666666667</ele><time>2026-03-29T11:51:11.984Z</time></trkpt><trkpt lat="42.6560426956675" lon="11.922340668259112"><ele>310.3333333333333</ele><time>2026-03-29T11:51:12.984Z</time></trkpt><trkpt lat="42.655988607065325" lon="11.922085873314977"><ele>310.0</ele><time>2026-03-29T11:51:13.984Z</time></trkpt><trkpt lat="42.65593270496517" lon="11.921826480304116"><ele>310.0</ele><time>2026-03-29T11:51:14.984Z</time></trkpt><trkpt lat="42.65588106487505" lon="11.921560188444412"><ele>310.0</ele><time>2026-03-29T11:51:15.984Z</time></trkpt><trkpt lat="42.655839893741025" lon="11.921301553058278"><ele>310.0</ele><time>2026-03-29T11:51:16.984Z</time></trkpt><trkpt lat="42.655795539601336" lon="11.921042555471887"><ele>309.3333333333333</ele><time>2026-03-29T11:51:17.984Z</time></trkpt><trkpt lat="42.65575218492155" lon="11.920784627030415"><ele>308.6666666666667</ele><time>2026-03-29T11:51:18.984Z</time></trkpt><trkpt lat="42.65570673645907" lon="11.920519932258014"><ele>308.0</ele><time>2026-03-29T11:51:19.984Z</time></trkpt><trkpt lat="42.655668067568726" lon="11.920256798318979"><ele>308.33333333333337</ele><time>2026-03-29T11:51:20.984Z</time></trkpt><trkpt lat="42.65563263663864" lon="11.919989798860643"><ele>308.6666666666667</ele><time>2026-03-29T11:51:21.984Z</time></trkpt><trkpt lat="42.65560093398179" lon="11.91972257431519"><ele>309.0</ele><time>2026-03-29T11:51:22.984Z</time></trkpt><trkpt lat="42.65557332998477" lon="11.919452292251957"><ele>309.3333333333333</ele><time>2026-03-29T11:51:23.984Z</time></trkpt><trkpt lat="42.655548768434905" lon="11.919181651410215"><ele>309.66666666666663</ele><time>2026-03-29T11:51:24.984Z</time></trkpt><trkpt lat="42.65553036830424" lon="11.91891269487332"><ele>310.0</ele><time>2026-03-29T11:51:25.984Z</time></trkpt><trkpt lat="42.655525413189665" lon="11.91864610198034"><ele>310.3333333333333</ele><time>2026-03-29T11:51:26.984Z</time></trkpt><trkpt lat="42.65552967046056" lon="11.918379291802783"><ele>310.6666666666667</ele><time>2026-03-29T11:51:27.984Z</time></trkpt><trkpt lat="42.65556281422872" lon="11.918114126860257"><ele>311.0</ele><time>2026-03-29T11:51:28.984Z</time></trkpt><trkpt lat="42.65559876857414" lon="11.917855304462458"><ele>311.0</ele><time>2026-03-29T11:51:29.984Z</time></trkpt><trkpt lat="42.65564821090599" lon="11.91759439993922"><ele>311.0</ele><time>2026-03-29T11:51:30.984Z</time></trkpt><trkpt lat="42.65569853198905" lon="11.917331795551062"><ele>311.0</ele><time>2026-03-29T11:51:31.984Z</time></trkpt><trkpt lat="42.65575254484242" lon="11.91706772317576"><ele>310.6666666666667</ele><time>2026-03-29T11:51:32.984Z</time></trkpt><trkpt lat="42.6558137497467" lon="11.916812475825553"><ele>310.3333333333333</ele><time>2026-03-29T11:51:33.984Z</time></trkpt><trkpt lat="42.65587608999319" lon="11.916559953368857"><ele>310.0</ele><time>2026-03-29T11:51:34.984Z</time></trkpt><trkpt lat="42.65594002628218" lon="11.916309060978673"><ele>310.0</ele><time>2026-03-29T11:51:35.984Z</time></trkpt><trkpt lat="42.65600615471773" lon="11.916058028620204"><ele>310.0</ele><time>2026-03-29T11:51:36.984Z</time></trkpt><trkpt lat="42.65607790781804" lon="11.915807440180279"><ele>310.0</ele><time>2026-03-29T11:51:37.984Z</time></trkpt><trkpt lat="42.656150041666294" lon="11.91555710143439"><ele>311.3333333333333</ele><time>2026-03-29T11:51:38.984Z</time></trkpt><trkpt lat="42.65622303464167" lon="11.915308307300123"><ele>312.6666666666667</ele><time>2026-03-29T11:51:39.984Z</time></trkpt><trkpt lat="42.656311407158874" lon="11.915072116333633"><ele>314.0</ele><time>2026-03-29T11:51:40.983Z</time></trkpt><trkpt lat="42.656380620595534" lon="11.914818859822809"><ele>314.0</ele><time>2026-03-29T11:51:41.983Z</time></trkpt><trkpt lat="42.656488524342834" lon="11.9145961087908"><ele>314.0</ele><time>2026-03-29T11:51:42.983Z</time></trkpt><trkpt lat="42.656590045142096" lon="11.914365899639046"><ele>314.0</ele><time>2026-03-29T11:51:43.983Z</time></trkpt><trkpt lat="42.65669337466325" lon="11.914135756589603"><ele>314.0</ele><time>2026-03-29T11:51:44.983Z</time></trkpt><trkpt lat="42.65679640663135" lon="11.91391206288161"><ele>314.0</ele><time>2026-03-29T11:51:45.983Z</time></trkpt><trkpt lat="42.656894426516715" lon="11.913673465251087"><ele>314.0</ele><time>2026-03-29T11:51:46.983Z</time></trkpt><trkpt lat="42.65700172246323" lon="11.913443276632238"><ele>315.0</ele><time>2026-03-29T11:51:47.983Z</time></trkpt><trkpt lat="42.65711227264803" lon="11.913220968800482"><ele>316.0</ele><time>2026-03-29T11:51:48.983Z</time></trkpt><trkpt lat="42.657219997451094" lon="11.912994310423459"><ele>317.0</ele><time>2026-03-29T11:51:49.983Z</time></trkpt><trkpt lat="42.65732508507706" lon="11.912785386240165"><ele>316.33333333333337</ele><time>2026-03-29T11:51:50.983Z</time></trkpt><trkpt lat="42.65745481253836" lon="11.91256031906896"><ele>315.6666666666667</ele><time>2026-03-29T11:51:51.983Z</time></trkpt><trkpt lat="42.657560527457576" lon="11.91233632114179"><ele>315.0</ele><time>2026-03-29T11:51:52.983Z</time></trkpt><trkpt lat="42.657654092309045" lon="11.912089196761869"><ele>315.0</ele><time>2026-03-29T11:51:53.983Z</time></trkpt><trkpt lat="42.65775080138469" lon="11.91185819451133"><ele>315.0</ele><time>2026-03-29T11:51:54.983Z</time></trkpt><trkpt lat="42.65783197903963" lon="11.911628810213934"><ele>315.0</ele><time>2026-03-29T11:51:55.983Z</time></trkpt><trkpt lat="42.65791819012903" lon="11.91139961761422"><ele>315.0</ele><time>2026-03-29T11:51:56.983Z</time></trkpt><trkpt lat="42.657999767449446" lon="11.911187742533487"><ele>315.0</ele><time>2026-03-29T11:51:57.983Z</time></trkpt><trkpt lat="42.65808010279324" lon="11.910988342710489"><ele>315.0</ele><time>2026-03-29T11:51:58.983Z</time></trkpt><trkpt lat="42.65818653769274" lon="11.910829910904054"><ele>314.3333333333333</ele><time>2026-03-29T11:51:59.983Z</time></trkpt><trkpt lat="42.6582965996535" lon="11.910673950361126"><ele>313.66666666666663</ele><time>2026-03-29T11:52:00.983Z</time></trkpt><trkpt lat="42.658409034094824" lon="11.910528409568501"><ele>313.0</ele><time>2026-03-29T11:52:01.983Z</time></trkpt><trkpt lat="42.658515725584444" lon="11.910383835758896"><ele>313.0</ele><time>2026-03-29T11:52:02.983Z</time></trkpt><trkpt lat="42.658607202720944" lon="11.910226495094548"><ele>313.0</ele><time>2026-03-29T11:52:03.983Z</time></trkpt><trkpt lat="42.65868806809102" lon="11.910072547276837"><ele>313.0</ele><time>2026-03-29T11:52:04.983Z</time></trkpt><trkpt lat="42.658759329024214" lon="11.909910403518198"><ele>313.0</ele><time>2026-03-29T11:52:05.983Z</time></trkpt><trkpt lat="42.6588451054964" lon="11.90976547912856"><ele>313.25</ele><time>2026-03-29T11:52:06.983Z</time></trkpt><trkpt lat="42.658940753960835" lon="11.90965941787225"><ele>313.5</ele><time>2026-03-29T11:52:07.983Z</time></trkpt><trkpt lat="42.659022264798416" lon="11.909572274155371"><ele>313.75</ele><time>2026-03-29T11:52:08.983Z</time></trkpt><trkpt lat="42.65909954044786" lon="11.90949871523329"><ele>314.0</ele><time>2026-03-29T11:52:09.983Z</time></trkpt><trkpt lat="42.65910445100416" lon="11.909321882919258"><ele>313.59999999999997</ele><time>2026-03-29T11:52:10.983Z</time></trkpt><trkpt lat="42.65912411481543" lon="11.90920004326678"><ele>313.2</ele><time>2026-03-29T11:52:11.983Z</time></trkpt><trkpt lat="42.65913201784843" lon="11.909067974351478"><ele>312.79999999999995</ele><time>2026-03-29T11:52:12.983Z</time></trkpt><trkpt lat="42.65915088586603" lon="11.908918755649035"><ele>312.4</ele><time>2026-03-29T11:52:13.983Z</time></trkpt><trkpt lat="42.65916600316513" lon="11.90877171256404"><ele>312.0</ele><time>2026-03-29T11:52:14.983Z</time></trkpt><trkpt lat="42.65918298347174" lon="11.908608307378932"><ele>312.0</ele><time>2026-03-29T11:52:15.983Z</time></trkpt><trkpt lat="42.659200533609955" lon="11.908440499396912"><ele>312.0</ele><time>2026-03-29T11:52:16.982Z</time></trkpt><trkpt lat="42.65924051701024" lon="11.90826389650965"><ele>312.0</ele><time>2026-03-29T11:52:17.982Z</time></trkpt><trkpt lat="42.65926502192804" lon="11.908075502257043"><ele>312.0</ele><time>2026-03-29T11:52:18.982Z</time></trkpt><trkpt lat="42.659285762335074" lon="11.907886318641982"><ele>312.0</ele><time>2026-03-29T11:52:19.982Z</time></trkpt><trkpt lat="42.65930254835512" lon="11.907693643565874"><ele>312.0</ele><time>2026-03-29T11:52:20.982Z</time></trkpt><trkpt lat="42.65932011128289" lon="11.907495738603009"><ele>312.0</ele><time>2026-03-29T11:52:21.982Z</time></trkpt><trkpt lat="42.659341661647865" lon="11.907295869867166"><ele>312.0</ele><time>2026-03-29T11:52:22.982Z</time></trkpt><trkpt lat="42.659371762566316" lon="11.907090148979142"><ele>312.6666666666667</ele><time>2026-03-29T11:52:23.982Z</time></trkpt><trkpt lat="42.65940146687586" lon="11.906880131991727"><ele>313.33333333333337</ele><time>2026-03-29T11:52:24.982Z</time></trkpt><trkpt lat="42.65942276928008" lon="11.906664379905461"><ele>314.0</ele><time>2026-03-29T11:52:25.982Z</time></trkpt><trkpt lat="42.65945119804824" lon="11.906440178266458"><ele>314.6666666666667</ele><time>2026-03-29T11:52:26.982Z</time></trkpt><trkpt lat="42.65948362322289" lon="11.906208745508595"><ele>315.3333333333333</ele><time>2026-03-29T11:52:27.982Z</time></trkpt><trkpt lat="42.65952874147623" lon="11.905995403091907"><ele>316.0</ele><time>2026-03-29T11:52:29.005Z</time></trkpt><trkpt lat="42.65957910571145" lon="11.905790702003642"><ele>317.25</ele><time>2026-03-29T11:52:30.005Z</time></trkpt><trkpt lat="42.659624219483284" lon="11.90558354546464"><ele>318.5</ele><time>2026-03-29T11:52:31.005Z</time></trkpt><trkpt lat="42.65965650587925" lon="11.905390195259002"><ele>319.75</ele><time>2026-03-29T11:52:32.005Z</time></trkpt><trkpt lat="42.65967590457982" lon="11.90519845587128"><ele>321.0</ele><time>2026-03-29T11:52:33.005Z</time></trkpt><trkpt lat="42.659668884824335" lon="11.905009768870185"><ele>322.25</ele><time>2026-03-29T11:52:34.005Z</time></trkpt><trkpt lat="42.65963247155588" lon="11.904813049104446"><ele>323.5</ele><time>2026-03-29T11:52:35.005Z</time></trkpt><trkpt lat="42.65956999004446" lon="11.904623692610784"><ele>324.75</ele><time>2026-03-29T11:52:36.005Z</time></trkpt><trkpt lat="42.65949279001308" lon="11.904453232307265"><ele>326.0</ele><time>2026-03-29T11:52:37.005Z</time></trkpt><trkpt lat="42.65941436110048" lon="11.904288486228218"><ele>327.5</ele><time>2026-03-29T11:52:38.005Z</time></trkpt><trkpt lat="42.65931191837557" lon="11.904157604726652"><ele>329.0</ele><time>2026-03-29T11:52:39.005Z</time></trkpt><trkpt lat="42.659197544741374" lon="11.904064220023491"><ele>330.5</ele><time>2026-03-29T11:52:40.005Z</time></trkpt><trkpt lat="42.65906817735051" lon="11.904004260097306"><ele>332.0</ele><time>2026-03-29T11:52:41.005Z</time></trkpt><trkpt lat="42.658930513276125" lon="11.903946797550887"><ele>332.0</ele><time>2026-03-29T11:52:42.005Z</time></trkpt><trkpt lat="42.658801723562576" lon="11.903870222352044"><ele>332.0</ele><time>2026-03-29T11:52:43.005Z</time></trkpt><trkpt lat="42.658676430119534" lon="11.903776947693151"><ele>332.0</ele><time>2026-03-29T11:52:44.005Z</time></trkpt><trkpt lat="42.65855078253259" lon="11.903669095303215"><ele>332.0</ele><time>2026-03-29T11:52:45.005Z</time></trkpt><trkpt lat="42.6584319543172" lon="11.903524905334647"><ele>331.0</ele><time>2026-03-29T11:52:46.005Z</time></trkpt><trkpt lat="42.658332676208886" lon="11.903367996339833"><ele>330.0</ele><time>2026-03-29T11:52:47.004Z</time></trkpt><trkpt lat="42.65824739326009" lon="11.903222632855538"><ele>329.0</ele><time>2026-03-29T11:52:48.004Z</time></trkpt><trkpt lat="42.65816790016141" lon="11.9030767346303"><ele>328.0</ele><time>2026-03-29T11:52:49.004Z</time></trkpt><trkpt lat="42.658093693531406" lon="11.902931165045377"><ele>328.0</ele><time>2026-03-29T11:52:50.004Z</time></trkpt><trkpt lat="42.65801521876341" lon="11.902783442432229"><ele>328.0</ele><time>2026-03-29T11:52:51.004Z</time></trkpt><trkpt lat="42.6579339614159" lon="11.90262673764026"><ele>328.0</ele><time>2026-03-29T11:52:52.004Z</time></trkpt><trkpt lat="42.65784786555849" lon="11.90247149831522"><ele>328.0</ele><time>2026-03-29T11:52:53.004Z</time></trkpt><trkpt lat="42.65775912278029" lon="11.902307696641799"><ele>327.5</ele><time>2026-03-29T11:52:54.004Z</time></trkpt><trkpt lat="42.657671553600224" lon="11.902147640092853"><ele>327.0</ele><time>2026-03-29T11:52:55.004Z</time></trkpt><trkpt lat="42.65758475470327" lon="11.90198554139881"><ele>326.5</ele><time>2026-03-29T11:52:56.004Z</time></trkpt><trkpt lat="42.65749927813772" lon="11.90182054409634"><ele>326.0</ele><time>2026-03-29T11:52:57.004Z</time></trkpt><trkpt lat="42.65741390903706" lon="11.901656042498107"><ele>326.0</ele><time>2026-03-29T11:52:58.004Z</time></trkpt><trkpt lat="42.65733078470894" lon="11.90150138816361"><ele>326.0</ele><time>2026-03-29T11:52:59.004Z</time></trkpt><trkpt lat="42.65725025849549" lon="11.901345689448075"><ele>326.0</ele><time>2026-03-29T11:53:00.004Z</time></trkpt><trkpt lat="42.657170747998656" lon="11.901192001148742"><ele>326.0</ele><time>2026-03-29T11:53:01.004Z</time></trkpt><trkpt lat="42.657089786664756" lon="11.901040441321262"><ele>326.5</ele><time>2026-03-29T11:53:02.004Z</time></trkpt><trkpt lat="42.65700519745738" lon="11.900886864132769"><ele>327.0</ele><time>2026-03-29T11:53:03.004Z</time></trkpt><trkpt lat="42.65692153206296" lon="11.900731387568532"><ele>327.5</ele><time>2026-03-29T11:53:04.004Z</time></trkpt><trkpt lat="42.656838586332825" lon="11.900569319998315"><ele>328.0</ele><time>2026-03-29T11:53:05.004Z</time></trkpt><trkpt lat="42.656753626566434" lon="11.900414315893045"><ele>328.0</ele><time>2026-03-29T11:53:06.004Z</time></trkpt><trkpt lat="42.65666798291085" lon="11.9002466677731"><ele>328.0</ele><time>2026-03-29T11:53:07.004Z</time></trkpt><trkpt lat="42.65658534567527" lon="11.900084251598447"><ele>328.0</ele><time>2026-03-29T11:53:08.004Z</time></trkpt><trkpt lat="42.6565026500115" lon="11.899927259663704"><ele>328.0</ele><time>2026-03-29T11:53:09.004Z</time></trkpt><trkpt lat="42.65642204245277" lon="11.899775324996133"><ele>328.25</ele><time>2026-03-29T11:53:10.004Z</time></trkpt><trkpt lat="42.65632871923063" lon="11.899634421895813"><ele>328.5</ele><time>2026-03-29T11:53:11.004Z</time></trkpt><trkpt lat="42.656220826773215" lon="11.899506826529421"><ele>328.75</ele><time>2026-03-29T11:53:12.004Z</time></trkpt><trkpt lat="42.65609503514857" lon="11.899397538242322"><ele>329.0</ele><time>2026-03-29T11:53:13.007Z</time></trkpt><trkpt lat="42.6559605930203" lon="11.899309635768327"><ele>329.0</ele><time>2026-03-29T11:53:14.007Z</time></trkpt><trkpt lat="42.655822190710005" lon="11.899218072987397"><ele>329.0</ele><time>2026-03-29T11:53:15.007Z</time></trkpt><trkpt lat="42.65569370285947" lon="11.899123620334278"><ele>329.0</ele><time>2026-03-29T11:53:16.007Z</time></trkpt><trkpt lat="42.655559503459074" lon="11.899039632103571"><ele>329.0</ele><time>2026-03-29T11:53:17.008Z</time></trkpt><trkpt lat="42.65543178368718" lon="11.898945340157809"><ele>329.0</ele><time>2026-03-29T11:53:18.008Z</time></trkpt><trkpt lat="42.655308866904285" lon="11.898859883473943"><ele>329.0</ele><time>2026-03-29T11:53:19.007Z</time></trkpt><trkpt lat="42.65517704911592" lon="11.898781042822124"><ele>329.0</ele><time>2026-03-29T11:53:20.007Z</time></trkpt><trkpt lat="42.655045904669365" lon="11.89870105499702"><ele>329.0</ele><time>2026-03-29T11:53:21.007Z</time></trkpt><trkpt lat="42.654914506149126" lon="11.898613142232277"><ele>328.0</ele><time>2026-03-29T11:53:22.007Z</time></trkpt><trkpt lat="42.65478587721219" lon="11.898529454846885"><ele>327.0</ele><time>2026-03-29T11:53:23.007Z</time></trkpt><trkpt lat="42.65466031209109" lon="11.898439189940177"><ele>326.0</ele><time>2026-03-29T11:53:24.007Z</time></trkpt><trkpt lat="42.65454432372924" lon="11.898331660193655"><ele>325.0</ele><time>2026-03-29T11:53:25.007Z</time></trkpt><trkpt lat="42.6544400039731" lon="11.898206013465453"><ele>323.5</ele><time>2026-03-29T11:53:26.007Z</time></trkpt><trkpt lat="42.654346998921575" lon="11.898061290309464"><ele>322.0</ele><time>2026-03-29T11:53:27.007Z</time></trkpt><trkpt lat="42.654254709664855" lon="11.897907094875322"><ele>320.5</ele><time>2026-03-29T11:53:28.007Z</time></trkpt><trkpt lat="42.65416491303803" lon="11.897746280019568"><ele>319.0</ele><time>2026-03-29T11:53:29.007Z</time></trkpt><trkpt lat="42.65407185259729" lon="11.897579503549183"><ele>319.0</ele><time>2026-03-29T11:53:30.007Z</time></trkpt><trkpt lat="42.65397740208558" lon="11.897409131237564"><ele>319.0</ele><time>2026-03-29T11:53:31.007Z</time></trkpt><trkpt lat="42.65388530310594" lon="11.897236304631365"><ele>319.0</ele><time>2026-03-29T11:53:32.007Z</time></trkpt><trkpt lat="42.65378817710248" lon="11.89705583635102"><ele>319.0</ele><time>2026-03-29T11:53:33.007Z</time></trkpt><trkpt lat="42.65369071610434" lon="11.896879838812628"><ele>319.0</ele><time>2026-03-29T11:53:34.007Z</time></trkpt><trkpt lat="42.6535906715898" lon="11.896699776160581"><ele>319.0</ele><time>2026-03-29T11:53:35.007Z</time></trkpt><trkpt lat="42.65348963716318" lon="11.8965151244511"><ele>317.0</ele><time>2026-03-29T11:53:36.007Z</time></trkpt><trkpt lat="42.65339092379268" lon="11.896329034282463"><ele>315.0</ele><time>2026-03-29T11:53:37.007Z</time></trkpt><trkpt lat="42.65329381308313" lon="11.896143977499719"><ele>313.0</ele><time>2026-03-29T11:53:38.007Z</time></trkpt><trkpt lat="42.65319607800465" lon="11.895959398612064"><ele>313.0</ele><time>2026-03-29T11:53:39.007Z</time></trkpt><trkpt lat="42.65309713045907" lon="11.895778930393895"><ele>313.0</ele><time>2026-03-29T11:53:40.007Z</time></trkpt><trkpt lat="42.65300063109356" lon="11.895605894905973"><ele>313.0</ele><time>2026-03-29T11:53:41.007Z</time></trkpt><trkpt lat="42.65290731091232" lon="11.8954343497377"><ele>313.0</ele><time>2026-03-29T11:53:42.007Z</time></trkpt><trkpt lat="42.652814182750646" lon="11.895263619266151"><ele>313.0</ele><time>2026-03-29T11:53:43.007Z</time></trkpt><trkpt lat="42.652719971344666" lon="11.895091346264863"><ele>313.0</ele><time>2026-03-29T11:53:44.007Z</time></trkpt><trkpt lat="42.65262338945736" lon="11.894921824884069"><ele>312.3333333333333</ele><time>2026-03-29T11:53:45.007Z</time></trkpt><trkpt lat="42.65252479213177" lon="11.894752464699135"><ele>311.6666666666667</ele><time>2026-03-29T11:53:46.007Z</time></trkpt><trkpt lat="42.65242786151416" lon="11.894583954264087"><ele>311.0</ele><time>2026-03-29T11:53:47.007Z</time></trkpt><trkpt lat="42.652331830451544" lon="11.894418163176962"><ele>311.0</ele><time>2026-03-29T11:53:48.007Z</time></trkpt><trkpt lat="42.65222304242204" lon="11.894266775385798"><ele>311.0</ele><time>2026-03-29T11:53:49.007Z</time></trkpt><trkpt lat="42.65209537724328" lon="11.89414180041413"><ele>311.0</ele><time>2026-03-29T11:53:50.007Z</time></trkpt><trkpt lat="42.65195456987849" lon="11.894040200925213"><ele>311.0</ele><time>2026-03-29T11:53:51.007Z</time></trkpt><trkpt lat="42.651805171485044" lon="11.893965906430257"><ele>311.0</ele><time>2026-03-29T11:53:52.007Z</time></trkpt><trkpt lat="42.65165325052748" lon="11.893919190531367"><ele>311.0</ele><time>2026-03-29T11:53:53.007Z</time></trkpt><trkpt lat="42.651502909142295" lon="11.893885571800482"><ele>311.0</ele><time>2026-03-29T11:53:54.007Z</time></trkpt><trkpt lat="42.65135493786957" lon="11.893851043201426"><ele>311.0</ele><time>2026-03-29T11:53:55.007Z</time></trkpt><trkpt lat="42.65121053246501" lon="11.893810765658554"><ele>311.0</ele><time>2026-03-29T11:53:56.007Z</time></trkpt><trkpt lat="42.65106537732109" lon="11.893781225103831"><ele>311.0</ele><time>2026-03-29T11:53:57.007Z</time></trkpt><trkpt lat="42.65092375078202" lon="11.893746621667793"><ele>310.5</ele><time>2026-03-29T11:53:58.007Z</time></trkpt><trkpt lat="42.6507830030144" lon="11.893713309478125"><ele>310.0</ele><time>2026-03-29T11:53:59.007Z</time></trkpt><trkpt lat="42.650644399197155" lon="11.893677601898352"><ele>309.5</ele><time>2026-03-29T11:54:00.007Z</time></trkpt><trkpt lat="42.650502730025984" lon="11.893639014609871"><ele>309.0</ele><time>2026-03-29T11:54:01.007Z</time></trkpt><trkpt lat="42.650358850657184" lon="11.893589238563607"><ele>308.6666666666667</ele><time>2026-03-29T11:54:02.007Z</time></trkpt><trkpt lat="42.650214793933436" lon="11.893525119041877"><ele>308.33333333333337</ele><time>2026-03-29T11:54:03.007Z</time></trkpt><trkpt lat="42.650073936869774" lon="11.893434515886916"><ele>308.0</ele><time>2026-03-29T11:54:04.007Z</time></trkpt><trkpt lat="42.64993203440718" lon="11.893322394750099"><ele>308.6666666666667</ele><time>2026-03-29T11:54:05.007Z</time></trkpt><trkpt lat="42.6497953034283" lon="11.893187520539618"><ele>309.3333333333333</ele><time>2026-03-29T11:54:06.007Z</time></trkpt><trkpt lat="42.64967120675273" lon="11.893034905479922"><ele>310.0</ele><time>2026-03-29T11:54:07.007Z</time></trkpt><trkpt lat="42.6495567262078" lon="11.892866992627356"><ele>309.66666666666663</ele><time>2026-03-29T11:54:08.007Z</time></trkpt><trkpt lat="42.649453043705975" lon="11.892684000834544"><ele>309.3333333333333</ele><time>2026-03-29T11:54:09.007Z</time></trkpt><trkpt lat="42.64935962518711" lon="11.892490415956463"><ele>309.0</ele><time>2026-03-29T11:54:10.007Z</time></trkpt><trkpt lat="42.64927317973399" lon="11.89228972025823"><ele>309.0</ele><time>2026-03-29T11:54:11.007Z</time></trkpt><trkpt lat="42.649191257457495" lon="11.892084936095856"><ele>309.0</ele><time>2026-03-29T11:54:12.007Z</time></trkpt><trkpt lat="42.649113038593924" lon="11.89187745686655"><ele>309.0</ele><time>2026-03-29T11:54:13.007Z</time></trkpt><trkpt lat="42.64903354383349" lon="11.891670436001052"><ele>309.6666666666667</ele><time>2026-03-29T11:54:14.007Z</time></trkpt><trkpt lat="42.6489574059117" lon="11.891455375017987"><ele>310.33333333333337</ele><time>2026-03-29T11:54:15.007Z</time></trkpt><trkpt lat="42.6488817388161" lon="11.891239288599445"><ele>311.0</ele><time>2026-03-29T11:54:16.007Z</time></trkpt><trkpt lat="42.64880113879639" lon="11.891028245665364"><ele>311.33333333333337</ele><time>2026-03-29T11:54:17.007Z</time></trkpt><trkpt lat="42.6487208111505" lon="11.890820679244262"><ele>311.6666666666667</ele><time>2026-03-29T11:54:18.006Z</time></trkpt><trkpt lat="42.6486417560034" lon="11.890609477542192"><ele>312.0</ele><time>2026-03-29T11:54:19.006Z</time></trkpt><trkpt lat="42.64856349400092" lon="11.890400338984605"><ele>312.0</ele><time>2026-03-29T11:54:20.006Z</time></trkpt><trkpt lat="42.64848514707766" lon="11.890190823204922"><ele>312.0</ele><time>2026-03-29T11:54:21.006Z</time></trkpt><trkpt lat="42.64840750304818" lon="11.889983187824475"><ele>312.0</ele><time>2026-03-29T11:54:22.006Z</time></trkpt><trkpt lat="42.648330601697744" lon="11.889773143485884"><ele>312.3333333333333</ele><time>2026-03-29T11:54:23.006Z</time></trkpt><trkpt lat="42.64825574146113" lon="11.889560203808324"><ele>312.66666666666663</ele><time>2026-03-29T11:54:24.006Z</time></trkpt><trkpt lat="42.64817931871511" lon="11.889347272671793"><ele>313.0</ele><time>2026-03-29T11:54:25.006Z</time></trkpt><trkpt lat="42.64810149641927" lon="11.88913383717325"><ele>313.3333333333333</ele><time>2026-03-29T11:54:26.006Z</time></trkpt><trkpt lat="42.64802620774382" lon="11.888925906188529"><ele>313.6666666666667</ele><time>2026-03-29T11:54:27.006Z</time></trkpt><trkpt lat="42.647946328782574" lon="11.888716019666273"><ele>314.0</ele><time>2026-03-29T11:54:28.006Z</time></trkpt><trkpt lat="42.64786277433171" lon="11.888511971981167"><ele>314.0</ele><time>2026-03-29T11:54:29.006Z</time></trkpt><trkpt lat="42.64778530818783" lon="11.888308625036979"><ele>314.0</ele><time>2026-03-29T11:54:30.006Z</time></trkpt><trkpt lat="42.64770733724144" lon="11.888103890147004"><ele>314.0</ele><time>2026-03-29T11:54:31.006Z</time></trkpt><trkpt lat="42.647630633376785" lon="11.887908608190582"><ele>314.0</ele><time>2026-03-29T11:54:32.006Z</time></trkpt><trkpt lat="42.64755616856647" lon="11.887710574335195"><ele>314.0</ele><time>2026-03-29T11:54:33.006Z</time></trkpt><trkpt lat="42.64748197066878" lon="11.88751664438158"><ele>314.0</ele><time>2026-03-29T11:54:34.006Z</time></trkpt><trkpt lat="42.64741040986007" lon="11.887321494143535"><ele>316.0</ele><time>2026-03-29T11:54:35.006Z</time></trkpt><trkpt lat="42.64734394600573" lon="11.887128847093587"><ele>318.0</ele><time>2026-03-29T11:54:36.006Z</time></trkpt><trkpt lat="42.64729973225575" lon="11.88691936709443"><ele>320.0</ele><time>2026-03-29T11:54:37.006Z</time></trkpt><trkpt lat="42.647250449664234" lon="11.886711439135812"><ele>321.33333333333337</ele><time>2026-03-29T11:54:38.006Z</time></trkpt><trkpt lat="42.64719242197548" lon="11.886505274115763"><ele>322.6666666666667</ele><time>2026-03-29T11:54:39.006Z</time></trkpt><trkpt lat="42.647148716220954" lon="11.886290001708618"><ele>324.0</ele><time>2026-03-29T11:54:40.006Z</time></trkpt><trkpt lat="42.6471241323779" lon="11.886060367790314"><ele>324.3333333333333</ele><time>2026-03-29T11:54:41.006Z</time></trkpt><trkpt lat="42.64708062370872" lon="11.88584067794432"><ele>324.66666666666663</ele><time>2026-03-29T11:54:42.006Z</time></trkpt><trkpt lat="42.64703789606867" lon="11.885620872716235"><ele>325.0</ele><time>2026-03-29T11:54:43.006Z</time></trkpt><trkpt lat="42.646997897624615" lon="11.885402089835143"><ele>325.0</ele><time>2026-03-29T11:54:44.006Z</time></trkpt><trkpt lat="42.64695207106699" lon="11.885180932669966"><ele>325.0</ele><time>2026-03-29T11:54:45.006Z</time></trkpt><trkpt lat="42.646911594289925" lon="11.884958353764597"><ele>325.0</ele><time>2026-03-29T11:54:46.006Z</time></trkpt><trkpt lat="42.64687048128979" lon="11.884743242701338"><ele>325.0</ele><time>2026-03-29T11:54:47.006Z</time></trkpt><trkpt lat="42.646826160272816" lon="11.88452225895934"><ele>325.0</ele><time>2026-03-29T11:54:48.006Z</time></trkpt><trkpt lat="42.646780135652456" lon="11.884305502793527"><ele>325.0</ele><time>2026-03-29T11:54:49.006Z</time></trkpt><trkpt lat="42.64672496462923" lon="11.884090652911057"><ele>326.0</ele><time>2026-03-29T11:54:50.006Z</time></trkpt><trkpt lat="42.646658169576014" lon="11.883881440349104"><ele>327.0</ele><time>2026-03-29T11:54:51.006Z</time></trkpt><trkpt lat="42.64658112438501" lon="11.883680789089384"><ele>328.0</ele><time>2026-03-29T11:54:52.006Z</time></trkpt><trkpt lat="42.646498970495834" lon="11.883483433963246"><ele>329.3333333333333</ele><time>2026-03-29T11:54:53.006Z</time></trkpt><trkpt lat="42.64641822513912" lon="11.883285643001647"><ele>330.6666666666667</ele><time>2026-03-29T11:54:54.006Z</time></trkpt><trkpt lat="42.64633479820349" lon="11.88308536839939"><ele>332.0</ele><time>2026-03-29T11:54:55.006Z</time></trkpt><trkpt lat="42.64625001248666" lon="11.882889851765489"><ele>332.0</ele><time>2026-03-29T11:54:56.006Z</time></trkpt><trkpt lat="42.646167957409375" lon="11.882695948659883"><ele>332.0</ele><time>2026-03-29T11:54:57.006Z</time></trkpt><trkpt lat="42.64608823920484" lon="11.882498077880498"><ele>332.0</ele><time>2026-03-29T11:54:58.006Z</time></trkpt><trkpt lat="42.646002515580484" lon="11.882298160179225"><ele>332.6666666666667</ele><time>2026-03-29T11:54:59.006Z</time></trkpt><trkpt lat="42.64591834484354" lon="11.882097512560227"><ele>333.3333333333333</ele><time>2026-03-29T11:55:00.006Z</time></trkpt><trkpt lat="42.645838706302435" lon="11.8818898142904"><ele>334.0</ele><time>2026-03-29T11:55:01.006Z</time></trkpt><trkpt lat="42.64575994940743" lon="11.88168869108308"><ele>336.0</ele><time>2026-03-29T11:55:02.006Z</time></trkpt><trkpt lat="42.64567584545411" lon="11.881483418429495"><ele>338.0</ele><time>2026-03-29T11:55:03.006Z</time></trkpt><trkpt lat="42.645590579680245" lon="11.88128481573899"><ele>340.0</ele><time>2026-03-29T11:55:04.006Z</time></trkpt><trkpt lat="42.64550317803386" lon="11.881086791377859"><ele>339.66666666666663</ele><time>2026-03-29T11:55:05.006Z</time></trkpt><trkpt lat="42.645420846141455" lon="11.880883593238128"><ele>339.3333333333333</ele><time>2026-03-29T11:55:06.006Z</time></trkpt><trkpt lat="42.64535554540144" lon="11.88066723184479"><ele>339.0</ele><time>2026-03-29T11:55:07.006Z</time></trkpt><trkpt lat="42.645278005113454" lon="11.880461804364321"><ele>339.0</ele><time>2026-03-29T11:55:08.006Z</time></trkpt><trkpt lat="42.64519474320814" lon="11.880263102260333"><ele>339.0</ele><time>2026-03-29T11:55:09.006Z</time></trkpt><trkpt lat="42.645114410009214" lon="11.880064366045945"><ele>339.0</ele><time>2026-03-29T11:55:10.006Z</time></trkpt><trkpt lat="42.645027189007244" lon="11.879871680664161"><ele>341.3333333333333</ele><time>2026-03-29T11:55:11.006Z</time></trkpt><trkpt lat="42.64495259762212" lon="11.879668615822359"><ele>343.66666666666663</ele><time>2026-03-29T11:55:12.006Z</time></trkpt><trkpt lat="42.64487602986676" lon="11.87947449589145"><ele>346.0</ele><time>2026-03-29T11:55:13.006Z</time></trkpt><trkpt lat="42.644799195576184" lon="11.879288564003286"><ele>347.5</ele><time>2026-03-29T11:55:14.006Z</time></trkpt><trkpt lat="42.64472732313591" lon="11.879111100527227"><ele>349.0</ele><time>2026-03-29T11:55:15.006Z</time></trkpt><trkpt lat="42.64465946188727" lon="11.878935300841647"><ele>350.5</ele><time>2026-03-29T11:55:16.006Z</time></trkpt><trkpt lat="42.64458955992907" lon="11.87875783122575"><ele>352.0</ele><time>2026-03-29T11:55:17.006Z</time></trkpt><trkpt lat="42.64452547312451" lon="11.878575297925227"><ele>353.75</ele><time>2026-03-29T11:55:18.006Z</time></trkpt><trkpt lat="42.64447993950016" lon="11.878379502340524"><ele>355.5</ele><time>2026-03-29T11:55:19.008Z</time></trkpt><trkpt lat="42.64447189399765" lon="11.878192624164535"><ele>357.25</ele><time>2026-03-29T11:55:20.007Z</time></trkpt><trkpt lat="42.64447853368116" lon="11.877987696552212"><ele>359.0</ele><time>2026-03-29T11:55:21.007Z</time></trkpt><trkpt lat="42.644489627463166" lon="11.8777851991358"><ele>361.6666666666667</ele><time>2026-03-29T11:55:22.007Z</time></trkpt><trkpt lat="42.644498574096225" lon="11.87757225878276"><ele>364.3333333333333</ele><time>2026-03-29T11:55:23.007Z</time></trkpt><trkpt lat="42.64450342910233" lon="11.877346366720442"><ele>367.0</ele><time>2026-03-29T11:55:24.007Z</time></trkpt><trkpt lat="42.64450183021074" lon="11.877133283939228"><ele>367.0</ele><time>2026-03-29T11:55:25.007Z</time></trkpt><trkpt lat="42.64450237266741" lon="11.876915932847908"><ele>367.0</ele><time>2026-03-29T11:55:26.008Z</time></trkpt><trkpt lat="42.644520260382095" lon="11.876699755921182"><ele>367.0</ele><time>2026-03-29T11:55:27.008Z</time></trkpt><trkpt lat="42.644553527411766" lon="11.876484576370986"><ele>368.66666666666663</ele><time>2026-03-29T11:55:28.008Z</time></trkpt><trkpt lat="42.64458517983202" lon="11.87626460449186"><ele>370.3333333333333</ele><time>2026-03-29T11:55:29.008Z</time></trkpt><trkpt lat="42.644633476749505" lon="11.876049418375638"><ele>372.0</ele><time>2026-03-29T11:55:30.008Z</time></trkpt><trkpt lat="42.64465542875081" lon="11.875826945999394"><ele>373.3333333333333</ele><time>2026-03-29T11:55:31.008Z</time></trkpt><trkpt lat="42.6446661529364" lon="11.875598908470453"><ele>374.66666666666663</ele><time>2026-03-29T11:55:32.008Z</time></trkpt><trkpt lat="42.64467865783954" lon="11.87538423155698"><ele>376.0</ele><time>2026-03-29T11:55:33.008Z</time></trkpt><trkpt lat="42.64468675529123" lon="11.875167653955815"><ele>376.3333333333333</ele><time>2026-03-29T11:55:34.008Z</time></trkpt><trkpt lat="42.64469809040231" lon="11.874949406383493"><ele>376.6666666666667</ele><time>2026-03-29T11:55:35.008Z</time></trkpt><trkpt lat="42.64472146799193" lon="11.874728127389103"><ele>377.0</ele><time>2026-03-29T11:55:36.008Z</time></trkpt><trkpt lat="42.64475083163801" lon="11.87451289886833"><ele>377.0</ele><time>2026-03-29T11:55:37.008Z</time></trkpt><trkpt lat="42.64478240580777" lon="11.874315134563616"><ele>377.0</ele><time>2026-03-29T11:55:38.008Z</time></trkpt><trkpt lat="42.64481372814247" lon="11.874129222937492"><ele>377.0</ele><time>2026-03-29T11:55:39.008Z</time></trkpt><trkpt lat="42.64484682163301" lon="11.873954073346493"><ele>377.0</ele><time>2026-03-29T11:55:40.008Z</time></trkpt><trkpt lat="42.64487605201796" lon="11.873801480841646"><ele>376.5</ele><time>2026-03-29T11:55:41.008Z</time></trkpt><trkpt lat="42.644899246895825" lon="11.873667183096392"><ele>376.0</ele><time>2026-03-29T11:55:42.008Z</time></trkpt><trkpt lat="42.644917953187196" lon="11.873544883946673"><ele>375.5</ele><time>2026-03-29T11:55:43.008Z</time></trkpt><trkpt lat="42.64493343440059" lon="11.873433877373468"><ele>375.0</ele><time>2026-03-29T11:55:44.008Z</time></trkpt><trkpt lat="42.6449523730287" lon="11.873337174186348"><ele>374.5</ele><time>2026-03-29T11:55:45.008Z</time></trkpt><trkpt lat="42.64496851423876" lon="11.87323830977902"><ele>374.0</ele><time>2026-03-29T11:55:47.008Z</time></trkpt><trkpt lat="42.6449654991871" lon="11.873077273327402"><ele>374.0</ele><time>2026-03-29T11:58:36.007Z</time></trkpt><trkpt lat="42.64495722227697" lon="11.872968068682649"><ele>374.0</ele><time>2026-03-29T11:58:37.007Z</time></trkpt><trkpt lat="42.64496277604032" lon="11.872830865153574"><ele>374.0</ele><time>2026-03-29T11:58:38.007Z</time></trkpt><trkpt lat="42.64496977203874" lon="11.872704728392154"><ele>374.0</ele><time>2026-03-29T11:58:39.007Z</time></trkpt><trkpt lat="42.644980406483946" lon="11.8725770902596"><ele>374.0</ele><time>2026-03-29T11:58:40.007Z</time></trkpt><trkpt lat="42.645008721796046" lon="11.872438263155026"><ele>376.25</ele><time>2026-03-29T11:58:41.007Z</time></trkpt><trkpt lat="42.64501894055378" lon="11.87229903535771"><ele>378.5</ele><time>2026-03-29T11:58:42.007Z</time></trkpt><trkpt lat="42.64503300762377" lon="11.872142540062923"><ele>380.75</ele><time>2026-03-29T11:58:43.007Z</time></trkpt><trkpt lat="42.64505096836578" lon="11.871964224129304"><ele>383.0</ele><time>2026-03-29T11:58:44.007Z</time></trkpt><trkpt lat="42.645067667570885" lon="11.87177926243519"><ele>383.79999999999995</ele><time>2026-03-29T11:58:45.007Z</time></trkpt><trkpt lat="42.64507558007382" lon="11.871610932421847"><ele>384.6</ele><time>2026-03-29T11:58:46.007Z</time></trkpt><trkpt lat="42.6450795864765" lon="11.871449056943206"><ele>385.4</ele><time>2026-03-29T11:58:47.007Z</time></trkpt><trkpt lat="42.64508771804018" lon="11.871307418267723"><ele>386.20000000000005</ele><time>2026-03-29T11:58:48.007Z</time></trkpt><trkpt lat="42.64510286504566" lon="11.871199505236165"><ele>387.0</ele><time>2026-03-29T11:58:49.007Z</time></trkpt><trkpt lat="42.645099848494326" lon="11.871071918258965"><ele>388.40000000000003</ele><time>2026-03-29T11:58:50.007Z</time></trkpt><trkpt lat="42.64509144906486" lon="11.87093053055999"><ele>389.8</ele><time>2026-03-29T11:58:51.007Z</time></trkpt><trkpt lat="42.64506976460861" lon="11.870791927832048"><ele>391.2</ele><time>2026-03-29T11:58:52.007Z</time></trkpt><trkpt lat="42.64503967507946" lon="11.87066887248248"><ele>392.6</ele><time>2026-03-29T11:58:53.007Z</time></trkpt><trkpt lat="42.64502877257127" lon="11.87051732893364"><ele>394.0</ele><time>2026-03-29T11:58:54.007Z</time></trkpt><trkpt lat="42.645039477937665" lon="11.870357204982904"><ele>394.0</ele><time>2026-03-29T11:58:55.007Z</time></trkpt><trkpt lat="42.645082192203084" lon="11.870198223525366"><ele>394.0</ele><time>2026-03-29T11:58:56.007Z</time></trkpt><trkpt lat="42.64514144136821" lon="11.870049110647301"><ele>394.0</ele><time>2026-03-29T11:58:57.007Z</time></trkpt><trkpt lat="42.64523248403152" lon="11.869887473985983"><ele>394.0</ele><time>2026-03-29T11:58:58.007Z</time></trkpt><trkpt lat="42.645335527772545" lon="11.869728288392297"><ele>396.33333333333337</ele><time>2026-03-29T11:58:59.007Z</time></trkpt><trkpt lat="42.645436540866584" lon="11.869541212010155"><ele>398.66666666666663</ele><time>2026-03-29T11:59:00.007Z</time></trkpt><trkpt lat="42.645536472811145" lon="11.869339151510049"><ele>401.0</ele><time>2026-03-29T11:59:01.007Z</time></trkpt><trkpt lat="42.6456309492979" lon="11.86916321092461"><ele>401.0</ele><time>2026-03-29T11:59:02.007Z</time></trkpt><trkpt lat="42.64572963852612" lon="11.869012614165483"><ele>401.0</ele><time>2026-03-29T11:59:03.007Z</time></trkpt><trkpt lat="42.64581800556256" lon="11.868851917412547"><ele>401.0</ele><time>2026-03-29T11:59:04.007Z</time></trkpt><trkpt lat="42.64588725219841" lon="11.868602863813566"><ele>402.0</ele><time>2026-03-29T11:59:05.007Z</time></trkpt><trkpt lat="42.64592885274447" lon="11.86830438856353"><ele>403.0</ele><time>2026-03-29T11:59:06.007Z</time></trkpt><trkpt lat="42.6458995275869" lon="11.86800298020984"><ele>404.0</ele><time>2026-03-29T11:59:07.007Z</time></trkpt><trkpt lat="42.64582928916776" lon="11.867787617337443"><ele>405.75</ele><time>2026-03-29T11:59:08.007Z</time></trkpt><trkpt lat="42.64576328908116" lon="11.867597630608767"><ele>407.5</ele><time>2026-03-29T11:59:09.007Z</time></trkpt><trkpt lat="42.645702082391104" lon="11.867419554913443"><ele>409.25</ele><time>2026-03-29T11:59:10.007Z</time></trkpt><trkpt lat="42.64564347359839" lon="11.8672490373267"><ele>411.0</ele><time>2026-03-29T11:59:11.007Z</time></trkpt><trkpt lat="42.64558197303823" lon="11.867060938327048"><ele>411.0</ele><time>2026-03-29T11:59:12.007Z</time></trkpt><trkpt lat="42.64552992196861" lon="11.866890966938753"><ele>411.0</ele><time>2026-03-29T11:59:13.007Z</time></trkpt><trkpt lat="42.6454944015536" lon="11.866759579057511"><ele>411.0</ele><time>2026-03-29T11:59:14.007Z</time></trkpt><trkpt lat="42.645463412376266" lon="11.866627908863448"><ele>411.0</ele><time>2026-03-29T11:59:15.007Z</time></trkpt><trkpt lat="42.64544190221481" lon="11.866508353543407"><ele>411.0</ele><time>2026-03-29T11:59:16.007Z</time></trkpt><trkpt lat="42.6454240707002" lon="11.8663541984699"><ele>412.25</ele><time>2026-03-29T11:59:17.007Z</time></trkpt><trkpt lat="42.645424117427176" lon="11.866173907259782"><ele>413.5</ele><time>2026-03-29T11:59:18.007Z</time></trkpt><trkpt lat="42.64543941436023" lon="11.865992416206604"><ele>414.75</ele><time>2026-03-29T11:59:19.007Z</time></trkpt><trkpt lat="42.64547124501709" lon="11.865778230655865"><ele>416.0</ele><time>2026-03-29T11:59:20.007Z</time></trkpt><trkpt lat="42.64550132246051" lon="11.865553647075926"><ele>418.3333333333333</ele><time>2026-03-29T11:59:21.006Z</time></trkpt><trkpt lat="42.645526067876006" lon="11.865329291952872"><ele>420.66666666666663</ele><time>2026-03-29T11:59:22.006Z</time></trkpt><trkpt lat="42.6455427019504" lon="11.86509834327809"><ele>423.0</ele><time>2026-03-29T11:59:23.006Z</time></trkpt><trkpt lat="42.64553475516151" lon="11.864856388317884"><ele>425.66666666666663</ele><time>2026-03-29T11:59:24.006Z</time></trkpt><trkpt lat="42.64552318763768" lon="11.864618432734096"><ele>428.3333333333333</ele><time>2026-03-29T11:59:25.006Z</time></trkpt><trkpt lat="42.645525499298536" lon="11.864380648008495"><ele>431.0</ele><time>2026-03-29T11:59:26.006Z</time></trkpt><trkpt lat="42.645506650708974" lon="11.86413827844226"><ele>432.66666666666663</ele><time>2026-03-29T11:59:27.006Z</time></trkpt><trkpt lat="42.64548314795712" lon="11.863902457555724"><ele>434.33333333333337</ele><time>2026-03-29T11:59:28.006Z</time></trkpt><trkpt lat="42.645470778529955" lon="11.863666999346764"><ele>436.0</ele><time>2026-03-29T11:59:29.006Z</time></trkpt><trkpt lat="42.645468384178976" lon="11.863432266221423"><ele>437.0</ele><time>2026-03-29T11:59:30.006Z</time></trkpt><trkpt lat="42.645468384171906" lon="11.863225881691573"><ele>438.0</ele><time>2026-03-29T11:59:31.009Z</time></trkpt><trkpt lat="42.64546141308232" lon="11.863104366951609"><ele>439.0</ele><time>2026-03-29T11:59:32.009Z</time></trkpt><trkpt lat="42.645453544754595" lon="11.863004324355387"><ele>440.0</ele><time>2026-03-29T11:59:33.009Z</time></trkpt><trkpt lat="42.645439606907" lon="11.862882697875248"><ele>441.0</ele><time>2026-03-29T11:59:34.009Z</time></trkpt><trkpt lat="42.64542020903851" lon="11.862778851429873"><ele>441.0</ele><time>2026-03-29T11:59:35.009Z</time></trkpt><trkpt lat="42.64539310005433" lon="11.862653022843116"><ele>441.0</ele><time>2026-03-29T11:59:36.009Z</time></trkpt><trkpt lat="42.64536648947973" lon="11.862518334178748"><ele>441.0</ele><time>2026-03-29T11:59:37.009Z</time></trkpt><trkpt lat="42.64534181156123" lon="11.86236244919885"><ele>441.0</ele><time>2026-03-29T11:59:38.009Z</time></trkpt><trkpt lat="42.64532175284422" lon="11.86217945123246"><ele>441.25</ele><time>2026-03-29T11:59:39.009Z</time></trkpt><trkpt lat="42.64530867171459" lon="11.862001318256864"><ele>441.5</ele><time>2026-03-29T11:59:40.009Z</time></trkpt><trkpt lat="42.64529664899058" lon="11.861794853516939"><ele>441.75</ele><time>2026-03-29T11:59:41.009Z</time></trkpt><trkpt lat="42.6452841572281" lon="11.861581766122956"><ele>442.0</ele><time>2026-03-29T11:59:42.009Z</time></trkpt><trkpt lat="42.64527088443108" lon="11.861371004368154"><ele>437.0</ele><time>2026-03-29T11:59:43.01Z</time></trkpt><trkpt lat="42.64526078452362" lon="11.861190748744885"><ele>432.0</ele><time>2026-03-29T11:59:44.009Z</time></trkpt><trkpt lat="42.64525380751152" lon="11.861022144608421"><ele>427.0</ele><time>2026-03-29T11:59:45.009Z</time></trkpt><trkpt lat="42.645242902810786" lon="11.860835506002973"><ele>422.0</ele><time>2026-03-29T11:59:46.009Z</time></trkpt><trkpt lat="42.64524917824431" lon="11.86061468338117"><ele>422.3333333333333</ele><time>2026-03-29T11:59:47.009Z</time></trkpt><trkpt lat="42.64526374361743" lon="11.860373767471085"><ele>422.66666666666663</ele><time>2026-03-29T11:59:48.009Z</time></trkpt><trkpt lat="42.6452737355603" lon="11.860104358270082"><ele>423.0</ele><time>2026-03-29T11:59:49.009Z</time></trkpt><trkpt lat="42.645283009276675" lon="11.859882094261636"><ele>423.0</ele><time>2026-03-29T11:59:50.009Z</time></trkpt><trkpt lat="42.64529106770319" lon="11.85968794048642"><ele>423.0</ele><time>2026-03-29T11:59:51.009Z</time></trkpt><trkpt lat="42.645302072384624" lon="11.85951008229288"><ele>423.0</ele><time>2026-03-29T11:59:52.009Z</time></trkpt><trkpt lat="42.645312311104284" lon="11.85934827314781"><ele>423.0</ele><time>2026-03-29T11:59:53.009Z</time></trkpt><trkpt lat="42.64530828119665" lon="11.859194525457685"><ele>424.79999999999995</ele><time>2026-03-29T11:59:54.009Z</time></trkpt><trkpt lat="42.645289052553295" lon="11.859056720480575"><ele>426.6</ele><time>2026-03-29T11:59:55.009Z</time></trkpt><trkpt lat="42.645237700751316" lon="11.85893328416924"><ele>428.40000000000003</ele><time>2026-03-29T11:59:56.009Z</time></trkpt><trkpt lat="42.64520899357437" lon="11.858793371798516"><ele>430.20000000000005</ele><time>2026-03-29T11:59:57.009Z</time></trkpt><trkpt lat="42.6451680332196" lon="11.85864463347933"><ele>432.0</ele><time>2026-03-29T11:59:58.009Z</time></trkpt><trkpt lat="42.64514212111091" lon="11.858498853331685"><ele>435.0</ele><time>2026-03-29T11:59:59.009Z</time></trkpt><trkpt lat="42.64513121821901" lon="11.858334960532634"><ele>438.0</ele><time>2026-03-29T12:00:00.009Z</time></trkpt><trkpt lat="42.645124132641776" lon="11.858145843586216"><ele>441.0</ele><time>2026-03-29T12:00:01.009Z</time></trkpt><trkpt lat="42.64512499311859" lon="11.857953992068012"><ele>444.0</ele><time>2026-03-29T12:00:02.009Z</time></trkpt><trkpt lat="42.6451348816375" lon="11.857803162572566"><ele>444.0</ele><time>2026-03-29T12:00:03.009Z</time></trkpt><trkpt lat="42.645149208845545" lon="11.857663390830991"><ele>444.0</ele><time>2026-03-29T12:00:04.009Z</time></trkpt><trkpt lat="42.645181403694004" lon="11.857512390559046"><ele>444.0</ele><time>2026-03-29T12:00:05.009Z</time></trkpt><trkpt lat="42.645226048152" lon="11.857359010306117"><ele>444.0</ele><time>2026-03-29T12:00:06.009Z</time></trkpt><trkpt lat="42.64524584301748" lon="11.857191663241668"><ele>445.25</ele><time>2026-03-29T12:00:07.009Z</time></trkpt><trkpt lat="42.645239066084564" lon="11.856987853765467"><ele>446.5</ele><time>2026-03-29T12:00:09.008Z</time></trkpt><trkpt lat="42.645215609053054" lon="11.856850059451876"><ele>447.75</ele><time>2026-03-29T12:00:10.008Z</time></trkpt><trkpt lat="42.64516436429815" lon="11.856719928424734"><ele>449.0</ele><time>2026-03-29T12:00:11.008Z</time></trkpt><trkpt lat="42.645093773826275" lon="11.856608961636564"><ele>450.25</ele><time>2026-03-29T12:00:12.008Z</time></trkpt><trkpt lat="42.64503088442315" lon="11.856468781803398"><ele>451.5</ele><time>2026-03-29T12:00:13.008Z</time></trkpt><trkpt lat="42.64496327050762" lon="11.856313613811844"><ele>452.75</ele><time>2026-03-29T12:00:14.008Z</time></trkpt><trkpt lat="42.64488535258856" lon="11.856158912672958"><ele>454.0</ele><time>2026-03-29T12:00:15.008Z</time></trkpt><trkpt lat="42.644808867334554" lon="11.856003955618576"><ele>455.75</ele><time>2026-03-29T12:00:16.008Z</time></trkpt><trkpt lat="42.644734874031464" lon="11.855854262192734"><ele>457.5</ele><time>2026-03-29T12:00:17.008Z</time></trkpt><trkpt lat="42.64466059892687" lon="11.855704524656481"><ele>459.25</ele><time>2026-03-29T12:00:18.008Z</time></trkpt><trkpt lat="42.64458892161934" lon="11.855561550092089"><ele>461.0</ele><time>2026-03-29T12:00:19.008Z</time></trkpt><trkpt lat="42.64451445930801" lon="11.855433519382808"><ele>461.5</ele><time>2026-03-29T12:00:20.008Z</time></trkpt><trkpt lat="42.644424685677954" lon="11.855313703410314"><ele>462.0</ele><time>2026-03-29T12:00:21.008Z</time></trkpt><trkpt lat="42.6443320384914" lon="11.855216296228953"><ele>462.5</ele><time>2026-03-29T12:00:22.008Z</time></trkpt><trkpt lat="42.644240703662526" lon="11.855154534074059"><ele>463.0</ele><time>2026-03-29T12:00:23.008Z</time></trkpt><trkpt lat="42.64413034682759" lon="11.855162300469054"><ele>463.00000000000006</ele><time>2026-03-29T12:00:24.008Z</time></trkpt><trkpt lat="42.64403495854772" lon="11.85516343428913"><ele>463.0</ele><time>2026-03-29T12:00:25.008Z</time></trkpt><trkpt lat="42.643962853617694" lon="11.855143711000729"><ele>463.0</ele><time>2026-03-29T12:00:26.008Z</time></trkpt><trkpt lat="42.643896136960976" lon="11.855129293041696"><ele>463.0</ele><time>2026-03-29T12:00:27.008Z</time></trkpt><trkpt lat="42.643815350442004" lon="11.855106131540934"><ele>463.00000000000006</ele><time>2026-03-29T12:00:29.008Z</time></trkpt><trkpt lat="42.6438577616727" lon="11.854984412952255"><ele>463.0</ele><time>2026-03-29T12:00:31.008Z</time></trkpt><trkpt lat="42.64386103040727" lon="11.854814979701791"><ele>463.25</ele><time>2026-03-29T12:00:32.008Z</time></trkpt><trkpt lat="42.64386331629995" lon="11.854640439762239"><ele>463.5</ele><time>2026-03-29T12:00:33.008Z</time></trkpt><trkpt lat="42.64387236343491" lon="11.854478075099182"><ele>463.75</ele><time>2026-03-29T12:00:34.008Z</time></trkpt><trkpt lat="42.64387352723565" lon="11.854302615658282"><ele>464.0</ele><time>2026-03-29T12:00:35.008Z</time></trkpt><trkpt lat="42.6438905525732" lon="11.854117691350607"><ele>464.0</ele><time>2026-03-29T12:00:36.008Z</time></trkpt><trkpt lat="42.64388260762035" lon="11.853927886936546"><ele>464.0</ele><time>2026-03-29T12:00:37.008Z</time></trkpt><trkpt lat="42.643876233877364" lon="11.853745450198272"><ele>464.0</ele><time>2026-03-29T12:00:38.008Z</time></trkpt><trkpt lat="42.64386970338712" lon="11.853558526839997"><ele>464.0</ele><time>2026-03-29T12:00:39.008Z</time></trkpt><trkpt lat="42.64386291927056" lon="11.853364343849691"><ele>466.66666666666663</ele><time>2026-03-29T12:00:40.008Z</time></trkpt><trkpt lat="42.64385538651923" lon="11.853148731511771"><ele>469.33333333333337</ele><time>2026-03-29T12:00:41.008Z</time></trkpt><trkpt lat="42.643816418886274" lon="11.85292296779029"><ele>472.0</ele><time>2026-03-29T12:00:42.008Z</time></trkpt><trkpt lat="42.643812839686525" lon="11.852688322722583"><ele>474.0</ele><time>2026-03-29T12:00:43.008Z</time></trkpt><trkpt lat="42.643817059809926" lon="11.852472183109011"><ele>476.0</ele><time>2026-03-29T12:00:44.008Z</time></trkpt><trkpt lat="42.64382519089144" lon="11.852313690637901"><ele>478.0</ele><time>2026-03-29T12:00:45.008Z</time></trkpt><trkpt lat="42.64382310826836" lon="11.85218291412511"><ele>480.0</ele><time>2026-03-29T12:00:46.008Z</time></trkpt><trkpt lat="42.64381754887758" lon="11.85206812432354"><ele>480.0</ele><time>2026-03-29T12:00:47.008Z</time></trkpt><trkpt lat="42.643815609267676" lon="11.851956134702272"><ele>480.0</ele><time>2026-03-29T12:00:48.008Z</time></trkpt><trkpt lat="42.64381325011062" lon="11.851854610984972"><ele>480.0</ele><time>2026-03-29T12:00:49.008Z</time></trkpt><trkpt lat="42.643809155541376" lon="11.851762498697596"><ele>480.0</ele><time>2026-03-29T12:00:50.008Z</time></trkpt><trkpt lat="42.6438086312564" lon="11.851642495976922"><ele>480.0</ele><time>2026-03-29T12:00:51.008Z</time></trkpt><trkpt lat="42.643811029544885" lon="11.851481822627076"><ele>480.0</ele><time>2026-03-29T12:00:52.008Z</time></trkpt><trkpt lat="42.64381947196862" lon="11.851289391189363"><ele>481.33333333333337</ele><time>2026-03-29T12:00:53.008Z</time></trkpt><trkpt lat="42.64382077434064" lon="11.85105225185414"><ele>482.6666666666667</ele><time>2026-03-29T12:00:54.008Z</time></trkpt><trkpt lat="42.64381832869416" lon="11.850796912906619"><ele>484.0</ele><time>2026-03-29T12:00:55.008Z</time></trkpt><trkpt lat="42.643818228358036" lon="11.850596488972933"><ele>485.0</ele><time>2026-03-29T12:00:56.008Z</time></trkpt><trkpt lat="42.643819915915714" lon="11.85042815954399"><ele>486.0</ele><time>2026-03-29T12:00:57.008Z</time></trkpt><trkpt lat="42.64385208632804" lon="11.850259299813253"><ele>487.0</ele><time>2026-03-29T12:00:58.008Z</time></trkpt><trkpt lat="42.64384982070047" lon="11.850124768607495"><ele>488.0</ele><time>2026-03-29T12:00:59.008Z</time></trkpt><trkpt lat="42.64386036634579" lon="11.84999080380966"><ele>489.25</ele><time>2026-03-29T12:01:00.008Z</time></trkpt><trkpt lat="42.643887253638184" lon="11.849847584452421"><ele>490.5</ele><time>2026-03-29T12:01:01.008Z</time></trkpt><trkpt lat="42.64390997261338" lon="11.849692041210263"><ele>491.75</ele><time>2026-03-29T12:01:02.008Z</time></trkpt><trkpt lat="42.64394031570086" lon="11.849520595826391"><ele>493.0</ele><time>2026-03-29T12:01:03.008Z</time></trkpt><trkpt lat="42.64397956646033" lon="11.849351298604512"><ele>493.5</ele><time>2026-03-29T12:01:04.008Z</time></trkpt><trkpt lat="42.64403062191106" lon="11.849175320846907"><ele>494.0</ele><time>2026-03-29T12:01:05.008Z</time></trkpt><trkpt lat="42.644075673189874" lon="11.848981343965773"><ele>494.5</ele><time>2026-03-29T12:01:06.008Z</time></trkpt><trkpt lat="42.6441182379832" lon="11.84879324858703"><ele>495.0</ele><time>2026-03-29T12:01:07.008Z</time></trkpt><trkpt lat="42.644145081987176" lon="11.848595404708673"><ele>496.66666666666663</ele><time>2026-03-29T12:01:08.008Z</time></trkpt><trkpt lat="42.644163442164015" lon="11.84838198202523"><ele>498.3333333333333</ele><time>2026-03-29T12:01:09.008Z</time></trkpt><trkpt lat="42.644179833060385" lon="11.848169357184798"><ele>500.0</ele><time>2026-03-29T12:01:10.008Z</time></trkpt><trkpt lat="42.6442035865654" lon="11.847966284379714"><ele>500.0</ele><time>2026-03-29T12:01:11.008Z</time></trkpt><trkpt lat="42.644233462116105" lon="11.847762314002212"><ele>500.0</ele><time>2026-03-29T12:01:12.008Z</time></trkpt><trkpt lat="42.644266142931706" lon="11.847558923528021"><ele>500.0</ele><time>2026-03-29T12:01:13.008Z</time></trkpt><trkpt lat="42.64430120454869" lon="11.847347119567464"><ele>500.66666666666663</ele><time>2026-03-29T12:01:14.008Z</time></trkpt><trkpt lat="42.64435134640154" lon="11.847134701419883"><ele>501.33333333333337</ele><time>2026-03-29T12:01:15.008Z</time></trkpt><trkpt lat="42.64440791523052" lon="11.846921320962448"><ele>502.0</ele><time>2026-03-29T12:01:16.007Z</time></trkpt><trkpt lat="42.64447921953844" lon="11.846713263000982"><ele>506.0</ele><time>2026-03-29T12:01:17.007Z</time></trkpt><trkpt lat="42.644564612461615" lon="11.846508981707254"><ele>510.0</ele><time>2026-03-29T12:01:18.007Z</time></trkpt><trkpt lat="42.64464791176797" lon="11.8463000698848"><ele>514.0</ele><time>2026-03-29T12:01:19.007Z</time></trkpt><trkpt lat="42.64473867788956" lon="11.846127355635039"><ele>512.75</ele><time>2026-03-29T12:01:20.007Z</time></trkpt><trkpt lat="42.64479660412273" lon="11.845955507920547"><ele>511.5</ele><time>2026-03-29T12:01:21.007Z</time></trkpt><trkpt lat="42.644818984634036" lon="11.845792081768199"><ele>510.25</ele><time>2026-03-29T12:01:22.007Z</time></trkpt><trkpt lat="42.64484214668735" lon="11.845619556098567"><ele>509.0</ele><time>2026-03-29T12:01:23.007Z</time></trkpt><trkpt lat="42.644785095044725" lon="11.845450068354909"><ele>509.0</ele><time>2026-03-29T12:01:24.007Z</time></trkpt><trkpt lat="42.64472208121219" lon="11.84530456557086"><ele>509.0</ele><time>2026-03-29T12:01:25.007Z</time></trkpt><trkpt lat="42.6446338868591" lon="11.845146749675985"><ele>509.0</ele><time>2026-03-29T12:01:26.007Z</time></trkpt><trkpt lat="42.64455079818834" lon="11.84496971197427"><ele>509.0</ele><time>2026-03-29T12:01:27.007Z</time></trkpt><trkpt lat="42.64447676220113" lon="11.844773136855103"><ele>509.3333333333333</ele><time>2026-03-29T12:01:28.007Z</time></trkpt><trkpt lat="42.64437805794358" lon="11.84458896621454"><ele>509.66666666666663</ele><time>2026-03-29T12:01:29.007Z</time></trkpt><trkpt lat="42.644266633596295" lon="11.84443246650189"><ele>510.0</ele><time>2026-03-29T12:01:30.007Z</time></trkpt><trkpt lat="42.644127415618435" lon="11.844293179597447"><ele>511.33333333333337</ele><time>2026-03-29T12:01:31.007Z</time></trkpt><trkpt lat="42.643976852274726" lon="11.844171028141227"><ele>512.6666666666667</ele><time>2026-03-29T12:01:32.007Z</time></trkpt><trkpt lat="42.64383183002445" lon="11.844054086930438"><ele>514.0</ele><time>2026-03-29T12:01:33.007Z</time></trkpt><trkpt lat="42.643699092904924" lon="11.843921882554923"><ele>515.3333333333334</ele><time>2026-03-29T12:01:34.007Z</time></trkpt><trkpt lat="42.64358122646403" lon="11.843784197741874"><ele>516.6666666666666</ele><time>2026-03-29T12:01:35.007Z</time></trkpt><trkpt lat="42.64349195124471" lon="11.84363054561402"><ele>518.0</ele><time>2026-03-29T12:01:36.007Z</time></trkpt><trkpt lat="42.64340452418911" lon="11.843453846921982"><ele>518.3333333333333</ele><time>2026-03-29T12:01:37.01Z</time></trkpt><trkpt lat="42.6433196287604" lon="11.843259872250117"><ele>518.6666666666666</ele><time>2026-03-29T12:01:38.01Z</time></trkpt><trkpt lat="42.643280963907394" lon="11.843045792337373"><ele>519.0</ele><time>2026-03-29T12:01:39.01Z</time></trkpt><trkpt lat="42.64324341170509" lon="11.842834709752807"><ele>521.3333333333334</ele><time>2026-03-29T12:01:40.01Z</time></trkpt><trkpt lat="42.64318977873676" lon="11.842592001827356"><ele>523.6666666666667</ele><time>2026-03-29T12:01:41.01Z</time></trkpt><trkpt lat="42.643164254856536" lon="11.842322657433636"><ele>526.0</ele><time>2026-03-29T12:01:42.01Z</time></trkpt><trkpt lat="42.643118141456746" lon="11.842093803468233"><ele>526.0</ele><time>2026-03-29T12:01:43.009Z</time></trkpt><trkpt lat="42.64305907847326" lon="11.84187992013926"><ele>526.0</ele><time>2026-03-29T12:01:44.01Z</time></trkpt><trkpt lat="42.64297544664787" lon="11.841682288024812"><ele>526.0</ele><time>2026-03-29T12:01:45.01Z</time></trkpt><trkpt lat="42.64286350576621" lon="11.841497640823226"><ele>525.3333333333334</ele><time>2026-03-29T12:01:46.01Z</time></trkpt><trkpt lat="42.642734744508985" lon="11.841317913889757"><ele>524.6666666666666</ele><time>2026-03-29T12:01:47.01Z</time></trkpt><trkpt lat="42.6425898729132" lon="11.841137059117898"><ele>524.0</ele><time>2026-03-29T12:01:48.01Z</time></trkpt><trkpt lat="42.64243210614512" lon="11.84096988843416"><ele>525.75</ele><time>2026-03-29T12:01:49.01Z</time></trkpt><trkpt lat="42.64229964681163" lon="11.840838557130752"><ele>527.5</ele><time>2026-03-29T12:01:50.01Z</time></trkpt><trkpt lat="42.642200126645974" lon="11.840733162676898"><ele>529.25</ele><time>2026-03-29T12:01:51.01Z</time></trkpt><trkpt lat="42.64211058193489" lon="11.84063811372565"><ele>531.0</ele><time>2026-03-29T12:01:52.01Z</time></trkpt><trkpt lat="42.64201836198138" lon="11.840545881440534"><ele>531.5</ele><time>2026-03-29T12:01:53.01Z</time></trkpt><trkpt lat="42.641925415850224" lon="11.840420539754883"><ele>532.0</ele><time>2026-03-29T12:01:54.01Z</time></trkpt><trkpt lat="42.64183367144467" lon="11.840266787170078"><ele>532.5</ele><time>2026-03-29T12:01:55.01Z</time></trkpt><trkpt lat="42.64172234954305" lon="11.840099262819159"><ele>533.0</ele><time>2026-03-29T12:01:56.01Z</time></trkpt><trkpt lat="42.64162871500653" lon="11.839911861083424"><ele>533.6666666666666</ele><time>2026-03-29T12:01:57.01Z</time></trkpt><trkpt lat="42.641500609346195" lon="11.839698430418279"><ele>534.3333333333334</ele><time>2026-03-29T12:01:58.01Z</time></trkpt><trkpt lat="42.641369299332354" lon="11.83947714731094"><ele>535.0</ele><time>2026-03-29T12:01:59.01Z</time></trkpt><trkpt lat="42.641225941942324" lon="11.83927943431414"><ele>539.5</ele><time>2026-03-29T12:02:00.01Z</time></trkpt><trkpt lat="42.641073348398535" lon="11.839048024172602"><ele>544.0</ele><time>2026-03-29T12:02:01.01Z</time></trkpt><trkpt lat="42.64092596593248" lon="11.838807856845142"><ele>544.0</ele><time>2026-03-29T12:02:02.01Z</time></trkpt><trkpt lat="42.640797164108385" lon="11.838619040740449"><ele>544.0</ele><time>2026-03-29T12:02:03.01Z</time></trkpt><trkpt lat="42.64067285004193" lon="11.838449001656555"><ele>544.0</ele><time>2026-03-29T12:02:04.01Z</time></trkpt><trkpt lat="42.64055999637474" lon="11.838333007607105"><ele>545.25</ele><time>2026-03-29T12:02:05.01Z</time></trkpt><trkpt lat="42.640447633825076" lon="11.838275277763385"><ele>546.5</ele><time>2026-03-29T12:02:06.01Z</time></trkpt><trkpt lat="42.64033684831895" lon="11.838283765194756"><ele>547.75</ele><time>2026-03-29T12:02:07.01Z</time></trkpt><trkpt lat="42.640217154105784" lon="11.838367673931042"><ele>549.0</ele><time>2026-03-29T12:02:08.01Z</time></trkpt><trkpt lat="42.64012398711823" lon="11.838454113978958"><ele>550.75</ele><time>2026-03-29T12:02:09.01Z</time></trkpt><trkpt lat="42.640024755944324" lon="11.838553709400061"><ele>552.5</ele><time>2026-03-29T12:02:10.01Z</time></trkpt><trkpt lat="42.639952055290586" lon="11.838664521971328"><ele>554.25</ele><time>2026-03-29T12:02:11.01Z</time></trkpt><trkpt lat="42.63992854201537" lon="11.838805481116154"><ele>556.0</ele><time>2026-03-29T12:02:12.01Z</time></trkpt><trkpt lat="42.63994911667888" lon="11.838957395270887"><ele>556.0</ele><time>2026-03-29T12:02:13.01Z</time></trkpt><trkpt lat="42.63998986229387" lon="11.83910727960676"><ele>556.0</ele><time>2026-03-29T12:02:14.01Z</time></trkpt><trkpt lat="42.64000984218712" lon="11.83925274722771"><ele>556.0</ele><time>2026-03-29T12:02:15.01Z</time></trkpt><trkpt lat="42.63997834032" lon="11.839335032737214"><ele>556.0</ele><time>2026-03-29T12:02:16.01Z</time></trkpt><trkpt lat="42.639915414022745" lon="11.839372828497963"><ele>556.0</ele><time>2026-03-29T12:02:17.01Z</time></trkpt><trkpt lat="42.63977012732909" lon="11.839308649179788"><ele>556.0</ele><time>2026-03-29T12:02:19.01Z</time></trkpt><trkpt lat="42.63968503320829" lon="11.83926081175741"><ele>556.0</ele><time>2026-03-29T12:02:20.01Z</time></trkpt><trkpt lat="42.639574022402016" lon="11.839206111668984"><ele>556.0</ele><time>2026-03-29T12:02:21.01Z</time></trkpt><trkpt lat="42.63946490341699" lon="11.839160000019127"><ele>556.0</ele><time>2026-03-29T12:02:22.01Z</time></trkpt><trkpt lat="42.63939846915172" lon="11.83911845509855"><ele>556.0</ele><time>2026-03-29T12:02:23.01Z</time></trkpt><trkpt lat="42.63932692872179" lon="11.839090335895568"><ele>556.8333333333334</ele><time>2026-03-29T12:02:26.01Z</time></trkpt><trkpt lat="42.639268017942136" lon="11.839129369560306"><ele>557.6666666666667</ele><time>2026-03-29T12:02:27.01Z</time></trkpt><trkpt lat="42.63920221242122" lon="11.83912451345314"><ele>558.5</ele><time>2026-03-29T12:02:28.01Z</time></trkpt><trkpt lat="42.63912118783117" lon="11.839081118799596"><ele>559.3333333333334</ele><time>2026-03-29T12:02:29.01Z</time></trkpt><trkpt lat="42.639081905013825" lon="11.838990940693646"><ele>560.1666666666666</ele><time>2026-03-29T12:02:30.01Z</time></trkpt><trkpt lat="42.639168775683686" lon="11.838847934546882"><ele>561.0</ele><time>2026-03-29T12:02:32.01Z</time></trkpt><trkpt lat="42.639244694937894" lon="11.83876244990014"><ele>561.0</ele><time>2026-03-29T12:02:33.01Z</time></trkpt><trkpt lat="42.639335109314" lon="11.838635441122571"><ele>561.0</ele><time>2026-03-29T12:02:34.01Z</time></trkpt><trkpt lat="42.639422320431436" lon="11.838511270410692"><ele>561.0</ele><time>2026-03-29T12:02:35.01Z</time></trkpt><trkpt lat="42.639487647359275" lon="11.838390458463966"><ele>561.0</ele><time>2026-03-29T12:02:36.01Z</time></trkpt><trkpt lat="42.63952321912601" lon="11.838258798428814"><ele>559.75</ele><time>2026-03-29T12:02:37.01Z</time></trkpt><trkpt lat="42.63951721152394" lon="11.83811391103972"><ele>558.5</ele><time>2026-03-29T12:02:38.01Z</time></trkpt><trkpt lat="42.63947075145435" lon="11.837997318846295"><ele>557.25</ele><time>2026-03-29T12:02:39.01Z</time></trkpt><trkpt lat="42.6393733873663" lon="11.837913017981055"><ele>556.0</ele><time>2026-03-29T12:02:40.01Z</time></trkpt><trkpt lat="42.639245987808174" lon="11.837840610573018"><ele>559.0</ele><time>2026-03-29T12:02:41.01Z</time></trkpt><trkpt lat="42.63910380609651" lon="11.837760238495266"><ele>562.0</ele><time>2026-03-29T12:02:42.01Z</time></trkpt><trkpt lat="42.63895895742958" lon="11.837667246783528"><ele>565.0</ele><time>2026-03-29T12:02:43.01Z</time></trkpt><trkpt lat="42.638809757912746" lon="11.837554548950722"><ele>565.0</ele><time>2026-03-29T12:02:44.01Z</time></trkpt><trkpt lat="42.638659864555024" lon="11.83742857081651"><ele>565.0</ele><time>2026-03-29T12:02:45.01Z</time></trkpt><trkpt lat="42.63852396288996" lon="11.837291393451105"><ele>565.0</ele><time>2026-03-29T12:02:46.01Z</time></trkpt><trkpt lat="42.63841556087252" lon="11.837136317601018"><ele>566.6666666666667</ele><time>2026-03-29T12:02:47.01Z</time></trkpt><trkpt lat="42.638339278820666" lon="11.836945500768397"><ele>568.3333333333334</ele><time>2026-03-29T12:02:48.01Z</time></trkpt><trkpt lat="42.63822643523421" lon="11.836798526976828"><ele>570.0</ele><time>2026-03-29T12:02:49.01Z</time></trkpt><trkpt lat="42.63810893722154" lon="11.836691022201515"><ele>570.0</ele><time>2026-03-29T12:02:50.01Z</time></trkpt><trkpt lat="42.63797363386732" lon="11.836622911082005"><ele>570.0</ele><time>2026-03-29T12:02:51.01Z</time></trkpt><trkpt lat="42.637826902388014" lon="11.836588032101352"><ele>570.0</ele><time>2026-03-29T12:02:52.01Z</time></trkpt><trkpt lat="42.63766973439449" lon="11.83658437693077"><ele>572.6666666666666</ele><time>2026-03-29T12:02:53.009Z</time></trkpt><trkpt lat="42.637494139258735" lon="11.83659508462233"><ele>575.3333333333333</ele><time>2026-03-29T12:02:54.009Z</time></trkpt><trkpt lat="42.637310845251776" lon="11.836589453240185"><ele>578.0</ele><time>2026-03-29T12:02:55.009Z</time></trkpt><trkpt lat="42.63712263246627" lon="11.836563381549116"><ele>578.3333333333333</ele><time>2026-03-29T12:02:56.009Z</time></trkpt><trkpt lat="42.6369288665631" lon="11.836529160886833"><ele>578.6666666666666</ele><time>2026-03-29T12:02:57.009Z</time></trkpt><trkpt lat="42.636739562011435" lon="11.836483844788868"><ele>579.0</ele><time>2026-03-29T12:02:58.009Z</time></trkpt><trkpt lat="42.63655230121198" lon="11.836422942189008"><ele>579.0</ele><time>2026-03-29T12:02:59.009Z</time></trkpt><trkpt lat="42.63637523049309" lon="11.836348714115735"><ele>579.0</ele><time>2026-03-29T12:03:00.009Z</time></trkpt><trkpt lat="42.63619836413885" lon="11.83629175268739"><ele>579.0</ele><time>2026-03-29T12:03:01.009Z</time></trkpt><trkpt lat="42.63602762470568" lon="11.836253218870999"><ele>583.6666666666666</ele><time>2026-03-29T12:03:02.009Z</time></trkpt><trkpt lat="42.6358636722982" lon="11.836235511995469"><ele>588.3333333333333</ele><time>2026-03-29T12:03:03.009Z</time></trkpt><trkpt lat="42.63570320580303" lon="11.836221245966831"><ele>593.0</ele><time>2026-03-29T12:03:04.009Z</time></trkpt><trkpt lat="42.635549827049545" lon="11.836208386925334"><ele>593.0</ele><time>2026-03-29T12:03:05.009Z</time></trkpt><trkpt lat="42.635399820424524" lon="11.836191287501018"><ele>593.0</ele><time>2026-03-29T12:03:06.009Z</time></trkpt><trkpt lat="42.635262758462574" lon="11.836173189092628"><ele>593.0</ele><time>2026-03-29T12:03:07.009Z</time></trkpt><trkpt lat="42.635133593648554" lon="11.836145373131334"><ele>593.0</ele><time>2026-03-29T12:03:08.009Z</time></trkpt><trkpt lat="42.6350176860861" lon="11.836100604327571"><ele>593.5</ele><time>2026-03-29T12:03:09.009Z</time></trkpt><trkpt lat="42.634907495857775" lon="11.836018552279207"><ele>594.0</ele><time>2026-03-29T12:03:10.009Z</time></trkpt><trkpt lat="42.63477809646614" lon="11.835925128643668"><ele>594.5</ele><time>2026-03-29T12:03:11.009Z</time></trkpt><trkpt lat="42.6346490891601" lon="11.835864196133619"><ele>595.0</ele><time>2026-03-29T12:03:12.009Z</time></trkpt><trkpt lat="42.63450638489509" lon="11.83581511545559"><ele>595.25</ele><time>2026-03-29T12:03:13.009Z</time></trkpt><trkpt lat="42.6343688585757" lon="11.835779918928"><ele>595.5</ele><time>2026-03-29T12:03:14.009Z</time></trkpt><trkpt lat="42.63423848603598" lon="11.835728214898436"><ele>595.75</ele><time>2026-03-29T12:03:15.009Z</time></trkpt><trkpt lat="42.63410706035465" lon="11.835675897461478"><ele>596.0</ele><time>2026-03-29T12:03:16.009Z</time></trkpt><trkpt lat="42.63398856893921" lon="11.8355929927254"><ele>596.0</ele><time>2026-03-29T12:03:17.009Z</time></trkpt><trkpt lat="42.63388461059171" lon="11.835488138593966"><ele>596.0</ele><time>2026-03-29T12:03:18.009Z</time></trkpt><trkpt lat="42.63378338147451" lon="11.835372284325338"><ele>596.0</ele><time>2026-03-29T12:03:19.009Z</time></trkpt><trkpt lat="42.633669972856204" lon="11.835228834992254"><ele>596.0</ele><time>2026-03-29T12:03:20.009Z</time></trkpt><trkpt lat="42.633524052711664" lon="11.835080550624038"><ele>596.0</ele><time>2026-03-29T12:03:21.009Z</time></trkpt><trkpt lat="42.633392889367876" lon="11.834944850091807"><ele>596.0</ele><time>2026-03-29T12:03:22.009Z</time></trkpt><trkpt lat="42.63326874681345" lon="11.834812874488689"><ele>596.0</ele><time>2026-03-29T12:03:23.009Z</time></trkpt><trkpt lat="42.63314164330089" lon="11.834682139087976"><ele>596.0</ele><time>2026-03-29T12:03:24.009Z</time></trkpt><trkpt lat="42.63303102073518" lon="11.834563226159514"><ele>596.0</ele><time>2026-03-29T12:03:25.009Z</time></trkpt><trkpt lat="42.63293381752017" lon="11.834449588515083"><ele>596.0</ele><time>2026-03-29T12:03:26.009Z</time></trkpt><trkpt lat="42.63284390579323" lon="11.834353025488317"><ele>596.0</ele><time>2026-03-29T12:03:27.009Z</time></trkpt><trkpt lat="42.63277709565293" lon="11.8342607047414"><ele>595.8333333333333</ele><time>2026-03-29T12:03:28.009Z</time></trkpt><trkpt lat="42.632746162167756" lon="11.834174635248004"><ele>595.6666666666666</ele><time>2026-03-29T12:03:29.009Z</time></trkpt><trkpt lat="42.63275747404675" lon="11.834088970215388"><ele>595.5</ele><time>2026-03-29T12:03:30.009Z</time></trkpt><trkpt lat="42.63278844653683" lon="11.833992117286606"><ele>595.3333333333334</ele><time>2026-03-29T12:03:31.009Z</time></trkpt><trkpt lat="42.632863696506256" lon="11.833887389200887"><ele>595.1666666666667</ele><time>2026-03-29T12:03:32.009Z</time></trkpt><trkpt lat="42.632931271965774" lon="11.833776033057061"><ele>595.0</ele><time>2026-03-29T12:03:33.009Z</time></trkpt><trkpt lat="42.63300231860163" lon="11.833699040257269"><ele>595.6</ele><time>2026-03-29T12:03:34.009Z</time></trkpt><trkpt lat="42.63305481327781" lon="11.833607001520791"><ele>596.2</ele><time>2026-03-29T12:03:35.009Z</time></trkpt><trkpt lat="42.63311913716157" lon="11.833519142758337"><ele>596.8</ele><time>2026-03-29T12:03:36.009Z</time></trkpt><trkpt lat="42.63318598364767" lon="11.833438180090376"><ele>597.4</ele><time>2026-03-29T12:03:37.009Z</time></trkpt><trkpt lat="42.63326477184286" lon="11.833359425857735"><ele>598.0</ele><time>2026-03-29T12:03:38.009Z</time></trkpt><trkpt lat="42.63334454491638" lon="11.833270663657391"><ele>598.0</ele><time>2026-03-29T12:03:39.009Z</time></trkpt><trkpt lat="42.633422521950735" lon="11.83318783273213"><ele>598.0</ele><time>2026-03-29T12:03:40.009Z</time></trkpt><trkpt lat="42.63350023929957" lon="11.833113274083525"><ele>598.0</ele><time>2026-03-29T12:03:41.009Z</time></trkpt><trkpt lat="42.6335923023573" lon="11.833061243097884"><ele>598.0</ele><time>2026-03-29T12:03:42.009Z</time></trkpt><trkpt lat="42.63368761037027" lon="11.832984677035364"><ele>598.0</ele><time>2026-03-29T12:03:43.01Z</time></trkpt><trkpt lat="42.633788046089904" lon="11.832909696296232"><ele>597.5</ele><time>2026-03-29T12:03:44.011Z</time></trkpt><trkpt lat="42.633905053665416" lon="11.832829543739647"><ele>597.0</ele><time>2026-03-29T12:03:45.011Z</time></trkpt><trkpt lat="42.63403163307189" lon="11.832745664433887"><ele>596.5</ele><time>2026-03-29T12:03:46.011Z</time></trkpt><trkpt lat="42.63415695826544" lon="11.832652256770652"><ele>596.0</ele><time>2026-03-29T12:03:47.01Z</time></trkpt><trkpt lat="42.63427665620636" lon="11.832563238593533"><ele>594.75</ele><time>2026-03-29T12:03:48.01Z</time></trkpt><trkpt lat="42.63438995536989" lon="11.832466149591285"><ele>593.5</ele><time>2026-03-29T12:03:49.01Z</time></trkpt><trkpt lat="42.634484875265436" lon="11.832353727941737"><ele>592.25</ele><time>2026-03-29T12:03:50.011Z</time></trkpt><trkpt lat="42.63456447259321" lon="11.832220039580378"><ele>591.0</ele><time>2026-03-29T12:03:51.011Z</time></trkpt><trkpt lat="42.63462983604397" lon="11.832066816300394"><ele>591.0</ele><time>2026-03-29T12:03:52.011Z</time></trkpt><trkpt lat="42.63468533870595" lon="11.831896255526315"><ele>591.0</ele><time>2026-03-29T12:03:53.01Z</time></trkpt><trkpt lat="42.634744348640474" lon="11.831717017929845"><ele>591.0</ele><time>2026-03-29T12:03:54.01Z</time></trkpt><trkpt lat="42.6348237808394" lon="11.831540339679274"><ele>591.0</ele><time>2026-03-29T12:03:55.01Z</time></trkpt><trkpt lat="42.63492373748287" lon="11.831354133276061"><ele>591.3333333333334</ele><time>2026-03-29T12:03:56.011Z</time></trkpt><trkpt lat="42.635034803812715" lon="11.831153707460809"><ele>591.6666666666667</ele><time>2026-03-29T12:03:57.011Z</time></trkpt><trkpt lat="42.63514337380678" lon="11.830947226177525"><ele>592.0</ele><time>2026-03-29T12:03:58.011Z</time></trkpt><trkpt lat="42.63525457425655" lon="11.830723527219888"><ele>593.0</ele><time>2026-03-29T12:03:59.011Z</time></trkpt><trkpt lat="42.635365880959085" lon="11.830507347759484"><ele>594.0</ele><time>2026-03-29T12:04:00.011Z</time></trkpt><trkpt lat="42.63547781437337" lon="11.83029566998034"><ele>595.0</ele><time>2026-03-29T12:04:01.011Z</time></trkpt><trkpt lat="42.63559326023019" lon="11.830086513312976"><ele>593.0</ele><time>2026-03-29T12:04:02.011Z</time></trkpt><trkpt lat="42.63569965762135" lon="11.829874828452896"><ele>591.0</ele><time>2026-03-29T12:04:03.011Z</time></trkpt><trkpt lat="42.635809381364034" lon="11.829662077911761"><ele>589.0</ele><time>2026-03-29T12:04:04.011Z</time></trkpt><trkpt lat="42.63591220108116" lon="11.829457820048352"><ele>589.0</ele><time>2026-03-29T12:04:05.011Z</time></trkpt><trkpt lat="42.63601832411615" lon="11.829254663588381"><ele>589.0</ele><time>2026-03-29T12:04:06.011Z</time></trkpt><trkpt lat="42.636121576433155" lon="11.829049796956708"><ele>589.0</ele><time>2026-03-29T12:04:07.011Z</time></trkpt><trkpt lat="42.63621909612394" lon="11.828847124484286"><ele>590.6666666666667</ele><time>2026-03-29T12:04:08.011Z</time></trkpt><trkpt lat="42.63632144453177" lon="11.828651369542664"><ele>592.3333333333334</ele><time>2026-03-29T12:04:09.011Z</time></trkpt><trkpt lat="42.636421537995105" lon="11.828457199397391"><ele>594.0</ele><time>2026-03-29T12:04:10.011Z</time></trkpt><trkpt lat="42.63653129720363" lon="11.828278454209928"><ele>594.0</ele><time>2026-03-29T12:04:11.011Z</time></trkpt><trkpt lat="42.63662643620679" lon="11.828092584264146"><ele>594.0</ele><time>2026-03-29T12:04:12.011Z</time></trkpt><trkpt lat="42.63671850872267" lon="11.82791270529492"><ele>594.0</ele><time>2026-03-29T12:04:13.011Z</time></trkpt><trkpt lat="42.636788719782416" lon="11.827727032154428"><ele>593.75</ele><time>2026-03-29T12:04:14.011Z</time></trkpt><trkpt lat="42.63686387344916" lon="11.827558433608477"><ele>593.5</ele><time>2026-03-29T12:04:15.011Z</time></trkpt><trkpt lat="42.636924023527364" lon="11.827396160981069"><ele>593.25</ele><time>2026-03-29T12:04:16.011Z</time></trkpt><trkpt lat="42.636954478465604" lon="11.82723011626092"><ele>593.0</ele><time>2026-03-29T12:04:17.011Z</time></trkpt><trkpt lat="42.63696155480895" lon="11.827061885768806"><ele>593.0</ele><time>2026-03-29T12:04:18.011Z</time></trkpt><trkpt lat="42.636961180877925" lon="11.826896895090968"><ele>593.0</ele><time>2026-03-29T12:04:19.011Z</time></trkpt><trkpt lat="42.636962776964786" lon="11.826721394677314"><ele>593.0</ele><time>2026-03-29T12:04:20.011Z</time></trkpt><trkpt lat="42.636968654539544" lon="11.826531499034871"><ele>593.0</ele><time>2026-03-29T12:04:21.011Z</time></trkpt><trkpt lat="42.63698416810425" lon="11.8263551344084"><ele>596.0</ele><time>2026-03-29T12:04:22.011Z</time></trkpt><trkpt lat="42.63701958211416" lon="11.826182422071696"><ele>599.0</ele><time>2026-03-29T12:04:23.011Z</time></trkpt><trkpt lat="42.63707389439102" lon="11.826032753488802"><ele>602.0</ele><time>2026-03-29T12:04:24.011Z</time></trkpt><trkpt lat="42.637157713221804" lon="11.825895016610357"><ele>605.0</ele><time>2026-03-29T12:04:25.011Z</time></trkpt><trkpt lat="42.637247445887816" lon="11.82575415027594"><ele>606.6666666666666</ele><time>2026-03-29T12:04:26.011Z</time></trkpt><trkpt lat="42.63735851128925" lon="11.825614806131508"><ele>608.3333333333334</ele><time>2026-03-29T12:04:27.01Z</time></trkpt><trkpt lat="42.63748412214443" lon="11.825488191179751"><ele>610.0</ele><time>2026-03-29T12:04:28.01Z</time></trkpt><trkpt lat="42.63761769936605" lon="11.825363211117027"><ele>610.0</ele><time>2026-03-29T12:04:29.01Z</time></trkpt><trkpt lat="42.63775200126956" lon="11.825239857060845"><ele>610.0</ele><time>2026-03-29T12:04:30.01Z</time></trkpt><trkpt lat="42.63789975769033" lon="11.825150922149009"><ele>610.0</ele><time>2026-03-29T12:04:31.01Z</time></trkpt><trkpt lat="42.638057402410126" lon="11.82510074157752"><ele>610.6666666666667</ele><time>2026-03-29T12:04:32.01Z</time></trkpt><trkpt lat="42.63820747445872" lon="11.825051407807608"><ele>611.3333333333334</ele><time>2026-03-29T12:04:33.01Z</time></trkpt><trkpt lat="42.63836128511816" lon="11.82501124080478"><ele>612.0</ele><time>2026-03-29T12:04:34.01Z</time></trkpt><trkpt lat="42.63850058401278" lon="11.824924450443957"><ele>612.0</ele><time>2026-03-29T12:04:35.01Z</time></trkpt><trkpt lat="42.638624881943194" lon="11.824818715230048"><ele>612.0</ele><time>2026-03-29T12:04:36.01Z</time></trkpt><trkpt lat="42.638730041006454" lon="11.824691210422909"><ele>612.0</ele><time>2026-03-29T12:04:37.01Z</time></trkpt><trkpt lat="42.638798211888975" lon="11.824524110966165"><ele>612.0</ele><time>2026-03-29T12:04:38.01Z</time></trkpt><trkpt lat="42.638817981719235" lon="11.82434397354289"><ele>613.25</ele><time>2026-03-29T12:04:39.01Z</time></trkpt><trkpt lat="42.638835560879464" lon="11.824158118646176"><ele>614.5</ele><time>2026-03-29T12:04:40.01Z</time></trkpt><trkpt lat="42.63887119880096" lon="11.82396556513448"><ele>615.75</ele><time>2026-03-29T12:04:41.01Z</time></trkpt><trkpt lat="42.6388897178307" lon="11.823766576423688"><ele>617.0</ele><time>2026-03-29T12:04:42.01Z</time></trkpt><trkpt lat="42.638943777303815" lon="11.823573689615495"><ele>617.0</ele><time>2026-03-29T12:04:43.01Z</time></trkpt><trkpt lat="42.639031551559604" lon="11.823414872196533"><ele>617.0</ele><time>2026-03-29T12:04:44.01Z</time></trkpt><trkpt lat="42.63912955477747" lon="11.82325833790953"><ele>617.0</ele><time>2026-03-29T12:04:45.01Z</time></trkpt><trkpt lat="42.639235165175165" lon="11.823107300907125"><ele>617.0</ele><time>2026-03-29T12:04:46.01Z</time></trkpt><trkpt lat="42.63934796411518" lon="11.822950365659132"><ele>617.0</ele><time>2026-03-29T12:04:47.01Z</time></trkpt><trkpt lat="42.63944712962754" lon="11.822776962400123"><ele>617.0</ele><time>2026-03-29T12:04:48.01Z</time></trkpt><trkpt lat="42.63953093299751" lon="11.822594939350713"><ele>618.0</ele><time>2026-03-29T12:04:49.01Z</time></trkpt><trkpt lat="42.63961776368112" lon="11.822409017102352"><ele>619.0</ele><time>2026-03-29T12:04:50.01Z</time></trkpt><trkpt lat="42.639626815926526" lon="11.8221889974924"><ele>620.0</ele><time>2026-03-29T12:04:51.01Z</time></trkpt><trkpt lat="42.6396355811965" lon="11.821988822783705"><ele>620.5</ele><time>2026-03-29T12:04:52.01Z</time></trkpt><trkpt lat="42.63961940531399" lon="11.821798782676504"><ele>621.0</ele><time>2026-03-29T12:04:53.01Z</time></trkpt><trkpt lat="42.6396054229858" lon="11.821617505819187"><ele>621.5</ele><time>2026-03-29T12:04:54.01Z</time></trkpt><trkpt lat="42.63962182516547" lon="11.821439944793763"><ele>622.0</ele><time>2026-03-29T12:04:55.01Z</time></trkpt><trkpt lat="42.639661964474804" lon="11.821273902932502"><ele>622.0</ele><time>2026-03-29T12:04:56.01Z</time></trkpt><trkpt lat="42.639721758277005" lon="11.821108482934884"><ele>622.0</ele><time>2026-03-29T12:04:57.01Z</time></trkpt><trkpt lat="42.639791596116794" lon="11.82094210541226"><ele>622.0</ele><time>2026-03-29T12:04:58.01Z</time></trkpt><trkpt lat="42.6398657911887" lon="11.820769357314814"><ele>622.0</ele><time>2026-03-29T12:04:59.01Z</time></trkpt><trkpt lat="42.63989339342829" lon="11.820560855619874"><ele>622.6666666666667</ele><time>2026-03-29T12:05:00.01Z</time></trkpt><trkpt lat="42.63992373051615" lon="11.820349544234187"><ele>623.3333333333334</ele><time>2026-03-29T12:05:01.01Z</time></trkpt><trkpt lat="42.63994806328464" lon="11.820137640305935"><ele>624.0</ele><time>2026-03-29T12:05:02.01Z</time></trkpt><trkpt lat="42.63999011638324" lon="11.81992142684843"><ele>624.0</ele><time>2026-03-29T12:05:03.01Z</time></trkpt><trkpt lat="42.640050184422805" lon="11.819698769063484"><ele>624.0</ele><time>2026-03-29T12:05:04.01Z</time></trkpt><trkpt lat="42.640118200870845" lon="11.819480009588224"><ele>624.0</ele><time>2026-03-29T12:05:05.01Z</time></trkpt><trkpt lat="42.64018357024233" lon="11.819254498068288"><ele>622.6666666666666</ele><time>2026-03-29T12:05:06.01Z</time></trkpt><trkpt lat="42.64024447117684" lon="11.819022781764088"><ele>621.3333333333333</ele><time>2026-03-29T12:05:07.01Z</time></trkpt><trkpt lat="42.64029448706386" lon="11.818792045963326"><ele>620.0</ele><time>2026-03-29T12:05:08.01Z</time></trkpt><trkpt lat="42.64034175483433" lon="11.818563096018785"><ele>624.6666666666666</ele><time>2026-03-29T12:05:09.01Z</time></trkpt><trkpt lat="42.64040482523293" lon="11.818338038580324"><ele>629.3333333333334</ele><time>2026-03-29T12:05:10.01Z</time></trkpt><trkpt lat="42.640491279798354" lon="11.818123037597784"><ele>634.0</ele><time>2026-03-29T12:05:11.01Z</time></trkpt><trkpt lat="42.64059009686883" lon="11.817931967799566"><ele>634.0</ele><time>2026-03-29T12:05:12.01Z</time></trkpt><trkpt lat="42.64067779535858" lon="11.817746894255306"><ele>634.0</ele><time>2026-03-29T12:05:13.01Z</time></trkpt><trkpt lat="42.640737382981925" lon="11.817551053030726"><ele>634.0</ele><time>2026-03-29T12:05:14.01Z</time></trkpt><trkpt lat="42.64075942384605" lon="11.817357606583329"><ele>633.25</ele><time>2026-03-29T12:05:15.01Z</time></trkpt><trkpt lat="42.64073577879395" lon="11.817177985531037"><ele>632.5</ele><time>2026-03-29T12:05:16.01Z</time></trkpt><trkpt lat="42.64069159170868" lon="11.817014081339996"><ele>631.75</ele><time>2026-03-29T12:05:17.01Z</time></trkpt><trkpt lat="42.64066444402277" lon="11.816856966935937"><ele>631.0</ele><time>2026-03-29T12:05:18.01Z</time></trkpt><trkpt lat="42.64067710348331" lon="11.816704708829997"><ele>631.0</ele><time>2026-03-29T12:05:19.01Z</time></trkpt><trkpt lat="42.640735355699626" lon="11.816581305750898"><ele>631.0</ele><time>2026-03-29T12:05:20.01Z</time></trkpt><trkpt lat="42.64081594924268" lon="11.816468656444778"><ele>631.0</ele><time>2026-03-29T12:05:21.01Z</time></trkpt><trkpt lat="42.64090763261648" lon="11.816357579648695"><ele>631.0</ele><time>2026-03-29T12:05:22.01Z</time></trkpt><trkpt lat="42.64100165289067" lon="11.816246275705332"><ele>631.0</ele><time>2026-03-29T12:05:23.01Z</time></trkpt><trkpt lat="42.64109418249182" lon="11.816130841942229"><ele>631.0</ele><time>2026-03-29T12:05:24.01Z</time></trkpt><trkpt lat="42.641180259330355" lon="11.815977841216078"><ele>631.0</ele><time>2026-03-29T12:05:25.01Z</time></trkpt><trkpt lat="42.64125932992324" lon="11.815782457018507"><ele>631.0</ele><time>2026-03-29T12:05:26.01Z</time></trkpt><trkpt lat="42.641325483957004" lon="11.815584117539387"><ele>633.5</ele><time>2026-03-29T12:05:27.01Z</time></trkpt><trkpt lat="42.64138692101736" lon="11.815395317724905"><ele>636.0</ele><time>2026-03-29T12:05:28.01Z</time></trkpt><trkpt lat="42.641443991630275" lon="11.81521821165292"><ele>638.5</ele><time>2026-03-29T12:05:29.01Z</time></trkpt><trkpt lat="42.64149212227256" lon="11.815057189994228"><ele>641.0</ele><time>2026-03-29T12:05:30.01Z</time></trkpt><trkpt lat="42.641524371111316" lon="11.8148829192442"><ele>641.0</ele><time>2026-03-29T12:05:31.01Z</time></trkpt><trkpt lat="42.641514472206644" lon="11.814668788906433"><ele>641.0</ele><time>2026-03-29T12:05:32.01Z</time></trkpt><trkpt lat="42.64145754131195" lon="11.814464001859234"><ele>641.0</ele><time>2026-03-29T12:05:33.01Z</time></trkpt><trkpt lat="42.6413705267536" lon="11.814276491104215"><ele>641.75</ele><time>2026-03-29T12:05:34.009Z</time></trkpt><trkpt lat="42.64126921279647" lon="11.814116758894336"><ele>642.5</ele><time>2026-03-29T12:05:35.009Z</time></trkpt><trkpt lat="42.641176474802826" lon="11.813979960873477"><ele>643.25</ele><time>2026-03-29T12:05:36.009Z</time></trkpt><trkpt lat="42.64109114881209" lon="11.81384428809537"><ele>644.0</ele><time>2026-03-29T12:05:37.009Z</time></trkpt><trkpt lat="42.641027796176104" lon="11.81370064645976"><ele>640.75</ele><time>2026-03-29T12:05:38.009Z</time></trkpt><trkpt lat="42.64100509287514" lon="11.8135378452342"><ele>637.5</ele><time>2026-03-29T12:05:39.009Z</time></trkpt><trkpt lat="42.64102595263202" lon="11.813366679991395"><ele>634.25</ele><time>2026-03-29T12:05:40.009Z</time></trkpt><trkpt lat="42.64107304713907" lon="11.813177879571676"><ele>631.0</ele><time>2026-03-29T12:05:41.009Z</time></trkpt><trkpt lat="42.64111204755283" lon="11.812972322650332"><ele>631.0</ele><time>2026-03-29T12:05:42.009Z</time></trkpt><trkpt lat="42.64110576278611" lon="11.812745267368317"><ele>631.0</ele><time>2026-03-29T12:05:43.009Z</time></trkpt><trkpt lat="42.64108451589641" lon="11.812545359438847"><ele>631.0</ele><time>2026-03-29T12:05:44.009Z</time></trkpt><trkpt lat="42.64105887463734" lon="11.81235825316116"><ele>630.5</ele><time>2026-03-29T12:05:45.009Z</time></trkpt><trkpt lat="42.64105033388649" lon="11.812156102630635"><ele>630.0</ele><time>2026-03-29T12:05:46.009Z</time></trkpt><trkpt lat="42.64107302424092" lon="11.811961290587693"><ele>629.5</ele><time>2026-03-29T12:05:47.009Z</time></trkpt><trkpt lat="42.641123101258565" lon="11.811793367459734"><ele>629.0</ele><time>2026-03-29T12:05:48.009Z</time></trkpt><trkpt lat="42.64120124716015" lon="11.811644769522191"><ele>630.75</ele><time>2026-03-29T12:05:49.011Z</time></trkpt><trkpt lat="42.64129899088921" lon="11.811534474310097"><ele>632.5</ele><time>2026-03-29T12:05:50.011Z</time></trkpt><trkpt lat="42.64142742938711" lon="11.811491220303857"><ele>634.25</ele><time>2026-03-29T12:05:51.011Z</time></trkpt><trkpt lat="42.64156159030062" lon="11.811461421813087"><ele>636.0</ele><time>2026-03-29T12:05:52.011Z</time></trkpt><trkpt lat="42.641711100832026" lon="11.811447512908057"><ele>636.0</ele><time>2026-03-29T12:05:53.012Z</time></trkpt><trkpt lat="42.64186613996732" lon="11.811456863959302"><ele>636.0</ele><time>2026-03-29T12:05:54.011Z</time></trkpt><trkpt lat="42.64204299498678" lon="11.811455831904253"><ele>636.0</ele><time>2026-03-29T12:05:55.012Z</time></trkpt><trkpt lat="42.64221928258287" lon="11.811437423066062"><ele>635.6666666666666</ele><time>2026-03-29T12:05:56.011Z</time></trkpt><trkpt lat="42.642402006004" lon="11.811391845944367"><ele>635.3333333333333</ele><time>2026-03-29T12:05:57.011Z</time></trkpt><trkpt lat="42.64258028431141" lon="11.811317821749729"><ele>635.0</ele><time>2026-03-29T12:05:58.011Z</time></trkpt><trkpt lat="42.642749105350944" lon="11.811232904658617"><ele>633.6666666666666</ele><time>2026-03-29T12:05:59.011Z</time></trkpt><trkpt lat="42.642908284645465" lon="11.811150354707463"><ele>632.3333333333334</ele><time>2026-03-29T12:06:00.011Z</time></trkpt><trkpt lat="42.64305956784593" lon="11.811066851410674"><ele>631.0</ele><time>2026-03-29T12:06:01.012Z</time></trkpt><trkpt lat="42.64320210583406" lon="11.810955662576587"><ele>630.0</ele><time>2026-03-29T12:06:02.012Z</time></trkpt><trkpt lat="42.6433178976273" lon="11.81081276521509"><ele>629.0</ele><time>2026-03-29T12:06:03.012Z</time></trkpt><trkpt lat="42.6433735069308" lon="11.81058651216383"><ele>628.0</ele><time>2026-03-29T12:06:04.012Z</time></trkpt><trkpt lat="42.6434595136527" lon="11.810397111368072"><ele>628.0</ele><time>2026-03-29T12:06:05.012Z</time></trkpt><trkpt lat="42.643533291328694" lon="11.810188261534996"><ele>628.0</ele><time>2026-03-29T12:06:06.012Z</time></trkpt><trkpt lat="42.64359396527515" lon="11.809955963431078"><ele>628.0</ele><time>2026-03-29T12:06:07.012Z</time></trkpt><trkpt lat="42.64367593680197" lon="11.80972369912098"><ele>627.3333333333334</ele><time>2026-03-29T12:06:08.012Z</time></trkpt><trkpt lat="42.64374423729108" lon="11.809482619588568"><ele>626.6666666666666</ele><time>2026-03-29T12:06:09.012Z</time></trkpt><trkpt lat="42.64379530940117" lon="11.80923209884023"><ele>626.0</ele><time>2026-03-29T12:06:10.012Z</time></trkpt><trkpt lat="42.64385279650855" lon="11.808968681949787"><ele>626.0</ele><time>2026-03-29T12:06:11.012Z</time></trkpt><trkpt lat="42.64388300125121" lon="11.808718468182724"><ele>626.0</ele><time>2026-03-29T12:06:12.012Z</time></trkpt><trkpt lat="42.64390994089679" lon="11.80846488461171"><ele>626.0</ele><time>2026-03-29T12:06:13.012Z</time></trkpt><trkpt lat="42.643937866528134" lon="11.80820202037715"><ele>626.3333333333333</ele><time>2026-03-29T12:06:14.012Z</time></trkpt><trkpt lat="42.64396603887633" lon="11.807940446284698"><ele>626.6666666666666</ele><time>2026-03-29T12:06:15.012Z</time></trkpt><trkpt lat="42.64399498901851" lon="11.807675161736293"><ele>627.0</ele><time>2026-03-29T12:06:16.012Z</time></trkpt><trkpt lat="42.644025747522434" lon="11.807418354862705"><ele>627.3333333333334</ele><time>2026-03-29T12:06:17.012Z</time></trkpt><trkpt lat="42.64405007496582" lon="11.807178289366709"><ele>627.6666666666667</ele><time>2026-03-29T12:06:18.012Z</time></trkpt><trkpt lat="42.644053480215334" lon="11.806911890136112"><ele>628.0</ele><time>2026-03-29T12:06:19.012Z</time></trkpt><trkpt lat="42.644008219596195" lon="11.806669514695217"><ele>632.0</ele><time>2026-03-29T12:06:20.012Z</time></trkpt><trkpt lat="42.64392963720884" lon="11.80645948801252"><ele>636.0</ele><time>2026-03-29T12:06:21.011Z</time></trkpt><trkpt lat="42.64381942923303" lon="11.80627828842808"><ele>640.0</ele><time>2026-03-29T12:06:22.011Z</time></trkpt><trkpt lat="42.64370517526548" lon="11.806113400741388"><ele>639.75</ele><time>2026-03-29T12:06:23.011Z</time></trkpt><trkpt lat="42.64360840126577" lon="11.805958888530025"><ele>639.5</ele><time>2026-03-29T12:06:24.011Z</time></trkpt><trkpt lat="42.643534890839824" lon="11.805777131112258"><ele>639.25</ele><time>2026-03-29T12:06:25.011Z</time></trkpt><trkpt lat="42.64350143073079" lon="11.805587648569395"><ele>639.0</ele><time>2026-03-29T12:06:26.011Z</time></trkpt><trkpt lat="42.64348662396014" lon="11.805405170819554"><ele>639.0</ele><time>2026-03-29T12:06:27.011Z</time></trkpt><trkpt lat="42.643505548759244" lon="11.805212843237433"><ele>639.0</ele><time>2026-03-29T12:06:28.011Z</time></trkpt><trkpt lat="42.643534753882" lon="11.805021126777408"><ele>639.0</ele><time>2026-03-29T12:06:29.011Z</time></trkpt><trkpt lat="42.643569040831" lon="11.804824401875587"><ele>639.0</ele><time>2026-03-29T12:06:30.011Z</time></trkpt><trkpt lat="42.64361335920933" lon="11.804635331713412"><ele>638.25</ele><time>2026-03-29T12:06:31.011Z</time></trkpt><trkpt lat="42.64368219533583" lon="11.804458341166747"><ele>637.5</ele><time>2026-03-29T12:06:32.011Z</time></trkpt><trkpt lat="42.6437716705032" lon="11.804310867155712"><ele>636.75</ele><time>2026-03-29T12:06:33.011Z</time></trkpt><trkpt lat="42.64389184623452" lon="11.804233158837008"><ele>636.0</ele><time>2026-03-29T12:06:34.011Z</time></trkpt><trkpt lat="42.64402097720717" lon="11.804180615032935"><ele>637.5</ele><time>2026-03-29T12:06:35.011Z</time></trkpt><trkpt lat="42.644126543757025" lon="11.804111142356202"><ele>639.0</ele><time>2026-03-29T12:06:36.011Z</time></trkpt><trkpt lat="42.644232152630565" lon="11.804046163152218"><ele>640.5</ele><time>2026-03-29T12:06:37.011Z</time></trkpt><trkpt lat="42.644302035057365" lon="11.803908509384465"><ele>642.0</ele><time>2026-03-29T12:06:38.011Z</time></trkpt><trkpt lat="42.644307802442924" lon="11.803737643447633"><ele>642.0</ele><time>2026-03-29T12:06:39.011Z</time></trkpt><trkpt lat="42.64430138046495" lon="11.803569980708286"><ele>642.0</ele><time>2026-03-29T12:06:40.011Z</time></trkpt><trkpt lat="42.64427999792354" lon="11.803385881074629"><ele>642.0</ele><time>2026-03-29T12:06:41.011Z</time></trkpt><trkpt lat="42.64427761024265" lon="11.8031898035107"><ele>642.0</ele><time>2026-03-29T12:06:42.011Z</time></trkpt><trkpt lat="42.64424850941606" lon="11.803018753189964"><ele>642.25</ele><time>2026-03-29T12:06:43.011Z</time></trkpt><trkpt lat="42.6442237246301" lon="11.802846134529352"><ele>642.5</ele><time>2026-03-29T12:06:44.011Z</time></trkpt><trkpt lat="42.644201083141795" lon="11.80266798093836"><ele>642.75</ele><time>2026-03-29T12:06:45.011Z</time></trkpt><trkpt lat="42.64417503154335" lon="11.802475612663843"><ele>643.0</ele><time>2026-03-29T12:06:46.011Z</time></trkpt><trkpt lat="42.64413863138275" lon="11.802289002233504"><ele>643.0</ele><time>2026-03-29T12:06:47.011Z</time></trkpt><trkpt lat="42.6440832791208" lon="11.802099049614288"><ele>643.0</ele><time>2026-03-29T12:06:48.011Z</time></trkpt><trkpt lat="42.644036964022256" lon="11.801923670379955"><ele>643.0</ele><time>2026-03-29T12:06:49.011Z</time></trkpt><trkpt lat="42.64399382327852" lon="11.801750698595608"><ele>643.0</ele><time>2026-03-29T12:06:50.011Z</time></trkpt><trkpt lat="42.64394609550685" lon="11.801582357093018"><ele>643.0</ele><time>2026-03-29T12:06:51.011Z</time></trkpt><trkpt lat="42.64388533104556" lon="11.801422826609977"><ele>643.0</ele><time>2026-03-29T12:06:52.011Z</time></trkpt><trkpt lat="42.64382219510092" lon="11.801268827463284"><ele>643.0</ele><time>2026-03-29T12:06:53.011Z</time></trkpt><trkpt lat="42.64376426815838" lon="11.801107402840135"><ele>643.0</ele><time>2026-03-29T12:06:54.011Z</time></trkpt><trkpt lat="42.64373133493438" lon="11.800913140028037"><ele>643.25</ele><time>2026-03-29T12:06:55.011Z</time></trkpt><trkpt lat="42.64372105028143" lon="11.800709485089286"><ele>643.5</ele><time>2026-03-29T12:06:56.011Z</time></trkpt><trkpt lat="42.643720002093076" lon="11.800509212717401"><ele>643.75</ele><time>2026-03-29T12:06:57.011Z</time></trkpt><trkpt lat="42.64372409457573" lon="11.800307427925864"><ele>644.0</ele><time>2026-03-29T12:06:58.011Z</time></trkpt><trkpt lat="42.64370852720631" lon="11.80011392762174"><ele>644.0</ele><time>2026-03-29T12:06:59.011Z</time></trkpt><trkpt lat="42.643675047027024" lon="11.799934338847699"><ele>644.0</ele><time>2026-03-29T12:07:00.011Z</time></trkpt><trkpt lat="42.643612606276854" lon="11.799773916998655"><ele>644.0</ele><time>2026-03-29T12:07:01.011Z</time></trkpt><trkpt lat="42.64354008429794" lon="11.799636908331056"><ele>644.0</ele><time>2026-03-29T12:07:02.011Z</time></trkpt><trkpt lat="42.64347172132849" lon="11.799507923322903"><ele>641.75</ele><time>2026-03-29T12:07:03.011Z</time></trkpt><trkpt lat="42.64343544387221" lon="11.799350312624005"><ele>639.5</ele><time>2026-03-29T12:07:04.011Z</time></trkpt><trkpt lat="42.643428906313005" lon="11.799179933152056"><ele>637.25</ele><time>2026-03-29T12:07:05.011Z</time></trkpt><trkpt lat="42.643437770653414" lon="11.799001354217982"><ele>635.0</ele><time>2026-03-29T12:07:06.011Z</time></trkpt><trkpt lat="42.643447813085494" lon="11.798822764927877"><ele>635.0</ele><time>2026-03-29T12:07:07.011Z</time></trkpt><trkpt lat="42.64346789514548" lon="11.798638327322989"><ele>635.0</ele><time>2026-03-29T12:07:08.011Z</time></trkpt><trkpt lat="42.643486104484964" lon="11.798464681038398"><ele>635.0</ele><time>2026-03-29T12:07:09.011Z</time></trkpt><trkpt lat="42.64351781539895" lon="11.798280831387883"><ele>635.0</ele><time>2026-03-29T12:07:10.011Z</time></trkpt><trkpt lat="42.64353457253728" lon="11.798089667776711"><ele>633.3333333333333</ele><time>2026-03-29T12:07:11.011Z</time></trkpt><trkpt lat="42.64354094052777" lon="11.797893933054931"><ele>631.6666666666666</ele><time>2026-03-29T12:07:12.011Z</time></trkpt><trkpt lat="42.64352269795994" lon="11.797678979477416"><ele>630.0</ele><time>2026-03-29T12:07:13.011Z</time></trkpt><trkpt lat="42.64346916783009" lon="11.797472185947136"><ele>628.0</ele><time>2026-03-29T12:07:14.011Z</time></trkpt><trkpt lat="42.64338284878217" lon="11.79728250128809"><ele>626.0</ele><time>2026-03-29T12:07:15.011Z</time></trkpt><trkpt lat="42.64328463489322" lon="11.797103104640472"><ele>624.0</ele><time>2026-03-29T12:07:16.011Z</time></trkpt><trkpt lat="42.64316549027193" lon="11.79693345054547"><ele>623.0</ele><time>2026-03-29T12:07:17.011Z</time></trkpt><trkpt lat="42.643027160968046" lon="11.796748038092078"><ele>622.0</ele><time>2026-03-29T12:07:18.011Z</time></trkpt><trkpt lat="42.64286815443479" lon="11.79655316611201"><ele>621.0</ele><time>2026-03-29T12:07:19.011Z</time></trkpt><trkpt lat="42.642683036309315" lon="11.796367702269036"><ele>618.0</ele><time>2026-03-29T12:07:20.011Z</time></trkpt><trkpt lat="42.64247714542671" lon="11.796185279403764"><ele>615.0</ele><time>2026-03-29T12:07:21.011Z</time></trkpt><trkpt lat="42.64228410144314" lon="11.795970391383754"><ele>615.0</ele><time>2026-03-29T12:07:22.011Z</time></trkpt><trkpt lat="42.64208932769301" lon="11.795778706828031"><ele>615.0</ele><time>2026-03-29T12:07:23.011Z</time></trkpt><trkpt lat="42.64189275173558" lon="11.7955810936937"><ele>613.0</ele><time>2026-03-29T12:07:24.011Z</time></trkpt><trkpt lat="42.641704063460914" lon="11.79538407235484"><ele>611.0</ele><time>2026-03-29T12:07:25.011Z</time></trkpt><trkpt lat="42.64152778353139" lon="11.795167021631688"><ele>611.0</ele><time>2026-03-29T12:07:26.011Z</time></trkpt><trkpt lat="42.64138100874094" lon="11.79492091040736"><ele>611.0</ele><time>2026-03-29T12:07:27.011Z</time></trkpt><trkpt lat="42.641249748563865" lon="11.794656772110548"><ele>611.5</ele><time>2026-03-29T12:07:28.01Z</time></trkpt><trkpt lat="42.641121862168525" lon="11.794395347363183"><ele>612.0</ele><time>2026-03-29T12:07:29.01Z</time></trkpt><trkpt lat="42.6409938013928" lon="11.79413110320247"><ele>613.5</ele><time>2026-03-29T12:07:30.01Z</time></trkpt><trkpt lat="42.640868172569945" lon="11.793869361451751"><ele>615.0</ele><time>2026-03-29T12:07:31.01Z</time></trkpt><trkpt lat="42.64074081801249" lon="11.793608739875074"><ele>614.0</ele><time>2026-03-29T12:07:32.01Z</time></trkpt><trkpt lat="42.640616340239504" lon="11.793351876125808"><ele>613.0</ele><time>2026-03-29T12:07:33.01Z</time></trkpt><trkpt lat="42.64049338455094" lon="11.793090851388323"><ele>613.0</ele><time>2026-03-29T12:07:34.01Z</time></trkpt><trkpt lat="42.64038022736694" lon="11.792812474355925"><ele>613.0</ele><time>2026-03-29T12:07:35.01Z</time></trkpt><trkpt lat="42.640288255864085" lon="11.792528959942466"><ele>610.5</ele><time>2026-03-29T12:07:36.01Z</time></trkpt><trkpt lat="42.64020619808735" lon="11.792231662789252"><ele>608.0</ele><time>2026-03-29T12:07:37.01Z</time></trkpt><trkpt lat="42.640129670373014" lon="11.791936420888332"><ele>607.6666666666666</ele><time>2026-03-29T12:07:38.01Z</time></trkpt><trkpt lat="42.64005735723618" lon="11.791653447203272"><ele>607.3333333333334</ele><time>2026-03-29T12:07:39.01Z</time></trkpt><trkpt lat="42.63998477367329" lon="11.791375119812564"><ele>607.0</ele><time>2026-03-29T12:07:40.01Z</time></trkpt><trkpt lat="42.63991318371577" lon="11.791100573968677"><ele>606.3333333333334</ele><time>2026-03-29T12:07:41.01Z</time></trkpt><trkpt lat="42.6398596007964" lon="11.79083715637322"><ele>605.6666666666666</ele><time>2026-03-29T12:07:42.01Z</time></trkpt><trkpt lat="42.639798792561585" lon="11.790591402461374"><ele>605.0</ele><time>2026-03-29T12:07:43.01Z</time></trkpt><trkpt lat="42.63974000350428" lon="11.790365146688124"><ele>606.3333333333333</ele><time>2026-03-29T12:07:44.01Z</time></trkpt><trkpt lat="42.63968168972084" lon="11.790155863379248"><ele>607.6666666666666</ele><time>2026-03-29T12:07:45.01Z</time></trkpt><trkpt lat="42.639676327932385" lon="11.78995406535487"><ele>609.0</ele><time>2026-03-29T12:07:46.01Z</time></trkpt><trkpt lat="42.63971012686368" lon="11.78976110787671"><ele>609.0</ele><time>2026-03-29T12:07:47.01Z</time></trkpt><trkpt lat="42.63977752739772" lon="11.789584410846278"><ele>609.0</ele><time>2026-03-29T12:07:48.01Z</time></trkpt><trkpt lat="42.63988173112071" lon="11.789408519685841"><ele>609.0</ele><time>2026-03-29T12:07:49.01Z</time></trkpt><trkpt lat="42.640014387568044" lon="11.789257530462798"><ele>608.0</ele><time>2026-03-29T12:07:50.01Z</time></trkpt><trkpt lat="42.640165031902036" lon="11.789117773405478"><ele>607.0</ele><time>2026-03-29T12:07:51.01Z</time></trkpt><trkpt lat="42.64032642355061" lon="11.788962800340846"><ele>606.0</ele><time>2026-03-29T12:07:52.01Z</time></trkpt><trkpt lat="42.640490739332755" lon="11.7888066102613"><ele>604.3333333333334</ele><time>2026-03-29T12:07:53.01Z</time></trkpt><trkpt lat="42.64064302922777" lon="11.788596779820102"><ele>602.6666666666667</ele><time>2026-03-29T12:07:54.012Z</time></trkpt><trkpt lat="42.640784909049685" lon="11.788364389514763"><ele>601.0</ele><time>2026-03-29T12:07:55.012Z</time></trkpt><trkpt lat="42.64092580586339" lon="11.788109134986442"><ele>598.5</ele><time>2026-03-29T12:07:56.012Z</time></trkpt><trkpt lat="42.64104931173531" lon="11.78782510252744"><ele>596.0</ele><time>2026-03-29T12:07:57.012Z</time></trkpt><trkpt lat="42.641177134705856" lon="11.78754891583591"><ele>593.0</ele><time>2026-03-29T12:07:58.012Z</time></trkpt><trkpt lat="42.641295271033066" lon="11.787263680087262"><ele>590.0</ele><time>2026-03-29T12:07:59.012Z</time></trkpt><trkpt lat="42.64140318573205" lon="11.786964507240144"><ele>590.0</ele><time>2026-03-29T12:08:00.012Z</time></trkpt><trkpt lat="42.64152092637904" lon="11.786674073337986"><ele>590.0</ele><time>2026-03-29T12:08:01.012Z</time></trkpt><trkpt lat="42.64160360848804" lon="11.786346134620864"><ele>590.0</ele><time>2026-03-29T12:08:02.012Z</time></trkpt><trkpt lat="42.641691614343046" lon="11.786025748175305"><ele>590.0</ele><time>2026-03-29T12:08:03.012Z</time></trkpt><trkpt lat="42.64177167479074" lon="11.785699052386166"><ele>586.0</ele><time>2026-03-29T12:08:04.012Z</time></trkpt><trkpt lat="42.64185182958919" lon="11.78537997165534"><ele>582.0</ele><time>2026-03-29T12:08:05.012Z</time></trkpt><trkpt lat="42.6419290120462" lon="11.785086300009505"><ele>583.5</ele><time>2026-03-29T12:08:06.012Z</time></trkpt><trkpt lat="42.64200790659863" lon="11.784790796866996"><ele>585.0</ele><time>2026-03-29T12:08:07.012Z</time></trkpt><trkpt lat="42.64209486969336" lon="11.784498149394382"><ele>583.5</ele><time>2026-03-29T12:08:08.012Z</time></trkpt><trkpt lat="42.64220721117407" lon="11.784225683582585"><ele>582.0</ele><time>2026-03-29T12:08:09.012Z</time></trkpt><trkpt lat="42.64231635942805" lon="11.783942810024206"><ele>582.0</ele><time>2026-03-29T12:08:10.012Z</time></trkpt><trkpt lat="42.64243852411662" lon="11.783659566420559"><ele>582.0</ele><time>2026-03-29T12:08:11.012Z</time></trkpt><trkpt lat="42.6425567817849" lon="11.783363224250149"><ele>578.5</ele><time>2026-03-29T12:08:12.012Z</time></trkpt><trkpt lat="42.64269099475143" lon="11.78308064646142"><ele>575.0</ele><time>2026-03-29T12:08:13.012Z</time></trkpt><trkpt lat="42.642843681496196" lon="11.782811246267629"><ele>572.5</ele><time>2026-03-29T12:08:14.012Z</time></trkpt><trkpt lat="42.6429821146263" lon="11.782538299326061"><ele>570.0</ele><time>2026-03-29T12:08:15.012Z</time></trkpt><trkpt lat="42.643118953644056" lon="11.782279225988495"><ele>570.0</ele><time>2026-03-29T12:08:16.012Z</time></trkpt><trkpt lat="42.643252889948855" lon="11.782032810519837"><ele>570.0</ele><time>2026-03-29T12:08:17.012Z</time></trkpt><trkpt lat="42.643389461977236" lon="11.781792048025261"><ele>570.0</ele><time>2026-03-29T12:08:18.012Z</time></trkpt><trkpt lat="42.643529536573936" lon="11.781551896439861"><ele>571.3333333333334</ele><time>2026-03-29T12:08:19.012Z</time></trkpt><trkpt lat="42.64367136152746" lon="11.781315813667273"><ele>572.6666666666667</ele><time>2026-03-29T12:08:20.012Z</time></trkpt><trkpt lat="42.643811935104786" lon="11.78109347238885"><ele>574.0</ele><time>2026-03-29T12:08:21.012Z</time></trkpt><trkpt lat="42.64396802966818" lon="11.780901608708438"><ele>574.3333333333334</ele><time>2026-03-29T12:08:22.012Z</time></trkpt><trkpt lat="42.64413912698482" lon="11.780735592936345"><ele>574.6666666666666</ele><time>2026-03-29T12:08:23.012Z</time></trkpt><trkpt lat="42.64431776573081" lon="11.780584138972705"><ele>575.0</ele><time>2026-03-29T12:08:24.012Z</time></trkpt><trkpt lat="42.644496535952" lon="11.78042235297556"><ele>572.6666666666666</ele><time>2026-03-29T12:08:25.012Z</time></trkpt><trkpt lat="42.644668570194504" lon="11.780243794444983"><ele>570.3333333333334</ele><time>2026-03-29T12:08:26.012Z</time></trkpt><trkpt lat="42.64482416936447" lon="11.780042833370693"><ele>568.0</ele><time>2026-03-29T12:08:27.012Z</time></trkpt><trkpt lat="42.64497189630035" lon="11.779815815215311"><ele>568.0</ele><time>2026-03-29T12:08:28.012Z</time></trkpt><trkpt lat="42.64507987721629" lon="11.779547113980623"><ele>568.0</ele><time>2026-03-29T12:08:29.012Z</time></trkpt><trkpt lat="42.645176251509895" lon="11.779234496648778"><ele>566.5</ele><time>2026-03-29T12:08:30.012Z</time></trkpt><trkpt lat="42.64527759381993" lon="11.778903503129024"><ele>565.0</ele><time>2026-03-29T12:08:31.012Z</time></trkpt><trkpt lat="42.64540800791308" lon="11.778551611260385"><ele>563.6666666666667</ele><time>2026-03-29T12:08:32.012Z</time></trkpt><trkpt lat="42.64535018797726" lon="11.778517573111879"><ele>562.3333333333334</ele><time>2026-03-29T12:08:33.012Z</time></trkpt><trkpt lat="42.64545666204354" lon="11.778281213624268"><ele>561.0</ele><time>2026-03-29T12:08:34.012Z</time></trkpt><trkpt lat="42.645567153942906" lon="11.77804485382662"><ele>561.0</ele><time>2026-03-29T12:08:35.012Z</time></trkpt><trkpt lat="42.64568453619883" lon="11.777814686532674"><ele>561.0</ele><time>2026-03-29T12:08:36.012Z</time></trkpt><trkpt lat="42.64581520748385" lon="11.77759517123101"><ele>561.0</ele><time>2026-03-29T12:08:37.012Z</time></trkpt><trkpt lat="42.64595861552172" lon="11.777399321516276"><ele>560.0</ele><time>2026-03-29T12:08:38.012Z</time></trkpt><trkpt lat="42.646109783121446" lon="11.777209278987648"><ele>559.0</ele><time>2026-03-29T12:08:39.012Z</time></trkpt><trkpt lat="42.646262184826305" lon="11.777011974242514"><ele>558.0</ele><time>2026-03-29T12:08:40.012Z</time></trkpt><trkpt lat="42.64640833070092" lon="11.776833988486635"><ele>555.6666666666666</ele><time>2026-03-29T12:08:41.012Z</time></trkpt><trkpt lat="42.64654950450839" lon="11.776659186508889"><ele>553.3333333333333</ele><time>2026-03-29T12:08:42.012Z</time></trkpt><trkpt lat="42.64668783444244" lon="11.776493944788637"><ele>551.0</ele><time>2026-03-29T12:08:43.012Z</time></trkpt><trkpt lat="42.6468269819294" lon="11.776333651211566"><ele>550.0</ele><time>2026-03-29T12:08:44.012Z</time></trkpt><trkpt lat="42.64696525652952" lon="11.776184095697642"><ele>549.0</ele><time>2026-03-29T12:08:45.012Z</time></trkpt><trkpt lat="42.647098555185536" lon="11.776045734722564"><ele>548.0</ele><time>2026-03-29T12:08:46.012Z</time></trkpt><trkpt lat="42.6472220413681" lon="11.775909991484037"><ele>548.0</ele><time>2026-03-29T12:08:47.012Z</time></trkpt><trkpt lat="42.64734170415346" lon="11.775782245783258"><ele>548.0</ele><time>2026-03-29T12:08:48.012Z</time></trkpt><trkpt lat="42.64744972615445" lon="11.775655128659649"><ele>548.0</ele><time>2026-03-29T12:08:49.011Z</time></trkpt><trkpt lat="42.647557946303586" lon="11.775540200937048"><ele>548.0</ele><time>2026-03-29T12:08:50.011Z</time></trkpt><trkpt lat="42.64766607056352" lon="11.77542112768319"><ele>548.0</ele><time>2026-03-29T12:08:51.011Z</time></trkpt><trkpt lat="42.64777635065702" lon="11.77529786691163"><ele>548.0</ele><time>2026-03-29T12:08:52.011Z</time></trkpt><trkpt lat="42.64788132187212" lon="11.77517335119144"><ele>548.0</ele><time>2026-03-29T12:08:53.011Z</time></trkpt><trkpt lat="42.64799047595232" lon="11.775052713058255"><ele>548.0</ele><time>2026-03-29T12:08:54.011Z</time></trkpt><trkpt lat="42.64809359030573" lon="11.77493653954396"><ele>547.0</ele><time>2026-03-29T12:08:55.011Z</time></trkpt><trkpt lat="42.64819498317349" lon="11.774837275257884"><ele>546.0</ele><time>2026-03-29T12:08:56.011Z</time></trkpt><trkpt lat="42.6482722894323" lon="11.77475124707673"><ele>545.0</ele><time>2026-03-29T12:08:57.011Z</time></trkpt><trkpt lat="42.64836668186961" lon="11.774640607409673"><ele>544.0</ele><time>2026-03-29T12:08:58.011Z</time></trkpt><trkpt lat="42.648444851196444" lon="11.774533222467326"><ele>544.0</ele><time>2026-03-29T12:08:59.011Z</time></trkpt><trkpt lat="42.64852227254918" lon="11.774434312056181"><ele>544.0</ele><time>2026-03-29T12:09:00.011Z</time></trkpt><trkpt lat="42.64860639085836" lon="11.774314030886584"><ele>544.0</ele><time>2026-03-29T12:09:01.011Z</time></trkpt><trkpt lat="42.64869012533768" lon="11.774192651819282"><ele>544.0</ele><time>2026-03-29T12:09:02.011Z</time></trkpt><trkpt lat="42.64877578254963" lon="11.774070435136728"><ele>541.75</ele><time>2026-03-29T12:09:03.011Z</time></trkpt><trkpt lat="42.64886092398916" lon="11.773954613924644"><ele>539.5</ele><time>2026-03-29T12:09:04.011Z</time></trkpt><trkpt lat="42.64894266703294" lon="11.773842531313152"><ele>537.25</ele><time>2026-03-29T12:09:05.011Z</time></trkpt><trkpt lat="42.649022950691105" lon="11.77372601786042"><ele>535.0</ele><time>2026-03-29T12:09:06.011Z</time></trkpt><trkpt lat="42.649101056764415" lon="11.773599840140333"><ele>534.5</ele><time>2026-03-29T12:09:07.011Z</time></trkpt><trkpt lat="42.6491818945319" lon="11.773478366084063"><ele>534.0</ele><time>2026-03-29T12:09:08.011Z</time></trkpt><trkpt lat="42.64926272134096" lon="11.773366908401673"><ele>533.5</ele><time>2026-03-29T12:09:09.011Z</time></trkpt><trkpt lat="42.64933893260481" lon="11.77326011113347"><ele>533.0</ele><time>2026-03-29T12:09:10.011Z</time></trkpt><trkpt lat="42.649421003065676" lon="11.773154167806284"><ele>532.0</ele><time>2026-03-29T12:09:11.011Z</time></trkpt><trkpt lat="42.64949757909325" lon="11.77304210416969"><ele>531.0</ele><time>2026-03-29T12:09:12.011Z</time></trkpt><trkpt lat="42.649574199316824" lon="11.772927535090892"><ele>530.0</ele><time>2026-03-29T12:09:13.011Z</time></trkpt><trkpt lat="42.64965406835569" lon="11.772815071823537"><ele>529.0</ele><time>2026-03-29T12:09:14.011Z</time></trkpt><trkpt lat="42.64973786212089" lon="11.772699429399898"><ele>528.75</ele><time>2026-03-29T12:09:15.011Z</time></trkpt><trkpt lat="42.64981997066915" lon="11.77257794787636"><ele>528.5</ele><time>2026-03-29T12:09:16.011Z</time></trkpt><trkpt lat="42.64989838366951" lon="11.772456078262193"><ele>528.25</ele><time>2026-03-29T12:09:17.011Z</time></trkpt><trkpt lat="42.649963306676106" lon="11.772324607430484"><ele>528.0</ele><time>2026-03-29T12:09:18.011Z</time></trkpt><trkpt lat="42.65003578257857" lon="11.772186588949058"><ele>528.0</ele><time>2026-03-29T12:09:19.011Z</time></trkpt><trkpt lat="42.65010188594025" lon="11.772056810083718"><ele>528.0</ele><time>2026-03-29T12:09:20.011Z</time></trkpt><trkpt lat="42.65017347341361" lon="11.771923353489736"><ele>528.0</ele><time>2026-03-29T12:09:21.011Z</time></trkpt><trkpt lat="42.65024545202956" lon="11.771796161041665"><ele>528.0</ele><time>2026-03-29T12:09:22.011Z</time></trkpt><trkpt lat="42.65030749976246" lon="11.771661189422588"><ele>525.5</ele><time>2026-03-29T12:09:23.011Z</time></trkpt><trkpt lat="42.650372856608435" lon="11.77152702076591"><ele>523.0</ele><time>2026-03-29T12:09:24.011Z</time></trkpt><trkpt lat="42.650446024259026" lon="11.771388100249975"><ele>520.5</ele><time>2026-03-29T12:09:25.011Z</time></trkpt><trkpt lat="42.650518840591126" lon="11.771248022589477"><ele>518.0</ele><time>2026-03-29T12:09:26.011Z</time></trkpt><trkpt lat="42.650582250228126" lon="11.77110596725412"><ele>518.5</ele><time>2026-03-29T12:09:27.011Z</time></trkpt><trkpt lat="42.65064473951975" lon="11.770964573605408"><ele>519.0</ele><time>2026-03-29T12:09:28.011Z</time></trkpt><trkpt lat="42.65071082074581" lon="11.770814383213239"><ele>519.5</ele><time>2026-03-29T12:09:29.011Z</time></trkpt><trkpt lat="42.650774306725424" lon="11.770678033053503"><ele>520.0</ele><time>2026-03-29T12:09:30.011Z</time></trkpt><trkpt lat="42.65083996677372" lon="11.770541064895552"><ele>520.0</ele><time>2026-03-29T12:09:31.011Z</time></trkpt><trkpt lat="42.65090428633322" lon="11.770401582036172"><ele>520.0</ele><time>2026-03-29T12:09:32.011Z</time></trkpt><trkpt lat="42.65096195233354" lon="11.770269705779038"><ele>520.0</ele><time>2026-03-29T12:09:33.011Z</time></trkpt><trkpt lat="42.65102175054609" lon="11.770146627246346"><ele>520.0</ele><time>2026-03-29T12:09:34.011Z</time></trkpt><trkpt lat="42.65107918741759" lon="11.770018463704881"><ele>519.6</ele><time>2026-03-29T12:09:35.011Z</time></trkpt><trkpt lat="42.65113670192778" lon="11.769899849446174"><ele>519.2</ele><time>2026-03-29T12:09:36.011Z</time></trkpt><trkpt lat="42.65119478365851" lon="11.769771728352053"><ele>518.8</ele><time>2026-03-29T12:09:37.011Z</time></trkpt><trkpt lat="42.65125678726837" lon="11.769645988049945"><ele>518.4</ele><time>2026-03-29T12:09:38.011Z</time></trkpt><trkpt lat="42.65132069905473" lon="11.76952143227747"><ele>518.0</ele><time>2026-03-29T12:09:39.011Z</time></trkpt><trkpt lat="42.65138002514719" lon="11.769391130383449"><ele>518.25</ele><time>2026-03-29T12:09:40.011Z</time></trkpt><trkpt lat="42.6514340895928" lon="11.7692574269653"><ele>518.5</ele><time>2026-03-29T12:09:41.011Z</time></trkpt><trkpt lat="42.65150173532917" lon="11.769127112440199"><ele>518.75</ele><time>2026-03-29T12:09:42.011Z</time></trkpt><trkpt lat="42.65157361934809" lon="11.768998456908015"><ele>519.0</ele><time>2026-03-29T12:09:43.011Z</time></trkpt><trkpt lat="42.651642893603345" lon="11.76886582703569"><ele>519.0</ele><time>2026-03-29T12:09:44.011Z</time></trkpt><trkpt lat="42.65171336978206" lon="11.768740443127065"><ele>519.0</ele><time>2026-03-29T12:09:45.011Z</time></trkpt><trkpt lat="42.65178022909074" lon="11.768613544119088"><ele>519.0</ele><time>2026-03-29T12:09:46.011Z</time></trkpt><trkpt lat="42.6518471301252" lon="11.76847558393854"><ele>519.0</ele><time>2026-03-29T12:09:47.011Z</time></trkpt><trkpt lat="42.65191895474835" lon="11.768333105980675"><ele>517.5</ele><time>2026-03-29T12:09:48.011Z</time></trkpt><trkpt lat="42.65199525811605" lon="11.768195974479676"><ele>516.0</ele><time>2026-03-29T12:09:49.011Z</time></trkpt><trkpt lat="42.65206982730217" lon="11.76805079569174"><ele>514.5</ele><time>2026-03-29T12:09:50.011Z</time></trkpt><trkpt lat="42.6521520171769" lon="11.767897824404335"><ele>513.0</ele><time>2026-03-29T12:09:51.011Z</time></trkpt><trkpt lat="42.6522371924201" lon="11.76773841792669"><ele>511.66666666666663</ele><time>2026-03-29T12:09:52.011Z</time></trkpt><trkpt lat="42.65232215109629" lon="11.767572019890558"><ele>510.3333333333333</ele><time>2026-03-29T12:09:53.011Z</time></trkpt><trkpt lat="42.65240628388586" lon="11.767405428642382"><ele>509.0</ele><time>2026-03-29T12:09:54.011Z</time></trkpt><trkpt lat="42.652496037498956" lon="11.7672284285951"><ele>509.0</ele><time>2026-03-29T12:09:55.011Z</time></trkpt><trkpt lat="42.652586708255335" lon="11.767051615727672"><ele>509.0</ele><time>2026-03-29T12:09:56.011Z</time></trkpt><trkpt lat="42.65267660159122" lon="11.766866903050463"><ele>509.0</ele><time>2026-03-29T12:09:57.01Z</time></trkpt><trkpt lat="42.6527714433818" lon="11.76667450166682"><ele>507.3333333333333</ele><time>2026-03-29T12:09:58.01Z</time></trkpt><trkpt lat="42.65284680391836" lon="11.766462762222831"><ele>505.66666666666663</ele><time>2026-03-29T12:09:59.01Z</time></trkpt><trkpt lat="42.65290111120011" lon="11.766228942746023"><ele>504.0</ele><time>2026-03-29T12:10:00.013Z</time></trkpt><trkpt lat="42.65294333872153" lon="11.765986430248255"><ele>504.0</ele><time>2026-03-29T12:10:01.013Z</time></trkpt><trkpt lat="42.652972932661996" lon="11.765734515864496"><ele>504.0</ele><time>2026-03-29T12:10:02.013Z</time></trkpt><trkpt lat="42.65300481801591" lon="11.765486461999418"><ele>504.0</ele><time>2026-03-29T12:10:03.013Z</time></trkpt><trkpt lat="42.653042933242936" lon="11.765228913194779"><ele>503.33333333333337</ele><time>2026-03-29T12:10:04.012Z</time></trkpt><trkpt lat="42.65309774104765" lon="11.764971487030154"><ele>502.6666666666667</ele><time>2026-03-29T12:10:05.012Z</time></trkpt><trkpt lat="42.65319084762937" lon="11.764721736430607"><ele>502.0</ele><time>2026-03-29T12:10:06.013Z</time></trkpt><trkpt lat="42.6532738374998" lon="11.764460984500085"><ele>499.6666666666667</ele><time>2026-03-29T12:10:07.013Z</time></trkpt><trkpt lat="42.65337009142887" lon="11.7642041467917"><ele>497.33333333333337</ele><time>2026-03-29T12:10:08.013Z</time></trkpt><trkpt lat="42.65346174466366" lon="11.763930010394528"><ele>495.0</ele><time>2026-03-29T12:10:09.013Z</time></trkpt><trkpt lat="42.653557588868225" lon="11.763658586847399"><ele>494.5</ele><time>2026-03-29T12:10:10.012Z</time></trkpt><trkpt lat="42.65364646147651" lon="11.763375678316933"><ele>494.0</ele><time>2026-03-29T12:10:11.012Z</time></trkpt><trkpt lat="42.65372214665142" lon="11.763078809285084"><ele>494.0</ele><time>2026-03-29T12:10:12.013Z</time></trkpt><trkpt lat="42.65377339296813" lon="11.762777085159097"><ele>494.0</ele><time>2026-03-29T12:10:13.013Z</time></trkpt><trkpt lat="42.653801666346716" lon="11.76246599479149"><ele>492.5</ele><time>2026-03-29T12:10:14.013Z</time></trkpt><trkpt lat="42.65380290815624" lon="11.762141331201272"><ele>491.0</ele><time>2026-03-29T12:10:15.013Z</time></trkpt><trkpt lat="42.65378983797564" lon="11.76182387672248"><ele>490.0</ele><time>2026-03-29T12:10:16.013Z</time></trkpt><trkpt lat="42.65375341510565" lon="11.761501076363903"><ele>489.0</ele><time>2026-03-29T12:10:17.013Z</time></trkpt><trkpt lat="42.65372048433829" lon="11.761176004313452"><ele>489.5</ele><time>2026-03-29T12:10:18.013Z</time></trkpt><trkpt lat="42.65368604282313" lon="11.760859461237729"><ele>490.0</ele><time>2026-03-29T12:10:19.013Z</time></trkpt><trkpt lat="42.65365359731089" lon="11.760542741322928"><ele>490.0</ele><time>2026-03-29T12:10:20.013Z</time></trkpt><trkpt lat="42.653623950735316" lon="11.760224426901024"><ele>490.0</ele><time>2026-03-29T12:10:21.013Z</time></trkpt><trkpt lat="42.653594386525455" lon="11.759915987652766"><ele>489.6666666666667</ele><time>2026-03-29T12:10:22.013Z</time></trkpt><trkpt lat="42.65356641806015" lon="11.759623055367879"><ele>489.33333333333337</ele><time>2026-03-29T12:10:23.013Z</time></trkpt><trkpt lat="42.65353665645778" lon="11.759333560122398"><ele>489.0</ele><time>2026-03-29T12:10:24.013Z</time></trkpt><trkpt lat="42.653493309327764" lon="11.759052083895558"><ele>489.0</ele><time>2026-03-29T12:10:25.013Z</time></trkpt><trkpt lat="42.65343416843225" lon="11.758788328219131"><ele>489.0</ele><time>2026-03-29T12:10:26.013Z</time></trkpt><trkpt lat="42.653363413106334" lon="11.758542738104937"><ele>489.0</ele><time>2026-03-29T12:10:27.013Z</time></trkpt><trkpt lat="42.653294937144445" lon="11.758309750613552"><ele>488.0</ele><time>2026-03-29T12:10:28.013Z</time></trkpt><trkpt lat="42.653240327506964" lon="11.758075261726535"><ele>487.0</ele><time>2026-03-29T12:10:29.013Z</time></trkpt><trkpt lat="42.65318606339424" lon="11.75784593955611"><ele>486.0</ele><time>2026-03-29T12:10:30.013Z</time></trkpt><trkpt lat="42.65313467170739" lon="11.757628068573858"><ele>485.6</ele><time>2026-03-29T12:10:31.013Z</time></trkpt><trkpt lat="42.65309876004754" lon="11.75744521510862"><ele>485.20000000000005</ele><time>2026-03-29T12:10:32.012Z</time></trkpt><trkpt lat="42.65307894766929" lon="11.757298660989969"><ele>484.79999999999995</ele><time>2026-03-29T12:10:33.012Z</time></trkpt><trkpt lat="42.65306375660317" lon="11.75717882058814"><ele>484.4</ele><time>2026-03-29T12:10:34.012Z</time></trkpt><trkpt lat="42.65307113691454" lon="11.757087203594216"><ele>484.0</ele><time>2026-03-29T12:10:35.012Z</time></trkpt><trkpt lat="42.65312997051159" lon="11.757001460437284"><ele>484.0</ele><time>2026-03-29T12:10:36.012Z</time></trkpt><trkpt lat="42.653171097596804" lon="11.756891727142618"><ele>484.0</ele><time>2026-03-29T12:10:37.012Z</time></trkpt><trkpt lat="42.65317518849458" lon="11.75676067733491"><ele>484.0</ele><time>2026-03-29T12:10:38.012Z</time></trkpt><trkpt lat="42.653201929510104" lon="11.756606753658737"><ele>484.0</ele><time>2026-03-29T12:10:39.012Z</time></trkpt><trkpt lat="42.65317947085622" lon="11.756420117142763"><ele>484.0</ele><time>2026-03-29T12:10:40.011Z</time></trkpt><trkpt lat="42.653224827154986" lon="11.756217422162635"><ele>482.33333333333337</ele><time>2026-03-29T12:10:41.011Z</time></trkpt><trkpt lat="42.653270330100646" lon="11.755988842660557"><ele>480.66666666666663</ele><time>2026-03-29T12:10:42.011Z</time></trkpt><trkpt lat="42.65329521617023" lon="11.75573487854085"><ele>479.0</ele><time>2026-03-29T12:10:43.011Z</time></trkpt><trkpt lat="42.653314776380896" lon="11.755465216184884"><ele>479.3333333333333</ele><time>2026-03-29T12:10:44.011Z</time></trkpt><trkpt lat="42.653341245685176" lon="11.755183877415927"><ele>479.66666666666663</ele><time>2026-03-29T12:10:45.011Z</time></trkpt><trkpt lat="42.65337388765606" lon="11.754893845859206"><ele>480.0</ele><time>2026-03-29T12:10:46.011Z</time></trkpt><trkpt lat="42.65340815821481" lon="11.754595075001157"><ele>480.5</ele><time>2026-03-29T12:10:47.011Z</time></trkpt><trkpt lat="42.653441388353116" lon="11.754293713456743"><ele>481.0</ele><time>2026-03-29T12:10:48.011Z</time></trkpt><trkpt lat="42.653473500366694" lon="11.753989466244354"><ele>481.0</ele><time>2026-03-29T12:10:49.011Z</time></trkpt><trkpt lat="42.65350435077837" lon="11.753686438685833"><ele>481.0</ele><time>2026-03-29T12:10:50.011Z</time></trkpt><trkpt lat="42.653532571108244" lon="11.753377350432096"><ele>480.0</ele><time>2026-03-29T12:10:51.011Z</time></trkpt><trkpt lat="42.65355871715875" lon="11.753071132443404"><ele>479.0</ele><time>2026-03-29T12:10:52.011Z</time></trkpt><trkpt lat="42.65356630292324" lon="11.752758594949526"><ele>478.3333333333333</ele><time>2026-03-29T12:10:53.011Z</time></trkpt><trkpt lat="42.65355575081346" lon="11.752451456774587"><ele>477.66666666666663</ele><time>2026-03-29T12:10:54.011Z</time></trkpt><trkpt lat="42.65352450317627" lon="11.75215463389789"><ele>477.0</ele><time>2026-03-29T12:10:55.011Z</time></trkpt><trkpt lat="42.6534735449838" lon="11.751867449484935"><ele>478.66666666666663</ele><time>2026-03-29T12:10:56.011Z</time></trkpt><trkpt lat="42.65340429869118" lon="11.751591985640113"><ele>480.3333333333333</ele><time>2026-03-29T12:10:57.011Z</time></trkpt><trkpt lat="42.6533127724202" lon="11.751328773432771"><ele>482.0</ele><time>2026-03-29T12:10:58.011Z</time></trkpt><trkpt lat="42.6531988860749" lon="11.751078734546963"><ele>483.0</ele><time>2026-03-29T12:10:59.011Z</time></trkpt><trkpt lat="42.653079891135135" lon="11.75082365431628"><ele>484.0</ele><time>2026-03-29T12:11:00.011Z</time></trkpt><trkpt lat="42.65295162047441" lon="11.750570454222204"><ele>485.0</ele><time>2026-03-29T12:11:01.011Z</time></trkpt><trkpt lat="42.65282994886037" lon="11.75031363503354"><ele>483.3333333333333</ele><time>2026-03-29T12:11:02.011Z</time></trkpt><trkpt lat="42.65271173224678" lon="11.750057230954914"><ele>481.66666666666663</ele><time>2026-03-29T12:11:03.011Z</time></trkpt><trkpt lat="42.65259669058923" lon="11.749799010462054"><ele>480.0</ele><time>2026-03-29T12:11:04.011Z</time></trkpt><trkpt lat="42.65247285533239" lon="11.749541326953919"><ele>481.5</ele><time>2026-03-29T12:11:05.011Z</time></trkpt><trkpt lat="42.6523461407148" lon="11.749277550139789"><ele>483.0</ele><time>2026-03-29T12:11:06.011Z</time></trkpt><trkpt lat="42.65221145318215" lon="11.74901267935068"><ele>483.0</ele><time>2026-03-29T12:11:07.011Z</time></trkpt><trkpt lat="42.652067621857874" lon="11.74875658671569"><ele>483.0</ele><time>2026-03-29T12:11:08.011Z</time></trkpt><trkpt lat="42.651912192355034" lon="11.74850926041072"><ele>481.5</ele><time>2026-03-29T12:11:09.011Z</time></trkpt><trkpt lat="42.65175642390303" lon="11.748266150641403"><ele>480.0</ele><time>2026-03-29T12:11:10.011Z</time></trkpt><trkpt lat="42.651597736842675" lon="11.74802948353873"><ele>480.0</ele><time>2026-03-29T12:11:11.011Z</time></trkpt><trkpt lat="42.651447480410255" lon="11.747795169030573"><ele>480.0</ele><time>2026-03-29T12:11:12.011Z</time></trkpt><trkpt lat="42.65130798003357" lon="11.747553680044701"><ele>480.0</ele><time>2026-03-29T12:11:13.011Z</time></trkpt><trkpt lat="42.65118158782746" lon="11.74730354162138"><ele>480.0</ele><time>2026-03-29T12:11:14.011Z</time></trkpt><trkpt lat="42.65106949193362" lon="11.747040164943728"><ele>480.0</ele><time>2026-03-29T12:11:15.011Z</time></trkpt><trkpt lat="42.6509730932987" lon="11.746768913055682"><ele>480.0</ele><time>2026-03-29T12:11:16.011Z</time></trkpt><trkpt lat="42.65090939739726" lon="11.746475115071584"><ele>480.0</ele><time>2026-03-29T12:11:17.011Z</time></trkpt><trkpt lat="42.650854048026616" lon="11.746165089587151"><ele>480.0</ele><time>2026-03-29T12:11:18.011Z</time></trkpt><trkpt lat="42.650793396196235" lon="11.745847127232233"><ele>480.0</ele><time>2026-03-29T12:11:19.011Z</time></trkpt><trkpt lat="42.65073119982109" lon="11.745522101831824"><ele>479.0</ele><time>2026-03-29T12:11:20.011Z</time></trkpt><trkpt lat="42.650665020698" lon="11.745190662012861"><ele>478.0</ele><time>2026-03-29T12:11:21.011Z</time></trkpt><trkpt lat="42.65060027647397" lon="11.744859062495307"><ele>478.0</ele><time>2026-03-29T12:11:22.011Z</time></trkpt><trkpt lat="42.65053657760386" lon="11.744521367799427"><ele>478.0</ele><time>2026-03-29T12:11:23.011Z</time></trkpt><trkpt lat="42.65047312765417" lon="11.744176826789792"><ele>477.5</ele><time>2026-03-29T12:11:24.011Z</time></trkpt><trkpt lat="42.65040626140288" lon="11.743829833468617"><ele>477.0</ele><time>2026-03-29T12:11:25.011Z</time></trkpt><trkpt lat="42.65033777645438" lon="11.74347532168396"><ele>476.0</ele><time>2026-03-29T12:11:26.011Z</time></trkpt><trkpt lat="42.650267463624616" lon="11.743114680179565"><ele>475.0</ele><time>2026-03-29T12:11:27.011Z</time></trkpt><trkpt lat="42.650199391758846" lon="11.742753309940237"><ele>474.0</ele><time>2026-03-29T12:11:28.011Z</time></trkpt><trkpt lat="42.65013062904795" lon="11.742400053517303"><ele>473.0</ele><time>2026-03-29T12:11:29.011Z</time></trkpt><trkpt lat="42.65006282735182" lon="11.742055824679838"><ele>472.5</ele><time>2026-03-29T12:11:30.011Z</time></trkpt><trkpt lat="42.649995529549386" lon="11.741718044340097"><ele>472.0</ele><time>2026-03-29T12:11:31.011Z</time></trkpt><trkpt lat="42.64993252377184" lon="11.74138333853097"><ele>472.0</ele><time>2026-03-29T12:11:32.011Z</time></trkpt><trkpt lat="42.64987529099689" lon="11.741051379439577"><ele>472.0</ele><time>2026-03-29T12:11:33.011Z</time></trkpt><trkpt lat="42.649826780524684" lon="11.740713631937341"><ele>470.5</ele><time>2026-03-29T12:11:34.011Z</time></trkpt><trkpt lat="42.64979838942659" lon="11.740370317446414"><ele>469.0</ele><time>2026-03-29T12:11:35.011Z</time></trkpt><trkpt lat="42.64978381496773" lon="11.740022922559406"><ele>468.5</ele><time>2026-03-29T12:11:36.011Z</time></trkpt><trkpt lat="42.64977141886046" lon="11.739665476206591"><ele>468.0</ele><time>2026-03-29T12:11:37.011Z</time></trkpt><trkpt lat="42.64975542034949" lon="11.739304070648817"><ele>465.0</ele><time>2026-03-29T12:11:38.011Z</time></trkpt><trkpt lat="42.649739241922916" lon="11.738933405861296"><ele>462.0</ele><time>2026-03-29T12:11:39.011Z</time></trkpt><trkpt lat="42.64972091224247" lon="11.73856139522745"><ele>460.5</ele><time>2026-03-29T12:11:40.011Z</time></trkpt><trkpt lat="42.64970317638006" lon="11.738187751141655"><ele>459.0</ele><time>2026-03-29T12:11:41.011Z</time></trkpt><trkpt lat="42.649684914476644" lon="11.737821012463625"><ele>458.0</ele><time>2026-03-29T12:11:42.011Z</time></trkpt><trkpt lat="42.649667471494595" lon="11.73747489729778"><ele>457.0</ele><time>2026-03-29T12:11:43.011Z</time></trkpt><trkpt lat="42.64965313674042" lon="11.73713811895513"><ele>456.0</ele><time>2026-03-29T12:11:44.011Z</time></trkpt><trkpt lat="42.64964093003934" lon="11.736819971267316"><ele>455.0</ele><time>2026-03-29T12:11:45.011Z</time></trkpt><trkpt lat="42.649620725790896" lon="11.736532266360813"><ele>454.0</ele><time>2026-03-29T12:11:46.01Z</time></trkpt><trkpt lat="42.64959042781166" lon="11.736279507080013"><ele>455.0</ele><time>2026-03-29T12:11:47.01Z</time></trkpt><trkpt lat="42.64952506750465" lon="11.736049615081571"><ele>456.0</ele><time>2026-03-29T12:11:48.009Z</time></trkpt><trkpt lat="42.6494309647887" lon="11.73583158048362"><ele>457.0</ele><time>2026-03-29T12:11:49.008Z</time></trkpt><trkpt lat="42.649323482998426" lon="11.735621544808376"><ele>457.0</ele><time>2026-03-29T12:11:50.008Z</time></trkpt><trkpt lat="42.64923352595387" lon="11.73539753552194"><ele>457.0</ele><time>2026-03-29T12:11:51.007Z</time></trkpt><trkpt lat="42.649195560539724" lon="11.735123499606471"><ele>457.0</ele><time>2026-03-29T12:11:52.007Z</time></trkpt><trkpt lat="42.64922229280803" lon="11.734809880895929"><ele>456.5</ele><time>2026-03-29T12:11:53.006Z</time></trkpt><trkpt lat="42.64928403007035" lon="11.734467820128827"><ele>456.0</ele><time>2026-03-29T12:11:54.005Z</time></trkpt><trkpt lat="42.64933961314132" lon="11.734084406963609"><ele>455.33333333333337</ele><time>2026-03-29T12:11:55.005Z</time></trkpt><trkpt lat="42.649291644169935" lon="11.73400185727541"><ele>454.6666666666667</ele><time>2026-03-29T12:11:56.005Z</time></trkpt><trkpt lat="42.649328984195854" lon="11.73364753559214"><ele>454.0</ele><time>2026-03-29T12:11:57.004Z</time></trkpt><trkpt lat="42.64936455445989" lon="11.733296902407531"><ele>454.0</ele><time>2026-03-29T12:11:58.004Z</time></trkpt><trkpt lat="42.649399951797506" lon="11.732959861447334"><ele>454.0</ele><time>2026-03-29T12:11:59.003Z</time></trkpt><trkpt lat="42.649435673269075" lon="11.73263759309534"><ele>454.0</ele><time>2026-03-29T12:12:00.003Z</time></trkpt><trkpt lat="42.64945343105432" lon="11.732321786987063"><ele>454.0</ele><time>2026-03-29T12:12:01.003Z</time></trkpt><trkpt lat="42.649487521278935" lon="11.732006830030379"><ele>455.5</ele><time>2026-03-29T12:12:02.002Z</time></trkpt><trkpt lat="42.649519239878046" lon="11.73168596623183"><ele>457.0</ele><time>2026-03-29T12:12:03.002Z</time></trkpt><trkpt lat="42.64954627334714" lon="11.731368222442834"><ele>455.0</ele><time>2026-03-29T12:12:04.002Z</time></trkpt><trkpt lat="42.649550393584185" lon="11.731043013949803"><ele>453.0</ele><time>2026-03-29T12:12:05.002Z</time></trkpt><trkpt lat="42.64953792958709" lon="11.730701572581355"><ele>453.0</ele><time>2026-03-29T12:12:06.004Z</time></trkpt><trkpt lat="42.64952984220034" lon="11.730354959309206"><ele>453.0</ele><time>2026-03-29T12:12:07.003Z</time></trkpt><trkpt lat="42.64953229627127" lon="11.730003660883616"><ele>452.0</ele><time>2026-03-29T12:12:08.003Z</time></trkpt><trkpt lat="42.64952437624199" lon="11.729651022946586"><ele>451.0</ele><time>2026-03-29T12:12:09.004Z</time></trkpt><trkpt lat="42.649520204380465" lon="11.729296265715195"><ele>451.0</ele><time>2026-03-29T12:12:10.003Z</time></trkpt><trkpt lat="42.649510948361936" lon="11.728942211423501"><ele>451.0</ele><time>2026-03-29T12:12:11.003Z</time></trkpt><trkpt lat="42.649503419908946" lon="11.728589872760592"><ele>449.5</ele><time>2026-03-29T12:12:12.003Z</time></trkpt><trkpt lat="42.649497423404405" lon="11.728241206541837"><ele>448.0</ele><time>2026-03-29T12:12:13.002Z</time></trkpt><trkpt lat="42.64948990835649" lon="11.727890789776074"><ele>446.5</ele><time>2026-03-29T12:12:14.002Z</time></trkpt><trkpt lat="42.64948808236489" lon="11.727546509481014"><ele>445.0</ele><time>2026-03-29T12:12:15.002Z</time></trkpt><trkpt lat="42.64948585449812" lon="11.727205523792877"><ele>444.0</ele><time>2026-03-29T12:12:16.002Z</time></trkpt><trkpt lat="42.64948246438945" lon="11.726865819643617"><ele>443.0</ele><time>2026-03-29T12:12:17.002Z</time></trkpt><trkpt lat="42.649478616015884" lon="11.726527520443625"><ele>443.0</ele><time>2026-03-29T12:12:18.002Z</time></trkpt><trkpt lat="42.649477448372664" lon="11.726191963070042"><ele>443.0</ele><time>2026-03-29T12:12:19.002Z</time></trkpt><trkpt lat="42.649472077731005" lon="11.725867736297882"><ele>442.5</ele><time>2026-03-29T12:12:20.002Z</time></trkpt><trkpt lat="42.64947070511728" lon="11.725535022606424"><ele>442.0</ele><time>2026-03-29T12:12:21.002Z</time></trkpt><trkpt lat="42.64947106180312" lon="11.72519801705051"><ele>441.0</ele><time>2026-03-29T12:12:22.002Z</time></trkpt><trkpt lat="42.64947385820792" lon="11.724859592625865"><ele>440.0</ele><time>2026-03-29T12:12:23.002Z</time></trkpt><trkpt lat="42.649471726968045" lon="11.724517547410198"><ele>438.5</ele><time>2026-03-29T12:12:24.002Z</time></trkpt><trkpt lat="42.6494743410483" lon="11.72417653475959"><ele>437.0</ele><time>2026-03-29T12:12:25.001Z</time></trkpt><trkpt lat="42.64947744232622" lon="11.7238366327288"><ele>436.5</ele><time>2026-03-29T12:12:26.001Z</time></trkpt><trkpt lat="42.64947544418536" lon="11.723510859082193"><ele>436.0</ele><time>2026-03-29T12:12:27.001Z</time></trkpt><trkpt lat="42.64947464555797" lon="11.723203869320685"><ele>436.0</ele><time>2026-03-29T12:12:28.001Z</time></trkpt><trkpt lat="42.6494692874405" lon="11.722903335008498"><ele>436.0</ele><time>2026-03-29T12:12:29.001Z</time></trkpt><trkpt lat="42.649445024600126" lon="11.72259734068801"><ele>436.0</ele><time>2026-03-29T12:12:30.001Z</time></trkpt><trkpt lat="42.64939969316662" lon="11.722292417601837"><ele>435.0</ele><time>2026-03-29T12:12:31.001Z</time></trkpt><trkpt lat="42.64933446839577" lon="11.721983796957101"><ele>434.0</ele><time>2026-03-29T12:12:32.001Z</time></trkpt><trkpt lat="42.64926600802131" lon="11.721674616786434"><ele>432.5</ele><time>2026-03-29T12:12:33.001Z</time></trkpt><trkpt lat="42.64922062708288" lon="11.721347647078215"><ele>431.0</ele><time>2026-03-29T12:12:34.001Z</time></trkpt><trkpt lat="42.649158691468415" lon="11.72103272796291"><ele>430.5</ele><time>2026-03-29T12:12:35.001Z</time></trkpt><trkpt lat="42.64909726762752" lon="11.720732933245165"><ele>430.0</ele><time>2026-03-29T12:12:36.001Z</time></trkpt><trkpt lat="42.64903965071966" lon="11.720438511213022"><ele>429.6666666666667</ele><time>2026-03-29T12:12:37.001Z</time></trkpt><trkpt lat="42.64898527627359" lon="11.720150027622486"><ele>429.33333333333337</ele><time>2026-03-29T12:12:38.001Z</time></trkpt><trkpt lat="42.64893330093121" lon="11.719862764847575"><ele>429.0</ele><time>2026-03-29T12:12:39.001Z</time></trkpt><trkpt lat="42.64888643546517" lon="11.719571499475318"><ele>427.0</ele><time>2026-03-29T12:12:40.001Z</time></trkpt><trkpt lat="42.64885595239305" lon="11.719261844849434"><ele>425.0</ele><time>2026-03-29T12:12:41.001Z</time></trkpt><trkpt lat="42.64883837017455" lon="11.718950640794251"><ele>425.0</ele><time>2026-03-29T12:12:42Z</time></trkpt><trkpt lat="42.648836359727746" lon="11.718626833147809"><ele>425.0</ele><time>2026-03-29T12:12:43Z</time></trkpt><trkpt lat="42.648832055035385" lon="11.7183041914036"><ele>422.0</ele><time>2026-03-29T12:12:44Z</time></trkpt><trkpt lat="42.648831284995836" lon="11.717986795226219"><ele>419.0</ele><time>2026-03-29T12:12:45Z</time></trkpt><trkpt lat="42.648840797432456" lon="11.717683958042416"><ele>417.3333333333333</ele><time>2026-03-29T12:12:46Z</time></trkpt><trkpt lat="42.64887372268259" lon="11.71740083771058"><ele>415.66666666666663</ele><time>2026-03-29T12:12:47Z</time></trkpt><trkpt lat="42.648934309379506" lon="11.717132514877378"><ele>414.0</ele><time>2026-03-29T12:12:48Z</time></trkpt><trkpt lat="42.64899009116404" lon="11.716872286722188"><ele>410.33333333333337</ele><time>2026-03-29T12:12:49Z</time></trkpt><trkpt lat="42.64902046391009" lon="11.716613694732093"><ele>406.6666666666667</ele><time>2026-03-29T12:12:50Z</time></trkpt><trkpt lat="42.64900025381475" lon="11.716331543205188"><ele>403.0</ele><time>2026-03-29T12:12:51Z</time></trkpt><trkpt lat="42.64896171486168" lon="11.716052712947384"><ele>402.0</ele><time>2026-03-29T12:12:52Z</time></trkpt><trkpt lat="42.64892212660766" lon="11.715744176099067"><ele>401.0</ele><time>2026-03-29T12:12:53Z</time></trkpt><trkpt lat="42.648879049845185" lon="11.715443412369716"><ele>401.66666666666663</ele><time>2026-03-29T12:12:54Z</time></trkpt><trkpt lat="42.64882622119686" lon="11.715148793596896"><ele>402.33333333333337</ele><time>2026-03-29T12:12:55Z</time></trkpt><trkpt lat="42.648744913674605" lon="11.714870262333346"><ele>403.0</ele><time>2026-03-29T12:12:56Z</time></trkpt><trkpt lat="42.648630301063605" lon="11.714609036671739"><ele>404.5</ele><time>2026-03-29T12:12:57Z</time></trkpt><trkpt lat="42.648490292507" lon="11.71434820531902"><ele>406.0</ele><time>2026-03-29T12:12:58Z</time></trkpt><trkpt lat="42.64833690154069" lon="11.714105581521181"><ele>406.0</ele><time>2026-03-29T12:12:59Z</time></trkpt><trkpt lat="42.64818780982721" lon="11.713869460498168"><ele>406.0</ele><time>2026-03-29T12:13:00Z</time></trkpt><trkpt lat="42.64806826366002" lon="11.713640664314816"><ele>406.0</ele><time>2026-03-29T12:13:01Z</time></trkpt><trkpt lat="42.64798619861755" lon="11.713435266520968"><ele>407.0</ele><time>2026-03-29T12:13:02Z</time></trkpt><trkpt lat="42.647930194271154" lon="11.713242623266147"><ele>408.0</ele><time>2026-03-29T12:13:03Z</time></trkpt><trkpt lat="42.64791072973274" lon="11.713033210671922"><ele>409.0</ele><time>2026-03-29T12:13:04Z</time></trkpt><trkpt lat="42.647928561226806" lon="11.712796692428252"><ele>408.6666666666667</ele><time>2026-03-29T12:13:05Z</time></trkpt><trkpt lat="42.6479720585581" lon="11.712534870188277"><ele>408.33333333333337</ele><time>2026-03-29T12:13:06Z</time></trkpt><trkpt lat="42.64798410631068" lon="11.71222405008715"><ele>408.0</ele><time>2026-03-29T12:13:07Z</time></trkpt><trkpt lat="42.64797088061023" lon="11.711921037801307"><ele>406.66666666666663</ele><time>2026-03-29T12:13:08Z</time></trkpt><trkpt lat="42.64793855278891" lon="11.711621022902925"><ele>405.3333333333333</ele><time>2026-03-29T12:13:09Z</time></trkpt><trkpt lat="42.647904488021595" lon="11.71132226599906"><ele>404.0</ele><time>2026-03-29T12:13:10Z</time></trkpt><trkpt lat="42.64788945546358" lon="11.711015180389227"><ele>403.3333333333333</ele><time>2026-03-29T12:13:11Z</time></trkpt><trkpt lat="42.647901235312695" lon="11.710717692423223"><ele>402.66666666666663</ele><time>2026-03-29T12:13:12Z</time></trkpt><trkpt lat="42.64793288940045" lon="11.710419151438241"><ele>402.0</ele><time>2026-03-29T12:13:13Z</time></trkpt><trkpt lat="42.64794946330581" lon="11.71010718173548"><ele>401.0</ele><time>2026-03-29T12:13:14Z</time></trkpt><trkpt lat="42.64793338202898" lon="11.709798009313849"><ele>400.0</ele><time>2026-03-29T12:13:15Z</time></trkpt><trkpt lat="42.647874127371765" lon="11.709496465796096"><ele>399.33333333333337</ele><time>2026-03-29T12:13:15.999Z</time></trkpt><trkpt lat="42.647803569158185" lon="11.709199218759018"><ele>398.66666666666663</ele><time>2026-03-29T12:13:16.999Z</time></trkpt><trkpt lat="42.64773686987429" lon="11.708926576189128"><ele>398.0</ele><time>2026-03-29T12:13:17.999Z</time></trkpt><trkpt lat="42.64766924341703" lon="11.70865601961716"><ele>397.66666666666663</ele><time>2026-03-29T12:13:18.999Z</time></trkpt><trkpt lat="42.64760946337444" lon="11.708378996373051"><ele>397.33333333333337</ele><time>2026-03-29T12:13:19.999Z</time></trkpt><trkpt lat="42.647555114298434" lon="11.708093675301129"><ele>397.0</ele><time>2026-03-29T12:13:20.999Z</time></trkpt><trkpt lat="42.647495937406" lon="11.707807732337582"><ele>396.0</ele><time>2026-03-29T12:13:21.999Z</time></trkpt><trkpt lat="42.647437825683426" lon="11.707520668717112"><ele>395.0</ele><time>2026-03-29T12:13:22.999Z</time></trkpt><trkpt lat="42.647380085584" lon="11.70723358583645"><ele>394.0</ele><time>2026-03-29T12:13:23.999Z</time></trkpt><trkpt lat="42.647320720305686" lon="11.706946313746833"><ele>392.6666666666667</ele><time>2026-03-29T12:13:24.999Z</time></trkpt><trkpt lat="42.647260608978115" lon="11.706659569082253"><ele>391.33333333333337</ele><time>2026-03-29T12:13:25.999Z</time></trkpt><trkpt lat="42.64720035714135" lon="11.706369238548206"><ele>390.0</ele><time>2026-03-29T12:13:26.999Z</time></trkpt><trkpt lat="42.64714772247491" lon="11.706091746221235"><ele>389.0</ele><time>2026-03-29T12:13:27.999Z</time></trkpt><trkpt lat="42.647093119616166" lon="11.705797391481319"><ele>388.0</ele><time>2026-03-29T12:13:28.999Z</time></trkpt><trkpt lat="42.64703397034361" lon="11.705501954535686"><ele>387.0</ele><time>2026-03-29T12:13:29.999Z</time></trkpt><trkpt lat="42.646971522381" lon="11.70520730999094"><ele>385.5</ele><time>2026-03-29T12:13:30.999Z</time></trkpt><trkpt lat="42.646910419521994" lon="11.704913859549887"><ele>384.0</ele><time>2026-03-29T12:13:31.999Z</time></trkpt><trkpt lat="42.646849741676355" lon="11.704613533168999"><ele>383.0</ele><time>2026-03-29T12:13:32.999Z</time></trkpt><trkpt lat="42.64679165734429" lon="11.704311045667117"><ele>382.0</ele><time>2026-03-29T12:13:33.999Z</time></trkpt><trkpt lat="42.646731976008304" lon="11.704004939576148"><ele>382.0</ele><time>2026-03-29T12:13:34.999Z</time></trkpt><trkpt lat="42.64668192550089" lon="11.7036900091324"><ele>382.0</ele><time>2026-03-29T12:13:35.999Z</time></trkpt><trkpt lat="42.646624296312424" lon="11.70337125327767"><ele>381.0</ele><time>2026-03-29T12:13:36.999Z</time></trkpt><trkpt lat="42.64656700948041" lon="11.703054803965301"><ele>380.0</ele><time>2026-03-29T12:13:37.999Z</time></trkpt><trkpt lat="42.646511388152526" lon="11.70273828525026"><ele>379.5</ele><time>2026-03-29T12:13:38.999Z</time></trkpt><trkpt lat="42.646457121323266" lon="11.702426069388059"><ele>379.0</ele><time>2026-03-29T12:13:39.999Z</time></trkpt><trkpt lat="42.64640465416165" lon="11.702117920826346"><ele>378.5</ele><time>2026-03-29T12:13:40.999Z</time></trkpt><trkpt lat="42.6463496893571" lon="11.701812174476803"><ele>378.0</ele><time>2026-03-29T12:13:41.999Z</time></trkpt><trkpt lat="42.64629071600386" lon="11.701506962412973"><ele>378.0</ele><time>2026-03-29T12:13:42.999Z</time></trkpt><trkpt lat="42.646252262783776" lon="11.701193235019804"><ele>378.0</ele><time>2026-03-29T12:13:43.999Z</time></trkpt><trkpt lat="42.64618881455401" lon="11.700895693542604"><ele>374.0</ele><time>2026-03-29T12:13:44.999Z</time></trkpt><trkpt lat="42.64611457514025" lon="11.700601057302103"><ele>370.0</ele><time>2026-03-29T12:13:45.999Z</time></trkpt><trkpt lat="42.64603745513533" lon="11.700309148161162"><ele>371.66666666666663</ele><time>2026-03-29T12:13:46.999Z</time></trkpt><trkpt lat="42.64595859823082" lon="11.700021955419803"><ele>373.3333333333333</ele><time>2026-03-29T12:13:47.999Z</time></trkpt><trkpt lat="42.64588737433697" lon="11.699757256732358"><ele>375.0</ele><time>2026-03-29T12:13:48.999Z</time></trkpt><trkpt lat="42.64581526499669" lon="11.699504470421243"><ele>374.3333333333333</ele><time>2026-03-29T12:13:49.999Z</time></trkpt><trkpt lat="42.64575068465086" lon="11.699242947802018"><ele>373.66666666666663</ele><time>2026-03-29T12:13:50.999Z</time></trkpt><trkpt lat="42.64567891293866" lon="11.699007117170673"><ele>373.0</ele><time>2026-03-29T12:13:51.999Z</time></trkpt><trkpt lat="42.64558600846856" lon="11.698795275417366"><ele>373.0</ele><time>2026-03-29T12:13:52.999Z</time></trkpt><trkpt lat="42.64545895841006" lon="11.698620410300359"><ele>373.0</ele><time>2026-03-29T12:13:53.999Z</time></trkpt><trkpt lat="42.64531269978323" lon="11.698475585638707"><ele>373.0</ele><time>2026-03-29T12:13:54.999Z</time></trkpt><trkpt lat="42.645151393821166" lon="11.698345618718344"><ele>373.3333333333333</ele><time>2026-03-29T12:13:55.999Z</time></trkpt><trkpt lat="42.644978463859374" lon="11.698218695162305"><ele>373.6666666666667</ele><time>2026-03-29T12:13:56.999Z</time></trkpt><trkpt lat="42.644817186141516" lon="11.698089201992639"><ele>374.0</ele><time>2026-03-29T12:13:57.999Z</time></trkpt><trkpt lat="42.64467746101094" lon="11.697958569735018"><ele>374.0</ele><time>2026-03-29T12:13:58.999Z</time></trkpt><trkpt lat="42.64454841065944" lon="11.69780190930099"><ele>374.0</ele><time>2026-03-29T12:13:59.999Z</time></trkpt><trkpt lat="42.64443211345167" lon="11.697622835831924"><ele>374.0</ele><time>2026-03-29T12:14:00.999Z</time></trkpt><trkpt lat="42.644352943889665" lon="11.697385403327052"><ele>372.6666666666667</ele><time>2026-03-29T12:14:01.999Z</time></trkpt><trkpt lat="42.64426532966757" lon="11.697128595810009"><ele>371.3333333333333</ele><time>2026-03-29T12:14:02.999Z</time></trkpt><trkpt lat="42.64419959294886" lon="11.696864352621917"><ele>370.0</ele><time>2026-03-29T12:14:03.998Z</time></trkpt><trkpt lat="42.64415831850322" lon="11.696583099080144"><ele>370.0</ele><time>2026-03-29T12:14:04.998Z</time></trkpt><trkpt lat="42.64411983364089" lon="11.696302640282566"><ele>370.0</ele><time>2026-03-29T12:14:05.998Z</time></trkpt><trkpt lat="42.644104654029185" lon="11.696015916822944"><ele>370.0</ele><time>2026-03-29T12:14:06.998Z</time></trkpt><trkpt lat="42.644067705219065" lon="11.695740325769618"><ele>370.3333333333333</ele><time>2026-03-29T12:14:07.998Z</time></trkpt><trkpt lat="42.64399494209767" lon="11.695462645840612"><ele>370.6666666666667</ele><time>2026-03-29T12:14:08.998Z</time></trkpt><trkpt lat="42.64389483891118" lon="11.695198853410716"><ele>371.0</ele><time>2026-03-29T12:14:09.998Z</time></trkpt><trkpt lat="42.643783605690246" lon="11.694932480082782"><ele>370.33333333333337</ele><time>2026-03-29T12:14:10.998Z</time></trkpt><trkpt lat="42.64366490965423" lon="11.694673031384959"><ele>369.6666666666667</ele><time>2026-03-29T12:14:12.001Z</time></trkpt><trkpt lat="42.643562979790936" lon="11.6944103683458"><ele>369.0</ele><time>2026-03-29T12:14:13.001Z</time></trkpt><trkpt lat="42.64343251221544" lon="11.694151962123867"><ele>369.0</ele><time>2026-03-29T12:14:14.001Z</time></trkpt><trkpt lat="42.6433214453579" lon="11.693872258710732"><ele>369.0</ele><time>2026-03-29T12:14:15.001Z</time></trkpt><trkpt lat="42.64321417488473" lon="11.693595314382637"><ele>368.5</ele><time>2026-03-29T12:14:16.001Z</time></trkpt><trkpt lat="42.643108797206985" lon="11.693312081179602"><ele>368.0</ele><time>2026-03-29T12:14:17.001Z</time></trkpt><trkpt lat="42.64300871820455" lon="11.693032568116658"><ele>368.0</ele><time>2026-03-29T12:14:18.001Z</time></trkpt><trkpt lat="42.64290587323391" lon="11.692761570053271"><ele>368.0</ele><time>2026-03-29T12:14:19Z</time></trkpt><trkpt lat="42.64280067467457" lon="11.692502718477826"><ele>368.0</ele><time>2026-03-29T12:14:20Z</time></trkpt><trkpt lat="42.64269998895259" lon="11.692256748652294"><ele>367.33333333333337</ele><time>2026-03-29T12:14:21.001Z</time></trkpt><trkpt lat="42.64260687302619" lon="11.692013667306158"><ele>366.6666666666667</ele><time>2026-03-29T12:14:22.001Z</time></trkpt><trkpt lat="42.64252286772078" lon="11.691758398248188"><ele>366.0</ele><time>2026-03-29T12:14:23.001Z</time></trkpt><trkpt lat="42.642445455749325" lon="11.691493274596096"><ele>365.0</ele><time>2026-03-29T12:14:24Z</time></trkpt><trkpt lat="42.6423754187625" lon="11.691214222716857"><ele>364.0</ele><time>2026-03-29T12:14:25Z</time></trkpt><trkpt lat="42.64230741757611" lon="11.690935101289316"><ele>363.0</ele><time>2026-03-29T12:14:26Z</time></trkpt><trkpt lat="42.64222312267932" lon="11.690662403398093"><ele>363.0</ele><time>2026-03-29T12:14:27Z</time></trkpt><trkpt lat="42.64212858392033" lon="11.690399649620332"><ele>363.0</ele><time>2026-03-29T12:14:28Z</time></trkpt><trkpt lat="42.64202875907813" lon="11.690152172017596"><ele>363.0</ele><time>2026-03-29T12:14:29Z</time></trkpt><trkpt lat="42.641927811616846" lon="11.689900118692556"><ele>363.0</ele><time>2026-03-29T12:14:30Z</time></trkpt><trkpt lat="42.641832937962135" lon="11.68965139460268"><ele>363.0</ele><time>2026-03-29T12:14:31Z</time></trkpt><trkpt lat="42.64174190304899" lon="11.68941701523076"><ele>363.0</ele><time>2026-03-29T12:14:32Z</time></trkpt><trkpt lat="42.6416561843435" lon="11.689166613030729"><ele>363.0</ele><time>2026-03-29T12:14:33Z</time></trkpt><trkpt lat="42.64157405211596" lon="11.68892518981791"><ele>363.0</ele><time>2026-03-29T12:14:34Z</time></trkpt><trkpt lat="42.641501232811734" lon="11.688660653429602"><ele>363.0</ele><time>2026-03-29T12:14:35Z</time></trkpt><trkpt lat="42.64143599218157" lon="11.688385071512018"><ele>362.6666666666667</ele><time>2026-03-29T12:14:36Z</time></trkpt><trkpt lat="42.641372370189565" lon="11.68809694884697"><ele>362.33333333333337</ele><time>2026-03-29T12:14:37Z</time></trkpt><trkpt lat="42.641307060010924" lon="11.68781719608167"><ele>362.0</ele><time>2026-03-29T12:14:38Z</time></trkpt><trkpt lat="42.641242152835645" lon="11.687541472577964"><ele>362.0</ele><time>2026-03-29T12:14:39Z</time></trkpt><trkpt lat="42.64118302306232" lon="11.687257505193887"><ele>362.0</ele><time>2026-03-29T12:14:40Z</time></trkpt><trkpt lat="42.641119292659724" lon="11.686972170515821"><ele>362.0</ele><time>2026-03-29T12:14:41Z</time></trkpt><trkpt lat="42.64105648176784" lon="11.686689917057537"><ele>361.0</ele><time>2026-03-29T12:14:42Z</time></trkpt><trkpt lat="42.64099567452146" lon="11.686395338069929"><ele>360.0</ele><time>2026-03-29T12:14:43Z</time></trkpt><trkpt lat="42.64093838681892" lon="11.686108575914439"><ele>359.0</ele><time>2026-03-29T12:14:44Z</time></trkpt><trkpt lat="42.640872029840544" lon="11.685824245432359"><ele>358.0</ele><time>2026-03-29T12:14:45Z</time></trkpt><trkpt lat="42.64080338214552" lon="11.685547365981106"><ele>357.0</ele><time>2026-03-29T12:14:46Z</time></trkpt><trkpt lat="42.64073877359465" lon="11.685284549647113"><ele>356.0</ele><time>2026-03-29T12:14:47Z</time></trkpt><trkpt lat="42.64067910012023" lon="11.685022997779136"><ele>355.33333333333337</ele><time>2026-03-29T12:14:48Z</time></trkpt><trkpt lat="42.64062090998479" lon="11.684770430354176"><ele>354.6666666666667</ele><time>2026-03-29T12:14:49Z</time></trkpt><trkpt lat="42.64056956675521" lon="11.684527471143928"><ele>354.0</ele><time>2026-03-29T12:14:50Z</time></trkpt><trkpt lat="42.640524205675526" lon="11.684281996622799"><ele>352.3333333333333</ele><time>2026-03-29T12:14:51Z</time></trkpt><trkpt lat="42.64048696049388" lon="11.684057662663351"><ele>350.66666666666663</ele><time>2026-03-29T12:14:52Z</time></trkpt><trkpt lat="42.640477483503304" lon="11.683851973894821"><ele>349.0</ele><time>2026-03-29T12:14:53Z</time></trkpt><trkpt lat="42.64052608701877" lon="11.68363300761191"><ele>348.3333333333333</ele><time>2026-03-29T12:14:54Z</time></trkpt><trkpt lat="42.64055903343572" lon="11.683368555432322"><ele>347.6666666666667</ele><time>2026-03-29T12:14:55Z</time></trkpt><trkpt lat="42.640562181542364" lon="11.683114444859076"><ele>347.0</ele><time>2026-03-29T12:14:56Z</time></trkpt><trkpt lat="42.6405454961349" lon="11.682871206307656"><ele>347.6666666666667</ele><time>2026-03-29T12:14:57Z</time></trkpt><trkpt lat="42.64047689353084" lon="11.682645507554762"><ele>348.3333333333333</ele><time>2026-03-29T12:14:58Z</time></trkpt><trkpt lat="42.6403795360894" lon="11.682437534947018"><ele>349.0</ele><time>2026-03-29T12:14:59Z</time></trkpt><trkpt lat="42.640259427895224" lon="11.682259177192824"><ele>349.0</ele><time>2026-03-29T12:15:00Z</time></trkpt><trkpt lat="42.64012702568159" lon="11.682077975882672"><ele>349.0</ele><time>2026-03-29T12:15:01Z</time></trkpt><trkpt lat="42.63999767753919" lon="11.68188928999104"><ele>349.0</ele><time>2026-03-29T12:15:02Z</time></trkpt><trkpt lat="42.63988283976829" lon="11.681671361105131"><ele>346.66666666666663</ele><time>2026-03-29T12:15:03Z</time></trkpt><trkpt lat="42.63975219362103" lon="11.681501117217305"><ele>344.3333333333333</ele><time>2026-03-29T12:15:04Z</time></trkpt><trkpt lat="42.639647348039105" lon="11.681323925750805"><ele>342.0</ele><time>2026-03-29T12:15:04.999Z</time></trkpt><trkpt lat="42.63955517354172" lon="11.681155435950986"><ele>343.0</ele><time>2026-03-29T12:15:05.999Z</time></trkpt><trkpt lat="42.6394805966744" lon="11.681056225693565"><ele>344.0</ele><time>2026-03-29T12:15:06.999Z</time></trkpt><trkpt lat="42.63937481104483" lon="11.680869321120971"><ele>345.0</ele><time>2026-03-29T12:15:07.999Z</time></trkpt><trkpt lat="42.63932142703775" lon="11.680793038430565"><ele>346.0</ele><time>2026-03-29T12:15:08.999Z</time></trkpt><trkpt lat="42.63924271320736" lon="11.680615483796455"><ele>346.0</ele><time>2026-03-29T12:15:09.999Z</time></trkpt><trkpt lat="42.63918326613753" lon="11.680431946808998"><ele>346.0</ele><time>2026-03-29T12:15:10.999Z</time></trkpt><trkpt lat="42.63914926515943" lon="11.68024160660085"><ele>346.0</ele><time>2026-03-29T12:15:11.999Z</time></trkpt><trkpt lat="42.639118184694034" lon="11.680046241967249"><ele>346.0</ele><time>2026-03-29T12:15:12.999Z</time></trkpt><trkpt lat="42.63908439796552" lon="11.679865272876567"><ele>345.25</ele><time>2026-03-29T12:15:13.999Z</time></trkpt><trkpt lat="42.63903683350176" lon="11.679689788352896"><ele>344.5</ele><time>2026-03-29T12:15:14.999Z</time></trkpt><trkpt lat="42.63897915112194" lon="11.679514647658227"><ele>343.75</ele><time>2026-03-29T12:15:15.999Z</time></trkpt><trkpt lat="42.638918212134236" lon="11.679354978698953"><ele>343.0</ele><time>2026-03-29T12:15:16.999Z</time></trkpt><trkpt lat="42.638849550895294" lon="11.679190162759456"><ele>343.25</ele><time>2026-03-29T12:15:17.999Z</time></trkpt><trkpt lat="42.63878328117772" lon="11.679027471824467"><ele>343.5</ele><time>2026-03-29T12:15:18.999Z</time></trkpt><trkpt lat="42.63871574945945" lon="11.678865163485368"><ele>343.75</ele><time>2026-03-29T12:15:19.999Z</time></trkpt><trkpt lat="42.63865324510904" lon="11.678701438659242"><ele>344.0</ele><time>2026-03-29T12:15:20.999Z</time></trkpt><trkpt lat="42.638595864180914" lon="11.678540320456305"><ele>344.0</ele><time>2026-03-29T12:15:21.999Z</time></trkpt><trkpt lat="42.63853738192929" lon="11.67838396185666"><ele>344.0</ele><time>2026-03-29T12:15:22.999Z</time></trkpt><trkpt lat="42.63847738323997" lon="11.678230903191807"><ele>344.0</ele><time>2026-03-29T12:15:23.999Z</time></trkpt><trkpt lat="42.638416179101924" lon="11.678084081342375"><ele>344.0</ele><time>2026-03-29T12:15:24.999Z</time></trkpt><trkpt lat="42.6383668512249" lon="11.67793902513669"><ele>344.0</ele><time>2026-03-29T12:15:25.999Z</time></trkpt><trkpt lat="42.638329236372506" lon="11.677780565349574"><ele>344.0</ele><time>2026-03-29T12:15:26.999Z</time></trkpt><trkpt lat="42.638306073010995" lon="11.677627529468138"><ele>344.0</ele><time>2026-03-29T12:15:27.999Z</time></trkpt><trkpt lat="42.638292942548006" lon="11.677473451148572"><ele>344.0</ele><time>2026-03-29T12:15:28.999Z</time></trkpt><trkpt lat="42.63826567661423" lon="11.677317716905899"><ele>343.0</ele><time>2026-03-29T12:15:29.999Z</time></trkpt><trkpt lat="42.63822907674416" lon="11.677166132981005"><ele>342.0</ele><time>2026-03-29T12:15:30.999Z</time></trkpt><trkpt lat="42.6381701648307" lon="11.677010329154811"><ele>341.0</ele><time>2026-03-29T12:15:31.999Z</time></trkpt><trkpt lat="42.63810990930806" lon="11.676849327034915"><ele>340.0</ele><time>2026-03-29T12:15:32.999Z</time></trkpt><trkpt lat="42.638049268825085" lon="11.676694870550438"><ele>338.5</ele><time>2026-03-29T12:15:33.999Z</time></trkpt><trkpt lat="42.63798814434351" lon="11.676541166829391"><ele>337.0</ele><time>2026-03-29T12:15:34.999Z</time></trkpt><trkpt lat="42.637928033139026" lon="11.676385994153753"><ele>335.5</ele><time>2026-03-29T12:15:35.999Z</time></trkpt><trkpt lat="42.637864669857834" lon="11.676233605090635"><ele>334.0</ele><time>2026-03-29T12:15:36.999Z</time></trkpt><trkpt lat="42.63779548314257" lon="11.676084950307027"><ele>334.0</ele><time>2026-03-29T12:15:37.999Z</time></trkpt><trkpt lat="42.63771246091682" lon="11.675944984482351"><ele>334.0</ele><time>2026-03-29T12:15:38.999Z</time></trkpt><trkpt lat="42.637603057261764" lon="11.675839358898227"><ele>334.0</ele><time>2026-03-29T12:15:39.999Z</time></trkpt><trkpt lat="42.637480455522976" lon="11.675795908099067"><ele>334.0</ele><time>2026-03-29T12:15:40.999Z</time></trkpt><trkpt lat="42.63734730975171" lon="11.675772359865682"><ele>334.0</ele><time>2026-03-29T12:15:41.999Z</time></trkpt><trkpt lat="42.637223812068406" lon="11.67568247916654"><ele>334.0</ele><time>2026-03-29T12:15:42.999Z</time></trkpt><trkpt lat="42.637120752696525" lon="11.675562635317977"><ele>334.0</ele><time>2026-03-29T12:15:43.999Z</time></trkpt><trkpt lat="42.63702507831164" lon="11.675420410391737"><ele>334.0</ele><time>2026-03-29T12:15:44.999Z</time></trkpt><trkpt lat="42.63692850325091" lon="11.675305263474879"><ele>333.5</ele><time>2026-03-29T12:15:45.999Z</time></trkpt><trkpt lat="42.636829378244" lon="11.675161151834933"><ele>333.0</ele><time>2026-03-29T12:15:46.999Z</time></trkpt><trkpt lat="42.63672841947361" lon="11.675023695629756"><ele>332.5</ele><time>2026-03-29T12:15:47.999Z</time></trkpt><trkpt lat="42.63663292501793" lon="11.674876102771472"><ele>332.0</ele><time>2026-03-29T12:15:48.999Z</time></trkpt><trkpt lat="42.63653169956034" lon="11.674725937845606"><ele>332.0</ele><time>2026-03-29T12:15:49.999Z</time></trkpt><trkpt lat="42.636435627010414" lon="11.674587840228432"><ele>332.0</ele><time>2026-03-29T12:15:50.999Z</time></trkpt><trkpt lat="42.636331525472606" lon="11.674456300047808"><ele>332.0</ele><time>2026-03-29T12:15:51.999Z</time></trkpt><trkpt lat="42.636229814061835" lon="11.674317749445834"><ele>332.0</ele><time>2026-03-29T12:15:52.998Z</time></trkpt><trkpt lat="42.636134571113004" lon="11.674183419839416"><ele>332.75</ele><time>2026-03-29T12:15:53.998Z</time></trkpt><trkpt lat="42.636044583854364" lon="11.674053696667716"><ele>333.5</ele><time>2026-03-29T12:15:54.998Z</time></trkpt><trkpt lat="42.63595160704815" lon="11.673916677281404"><ele>334.25</ele><time>2026-03-29T12:15:55.998Z</time></trkpt><trkpt lat="42.635865228477925" lon="11.673785358020465"><ele>335.0</ele><time>2026-03-29T12:15:56.998Z</time></trkpt><trkpt lat="42.63577974162622" lon="11.673654292754641"><ele>334.25</ele><time>2026-03-29T12:15:57.998Z</time></trkpt><trkpt lat="42.635696894431355" lon="11.673535368373457"><ele>333.5</ele><time>2026-03-29T12:15:58.998Z</time></trkpt><trkpt lat="42.63561522149171" lon="11.673423614165774"><ele>332.75</ele><time>2026-03-29T12:15:59.998Z</time></trkpt><trkpt lat="42.63553345196706" lon="11.67331205056854"><ele>332.0</ele><time>2026-03-29T12:16:00.998Z</time></trkpt><trkpt lat="42.63545177823944" lon="11.673201574150424"><ele>332.0</ele><time>2026-03-29T12:16:01.998Z</time></trkpt><trkpt lat="42.63537112203361" lon="11.673087100436758"><ele>332.0</ele><time>2026-03-29T12:16:02.998Z</time></trkpt><trkpt lat="42.63529115690115" lon="11.672985054244572"><ele>332.0</ele><time>2026-03-29T12:16:03.998Z</time></trkpt><trkpt lat="42.63522168185223" lon="11.672855527339815"><ele>332.0</ele><time>2026-03-29T12:16:04.998Z</time></trkpt><trkpt lat="42.63513223609432" lon="11.672747222362487"><ele>330.5</ele><time>2026-03-29T12:16:05.998Z</time></trkpt><trkpt lat="42.63505264465385" lon="11.672622192537904"><ele>329.0</ele><time>2026-03-29T12:16:06.998Z</time></trkpt><trkpt lat="42.63496723130752" lon="11.672508129001187"><ele>327.5</ele><time>2026-03-29T12:16:07.998Z</time></trkpt><trkpt lat="42.634882210264884" lon="11.672392814548868"><ele>326.0</ele><time>2026-03-29T12:16:08.998Z</time></trkpt><trkpt lat="42.63480318591779" lon="11.672279596160317"><ele>326.0</ele><time>2026-03-29T12:16:09.998Z</time></trkpt><trkpt lat="42.6347299552251" lon="11.672176527635317"><ele>326.0</ele><time>2026-03-29T12:16:10.998Z</time></trkpt><trkpt lat="42.63465956549437" lon="11.672080097825017"><ele>326.0</ele><time>2026-03-29T12:16:11.998Z</time></trkpt><trkpt lat="42.6345887681495" lon="11.671983023630682"><ele>326.0</ele><time>2026-03-29T12:16:12.998Z</time></trkpt><trkpt lat="42.634522904047316" lon="11.671887881634499"><ele>326.0</ele><time>2026-03-29T12:16:13.998Z</time></trkpt><trkpt lat="42.634460872650514" lon="11.671799635687332"><ele>325.2857142857143</ele><time>2026-03-29T12:16:14.998Z</time></trkpt><trkpt lat="42.63440369076765" lon="11.671726129832223"><ele>324.57142857142856</ele><time>2026-03-29T12:16:15.998Z</time></trkpt><trkpt lat="42.63435407842802" lon="11.671661803507021"><ele>323.85714285714283</ele><time>2026-03-29T12:16:16.998Z</time></trkpt><trkpt lat="42.634316357369755" lon="11.67157477862368"><ele>323.1428571428571</ele><time>2026-03-29T12:16:18.001Z</time></trkpt><trkpt lat="42.63427055607136" lon="11.671512522406864"><ele>322.42857142857144</ele><time>2026-03-29T12:16:19.001Z</time></trkpt><trkpt lat="42.634224966294255" lon="11.671446581576747"><ele>321.71428571428567</ele><time>2026-03-29T12:16:20.001Z</time></trkpt><trkpt lat="42.63417044809679" lon="11.671383769272117"><ele>321.0</ele><time>2026-03-29T12:16:21.001Z</time></trkpt><trkpt lat="42.63413315353402" lon="11.671311039828344"><ele>320.99999999999994</ele><time>2026-03-29T12:16:22Z</time></trkpt><trkpt lat="42.63409487850739" lon="11.671236120368745"><ele>321.0</ele><time>2026-03-29T12:16:23Z</time></trkpt><trkpt lat="42.63407409002561" lon="11.671147730994937"><ele>321.0</ele><time>2026-03-29T12:16:24.001Z</time></trkpt><trkpt lat="42.63406457011197" lon="11.671054198550257"><ele>321.0</ele><time>2026-03-29T12:16:25.001Z</time></trkpt><trkpt lat="42.634062320342125" lon="11.670966428634213"><ele>321.0</ele><time>2026-03-29T12:16:26.001Z</time></trkpt><trkpt lat="42.63407474863649" lon="11.670880030318617"><ele>320.99999999999994</ele><time>2026-03-29T12:16:27.001Z</time></trkpt><trkpt lat="42.63409549908666" lon="11.670791125034055"><ele>321.0</ele><time>2026-03-29T12:16:28.001Z</time></trkpt><trkpt lat="42.63412368661082" lon="11.670709675784426"><ele>320.1666666666667</ele><time>2026-03-29T12:16:29.001Z</time></trkpt><trkpt lat="42.63418999223156" lon="11.67062443722499"><ele>319.3333333333333</ele><time>2026-03-29T12:16:31.001Z</time></trkpt><trkpt lat="42.63425793100561" lon="11.670531034511018"><ele>318.5</ele><time>2026-03-29T12:16:33.001Z</time></trkpt><trkpt lat="42.63432182412925" lon="11.670467408794817"><ele>317.66666666666663</ele><time>2026-03-29T12:16:35.001Z</time></trkpt><trkpt lat="42.63438437637717" lon="11.670403736107898"><ele>316.8333333333333</ele><time>2026-03-29T12:16:37.001Z</time></trkpt><trkpt lat="42.63444998769681" lon="11.670343131939637"><ele>316.0</ele><time>2026-03-29T12:16:39.001Z</time></trkpt><trkpt lat="42.63452107810758" lon="11.670265319227857"><ele>315.6</ele><time>2026-03-29T12:16:41.001Z</time></trkpt><trkpt lat="42.634592920848874" lon="11.670185288697109"><ele>315.20000000000005</ele><time>2026-03-29T12:16:43.001Z</time></trkpt><trkpt lat="42.634661465333" lon="11.670152410861128"><ele>314.79999999999995</ele><time>2026-03-29T12:16:45.001Z</time></trkpt><trkpt lat="42.63475328790773" lon="11.670080357956868"><ele>314.4</ele><time>2026-03-29T12:16:49Z</time></trkpt><trkpt lat="42.63461014266911" lon="11.670027269846234"><ele>314.0</ele><time>2026-03-29T12:16:57Z</time></trkpt><trkpt lat="42.63452047464035" lon="11.670106708707872"><ele>314.4</ele><time>2026-03-29T12:16:59Z</time></trkpt><trkpt lat="42.63444747772215" lon="11.670170884705154"><ele>314.79999999999995</ele><time>2026-03-29T12:17:01Z</time></trkpt><trkpt lat="42.63435048711116" lon="11.670256155004719"><ele>315.20000000000005</ele><time>2026-03-29T12:17:03Z</time></trkpt><trkpt lat="42.63423359931227" lon="11.670340648052191"><ele>315.6</ele><time>2026-03-29T12:17:05Z</time></trkpt><trkpt lat="42.63415267389893" lon="11.670377472647125"><ele>316.0</ele><time>2026-03-29T12:17:06Z</time></trkpt><trkpt lat="42.63403878488726" lon="11.670420508672231"><ele>316.0</ele><time>2026-03-29T12:17:07Z</time></trkpt><trkpt lat="42.63386807648051" lon="11.670483071780597"><ele>316.0</ele><time>2026-03-29T12:17:08Z</time></trkpt><trkpt lat="42.633694983528144" lon="11.670547359238721"><ele>316.0</ele><time>2026-03-29T12:17:09Z</time></trkpt><trkpt lat="42.6335353378137" lon="11.670606652217005"><ele>312.25</ele><time>2026-03-29T12:17:10Z</time></trkpt><trkpt lat="42.633379118204246" lon="11.67066647213798"><ele>308.5</ele><time>2026-03-29T12:17:11Z</time></trkpt><trkpt lat="42.633243998594295" lon="11.670725777269304"><ele>304.75</ele><time>2026-03-29T12:17:12Z</time></trkpt><trkpt lat="42.633118890522105" lon="11.670769973338446"><ele>301.0</ele><time>2026-03-29T12:17:13Z</time></trkpt><trkpt lat="42.63300509350406" lon="11.67077188000343"><ele>301.0</ele><time>2026-03-29T12:17:14Z</time></trkpt><trkpt lat="42.632901496946396" lon="11.670795818224502"><ele>301.0</ele><time>2026-03-29T12:17:15Z</time></trkpt><trkpt lat="42.632836556076455" lon="11.670815273907698"><ele>301.0</ele><time>2026-03-29T12:17:16Z</time></trkpt><trkpt lat="42.63275281414015" lon="11.670850211373669"><ele>301.0</ele><time>2026-03-29T12:17:18Z</time></trkpt><trkpt lat="42.63267408738078" lon="11.670980086808068"><ele>301.0</ele><time>2026-03-29T12:17:20Z</time></trkpt><trkpt lat="42.63267094232221" lon="11.671069731592251"><ele>301.0</ele><time>2026-03-29T12:17:21Z</time></trkpt><trkpt lat="42.632693846935155" lon="11.671161833499077"><ele>304.2</ele><time>2026-03-29T12:17:22Z</time></trkpt><trkpt lat="42.63272895800194" lon="11.67124136194766"><ele>307.40000000000003</ele><time>2026-03-29T12:17:23Z</time></trkpt><trkpt lat="42.63275466419589" lon="11.671383390681724"><ele>310.6</ele><time>2026-03-29T12:17:25Z</time></trkpt><trkpt lat="42.63278923812805" lon="11.671521071585802"><ele>313.8</ele><time>2026-03-29T12:17:27Z</time></trkpt><trkpt lat="42.63281337024801" lon="11.671641844886375"><ele>317.0</ele><time>2026-03-29T12:17:29Z</time></trkpt><trkpt lat="42.632783286913934" lon="11.671736062118468"><ele>307.5</ele><time>2026-03-29T12:17:32Z</time></trkpt><trkpt lat="42.63271875884835" lon="11.671733033966406"><ele>298.0</ele><time>2026-03-29T12:17:33Z</time></trkpt><trkpt lat="42.63273465256113" lon="11.671581233432523"><ele>288.5</ele><time>2026-03-29T12:17:36Z</time></trkpt><trkpt lat="42.63271060101532" lon="11.671381635745984"><ele>279.0</ele><time>2026-03-29T12:17:36.999Z</time></trkpt><trkpt lat="42.63265425591801" lon="11.671145236349103"><ele>276.0</ele><time>2026-03-29T12:17:37.999Z</time></trkpt><trkpt lat="42.632639240771226" lon="11.670951869167963"><ele>273.0</ele><time>2026-03-29T12:17:38.999Z</time></trkpt><trkpt lat="42.632697122465125" lon="11.670797029061866"><ele>270.0</ele><time>2026-03-29T12:17:39.999Z</time></trkpt><trkpt lat="42.63276555842377" lon="11.670691315933547"><ele>267.0</ele><time>2026-03-29T12:17:40.999Z</time></trkpt><trkpt lat="42.632847502105975" lon="11.670582329261002"><ele>275.5</ele><time>2026-03-29T12:17:41.999Z</time></trkpt><trkpt lat="42.63292489329534" lon="11.670474366076181"><ele>284.0</ele><time>2026-03-29T12:17:42.999Z</time></trkpt><trkpt lat="42.63302930927326" lon="11.670393436283613"><ele>292.5</ele><time>2026-03-29T12:17:43.999Z</time></trkpt><trkpt lat="42.63315596010754" lon="11.670342998069108"><ele>301.0</ele><time>2026-03-29T12:17:44.999Z</time></trkpt><trkpt lat="42.633316174889686" lon="11.670282542032377"><ele>298.0</ele><time>2026-03-29T12:17:45.999Z</time></trkpt><trkpt lat="42.63346356621576" lon="11.670167658547019"><ele>295.0</ele><time>2026-03-29T12:17:46.999Z</time></trkpt><trkpt lat="42.63358980785704" lon="11.670071874302264"><ele>292.0</ele><time>2026-03-29T12:17:47.999Z</time></trkpt><trkpt lat="42.63371337493869" lon="11.66996765657688"><ele>292.0</ele><time>2026-03-29T12:17:48.999Z</time></trkpt><trkpt lat="42.63382169100071" lon="11.669867023218153"><ele>292.0</ele><time>2026-03-29T12:17:49.999Z</time></trkpt><trkpt lat="42.63390890073163" lon="11.669768408731308"><ele>292.0</ele><time>2026-03-29T12:17:50.999Z</time></trkpt><trkpt lat="42.633970032683756" lon="11.669626038174261"><ele>292.0</ele><time>2026-03-29T12:17:51.999Z</time></trkpt><trkpt lat="42.633977837164316" lon="11.669457848029657"><ele>288.8</ele><time>2026-03-29T12:17:52.999Z</time></trkpt><trkpt lat="42.63400519294612" lon="11.66931188933353"><ele>285.6</ele><time>2026-03-29T12:17:53.999Z</time></trkpt><trkpt lat="42.634019563365634" lon="11.66919238463358"><ele>282.40000000000003</ele><time>2026-03-29T12:17:54.999Z</time></trkpt><trkpt lat="42.63401629484444" lon="11.669065489886659"><ele>279.2</ele><time>2026-03-29T12:17:55.999Z</time></trkpt><trkpt lat="42.633965899452754" lon="11.668950793945243"><ele>276.0</ele><time>2026-03-29T12:17:56.999Z</time></trkpt><trkpt lat="42.63390720806464" lon="11.668815422180923"><ele>276.0</ele><time>2026-03-29T12:17:57.999Z</time></trkpt><trkpt lat="42.633853221406724" lon="11.668656074560822"><ele>276.0</ele><time>2026-03-29T12:17:58.999Z</time></trkpt><trkpt lat="42.63379709795482" lon="11.668478300886497"><ele>276.0</ele><time>2026-03-29T12:17:59.999Z</time></trkpt><trkpt lat="42.633727994839454" lon="11.668284937787607"><ele>276.0</ele><time>2026-03-29T12:18:00.999Z</time></trkpt><trkpt lat="42.633653063627925" lon="11.668082337303145"><ele>269.6666666666667</ele><time>2026-03-29T12:18:01.999Z</time></trkpt><trkpt lat="42.6335701177344" lon="11.667865978507155"><ele>263.33333333333337</ele><time>2026-03-29T12:18:02.999Z</time></trkpt><trkpt lat="42.6334808243681" lon="11.667669981631292"><ele>257.0</ele><time>2026-03-29T12:18:03.999Z</time></trkpt><trkpt lat="42.633386943740604" lon="11.66746781875289"><ele>257.0</ele><time>2026-03-29T12:18:04.999Z</time></trkpt><trkpt lat="42.633275282997175" lon="11.667276640956349"><ele>257.0</ele><time>2026-03-29T12:18:05.999Z</time></trkpt><trkpt lat="42.633145968694215" lon="11.667099145256712"><ele>257.0</ele><time>2026-03-29T12:18:06.999Z</time></trkpt><trkpt lat="42.6330121965145" lon="11.666903998313366"><ele>250.33333333333334</ele><time>2026-03-29T12:18:07.999Z</time></trkpt><trkpt lat="42.6328958983302" lon="11.666701008909397"><ele>243.66666666666669</ele><time>2026-03-29T12:18:08.999Z</time></trkpt><trkpt lat="42.63278856008702" lon="11.666493008015236"><ele>237.0</ele><time>2026-03-29T12:18:09.999Z</time></trkpt><trkpt lat="42.632687518549226" lon="11.6663000752586"><ele>237.0</ele><time>2026-03-29T12:18:10.999Z</time></trkpt><trkpt lat="42.63259986533239" lon="11.666135966535146"><ele>237.0</ele><time>2026-03-29T12:18:11.999Z</time></trkpt><trkpt lat="42.632520849305926" lon="11.665976069701436"><ele>237.0</ele><time>2026-03-29T12:18:12.999Z</time></trkpt><trkpt lat="42.63246168462673" lon="11.665809932210662"><ele>237.0</ele><time>2026-03-29T12:18:13.999Z</time></trkpt><trkpt lat="42.6324172572738" lon="11.665621590155617"><ele>240.33333333333331</ele><time>2026-03-29T12:18:14.999Z</time></trkpt><trkpt lat="42.63238195341813" lon="11.665427562412619"><ele>243.66666666666666</ele><time>2026-03-29T12:18:15.999Z</time></trkpt><trkpt lat="42.63235213228333" lon="11.665228178396157"><ele>247.0</ele><time>2026-03-29T12:18:16.999Z</time></trkpt><trkpt lat="42.63231894506217" lon="11.665005978214921"><ele>247.66666666666666</ele><time>2026-03-29T12:18:17.999Z</time></trkpt><trkpt lat="42.632298630482076" lon="11.664776526763097"><ele>248.33333333333331</ele><time>2026-03-29T12:18:18.999Z</time></trkpt><trkpt lat="42.63232095713681" lon="11.664545512140302"><ele>249.0</ele><time>2026-03-29T12:18:19.999Z</time></trkpt><trkpt lat="42.63233867162975" lon="11.664320322802679"><ele>249.0</ele><time>2026-03-29T12:18:20.999Z</time></trkpt><trkpt lat="42.63233965255217" lon="11.664095853991437"><ele>249.0</ele><time>2026-03-29T12:18:21.999Z</time></trkpt><trkpt lat="42.63231412415434" lon="11.663868852304095"><ele>249.0</ele><time>2026-03-29T12:18:22.999Z</time></trkpt><trkpt lat="42.632314678736705" lon="11.663644354957976"><ele>245.33333333333331</ele><time>2026-03-29T12:18:24.001Z</time></trkpt><trkpt lat="42.63233755029841" lon="11.663420638183407"><ele>241.66666666666666</ele><time>2026-03-29T12:18:25.001Z</time></trkpt><trkpt lat="42.63238529499041" lon="11.663203486351534"><ele>238.0</ele><time>2026-03-29T12:18:26.001Z</time></trkpt><trkpt lat="42.63245609533361" lon="11.663008180059082"><ele>238.0</ele><time>2026-03-29T12:18:27.001Z</time></trkpt><trkpt lat="42.63254785353202" lon="11.662825772533989"><ele>238.0</ele><time>2026-03-29T12:18:28.001Z</time></trkpt><trkpt lat="42.63264643303791" lon="11.662644098290745"><ele>238.0</ele><time>2026-03-29T12:18:29.001Z</time></trkpt><trkpt lat="42.63275846347456" lon="11.662467087634408"><ele>241.66666666666666</ele><time>2026-03-29T12:18:30.001Z</time></trkpt><trkpt lat="42.63288565013948" lon="11.662310236470288"><ele>245.33333333333331</ele><time>2026-03-29T12:18:31.001Z</time></trkpt><trkpt lat="42.632998860447216" lon="11.662157240876047"><ele>249.0</ele><time>2026-03-29T12:18:32.001Z</time></trkpt><trkpt lat="42.6330867952716" lon="11.661977822382815"><ele>242.33333333333331</ele><time>2026-03-29T12:18:33.001Z</time></trkpt><trkpt lat="42.63316054921825" lon="11.66176849234383"><ele>235.66666666666666</ele><time>2026-03-29T12:18:34.001Z</time></trkpt><trkpt lat="42.633219481147535" lon="11.661541953105129"><ele>229.0</ele><time>2026-03-29T12:18:35.001Z</time></trkpt><trkpt lat="42.633276292007" lon="11.66132370813146"><ele>226.66666666666666</ele><time>2026-03-29T12:18:36.001Z</time></trkpt><trkpt lat="42.63333500303206" lon="11.661114444466797"><ele>224.33333333333331</ele><time>2026-03-29T12:18:37.001Z</time></trkpt><trkpt lat="42.63338203161399" lon="11.660899050783913"><ele>222.0</ele><time>2026-03-29T12:18:38.001Z</time></trkpt><trkpt lat="42.6334124928233" lon="11.660678498148737"><ele>222.0</ele><time>2026-03-29T12:18:39.001Z</time></trkpt><trkpt lat="42.633414620240394" lon="11.66046376464067"><ele>222.0</ele><time>2026-03-29T12:18:40.001Z</time></trkpt><trkpt lat="42.6334036000717" lon="11.660245561192545"><ele>222.0</ele><time>2026-03-29T12:18:41.001Z</time></trkpt><trkpt lat="42.63341258893492" lon="11.660042228755291"><ele>218.66666666666669</ele><time>2026-03-29T12:18:42.001Z</time></trkpt><trkpt lat="42.63345508990836" lon="11.6598486838077"><ele>215.33333333333334</ele><time>2026-03-29T12:18:43.001Z</time></trkpt><trkpt lat="42.63352358055208" lon="11.659672751710469"><ele>212.0</ele><time>2026-03-29T12:18:44.001Z</time></trkpt><trkpt lat="42.633617609743986" lon="11.6595037066268"><ele>210.33333333333334</ele><time>2026-03-29T12:18:45.001Z</time></trkpt><trkpt lat="42.63372003597944" lon="11.659327074773483"><ele>208.66666666666669</ele><time>2026-03-29T12:18:46.001Z</time></trkpt><trkpt lat="42.63383026650897" lon="11.659168671101575"><ele>207.0</ele><time>2026-03-29T12:18:47.001Z</time></trkpt><trkpt lat="42.63396209967575" lon="11.659023988989777"><ele>207.0</ele><time>2026-03-29T12:18:48.001Z</time></trkpt><trkpt lat="42.634098094900764" lon="11.658903156197525"><ele>207.0</ele><time>2026-03-29T12:18:49.001Z</time></trkpt><trkpt lat="42.634241262083975" lon="11.658813526198436"><ele>207.0</ele><time>2026-03-29T12:18:50.001Z</time></trkpt><trkpt lat="42.63439747667701" lon="11.658760897558777"><ele>211.5</ele><time>2026-03-29T12:18:51.001Z</time></trkpt><trkpt lat="42.63454770670424" lon="11.658761830082328"><ele>216.0</ele><time>2026-03-29T12:18:52.001Z</time></trkpt><trkpt lat="42.63468547783283" lon="11.658805466881564"><ele>220.5</ele><time>2026-03-29T12:18:53.001Z</time></trkpt><trkpt lat="42.634810660142186" lon="11.658894656445261"><ele>225.0</ele><time>2026-03-29T12:18:54.001Z</time></trkpt><trkpt lat="42.63492746573672" lon="11.659027249922778"><ele>225.0</ele><time>2026-03-29T12:18:55.001Z</time></trkpt><trkpt lat="42.635035088264665" lon="11.659186449424226"><ele>225.0</ele><time>2026-03-29T12:18:56.001Z</time></trkpt><trkpt lat="42.635133756982114" lon="11.659368003150606"><ele>225.0</ele><time>2026-03-29T12:18:57.001Z</time></trkpt><trkpt lat="42.63522024122065" lon="11.659568887652455"><ele>234.66666666666669</ele><time>2026-03-29T12:18:58.001Z</time></trkpt><trkpt lat="42.63531899688666" lon="11.65977880883934"><ele>244.33333333333334</ele><time>2026-03-29T12:18:59.001Z</time></trkpt><trkpt lat="42.63539664653057" lon="11.660012919308368"><ele>254.0</ele><time>2026-03-29T12:19:00.001Z</time></trkpt><trkpt lat="42.63549152609749" lon="11.660245140288774"><ele>248.66666666666669</ele><time>2026-03-29T12:19:01.001Z</time></trkpt><trkpt lat="42.635597598091486" lon="11.660502293196098"><ele>243.33333333333331</ele><time>2026-03-29T12:19:02.001Z</time></trkpt><trkpt lat="42.63571376253262" lon="11.660755667699991"><ele>238.0</ele><time>2026-03-29T12:19:03.001Z</time></trkpt><trkpt lat="42.63582036444284" lon="11.661008909147148"><ele>234.0</ele><time>2026-03-29T12:19:04.001Z</time></trkpt><trkpt lat="42.6359059453086" lon="11.661253904040883"><ele>230.0</ele><time>2026-03-29T12:19:05.001Z</time></trkpt><trkpt lat="42.63598472907579" lon="11.661453639589185"><ele>226.0</ele><time>2026-03-29T12:19:06.001Z</time></trkpt><trkpt lat="42.63605405279276" lon="11.661639071067768"><ele>226.0</ele><time>2026-03-29T12:19:07.001Z</time></trkpt><trkpt lat="42.63610453910402" lon="11.66184459748642"><ele>226.0</ele><time>2026-03-29T12:19:08.001Z</time></trkpt><trkpt lat="42.6361267417475" lon="11.662056724914681"><ele>226.0</ele><time>2026-03-29T12:19:09.001Z</time></trkpt><trkpt lat="42.636117618254175" lon="11.662274601372037"><ele>226.25</ele><time>2026-03-29T12:19:10.001Z</time></trkpt><trkpt lat="42.636101686282906" lon="11.662486467525099"><ele>226.5</ele><time>2026-03-29T12:19:11.001Z</time></trkpt><trkpt lat="42.63609160181973" lon="11.662679148703855"><ele>226.75</ele><time>2026-03-29T12:19:12.001Z</time></trkpt><trkpt lat="42.6361015620248" lon="11.662872159438642"><ele>227.0</ele><time>2026-03-29T12:19:13Z</time></trkpt><trkpt lat="42.636138634641796" lon="11.663066003397708"><ele>239.66666666666669</ele><time>2026-03-29T12:19:14Z</time></trkpt><trkpt lat="42.636203533564235" lon="11.663240997054077"><ele>252.33333333333331</ele><time>2026-03-29T12:19:15Z</time></trkpt><trkpt lat="42.636291715917274" lon="11.663408139906508"><ele>265.0</ele><time>2026-03-29T12:19:16Z</time></trkpt><trkpt lat="42.63639304921927" lon="11.663588759333036"><ele>260.0</ele><time>2026-03-29T12:19:17Z</time></trkpt><trkpt lat="42.63650163207336" lon="11.663779794515328"><ele>255.0</ele><time>2026-03-29T12:19:18Z</time></trkpt><trkpt lat="42.636611189001655" lon="11.663974620407705"><ele>250.0</ele><time>2026-03-29T12:19:19Z</time></trkpt><trkpt lat="42.63672972659744" lon="11.664186518071737"><ele>250.0</ele><time>2026-03-29T12:19:20Z</time></trkpt><trkpt lat="42.63684299645509" lon="11.66439206320813"><ele>250.0</ele><time>2026-03-29T12:19:21Z</time></trkpt><trkpt lat="42.63696033204524" lon="11.664605837642387"><ele>250.0</ele><time>2026-03-29T12:19:22Z</time></trkpt><trkpt lat="42.63707597328732" lon="11.664788438109701"><ele>247.0</ele><time>2026-03-29T12:19:23Z</time></trkpt><trkpt lat="42.6371673942891" lon="11.664950012702814"><ele>244.0</ele><time>2026-03-29T12:19:24Z</time></trkpt><trkpt lat="42.637265799115816" lon="11.665095119712324"><ele>241.0</ele><time>2026-03-29T12:19:25Z</time></trkpt><trkpt lat="42.63738506614812" lon="11.665215684469764"><ele>238.0</ele><time>2026-03-29T12:19:26Z</time></trkpt><trkpt lat="42.63751332509512" lon="11.665311066798314"><ele>238.0</ele><time>2026-03-29T12:19:27Z</time></trkpt><trkpt lat="42.63766322117004" lon="11.66537017883143"><ele>238.0</ele><time>2026-03-29T12:19:28Z</time></trkpt><trkpt lat="42.63782438000291" lon="11.66539117693562"><ele>238.0</ele><time>2026-03-29T12:19:29Z</time></trkpt><trkpt lat="42.6379911632263" lon="11.665380254908376"><ele>237.33333333333331</ele><time>2026-03-29T12:19:30Z</time></trkpt><trkpt lat="42.638159937160424" lon="11.665331539772545"><ele>236.66666666666669</ele><time>2026-03-29T12:19:31Z</time></trkpt><trkpt lat="42.638330828291224" lon="11.665273015317634"><ele>236.0</ele><time>2026-03-29T12:19:32Z</time></trkpt><trkpt lat="42.638510704870015" lon="11.665194459879649"><ele>248.0</ele><time>2026-03-29T12:19:33Z</time></trkpt><trkpt lat="42.63868497049816" lon="11.66514392858779"><ele>260.0</ele><time>2026-03-29T12:19:34Z</time></trkpt><trkpt lat="42.63884830045641" lon="11.66509321795088"><ele>272.0</ele><time>2026-03-29T12:19:35Z</time></trkpt><trkpt lat="42.63901053035501" lon="11.665043345836375"><ele>272.0</ele><time>2026-03-29T12:19:36Z</time></trkpt><trkpt lat="42.639148706872525" lon="11.665006091741573"><ele>272.0</ele><time>2026-03-29T12:19:37Z</time></trkpt><trkpt lat="42.63929581583945" lon="11.66497651720395"><ele>272.0</ele><time>2026-03-29T12:19:38Z</time></trkpt><trkpt lat="42.63944921719575" lon="11.664969370315179"><ele>272.0</ele><time>2026-03-29T12:19:39Z</time></trkpt><trkpt lat="42.63960516029346" lon="11.664999357101005"><ele>274.0</ele><time>2026-03-29T12:19:40Z</time></trkpt><trkpt lat="42.639755171583616" lon="11.665074338087729"><ele>276.0</ele><time>2026-03-29T12:19:41Z</time></trkpt><trkpt lat="42.63989699241132" lon="11.665115504548055"><ele>278.0</ele><time>2026-03-29T12:19:42Z</time></trkpt><trkpt lat="42.64002608819156" lon="11.665185912067454"><ele>280.0</ele><time>2026-03-29T12:19:43Z</time></trkpt><trkpt lat="42.64015668262374" lon="11.665243690088463"><ele>279.0</ele><time>2026-03-29T12:19:44Z</time></trkpt><trkpt lat="42.64028871920781" lon="11.665279435347859"><ele>278.0</ele><time>2026-03-29T12:19:45Z</time></trkpt><trkpt lat="42.64041302719028" lon="11.665336091410468"><ele>277.0</ele><time>2026-03-29T12:19:46Z</time></trkpt><trkpt lat="42.640535949773636" lon="11.665340286451439"><ele>276.0</ele><time>2026-03-29T12:19:47Z</time></trkpt><trkpt lat="42.64065566532729" lon="11.665330088065039"><ele>276.0</ele><time>2026-03-29T12:19:48Z</time></trkpt><trkpt lat="42.64076835629736" lon="11.6653393062276"><ele>276.0</ele><time>2026-03-29T12:19:49Z</time></trkpt><trkpt lat="42.64087334008901" lon="11.665378965667793"><ele>276.0</ele><time>2026-03-29T12:19:50Z</time></trkpt><trkpt lat="42.640968996957355" lon="11.66544134162252"><ele>276.0</ele><time>2026-03-29T12:19:51Z</time></trkpt><trkpt lat="42.64105373097034" lon="11.665532130631988"><ele>276.0</ele><time>2026-03-29T12:19:52Z</time></trkpt><trkpt lat="42.64110531242096" lon="11.66565934723463"><ele>276.2</ele><time>2026-03-29T12:19:53Z</time></trkpt><trkpt lat="42.6411466558109" lon="11.665795905725314"><ele>276.40000000000003</ele><time>2026-03-29T12:19:54Z</time></trkpt><trkpt lat="42.64120267436812" lon="11.665907244661469"><ele>276.6</ele><time>2026-03-29T12:19:55Z</time></trkpt><trkpt lat="42.641280965238415" lon="11.666014992738244"><ele>276.8</ele><time>2026-03-29T12:19:56Z</time></trkpt><trkpt lat="42.64138114052155" lon="11.666116087317851"><ele>277.0</ele><time>2026-03-29T12:19:57Z</time></trkpt><trkpt lat="42.641517504448785" lon="11.666192781740719"><ele>277.0</ele><time>2026-03-29T12:19:58Z</time></trkpt><trkpt lat="42.641673472123124" lon="11.666269256316289"><ele>277.0</ele><time>2026-03-29T12:19:59Z</time></trkpt><trkpt lat="42.6418462796176" lon="11.666378382875706"><ele>277.0</ele><time>2026-03-29T12:20:00Z</time></trkpt><trkpt lat="42.642025030018544" lon="11.666507033909998"><ele>283.0</ele><time>2026-03-29T12:20:01Z</time></trkpt><trkpt lat="42.64220982248363" lon="11.666631677961819"><ele>289.0</ele><time>2026-03-29T12:20:01.999Z</time></trkpt><trkpt lat="42.6424076370491" lon="11.666732104930054"><ele>295.0</ele><time>2026-03-29T12:20:02.999Z</time></trkpt><trkpt lat="42.642609178317464" lon="11.66682762254098"><ele>295.0</ele><time>2026-03-29T12:20:03.999Z</time></trkpt><trkpt lat="42.64279133164146" lon="11.66693631398577"><ele>295.0</ele><time>2026-03-29T12:20:04.999Z</time></trkpt><trkpt lat="42.64297237423442" lon="11.667033984385613"><ele>295.0</ele><time>2026-03-29T12:20:05.999Z</time></trkpt><trkpt lat="42.64313847656103" lon="11.66716947898601"><ele>297.0</ele><time>2026-03-29T12:20:06.999Z</time></trkpt><trkpt lat="42.64330148828545" lon="11.667332279512298"><ele>299.0</ele><time>2026-03-29T12:20:07.999Z</time></trkpt><trkpt lat="42.64344102510662" lon="11.667501732705318"><ele>301.0</ele><time>2026-03-29T12:20:08.999Z</time></trkpt><trkpt lat="42.643543901348266" lon="11.667713540793294"><ele>306.0</ele><time>2026-03-29T12:20:09.999Z</time></trkpt><trkpt lat="42.64364227505377" lon="11.667936995041556"><ele>311.0</ele><time>2026-03-29T12:20:10.999Z</time></trkpt><trkpt lat="42.64372679705261" lon="11.668131538514436"><ele>316.0</ele><time>2026-03-29T12:20:11.999Z</time></trkpt><trkpt lat="42.64380361437248" lon="11.668300163653143"><ele>316.0</ele><time>2026-03-29T12:20:12.999Z</time></trkpt><trkpt lat="42.643906189554855" lon="11.668427827790518"><ele>316.0</ele><time>2026-03-29T12:20:13.999Z</time></trkpt><trkpt lat="42.64400074621612" lon="11.66849811106053"><ele>316.0</ele><time>2026-03-29T12:20:14.999Z</time></trkpt><trkpt lat="42.64406355018795" lon="11.668567983662344"><ele>316.0</ele><time>2026-03-29T12:20:15.999Z</time></trkpt><trkpt lat="42.644142815957615" lon="11.668648810737503"><ele>316.0</ele><time>2026-03-29T12:20:16.999Z</time></trkpt><trkpt lat="42.64464309091044" lon="11.66881779639382"><ele>319.3333333333333</ele><time>2026-03-29T12:20:17.999Z</time></trkpt><trkpt lat="42.644797455520575" lon="11.668788531479779"><ele>322.6666666666667</ele><time>2026-03-29T12:20:18.999Z</time></trkpt><trkpt lat="42.64496406124177" lon="11.66872533157189"><ele>326.0</ele><time>2026-03-29T12:20:19.999Z</time></trkpt><trkpt lat="42.645167452836276" lon="11.668652851805874"><ele>328.0</ele><time>2026-03-29T12:20:20.999Z</time></trkpt><trkpt lat="42.645365164633226" lon="11.668590060184625"><ele>330.0</ele><time>2026-03-29T12:20:21.999Z</time></trkpt><trkpt lat="42.64557115744085" lon="11.668536418792863"><ele>332.0</ele><time>2026-03-29T12:20:22.999Z</time></trkpt><trkpt lat="42.64577573942288" lon="11.668482745696592"><ele>332.0</ele><time>2026-03-29T12:20:23.999Z</time></trkpt><trkpt lat="42.645967956823306" lon="11.668423177710546"><ele>332.0</ele><time>2026-03-29T12:20:24.999Z</time></trkpt><trkpt lat="42.64615434078588" lon="11.668375152679346"><ele>332.0</ele><time>2026-03-29T12:20:25.999Z</time></trkpt><trkpt lat="42.64634288162032" lon="11.668346872074508"><ele>332.0</ele><time>2026-03-29T12:20:26.999Z</time></trkpt><trkpt lat="42.64652619172384" lon="11.668348817449202"><ele>332.0</ele><time>2026-03-29T12:20:27.999Z</time></trkpt><trkpt lat="42.646712588219884" lon="11.66834281155901"><ele>332.0</ele><time>2026-03-29T12:20:29.002Z</time></trkpt><trkpt lat="42.646898566988554" lon="11.668345893136353"><ele>333.0</ele><time>2026-03-29T12:20:30.001Z</time></trkpt><trkpt lat="42.64707688365963" lon="11.668403429769374"><ele>334.0</ele><time>2026-03-29T12:20:31.001Z</time></trkpt><trkpt lat="42.64725212028199" lon="11.66847659026722"><ele>335.0</ele><time>2026-03-29T12:20:32.001Z</time></trkpt><trkpt lat="42.6474340415262" lon="11.668566549699465"><ele>335.33333333333337</ele><time>2026-03-29T12:20:33.001Z</time></trkpt><trkpt lat="42.647611625933685" lon="11.668673789935912"><ele>335.6666666666667</ele><time>2026-03-29T12:20:34.001Z</time></trkpt><trkpt lat="42.6477801967738" lon="11.66880434140775"><ele>336.0</ele><time>2026-03-29T12:20:35.001Z</time></trkpt><trkpt lat="42.64794349325922" lon="11.668950987285275"><ele>336.0</ele><time>2026-03-29T12:20:36.001Z</time></trkpt><trkpt lat="42.64809676038653" lon="11.669123814320853"><ele>336.0</ele><time>2026-03-29T12:20:37.001Z</time></trkpt><trkpt lat="42.64822961138433" lon="11.669322440186832"><ele>336.0</ele><time>2026-03-29T12:20:38.001Z</time></trkpt><trkpt lat="42.64835498521934" lon="11.66954473976323"><ele>338.5</ele><time>2026-03-29T12:20:39.001Z</time></trkpt><trkpt lat="42.648473439325485" lon="11.669779249094686"><ele>341.0</ele><time>2026-03-29T12:20:40.001Z</time></trkpt><trkpt lat="42.64859666600803" lon="11.670075266442701"><ele>339.0</ele><time>2026-03-29T12:20:41.001Z</time></trkpt><trkpt lat="42.64871946341392" lon="11.670334877400572"><ele>337.0</ele><time>2026-03-29T12:20:42.001Z</time></trkpt><trkpt lat="42.648846179560685" lon="11.670595439699568"><ele>337.0</ele><time>2026-03-29T12:20:43.001Z</time></trkpt><trkpt lat="42.648968194054085" lon="11.670861207542895"><ele>337.0</ele><time>2026-03-29T12:20:44.001Z</time></trkpt><trkpt lat="42.64909124122334" lon="11.671110540142454"><ele>340.3333333333333</ele><time>2026-03-29T12:20:45.001Z</time></trkpt><trkpt lat="42.64920492010146" lon="11.671345362125027"><ele>343.6666666666667</ele><time>2026-03-29T12:20:46.001Z</time></trkpt><trkpt lat="42.64930585396505" lon="11.671574878418934"><ele>347.0</ele><time>2026-03-29T12:20:47.001Z</time></trkpt><trkpt lat="42.649405121521376" lon="11.671785995755432"><ele>346.33333333333337</ele><time>2026-03-29T12:20:48.001Z</time></trkpt><trkpt lat="42.64951682656388" lon="11.671988565607144"><ele>345.6666666666667</ele><time>2026-03-29T12:20:49.001Z</time></trkpt><trkpt lat="42.64964174007356" lon="11.672181361943101"><ele>345.0</ele><time>2026-03-29T12:20:50.001Z</time></trkpt><trkpt lat="42.64978163674902" lon="11.672356080578176"><ele>345.0</ele><time>2026-03-29T12:20:51.001Z</time></trkpt><trkpt lat="42.64994141943756" lon="11.672504651939327"><ele>345.0</ele><time>2026-03-29T12:20:52.001Z</time></trkpt><trkpt lat="42.65011778690182" lon="11.672618254801304"><ele>345.0</ele><time>2026-03-29T12:20:53.001Z</time></trkpt><trkpt lat="42.65030898668103" lon="11.672689019263355"><ele>345.3333333333333</ele><time>2026-03-29T12:20:54.001Z</time></trkpt><trkpt lat="42.65051144968111" lon="11.672719874133527"><ele>345.66666666666663</ele><time>2026-03-29T12:20:55.001Z</time></trkpt><trkpt lat="42.650719066953464" lon="11.672710877806558"><ele>346.0</ele><time>2026-03-29T12:20:56.001Z</time></trkpt><trkpt lat="42.65092568995141" lon="11.672723239501005"><ele>348.0</ele><time>2026-03-29T12:20:57.001Z</time></trkpt><trkpt lat="42.651136825282244" lon="11.672735876520907"><ele>350.0</ele><time>2026-03-29T12:20:58.001Z</time></trkpt><trkpt lat="42.65135115878884" lon="11.67274792231417"><ele>352.0</ele><time>2026-03-29T12:20:59.001Z</time></trkpt><trkpt lat="42.65157011605851" lon="11.672761830489213"><ele>352.0</ele><time>2026-03-29T12:21:00Z</time></trkpt><trkpt lat="42.6517860828477" lon="11.672766516929247"><ele>352.0</ele><time>2026-03-29T12:21:01Z</time></trkpt><trkpt lat="42.652000804991935" lon="11.672776294581583"><ele>352.0</ele><time>2026-03-29T12:21:02Z</time></trkpt><trkpt lat="42.65221259966864" lon="11.672788700733271"><ele>353.0</ele><time>2026-03-29T12:21:03Z</time></trkpt><trkpt lat="42.65241998485949" lon="11.672800964567102"><ele>354.0</ele><time>2026-03-29T12:21:04Z</time></trkpt><trkpt lat="42.652624633317096" lon="11.672818096780707"><ele>355.0</ele><time>2026-03-29T12:21:05Z</time></trkpt><trkpt lat="42.6528285325167" lon="11.672837906773125"><ele>355.0</ele><time>2026-03-29T12:21:06Z</time></trkpt><trkpt lat="42.65303399709756" lon="11.672877164445731"><ele>355.0</ele><time>2026-03-29T12:21:07Z</time></trkpt><trkpt lat="42.653232589512356" lon="11.67294449562291"><ele>355.0</ele><time>2026-03-29T12:21:08Z</time></trkpt><trkpt lat="42.65343051218106" lon="11.673033607020141"><ele>354.3333333333333</ele><time>2026-03-29T12:21:09Z</time></trkpt><trkpt lat="42.653630064810315" lon="11.673139347089524"><ele>353.6666666666667</ele><time>2026-03-29T12:21:10Z</time></trkpt><trkpt lat="42.6538041163354" lon="11.673294082101487"><ele>353.0</ele><time>2026-03-29T12:21:11Z</time></trkpt><trkpt lat="42.653987449180455" lon="11.67345776482837"><ele>355.0</ele><time>2026-03-29T12:21:12Z</time></trkpt><trkpt lat="42.654173972894526" lon="11.673623812558514"><ele>357.0</ele><time>2026-03-29T12:21:13Z</time></trkpt><trkpt lat="42.654328100604474" lon="11.673833427070083"><ele>359.0</ele><time>2026-03-29T12:21:14Z</time></trkpt><trkpt lat="42.654479562395366" lon="11.673999669344003"><ele>359.0</ele><time>2026-03-29T12:21:15Z</time></trkpt><trkpt lat="42.65462061232314" lon="11.674171368023826"><ele>359.0</ele><time>2026-03-29T12:21:16Z</time></trkpt><trkpt lat="42.65475807066731" lon="11.674330516501554"><ele>359.0</ele><time>2026-03-29T12:21:17Z</time></trkpt><trkpt lat="42.654908366124886" lon="11.674469010415867"><ele>359.33333333333337</ele><time>2026-03-29T12:21:18Z</time></trkpt><trkpt lat="42.65507396191011" lon="11.674585095291386"><ele>359.6666666666667</ele><time>2026-03-29T12:21:19Z</time></trkpt><trkpt lat="42.65525622530973" lon="11.674666782233409"><ele>360.0</ele><time>2026-03-29T12:21:20Z</time></trkpt><trkpt lat="42.65544171237899" lon="11.674739317688426"><ele>360.0</ele><time>2026-03-29T12:21:21Z</time></trkpt><trkpt lat="42.65563280137071" lon="11.674784938593408"><ele>360.0</ele><time>2026-03-29T12:21:22Z</time></trkpt><trkpt lat="42.65582340090713" lon="11.674791019192659"><ele>360.0</ele><time>2026-03-29T12:21:23Z</time></trkpt><trkpt lat="42.656013934525646" lon="11.674769878815765"><ele>359.6666666666667</ele><time>2026-03-29T12:21:24Z</time></trkpt><trkpt lat="42.656205696110405" lon="11.674721727098104"><ele>359.33333333333337</ele><time>2026-03-29T12:21:25Z</time></trkpt><trkpt lat="42.656388541787265" lon="11.674642255009712"><ele>359.0</ele><time>2026-03-29T12:21:26Z</time></trkpt><trkpt lat="42.6565610374335" lon="11.67453696999467"><ele>360.0</ele><time>2026-03-29T12:21:27Z</time></trkpt><trkpt lat="42.65672211621781" lon="11.674400738829066"><ele>361.0</ele><time>2026-03-29T12:21:28Z</time></trkpt><trkpt lat="42.65687493760438" lon="11.674234820605708"><ele>362.0</ele><time>2026-03-29T12:21:29Z</time></trkpt><trkpt lat="42.65702091041963" lon="11.674060341765017"><ele>363.33333333333337</ele><time>2026-03-29T12:21:30Z</time></trkpt><trkpt lat="42.65717178134097" lon="11.673867272109478"><ele>364.6666666666667</ele><time>2026-03-29T12:21:31Z</time></trkpt><trkpt lat="42.65732209270162" lon="11.673689436696428"><ele>366.0</ele><time>2026-03-29T12:21:32Z</time></trkpt><trkpt lat="42.65748568332096" lon="11.673493005259504"><ele>366.6666666666667</ele><time>2026-03-29T12:21:33Z</time></trkpt><trkpt lat="42.657652587464106" lon="11.673300647481176"><ele>367.33333333333337</ele><time>2026-03-29T12:21:34Z</time></trkpt><trkpt lat="42.65781859294179" lon="11.673106235352984"><ele>368.0</ele><time>2026-03-29T12:21:35Z</time></trkpt><trkpt lat="42.65798970804188" lon="11.672914313339566"><ele>369.0</ele><time>2026-03-29T12:21:36Z</time></trkpt><trkpt lat="42.65816211213022" lon="11.672711615026897"><ele>370.0</ele><time>2026-03-29T12:21:37Z</time></trkpt><trkpt lat="42.65832571100083" lon="11.672512677199819"><ele>371.0</ele><time>2026-03-29T12:21:38Z</time></trkpt><trkpt lat="42.65847676121934" lon="11.672330081723482"><ele>371.0</ele><time>2026-03-29T12:21:39Z</time></trkpt><trkpt lat="42.658625931930594" lon="11.67215121413802"><ele>371.0</ele><time>2026-03-29T12:21:40Z</time></trkpt><trkpt lat="42.658775116523614" lon="11.671976741520815"><ele>371.0</ele><time>2026-03-29T12:21:41Z</time></trkpt><trkpt lat="42.658926774771196" lon="11.671797992646876"><ele>371.0</ele><time>2026-03-29T12:21:42Z</time></trkpt><trkpt lat="42.65907505448083" lon="11.671621972051563"><ele>371.0</ele><time>2026-03-29T12:21:43Z</time></trkpt><trkpt lat="42.659211160809164" lon="11.671457782333036"><ele>371.0</ele><time>2026-03-29T12:21:44Z</time></trkpt><trkpt lat="42.65933798614619" lon="11.671302178447878"><ele>371.0</ele><time>2026-03-29T12:21:45Z</time></trkpt><trkpt lat="42.6594559609325" lon="11.67116314479792"><ele>371.0</ele><time>2026-03-29T12:21:46Z</time></trkpt><trkpt lat="42.65956306757292" lon="11.671047482995814"><ele>371.0</ele><time>2026-03-29T12:21:47Z</time></trkpt><trkpt lat="42.65965178935197" lon="11.670949831485077"><ele>371.0</ele><time>2026-03-29T12:21:47.999Z</time></trkpt><trkpt lat="42.65972350393087" lon="11.670879189343133"><ele>370.5</ele><time>2026-03-29T12:21:48.999Z</time></trkpt><trkpt lat="42.65977985021025" lon="11.670838101699054"><ele>370.0</ele><time>2026-03-29T12:21:49.999Z</time></trkpt><trkpt lat="42.65984006785685" lon="11.670786870216542"><ele>369.5</ele><time>2026-03-29T12:21:52.999Z</time></trkpt><trkpt lat="42.65986144870937" lon="11.670678034226635"><ele>369.0</ele><time>2026-03-29T12:21:54.999Z</time></trkpt><trkpt lat="42.659847115517074" lon="11.670541758815695"><ele>368.5</ele><time>2026-03-29T12:21:55.999Z</time></trkpt><trkpt lat="42.659809627938365" lon="11.670388599688092"><ele>368.0</ele><time>2026-03-29T12:21:56.999Z</time></trkpt><trkpt lat="42.65975763346626" lon="11.670209908396142"><ele>367.6666666666667</ele><time>2026-03-29T12:21:57.999Z</time></trkpt><trkpt lat="42.65969449480698" lon="11.66999343812641"><ele>367.3333333333333</ele><time>2026-03-29T12:21:58.999Z</time></trkpt><trkpt lat="42.65962599040955" lon="11.669761641621104"><ele>367.0</ele><time>2026-03-29T12:21:59.999Z</time></trkpt><trkpt lat="42.65954876723544" lon="11.66950158002102"><ele>366.0</ele><time>2026-03-29T12:22:00.999Z</time></trkpt><trkpt lat="42.659467380750876" lon="11.669220330166185"><ele>365.0</ele><time>2026-03-29T12:22:01.999Z</time></trkpt><trkpt lat="42.659377140624564" lon="11.6689175893508"><ele>362.0</ele><time>2026-03-29T12:22:02.999Z</time></trkpt><trkpt lat="42.65928409673274" lon="11.668614869697967"><ele>359.0</ele><time>2026-03-29T12:22:03.999Z</time></trkpt><trkpt lat="42.659193527451265" lon="11.668297486556137"><ele>360.0</ele><time>2026-03-29T12:22:04.999Z</time></trkpt><trkpt lat="42.65910115026147" lon="11.667993595457531"><ele>361.0</ele><time>2026-03-29T12:22:05.999Z</time></trkpt><trkpt lat="42.659008978898235" lon="11.667686097793833"><ele>361.0</ele><time>2026-03-29T12:22:06.999Z</time></trkpt><trkpt lat="42.658915211488875" lon="11.667376509786306"><ele>361.0</ele><time>2026-03-29T12:22:07.999Z</time></trkpt><trkpt lat="42.658826671593424" lon="11.667070131455192"><ele>365.0</ele><time>2026-03-29T12:22:08.999Z</time></trkpt><trkpt lat="42.658738363178806" lon="11.66676662483672"><ele>369.0</ele><time>2026-03-29T12:22:09.999Z</time></trkpt><trkpt lat="42.658648861834216" lon="11.666465616862382"><ele>358.0</ele><time>2026-03-29T12:22:10.999Z</time></trkpt><trkpt lat="42.65856171785651" lon="11.666175325461396"><ele>347.0</ele><time>2026-03-29T12:22:11.999Z</time></trkpt><trkpt lat="42.658477614864374" lon="11.665887206254514"><ele>346.33333333333337</ele><time>2026-03-29T12:22:12.999Z</time></trkpt><trkpt lat="42.658395407503036" lon="11.66561577956381"><ele>345.6666666666667</ele><time>2026-03-29T12:22:13.999Z</time></trkpt><trkpt lat="42.658318314824164" lon="11.665342759452953"><ele>345.0</ele><time>2026-03-29T12:22:14.999Z</time></trkpt><trkpt lat="42.658242797090715" lon="11.665085674365125"><ele>344.3333333333333</ele><time>2026-03-29T12:22:15.999Z</time></trkpt><trkpt lat="42.65818045772832" lon="11.664858467145379"><ele>343.66666666666663</ele><time>2026-03-29T12:22:16.999Z</time></trkpt><trkpt lat="42.65813496993962" lon="11.664620515112153"><ele>343.0</ele><time>2026-03-29T12:22:17.999Z</time></trkpt><trkpt lat="42.65810301890321" lon="11.664383481697906"><ele>342.3333333333333</ele><time>2026-03-29T12:22:18.999Z</time></trkpt><trkpt lat="42.65811100805703" lon="11.664126595532498"><ele>341.6666666666667</ele><time>2026-03-29T12:22:19.999Z</time></trkpt><trkpt lat="42.65815770647855" lon="11.663868736585696"><ele>341.0</ele><time>2026-03-29T12:22:20.999Z</time></trkpt><trkpt lat="42.6582203545773" lon="11.663618839585528"><ele>338.6666666666667</ele><time>2026-03-29T12:22:21.999Z</time></trkpt><trkpt lat="42.658268411159426" lon="11.6633484927743"><ele>336.3333333333333</ele><time>2026-03-29T12:22:22.999Z</time></trkpt><trkpt lat="42.658297266920364" lon="11.663072527360193"><ele>334.0</ele><time>2026-03-29T12:22:23.999Z</time></trkpt><trkpt lat="42.65831112029301" lon="11.662781583170835"><ele>332.3333333333333</ele><time>2026-03-29T12:22:24.999Z</time></trkpt><trkpt lat="42.65830784380681" lon="11.662490482174325"><ele>330.6666666666667</ele><time>2026-03-29T12:22:25.999Z</time></trkpt><trkpt lat="42.65828205502683" lon="11.662216710361918"><ele>329.0</ele><time>2026-03-29T12:22:26.999Z</time></trkpt><trkpt lat="42.65826095664542" lon="11.661973847147808"><ele>326.6666666666667</ele><time>2026-03-29T12:22:27.999Z</time></trkpt><trkpt lat="42.65824941868163" lon="11.66171029622432"><ele>324.3333333333333</ele><time>2026-03-29T12:22:28.999Z</time></trkpt><trkpt lat="42.65826196312695" lon="11.661489106403817"><ele>322.0</ele><time>2026-03-29T12:22:29.999Z</time></trkpt><trkpt lat="42.658302935729175" lon="11.661275792717348"><ele>318.66666666666663</ele><time>2026-03-29T12:22:30.999Z</time></trkpt><trkpt lat="42.658364429417254" lon="11.661087481338242"><ele>315.3333333333333</ele><time>2026-03-29T12:22:31.999Z</time></trkpt><trkpt lat="42.65846099716819" lon="11.66091861743465"><ele>312.0</ele><time>2026-03-29T12:22:32.999Z</time></trkpt><trkpt lat="42.65859751808677" lon="11.660782249138778"><ele>314.0</ele><time>2026-03-29T12:22:33.999Z</time></trkpt><trkpt lat="42.65875050663208" lon="11.660665514204524"><ele>316.0</ele><time>2026-03-29T12:22:35.001Z</time></trkpt><trkpt lat="42.65886558670436" lon="11.660498302131884"><ele>318.0</ele><time>2026-03-29T12:22:36.001Z</time></trkpt><trkpt lat="42.658988347963245" lon="11.660321758032104"><ele>313.3333333333333</ele><time>2026-03-29T12:22:37.001Z</time></trkpt><trkpt lat="42.65910452859628" lon="11.660098942306112"><ele>308.66666666666663</ele><time>2026-03-29T12:22:38.001Z</time></trkpt><trkpt lat="42.65922846425581" lon="11.659861202461629"><ele>304.0</ele><time>2026-03-29T12:22:39.002Z</time></trkpt><trkpt lat="42.659333215572666" lon="11.659601933715011"><ele>303.3333333333333</ele><time>2026-03-29T12:22:40.002Z</time></trkpt><trkpt lat="42.65943103477126" lon="11.65933703478447"><ele>302.6666666666667</ele><time>2026-03-29T12:22:41.001Z</time></trkpt><trkpt lat="42.65952159452968" lon="11.659065636570624"><ele>302.0</ele><time>2026-03-29T12:22:42.001Z</time></trkpt><trkpt lat="42.659586456670176" lon="11.65877314402676"><ele>298.0</ele><time>2026-03-29T12:22:43.001Z</time></trkpt><trkpt lat="42.65964357020208" lon="11.658481951903465"><ele>294.0</ele><time>2026-03-29T12:22:44.001Z</time></trkpt><trkpt lat="42.65968861883989" lon="11.658168826219518"><ele>294.0</ele><time>2026-03-29T12:22:45.001Z</time></trkpt><trkpt lat="42.659704053919526" lon="11.65785185661636"><ele>294.0</ele><time>2026-03-29T12:22:46.001Z</time></trkpt><trkpt lat="42.659705889398246" lon="11.657526402012818"><ele>294.5</ele><time>2026-03-29T12:22:47.002Z</time></trkpt><trkpt lat="42.6596833803032" lon="11.657196399281599"><ele>295.0</ele><time>2026-03-29T12:22:48.001Z</time></trkpt><trkpt lat="42.65964014130835" lon="11.656872721506886"><ele>294.0</ele><time>2026-03-29T12:22:49.001Z</time></trkpt><trkpt lat="42.659580165200985" lon="11.656552816739818"><ele>293.0</ele><time>2026-03-29T12:22:50.001Z</time></trkpt><trkpt lat="42.65949617258846" lon="11.65624443816118"><ele>291.0</ele><time>2026-03-29T12:22:51.001Z</time></trkpt><trkpt lat="42.65940038878693" lon="11.655939588943385"><ele>289.0</ele><time>2026-03-29T12:22:52.001Z</time></trkpt><trkpt lat="42.659280920022255" lon="11.655650857451148"><ele>289.0</ele><time>2026-03-29T12:22:53.001Z</time></trkpt><trkpt lat="42.65915045940638" lon="11.655365524172556"><ele>289.0</ele><time>2026-03-29T12:22:54.001Z</time></trkpt><trkpt lat="42.659008259946305" lon="11.655090270307907"><ele>289.5</ele><time>2026-03-29T12:22:55.001Z</time></trkpt><trkpt lat="42.65886623964296" lon="11.654821741721682"><ele>290.0</ele><time>2026-03-29T12:22:56.001Z</time></trkpt><trkpt lat="42.65873438087917" lon="11.654566442973199"><ele>290.0</ele><time>2026-03-29T12:22:57.001Z</time></trkpt><trkpt lat="42.658625288937564" lon="11.654306615269947"><ele>290.0</ele><time>2026-03-29T12:22:58.001Z</time></trkpt><trkpt lat="42.65854375777734" lon="11.654048195950033"><ele>290.0</ele><time>2026-03-29T12:22:59.001Z</time></trkpt><trkpt lat="42.65848931988072" lon="11.653782850747383"><ele>289.0</ele><time>2026-03-29T12:23:00.001Z</time></trkpt><trkpt lat="42.65845888771323" lon="11.653497673850266"><ele>288.0</ele><time>2026-03-29T12:23:01.001Z</time></trkpt><trkpt lat="42.65844830671011" lon="11.65319259661906"><ele>287.0</ele><time>2026-03-29T12:23:02.001Z</time></trkpt><trkpt lat="42.65843800240032" lon="11.652890530690124"><ele>286.6666666666667</ele><time>2026-03-29T12:23:03.001Z</time></trkpt><trkpt lat="42.658426251483185" lon="11.652586773945362"><ele>286.3333333333333</ele><time>2026-03-29T12:23:04.001Z</time></trkpt><trkpt lat="42.658415990708576" lon="11.652293034151509"><ele>286.0</ele><time>2026-03-29T12:23:05.001Z</time></trkpt><trkpt lat="42.65840485566657" lon="11.652015571682867"><ele>284.66666666666663</ele><time>2026-03-29T12:23:06.001Z</time></trkpt><trkpt lat="42.65839224638905" lon="11.651728352033956"><ele>283.3333333333333</ele><time>2026-03-29T12:23:07.001Z</time></trkpt><trkpt lat="42.65838349422883" lon="11.651452123599697"><ele>282.0</ele><time>2026-03-29T12:23:08.001Z</time></trkpt><trkpt lat="42.65837371059588" lon="11.651185435590302"><ele>280.0</ele><time>2026-03-29T12:23:09.001Z</time></trkpt><trkpt lat="42.65834511355624" lon="11.65092360915191"><ele>278.0</ele><time>2026-03-29T12:23:10.001Z</time></trkpt><trkpt lat="42.65829677424284" lon="11.650680962837233"><ele>276.0</ele><time>2026-03-29T12:23:11.001Z</time></trkpt><trkpt lat="42.658225026703285" lon="11.650450682628046"><ele>273.0</ele><time>2026-03-29T12:23:12.001Z</time></trkpt><trkpt lat="42.65812917978651" lon="11.650243276061017"><ele>270.0</ele><time>2026-03-29T12:23:13.001Z</time></trkpt><trkpt lat="42.65802582959807" lon="11.650049258528512"><ele>267.0</ele><time>2026-03-29T12:23:14.001Z</time></trkpt><trkpt lat="42.65793841958404" lon="11.649880277915603"><ele>267.0</ele><time>2026-03-29T12:23:15.001Z</time></trkpt><trkpt lat="42.65787668656954" lon="11.649726865090155"><ele>267.0</ele><time>2026-03-29T12:23:16.001Z</time></trkpt><trkpt lat="42.65782504877042" lon="11.649601935619673"><ele>267.0</ele><time>2026-03-29T12:23:17.001Z</time></trkpt><trkpt lat="42.65778625920361" lon="11.649521587895753"><ele>267.0</ele><time>2026-03-29T12:23:18.001Z</time></trkpt><trkpt lat="42.6577706129145" lon="11.649377625898488"><ele>267.0</ele><time>2026-03-29T12:23:20.001Z</time></trkpt><trkpt lat="42.6578349063493" lon="11.649246894846906"><ele>266.0</ele><time>2026-03-29T12:23:22.001Z</time></trkpt><trkpt lat="42.65790481267171" lon="11.649168665130013"><ele>265.0</ele><time>2026-03-29T12:23:23.001Z</time></trkpt><trkpt lat="42.65798430500175" lon="11.649101657423564"><ele>264.0</ele><time>2026-03-29T12:23:24Z</time></trkpt><trkpt lat="42.65804495759399" lon="11.649006971148424"><ele>263.0</ele><time>2026-03-29T12:23:25Z</time></trkpt><trkpt lat="42.658115942707525" lon="11.648868480083056"><ele>262.0</ele><time>2026-03-29T12:23:26Z</time></trkpt><trkpt lat="42.65814772697546" lon="11.648685209605532"><ele>262.5</ele><time>2026-03-29T12:23:27Z</time></trkpt><trkpt lat="42.65815440201725" lon="11.648514379080757"><ele>263.0</ele><time>2026-03-29T12:23:28Z</time></trkpt><trkpt lat="42.658157031875476" lon="11.64833076112554"><ele>263.5</ele><time>2026-03-29T12:23:29Z</time></trkpt><trkpt lat="42.658161248533276" lon="11.648130831185084"><ele>264.0</ele><time>2026-03-29T12:23:30Z</time></trkpt><trkpt lat="42.65816582465878" lon="11.647919404994964"><ele>265.3333333333333</ele><time>2026-03-29T12:23:31Z</time></trkpt><trkpt lat="42.65817186341976" lon="11.647692052942917"><ele>266.66666666666663</ele><time>2026-03-29T12:23:32Z</time></trkpt><trkpt lat="42.65817776339595" lon="11.647485390467217"><ele>268.0</ele><time>2026-03-29T12:23:33Z</time></trkpt><trkpt lat="42.65818324229275" lon="11.647296541969"><ele>268.0</ele><time>2026-03-29T12:23:34Z</time></trkpt><trkpt lat="42.658196021247456" lon="11.64711891025265"><ele>268.0</ele><time>2026-03-29T12:23:35Z</time></trkpt><trkpt lat="42.65824983837323" lon="11.646966118698412"><ele>268.0</ele><time>2026-03-29T12:23:36Z</time></trkpt><trkpt lat="42.658334718353316" lon="11.646792986294432"><ele>268.0</ele><time>2026-03-29T12:23:37Z</time></trkpt><trkpt lat="42.65840305826652" lon="11.646595967109985"><ele>270.3333333333333</ele><time>2026-03-29T12:23:38Z</time></trkpt><trkpt lat="42.65846444116134" lon="11.646390027693768"><ele>272.6666666666667</ele><time>2026-03-29T12:23:39Z</time></trkpt><trkpt lat="42.658519450574126" lon="11.646189647779863"><ele>275.0</ele><time>2026-03-29T12:23:40Z</time></trkpt><trkpt lat="42.65857075428791" lon="11.645990973983386"><ele>278.33333333333337</ele><time>2026-03-29T12:23:41Z</time></trkpt><trkpt lat="42.65861623479026" lon="11.64576859376004"><ele>281.6666666666667</ele><time>2026-03-29T12:23:42Z</time></trkpt><trkpt lat="42.65864383525489" lon="11.645556594660045"><ele>285.0</ele><time>2026-03-29T12:23:43Z</time></trkpt><trkpt lat="42.65865719575603" lon="11.645330250734634"><ele>271.6666666666667</ele><time>2026-03-29T12:23:44Z</time></trkpt><trkpt lat="42.65865513442631" lon="11.64509284535546"><ele>258.33333333333337</ele><time>2026-03-29T12:23:45Z</time></trkpt><trkpt lat="42.65864576896898" lon="11.644855389460696"><ele>245.0</ele><time>2026-03-29T12:23:46Z</time></trkpt><trkpt lat="42.65863613676829" lon="11.644611170432597"><ele>245.0</ele><time>2026-03-29T12:23:47Z</time></trkpt><trkpt lat="42.658626361601385" lon="11.644353664462175"><ele>245.0</ele><time>2026-03-29T12:23:48Z</time></trkpt><trkpt lat="42.65861710953603" lon="11.64409555236432"><ele>245.0</ele><time>2026-03-29T12:23:49Z</time></trkpt><trkpt lat="42.658608037605205" lon="11.643838322919866"><ele>257.0</ele><time>2026-03-29T12:23:50Z</time></trkpt><trkpt lat="42.65859913214584" lon="11.643593631860849"><ele>269.0</ele><time>2026-03-29T12:23:51Z</time></trkpt><trkpt lat="42.65858667033091" lon="11.643366002452803"><ele>281.0</ele><time>2026-03-29T12:23:52Z</time></trkpt><trkpt lat="42.65857063686297" lon="11.643165041117895"><ele>281.0</ele><time>2026-03-29T12:23:53Z</time></trkpt><trkpt lat="42.65852196580316" lon="11.642968302649361"><ele>281.0</ele><time>2026-03-29T12:23:54Z</time></trkpt><trkpt lat="42.65844179781526" lon="11.642815392286876"><ele>281.0</ele><time>2026-03-29T12:23:55Z</time></trkpt><trkpt lat="42.65835137968811" lon="11.642697081789015"><ele>281.0</ele><time>2026-03-29T12:23:56Z</time></trkpt><trkpt lat="42.65824929884034" lon="11.642549269727084"><ele>277.0</ele><time>2026-03-29T12:23:57Z</time></trkpt><trkpt lat="42.65815542734004" lon="11.642390314312147"><ele>273.0</ele><time>2026-03-29T12:23:58Z</time></trkpt><trkpt lat="42.65803975729125" lon="11.642231492619972"><ele>269.0</ele><time>2026-03-29T12:23:59Z</time></trkpt><trkpt lat="42.65792551098901" lon="11.642080199439581"><ele>271.0</ele><time>2026-03-29T12:24:00Z</time></trkpt><trkpt lat="42.65781022577299" lon="11.641916976703484"><ele>273.0</ele><time>2026-03-29T12:24:01Z</time></trkpt><trkpt lat="42.65771320937728" lon="11.64173090476336"><ele>275.0</ele><time>2026-03-29T12:24:02Z</time></trkpt><trkpt lat="42.6576216882988" lon="11.641538784805636"><ele>275.0</ele><time>2026-03-29T12:24:03Z</time></trkpt><trkpt lat="42.657528457531356" lon="11.641326037420173"><ele>275.0</ele><time>2026-03-29T12:24:04Z</time></trkpt><trkpt lat="42.65742528330449" lon="11.641115086983115"><ele>275.0</ele><time>2026-03-29T12:24:05Z</time></trkpt><trkpt lat="42.65730411472784" lon="11.640923274226681"><ele>276.33333333333337</ele><time>2026-03-29T12:24:06Z</time></trkpt><trkpt lat="42.657168660401275" lon="11.640749201292547"><ele>277.6666666666667</ele><time>2026-03-29T12:24:07Z</time></trkpt><trkpt lat="42.657035097436136" lon="11.64059568851539"><ele>279.0</ele><time>2026-03-29T12:24:08Z</time></trkpt><trkpt lat="42.65690440613655" lon="11.640448415476456"><ele>273.0</ele><time>2026-03-29T12:24:09Z</time></trkpt><trkpt lat="42.65678330346069" lon="11.640289984184097"><ele>267.0</ele><time>2026-03-29T12:24:10Z</time></trkpt><trkpt lat="42.65667206652631" lon="11.640108929565915"><ele>261.0</ele><time>2026-03-29T12:24:11Z</time></trkpt><trkpt lat="42.65658267121517" lon="11.63989774587202"><ele>261.0</ele><time>2026-03-29T12:24:11.999Z</time></trkpt><trkpt lat="42.65648766310648" lon="11.639696566485295"><ele>261.0</ele><time>2026-03-29T12:24:12.999Z</time></trkpt><trkpt lat="42.65639378977621" lon="11.639497748269216"><ele>261.0</ele><time>2026-03-29T12:24:13.999Z</time></trkpt><trkpt lat="42.656309731775664" lon="11.639312995307913"><ele>257.0</ele><time>2026-03-29T12:24:14.999Z</time></trkpt><trkpt lat="42.65624044886997" lon="11.639166043023039"><ele>253.0</ele><time>2026-03-29T12:24:15.999Z</time></trkpt><trkpt lat="42.656152882461164" lon="11.639046031707386"><ele>249.0</ele><time>2026-03-29T12:24:16.999Z</time></trkpt><trkpt lat="42.65603601836305" lon="11.63899372308456"><ele>245.0</ele><time>2026-03-29T12:24:17.999Z</time></trkpt><trkpt lat="42.6559351778971" lon="11.639004523812957"><ele>245.0</ele><time>2026-03-29T12:24:18.999Z</time></trkpt><trkpt lat="42.65584968984486" lon="11.63906529046314"><ele>245.0</ele><time>2026-03-29T12:24:19.999Z</time></trkpt><trkpt lat="42.65578325189166" lon="11.639129075906533"><ele>245.0</ele><time>2026-03-29T12:24:20.999Z</time></trkpt><trkpt lat="42.65571989908264" lon="11.63924403790976"><ele>245.0</ele><time>2026-03-29T12:24:21.999Z</time></trkpt><trkpt lat="42.65564853890966" lon="11.63938462086759"><ele>245.0</ele><time>2026-03-29T12:24:22.999Z</time></trkpt><trkpt lat="42.65556669167237" lon="11.639538924382325"><ele>249.75</ele><time>2026-03-29T12:24:23.999Z</time></trkpt><trkpt lat="42.65550429653155" lon="11.639713603168536"><ele>254.5</ele><time>2026-03-29T12:24:24.999Z</time></trkpt><trkpt lat="42.65544765131499" lon="11.63988744293441"><ele>259.25</ele><time>2026-03-29T12:24:25.999Z</time></trkpt><trkpt lat="42.655409761995976" lon="11.640065523025692"><ele>264.0</ele><time>2026-03-29T12:24:26.999Z</time></trkpt><trkpt lat="42.65537200891048" lon="11.640249151254059"><ele>260.6666666666667</ele><time>2026-03-29T12:24:27.999Z</time></trkpt><trkpt lat="42.6553319201814" lon="11.64044413998275"><ele>257.33333333333337</ele><time>2026-03-29T12:24:28.999Z</time></trkpt><trkpt lat="42.65528849441304" lon="11.640655359765962"><ele>254.0</ele><time>2026-03-29T12:24:29.999Z</time></trkpt><trkpt lat="42.655245892507814" lon="11.640855423497587"><ele>254.0</ele><time>2026-03-29T12:24:30.999Z</time></trkpt><trkpt lat="42.6552071184947" lon="11.641036885266203"><ele>254.0</ele><time>2026-03-29T12:24:31.999Z</time></trkpt><trkpt lat="42.65517331282807" lon="11.641197577330557"><ele>254.0</ele><time>2026-03-29T12:24:32.999Z</time></trkpt><trkpt lat="42.65514258576266" lon="11.641350630926004"><ele>254.0</ele><time>2026-03-29T12:24:33.999Z</time></trkpt><trkpt lat="42.655156138204916" lon="11.641502514599859"><ele>254.25</ele><time>2026-03-29T12:24:34.999Z</time></trkpt><trkpt lat="42.65504728637348" lon="11.641661889416294"><ele>254.5</ele><time>2026-03-29T12:24:35.999Z</time></trkpt><trkpt lat="42.65497091193907" lon="11.641786849925774"><ele>254.75</ele><time>2026-03-29T12:24:36.999Z</time></trkpt><trkpt lat="42.654892290193274" lon="11.64181040979149"><ele>255.0</ele><time>2026-03-29T12:24:37.999Z</time></trkpt><trkpt lat="42.65480230918769" lon="11.641826743215454"><ele>255.0</ele><time>2026-03-29T12:24:38.999Z</time></trkpt><trkpt lat="42.6547435793949" lon="11.641744192346273"><ele>255.0</ele><time>2026-03-29T12:24:39.999Z</time></trkpt><trkpt lat="42.654709653315535" lon="11.641657100771647"><ele>255.0</ele><time>2026-03-29T12:24:41.002Z</time></trkpt><trkpt lat="42.65470233825599" lon="11.641542654983432"><ele>255.0</ele><time>2026-03-29T12:24:42.001Z</time></trkpt><trkpt lat="42.65472571763255" lon="11.64140791610043"><ele>255.0</ele><time>2026-03-29T12:24:43.001Z</time></trkpt><trkpt lat="42.654762768983204" lon="11.64124690410022"><ele>254.66666666666669</ele><time>2026-03-29T12:24:44.001Z</time></trkpt><trkpt lat="42.654826650989136" lon="11.64107180545894"><ele>254.33333333333334</ele><time>2026-03-29T12:24:45.001Z</time></trkpt><trkpt lat="42.654892357757625" lon="11.640887345365645"><ele>254.0</ele><time>2026-03-29T12:24:46.001Z</time></trkpt><trkpt lat="42.65497119089993" lon="11.64067818328347"><ele>254.0</ele><time>2026-03-29T12:24:47.001Z</time></trkpt><trkpt lat="42.655057790695594" lon="11.640450457079417"><ele>254.0</ele><time>2026-03-29T12:24:48.001Z</time></trkpt><trkpt lat="42.65514579635841" lon="11.64021848493104"><ele>254.0</ele><time>2026-03-29T12:24:49.001Z</time></trkpt><trkpt lat="42.65524176596549" lon="11.639980370220874"><ele>251.0</ele><time>2026-03-29T12:24:50.002Z</time></trkpt><trkpt lat="42.655334308833154" lon="11.639754230744689"><ele>248.0</ele><time>2026-03-29T12:24:51.001Z</time></trkpt><trkpt lat="42.65541175624119" lon="11.639534673747626"><ele>245.0</ele><time>2026-03-29T12:24:52.001Z</time></trkpt><trkpt lat="42.655481452248225" lon="11.639318103373977"><ele>245.0</ele><time>2026-03-29T12:24:53.001Z</time></trkpt><trkpt lat="42.65557100930193" lon="11.639103139037827"><ele>245.0</ele><time>2026-03-29T12:24:54.002Z</time></trkpt><trkpt lat="42.655662227533895" lon="11.63889015586626"><ele>245.0</ele><time>2026-03-29T12:24:55.002Z</time></trkpt><trkpt lat="42.655771914150534" lon="11.638760657914407"><ele>245.0</ele><time>2026-03-29T12:24:56.002Z</time></trkpt><trkpt lat="42.65587794367151" lon="11.638652009655418"><ele>245.0</ele><time>2026-03-29T12:24:57.002Z</time></trkpt><trkpt lat="42.656005857640125" lon="11.638531982307107"><ele>245.0</ele><time>2026-03-29T12:24:58.002Z</time></trkpt><trkpt lat="42.65614543116886" lon="11.638392930557313"><ele>237.33333333333334</ele><time>2026-03-29T12:24:59.002Z</time></trkpt><trkpt lat="42.65627716087369" lon="11.638231679953185"><ele>229.66666666666669</ele><time>2026-03-29T12:25:00.002Z</time></trkpt><trkpt lat="42.65643328148145" lon="11.638106256046868"><ele>222.0</ele><time>2026-03-29T12:25:01.002Z</time></trkpt><trkpt lat="42.65658687008965" lon="11.637971371207064"><ele>222.0</ele><time>2026-03-29T12:25:02.002Z</time></trkpt><trkpt lat="42.6567311280527" lon="11.63784068233161"><ele>222.0</ele><time>2026-03-29T12:25:03.002Z</time></trkpt><trkpt lat="42.65686744859934" lon="11.63772200142196"><ele>222.0</ele><time>2026-03-29T12:25:04.002Z</time></trkpt><trkpt lat="42.65699453680674" lon="11.637607562825277"><ele>228.66666666666669</ele><time>2026-03-29T12:25:05.002Z</time></trkpt><trkpt lat="42.65711286513064" lon="11.637488819503623"><ele>235.33333333333334</ele><time>2026-03-29T12:25:06.002Z</time></trkpt><trkpt lat="42.65722054542884" lon="11.63734346092033"><ele>242.0</ele><time>2026-03-29T12:25:07.002Z</time></trkpt><trkpt lat="42.65731899078402" lon="11.63718391831436"><ele>242.0</ele><time>2026-03-29T12:25:08.001Z</time></trkpt><trkpt lat="42.65740441153309" lon="11.637006907309965"><ele>242.0</ele><time>2026-03-29T12:25:09.001Z</time></trkpt><trkpt lat="42.65748093100123" lon="11.636828596530178"><ele>242.0</ele><time>2026-03-29T12:25:10.001Z</time></trkpt><trkpt lat="42.657556341741945" lon="11.636656169378487"><ele>240.25</ele><time>2026-03-29T12:25:11.001Z</time></trkpt><trkpt lat="42.65764707702246" lon="11.636504012503973"><ele>238.5</ele><time>2026-03-29T12:25:12.001Z</time></trkpt><trkpt lat="42.657720458184585" lon="11.636340862533801"><ele>236.75</ele><time>2026-03-29T12:25:13.001Z</time></trkpt><trkpt lat="42.65778241638653" lon="11.636175115111667"><ele>235.0</ele><time>2026-03-29T12:25:14.001Z</time></trkpt><trkpt lat="42.65784220698761" lon="11.63601329477536"><ele>233.25</ele><time>2026-03-29T12:25:15.001Z</time></trkpt><trkpt lat="42.657894651130874" lon="11.63585882713846"><ele>231.5</ele><time>2026-03-29T12:25:16.001Z</time></trkpt><trkpt lat="42.65794137092616" lon="11.635701748657505"><ele>229.75</ele><time>2026-03-29T12:25:17.001Z</time></trkpt><trkpt lat="42.657985953536574" lon="11.635543481202822"><ele>228.0</ele><time>2026-03-29T12:25:18.001Z</time></trkpt><trkpt lat="42.65802907493984" lon="11.635403148394042"><ele>227.60000000000002</ele><time>2026-03-29T12:25:19.001Z</time></trkpt><trkpt lat="42.65806827219332" lon="11.635262848350292"><ele>227.20000000000002</ele><time>2026-03-29T12:25:20.001Z</time></trkpt><trkpt lat="42.65810577607776" lon="11.635132815681946"><ele>226.8</ele><time>2026-03-29T12:25:21.001Z</time></trkpt><trkpt lat="42.6581452321814" lon="11.63500851333507"><ele>226.4</ele><time>2026-03-29T12:25:22.001Z</time></trkpt><trkpt lat="42.65817183189669" lon="11.634891081056683"><ele>226.0</ele><time>2026-03-29T12:25:23.001Z</time></trkpt><trkpt lat="42.65817792910655" lon="11.634768120223612"><ele>226.0</ele><time>2026-03-29T12:25:24.001Z</time></trkpt><trkpt lat="42.65816516623847" lon="11.634652966881365"><ele>226.00000000000003</ele><time>2026-03-29T12:25:25.001Z</time></trkpt><trkpt lat="42.65812231209067" lon="11.634545029501727"><ele>226.00000000000003</ele><time>2026-03-29T12:25:26.001Z</time></trkpt><trkpt lat="42.65805290539012" lon="11.634456494534664"><ele>226.0</ele><time>2026-03-29T12:25:27.001Z</time></trkpt><trkpt lat="42.65796848833835" lon="11.634377344976786"><ele>226.0</ele><time>2026-03-29T12:25:28.001Z</time></trkpt><trkpt lat="42.65788092308817" lon="11.634274805323495"><ele>225.0</ele><time>2026-03-29T12:25:29.001Z</time></trkpt><trkpt lat="42.65777898946499" lon="11.634164424054314"><ele>224.0</ele><time>2026-03-29T12:25:30.001Z</time></trkpt><trkpt lat="42.6576657805388" lon="11.634058873566222"><ele>223.0</ele><time>2026-03-29T12:25:31.001Z</time></trkpt><trkpt lat="42.657555501538596" lon="11.633936074043557"><ele>222.0</ele><time>2026-03-29T12:25:32.001Z</time></trkpt><trkpt lat="42.657459209844795" lon="11.633791861416627"><ele>225.0</ele><time>2026-03-29T12:25:33.001Z</time></trkpt><trkpt lat="42.65737301043098" lon="11.633619032955872"><ele>228.0</ele><time>2026-03-29T12:25:34.001Z</time></trkpt><trkpt lat="42.657287446478094" lon="11.633427934550825"><ele>231.0</ele><time>2026-03-29T12:25:35.001Z</time></trkpt><trkpt lat="42.657193048428056" lon="11.633219413812327"><ele>231.0</ele><time>2026-03-29T12:25:36.001Z</time></trkpt><trkpt lat="42.657097729074835" lon="11.633004358522188"><ele>231.0</ele><time>2026-03-29T12:25:37.001Z</time></trkpt><trkpt lat="42.657013374781066" lon="11.632793517536452"><ele>231.0</ele><time>2026-03-29T12:25:38.001Z</time></trkpt><trkpt lat="42.6569172070333" lon="11.632577203981638"><ele>232.0</ele><time>2026-03-29T12:25:39.001Z</time></trkpt><trkpt lat="42.6568011729647" lon="11.632357859061287"><ele>233.0</ele><time>2026-03-29T12:25:40.001Z</time></trkpt><trkpt lat="42.65668216225709" lon="11.632146497343253"><ele>234.0</ele><time>2026-03-29T12:25:41.001Z</time></trkpt><trkpt lat="42.65657480100208" lon="11.63192637333174"><ele>234.0</ele><time>2026-03-29T12:25:42.001Z</time></trkpt><trkpt lat="42.65646415831606" lon="11.631715935346255"><ele>234.0</ele><time>2026-03-29T12:25:43.001Z</time></trkpt><trkpt lat="42.65635389282657" lon="11.631500239579983"><ele>234.0</ele><time>2026-03-29T12:25:44.001Z</time></trkpt><trkpt lat="42.65624544864935" lon="11.631277524169661"><ele>229.66666666666669</ele><time>2026-03-29T12:25:45.001Z</time></trkpt><trkpt lat="42.65613881647675" lon="11.631054718263439"><ele>225.33333333333334</ele><time>2026-03-29T12:25:46.001Z</time></trkpt><trkpt lat="42.65603912984842" lon="11.63082258019582"><ele>221.0</ele><time>2026-03-29T12:25:47.001Z</time></trkpt><trkpt lat="42.65594389791472" lon="11.630588050625404"><ele>221.0</ele><time>2026-03-29T12:25:48.001Z</time></trkpt><trkpt lat="42.65585732342275" lon="11.630364587624126"><ele>221.0</ele><time>2026-03-29T12:25:49.001Z</time></trkpt><trkpt lat="42.655767886300126" lon="11.630146447102462"><ele>221.0</ele><time>2026-03-29T12:25:50.001Z</time></trkpt><trkpt lat="42.655678837919645" lon="11.629937043726956"><ele>224.66666666666669</ele><time>2026-03-29T12:25:51.001Z</time></trkpt><trkpt lat="42.65559097950201" lon="11.629726698987769"><ele>228.33333333333331</ele><time>2026-03-29T12:25:52.001Z</time></trkpt><trkpt lat="42.655484306168965" lon="11.629536793603354"><ele>232.0</ele><time>2026-03-29T12:25:53.001Z</time></trkpt><trkpt lat="42.65536072956861" lon="11.629368670465489"><ele>228.33333333333331</ele><time>2026-03-29T12:25:54.001Z</time></trkpt><trkpt lat="42.65523138883928" lon="11.629219555003361"><ele>224.66666666666669</ele><time>2026-03-29T12:25:55.001Z</time></trkpt><trkpt lat="42.65511255887442" lon="11.629056070989725"><ele>221.0</ele><time>2026-03-29T12:25:56.001Z</time></trkpt><trkpt lat="42.65499508781011" lon="11.62891579124427"><ele>221.0</ele><time>2026-03-29T12:25:57Z</time></trkpt><trkpt lat="42.65488819315491" lon="11.628801956944105"><ele>221.00000000000003</ele><time>2026-03-29T12:25:58Z</time></trkpt><trkpt lat="42.65482221678926" lon="11.628677521313254"><ele>221.00000000000003</ele><time>2026-03-29T12:25:59Z</time></trkpt><trkpt lat="42.65476845941591" lon="11.628553960592642"><ele>221.0</ele><time>2026-03-29T12:26:00Z</time></trkpt><trkpt lat="42.6547472548025" lon="11.628429947900306"><ele>221.0</ele><time>2026-03-29T12:26:01Z</time></trkpt><trkpt lat="42.65474191173386" lon="11.628292288626133"><ele>222.5</ele><time>2026-03-29T12:26:02Z</time></trkpt><trkpt lat="42.65476061664623" lon="11.628170848886766"><ele>224.0</ele><time>2026-03-29T12:26:03Z</time></trkpt><trkpt lat="42.654806891707146" lon="11.628035636552724"><ele>225.5</ele><time>2026-03-29T12:26:04Z</time></trkpt><trkpt lat="42.6548674312762" lon="11.627842147427316"><ele>227.0</ele><time>2026-03-29T12:26:05Z</time></trkpt><trkpt lat="42.654923011757" lon="11.627632896201176"><ele>227.66666666666669</ele><time>2026-03-29T12:26:06Z</time></trkpt><trkpt lat="42.65497903413424" lon="11.627447055627307"><ele>228.33333333333331</ele><time>2026-03-29T12:26:07Z</time></trkpt><trkpt lat="42.65502570654919" lon="11.627239279562165"><ele>229.0</ele><time>2026-03-29T12:26:08Z</time></trkpt><trkpt lat="42.6550250956827" lon="11.627027316656681"><ele>229.0</ele><time>2026-03-29T12:26:09Z</time></trkpt><trkpt lat="42.65501496913338" lon="11.626814621823087"><ele>229.0</ele><time>2026-03-29T12:26:10Z</time></trkpt><trkpt lat="42.65500251047017" lon="11.626586148198328"><ele>229.0</ele><time>2026-03-29T12:26:11Z</time></trkpt><trkpt lat="42.654990091267265" lon="11.626358398013613"><ele>229.0</ele><time>2026-03-29T12:26:12Z</time></trkpt><trkpt lat="42.65497837130643" lon="11.626142207623078"><ele>229.0</ele><time>2026-03-29T12:26:13Z</time></trkpt><trkpt lat="42.65496647083592" lon="11.62592130317774"><ele>229.0</ele><time>2026-03-29T12:26:14Z</time></trkpt><trkpt lat="42.65495406247147" lon="11.625690970861037"><ele>229.0</ele><time>2026-03-29T12:26:15Z</time></trkpt><trkpt lat="42.65494111845798" lon="11.625465665703503"><ele>229.0</ele><time>2026-03-29T12:26:16Z</time></trkpt><trkpt lat="42.65493465314375" lon="11.625266054812217"><ele>229.0</ele><time>2026-03-29T12:26:17Z</time></trkpt><trkpt lat="42.65493683767986" lon="11.625075230739252"><ele>229.0</ele><time>2026-03-29T12:26:18Z</time></trkpt><trkpt lat="42.654980371310906" lon="11.624894354002855"><ele>229.0</ele><time>2026-03-29T12:26:19Z</time></trkpt><trkpt lat="42.65504080276887" lon="11.624716800496088"><ele>229.0</ele><time>2026-03-29T12:26:20Z</time></trkpt><trkpt lat="42.655105610107164" lon="11.624537298018236"><ele>229.0</ele><time>2026-03-29T12:26:21Z</time></trkpt><trkpt lat="42.655169805224695" lon="11.6243421298398"><ele>229.0</ele><time>2026-03-29T12:26:22Z</time></trkpt><trkpt lat="42.655237400299804" lon="11.624154075751818"><ele>229.0</ele><time>2026-03-29T12:26:23Z</time></trkpt><trkpt lat="42.65530222877194" lon="11.62396380722595"><ele>229.0</ele><time>2026-03-29T12:26:24Z</time></trkpt><trkpt lat="42.655363567995316" lon="11.6237823698157"><ele>229.25</ele><time>2026-03-29T12:26:25Z</time></trkpt><trkpt lat="42.65542812921206" lon="11.62361289134421"><ele>229.5</ele><time>2026-03-29T12:26:26Z</time></trkpt><trkpt lat="42.65549934824743" lon="11.623448170777909"><ele>229.75</ele><time>2026-03-29T12:26:27Z</time></trkpt><trkpt lat="42.65558605998018" lon="11.623302458793079"><ele>230.0</ele><time>2026-03-29T12:26:28Z</time></trkpt><trkpt lat="42.6556949413564" lon="11.623190294845005"><ele>230.0</ele><time>2026-03-29T12:26:29Z</time></trkpt><trkpt lat="42.65581492143673" lon="11.623115185486185"><ele>230.0</ele><time>2026-03-29T12:26:30Z</time></trkpt><trkpt lat="42.655951492605546" lon="11.623057290751921"><ele>230.0</ele><time>2026-03-29T12:26:31Z</time></trkpt><trkpt lat="42.65609143051682" lon="11.623007017274952"><ele>230.0</ele><time>2026-03-29T12:26:32Z</time></trkpt><trkpt lat="42.65623914192114" lon="11.622940862454323"><ele>228.33333333333334</ele><time>2026-03-29T12:26:33Z</time></trkpt><trkpt lat="42.65639852777681" lon="11.622878400348103"><ele>226.66666666666669</ele><time>2026-03-29T12:26:34Z</time></trkpt><trkpt lat="42.65656282572174" lon="11.622811609372471"><ele>225.0</ele><time>2026-03-29T12:26:35Z</time></trkpt><trkpt lat="42.65673857836408" lon="11.622747247892635"><ele>224.33333333333331</ele><time>2026-03-29T12:26:36Z</time></trkpt><trkpt lat="42.65691755663627" lon="11.622702507599875"><ele>223.66666666666666</ele><time>2026-03-29T12:26:37Z</time></trkpt><trkpt lat="42.657097365462675" lon="11.622638060841783"><ele>223.0</ele><time>2026-03-29T12:26:38Z</time></trkpt><trkpt lat="42.65727245833454" lon="11.62257530436662"><ele>221.33333333333331</ele><time>2026-03-29T12:26:39Z</time></trkpt><trkpt lat="42.65744033779391" lon="11.622515133324399"><ele>219.66666666666669</ele><time>2026-03-29T12:26:40Z</time></trkpt><trkpt lat="42.657608544666815" lon="11.62245484491365"><ele>218.0</ele><time>2026-03-29T12:26:41Z</time></trkpt><trkpt lat="42.65777633953621" lon="11.622374447729229"><ele>217.66666666666669</ele><time>2026-03-29T12:26:42Z</time></trkpt><trkpt lat="42.65794174461513" lon="11.622317409727735"><ele>217.33333333333331</ele><time>2026-03-29T12:26:43Z</time></trkpt><trkpt lat="42.65810741518591" lon="11.622264022661978"><ele>217.0</ele><time>2026-03-29T12:26:44Z</time></trkpt><trkpt lat="42.65826658213587" lon="11.622207295009124"><ele>217.0</ele><time>2026-03-29T12:26:45Z</time></trkpt><trkpt lat="42.658416044543635" lon="11.622149611582019"><ele>217.0</ele><time>2026-03-29T12:26:45.999Z</time></trkpt><trkpt lat="42.65856600518819" lon="11.622122683996203"><ele>217.0</ele><time>2026-03-29T12:26:47.001Z</time></trkpt><trkpt lat="42.65870155432698" lon="11.622074034628454"><ele>217.0</ele><time>2026-03-29T12:26:48.001Z</time></trkpt><trkpt lat="42.65884054450062" lon="11.622025196769558"><ele>215.75</ele><time>2026-03-29T12:26:49.001Z</time></trkpt><trkpt lat="42.65896963286761" lon="11.62197886973183"><ele>214.5</ele><time>2026-03-29T12:26:50.001Z</time></trkpt><trkpt lat="42.65910457271879" lon="11.621929302013784"><ele>213.25</ele><time>2026-03-29T12:26:51.001Z</time></trkpt><trkpt lat="42.65924077950469" lon="11.621882370722219"><ele>212.0</ele><time>2026-03-29T12:26:52.001Z</time></trkpt><trkpt lat="42.65938721222436" lon="11.621832620324623"><ele>215.25</ele><time>2026-03-29T12:26:53.002Z</time></trkpt><trkpt lat="42.65953442357563" lon="11.621785217075885"><ele>218.5</ele><time>2026-03-29T12:26:54.001Z</time></trkpt><trkpt lat="42.659678223627225" lon="11.621742901928886"><ele>221.75</ele><time>2026-03-29T12:26:55.001Z</time></trkpt><trkpt lat="42.6598101735971" lon="11.621684512817348"><ele>225.0</ele><time>2026-03-29T12:26:56.001Z</time></trkpt><trkpt lat="42.65992683319634" lon="11.62160173425183"><ele>225.0</ele><time>2026-03-29T12:26:57.001Z</time></trkpt><trkpt lat="42.6600183976107" lon="11.621495522960078"><ele>225.0</ele><time>2026-03-29T12:26:58.001Z</time></trkpt><trkpt lat="42.660074963531905" lon="11.62135571716698"><ele>225.0</ele><time>2026-03-29T12:26:59.002Z</time></trkpt><trkpt lat="42.660111395714175" lon="11.621204971843772"><ele>225.0</ele><time>2026-03-29T12:27:00.002Z</time></trkpt><trkpt lat="42.66012353225103" lon="11.621044673303683"><ele>223.0</ele><time>2026-03-29T12:27:01.002Z</time></trkpt><trkpt lat="42.66012123094577" lon="11.620874632243945"><ele>221.0</ele><time>2026-03-29T12:27:02.001Z</time></trkpt><trkpt lat="42.6601194460695" lon="11.620697577459167"><ele>219.0</ele><time>2026-03-29T12:27:03.001Z</time></trkpt><trkpt lat="42.660109322326754" lon="11.620502273485057"><ele>217.0</ele><time>2026-03-29T12:27:04.001Z</time></trkpt><trkpt lat="42.660108751193455" lon="11.62027980782734"><ele>215.33333333333331</ele><time>2026-03-29T12:27:05.001Z</time></trkpt><trkpt lat="42.66010769239702" lon="11.620036161649375"><ele>213.66666666666669</ele><time>2026-03-29T12:27:06.001Z</time></trkpt><trkpt lat="42.66010600350064" lon="11.61978308007279"><ele>212.0</ele><time>2026-03-29T12:27:07.001Z</time></trkpt><trkpt lat="42.66010831006414" lon="11.619511531983324"><ele>211.0</ele><time>2026-03-29T12:27:08.001Z</time></trkpt><trkpt lat="42.660103506803026" lon="11.619235546843877"><ele>210.0</ele><time>2026-03-29T12:27:09.001Z</time></trkpt><trkpt lat="42.66009478079761" lon="11.618977122373625"><ele>209.0</ele><time>2026-03-29T12:27:10.001Z</time></trkpt><trkpt lat="42.66008815600658" lon="11.61873686047401"><ele>210.0</ele><time>2026-03-29T12:27:11.001Z</time></trkpt><trkpt lat="42.660084146382786" lon="11.618510569268915"><ele>211.0</ele><time>2026-03-29T12:27:12.001Z</time></trkpt><trkpt lat="42.66007961455542" lon="11.61829621288419"><ele>212.0</ele><time>2026-03-29T12:27:13.001Z</time></trkpt><trkpt lat="42.660075971565846" lon="11.618087425357226"><ele>212.0</ele><time>2026-03-29T12:27:14.001Z</time></trkpt><trkpt lat="42.66007639780954" lon="11.617877511628702"><ele>212.0</ele><time>2026-03-29T12:27:15.001Z</time></trkpt><trkpt lat="42.66007273322174" lon="11.617672105735995"><ele>212.0</ele><time>2026-03-29T12:27:16.001Z</time></trkpt><trkpt lat="42.66006513744006" lon="11.617478342026947"><ele>212.0</ele><time>2026-03-29T12:27:17.001Z</time></trkpt><trkpt lat="42.66006286534743" lon="11.617292838029664"><ele>212.75</ele><time>2026-03-29T12:27:18.001Z</time></trkpt><trkpt lat="42.66001464282594" lon="11.617122832835195"><ele>213.5</ele><time>2026-03-29T12:27:19.001Z</time></trkpt><trkpt lat="42.65993885784129" lon="11.616975476417192"><ele>214.25</ele><time>2026-03-29T12:27:20.001Z</time></trkpt><trkpt lat="42.65983760652909" lon="11.616855942753514"><ele>215.0</ele><time>2026-03-29T12:27:21.001Z</time></trkpt><trkpt lat="42.659707200707274" lon="11.616789480398568"><ele>215.0</ele><time>2026-03-29T12:27:22.001Z</time></trkpt><trkpt lat="42.65957593042319" lon="11.616742438592496"><ele>215.0</ele><time>2026-03-29T12:27:23.001Z</time></trkpt><trkpt lat="42.65944076728885" lon="11.616730065413279"><ele>215.0</ele><time>2026-03-29T12:27:24.001Z</time></trkpt><trkpt lat="42.65929096481224" lon="11.616745795208692"><ele>215.0</ele><time>2026-03-29T12:27:25.001Z</time></trkpt><trkpt lat="42.65913112470182" lon="11.616738323254047"><ele>215.0</ele><time>2026-03-29T12:27:26.001Z</time></trkpt><trkpt lat="42.65896236005984" lon="11.616747493313833"><ele>215.0</ele><time>2026-03-29T12:27:27.001Z</time></trkpt><trkpt lat="42.65878464455453" lon="11.616757149724043"><ele>215.0</ele><time>2026-03-29T12:27:28.001Z</time></trkpt><trkpt lat="42.658594975723815" lon="11.616767455645894"><ele>214.33333333333334</ele><time>2026-03-29T12:27:29.001Z</time></trkpt><trkpt lat="42.65840521457436" lon="11.616777766577393"><ele>213.66666666666669</ele><time>2026-03-29T12:27:30.001Z</time></trkpt><trkpt lat="42.65821293718223" lon="11.616788214228949"><ele>213.0</ele><time>2026-03-29T12:27:31.001Z</time></trkpt><trkpt lat="42.658022011903554" lon="11.616798283036816"><ele>213.0</ele><time>2026-03-29T12:27:32.001Z</time></trkpt><trkpt lat="42.65782559154348" lon="11.616808731230915"><ele>213.0</ele><time>2026-03-29T12:27:33.001Z</time></trkpt><trkpt lat="42.65762635453222" lon="11.616819328942613"><ele>213.0</ele><time>2026-03-29T12:27:34.001Z</time></trkpt><trkpt lat="42.65742860509677" lon="11.616829847522345"><ele>212.33333333333331</ele><time>2026-03-29T12:27:35.001Z</time></trkpt><trkpt lat="42.65723301385334" lon="11.61684025025809"><ele>211.66666666666666</ele><time>2026-03-29T12:27:36.001Z</time></trkpt><trkpt lat="42.65703635457401" lon="11.616872391576335"><ele>211.0</ele><time>2026-03-29T12:27:37.001Z</time></trkpt><trkpt lat="42.656842600766126" lon="11.616882552401055"><ele>210.33333333333331</ele><time>2026-03-29T12:27:38.001Z</time></trkpt><trkpt lat="42.65664729490369" lon="11.616890684963515"><ele>209.66666666666669</ele><time>2026-03-29T12:27:39.001Z</time></trkpt><trkpt lat="42.65645275544991" lon="11.6168980284048"><ele>209.0</ele><time>2026-03-29T12:27:40.001Z</time></trkpt><trkpt lat="42.65625867875379" lon="11.616913516061258"><ele>208.66666666666669</ele><time>2026-03-29T12:27:41.001Z</time></trkpt><trkpt lat="42.65606192761471" lon="11.616903777978456"><ele>208.33333333333331</ele><time>2026-03-29T12:27:42.001Z</time></trkpt><trkpt lat="42.65586924748319" lon="11.616914825520311"><ele>208.0</ele><time>2026-03-29T12:27:43.001Z</time></trkpt><trkpt lat="42.65568020424696" lon="11.616925664540904"><ele>208.0</ele><time>2026-03-29T12:27:44.001Z</time></trkpt><trkpt lat="42.655502567124074" lon="11.616953745445597"><ele>208.0</ele><time>2026-03-29T12:27:45.001Z</time></trkpt><trkpt lat="42.65533310808251" lon="11.616924214838415"><ele>208.0</ele><time>2026-03-29T12:27:46.001Z</time></trkpt><trkpt lat="42.65517173333328" lon="11.61688276974765"><ele>207.66666666666666</ele><time>2026-03-29T12:27:47.001Z</time></trkpt><trkpt lat="42.65502587822375" lon="11.616804410556554"><ele>207.33333333333331</ele><time>2026-03-29T12:27:48.001Z</time></trkpt><trkpt lat="42.65489800533967" lon="11.61668438270918"><ele>207.0</ele><time>2026-03-29T12:27:49.001Z</time></trkpt><trkpt lat="42.654752069896354" lon="11.616545123297357"><ele>207.0</ele><time>2026-03-29T12:27:50Z</time></trkpt><trkpt lat="42.654622874715045" lon="11.616377526770579"><ele>207.0</ele><time>2026-03-29T12:27:51Z</time></trkpt><trkpt lat="42.65448702426136" lon="11.61620451958064"><ele>207.0</ele><time>2026-03-29T12:27:52Z</time></trkpt><trkpt lat="42.654337075081415" lon="11.61602371579378"><ele>205.66666666666669</ele><time>2026-03-29T12:27:53Z</time></trkpt><trkpt lat="42.65417954450274" lon="11.615839499078744"><ele>204.33333333333334</ele><time>2026-03-29T12:27:54Z</time></trkpt><trkpt lat="42.65402551746741" lon="11.615645863940545"><ele>203.0</ele><time>2026-03-29T12:27:55Z</time></trkpt><trkpt lat="42.65387383190143" lon="11.615448961409612"><ele>203.66666666666669</ele><time>2026-03-29T12:27:56Z</time></trkpt><trkpt lat="42.65371730123257" lon="11.615246903672299"><ele>204.33333333333331</ele><time>2026-03-29T12:27:57Z</time></trkpt><trkpt lat="42.65355437220521" lon="11.615045855431916"><ele>205.0</ele><time>2026-03-29T12:27:58Z</time></trkpt><trkpt lat="42.65338277541658" lon="11.614853950568865"><ele>205.0</ele><time>2026-03-29T12:27:59Z</time></trkpt><trkpt lat="42.653224698570135" lon="11.614662655437357"><ele>205.0</ele><time>2026-03-29T12:28:00Z</time></trkpt><trkpt lat="42.65307570431399" lon="11.61445461354515"><ele>205.0</ele><time>2026-03-29T12:28:01Z</time></trkpt><trkpt lat="42.652923715541945" lon="11.614260449498726"><ele>205.0</ele><time>2026-03-29T12:28:02Z</time></trkpt><trkpt lat="42.65276873379198" lon="11.614055566415379"><ele>205.0</ele><time>2026-03-29T12:28:03Z</time></trkpt><trkpt lat="42.65261739140684" lon="11.613838800273841"><ele>205.0</ele><time>2026-03-29T12:28:04Z</time></trkpt><trkpt lat="42.652469799188474" lon="11.613623410150861"><ele>205.0</ele><time>2026-03-29T12:28:05Z</time></trkpt><trkpt lat="42.65231945839285" lon="11.613403430550335"><ele>205.0</ele><time>2026-03-29T12:28:06Z</time></trkpt><trkpt lat="42.65216900654165" lon="11.613183170877372"><ele>205.0</ele><time>2026-03-29T12:28:07Z</time></trkpt><trkpt lat="42.652007050866594" lon="11.612972653254145"><ele>204.0</ele><time>2026-03-29T12:28:08Z</time></trkpt><trkpt lat="42.65185564813286" lon="11.612746578733688"><ele>203.0</ele><time>2026-03-29T12:28:09Z</time></trkpt><trkpt lat="42.65170008734624" lon="11.61251969472803"><ele>203.0</ele><time>2026-03-29T12:28:10Z</time></trkpt><trkpt lat="42.65154376052465" lon="11.612292920165537"><ele>203.0</ele><time>2026-03-29T12:28:11Z</time></trkpt><trkpt lat="42.65138658467413" lon="11.61205666993058"><ele>204.0</ele><time>2026-03-29T12:28:12Z</time></trkpt><trkpt lat="42.651228111197646" lon="11.611821366150483"><ele>205.0</ele><time>2026-03-29T12:28:13Z</time></trkpt><trkpt lat="42.65106737174242" lon="11.611586616739393"><ele>204.0</ele><time>2026-03-29T12:28:14Z</time></trkpt><trkpt lat="42.65090898654431" lon="11.611347383815906"><ele>203.0</ele><time>2026-03-29T12:28:15Z</time></trkpt><trkpt lat="42.650754880597965" lon="11.611113703551803"><ele>203.0</ele><time>2026-03-29T12:28:16Z</time></trkpt><trkpt lat="42.650600036571994" lon="11.61087965703175"><ele>203.0</ele><time>2026-03-29T12:28:17Z</time></trkpt><trkpt lat="42.65044308178312" lon="11.610645802144292"><ele>203.0</ele><time>2026-03-29T12:28:18Z</time></trkpt><trkpt lat="42.650280027061314" lon="11.610413297808154"><ele>203.0</ele><time>2026-03-29T12:28:19Z</time></trkpt><trkpt lat="42.65011691547853" lon="11.610178402383408"><ele>203.0</ele><time>2026-03-29T12:28:20Z</time></trkpt><trkpt lat="42.64995667458671" lon="11.609938407721687"><ele>203.0</ele><time>2026-03-29T12:28:21Z</time></trkpt><trkpt lat="42.64980154283161" lon="11.609704109031355"><ele>202.33333333333334</ele><time>2026-03-29T12:28:22Z</time></trkpt><trkpt lat="42.649652614844015" lon="11.609483634073046"><ele>201.66666666666669</ele><time>2026-03-29T12:28:23Z</time></trkpt><trkpt lat="42.64950657052651" lon="11.609272468669669"><ele>201.0</ele><time>2026-03-29T12:28:24Z</time></trkpt><trkpt lat="42.64936636819294" lon="11.60905124507047"><ele>201.0</ele><time>2026-03-29T12:28:25Z</time></trkpt><trkpt lat="42.649235327308425" lon="11.608814344544404"><ele>201.0</ele><time>2026-03-29T12:28:26Z</time></trkpt><trkpt lat="42.64911154125485" lon="11.608578813289988"><ele>201.0</ele><time>2026-03-29T12:28:27Z</time></trkpt><trkpt lat="42.64898272497319" lon="11.608344860946593"><ele>200.33333333333331</ele><time>2026-03-29T12:28:28Z</time></trkpt><trkpt lat="42.648853368706504" lon="11.608109733820264"><ele>199.66666666666666</ele><time>2026-03-29T12:28:29Z</time></trkpt><trkpt lat="42.64872632191098" lon="11.607871098594643"><ele>199.0</ele><time>2026-03-29T12:28:30Z</time></trkpt><trkpt lat="42.648603657185774" lon="11.60763228845168"><ele>199.0</ele><time>2026-03-29T12:28:31Z</time></trkpt><trkpt lat="42.64847476271198" lon="11.607391820726722"><ele>199.0</ele><time>2026-03-29T12:28:32Z</time></trkpt><trkpt lat="42.64834240022203" lon="11.607155358584611"><ele>199.0</ele><time>2026-03-29T12:28:33Z</time></trkpt><trkpt lat="42.6482054003017" lon="11.606915954298024"><ele>201.66666666666666</ele><time>2026-03-29T12:28:34Z</time></trkpt><trkpt lat="42.648074076466514" lon="11.606677611688225"><ele>204.33333333333331</ele><time>2026-03-29T12:28:35Z</time></trkpt><trkpt lat="42.647945368493836" lon="11.606431272767018"><ele>207.0</ele><time>2026-03-29T12:28:36Z</time></trkpt><trkpt lat="42.64781373609595" lon="11.60619114811686"><ele>204.0</ele><time>2026-03-29T12:28:37Z</time></trkpt><trkpt lat="42.6476862641341" lon="11.60594736000963"><ele>201.0</ele><time>2026-03-29T12:28:38Z</time></trkpt><trkpt lat="42.647562065547206" lon="11.605705725315497"><ele>198.0</ele><time>2026-03-29T12:28:38.999Z</time></trkpt><trkpt lat="42.64743001809746" lon="11.60546842440297"><ele>198.33333333333331</ele><time>2026-03-29T12:28:39.999Z</time></trkpt><trkpt lat="42.64730152300988" lon="11.60523228676503"><ele>198.66666666666666</ele><time>2026-03-29T12:28:40.999Z</time></trkpt><trkpt lat="42.64717518436328" lon="11.604997891939572"><ele>199.0</ele><time>2026-03-29T12:28:41.999Z</time></trkpt><trkpt lat="42.647044260652564" lon="11.604758621190845"><ele>198.66666666666666</ele><time>2026-03-29T12:28:42.999Z</time></trkpt><trkpt lat="42.64691463098731" lon="11.604517255114805"><ele>198.33333333333331</ele><time>2026-03-29T12:28:43.999Z</time></trkpt><trkpt lat="42.64678855634927" lon="11.604283090362623"><ele>198.0</ele><time>2026-03-29T12:28:44.999Z</time></trkpt><trkpt lat="42.64666760463283" lon="11.60407007158023"><ele>198.0</ele><time>2026-03-29T12:28:45.999Z</time></trkpt><trkpt lat="42.646554244886964" lon="11.6038641636886"><ele>198.0</ele><time>2026-03-29T12:28:46.999Z</time></trkpt><trkpt lat="42.646458163095105" lon="11.603664824684747"><ele>198.0</ele><time>2026-03-29T12:28:47.998Z</time></trkpt><trkpt lat="42.6463851143673" lon="11.603475400132567"><ele>198.75</ele><time>2026-03-29T12:28:48.998Z</time></trkpt><trkpt lat="42.646351587704004" lon="11.60329017745743"><ele>199.5</ele><time>2026-03-29T12:28:49.998Z</time></trkpt><trkpt lat="42.646359463612356" lon="11.603108053173134"><ele>200.25</ele><time>2026-03-29T12:28:50.998Z</time></trkpt><trkpt lat="42.64640010227779" lon="11.602941279736774"><ele>201.0</ele><time>2026-03-29T12:28:51.998Z</time></trkpt><trkpt lat="42.64646485029719" lon="11.602802573193221"><ele>201.75</ele><time>2026-03-29T12:28:53.001Z</time></trkpt><trkpt lat="42.6465363697097" lon="11.602692444130419"><ele>202.5</ele><time>2026-03-29T12:28:54.001Z</time></trkpt><trkpt lat="42.64662872411874" lon="11.602598557982262"><ele>203.25</ele><time>2026-03-29T12:28:55.001Z</time></trkpt><trkpt lat="42.646738137536914" lon="11.602536698623261"><ele>204.0</ele><time>2026-03-29T12:28:56Z</time></trkpt><trkpt lat="42.64686378270635" lon="11.60247611533181"><ele>205.0</ele><time>2026-03-29T12:28:57.001Z</time></trkpt><trkpt lat="42.64698975818238" lon="11.602437397842298"><ele>206.0</ele><time>2026-03-29T12:28:58.001Z</time></trkpt><trkpt lat="42.647126844339574" lon="11.602409394816574"><ele>207.0</ele><time>2026-03-29T12:28:59Z</time></trkpt><trkpt lat="42.647275472244466" lon="11.602383863492166"><ele>208.0</ele><time>2026-03-29T12:29:00Z</time></trkpt><trkpt lat="42.647430105996996" lon="11.602348607887519"><ele>208.0</ele><time>2026-03-29T12:29:01Z</time></trkpt><trkpt lat="42.64759039903286" lon="11.60230745144204"><ele>208.0</ele><time>2026-03-29T12:29:02Z</time></trkpt><trkpt lat="42.6477596847819" lon="11.602267243094065"><ele>208.0</ele><time>2026-03-29T12:29:03.001Z</time></trkpt><trkpt lat="42.64793199836234" lon="11.602222818064325"><ele>208.33333333333331</ele><time>2026-03-29T12:29:04.001Z</time></trkpt><trkpt lat="42.648105674173316" lon="11.602179979894249"><ele>208.66666666666669</ele><time>2026-03-29T12:29:05.001Z</time></trkpt><trkpt lat="42.648298508514856" lon="11.602141841559588"><ele>209.0</ele><time>2026-03-29T12:29:06Z</time></trkpt><trkpt lat="42.648476605530604" lon="11.602094816557567"><ele>210.25</ele><time>2026-03-29T12:29:07Z</time></trkpt><trkpt lat="42.648627226348125" lon="11.602041271302546"><ele>211.5</ele><time>2026-03-29T12:29:08Z</time></trkpt><trkpt lat="42.64874441226743" lon="11.601996462865868"><ele>212.75</ele><time>2026-03-29T12:29:09Z</time></trkpt><trkpt lat="42.64884241939541" lon="11.601944609549651"><ele>214.0</ele><time>2026-03-29T12:29:10Z</time></trkpt><trkpt lat="42.64892822753452" lon="11.601904681932044"><ele>216.39999999999998</ele><time>2026-03-29T12:29:11Z</time></trkpt><trkpt lat="42.649015461798825" lon="11.601857688371357"><ele>218.79999999999998</ele><time>2026-03-29T12:29:12Z</time></trkpt><trkpt lat="42.649102158133786" lon="11.601790939965424"><ele>221.20000000000002</ele><time>2026-03-29T12:29:13Z</time></trkpt><trkpt lat="42.649196744916594" lon="11.60170730619068"><ele>223.60000000000002</ele><time>2026-03-29T12:29:14Z</time></trkpt><trkpt lat="42.64927203346791" lon="11.601589038183775"><ele>226.0</ele><time>2026-03-29T12:29:15Z</time></trkpt><trkpt lat="42.649331010682594" lon="11.601451217243971"><ele>226.0</ele><time>2026-03-29T12:29:16Z</time></trkpt><trkpt lat="42.64940296459785" lon="11.601293932429435"><ele>226.0</ele><time>2026-03-29T12:29:17Z</time></trkpt><trkpt lat="42.64947852412009" lon="11.601104342155178"><ele>226.0</ele><time>2026-03-29T12:29:18Z</time></trkpt><trkpt lat="42.64954523107964" lon="11.60093421862163"><ele>226.0</ele><time>2026-03-29T12:29:19Z</time></trkpt><trkpt lat="42.64965077561922" lon="11.600767174695797"><ele>226.66666666666666</ele><time>2026-03-29T12:29:20Z</time></trkpt><trkpt lat="42.649688530779926" lon="11.60056735002935"><ele>227.33333333333331</ele><time>2026-03-29T12:29:21Z</time></trkpt><trkpt lat="42.64972078960923" lon="11.600357776511519"><ele>228.0</ele><time>2026-03-29T12:29:22Z</time></trkpt><trkpt lat="42.64974972761925" lon="11.600152396014572"><ele>229.5</ele><time>2026-03-29T12:29:23Z</time></trkpt><trkpt lat="42.64977042582841" lon="11.599961280211051"><ele>231.0</ele><time>2026-03-29T12:29:24Z</time></trkpt><trkpt lat="42.64979649006779" lon="11.599776851422792"><ele>232.5</ele><time>2026-03-29T12:29:25Z</time></trkpt><trkpt lat="42.64982206739108" lon="11.599617201937944"><ele>234.0</ele><time>2026-03-29T12:29:26Z</time></trkpt><trkpt lat="42.649848373196576" lon="11.599482619699172"><ele>234.79999999999998</ele><time>2026-03-29T12:29:27Z</time></trkpt><trkpt lat="42.64989527533356" lon="11.599365126999535"><ele>235.59999999999997</ele><time>2026-03-29T12:29:28Z</time></trkpt><trkpt lat="42.64996042499584" lon="11.599267416710301"><ele>236.4</ele><time>2026-03-29T12:29:29Z</time></trkpt><trkpt lat="42.650037886124345" lon="11.59920997464508"><ele>237.2</ele><time>2026-03-29T12:29:30Z</time></trkpt><trkpt lat="42.6501209929866" lon="11.599164970456386"><ele>238.0</ele><time>2026-03-29T12:29:31Z</time></trkpt><trkpt lat="42.65020350847182" lon="11.599136318787393"><ele>238.0</ele><time>2026-03-29T12:29:32Z</time></trkpt><trkpt lat="42.65028996982402" lon="11.599142910421094"><ele>238.0</ele><time>2026-03-29T12:29:33Z</time></trkpt><trkpt lat="42.65038639326563" lon="11.599170708092371"><ele>238.0</ele><time>2026-03-29T12:29:34Z</time></trkpt><trkpt lat="42.650492331123345" lon="11.599203968134931"><ele>238.0</ele><time>2026-03-29T12:29:35Z</time></trkpt><trkpt lat="42.650610622956904" lon="11.599238633034405"><ele>238.0</ele><time>2026-03-29T12:29:36Z</time></trkpt><trkpt lat="42.650741906836004" lon="11.599281115482762"><ele>239.5</ele><time>2026-03-29T12:29:37Z</time></trkpt><trkpt lat="42.650876305570144" lon="11.599321983363899"><ele>241.0</ele><time>2026-03-29T12:29:38Z</time></trkpt><trkpt lat="42.65101941244104" lon="11.59936878228148"><ele>242.5</ele><time>2026-03-29T12:29:39Z</time></trkpt><trkpt lat="42.65116831521197" lon="11.599435923763519"><ele>244.0</ele><time>2026-03-29T12:29:39.999Z</time></trkpt><trkpt lat="42.65131856343632" lon="11.59951360731568"><ele>245.0</ele><time>2026-03-29T12:29:40.999Z</time></trkpt><trkpt lat="42.65147228488073" lon="11.599596598197607"><ele>246.0</ele><time>2026-03-29T12:29:41.999Z</time></trkpt><trkpt lat="42.65163699468043" lon="11.5996872105653"><ele>247.0</ele><time>2026-03-29T12:29:42.999Z</time></trkpt><trkpt lat="42.65180097421695" lon="11.59977129469218"><ele>249.0</ele><time>2026-03-29T12:29:43.999Z</time></trkpt><trkpt lat="42.65196717988931" lon="11.599861207589395"><ele>251.0</ele><time>2026-03-29T12:29:44.999Z</time></trkpt><trkpt lat="42.65213398911636" lon="11.599960130779122"><ele>253.0</ele><time>2026-03-29T12:29:45.999Z</time></trkpt><trkpt lat="42.65230634998561" lon="11.600064624013267"><ele>253.0</ele><time>2026-03-29T12:29:46.999Z</time></trkpt><trkpt lat="42.65247387618427" lon="11.600173430639499"><ele>253.0</ele><time>2026-03-29T12:29:47.999Z</time></trkpt><trkpt lat="42.65263491720154" lon="11.600297067216493"><ele>253.0</ele><time>2026-03-29T12:29:48.999Z</time></trkpt><trkpt lat="42.652790445025126" lon="11.600424773177766"><ele>255.66666666666666</ele><time>2026-03-29T12:29:49.999Z</time></trkpt><trkpt lat="42.65294643771943" lon="11.600549364282944"><ele>258.3333333333333</ele><time>2026-03-29T12:29:50.999Z</time></trkpt><trkpt lat="42.65310860413895" lon="11.600670261626018"><ele>261.0</ele><time>2026-03-29T12:29:51.999Z</time></trkpt><trkpt lat="42.65327059757368" lon="11.600799121044137"><ele>261.0</ele><time>2026-03-29T12:29:52.999Z</time></trkpt><trkpt lat="42.65343318610835" lon="11.600949315443028"><ele>261.0</ele><time>2026-03-29T12:29:53.999Z</time></trkpt><trkpt lat="42.65359261621484" lon="11.601091172989277"><ele>261.0</ele><time>2026-03-29T12:29:54.999Z</time></trkpt><trkpt lat="42.653750633998754" lon="11.601234077093135"><ele>265.3333333333333</ele><time>2026-03-29T12:29:55.999Z</time></trkpt><trkpt lat="42.653911165399826" lon="11.601362555483888"><ele>269.66666666666663</ele><time>2026-03-29T12:29:56.999Z</time></trkpt><trkpt lat="42.65406704422875" lon="11.601495242958784"><ele>274.0</ele><time>2026-03-29T12:29:57.999Z</time></trkpt><trkpt lat="42.654242467370544" lon="11.60155842794188"><ele>274.0</ele><time>2026-03-29T12:29:58.999Z</time></trkpt><trkpt lat="42.654413150238604" lon="11.601638577493965"><ele>274.0</ele><time>2026-03-29T12:29:59.999Z</time></trkpt><trkpt lat="42.654584851497226" lon="11.601713743825481"><ele>274.0</ele><time>2026-03-29T12:30:00.999Z</time></trkpt><trkpt lat="42.65476033882291" lon="11.601786019520132"><ele>276.66666666666663</ele><time>2026-03-29T12:30:01.999Z</time></trkpt><trkpt lat="42.65493360443967" lon="11.601871610779334"><ele>279.3333333333333</ele><time>2026-03-29T12:30:02.999Z</time></trkpt><trkpt lat="42.65510517402919" lon="11.601946603064242"><ele>282.0</ele><time>2026-03-29T12:30:03.999Z</time></trkpt><trkpt lat="42.655259906347645" lon="11.602006343048783"><ele>284.3333333333333</ele><time>2026-03-29T12:30:04.999Z</time></trkpt><trkpt lat="42.65541106810175" lon="11.602060301309757"><ele>286.66666666666663</ele><time>2026-03-29T12:30:05.999Z</time></trkpt><trkpt lat="42.6555538403228" lon="11.602116946139002"><ele>289.0</ele><time>2026-03-29T12:30:06.999Z</time></trkpt><trkpt lat="42.65570502934975" lon="11.602115080194494"><ele>289.0</ele><time>2026-03-29T12:30:07.999Z</time></trkpt><trkpt lat="42.65585363049862" lon="11.602094052038945"><ele>289.0</ele><time>2026-03-29T12:30:08.999Z</time></trkpt><trkpt lat="42.65599647315498" lon="11.602047418510617"><ele>289.0</ele><time>2026-03-29T12:30:09.999Z</time></trkpt><trkpt lat="42.65614026850238" lon="11.601972365579748"><ele>292.66666666666663</ele><time>2026-03-29T12:30:10.999Z</time></trkpt><trkpt lat="42.65627526688942" lon="11.601878314113556"><ele>296.3333333333333</ele><time>2026-03-29T12:30:11.999Z</time></trkpt><trkpt lat="42.656429853799104" lon="11.60180808485386"><ele>300.0</ele><time>2026-03-29T12:30:12.999Z</time></trkpt><trkpt lat="42.65658329621015" lon="11.601750062182877"><ele>300.0</ele><time>2026-03-29T12:30:13.999Z</time></trkpt><trkpt lat="42.65671561966798" lon="11.601690474233921"><ele>300.0</ele><time>2026-03-29T12:30:14.999Z</time></trkpt><trkpt lat="42.65683260452641" lon="11.60162201920084"><ele>300.0</ele><time>2026-03-29T12:30:15.999Z</time></trkpt><trkpt lat="42.656935129101264" lon="11.601546640071117"><ele>300.0</ele><time>2026-03-29T12:30:16.999Z</time></trkpt><trkpt lat="42.65701118440273" lon="11.601420110797317"><ele>299.0</ele><time>2026-03-29T12:30:17.999Z</time></trkpt><trkpt lat="42.657069412873135" lon="11.601270602411358"><ele>298.0</ele><time>2026-03-29T12:30:18.999Z</time></trkpt><trkpt lat="42.65713362587199" lon="11.601111313220727"><ele>297.0</ele><time>2026-03-29T12:30:19.999Z</time></trkpt><trkpt lat="42.65718880839027" lon="11.60093721919821"><ele>296.0</ele><time>2026-03-29T12:30:20.999Z</time></trkpt><trkpt lat="42.657245215496715" lon="11.600765233819017"><ele>298.0</ele><time>2026-03-29T12:30:21.999Z</time></trkpt><trkpt lat="42.657299849869155" lon="11.600614504139767"><ele>300.0</ele><time>2026-03-29T12:30:22.999Z</time></trkpt><trkpt lat="42.657364561231866" lon="11.600510516776097"><ele>302.0</ele><time>2026-03-29T12:30:23.999Z</time></trkpt><trkpt lat="42.657433542269864" lon="11.600424556260212"><ele>304.0</ele><time>2026-03-29T12:30:24.999Z</time></trkpt><trkpt lat="42.65755748548496" lon="11.600377268975352"><ele>306.0</ele><time>2026-03-29T12:30:25.999Z</time></trkpt><trkpt lat="42.657680382552606" lon="11.600378847558273"><ele>306.5</ele><time>2026-03-29T12:30:26.999Z</time></trkpt><trkpt lat="42.65780347169284" lon="11.60041784032497"><ele>307.0</ele><time>2026-03-29T12:30:27.999Z</time></trkpt><trkpt lat="42.657940298114255" lon="11.600493638638365"><ele>307.5</ele><time>2026-03-29T12:30:28.998Z</time></trkpt><trkpt lat="42.65808555203606" lon="11.600596093972918"><ele>308.0</ele><time>2026-03-29T12:30:29.998Z</time></trkpt><trkpt lat="42.658242438169204" lon="11.600696740769411"><ele>308.0</ele><time>2026-03-29T12:30:30.998Z</time></trkpt><trkpt lat="42.65840042506131" lon="11.600812827882184"><ele>308.0</ele><time>2026-03-29T12:30:31.998Z</time></trkpt><trkpt lat="42.65856823288569" lon="11.600935958305293"><ele>308.0</ele><time>2026-03-29T12:30:32.998Z</time></trkpt><trkpt lat="42.65873855549911" lon="11.601058862525674"><ele>309.33333333333337</ele><time>2026-03-29T12:30:33.998Z</time></trkpt><trkpt lat="42.65890825448273" lon="11.60118508754333"><ele>310.6666666666667</ele><time>2026-03-29T12:30:34.998Z</time></trkpt><trkpt lat="42.65908085687813" lon="11.601313881343119"><ele>312.0</ele><time>2026-03-29T12:30:35.998Z</time></trkpt><trkpt lat="42.65925687834419" lon="11.601445195907894"><ele>312.0</ele><time>2026-03-29T12:30:36.998Z</time></trkpt><trkpt lat="42.659437048656805" lon="11.601575623858746"><ele>312.0</ele><time>2026-03-29T12:30:37.998Z</time></trkpt><trkpt lat="42.65961693086674" lon="11.601710742548214"><ele>312.0</ele><time>2026-03-29T12:30:38.998Z</time></trkpt><trkpt lat="42.65978851681123" lon="11.601840918092678"><ele>313.6666666666667</ele><time>2026-03-29T12:30:39.998Z</time></trkpt><trkpt lat="42.65995638663447" lon="11.601969181670949"><ele>315.33333333333337</ele><time>2026-03-29T12:30:40.998Z</time></trkpt><trkpt lat="42.660120859788655" lon="11.602090055990935"><ele>317.0</ele><time>2026-03-29T12:30:41.998Z</time></trkpt><trkpt lat="42.6602788981269" lon="11.602209624592994"><ele>319.0</ele><time>2026-03-29T12:30:42.998Z</time></trkpt><trkpt lat="42.66043781785408" lon="11.602325233964772"><ele>321.0</ele><time>2026-03-29T12:30:43.998Z</time></trkpt><trkpt lat="42.660584759762905" lon="11.602442724570185"><ele>323.0</ele><time>2026-03-29T12:30:44.998Z</time></trkpt><trkpt lat="42.66072802417433" lon="11.602552772492936"><ele>323.0</ele><time>2026-03-29T12:30:45.998Z</time></trkpt><trkpt lat="42.660870880792935" lon="11.602652955935797"><ele>323.0</ele><time>2026-03-29T12:30:46.998Z</time></trkpt><trkpt lat="42.66101552889308" lon="11.602736622611726"><ele>323.0</ele><time>2026-03-29T12:30:47.998Z</time></trkpt><trkpt lat="42.661165866869105" lon="11.602798463219791"><ele>324.0</ele><time>2026-03-29T12:30:48.998Z</time></trkpt><trkpt lat="42.661316109693956" lon="11.602823744824175"><ele>325.0</ele><time>2026-03-29T12:30:49.998Z</time></trkpt><trkpt lat="42.66146737008423" lon="11.60280889504974"><ele>326.0</ele><time>2026-03-29T12:30:50.998Z</time></trkpt><trkpt lat="42.66161501022879" lon="11.60276667639937"><ele>326.0</ele><time>2026-03-29T12:30:51.998Z</time></trkpt><trkpt lat="42.661755431096026" lon="11.602681717750588"><ele>326.0</ele><time>2026-03-29T12:30:52.998Z</time></trkpt><trkpt lat="42.661893109209714" lon="11.602576675314506"><ele>326.0</ele><time>2026-03-29T12:30:53.998Z</time></trkpt><trkpt lat="42.66203082493348" lon="11.60247292373201"><ele>327.6666666666667</ele><time>2026-03-29T12:30:54.998Z</time></trkpt><trkpt lat="42.66217015453769" lon="11.602359510022467"><ele>329.3333333333333</ele><time>2026-03-29T12:30:55.998Z</time></trkpt><trkpt lat="42.662324705202266" lon="11.602260573790169"><ele>331.0</ele><time>2026-03-29T12:30:56.998Z</time></trkpt><trkpt lat="42.66246965307337" lon="11.602117733039893"><ele>331.0</ele><time>2026-03-29T12:30:58Z</time></trkpt><trkpt lat="42.66262598332275" lon="11.602000553367587"><ele>331.0</ele><time>2026-03-29T12:30:59.001Z</time></trkpt><trkpt lat="42.66277717238101" lon="11.601878114774884"><ele>331.0</ele><time>2026-03-29T12:31:00.001Z</time></trkpt><trkpt lat="42.66293325322378" lon="11.601766163481305"><ele>330.66666666666663</ele><time>2026-03-29T12:31:01.001Z</time></trkpt><trkpt lat="42.66309999531806" lon="11.601690093989804"><ele>330.3333333333333</ele><time>2026-03-29T12:31:02Z</time></trkpt><trkpt lat="42.66326540648956" lon="11.601617828598012"><ele>330.0</ele><time>2026-03-29T12:31:03Z</time></trkpt><trkpt lat="42.66343940724065" lon="11.601564450067032"><ele>329.0</ele><time>2026-03-29T12:31:04Z</time></trkpt><trkpt lat="42.66361979738023" lon="11.601521551105654"><ele>328.0</ele><time>2026-03-29T12:31:05.001Z</time></trkpt><trkpt lat="42.663798121888284" lon="11.60148401266709"><ele>327.0</ele><time>2026-03-29T12:31:06.001Z</time></trkpt><trkpt lat="42.663981794514214" lon="11.601445348415321"><ele>327.0</ele><time>2026-03-29T12:31:07.001Z</time></trkpt><trkpt lat="42.66416760433866" lon="11.601406234267813"><ele>327.0</ele><time>2026-03-29T12:31:08.001Z</time></trkpt><trkpt lat="42.66434970089788" lon="11.601345253770834"><ele>327.0</ele><time>2026-03-29T12:31:09.001Z</time></trkpt><trkpt lat="42.66453384760004" lon="11.60130920281564"><ele>329.6666666666667</ele><time>2026-03-29T12:31:10.001Z</time></trkpt><trkpt lat="42.66471141543367" lon="11.601273292336533"><ele>332.33333333333337</ele><time>2026-03-29T12:31:11.001Z</time></trkpt><trkpt lat="42.664884539457105" lon="11.60126087777382"><ele>335.0</ele><time>2026-03-29T12:31:12.001Z</time></trkpt><trkpt lat="42.66505206681395" lon="11.601223540715193"><ele>336.0</ele><time>2026-03-29T12:31:13.001Z</time></trkpt><trkpt lat="42.665211279013405" lon="11.601151076439699"><ele>337.0</ele><time>2026-03-29T12:31:14.001Z</time></trkpt><trkpt lat="42.66536585568509" lon="11.601068842079213"><ele>338.0</ele><time>2026-03-29T12:31:15Z</time></trkpt><trkpt lat="42.66551191847053" lon="11.600960120492143"><ele>340.33333333333337</ele><time>2026-03-29T12:31:16Z</time></trkpt><trkpt lat="42.66565398950592" lon="11.600836452132093"><ele>342.6666666666667</ele><time>2026-03-29T12:31:17Z</time></trkpt><trkpt lat="42.66579367274931" lon="11.600711030167597"><ele>345.0</ele><time>2026-03-29T12:31:18Z</time></trkpt><trkpt lat="42.66593652167578" lon="11.60058243977321"><ele>345.0</ele><time>2026-03-29T12:31:19Z</time></trkpt><trkpt lat="42.66607893646348" lon="11.60045370790654"><ele>345.0</ele><time>2026-03-29T12:31:20Z</time></trkpt><trkpt lat="42.66622360284892" lon="11.600320894838013"><ele>345.0</ele><time>2026-03-29T12:31:21Z</time></trkpt><trkpt lat="42.666376491569466" lon="11.600206133996315"><ele>348.0</ele><time>2026-03-29T12:31:22Z</time></trkpt><trkpt lat="42.66653326887424" lon="11.600066950343209"><ele>351.0</ele><time>2026-03-29T12:31:23Z</time></trkpt><trkpt lat="42.6666751022195" lon="11.59991427486773"><ele>354.0</ele><time>2026-03-29T12:31:24Z</time></trkpt><trkpt lat="42.666826677290885" lon="11.59978152895968"><ele>356.0</ele><time>2026-03-29T12:31:25Z</time></trkpt><trkpt lat="42.666978088748124" lon="11.599647368186831"><ele>358.0</ele><time>2026-03-29T12:31:26Z</time></trkpt><trkpt lat="42.66713584568521" lon="11.599535971240867"><ele>360.0</ele><time>2026-03-29T12:31:27Z</time></trkpt><trkpt lat="42.66728586582056" lon="11.599405123156629"><ele>360.3333333333333</ele><time>2026-03-29T12:31:28Z</time></trkpt><trkpt lat="42.66743326464137" lon="11.599276561387624"><ele>360.66666666666663</ele><time>2026-03-29T12:31:29Z</time></trkpt><trkpt lat="42.66757515378465" lon="11.599158325909702"><ele>361.0</ele><time>2026-03-29T12:31:30Z</time></trkpt><trkpt lat="42.667713327258966" lon="11.59907550382228"><ele>363.25</ele><time>2026-03-29T12:31:31Z</time></trkpt><trkpt lat="42.66784225703621" lon="11.599043789757209"><ele>365.5</ele><time>2026-03-29T12:31:32Z</time></trkpt><trkpt lat="42.66796786356604" lon="11.599053448276324"><ele>367.75</ele><time>2026-03-29T12:31:33Z</time></trkpt><trkpt lat="42.668090185479834" lon="11.599084994875556"><ele>370.0</ele><time>2026-03-29T12:31:34Z</time></trkpt><trkpt lat="42.66823083643368" lon="11.599130584342022"><ele>370.0</ele><time>2026-03-29T12:31:35Z</time></trkpt><trkpt lat="42.66836308904545" lon="11.599172873623402"><ele>370.0</ele><time>2026-03-29T12:31:36Z</time></trkpt><trkpt lat="42.66848868476992" lon="11.599210834446247"><ele>370.0</ele><time>2026-03-29T12:31:37Z</time></trkpt><trkpt lat="42.66860202487996" lon="11.599228799910904"><ele>370.0</ele><time>2026-03-29T12:31:38Z</time></trkpt><trkpt lat="42.66871324980819" lon="11.599217892959834"><ele>370.75</ele><time>2026-03-29T12:31:39Z</time></trkpt><trkpt lat="42.6688179137919" lon="11.599172224505313"><ele>371.5</ele><time>2026-03-29T12:31:40Z</time></trkpt><trkpt lat="42.66890824143166" lon="11.59909041346213"><ele>372.25</ele><time>2026-03-29T12:31:41Z</time></trkpt><trkpt lat="42.66899318600002" lon="11.59897932023724"><ele>373.0</ele><time>2026-03-29T12:31:42Z</time></trkpt><trkpt lat="42.66904384672908" lon="11.598827790001586"><ele>373.0</ele><time>2026-03-29T12:31:43Z</time></trkpt><trkpt lat="42.66905807148143" lon="11.598668627126834"><ele>373.0</ele><time>2026-03-29T12:31:44Z</time></trkpt><trkpt lat="42.66906610822481" lon="11.598524885518533"><ele>373.0</ele><time>2026-03-29T12:31:45Z</time></trkpt><trkpt lat="42.669042852368946" lon="11.59838282604751"><ele>373.0</ele><time>2026-03-29T12:31:46Z</time></trkpt><trkpt lat="42.66900048874996" lon="11.59825216482658"><ele>373.0</ele><time>2026-03-29T12:31:47Z</time></trkpt><trkpt lat="42.66893422571014" lon="11.59811575852868"><ele>375.5</ele><time>2026-03-29T12:31:48Z</time></trkpt><trkpt lat="42.668856050732785" lon="11.597982474225871"><ele>378.0</ele><time>2026-03-29T12:31:49Z</time></trkpt><trkpt lat="42.668768149818604" lon="11.597844848328013"><ele>380.5</ele><time>2026-03-29T12:31:50Z</time></trkpt><trkpt lat="42.66869260929664" lon="11.597690437083012"><ele>383.0</ele><time>2026-03-29T12:31:51Z</time></trkpt><trkpt lat="42.66862071726141" lon="11.597559327674663"><ele>383.2</ele><time>2026-03-29T12:31:52Z</time></trkpt><trkpt lat="42.6685690447762" lon="11.597444424346177"><ele>383.4</ele><time>2026-03-29T12:31:53Z</time></trkpt><trkpt lat="42.668529133638046" lon="11.597326110753501"><ele>383.59999999999997</ele><time>2026-03-29T12:31:54Z</time></trkpt><trkpt lat="42.66852690201784" lon="11.597192922284258"><ele>383.79999999999995</ele><time>2026-03-29T12:31:55Z</time></trkpt><trkpt lat="42.66855241641168" lon="11.597055337465967"><ele>384.0</ele><time>2026-03-29T12:31:56Z</time></trkpt><trkpt lat="42.668595151561604" lon="11.59690741201043"><ele>386.6</ele><time>2026-03-29T12:31:57Z</time></trkpt><trkpt lat="42.668679846562306" lon="11.596815818394864"><ele>389.2</ele><time>2026-03-29T12:31:58Z</time></trkpt><trkpt lat="42.668776695463194" lon="11.596761761817689"><ele>391.8</ele><time>2026-03-29T12:31:59Z</time></trkpt><trkpt lat="42.66886734020844" lon="11.596736784136695"><ele>394.40000000000003</ele><time>2026-03-29T12:32:00Z</time></trkpt><trkpt lat="42.66895922052081" lon="11.596755490598103"><ele>397.0</ele><time>2026-03-29T12:32:01Z</time></trkpt><trkpt lat="42.669068316290456" lon="11.596810547970422"><ele>397.0</ele><time>2026-03-29T12:32:02Z</time></trkpt><trkpt lat="42.669176242815" lon="11.596903974401913"><ele>397.0</ele><time>2026-03-29T12:32:03Z</time></trkpt><trkpt lat="42.669294526040936" lon="11.597006413703987"><ele>397.0</ele><time>2026-03-29T12:32:03.999Z</time></trkpt><trkpt lat="42.669423070037716" lon="11.597144060025114"><ele>397.0</ele><time>2026-03-29T12:32:04.999Z</time></trkpt><trkpt lat="42.66956100231783" lon="11.597267807253193"><ele>399.25</ele><time>2026-03-29T12:32:05.999Z</time></trkpt><trkpt lat="42.66969895271422" lon="11.59739053954594"><ele>401.5</ele><time>2026-03-29T12:32:06.999Z</time></trkpt><trkpt lat="42.669824682702796" lon="11.597485718657298"><ele>403.75</ele><time>2026-03-29T12:32:07.999Z</time></trkpt><trkpt lat="42.66993116019355" lon="11.597576698901346"><ele>406.0</ele><time>2026-03-29T12:32:08.999Z</time></trkpt><trkpt lat="42.670041322315114" lon="11.59764495032288"><ele>406.0</ele><time>2026-03-29T12:32:09.999Z</time></trkpt><trkpt lat="42.670153033051506" lon="11.597691224087528"><ele>406.0</ele><time>2026-03-29T12:32:10.999Z</time></trkpt><trkpt lat="42.67026993272034" lon="11.597706064969003"><ele>406.0</ele><time>2026-03-29T12:32:11.999Z</time></trkpt><trkpt lat="42.67039863140196" lon="11.597705009395998"><ele>406.0</ele><time>2026-03-29T12:32:12.999Z</time></trkpt><trkpt lat="42.6705317406126" lon="11.597727602351304"><ele>405.75</ele><time>2026-03-29T12:32:13.999Z</time></trkpt><trkpt lat="42.67066364879366" lon="11.597789449612732"><ele>405.5</ele><time>2026-03-29T12:32:14.999Z</time></trkpt><trkpt lat="42.67080531868069" lon="11.597845396311945"><ele>405.25</ele><time>2026-03-29T12:32:15.999Z</time></trkpt><trkpt lat="42.6709457098983" lon="11.597914011894295"><ele>405.0</ele><time>2026-03-29T12:32:16.999Z</time></trkpt><trkpt lat="42.671080983285954" lon="11.597993629548345"><ele>407.0</ele><time>2026-03-29T12:32:17.999Z</time></trkpt><trkpt lat="42.6712134182353" lon="11.59806349832335"><ele>409.0</ele><time>2026-03-29T12:32:18.999Z</time></trkpt><trkpt lat="42.67134957469823" lon="11.598138194494283"><ele>411.0</ele><time>2026-03-29T12:32:19.999Z</time></trkpt><trkpt lat="42.67149118649113" lon="11.598218194293846"><ele>413.0</ele><time>2026-03-29T12:32:20.999Z</time></trkpt><trkpt lat="42.67162200813488" lon="11.598304946386929"><ele>413.0</ele><time>2026-03-29T12:32:21.999Z</time></trkpt><trkpt lat="42.6717471368908" lon="11.598375848882691"><ele>413.0</ele><time>2026-03-29T12:32:22.999Z</time></trkpt><trkpt lat="42.671852242811276" lon="11.598457301323956"><ele>413.0</ele><time>2026-03-29T12:32:23.999Z</time></trkpt><trkpt lat="42.67194287555324" lon="11.59856659275431"><ele>413.0</ele><time>2026-03-29T12:32:24.999Z</time></trkpt><trkpt lat="42.67201512383854" lon="11.59870244670154"><ele>416.0</ele><time>2026-03-29T12:32:25.999Z</time></trkpt><trkpt lat="42.67206914863127" lon="11.598854680479114"><ele>419.0</ele><time>2026-03-29T12:32:26.999Z</time></trkpt><trkpt lat="42.67210404908728" lon="11.599031413159686"><ele>422.0</ele><time>2026-03-29T12:32:27.999Z</time></trkpt><trkpt lat="42.67214207363988" lon="11.599225713504559"><ele>425.0</ele><time>2026-03-29T12:32:28.999Z</time></trkpt><trkpt lat="42.6721885993893" lon="11.599435868435608"><ele>423.75</ele><time>2026-03-29T12:32:29.999Z</time></trkpt><trkpt lat="42.672237354347864" lon="11.599627944708526"><ele>422.5</ele><time>2026-03-29T12:32:30.999Z</time></trkpt><trkpt lat="42.6722874886915" lon="11.599812645043519"><ele>421.25</ele><time>2026-03-29T12:32:31.999Z</time></trkpt><trkpt lat="42.672346913864665" lon="11.599958170020981"><ele>420.0</ele><time>2026-03-29T12:32:32.999Z</time></trkpt><trkpt lat="42.67242724085578" lon="11.600054900045143"><ele>420.0</ele><time>2026-03-29T12:32:33.999Z</time></trkpt><trkpt lat="42.672524668493566" lon="11.600141945718768"><ele>420.0</ele><time>2026-03-29T12:32:34.999Z</time></trkpt><trkpt lat="42.672645130047755" lon="11.600207716444608"><ele>420.0</ele><time>2026-03-29T12:32:35.999Z</time></trkpt><trkpt lat="42.672781833916495" lon="11.600225710472818"><ele>420.0</ele><time>2026-03-29T12:32:36.999Z</time></trkpt><trkpt lat="42.67292500745147" lon="11.600208129547962"><ele>421.5</ele><time>2026-03-29T12:32:37.999Z</time></trkpt><trkpt lat="42.67305530023045" lon="11.600174977948098"><ele>423.0</ele><time>2026-03-29T12:32:38.999Z</time></trkpt><trkpt lat="42.6731809210059" lon="11.600117154001312"><ele>424.5</ele><time>2026-03-29T12:32:39.999Z</time></trkpt><trkpt lat="42.67329718460831" lon="11.600002735318947"><ele>426.0</ele><time>2026-03-29T12:32:40.999Z</time></trkpt><trkpt lat="42.673389378567165" lon="11.599858204014716"><ele>426.0</ele><time>2026-03-29T12:32:41.999Z</time></trkpt><trkpt lat="42.67344539937208" lon="11.59969609099179"><ele>426.0</ele><time>2026-03-29T12:32:42.999Z</time></trkpt><trkpt lat="42.67347636740299" lon="11.59952901918206"><ele>426.0</ele><time>2026-03-29T12:32:43.999Z</time></trkpt><trkpt lat="42.67347724859671" lon="11.599341361174806"><ele>426.0</ele><time>2026-03-29T12:32:44.999Z</time></trkpt><trkpt lat="42.673434769843944" lon="11.599159698460731"><ele>427.0</ele><time>2026-03-29T12:32:45.999Z</time></trkpt><trkpt lat="42.67339273034745" lon="11.598978941339809"><ele>428.0</ele><time>2026-03-29T12:32:46.999Z</time></trkpt><trkpt lat="42.67331781305678" lon="11.598818964956287"><ele>429.0</ele><time>2026-03-29T12:32:47.999Z</time></trkpt><trkpt lat="42.67322987380391" lon="11.598684979934175"><ele>430.0</ele><time>2026-03-29T12:32:48.999Z</time></trkpt><trkpt lat="42.673144472750785" lon="11.59857468981682"><ele>429.8</ele><time>2026-03-29T12:32:49.999Z</time></trkpt><trkpt lat="42.673060228190835" lon="11.598467985363778"><ele>429.6</ele><time>2026-03-29T12:32:50.999Z</time></trkpt><trkpt lat="42.67297692615312" lon="11.598379287493156"><ele>429.4</ele><time>2026-03-29T12:32:51.999Z</time></trkpt><trkpt lat="42.67290215436041" lon="11.598288765961966"><ele>429.2</ele><time>2026-03-29T12:32:52.998Z</time></trkpt><trkpt lat="42.67282927393879" lon="11.598203722242284"><ele>429.0</ele><time>2026-03-29T12:32:53.998Z</time></trkpt><trkpt lat="42.672751755656186" lon="11.598122737159947"><ele>429.0</ele><time>2026-03-29T12:32:54.998Z</time></trkpt><trkpt lat="42.67267811827643" lon="11.598035820498056"><ele>429.0</ele><time>2026-03-29T12:32:55.998Z</time></trkpt><trkpt lat="42.672616400120944" lon="11.597930842003848"><ele>429.0</ele><time>2026-03-29T12:32:56.998Z</time></trkpt><trkpt lat="42.67254419677694" lon="11.59783713653969"><ele>429.0</ele><time>2026-03-29T12:32:57.998Z</time></trkpt><trkpt lat="42.67246988198991" lon="11.597740690797728"><ele>429.0</ele><time>2026-03-29T12:32:58.998Z</time></trkpt><trkpt lat="42.67238585810181" lon="11.597660756416799"><ele>430.79999999999995</ele><time>2026-03-29T12:32:59.998Z</time></trkpt><trkpt lat="42.67231799144993" lon="11.597558233244849"><ele>432.59999999999997</ele><time>2026-03-29T12:33:00.998Z</time></trkpt><trkpt lat="42.67224727093006" lon="11.597467246443733"><ele>434.4</ele><time>2026-03-29T12:33:01.998Z</time></trkpt><trkpt lat="42.67217626217473" lon="11.597372931276235"><ele>436.2</ele><time>2026-03-29T12:33:02.998Z</time></trkpt><trkpt lat="42.67210385479242" lon="11.597275182953428"><ele>438.0</ele><time>2026-03-29T12:33:04Z</time></trkpt><trkpt lat="42.67203330126426" lon="11.597175066356522"><ele>438.0</ele><time>2026-03-29T12:33:05Z</time></trkpt><trkpt lat="42.67197577307371" lon="11.597073549292752"><ele>438.0</ele><time>2026-03-29T12:33:06Z</time></trkpt><trkpt lat="42.67191773197312" lon="11.596983912617548"><ele>438.0</ele><time>2026-03-29T12:33:07.001Z</time></trkpt><trkpt lat="42.67186132005511" lon="11.596893678409659"><ele>438.0</ele><time>2026-03-29T12:33:08.001Z</time></trkpt><trkpt lat="42.67181024941396" lon="11.596796645927046"><ele>438.0</ele><time>2026-03-29T12:33:09.001Z</time></trkpt><trkpt lat="42.67176382214935" lon="11.59670612284126"><ele>438.0</ele><time>2026-03-29T12:33:10Z</time></trkpt><trkpt lat="42.671714703393576" lon="11.596613131734186"><ele>438.59999999999997</ele><time>2026-03-29T12:33:11.001Z</time></trkpt><trkpt lat="42.67165216909632" lon="11.596505902401987"><ele>439.19999999999993</ele><time>2026-03-29T12:33:12.001Z</time></trkpt><trkpt lat="42.67159646392018" lon="11.596406715337247"><ele>439.8</ele><time>2026-03-29T12:33:13.001Z</time></trkpt><trkpt lat="42.671539767618526" lon="11.596302500798911"><ele>440.4</ele><time>2026-03-29T12:33:14Z</time></trkpt><trkpt lat="42.67148431636238" lon="11.596194476806266"><ele>441.0</ele><time>2026-03-29T12:33:15Z</time></trkpt><trkpt lat="42.67142900239049" lon="11.596091594331973"><ele>442.0</ele><time>2026-03-29T12:33:16Z</time></trkpt><trkpt lat="42.67138241544962" lon="11.595982614963411"><ele>443.0</ele><time>2026-03-29T12:33:17Z</time></trkpt><trkpt lat="42.67135308518705" lon="11.595872791168688"><ele>444.0</ele><time>2026-03-29T12:33:18Z</time></trkpt><trkpt lat="42.67134393201982" lon="11.595757393608656"><ele>445.0</ele><time>2026-03-29T12:33:19Z</time></trkpt><trkpt lat="42.671371431744134" lon="11.59564456067529"><ele>446.0</ele><time>2026-03-29T12:33:20Z</time></trkpt><trkpt lat="42.671427119509005" lon="11.595578891223036"><ele>447.0</ele><time>2026-03-29T12:33:21Z</time></trkpt><trkpt lat="42.671541649508605" lon="11.59550112036483"><ele>447.0</ele><time>2026-03-29T12:33:23Z</time></trkpt><trkpt lat="42.67165053077558" lon="11.595424453324865"><ele>447.00000000000006</ele><time>2026-03-29T12:33:25Z</time></trkpt><trkpt lat="42.67171891061068" lon="11.595388982479406"><ele>447.00000000000006</ele><time>2026-03-29T12:33:26Z</time></trkpt><trkpt lat="42.67179926105547" lon="11.59537459186532"><ele>447.0</ele><time>2026-03-29T12:33:27Z</time></trkpt><trkpt lat="42.67188695154958" lon="11.595348011593053"><ele>447.0</ele><time>2026-03-29T12:33:28Z</time></trkpt><trkpt lat="42.67198681593426" lon="11.595307771268525"><ele>445.6</ele><time>2026-03-29T12:33:29Z</time></trkpt><trkpt lat="42.672090440952886" lon="11.595275845303153"><ele>444.20000000000005</ele><time>2026-03-29T12:33:30Z</time></trkpt><trkpt lat="42.672193150155564" lon="11.595246781028532"><ele>442.8</ele><time>2026-03-29T12:33:31Z</time></trkpt><trkpt lat="42.672294012822995" lon="11.595211901488641"><ele>441.4</ele><time>2026-03-29T12:33:32Z</time></trkpt><trkpt lat="42.67239805742811" lon="11.59519203980457"><ele>440.0</ele><time>2026-03-29T12:33:33Z</time></trkpt><trkpt lat="42.672496228629" lon="11.595161865824661"><ele>440.0</ele><time>2026-03-29T12:33:34Z</time></trkpt><trkpt lat="42.67259658432855" lon="11.595131020386116"><ele>440.0</ele><time>2026-03-29T12:33:35Z</time></trkpt><trkpt lat="42.67269952711353" lon="11.59509938014194"><ele>440.0</ele><time>2026-03-29T12:33:36Z</time></trkpt><trkpt lat="42.672802015433376" lon="11.595069941306523"><ele>440.0</ele><time>2026-03-29T12:33:37Z</time></trkpt><trkpt lat="42.67290340450115" lon="11.595040164831822"><ele>440.0</ele><time>2026-03-29T12:33:38Z</time></trkpt><trkpt lat="42.673007411817736" lon="11.595009619402363"><ele>440.8</ele><time>2026-03-29T12:33:39Z</time></trkpt><trkpt lat="42.67311151386482" lon="11.594979046134583"><ele>441.6</ele><time>2026-03-29T12:33:40Z</time></trkpt><trkpt lat="42.67321455009191" lon="11.59494878591338"><ele>442.4</ele><time>2026-03-29T12:33:41Z</time></trkpt><trkpt lat="42.67332023619472" lon="11.594917719066924"><ele>443.2</ele><time>2026-03-29T12:33:42Z</time></trkpt><trkpt lat="42.67342312551018" lon="11.594886253689856"><ele>444.0</ele><time>2026-03-29T12:33:43Z</time></trkpt><trkpt lat="42.6735277774287" lon="11.594851182682586"><ele>443.6</ele><time>2026-03-29T12:33:44Z</time></trkpt><trkpt lat="42.67363297863089" lon="11.594814063971501"><ele>443.2</ele><time>2026-03-29T12:33:45Z</time></trkpt><trkpt lat="42.67373202060422" lon="11.594759491554422"><ele>442.80000000000007</ele><time>2026-03-29T12:33:46Z</time></trkpt><trkpt lat="42.67383943988523" lon="11.594728163843541"><ele>442.40000000000003</ele><time>2026-03-29T12:33:47Z</time></trkpt><trkpt lat="42.67394980110235" lon="11.594691349116626"><ele>442.0</ele><time>2026-03-29T12:33:48Z</time></trkpt><trkpt lat="42.67406237709575" lon="11.594649959915982"><ele>442.0</ele><time>2026-03-29T12:33:49Z</time></trkpt><trkpt lat="42.67417550962073" lon="11.594614305459247"><ele>442.0</ele><time>2026-03-29T12:33:50Z</time></trkpt><trkpt lat="42.6742929781913" lon="11.594573466335609"><ele>442.0</ele><time>2026-03-29T12:33:50.999Z</time></trkpt><trkpt lat="42.67440854931909" lon="11.594520810151845"><ele>442.0</ele><time>2026-03-29T12:33:51.999Z</time></trkpt><trkpt lat="42.67453040311556" lon="11.59446236731898"><ele>443.5</ele><time>2026-03-29T12:33:52.999Z</time></trkpt><trkpt lat="42.67464510766432" lon="11.594390064298251"><ele>445.0</ele><time>2026-03-29T12:33:53.999Z</time></trkpt><trkpt lat="42.67476003698815" lon="11.59430681059915"><ele>446.5</ele><time>2026-03-29T12:33:54.999Z</time></trkpt><trkpt lat="42.674878932272655" lon="11.59423123405861"><ele>448.0</ele><time>2026-03-29T12:33:55.999Z</time></trkpt><trkpt lat="42.6749805539699" lon="11.594109454698764"><ele>448.0</ele><time>2026-03-29T12:33:56.999Z</time></trkpt><trkpt lat="42.675102195881884" lon="11.59402295425039"><ele>448.0</ele><time>2026-03-29T12:33:57.999Z</time></trkpt><trkpt lat="42.67521918123123" lon="11.59392692297324"><ele>448.0</ele><time>2026-03-29T12:33:58.999Z</time></trkpt><trkpt lat="42.67534031786209" lon="11.593841461278542"><ele>448.0</ele><time>2026-03-29T12:33:59.999Z</time></trkpt><trkpt lat="42.67545921463488" lon="11.593772609740219"><ele>447.25</ele><time>2026-03-29T12:34:00.999Z</time></trkpt><trkpt lat="42.67558104500037" lon="11.593711862674905"><ele>446.5</ele><time>2026-03-29T12:34:01.999Z</time></trkpt><trkpt lat="42.67569874889949" lon="11.593651770899347"><ele>445.75</ele><time>2026-03-29T12:34:02.999Z</time></trkpt><trkpt lat="42.675813820942075" lon="11.593588005618532"><ele>445.0</ele><time>2026-03-29T12:34:03.999Z</time></trkpt><trkpt lat="42.67592751741505" lon="11.593527180652126"><ele>446.75</ele><time>2026-03-29T12:34:04.999Z</time></trkpt><trkpt lat="42.676034138089605" lon="11.593472423867663"><ele>448.5</ele><time>2026-03-29T12:34:05.999Z</time></trkpt><trkpt lat="42.676144383867964" lon="11.593412545936951"><ele>450.25</ele><time>2026-03-29T12:34:06.999Z</time></trkpt><trkpt lat="42.6762603103142" lon="11.593354286705047"><ele>452.0</ele><time>2026-03-29T12:34:07.999Z</time></trkpt><trkpt lat="42.676382129336346" lon="11.593298962526038"><ele>452.0</ele><time>2026-03-29T12:34:08.999Z</time></trkpt><trkpt lat="42.676507662797555" lon="11.593260634292136"><ele>452.0</ele><time>2026-03-29T12:34:09.999Z</time></trkpt><trkpt lat="42.676637800131395" lon="11.593252053152153"><ele>452.0</ele><time>2026-03-29T12:34:10.999Z</time></trkpt><trkpt lat="42.67677753102999" lon="11.59327869345366"><ele>452.0</ele><time>2026-03-29T12:34:11.999Z</time></trkpt><trkpt lat="42.67691545526034" lon="11.59333152545092"><ele>452.5</ele><time>2026-03-29T12:34:12.999Z</time></trkpt><trkpt lat="42.67705410421178" lon="11.59339092537703"><ele>453.0</ele><time>2026-03-29T12:34:13.999Z</time></trkpt><trkpt lat="42.677188460941096" lon="11.593447363835262"><ele>453.5</ele><time>2026-03-29T12:34:14.999Z</time></trkpt><trkpt lat="42.67732066387842" lon="11.593495356791873"><ele>454.0</ele><time>2026-03-29T12:34:15.999Z</time></trkpt><trkpt lat="42.67745013010254" lon="11.593536675522113"><ele>454.0</ele><time>2026-03-29T12:34:16.999Z</time></trkpt><trkpt lat="42.677579069235605" lon="11.593557789360421"><ele>454.0</ele><time>2026-03-29T12:34:17.999Z</time></trkpt><trkpt lat="42.677711394018566" lon="11.593546124068366"><ele>454.0</ele><time>2026-03-29T12:34:18.999Z</time></trkpt><trkpt lat="42.67783678356616" lon="11.593492823582016"><ele>454.0</ele><time>2026-03-29T12:34:19.999Z</time></trkpt><trkpt lat="42.67795414247356" lon="11.59340653399948"><ele>453.75</ele><time>2026-03-29T12:34:20.999Z</time></trkpt><trkpt lat="42.67806029090748" lon="11.593295870661766"><ele>453.5</ele><time>2026-03-29T12:34:21.999Z</time></trkpt><trkpt lat="42.678166030957065" lon="11.593177165265857"><ele>453.25</ele><time>2026-03-29T12:34:22.999Z</time></trkpt><trkpt lat="42.678233774991774" lon="11.593016892316136"><ele>453.0</ele><time>2026-03-29T12:34:23.999Z</time></trkpt><trkpt lat="42.678283435893455" lon="11.592852438386444"><ele>453.66666666666663</ele><time>2026-03-29T12:34:24.999Z</time></trkpt><trkpt lat="42.678337679516716" lon="11.592663857934486"><ele>454.3333333333333</ele><time>2026-03-29T12:34:25.999Z</time></trkpt><trkpt lat="42.678391492709714" lon="11.5924655463606"><ele>455.0</ele><time>2026-03-29T12:34:26.999Z</time></trkpt><trkpt lat="42.67844585808795" lon="11.592261750074615"><ele>455.0</ele><time>2026-03-29T12:34:27.999Z</time></trkpt><trkpt lat="42.678502601948296" lon="11.592048737359383"><ele>455.0</ele><time>2026-03-29T12:34:28.999Z</time></trkpt><trkpt lat="42.67856131954168" lon="11.591831804503235"><ele>455.0</ele><time>2026-03-29T12:34:29.999Z</time></trkpt><trkpt lat="42.67860839254951" lon="11.591617040651029"><ele>455.0</ele><time>2026-03-29T12:34:30.999Z</time></trkpt><trkpt lat="42.678671786782594" lon="11.591410725234056"><ele>455.0</ele><time>2026-03-29T12:34:31.999Z</time></trkpt><trkpt lat="42.678768135255794" lon="11.591210021164283"><ele>455.0</ele><time>2026-03-29T12:34:32.999Z</time></trkpt><trkpt lat="42.67884805958473" lon="11.59100994476274"><ele>455.0</ele><time>2026-03-29T12:34:33.999Z</time></trkpt><trkpt lat="42.67892931867198" lon="11.590811833870985"><ele>455.0</ele><time>2026-03-29T12:34:34.999Z</time></trkpt><trkpt lat="42.679012599761826" lon="11.590610871252332"><ele>455.0</ele><time>2026-03-29T12:34:35.999Z</time></trkpt><trkpt lat="42.6790949528622" lon="11.59041046756428"><ele>453.66666666666663</ele><time>2026-03-29T12:34:36.999Z</time></trkpt><trkpt lat="42.679179363971755" lon="11.590213944864066"><ele>452.33333333333337</ele><time>2026-03-29T12:34:37.999Z</time></trkpt><trkpt lat="42.67926566892409" lon="11.59001985755343"><ele>451.0</ele><time>2026-03-29T12:34:38.999Z</time></trkpt><trkpt lat="42.679351078546304" lon="11.589823952087956"><ele>450.0</ele><time>2026-03-29T12:34:39.998Z</time></trkpt><trkpt lat="42.67943569953393" lon="11.58963384142573"><ele>449.0</ele><time>2026-03-29T12:34:40.998Z</time></trkpt><trkpt lat="42.67952207658991" lon="11.58944985032464"><ele>448.0</ele><time>2026-03-29T12:34:41.998Z</time></trkpt><trkpt lat="42.679615749416264" lon="11.589280904846145"><ele>448.0</ele><time>2026-03-29T12:34:42.998Z</time></trkpt><trkpt lat="42.67970880980377" lon="11.58913387633391"><ele>448.0</ele><time>2026-03-29T12:34:43.998Z</time></trkpt><trkpt lat="42.67982500060109" lon="11.588990155710361"><ele>448.0</ele><time>2026-03-29T12:34:44.998Z</time></trkpt><trkpt lat="42.67994083814882" lon="11.588884271540596"><ele>448.0</ele><time>2026-03-29T12:34:45.998Z</time></trkpt><trkpt lat="42.6800557026638" lon="11.58881330003734"><ele>448.0</ele><time>2026-03-29T12:34:46.998Z</time></trkpt><trkpt lat="42.68017192109461" lon="11.588811766880443"><ele>448.0</ele><time>2026-03-29T12:34:47.998Z</time></trkpt><trkpt lat="42.680287463726444" lon="11.588857493194173"><ele>448.0</ele><time>2026-03-29T12:34:48.998Z</time></trkpt><trkpt lat="42.680393377253324" lon="11.588932014311109"><ele>448.0</ele><time>2026-03-29T12:34:49.998Z</time></trkpt><trkpt lat="42.68050649808301" lon="11.589050843215125"><ele>444.6666666666667</ele><time>2026-03-29T12:34:50.998Z</time></trkpt><trkpt lat="42.68063874684128" lon="11.589165038965437"><ele>441.33333333333337</ele><time>2026-03-29T12:34:51.998Z</time></trkpt><trkpt lat="42.680780499468675" lon="11.589286643175905"><ele>438.0</ele><time>2026-03-29T12:34:52.998Z</time></trkpt><trkpt lat="42.68094126797431" lon="11.589410275744516"><ele>436.33333333333337</ele><time>2026-03-29T12:34:53.998Z</time></trkpt><trkpt lat="42.6811044727749" lon="11.589541357637644"><ele>434.6666666666667</ele><time>2026-03-29T12:34:54.998Z</time></trkpt><trkpt lat="42.681264006589295" lon="11.589676027789379"><ele>433.0</ele><time>2026-03-29T12:34:55.998Z</time></trkpt><trkpt lat="42.681432360341276" lon="11.589807067115391"><ele>433.0</ele><time>2026-03-29T12:34:56.998Z</time></trkpt><trkpt lat="42.681599039919355" lon="11.589923167219009"><ele>433.0</ele><time>2026-03-29T12:34:57.998Z</time></trkpt><trkpt lat="42.68176430683249" lon="11.590013689630837"><ele>433.0</ele><time>2026-03-29T12:34:58.998Z</time></trkpt><trkpt lat="42.681917923239965" lon="11.590089693954367"><ele>430.0</ele><time>2026-03-29T12:34:59.998Z</time></trkpt><trkpt lat="42.68207415973752" lon="11.590138195100772"><ele>427.0</ele><time>2026-03-29T12:35:00.998Z</time></trkpt><trkpt lat="42.682228968615" lon="11.590146828704324"><ele>424.0</ele><time>2026-03-29T12:35:01.998Z</time></trkpt><trkpt lat="42.68237659859872" lon="11.59011050058988"><ele>424.0</ele><time>2026-03-29T12:35:02.998Z</time></trkpt><trkpt lat="42.682509007798195" lon="11.59004529636883"><ele>424.0</ele><time>2026-03-29T12:35:03.998Z</time></trkpt><trkpt lat="42.68262815891809" lon="11.589948389975063"><ele>424.0</ele><time>2026-03-29T12:35:04.998Z</time></trkpt><trkpt lat="42.68273218826702" lon="11.589814430965344"><ele>424.0</ele><time>2026-03-29T12:35:05.998Z</time></trkpt><trkpt lat="42.68281780786982" lon="11.589652511443234"><ele>424.33333333333337</ele><time>2026-03-29T12:35:06.998Z</time></trkpt><trkpt lat="42.682889879277575" lon="11.58947045910631"><ele>424.66666666666663</ele><time>2026-03-29T12:35:07.998Z</time></trkpt><trkpt lat="42.68295904264656" lon="11.589283985852774"><ele>425.0</ele><time>2026-03-29T12:35:08.998Z</time></trkpt><trkpt lat="42.683028935302254" lon="11.589096403176695"><ele>425.0</ele><time>2026-03-29T12:35:10.001Z</time></trkpt><trkpt lat="42.683107091789125" lon="11.588922270663462"><ele>425.0</ele><time>2026-03-29T12:35:11Z</time></trkpt><trkpt lat="42.683197333611524" lon="11.588767257747772"><ele>425.0</ele><time>2026-03-29T12:35:12Z</time></trkpt><trkpt lat="42.68330024483198" lon="11.588632011623346"><ele>425.0</ele><time>2026-03-29T12:35:13Z</time></trkpt><trkpt lat="42.68342071108945" lon="11.588535887257937"><ele>427.25</ele><time>2026-03-29T12:35:14Z</time></trkpt><trkpt lat="42.683541610485804" lon="11.588471450594493"><ele>429.5</ele><time>2026-03-29T12:35:15Z</time></trkpt><trkpt lat="42.68367150567953" lon="11.588479588194417"><ele>431.75</ele><time>2026-03-29T12:35:16Z</time></trkpt><trkpt lat="42.68380663938848" lon="11.588486164684225"><ele>434.0</ele><time>2026-03-29T12:35:17Z</time></trkpt><trkpt lat="42.68394700867347" lon="11.588490270456212"><ele>434.0</ele><time>2026-03-29T12:35:18Z</time></trkpt><trkpt lat="42.68409466280094" lon="11.588450739710332"><ele>434.0</ele><time>2026-03-29T12:35:19Z</time></trkpt><trkpt lat="42.68423526749523" lon="11.588363070641963"><ele>434.0</ele><time>2026-03-29T12:35:20.001Z</time></trkpt><trkpt lat="42.68437518555579" lon="11.588300218807753"><ele>432.0</ele><time>2026-03-29T12:35:21.001Z</time></trkpt><trkpt lat="42.68451086560651" lon="11.58826265704764"><ele>430.0</ele><time>2026-03-29T12:35:22.001Z</time></trkpt><trkpt lat="42.68462153480389" lon="11.588190498249094"><ele>428.0</ele><time>2026-03-29T12:35:23Z</time></trkpt><trkpt lat="42.684714676112506" lon="11.588127221789073"><ele>426.0</ele><time>2026-03-29T12:35:24Z</time></trkpt><trkpt lat="42.6847769536266" lon="11.588027456196949"><ele>426.0</ele><time>2026-03-29T12:35:25Z</time></trkpt><trkpt lat="42.68481295025843" lon="11.587908567028379"><ele>426.0</ele><time>2026-03-29T12:35:26Z</time></trkpt><trkpt lat="42.68482642765393" lon="11.587759818327568"><ele>426.0</ele><time>2026-03-29T12:35:27Z</time></trkpt><trkpt lat="42.68482186743325" lon="11.587598963213473"><ele>426.0</ele><time>2026-03-29T12:35:28Z</time></trkpt><trkpt lat="42.68480219543236" lon="11.587437968326034"><ele>426.0</ele><time>2026-03-29T12:35:29Z</time></trkpt><trkpt lat="42.68474485803829" lon="11.587275365913836"><ele>427.5</ele><time>2026-03-29T12:35:30Z</time></trkpt><trkpt lat="42.68467074148448" lon="11.587108154459735"><ele>429.0</ele><time>2026-03-29T12:35:31Z</time></trkpt><trkpt lat="42.684595530194485" lon="11.586931135832858"><ele>430.5</ele><time>2026-03-29T12:35:32Z</time></trkpt><trkpt lat="42.68452776137113" lon="11.58675837393394"><ele>432.0</ele><time>2026-03-29T12:35:33Z</time></trkpt><trkpt lat="42.684472650670415" lon="11.586595646526412"><ele>433.40000000000003</ele><time>2026-03-29T12:35:34Z</time></trkpt><trkpt lat="42.6844373785406" lon="11.586442502720036"><ele>434.80000000000007</ele><time>2026-03-29T12:35:35Z</time></trkpt><trkpt lat="42.68441983182801" lon="11.586297113056224"><ele>436.2</ele><time>2026-03-29T12:35:36Z</time></trkpt><trkpt lat="42.68442044693079" lon="11.586147862721482"><ele>437.6</ele><time>2026-03-29T12:35:37Z</time></trkpt><trkpt lat="42.684462344829576" lon="11.586004947006568"><ele>439.0</ele><time>2026-03-29T12:35:38Z</time></trkpt><trkpt lat="42.68449875324861" lon="11.585843878619999"><ele>440.0</ele><time>2026-03-29T12:35:39Z</time></trkpt><trkpt lat="42.68457742121008" lon="11.585691789631094"><ele>441.0</ele><time>2026-03-29T12:35:40Z</time></trkpt><trkpt lat="42.68465888581974" lon="11.58554700154012"><ele>442.0</ele><time>2026-03-29T12:35:41Z</time></trkpt><trkpt lat="42.68474681968811" lon="11.585398335581882"><ele>443.0</ele><time>2026-03-29T12:35:42Z</time></trkpt><trkpt lat="42.68484609204678" lon="11.58524726793367"><ele>445.5</ele><time>2026-03-29T12:35:43Z</time></trkpt><trkpt lat="42.6849451999169" lon="11.585087500749005"><ele>448.0</ele><time>2026-03-29T12:35:44Z</time></trkpt><trkpt lat="42.68503480381329" lon="11.584954742447708"><ele>450.5</ele><time>2026-03-29T12:35:45Z</time></trkpt><trkpt lat="42.68512418365566" lon="11.584855943586827"><ele>453.0</ele><time>2026-03-29T12:35:46Z</time></trkpt><trkpt lat="42.685233986007454" lon="11.584800235153509"><ele>451.75</ele><time>2026-03-29T12:35:47Z</time></trkpt><trkpt lat="42.68533891277903" lon="11.584720032552548"><ele>450.5</ele><time>2026-03-29T12:35:47.999Z</time></trkpt><trkpt lat="42.68545464151286" lon="11.58465455149841"><ele>449.25</ele><time>2026-03-29T12:35:48.999Z</time></trkpt><trkpt lat="42.68557556395021" lon="11.584600825550307"><ele>448.0</ele><time>2026-03-29T12:35:49.999Z</time></trkpt><trkpt lat="42.685705304436354" lon="11.584525374120346"><ele>452.6666666666667</ele><time>2026-03-29T12:35:50.999Z</time></trkpt><trkpt lat="42.685839476806066" lon="11.584446959358802"><ele>457.33333333333337</ele><time>2026-03-29T12:35:51.999Z</time></trkpt><trkpt lat="42.68597680664141" lon="11.584358528041712"><ele>462.0</ele><time>2026-03-29T12:35:52.999Z</time></trkpt><trkpt lat="42.68611278883749" lon="11.58425880618091"><ele>462.0</ele><time>2026-03-29T12:35:53.999Z</time></trkpt><trkpt lat="42.68623542356106" lon="11.584157305880765"><ele>462.0</ele><time>2026-03-29T12:35:54.999Z</time></trkpt><trkpt lat="42.6863560857811" lon="11.584075198108753"><ele>462.0</ele><time>2026-03-29T12:35:55.999Z</time></trkpt><trkpt lat="42.68647325657679" lon="11.584025488379377"><ele>462.0</ele><time>2026-03-29T12:35:56.999Z</time></trkpt><trkpt lat="42.68658149672647" lon="11.584016628909232"><ele>462.0</ele><time>2026-03-29T12:35:57.999Z</time></trkpt><trkpt lat="42.68670692655882" lon="11.58403316343123"><ele>462.0</ele><time>2026-03-29T12:35:58.999Z</time></trkpt><trkpt lat="42.686836585923025" lon="11.58407421064755"><ele>462.0</ele><time>2026-03-29T12:35:59.999Z</time></trkpt><trkpt lat="42.68696781658489" lon="11.584148251359215"><ele>462.0</ele><time>2026-03-29T12:36:00.999Z</time></trkpt><trkpt lat="42.68709526485279" lon="11.584229651325673"><ele>462.25</ele><time>2026-03-29T12:36:01.999Z</time></trkpt><trkpt lat="42.68721634188658" lon="11.584296871657887"><ele>462.5</ele><time>2026-03-29T12:36:02.999Z</time></trkpt><trkpt lat="42.68734079989538" lon="11.584344518761696"><ele>462.75</ele><time>2026-03-29T12:36:03.999Z</time></trkpt><trkpt lat="42.68746890921044" lon="11.584362541137699"><ele>463.0</ele><time>2026-03-29T12:36:04.999Z</time></trkpt><trkpt lat="42.6875917296426" lon="11.584348077055909"><ele>463.0</ele><time>2026-03-29T12:36:05.999Z</time></trkpt><trkpt lat="42.68770519008804" lon="11.584296407449338"><ele>463.0</ele><time>2026-03-29T12:36:06.999Z</time></trkpt><trkpt lat="42.68781408968087" lon="11.584215374289505"><ele>463.0</ele><time>2026-03-29T12:36:07.999Z</time></trkpt><trkpt lat="42.68792630670299" lon="11.58412172110508"><ele>463.0</ele><time>2026-03-29T12:36:08.999Z</time></trkpt><trkpt lat="42.68803224968947" lon="11.584003523395223"><ele>462.33333333333337</ele><time>2026-03-29T12:36:09.999Z</time></trkpt><trkpt lat="42.68814155763237" lon="11.583874514324197"><ele>461.66666666666663</ele><time>2026-03-29T12:36:10.999Z</time></trkpt><trkpt lat="42.68825680462228" lon="11.58374456624978"><ele>461.0</ele><time>2026-03-29T12:36:11.999Z</time></trkpt><trkpt lat="42.68837378762573" lon="11.583604766450533"><ele>463.66666666666663</ele><time>2026-03-29T12:36:12.999Z</time></trkpt><trkpt lat="42.68848491222115" lon="11.583454754145281"><ele>466.33333333333337</ele><time>2026-03-29T12:36:13.999Z</time></trkpt><trkpt lat="42.688591638977385" lon="11.583308751702864"><ele>469.0</ele><time>2026-03-29T12:36:14.999Z</time></trkpt><trkpt lat="42.688713746695754" lon="11.583186916419356"><ele>469.0</ele><time>2026-03-29T12:36:15.999Z</time></trkpt><trkpt lat="42.68880229585211" lon="11.583094876562058"><ele>469.0</ele><time>2026-03-29T12:36:16.999Z</time></trkpt><trkpt lat="42.688882288583024" lon="11.583028720335967"><ele>469.0</ele><time>2026-03-29T12:36:17.999Z</time></trkpt><trkpt lat="42.6889620597211" lon="11.582967009691528"><ele>469.0</ele><time>2026-03-29T12:36:18.999Z</time></trkpt><trkpt lat="42.68912718503009" lon="11.58291650214499"><ele>469.0</ele><time>2026-03-29T12:36:19.999Z</time></trkpt><trkpt lat="42.68929164448234" lon="11.582910036074372"><ele>469.0</ele><time>2026-03-29T12:36:20.999Z</time></trkpt><trkpt lat="42.68945639963761" lon="11.582912530642334"><ele>469.0</ele><time>2026-03-29T12:36:21.999Z</time></trkpt><trkpt lat="42.689622570106984" lon="11.582921837366554"><ele>469.75</ele><time>2026-03-29T12:36:22.999Z</time></trkpt><trkpt lat="42.68977367978113" lon="11.582927415391069"><ele>470.5</ele><time>2026-03-29T12:36:23.999Z</time></trkpt><trkpt lat="42.68990502801711" lon="11.582957145250377"><ele>471.25</ele><time>2026-03-29T12:36:24.999Z</time></trkpt><trkpt lat="42.690023034497266" lon="11.583035878354194"><ele>472.0</ele><time>2026-03-29T12:36:25.999Z</time></trkpt><trkpt lat="42.69011492142445" lon="11.58316729076519"><ele>472.0</ele><time>2026-03-29T12:36:26.999Z</time></trkpt><trkpt lat="42.69015752379902" lon="11.583352063456145"><ele>472.0</ele><time>2026-03-29T12:36:27.999Z</time></trkpt><trkpt lat="42.69023861659683" lon="11.583518454780815"><ele>472.0</ele><time>2026-03-29T12:36:28.999Z</time></trkpt><trkpt lat="42.69032842369638" lon="11.583689559276255"><ele>472.0</ele><time>2026-03-29T12:36:29.999Z</time></trkpt><trkpt lat="42.69041722984679" lon="11.583864998938527"><ele>471.25</ele><time>2026-03-29T12:36:30.999Z</time></trkpt><trkpt lat="42.69050503742942" lon="11.584022404795999"><ele>470.5</ele><time>2026-03-29T12:36:31.999Z</time></trkpt><trkpt lat="42.69059405963031" lon="11.584162093929667"><ele>469.75</ele><time>2026-03-29T12:36:32.999Z</time></trkpt><trkpt lat="42.69068885748261" lon="11.584287639069794"><ele>469.0</ele><time>2026-03-29T12:36:33.999Z</time></trkpt><trkpt lat="42.69080039830663" lon="11.584390865376372"><ele>469.0</ele><time>2026-03-29T12:36:34.999Z</time></trkpt><trkpt lat="42.69092332840529" lon="11.584482714118618"><ele>469.0</ele><time>2026-03-29T12:36:35.999Z</time></trkpt><trkpt lat="42.691056692420965" lon="11.584568833418377"><ele>469.0</ele><time>2026-03-29T12:36:36.998Z</time></trkpt><trkpt lat="42.69119727759556" lon="11.584663370650937"><ele>469.0</ele><time>2026-03-29T12:36:37.998Z</time></trkpt><trkpt lat="42.69134009881046" lon="11.584761996934857"><ele>470.0</ele><time>2026-03-29T12:36:38.998Z</time></trkpt><trkpt lat="42.69149843426745" lon="11.584861210340843"><ele>471.0</ele><time>2026-03-29T12:36:39.998Z</time></trkpt><trkpt lat="42.69165622549591" lon="11.58497274011637"><ele>472.0</ele><time>2026-03-29T12:36:40.998Z</time></trkpt><trkpt lat="42.69181795637723" lon="11.585052737150567"><ele>472.33333333333337</ele><time>2026-03-29T12:36:41.998Z</time></trkpt><trkpt lat="42.69198017533775" lon="11.58511647086253"><ele>472.66666666666663</ele><time>2026-03-29T12:36:42.998Z</time></trkpt><trkpt lat="42.692137804917046" lon="11.585170782155084"><ele>473.0</ele><time>2026-03-29T12:36:43.998Z</time></trkpt><trkpt lat="42.69229753283203" lon="11.585216783648274"><ele>473.0</ele><time>2026-03-29T12:36:44.998Z</time></trkpt><trkpt lat="42.69245023318178" lon="11.58525531414482"><ele>473.0</ele><time>2026-03-29T12:36:45.998Z</time></trkpt><trkpt lat="42.69259534513742" lon="11.58529192989995"><ele>473.0</ele><time>2026-03-29T12:36:46.998Z</time></trkpt><trkpt lat="42.69273587052695" lon="11.585327388296355"><ele>473.0</ele><time>2026-03-29T12:36:47.998Z</time></trkpt><trkpt lat="42.69287523552339" lon="11.585367770094809"><ele>471.75</ele><time>2026-03-29T12:36:48.998Z</time></trkpt><trkpt lat="42.69300364689663" lon="11.585405136752525"><ele>470.5</ele><time>2026-03-29T12:36:49.998Z</time></trkpt><trkpt lat="42.69312111138834" lon="11.585482852409099"><ele>469.25</ele><time>2026-03-29T12:36:50.998Z</time></trkpt><trkpt lat="42.69322931490844" lon="11.585573053935107"><ele>468.0</ele><time>2026-03-29T12:36:51.998Z</time></trkpt><trkpt lat="42.693334945185676" lon="11.585665415724442"><ele>468.0</ele><time>2026-03-29T12:36:52.998Z</time></trkpt><trkpt lat="42.69343013480216" lon="11.58576364620788"><ele>468.0</ele><time>2026-03-29T12:36:53.998Z</time></trkpt><trkpt lat="42.6935250599578" lon="11.58586430211743"><ele>468.0</ele><time>2026-03-29T12:36:54.998Z</time></trkpt><trkpt lat="42.693625651245654" lon="11.585944791843875"><ele>468.0</ele><time>2026-03-29T12:36:55.998Z</time></trkpt><trkpt lat="42.69373934359184" lon="11.585992746349824"><ele>468.25</ele><time>2026-03-29T12:36:56.998Z</time></trkpt><trkpt lat="42.693865979753284" lon="11.586028544112752"><ele>468.5</ele><time>2026-03-29T12:36:57.998Z</time></trkpt><trkpt lat="42.69399942092101" lon="11.586009059572858"><ele>468.75</ele><time>2026-03-29T12:36:58.998Z</time></trkpt><trkpt lat="42.69411947391779" lon="11.58589306126159"><ele>469.0</ele><time>2026-03-29T12:36:59.998Z</time></trkpt><trkpt lat="42.694233119249255" lon="11.585773257102577"><ele>469.0</ele><time>2026-03-29T12:37:00.998Z</time></trkpt><trkpt lat="42.69431628443861" lon="11.58562921150378"><ele>469.0</ele><time>2026-03-29T12:37:01.998Z</time></trkpt><trkpt lat="42.69440577226975" lon="11.585478510069086"><ele>469.0</ele><time>2026-03-29T12:37:02.998Z</time></trkpt><trkpt lat="42.69449671087181" lon="11.585325365121028"><ele>469.0</ele><time>2026-03-29T12:37:03.998Z</time></trkpt><trkpt lat="42.69457146406291" lon="11.585166688978932"><ele>469.75</ele><time>2026-03-29T12:37:04.998Z</time></trkpt><trkpt lat="42.69466811283888" lon="11.585022490962416"><ele>470.5</ele><time>2026-03-29T12:37:05.998Z</time></trkpt><trkpt lat="42.6947587962777" lon="11.584867127216881"><ele>471.25</ele><time>2026-03-29T12:37:06.998Z</time></trkpt><trkpt lat="42.69485393011736" lon="11.584716634152796"><ele>472.0</ele><time>2026-03-29T12:37:07.998Z</time></trkpt><trkpt lat="42.694952315396" lon="11.584574480659317"><ele>471.5</ele><time>2026-03-29T12:37:08.998Z</time></trkpt><trkpt lat="42.69505925051311" lon="11.584439565073335"><ele>471.0</ele><time>2026-03-29T12:37:09.998Z</time></trkpt><trkpt lat="42.69517430291032" lon="11.584314733495706"><ele>470.5</ele><time>2026-03-29T12:37:10.998Z</time></trkpt><trkpt lat="42.69528433324908" lon="11.584188621240262"><ele>470.0</ele><time>2026-03-29T12:37:11.998Z</time></trkpt><trkpt lat="42.69539703994212" lon="11.584059044214232"><ele>472.3333333333333</ele><time>2026-03-29T12:37:12.998Z</time></trkpt><trkpt lat="42.69551108160178" lon="11.58392115948049"><ele>474.66666666666663</ele><time>2026-03-29T12:37:13.998Z</time></trkpt><trkpt lat="42.69562898627982" lon="11.583799844582389"><ele>477.0</ele><time>2026-03-29T12:37:14.998Z</time></trkpt><trkpt lat="42.695762544552025" lon="11.583682362937308"><ele>476.33333333333337</ele><time>2026-03-29T12:37:16.001Z</time></trkpt><trkpt lat="42.695909672695926" lon="11.58356786756562"><ele>475.6666666666667</ele><time>2026-03-29T12:37:17.001Z</time></trkpt><trkpt lat="42.69606994568855" lon="11.583486975149011"><ele>475.0</ele><time>2026-03-29T12:37:18.001Z</time></trkpt><trkpt lat="42.69623530545595" lon="11.583384704228807"><ele>475.0</ele><time>2026-03-29T12:37:19.001Z</time></trkpt><trkpt lat="42.696392683421614" lon="11.583289002412583"><ele>475.0</ele><time>2026-03-29T12:37:20.001Z</time></trkpt><trkpt lat="42.69654978535779" lon="11.583193856314914"><ele>475.0</ele><time>2026-03-29T12:37:21.001Z</time></trkpt><trkpt lat="42.69669594073316" lon="11.583074674269197"><ele>475.0</ele><time>2026-03-29T12:37:22Z</time></trkpt><trkpt lat="42.696851611779124" lon="11.582966597169818"><ele>475.0</ele><time>2026-03-29T12:37:23Z</time></trkpt><trkpt lat="42.6970069602284" lon="11.582842133232107"><ele>475.0</ele><time>2026-03-29T12:37:24Z</time></trkpt><trkpt lat="42.69715997906539" lon="11.582709725215237"><ele>474.6666666666667</ele><time>2026-03-29T12:37:25.001Z</time></trkpt><trkpt lat="42.6973092011935" lon="11.582563144104213"><ele>474.33333333333337</ele><time>2026-03-29T12:37:26Z</time></trkpt><trkpt lat="42.69745548138514" lon="11.582403994641641"><ele>474.0</ele><time>2026-03-29T12:37:27Z</time></trkpt><trkpt lat="42.69760633949395" lon="11.582248166959484"><ele>473.66666666666663</ele><time>2026-03-29T12:37:28.001Z</time></trkpt><trkpt lat="42.697758308858084" lon="11.58209384777115"><ele>473.3333333333333</ele><time>2026-03-29T12:37:29Z</time></trkpt><trkpt lat="42.697907422806836" lon="11.581938608949978"><ele>473.0</ele><time>2026-03-29T12:37:30Z</time></trkpt><trkpt lat="42.698050119111564" lon="11.58179365927911"><ele>473.0</ele><time>2026-03-29T12:37:31Z</time></trkpt><trkpt lat="42.69818706067674" lon="11.581656467502562"><ele>473.0</ele><time>2026-03-29T12:37:32Z</time></trkpt><trkpt lat="42.69832525524953" lon="11.581550232736685"><ele>473.0</ele><time>2026-03-29T12:37:33Z</time></trkpt><trkpt lat="42.698456441181726" lon="11.581440134770796"><ele>475.0</ele><time>2026-03-29T12:37:34Z</time></trkpt><trkpt lat="42.69858818440567" lon="11.581322880011907"><ele>477.0</ele><time>2026-03-29T12:37:35Z</time></trkpt><trkpt lat="42.698734914587995" lon="11.581234289907306"><ele>479.0</ele><time>2026-03-29T12:37:36Z</time></trkpt><trkpt lat="42.69889668230295" lon="11.581187227265875"><ele>479.66666666666663</ele><time>2026-03-29T12:37:37Z</time></trkpt><trkpt lat="42.699070236915794" lon="11.58111955443798"><ele>480.33333333333337</ele><time>2026-03-29T12:37:38Z</time></trkpt><trkpt lat="42.69924732021587" lon="11.581049187921122"><ele>481.0</ele><time>2026-03-29T12:37:39Z</time></trkpt><trkpt lat="42.69942153731237" lon="11.58097888593776"><ele>481.0</ele><time>2026-03-29T12:37:40Z</time></trkpt><trkpt lat="42.69960087214695" lon="11.580906345599361"><ele>481.0</ele><time>2026-03-29T12:37:41Z</time></trkpt><trkpt lat="42.699770409982634" lon="11.580837321167062"><ele>481.0</ele><time>2026-03-29T12:37:42Z</time></trkpt><trkpt lat="42.699923904433014" lon="11.580774828711027"><ele>481.0</ele><time>2026-03-29T12:37:43Z</time></trkpt><trkpt lat="42.70006851041141" lon="11.580717080209492"><ele>481.0</ele><time>2026-03-29T12:37:44Z</time></trkpt><trkpt lat="42.700205188377545" lon="11.580668981905104"><ele>481.0</ele><time>2026-03-29T12:37:44.999Z</time></trkpt><trkpt lat="42.70034653471142" lon="11.580628539638337"><ele>481.0</ele><time>2026-03-29T12:37:45.999Z</time></trkpt><trkpt lat="42.70048914319668" lon="11.58059385080411"><ele>482.33333333333337</ele><time>2026-03-29T12:37:46.998Z</time></trkpt><trkpt lat="42.70063807767527" lon="11.580571646610348"><ele>483.66666666666663</ele><time>2026-03-29T12:37:47.998Z</time></trkpt><trkpt lat="42.7007939809697" lon="11.580557575831087"><ele>485.0</ele><time>2026-03-29T12:37:48.998Z</time></trkpt><trkpt lat="42.700958986229715" lon="11.580542062219076"><ele>487.66666666666663</ele><time>2026-03-29T12:37:49.998Z</time></trkpt><trkpt lat="42.70112751475367" lon="11.580531908617901"><ele>490.33333333333337</ele><time>2026-03-29T12:37:50.997Z</time></trkpt><trkpt lat="42.70130022965875" lon="11.580522978288798"><ele>493.0</ele><time>2026-03-29T12:37:51.997Z</time></trkpt><trkpt lat="42.70148179503711" lon="11.58051607363285"><ele>493.0</ele><time>2026-03-29T12:37:52.997Z</time></trkpt><trkpt lat="42.70165873583525" lon="11.580507153581781"><ele>493.0</ele><time>2026-03-29T12:37:53.997Z</time></trkpt><trkpt lat="42.7018217557845" lon="11.580501319671427"><ele>493.0</ele><time>2026-03-29T12:37:54.996Z</time></trkpt><trkpt lat="42.70197255450474" lon="11.580496098232075"><ele>494.0</ele><time>2026-03-29T12:37:55.996Z</time></trkpt><trkpt lat="42.70210753369531" lon="11.580494774909816"><ele>495.0</ele><time>2026-03-29T12:37:56.996Z</time></trkpt><trkpt lat="42.70223783361773" lon="11.580479092700996"><ele>496.0</ele><time>2026-03-29T12:37:57.996Z</time></trkpt><trkpt lat="42.70236399575993" lon="11.580433059848819"><ele>497.0</ele><time>2026-03-29T12:37:58.996Z</time></trkpt><trkpt lat="42.7024848973669" lon="11.58036569540112"><ele>495.75</ele><time>2026-03-29T12:37:59.996Z</time></trkpt><trkpt lat="42.702597478565195" lon="11.580269215844147"><ele>494.5</ele><time>2026-03-29T12:38:00.995Z</time></trkpt><trkpt lat="42.7026910620611" lon="11.580145282957492"><ele>493.25</ele><time>2026-03-29T12:38:01.995Z</time></trkpt><trkpt lat="42.702770809259945" lon="11.580002555831191"><ele>492.0</ele><time>2026-03-29T12:38:02.995Z</time></trkpt><trkpt lat="42.70282835351407" lon="11.579833995169228"><ele>494.25</ele><time>2026-03-29T12:38:03.995Z</time></trkpt><trkpt lat="42.70287173253702" lon="11.579658192506907"><ele>496.5</ele><time>2026-03-29T12:38:04.995Z</time></trkpt><trkpt lat="42.702894352672566" lon="11.579476995545312"><ele>498.75</ele><time>2026-03-29T12:38:05.995Z</time></trkpt><trkpt lat="42.7029089589616" lon="11.579314125745524"><ele>501.0</ele><time>2026-03-29T12:38:06.995Z</time></trkpt><trkpt lat="42.7029218364738" lon="11.579160287693309"><ele>501.0</ele><time>2026-03-29T12:38:07.995Z</time></trkpt><trkpt lat="42.702940292966154" lon="11.579007577109925"><ele>501.0</ele><time>2026-03-29T12:38:08.994Z</time></trkpt><trkpt lat="42.702956492199654" lon="11.578858867736344"><ele>501.0</ele><time>2026-03-29T12:38:09.994Z</time></trkpt><trkpt lat="42.702975107111925" lon="11.578707267825544"><ele>501.0</ele><time>2026-03-29T12:38:10.994Z</time></trkpt><trkpt lat="42.70300149537312" lon="11.578552058535227"><ele>501.25</ele><time>2026-03-29T12:38:11.994Z</time></trkpt><trkpt lat="42.703039190628424" lon="11.578397475406083"><ele>501.5</ele><time>2026-03-29T12:38:12.994Z</time></trkpt><trkpt lat="42.70308540227704" lon="11.578237394557705"><ele>501.75</ele><time>2026-03-29T12:38:13.994Z</time></trkpt><trkpt lat="42.703139013746" lon="11.578080440538523"><ele>502.0</ele><time>2026-03-29T12:38:14.994Z</time></trkpt><trkpt lat="42.70320952794312" lon="11.57791780312554"><ele>501.0</ele><time>2026-03-29T12:38:15.994Z</time></trkpt><trkpt lat="42.70328804813172" lon="11.577741480941196"><ele>500.0</ele><time>2026-03-29T12:38:16.994Z</time></trkpt><trkpt lat="42.703361694023165" lon="11.577562469422668"><ele>499.0</ele><time>2026-03-29T12:38:17.994Z</time></trkpt><trkpt lat="42.70344461181767" lon="11.577401853019019"><ele>498.0</ele><time>2026-03-29T12:38:18.994Z</time></trkpt><trkpt lat="42.70350747660143" lon="11.577227111400394"><ele>498.0</ele><time>2026-03-29T12:38:19.994Z</time></trkpt><trkpt lat="42.70358013713866" lon="11.577065713227068"><ele>498.0</ele><time>2026-03-29T12:38:20.994Z</time></trkpt><trkpt lat="42.703652440116144" lon="11.576922467947655"><ele>498.0</ele><time>2026-03-29T12:38:21.993Z</time></trkpt><trkpt lat="42.70372105164813" lon="11.576781507622977"><ele>498.0</ele><time>2026-03-29T12:38:22.993Z</time></trkpt><trkpt lat="42.70377029995141" lon="11.57664580980607"><ele>500.79999999999995</ele><time>2026-03-29T12:38:23.993Z</time></trkpt><trkpt lat="42.70379995107759" lon="11.576506511708617"><ele>503.59999999999997</ele><time>2026-03-29T12:38:24.993Z</time></trkpt><trkpt lat="42.70380100252346" lon="11.576380480230691"><ele>506.40000000000003</ele><time>2026-03-29T12:38:25.993Z</time></trkpt><trkpt lat="42.703772248655184" lon="11.576269820191852"><ele>509.20000000000005</ele><time>2026-03-29T12:38:26.993Z</time></trkpt><trkpt lat="42.703724940726666" lon="11.57617226914228"><ele>512.0</ele><time>2026-03-29T12:38:27.993Z</time></trkpt><trkpt lat="42.70366549423255" lon="11.576069725138664"><ele>507.75</ele><time>2026-03-29T12:38:28.993Z</time></trkpt><trkpt lat="42.703577482292495" lon="11.575965684511804"><ele>503.5</ele><time>2026-03-29T12:38:29.993Z</time></trkpt><trkpt lat="42.703497306970625" lon="11.575828753298273"><ele>499.25</ele><time>2026-03-29T12:38:30.993Z</time></trkpt><trkpt lat="42.70341940761439" lon="11.575677210807747"><ele>495.0</ele><time>2026-03-29T12:38:31.993Z</time></trkpt><trkpt lat="42.703331801375526" lon="11.575531100384032"><ele>495.0</ele><time>2026-03-29T12:38:32.993Z</time></trkpt><trkpt lat="42.70324724850332" lon="11.57540601833927"><ele>495.0</ele><time>2026-03-29T12:38:33.993Z</time></trkpt><trkpt lat="42.70316779515277" lon="11.5752794750783"><ele>495.0</ele><time>2026-03-29T12:38:34.993Z</time></trkpt><trkpt lat="42.703100115283085" lon="11.575137332459256"><ele>495.0</ele><time>2026-03-29T12:38:35.993Z</time></trkpt><trkpt lat="42.70303305764279" lon="11.574948292011078"><ele>497.0</ele><time>2026-03-29T12:38:36.993Z</time></trkpt><trkpt lat="42.702997788773416" lon="11.574750529889704"><ele>499.0</ele><time>2026-03-29T12:38:37.993Z</time></trkpt><trkpt lat="42.702942160761836" lon="11.57456321287179"><ele>501.0</ele><time>2026-03-29T12:38:38.993Z</time></trkpt><trkpt lat="42.7029178916358" lon="11.574369794955745"><ele>503.0</ele><time>2026-03-29T12:38:39.993Z</time></trkpt><trkpt lat="42.70287884434131" lon="11.57417832522198"><ele>503.3333333333333</ele><time>2026-03-29T12:38:40.993Z</time></trkpt><trkpt lat="42.70283758952822" lon="11.573976748477298"><ele>503.66666666666663</ele><time>2026-03-29T12:38:41.993Z</time></trkpt><trkpt lat="42.70278680722005" lon="11.573760456787829"><ele>504.0</ele><time>2026-03-29T12:38:42.993Z</time></trkpt><trkpt lat="42.702717380626346" lon="11.573546119410711"><ele>500.66666666666663</ele><time>2026-03-29T12:38:43.993Z</time></trkpt><trkpt lat="42.70263795839582" lon="11.573345661741547"><ele>497.3333333333333</ele><time>2026-03-29T12:38:44.993Z</time></trkpt><trkpt lat="42.702541836354136" lon="11.573155492874928"><ele>494.0</ele><time>2026-03-29T12:38:45.993Z</time></trkpt><trkpt lat="42.70243821958776" lon="11.572978903898601"><ele>495.3333333333333</ele><time>2026-03-29T12:38:46.993Z</time></trkpt><trkpt lat="42.7023149733796" lon="11.572828898821545"><ele>496.66666666666663</ele><time>2026-03-29T12:38:47.993Z</time></trkpt><trkpt lat="42.7021990141121" lon="11.572677927531608"><ele>498.0</ele><time>2026-03-29T12:38:48.992Z</time></trkpt><trkpt lat="42.702085523439465" lon="11.57253652681195"><ele>498.0</ele><time>2026-03-29T12:38:49.992Z</time></trkpt><trkpt lat="42.70197918665944" lon="11.572398865472245"><ele>498.0</ele><time>2026-03-29T12:38:50.992Z</time></trkpt><trkpt lat="42.701876485665764" lon="11.572264133897974"><ele>498.0</ele><time>2026-03-29T12:38:51.992Z</time></trkpt><trkpt lat="42.701781277596865" lon="11.572128129086996"><ele>498.0</ele><time>2026-03-29T12:38:52.992Z</time></trkpt><trkpt lat="42.701695713007005" lon="11.571986924137665"><ele>496.75</ele><time>2026-03-29T12:38:53.992Z</time></trkpt><trkpt lat="42.70161814495273" lon="11.57183347296504"><ele>495.5</ele><time>2026-03-29T12:38:54.992Z</time></trkpt><trkpt lat="42.70154721636352" lon="11.571668688431977"><ele>494.25</ele><time>2026-03-29T12:38:55.992Z</time></trkpt><trkpt lat="42.70148386675512" lon="11.571504334374898"><ele>493.0</ele><time>2026-03-29T12:38:56.992Z</time></trkpt><trkpt lat="42.70144245292084" lon="11.571341598351541"><ele>493.0</ele><time>2026-03-29T12:38:57.992Z</time></trkpt><trkpt lat="42.70137488409127" lon="11.571197701032741"><ele>493.0</ele><time>2026-03-29T12:38:58.992Z</time></trkpt><trkpt lat="42.70133255716395" lon="11.571048292749046"><ele>493.0</ele><time>2026-03-29T12:38:59.992Z</time></trkpt><trkpt lat="42.70128750275491" lon="11.57090563254575"><ele>493.0</ele><time>2026-03-29T12:39:00.992Z</time></trkpt><trkpt lat="42.701246132623204" lon="11.570769346847817"><ele>493.25</ele><time>2026-03-29T12:39:01.992Z</time></trkpt><trkpt lat="42.70119577681387" lon="11.570633453401102"><ele>493.5</ele><time>2026-03-29T12:39:02.992Z</time></trkpt><trkpt lat="42.70115191829134" lon="11.570504220176913"><ele>493.75</ele><time>2026-03-29T12:39:03.992Z</time></trkpt><trkpt lat="42.701099191640544" lon="11.57036550783282"><ele>494.0</ele><time>2026-03-29T12:39:04.992Z</time></trkpt><trkpt lat="42.70104417612685" lon="11.57022150294163"><ele>494.0</ele><time>2026-03-29T12:39:05.992Z</time></trkpt><trkpt lat="42.701013759238755" lon="11.57007103919252"><ele>494.0</ele><time>2026-03-29T12:39:06.992Z</time></trkpt><trkpt lat="42.700978304679076" lon="11.569928145254604"><ele>494.0</ele><time>2026-03-29T12:39:07.992Z</time></trkpt><trkpt lat="42.700951300451905" lon="11.56978346892017"><ele>494.0</ele><time>2026-03-29T12:39:08.992Z</time></trkpt><trkpt lat="42.70092984281947" lon="11.569649887900797"><ele>494.0</ele><time>2026-03-29T12:39:09.992Z</time></trkpt><trkpt lat="42.70092254958746" lon="11.56953347310625"><ele>494.3333333333333</ele><time>2026-03-29T12:39:10.992Z</time></trkpt><trkpt lat="42.700926766874254" lon="11.569429532374606"><ele>494.66666666666663</ele><time>2026-03-29T12:39:11.992Z</time></trkpt><trkpt lat="42.70098438939845" lon="11.569280330953974"><ele>495.0</ele><time>2026-03-29T12:39:13.992Z</time></trkpt><trkpt lat="42.701046450985686" lon="11.569180645835528"><ele>495.33333333333337</ele><time>2026-03-29T12:39:15.992Z</time></trkpt><trkpt lat="42.70108960680181" lon="11.569117522096988"><ele>495.6666666666667</ele><time>2026-03-29T12:39:16.992Z</time></trkpt><trkpt lat="42.70113982852337" lon="11.569057735853718"><ele>496.0</ele><time>2026-03-29T12:39:17.992Z</time></trkpt><trkpt lat="42.701231018551425" lon="11.568949953246715"><ele>496.28571428571433</ele><time>2026-03-29T12:39:19.992Z</time></trkpt><trkpt lat="42.7012776432625" lon="11.568881618031789"><ele>496.5714285714286</ele><time>2026-03-29T12:39:20.992Z</time></trkpt><trkpt lat="42.701324794630025" lon="11.568807602993575"><ele>496.8571428571429</ele><time>2026-03-29T12:39:21.994Z</time></trkpt><trkpt lat="42.70137856742024" lon="11.568736613605815"><ele>497.1428571428571</ele><time>2026-03-29T12:39:22.995Z</time></trkpt><trkpt lat="42.7014256522386" lon="11.568665931555303"><ele>497.4285714285714</ele><time>2026-03-29T12:39:23.995Z</time></trkpt><trkpt lat="42.70147115547822" lon="11.568590202900689"><ele>497.71428571428567</ele><time>2026-03-29T12:39:24.994Z</time></trkpt><trkpt lat="42.70150584385543" lon="11.568504785984405"><ele>498.0</ele><time>2026-03-29T12:39:25.995Z</time></trkpt><trkpt lat="42.70154853816201" lon="11.568434495432218"><ele>498.0</ele><time>2026-03-29T12:39:26.995Z</time></trkpt><trkpt lat="42.70155386230002" lon="11.56834910895058"><ele>497.99999999999994</ele><time>2026-03-29T12:39:27.994Z</time></trkpt><trkpt lat="42.70158217135471" lon="11.568184017340233"><ele>497.99999999999994</ele><time>2026-03-29T12:39:29.995Z</time></trkpt><trkpt lat="42.70158486961918" lon="11.568015784518451"><ele>498.0</ele><time>2026-03-29T12:39:31.994Z</time></trkpt><trkpt lat="42.70156658817197" lon="11.56792095449915"><ele>498.0</ele><time>2026-03-29T12:39:32.994Z</time></trkpt><trkpt lat="42.70154415488591" lon="11.567826661515827"><ele>497.8333333333333</ele><time>2026-03-29T12:39:33.995Z</time></trkpt><trkpt lat="42.70151407501622" lon="11.567729724689668"><ele>497.66666666666663</ele><time>2026-03-29T12:39:34.994Z</time></trkpt><trkpt lat="42.70146444498476" lon="11.56764931973369"><ele>497.5</ele><time>2026-03-29T12:39:35.994Z</time></trkpt><trkpt lat="42.70143984178515" lon="11.567569139473388"><ele>497.3333333333333</ele><time>2026-03-29T12:39:36.994Z</time></trkpt><trkpt lat="42.70141056384001" lon="11.567396837656588"><ele>497.16666666666663</ele><time>2026-03-29T12:39:38.994Z</time></trkpt><trkpt lat="42.701420891461645" lon="11.567278091078581"><ele>497.0</ele><time>2026-03-29T12:39:39.994Z</time></trkpt><trkpt lat="42.70145376700372" lon="11.567150828536317"><ele>496.5</ele><time>2026-03-29T12:39:40.994Z</time></trkpt><trkpt lat="42.70148572748828" lon="11.56698244729054"><ele>496.0</ele><time>2026-03-29T12:39:41.994Z</time></trkpt><trkpt lat="42.701531504496636" lon="11.56682330639916"><ele>495.5</ele><time>2026-03-29T12:39:42.994Z</time></trkpt><trkpt lat="42.701570491899055" lon="11.566665849161916"><ele>495.0</ele><time>2026-03-29T12:39:43.994Z</time></trkpt><trkpt lat="42.70158765928185" lon="11.566501677741694"><ele>495.0</ele><time>2026-03-29T12:39:44.994Z</time></trkpt><trkpt lat="42.70157325082254" lon="11.566348650206177"><ele>495.0</ele><time>2026-03-29T12:39:45.994Z</time></trkpt><trkpt lat="42.7015543941665" lon="11.566204248085699"><ele>495.0</ele><time>2026-03-29T12:39:46.994Z</time></trkpt><trkpt lat="42.701507304104844" lon="11.566068308882945"><ele>495.0</ele><time>2026-03-29T12:39:47.994Z</time></trkpt><trkpt lat="42.70144089809497" lon="11.56594094389827"><ele>495.0</ele><time>2026-03-29T12:39:48.994Z</time></trkpt><trkpt lat="42.701363635745444" lon="11.565822694290537"><ele>495.6</ele><time>2026-03-29T12:39:49.994Z</time></trkpt><trkpt lat="42.70128794335533" lon="11.565717824600293"><ele>496.2</ele><time>2026-03-29T12:39:50.994Z</time></trkpt><trkpt lat="42.7012040002448" lon="11.565608823370194"><ele>496.79999999999995</ele><time>2026-03-29T12:39:51.994Z</time></trkpt><trkpt lat="42.701118487854195" lon="11.56551313890305"><ele>497.4</ele><time>2026-03-29T12:39:52.994Z</time></trkpt><trkpt lat="42.70101676198297" lon="11.565444577946948"><ele>498.0</ele><time>2026-03-29T12:39:53.994Z</time></trkpt><trkpt lat="42.70090406242418" lon="11.565434693874176"><ele>496.79999999999995</ele><time>2026-03-29T12:39:54.994Z</time></trkpt><trkpt lat="42.70080129353659" lon="11.565409280590401"><ele>495.59999999999997</ele><time>2026-03-29T12:39:55.994Z</time></trkpt><trkpt lat="42.7007028062167" lon="11.565360229361971"><ele>494.40000000000003</ele><time>2026-03-29T12:39:56.994Z</time></trkpt><trkpt lat="42.70060949864828" lon="11.56528553928324"><ele>493.20000000000005</ele><time>2026-03-29T12:39:57.994Z</time></trkpt><trkpt lat="42.70052597296138" lon="11.56516408045406"><ele>492.0</ele><time>2026-03-29T12:39:58.994Z</time></trkpt><trkpt lat="42.70044537257497" lon="11.565087634329297"><ele>492.0</ele><time>2026-03-29T12:39:59.994Z</time></trkpt><trkpt lat="42.70040839786904" lon="11.565003915814358"><ele>492.0</ele><time>2026-03-29T12:40:00.994Z</time></trkpt><trkpt lat="42.70038226871103" lon="11.56490880318674"><ele>492.0</ele><time>2026-03-29T12:40:02.994Z</time></trkpt><trkpt lat="42.700329302958025" lon="11.56485621418409"><ele>492.0</ele><time>2026-03-29T12:40:09.993Z</time></trkpt><trkpt lat="42.70021353525217" lon="11.564829037819207"><ele>492.0</ele><time>2026-03-29T12:40:11.993Z</time></trkpt><trkpt lat="42.70013545193042" lon="11.564794885914012"><ele>492.0</ele><time>2026-03-29T12:40:12.993Z</time></trkpt><trkpt lat="42.70005140091179" lon="11.564732753625941"><ele>491.6</ele><time>2026-03-29T12:40:13.993Z</time></trkpt><trkpt lat="42.69997730200496" lon="11.564651544443098"><ele>491.20000000000005</ele><time>2026-03-29T12:40:14.993Z</time></trkpt><trkpt lat="42.699903921215515" lon="11.564560263020438"><ele>490.8</ele><time>2026-03-29T12:40:15.993Z</time></trkpt><trkpt lat="42.699833566517604" lon="11.564458444243053"><ele>490.4</ele><time>2026-03-29T12:40:16.993Z</time></trkpt><trkpt lat="42.6997635690789" lon="11.564353823014658"><ele>490.0</ele><time>2026-03-29T12:40:17.993Z</time></trkpt><trkpt lat="42.69968814665771" lon="11.564238284505231"><ele>490.75</ele><time>2026-03-29T12:40:18.993Z</time></trkpt><trkpt lat="42.69960928724549" lon="11.564120255188456"><ele>491.5</ele><time>2026-03-29T12:40:19.993Z</time></trkpt><trkpt lat="42.699525444384946" lon="11.563995589931393"><ele>492.25</ele><time>2026-03-29T12:40:20.993Z</time></trkpt><trkpt lat="42.69944120156169" lon="11.563877574423135"><ele>493.0</ele><time>2026-03-29T12:40:21.993Z</time></trkpt><trkpt lat="42.69934783990082" lon="11.563774144500385"><ele>492.5</ele><time>2026-03-29T12:40:22.993Z</time></trkpt><trkpt lat="42.69924496539853" lon="11.563694278855301"><ele>492.0</ele><time>2026-03-29T12:40:23.993Z</time></trkpt><trkpt lat="42.69913356996497" lon="11.563652234068408"><ele>491.5</ele><time>2026-03-29T12:40:24.993Z</time></trkpt><trkpt lat="42.69901944262743" lon="11.563630664090867"><ele>491.0</ele><time>2026-03-29T12:40:25.993Z</time></trkpt><trkpt lat="42.69891413986625" lon="11.56359709138695"><ele>491.0</ele><time>2026-03-29T12:40:26.993Z</time></trkpt><trkpt lat="42.698826716851705" lon="11.563542030579997"><ele>491.0</ele><time>2026-03-29T12:40:27.993Z</time></trkpt><trkpt lat="42.698774342524125" lon="11.563440390825665"><ele>491.0</ele><time>2026-03-29T12:40:28.993Z</time></trkpt><trkpt lat="42.69875201670345" lon="11.563326100662511"><ele>491.0</ele><time>2026-03-29T12:40:29.993Z</time></trkpt><trkpt lat="42.698754278517065" lon="11.563195444835824"><ele>491.0</ele><time>2026-03-29T12:40:30.993Z</time></trkpt><trkpt lat="42.698731707952284" lon="11.563060009829432"><ele>491.0</ele><time>2026-03-29T12:40:31.993Z</time></trkpt><trkpt lat="42.69866864122741" lon="11.562942204893291"><ele>491.0</ele><time>2026-03-29T12:40:32.993Z</time></trkpt><trkpt lat="42.69859726425675" lon="11.562827265407543"><ele>491.0</ele><time>2026-03-29T12:40:33.993Z</time></trkpt><trkpt lat="42.69850271723598" lon="11.562726743962697"><ele>491.0</ele><time>2026-03-29T12:40:34.993Z</time></trkpt><trkpt lat="42.69840862604452" lon="11.562625205015612"><ele>491.8</ele><time>2026-03-29T12:40:35.993Z</time></trkpt><trkpt lat="42.698326298558015" lon="11.562526801209318"><ele>492.6</ele><time>2026-03-29T12:40:36.993Z</time></trkpt><trkpt lat="42.69826176269395" lon="11.562413736153253"><ele>493.4</ele><time>2026-03-29T12:40:37.993Z</time></trkpt><trkpt lat="42.69824096987243" lon="11.562306825255805"><ele>494.2</ele><time>2026-03-29T12:40:38.993Z</time></trkpt><trkpt lat="42.698263636711616" lon="11.562207477026751"><ele>495.0</ele><time>2026-03-29T12:40:39.993Z</time></trkpt><trkpt lat="42.698314372698064" lon="11.56211484940732"><ele>495.0</ele><time>2026-03-29T12:40:40.993Z</time></trkpt><trkpt lat="42.6983749969745" lon="11.562011883068624"><ele>495.0</ele><time>2026-03-29T12:40:41.993Z</time></trkpt><trkpt lat="42.6984360798277" lon="11.561894426423182"><ele>495.0</ele><time>2026-03-29T12:40:42.993Z</time></trkpt><trkpt lat="42.69849093882441" lon="11.561783105312294"><ele>495.0</ele><time>2026-03-29T12:40:43.993Z</time></trkpt><trkpt lat="42.69853676114109" lon="11.561666390137738"><ele>495.0</ele><time>2026-03-29T12:40:44.993Z</time></trkpt><trkpt lat="42.698587954633545" lon="11.561533557330586"><ele>495.0</ele><time>2026-03-29T12:40:45.993Z</time></trkpt><trkpt lat="42.69857088921083" lon="11.561375669471271"><ele>495.0</ele><time>2026-03-29T12:40:46.993Z</time></trkpt><trkpt lat="42.698551456598864" lon="11.561226121316214"><ele>495.0</ele><time>2026-03-29T12:40:47.993Z</time></trkpt><trkpt lat="42.6985278734721" lon="11.561071385419535"><ele>495.0</ele><time>2026-03-29T12:40:48.993Z</time></trkpt><trkpt lat="42.698519491620814" lon="11.560896212364614"><ele>494.75</ele><time>2026-03-29T12:40:49.993Z</time></trkpt><trkpt lat="42.69849374635278" lon="11.560729092164975"><ele>494.5</ele><time>2026-03-29T12:40:50.993Z</time></trkpt><trkpt lat="42.69847253122607" lon="11.560560007028862"><ele>494.25</ele><time>2026-03-29T12:40:51.993Z</time></trkpt><trkpt lat="42.698441817132604" lon="11.560397596017367"><ele>494.0</ele><time>2026-03-29T12:40:52.992Z</time></trkpt><trkpt lat="42.69839247093352" lon="11.560250947891921"><ele>493.5</ele><time>2026-03-29T12:40:53.992Z</time></trkpt><trkpt lat="42.69832409086445" lon="11.560121485653733"><ele>493.0</ele><time>2026-03-29T12:40:54.992Z</time></trkpt><trkpt lat="42.698241227233275" lon="11.560014766928596"><ele>492.5</ele><time>2026-03-29T12:40:55.992Z</time></trkpt><trkpt lat="42.69814819373211" lon="11.559924244475088"><ele>492.0</ele><time>2026-03-29T12:40:56.992Z</time></trkpt><trkpt lat="42.69804752027735" lon="11.55984149840472"><ele>492.0</ele><time>2026-03-29T12:40:57.992Z</time></trkpt><trkpt lat="42.69794502399843" lon="11.559755459160082"><ele>492.0</ele><time>2026-03-29T12:40:58.992Z</time></trkpt><trkpt lat="42.697841820327625" lon="11.559667025923034"><ele>492.0</ele><time>2026-03-29T12:40:59.992Z</time></trkpt><trkpt lat="42.697736954238366" lon="11.559578373423152"><ele>492.0</ele><time>2026-03-29T12:41:00.992Z</time></trkpt><trkpt lat="42.697631498686334" lon="11.55948617608604"><ele>489.5</ele><time>2026-03-29T12:41:01.992Z</time></trkpt><trkpt lat="42.69752399205639" lon="11.559396552452972"><ele>487.0</ele><time>2026-03-29T12:41:02.992Z</time></trkpt><trkpt lat="42.697418258006024" lon="11.559318261763766"><ele>484.5</ele><time>2026-03-29T12:41:03.992Z</time></trkpt><trkpt lat="42.69730866318458" lon="11.559255194066157"><ele>482.0</ele><time>2026-03-29T12:41:04.992Z</time></trkpt><trkpt lat="42.6971971180798" lon="11.559219643755178"><ele>482.0</ele><time>2026-03-29T12:41:05.992Z</time></trkpt><trkpt lat="42.69708462960092" lon="11.559211574183042"><ele>482.0</ele><time>2026-03-29T12:41:06.992Z</time></trkpt><trkpt lat="42.6969717270573" lon="11.559220996905013"><ele>482.0</ele><time>2026-03-29T12:41:07.992Z</time></trkpt><trkpt lat="42.696851336598804" lon="11.559201431571875"><ele>482.0</ele><time>2026-03-29T12:41:08.992Z</time></trkpt><trkpt lat="42.69671740130044" lon="11.559204560294319"><ele>482.0</ele><time>2026-03-29T12:41:09.992Z</time></trkpt><trkpt lat="42.69658737838337" lon="11.559207840748337"><ele>482.0</ele><time>2026-03-29T12:41:10.992Z</time></trkpt><trkpt lat="42.6964600291078" lon="11.559212711532915"><ele>482.0</ele><time>2026-03-29T12:41:11.992Z</time></trkpt><trkpt lat="42.69633529528483" lon="11.559214541446138"><ele>482.0</ele><time>2026-03-29T12:41:12.992Z</time></trkpt><trkpt lat="42.69622289764955" lon="11.55921082314871"><ele>482.0</ele><time>2026-03-29T12:41:13.992Z</time></trkpt><trkpt lat="42.69612717844519" lon="11.559186947429959"><ele>482.00000000000006</ele><time>2026-03-29T12:41:14.992Z</time></trkpt><trkpt lat="42.6960422693427" lon="11.559121349852578"><ele>482.00000000000006</ele><time>2026-03-29T12:41:15.992Z</time></trkpt><trkpt lat="42.69597532469577" lon="11.559032908887586"><ele>482.0</ele><time>2026-03-29T12:41:16.992Z</time></trkpt><trkpt lat="42.69591428142025" lon="11.55892615382985"><ele>482.0</ele><time>2026-03-29T12:41:17.992Z</time></trkpt><trkpt lat="42.69585598226404" lon="11.558808228360766"><ele>480.0</ele><time>2026-03-29T12:41:18.992Z</time></trkpt><trkpt lat="42.69579242277998" lon="11.558681582447718"><ele>478.0</ele><time>2026-03-29T12:41:19.992Z</time></trkpt><trkpt lat="42.695725405023104" lon="11.558555394237088"><ele>476.0</ele><time>2026-03-29T12:41:20.992Z</time></trkpt><trkpt lat="42.695653995785705" lon="11.558419430863381"><ele>474.0</ele><time>2026-03-29T12:41:21.992Z</time></trkpt><trkpt lat="42.69558377358365" lon="11.558269549175828"><ele>474.0</ele><time>2026-03-29T12:41:22.992Z</time></trkpt><trkpt lat="42.695508534827574" lon="11.558119624835872"><ele>474.0</ele><time>2026-03-29T12:41:23.992Z</time></trkpt><trkpt lat="42.695429369893375" lon="11.557965495329505"><ele>474.0</ele><time>2026-03-29T12:41:24.992Z</time></trkpt><trkpt lat="42.695341514614725" lon="11.557807060225466"><ele>474.0</ele><time>2026-03-29T12:41:25.992Z</time></trkpt><trkpt lat="42.695254013310475" lon="11.557641171583287"><ele>473.25</ele><time>2026-03-29T12:41:26.992Z</time></trkpt><trkpt lat="42.69517456572773" lon="11.557484543834043"><ele>472.5</ele><time>2026-03-29T12:41:27.994Z</time></trkpt><trkpt lat="42.6950868157729" lon="11.557338721345234"><ele>471.75</ele><time>2026-03-29T12:41:28.994Z</time></trkpt><trkpt lat="42.694989726089084" lon="11.55721277014876"><ele>471.0</ele><time>2026-03-29T12:41:29.994Z</time></trkpt><trkpt lat="42.69487923066278" lon="11.557103463072991"><ele>470.75</ele><time>2026-03-29T12:41:30.994Z</time></trkpt><trkpt lat="42.6947636668267" lon="11.557014643035131"><ele>470.5</ele><time>2026-03-29T12:41:31.994Z</time></trkpt><trkpt lat="42.69464983180606" lon="11.55694392734631"><ele>470.25</ele><time>2026-03-29T12:41:32.994Z</time></trkpt><trkpt lat="42.69453712299298" lon="11.556910096048282"><ele>470.0</ele><time>2026-03-29T12:41:33.994Z</time></trkpt><trkpt lat="42.694427101821596" lon="11.556926319023319"><ele>470.75</ele><time>2026-03-29T12:41:34.994Z</time></trkpt><trkpt lat="42.69432227286407" lon="11.556979915406545"><ele>471.5</ele><time>2026-03-29T12:41:35.994Z</time></trkpt><trkpt lat="42.69421880266405" lon="11.557054694440323"><ele>472.25</ele><time>2026-03-29T12:41:36.994Z</time></trkpt><trkpt lat="42.694109829541" lon="11.557118123753902"><ele>473.0</ele><time>2026-03-29T12:41:37.995Z</time></trkpt><trkpt lat="42.69398513538235" lon="11.557138536058192"><ele>471.0</ele><time>2026-03-29T12:41:38.995Z</time></trkpt><trkpt lat="42.693844963356185" lon="11.55711480917837"><ele>469.0</ele><time>2026-03-29T12:41:39.994Z</time></trkpt><trkpt lat="42.693708970385075" lon="11.557066471162102"><ele>467.0</ele><time>2026-03-29T12:41:40.994Z</time></trkpt><trkpt lat="42.693571572800636" lon="11.557022203251757"><ele>465.0</ele><time>2026-03-29T12:41:41.994Z</time></trkpt><trkpt lat="42.693435391713194" lon="11.556977224326193"><ele>465.0</ele><time>2026-03-29T12:41:42.994Z</time></trkpt><trkpt lat="42.69331031070221" lon="11.556910874300366"><ele>465.0</ele><time>2026-03-29T12:41:43.994Z</time></trkpt><trkpt lat="42.69319266357486" lon="11.556810256408015"><ele>465.0</ele><time>2026-03-29T12:41:44.994Z</time></trkpt><trkpt lat="42.69309183640067" lon="11.55666919796277"><ele>465.0</ele><time>2026-03-29T12:41:45.993Z</time></trkpt><trkpt lat="42.693013600681745" lon="11.55649587674424"><ele>465.0</ele><time>2026-03-29T12:41:46.993Z</time></trkpt><trkpt lat="42.692948795237136" lon="11.556305664501394"><ele>465.0</ele><time>2026-03-29T12:41:47.993Z</time></trkpt><trkpt lat="42.69289119564841" lon="11.556125723585515"><ele>465.0</ele><time>2026-03-29T12:41:48.993Z</time></trkpt><trkpt lat="42.692829147985755" lon="11.555947130998213"><ele>465.0</ele><time>2026-03-29T12:41:49.993Z</time></trkpt><trkpt lat="42.69275987407981" lon="11.555785117147801"><ele>463.5</ele><time>2026-03-29T12:41:50.993Z</time></trkpt><trkpt lat="42.69267356617105" lon="11.555643439251703"><ele>462.0</ele><time>2026-03-29T12:41:51.993Z</time></trkpt><trkpt lat="42.69256505559357" lon="11.555512730604592"><ele>460.5</ele><time>2026-03-29T12:41:52.993Z</time></trkpt><trkpt lat="42.69244766347727" lon="11.555381772890549"><ele>459.0</ele><time>2026-03-29T12:41:53.993Z</time></trkpt><trkpt lat="42.69233734268159" lon="11.555262579039232"><ele>459.0</ele><time>2026-03-29T12:41:54.993Z</time></trkpt><trkpt lat="42.69222725641335" lon="11.555142752212449"><ele>459.0</ele><time>2026-03-29T12:41:55.993Z</time></trkpt><trkpt lat="42.69212485164137" lon="11.555015485343112"><ele>459.0</ele><time>2026-03-29T12:41:56.993Z</time></trkpt><trkpt lat="42.692035649233816" lon="11.554862086038272"><ele>459.0</ele><time>2026-03-29T12:41:57.993Z</time></trkpt><trkpt lat="42.69195334077275" lon="11.554694134971818"><ele>455.66666666666663</ele><time>2026-03-29T12:41:58.993Z</time></trkpt><trkpt lat="42.691875462335496" lon="11.554509654520478"><ele>452.3333333333333</ele><time>2026-03-29T12:41:59.993Z</time></trkpt><trkpt lat="42.69180147776461" lon="11.55432101767897"><ele>449.0</ele><time>2026-03-29T12:42:00.993Z</time></trkpt><trkpt lat="42.691728342860536" lon="11.554132417725208"><ele>449.0</ele><time>2026-03-29T12:42:01.993Z</time></trkpt><trkpt lat="42.69165681967099" lon="11.553939694913627"><ele>449.0</ele><time>2026-03-29T12:42:02.993Z</time></trkpt><trkpt lat="42.69158947951647" lon="11.553753833173154"><ele>449.0</ele><time>2026-03-29T12:42:03.993Z</time></trkpt><trkpt lat="42.69152188683898" lon="11.553564966390587"><ele>448.75</ele><time>2026-03-29T12:42:04.993Z</time></trkpt><trkpt lat="42.69147195722135" lon="11.553376949327369"><ele>448.5</ele><time>2026-03-29T12:42:05.993Z</time></trkpt><trkpt lat="42.69143989431106" lon="11.553179636456047"><ele>448.25</ele><time>2026-03-29T12:42:06.993Z</time></trkpt><trkpt lat="42.69142829925306" lon="11.552975205431421"><ele>448.0</ele><time>2026-03-29T12:42:07.993Z</time></trkpt><trkpt lat="42.691429834540465" lon="11.552769368146937"><ele>446.5</ele><time>2026-03-29T12:42:08.993Z</time></trkpt><trkpt lat="42.691451513247856" lon="11.552607459733096"><ele>445.0</ele><time>2026-03-29T12:42:09.993Z</time></trkpt><trkpt lat="42.69150713193986" lon="11.552469370593585"><ele>443.5</ele><time>2026-03-29T12:42:10.993Z</time></trkpt><trkpt lat="42.69158662830025" lon="11.552336567106915"><ele>442.0</ele><time>2026-03-29T12:42:11.993Z</time></trkpt><trkpt lat="42.69167228543513" lon="11.552195450628721"><ele>442.0</ele><time>2026-03-29T12:42:12.993Z</time></trkpt><trkpt lat="42.69175067355197" lon="11.552048492979534"><ele>442.0</ele><time>2026-03-29T12:42:13.993Z</time></trkpt><trkpt lat="42.69181361804497" lon="11.551914149950592"><ele>442.0</ele><time>2026-03-29T12:42:14.993Z</time></trkpt><trkpt lat="42.69184819454193" lon="11.551775400290508"><ele>442.0</ele><time>2026-03-29T12:42:15.993Z</time></trkpt><trkpt lat="42.69185142581698" lon="11.551636125976433"><ele>440.75</ele><time>2026-03-29T12:42:16.993Z</time></trkpt><trkpt lat="42.69181820800894" lon="11.551492168480882"><ele>439.5</ele><time>2026-03-29T12:42:17.993Z</time></trkpt><trkpt lat="42.69177979509791" lon="11.551336928745433"><ele>438.25</ele><time>2026-03-29T12:42:18.993Z</time></trkpt><trkpt lat="42.69171971532499" lon="11.551179517007439"><ele>437.0</ele><time>2026-03-29T12:42:19.993Z</time></trkpt><trkpt lat="42.69165438133378" lon="11.551009621449774"><ele>435.3333333333333</ele><time>2026-03-29T12:42:20.993Z</time></trkpt><trkpt lat="42.691579417881385" lon="11.550828886806428"><ele>433.66666666666663</ele><time>2026-03-29T12:42:21.993Z</time></trkpt><trkpt lat="42.69150248586811" lon="11.550639350048543"><ele>432.0</ele><time>2026-03-29T12:42:22.993Z</time></trkpt><trkpt lat="42.69142250908793" lon="11.550442887680772"><ele>432.33333333333337</ele><time>2026-03-29T12:42:23.993Z</time></trkpt><trkpt lat="42.69135338787816" lon="11.550240165706008"><ele>432.6666666666667</ele><time>2026-03-29T12:42:24.993Z</time></trkpt><trkpt lat="42.69125700611881" lon="11.550053786365243"><ele>433.0</ele><time>2026-03-29T12:42:25.993Z</time></trkpt><trkpt lat="42.69116476454586" lon="11.549869221608562"><ele>432.5</ele><time>2026-03-29T12:42:26.993Z</time></trkpt><trkpt lat="42.6910762684216" lon="11.549698786013623"><ele>432.0</ele><time>2026-03-29T12:42:27.993Z</time></trkpt><trkpt lat="42.690996595100394" lon="11.549527474305329"><ele>431.5</ele><time>2026-03-29T12:42:28.993Z</time></trkpt><trkpt lat="42.69092984899108" lon="11.549353142371157"><ele>431.0</ele><time>2026-03-29T12:42:29.993Z</time></trkpt><trkpt lat="42.690865123750676" lon="11.549176345237584"><ele>431.0</ele><time>2026-03-29T12:42:30.992Z</time></trkpt><trkpt lat="42.69080005111613" lon="11.549021271804275"><ele>431.0</ele><time>2026-03-29T12:42:31.992Z</time></trkpt><trkpt lat="42.69070808654908" lon="11.548883127272653"><ele>431.0</ele><time>2026-03-29T12:42:32.992Z</time></trkpt><trkpt lat="42.690601846749395" lon="11.548780892998705"><ele>431.0</ele><time>2026-03-29T12:42:33.992Z</time></trkpt><trkpt lat="42.69048062915796" lon="11.548704526169574"><ele>431.25</ele><time>2026-03-29T12:42:34.992Z</time></trkpt><trkpt lat="42.69035500991567" lon="11.548621350186322"><ele>431.5</ele><time>2026-03-29T12:42:35.992Z</time></trkpt><trkpt lat="42.690233106649515" lon="11.548533792486943"><ele>431.75</ele><time>2026-03-29T12:42:36.992Z</time></trkpt><trkpt lat="42.690122079305596" lon="11.548429653279243"><ele>432.0</ele><time>2026-03-29T12:42:37.992Z</time></trkpt><trkpt lat="42.69002064614952" lon="11.548311523607126"><ele>431.25</ele><time>2026-03-29T12:42:38.992Z</time></trkpt><trkpt lat="42.68992288847822" lon="11.54817475009638"><ele>430.5</ele><time>2026-03-29T12:42:39.992Z</time></trkpt><trkpt lat="42.6898259002941" lon="11.548037228762508"><ele>429.75</ele><time>2026-03-29T12:42:40.992Z</time></trkpt><trkpt lat="42.68974107650682" lon="11.54790491181742"><ele>429.0</ele><time>2026-03-29T12:42:41.992Z</time></trkpt><trkpt lat="42.68968930447339" lon="11.547757092697784"><ele>429.0</ele><time>2026-03-29T12:42:42.992Z</time></trkpt><trkpt lat="42.689661468969504" lon="11.547589945563253"><ele>429.0</ele><time>2026-03-29T12:42:43.992Z</time></trkpt><trkpt lat="42.68963045614296" lon="11.547411674704604"><ele>429.0</ele><time>2026-03-29T12:42:44.992Z</time></trkpt><trkpt lat="42.68957817424979" lon="11.547221091652705"><ele>429.0</ele><time>2026-03-29T12:42:45.992Z</time></trkpt><trkpt lat="42.68951547217413" lon="11.5470538233306"><ele>426.0</ele><time>2026-03-29T12:42:46.992Z</time></trkpt><trkpt lat="42.68941403872601" lon="11.54691095614599"><ele>423.0</ele><time>2026-03-29T12:42:47.992Z</time></trkpt><trkpt lat="42.68929854238777" lon="11.54678474534892"><ele>420.0</ele><time>2026-03-29T12:42:48.992Z</time></trkpt><trkpt lat="42.689178269023174" lon="11.54666799074235"><ele>417.0</ele><time>2026-03-29T12:42:49.992Z</time></trkpt><trkpt lat="42.689078182961" lon="11.546503339217889"><ele>417.0</ele><time>2026-03-29T12:42:50.992Z</time></trkpt><trkpt lat="42.68898310765331" lon="11.54635511815371"><ele>417.0</ele><time>2026-03-29T12:42:51.992Z</time></trkpt><trkpt lat="42.688890717867004" lon="11.5462069939454"><ele>417.0</ele><time>2026-03-29T12:42:52.992Z</time></trkpt><trkpt lat="42.68880728158748" lon="11.54607189760052"><ele>417.0</ele><time>2026-03-29T12:42:53.992Z</time></trkpt><trkpt lat="42.688715024305154" lon="11.545951810924297"><ele>416.25</ele><time>2026-03-29T12:42:54.992Z</time></trkpt><trkpt lat="42.68859027799389" lon="11.545870617995389"><ele>415.5</ele><time>2026-03-29T12:42:55.992Z</time></trkpt><trkpt lat="42.688448733268544" lon="11.5458588051782"><ele>414.75</ele><time>2026-03-29T12:42:56.992Z</time></trkpt><trkpt lat="42.688319592813585" lon="11.545864798805733"><ele>414.0</ele><time>2026-03-29T12:42:57.992Z</time></trkpt><trkpt lat="42.688187293365715" lon="11.54587519529842"><ele>414.0</ele><time>2026-03-29T12:42:58.992Z</time></trkpt><trkpt lat="42.688043533485676" lon="11.545911399630421"><ele>414.0</ele><time>2026-03-29T12:42:59.992Z</time></trkpt><trkpt lat="42.68790395935792" lon="11.546001356215367"><ele>414.0</ele><time>2026-03-29T12:43:00.992Z</time></trkpt><trkpt lat="42.6877787123179" lon="11.5461126906686"><ele>410.66666666666663</ele><time>2026-03-29T12:43:01.992Z</time></trkpt><trkpt lat="42.68765063287243" lon="11.546230101741735"><ele>407.3333333333333</ele><time>2026-03-29T12:43:02.992Z</time></trkpt><trkpt lat="42.687520662077716" lon="11.546349639312695"><ele>404.0</ele><time>2026-03-29T12:43:03.992Z</time></trkpt><trkpt lat="42.6873866195881" lon="11.546483407421494"><ele>404.0</ele><time>2026-03-29T12:43:04.992Z</time></trkpt><trkpt lat="42.68722982278566" lon="11.546588282944338"><ele>404.0</ele><time>2026-03-29T12:43:05.992Z</time></trkpt><trkpt lat="42.687068260329504" lon="11.546691754829697"><ele>404.0</ele><time>2026-03-29T12:43:06.992Z</time></trkpt><trkpt lat="42.68689987429803" lon="11.546793074465448"><ele>405.3333333333333</ele><time>2026-03-29T12:43:07.992Z</time></trkpt><trkpt lat="42.68673934693026" lon="11.546898346831409"><ele>406.66666666666663</ele><time>2026-03-29T12:43:08.992Z</time></trkpt><trkpt lat="42.68658665954516" lon="11.547004330146565"><ele>408.0</ele><time>2026-03-29T12:43:09.992Z</time></trkpt><trkpt lat="42.68644369058629" lon="11.547132266773536"><ele>405.0</ele><time>2026-03-29T12:43:10.992Z</time></trkpt><trkpt lat="42.68631682907031" lon="11.547280060884617"><ele>402.0</ele><time>2026-03-29T12:43:11.992Z</time></trkpt><trkpt lat="42.686183094628824" lon="11.5474093730659"><ele>399.0</ele><time>2026-03-29T12:43:12.992Z</time></trkpt><trkpt lat="42.68604303810773" lon="11.547507379272247"><ele>399.0</ele><time>2026-03-29T12:43:13.992Z</time></trkpt><trkpt lat="42.68588764570133" lon="11.547593836184967"><ele>399.0</ele><time>2026-03-29T12:43:14.992Z</time></trkpt><trkpt lat="42.68573708953197" lon="11.547673202664416"><ele>399.0</ele><time>2026-03-29T12:43:15.991Z</time></trkpt><trkpt lat="42.68558838200468" lon="11.547746845161162"><ele>399.0</ele><time>2026-03-29T12:43:16.991Z</time></trkpt><trkpt lat="42.685440306782354" lon="11.54781606588593"><ele>399.0</ele><time>2026-03-29T12:43:17.991Z</time></trkpt><trkpt lat="42.685306799777045" lon="11.547862561574279"><ele>399.0</ele><time>2026-03-29T12:43:18.991Z</time></trkpt><trkpt lat="42.68517146365683" lon="11.547875128782486"><ele>399.0</ele><time>2026-03-29T12:43:19.991Z</time></trkpt><trkpt lat="42.6850448682242" lon="11.547838958470011"><ele>397.75</ele><time>2026-03-29T12:43:20.991Z</time></trkpt><trkpt lat="42.684938505612955" lon="11.547761205406932"><ele>396.5</ele><time>2026-03-29T12:43:21.991Z</time></trkpt><trkpt lat="42.68483632988138" lon="11.547644398943625"><ele>395.25</ele><time>2026-03-29T12:43:22.991Z</time></trkpt><trkpt lat="42.68475040031342" lon="11.547494070119907"><ele>394.0</ele><time>2026-03-29T12:43:23.991Z</time></trkpt><trkpt lat="42.68468594851812" lon="11.547335472240038"><ele>394.0</ele><time>2026-03-29T12:43:24.991Z</time></trkpt><trkpt lat="42.684649034087904" lon="11.54715510449655"><ele>394.0</ele><time>2026-03-29T12:43:25.991Z</time></trkpt><trkpt lat="42.68464003728059" lon="11.546967093278367"><ele>394.0</ele><time>2026-03-29T12:43:26.991Z</time></trkpt><trkpt lat="42.68467998443444" lon="11.546787252355337"><ele>394.0</ele><time>2026-03-29T12:43:27.991Z</time></trkpt><trkpt lat="42.684740316142175" lon="11.546615220279309"><ele>393.0</ele><time>2026-03-29T12:43:28.991Z</time></trkpt><trkpt lat="42.68483562704573" lon="11.54647032077525"><ele>392.0</ele><time>2026-03-29T12:43:29.991Z</time></trkpt><trkpt lat="42.68493926908622" lon="11.54635344542915"><ele>391.0</ele><time>2026-03-29T12:43:30.991Z</time></trkpt><trkpt lat="42.685022016492155" lon="11.546219118375214"><ele>390.0</ele><time>2026-03-29T12:43:31.991Z</time></trkpt><trkpt lat="42.685073475293606" lon="11.546069156801751"><ele>387.25</ele><time>2026-03-29T12:43:32.991Z</time></trkpt><trkpt lat="42.68509944078303" lon="11.545908540478264"><ele>384.5</ele><time>2026-03-29T12:43:33.994Z</time></trkpt><trkpt lat="42.685126591374896" lon="11.545744983103972"><ele>381.75</ele><time>2026-03-29T12:43:34.994Z</time></trkpt><trkpt lat="42.68512405636763" lon="11.54558832110203"><ele>379.0</ele><time>2026-03-29T12:43:35.994Z</time></trkpt><trkpt lat="42.68511429894911" lon="11.545455296721713"><ele>378.79999999999995</ele><time>2026-03-29T12:43:36.994Z</time></trkpt><trkpt lat="42.685101969366315" lon="11.545313688727388"><ele>378.59999999999997</ele><time>2026-03-29T12:43:37.994Z</time></trkpt><trkpt lat="42.68508818307941" lon="11.545165915733996"><ele>378.4</ele><time>2026-03-29T12:43:38.994Z</time></trkpt><trkpt lat="42.68507130842105" lon="11.54502520149108"><ele>378.2</ele><time>2026-03-29T12:43:39.994Z</time></trkpt><trkpt lat="42.68504500934926" lon="11.544896361607009"><ele>378.0</ele><time>2026-03-29T12:43:40.994Z</time></trkpt><trkpt lat="42.685010102490445" lon="11.544774975179136"><ele>378.0</ele><time>2026-03-29T12:43:41.994Z</time></trkpt><trkpt lat="42.68496800859898" lon="11.544651739704706"><ele>378.0</ele><time>2026-03-29T12:43:42.994Z</time></trkpt><trkpt lat="42.684921081522035" lon="11.54453168692822"><ele>378.0</ele><time>2026-03-29T12:43:43.994Z</time></trkpt><trkpt lat="42.68487941417975" lon="11.544430714552098"><ele>378.0</ele><time>2026-03-29T12:43:44.994Z</time></trkpt><trkpt lat="42.68483795498524" lon="11.544339180331376"><ele>378.0</ele><time>2026-03-29T12:43:45.993Z</time></trkpt><trkpt lat="42.684797250835146" lon="11.544255311704381"><ele>378.0</ele><time>2026-03-29T12:43:46.994Z</time></trkpt><trkpt lat="42.68475042069587" lon="11.54417174237064"><ele>378.79999999999995</ele><time>2026-03-29T12:43:47.994Z</time></trkpt><trkpt lat="42.68469240626861" lon="11.544088701894143"><ele>379.6</ele><time>2026-03-29T12:43:48.994Z</time></trkpt><trkpt lat="42.68462694564373" lon="11.54401001294582"><ele>380.4</ele><time>2026-03-29T12:43:49.994Z</time></trkpt><trkpt lat="42.68454765124309" lon="11.54394766302606"><ele>381.20000000000005</ele><time>2026-03-29T12:43:50.994Z</time></trkpt><trkpt lat="42.68447328608066" lon="11.543870265067492"><ele>382.0</ele><time>2026-03-29T12:43:51.994Z</time></trkpt><trkpt lat="42.68439261010571" lon="11.54379023337037"><ele>379.20000000000005</ele><time>2026-03-29T12:43:52.994Z</time></trkpt><trkpt lat="42.68431336218498" lon="11.543706134490378"><ele>376.4</ele><time>2026-03-29T12:43:53.994Z</time></trkpt><trkpt lat="42.68423104620206" lon="11.543626068187686"><ele>373.6</ele><time>2026-03-29T12:43:54.994Z</time></trkpt><trkpt lat="42.684152033915076" lon="11.543546791705435"><ele>370.79999999999995</ele><time>2026-03-29T12:43:55.994Z</time></trkpt><trkpt lat="42.68408087394845" lon="11.543447487180279"><ele>368.0</ele><time>2026-03-29T12:43:56.994Z</time></trkpt><trkpt lat="42.68401430429656" lon="11.543365202379254"><ele>368.0</ele><time>2026-03-29T12:43:57.994Z</time></trkpt><trkpt lat="42.68396533449098" lon="11.543277563687042"><ele>368.0</ele><time>2026-03-29T12:43:58.994Z</time></trkpt><trkpt lat="42.68395164657612" lon="11.543182433271475"><ele>368.0</ele><time>2026-03-29T12:43:59.993Z</time></trkpt><trkpt lat="42.683954652704124" lon="11.543093158152832"><ele>368.0</ele><time>2026-03-29T12:44:00.993Z</time></trkpt><trkpt lat="42.683972803592674" lon="11.542989095360292"><ele>368.0</ele><time>2026-03-29T12:44:01.993Z</time></trkpt><trkpt lat="42.684047347936996" lon="11.542892225401017"><ele>368.0</ele><time>2026-03-29T12:44:02.993Z</time></trkpt><trkpt lat="42.68412317717967" lon="11.542787627707707"><ele>369.0</ele><time>2026-03-29T12:44:03.993Z</time></trkpt><trkpt lat="42.684202008210406" lon="11.54266886412508"><ele>370.0</ele><time>2026-03-29T12:44:04.993Z</time></trkpt><trkpt lat="42.68428566359869" lon="11.542557203809244"><ele>371.0</ele><time>2026-03-29T12:44:05.993Z</time></trkpt><trkpt lat="42.68436615474326" lon="11.542444771671576"><ele>372.0</ele><time>2026-03-29T12:44:06.993Z</time></trkpt><trkpt lat="42.68443890461874" lon="11.542342865543123"><ele>372.0</ele><time>2026-03-29T12:44:07.993Z</time></trkpt><trkpt lat="42.68450951924822" lon="11.542245088429375"><ele>372.0</ele><time>2026-03-29T12:44:08.993Z</time></trkpt><trkpt lat="42.68457869105656" lon="11.542155657764104"><ele>372.0</ele><time>2026-03-29T12:44:09.993Z</time></trkpt><trkpt lat="42.684646844718266" lon="11.542075657745253"><ele>372.0</ele><time>2026-03-29T12:44:10.993Z</time></trkpt><trkpt lat="42.68471831815147" lon="11.541987110694276"><ele>372.0</ele><time>2026-03-29T12:44:11.993Z</time></trkpt><trkpt lat="42.68478976502518" lon="11.541904748395895"><ele>371.20000000000005</ele><time>2026-03-29T12:44:12.993Z</time></trkpt><trkpt lat="42.6848645928049" lon="11.541818788241697"><ele>370.4</ele><time>2026-03-29T12:44:13.993Z</time></trkpt><trkpt lat="42.68494054074187" lon="11.541731674780875"><ele>369.6</ele><time>2026-03-29T12:44:14.993Z</time></trkpt><trkpt lat="42.68500512319408" lon="11.541647341103257"><ele>368.79999999999995</ele><time>2026-03-29T12:44:15.993Z</time></trkpt><trkpt lat="42.68506615152038" lon="11.541551014302845"><ele>368.0</ele><time>2026-03-29T12:44:16.993Z</time></trkpt><trkpt lat="42.68511211136094" lon="11.541444604019592"><ele>368.0</ele><time>2026-03-29T12:44:17.993Z</time></trkpt><trkpt lat="42.685152649232336" lon="11.541318041083919"><ele>368.0</ele><time>2026-03-29T12:44:18.993Z</time></trkpt><trkpt lat="42.6851970698069" lon="11.541189887124492"><ele>368.0</ele><time>2026-03-29T12:44:19.993Z</time></trkpt><trkpt lat="42.68522168648986" lon="11.541058370167459"><ele>368.0</ele><time>2026-03-29T12:44:20.993Z</time></trkpt><trkpt lat="42.685279309228726" lon="11.540942975569685"><ele>368.0</ele><time>2026-03-29T12:44:21.993Z</time></trkpt><trkpt lat="42.68534688384254" lon="11.540843405393629"><ele>368.2</ele><time>2026-03-29T12:44:22.993Z</time></trkpt><trkpt lat="42.6854391232311" lon="11.540784935774157"><ele>368.4</ele><time>2026-03-29T12:44:23.993Z</time></trkpt><trkpt lat="42.68554176820678" lon="11.54077760659899"><ele>368.59999999999997</ele><time>2026-03-29T12:44:24.993Z</time></trkpt><trkpt lat="42.68564290893286" lon="11.540745044824318"><ele>368.79999999999995</ele><time>2026-03-29T12:44:25.993Z</time></trkpt><trkpt lat="42.685755246147636" lon="11.540697092652158"><ele>369.0</ele><time>2026-03-29T12:44:26.993Z</time></trkpt><trkpt lat="42.68586238183884" lon="11.540625118139616"><ele>369.0</ele><time>2026-03-29T12:44:27.993Z</time></trkpt><trkpt lat="42.68595046125554" lon="11.54049334777194"><ele>369.0</ele><time>2026-03-29T12:44:28.993Z</time></trkpt><trkpt lat="42.686037954941774" lon="11.540371593780463"><ele>369.0</ele><time>2026-03-29T12:44:29.993Z</time></trkpt><trkpt lat="42.68613864891913" lon="11.540256361966351"><ele>369.0</ele><time>2026-03-29T12:44:30.993Z</time></trkpt><trkpt lat="42.68622661653374" lon="11.540141607567806"><ele>368.75</ele><time>2026-03-29T12:44:31.993Z</time></trkpt><trkpt lat="42.68631624542697" lon="11.540029473007095"><ele>368.5</ele><time>2026-03-29T12:44:32.993Z</time></trkpt><trkpt lat="42.68640125216241" lon="11.539919382699594"><ele>368.25</ele><time>2026-03-29T12:44:33.993Z</time></trkpt><trkpt lat="42.68648224353616" lon="11.539807536004002"><ele>368.0</ele><time>2026-03-29T12:44:34.993Z</time></trkpt><trkpt lat="42.686564596075" lon="11.539690774730605"><ele>368.0</ele><time>2026-03-29T12:44:35.993Z</time></trkpt><trkpt lat="42.6866354527521" lon="11.53957263070313"><ele>368.0</ele><time>2026-03-29T12:44:36.993Z</time></trkpt><trkpt lat="42.686705219103835" lon="11.539455895696136"><ele>368.0</ele><time>2026-03-29T12:44:37.993Z</time></trkpt><trkpt lat="42.68677520637646" lon="11.539335544944157"><ele>368.0</ele><time>2026-03-29T12:44:38.993Z</time></trkpt><trkpt lat="42.686844093231684" lon="11.539218351251272"><ele>368.0</ele><time>2026-03-29T12:44:39.993Z</time></trkpt><trkpt lat="42.68691679157496" lon="11.539101370019143"><ele>367.5</ele><time>2026-03-29T12:44:40.993Z</time></trkpt><trkpt lat="42.68698785330807" lon="11.538980487470731"><ele>367.0</ele><time>2026-03-29T12:44:41.993Z</time></trkpt><trkpt lat="42.68705583471748" lon="11.538855711755922"><ele>366.5</ele><time>2026-03-29T12:44:42.993Z</time></trkpt><trkpt lat="42.68711042500475" lon="11.538721236268152"><ele>366.0</ele><time>2026-03-29T12:44:43.993Z</time></trkpt><trkpt lat="42.68716091312622" lon="11.53858300822857"><ele>362.75</ele><time>2026-03-29T12:44:44.992Z</time></trkpt><trkpt lat="42.687208505912324" lon="11.538441784577845"><ele>359.5</ele><time>2026-03-29T12:44:45.992Z</time></trkpt><trkpt lat="42.687263880936015" lon="11.538313870025634"><ele>356.25</ele><time>2026-03-29T12:44:46.992Z</time></trkpt><trkpt lat="42.68733881262447" lon="11.53819956245716"><ele>353.0</ele><time>2026-03-29T12:44:47.992Z</time></trkpt><trkpt lat="42.687429858673326" lon="11.538096879200749"><ele>353.0</ele><time>2026-03-29T12:44:48.992Z</time></trkpt><trkpt lat="42.68753023303767" lon="11.538015132718266"><ele>353.0</ele><time>2026-03-29T12:44:49.992Z</time></trkpt><trkpt lat="42.68764261379452" lon="11.53795222372561"><ele>353.0</ele><time>2026-03-29T12:44:50.992Z</time></trkpt><trkpt lat="42.68776256312083" lon="11.537929843595032"><ele>353.0</ele><time>2026-03-29T12:44:51.992Z</time></trkpt><trkpt lat="42.68788613874074" lon="11.537938781824474"><ele>354.25</ele><time>2026-03-29T12:44:52.992Z</time></trkpt><trkpt lat="42.6880159917439" lon="11.537970376890824"><ele>355.5</ele><time>2026-03-29T12:44:53.992Z</time></trkpt><trkpt lat="42.68813436882235" lon="11.537995788175936"><ele>356.75</ele><time>2026-03-29T12:44:54.992Z</time></trkpt><trkpt lat="42.688259106616385" lon="11.538009592715586"><ele>358.0</ele><time>2026-03-29T12:44:55.992Z</time></trkpt><trkpt lat="42.68837988241601" lon="11.538014804087402"><ele>358.0</ele><time>2026-03-29T12:44:56.992Z</time></trkpt><trkpt lat="42.68847936608345" lon="11.5380109144187"><ele>358.0</ele><time>2026-03-29T12:44:57.992Z</time></trkpt><trkpt lat="42.68855824792105" lon="11.537982670812916"><ele>358.0</ele><time>2026-03-29T12:44:58.992Z</time></trkpt><trkpt lat="42.68862982402309" lon="11.53793795037571"><ele>358.0</ele><time>2026-03-29T12:44:59.992Z</time></trkpt><trkpt lat="42.68864678655658" lon="11.537823164294206"><ele>358.0</ele><time>2026-03-29T12:45:00.992Z</time></trkpt><trkpt lat="42.6885907293348" lon="11.537729199553347"><ele>358.0</ele><time>2026-03-29T12:45:01.992Z</time></trkpt><trkpt lat="42.68852507419476" lon="11.537663722742076"><ele>354.59999999999997</ele><time>2026-03-29T12:45:02.992Z</time></trkpt><trkpt lat="42.68845121297805" lon="11.537587592340136"><ele>351.2</ele><time>2026-03-29T12:45:03.992Z</time></trkpt><trkpt lat="42.688368598081325" lon="11.537493594732156"><ele>347.8</ele><time>2026-03-29T12:45:04.992Z</time></trkpt><trkpt lat="42.68827354802463" lon="11.537412211467194"><ele>344.4</ele><time>2026-03-29T12:45:05.992Z</time></trkpt><trkpt lat="42.688176854969115" lon="11.537319817162226"><ele>341.0</ele><time>2026-03-29T12:45:06.992Z</time></trkpt><trkpt lat="42.68807107025469" lon="11.537226496473638"><ele>341.0</ele><time>2026-03-29T12:45:07.992Z</time></trkpt><trkpt lat="42.68796156759881" lon="11.537123178500018"><ele>341.0</ele><time>2026-03-29T12:45:08.992Z</time></trkpt><trkpt lat="42.687847445576125" lon="11.537012796979589"><ele>341.0</ele><time>2026-03-29T12:45:09.992Z</time></trkpt><trkpt lat="42.687734704431996" lon="11.536912825742524"><ele>341.0</ele><time>2026-03-29T12:45:10.992Z</time></trkpt><trkpt lat="42.68761809669428" lon="11.53682575679028"><ele>339.0</ele><time>2026-03-29T12:45:11.992Z</time></trkpt><trkpt lat="42.68749194825035" lon="11.53675985584126"><ele>337.0</ele><time>2026-03-29T12:45:12.992Z</time></trkpt><trkpt lat="42.687358608298744" lon="11.536717280352725"><ele>335.0</ele><time>2026-03-29T12:45:13.992Z</time></trkpt><trkpt lat="42.687221229568145" lon="11.536689883623712"><ele>333.0</ele><time>2026-03-29T12:45:14.992Z</time></trkpt><trkpt lat="42.68708605892039" lon="11.5366758954175"><ele>333.0</ele><time>2026-03-29T12:45:15.992Z</time></trkpt><trkpt lat="42.686950518116284" lon="11.536654907250556"><ele>333.0</ele><time>2026-03-29T12:45:16.992Z</time></trkpt><trkpt lat="42.68681601583406" lon="11.536632706484996"><ele>333.0</ele><time>2026-03-29T12:45:17.992Z</time></trkpt><trkpt lat="42.68668130154456" lon="11.536608978698345"><ele>333.0</ele><time>2026-03-29T12:45:18.992Z</time></trkpt><trkpt lat="42.68655315972014" lon="11.536588266682918"><ele>332.75</ele><time>2026-03-29T12:45:19.992Z</time></trkpt><trkpt lat="42.686423782757174" lon="11.536581236337655"><ele>332.5</ele><time>2026-03-29T12:45:20.992Z</time></trkpt><trkpt lat="42.68629711484989" lon="11.5365927518724"><ele>332.25</ele><time>2026-03-29T12:45:21.992Z</time></trkpt><trkpt lat="42.68616940866479" lon="11.536622517252619"><ele>332.0</ele><time>2026-03-29T12:45:22.992Z</time></trkpt><trkpt lat="42.686039175502316" lon="11.536668492995332"><ele>330.0</ele><time>2026-03-29T12:45:23.992Z</time></trkpt><trkpt lat="42.685909675152764" lon="11.53672287075566"><ele>328.0</ele><time>2026-03-29T12:45:24.992Z</time></trkpt><trkpt lat="42.68578466830963" lon="11.536784652293298"><ele>326.0</ele><time>2026-03-29T12:45:25.992Z</time></trkpt><trkpt lat="42.68566391868034" lon="11.536856530506748"><ele>324.0</ele><time>2026-03-29T12:45:26.992Z</time></trkpt><trkpt lat="42.68555109787463" lon="11.536936035001794"><ele>324.0</ele><time>2026-03-29T12:45:27.992Z</time></trkpt><trkpt lat="42.685429454899385" lon="11.53701909274015"><ele>324.0</ele><time>2026-03-29T12:45:28.992Z</time></trkpt><trkpt lat="42.685309336516156" lon="11.537087726462897"><ele>324.0</ele><time>2026-03-29T12:45:29.991Z</time></trkpt><trkpt lat="42.685180031320655" lon="11.537136404112461"><ele>324.0</ele><time>2026-03-29T12:45:30.991Z</time></trkpt><trkpt lat="42.68503818666217" lon="11.537173000837264"><ele>324.25</ele><time>2026-03-29T12:45:31.991Z</time></trkpt><trkpt lat="42.68489572655761" lon="11.53720706266241"><ele>324.5</ele><time>2026-03-29T12:45:32.991Z</time></trkpt><trkpt lat="42.68475116960251" lon="11.537237164986758"><ele>324.75</ele><time>2026-03-29T12:45:33.991Z</time></trkpt><trkpt lat="42.684610851457954" lon="11.537266753560308"><ele>325.0</ele><time>2026-03-29T12:45:34.991Z</time></trkpt><trkpt lat="42.684475794482864" lon="11.537295814722116"><ele>323.25</ele><time>2026-03-29T12:45:35.991Z</time></trkpt><trkpt lat="42.68434755109776" lon="11.537331232723629"><ele>321.5</ele><time>2026-03-29T12:45:36.991Z</time></trkpt><trkpt lat="42.68423080799869" lon="11.53737605773842"><ele>319.75</ele><time>2026-03-29T12:45:37.991Z</time></trkpt><trkpt lat="42.684110737477404" lon="11.53742405367943"><ele>318.0</ele><time>2026-03-29T12:45:38.991Z</time></trkpt><trkpt lat="42.68400681115096" lon="11.53743347145098"><ele>318.0</ele><time>2026-03-29T12:45:39.994Z</time></trkpt><trkpt lat="42.683906892005865" lon="11.53740497603994"><ele>318.0</ele><time>2026-03-29T12:45:40.993Z</time></trkpt><trkpt lat="42.683823807270535" lon="11.537319577421913"><ele>318.0</ele><time>2026-03-29T12:45:41.993Z</time></trkpt><trkpt lat="42.68376147903896" lon="11.537212946321121"><ele>318.0</ele><time>2026-03-29T12:45:42.993Z</time></trkpt><trkpt lat="42.68372569390685" lon="11.537071631246665"><ele>318.0</ele><time>2026-03-29T12:45:43.994Z</time></trkpt><trkpt lat="42.683700786116944" lon="11.536921483325003"><ele>316.0</ele><time>2026-03-29T12:45:44.994Z</time></trkpt><trkpt lat="42.683686995889126" lon="11.53677037271309"><ele>314.0</ele><time>2026-03-29T12:45:45.993Z</time></trkpt><trkpt lat="42.68369887505202" lon="11.53661957251913"><ele>312.0</ele><time>2026-03-29T12:45:46.993Z</time></trkpt><trkpt lat="42.68375080940605" lon="11.536478858337604"><ele>310.0</ele><time>2026-03-29T12:45:47.993Z</time></trkpt><trkpt lat="42.68377740202764" lon="11.536325964843076"><ele>308.75</ele><time>2026-03-29T12:45:48.993Z</time></trkpt><trkpt lat="42.68375669575114" lon="11.536167109259944"><ele>307.5</ele><time>2026-03-29T12:45:49.993Z</time></trkpt><trkpt lat="42.683743992962526" lon="11.536010971440238"><ele>306.25</ele><time>2026-03-29T12:45:50.993Z</time></trkpt><trkpt lat="42.683718761207516" lon="11.535845762625081"><ele>305.0</ele><time>2026-03-29T12:45:51.993Z</time></trkpt><trkpt lat="42.68370385083212" lon="11.53568345783147"><ele>305.0</ele><time>2026-03-29T12:45:52.993Z</time></trkpt><trkpt lat="42.6836932696793" lon="11.535518947887548"><ele>305.0</ele><time>2026-03-29T12:45:53.993Z</time></trkpt><trkpt lat="42.683671432524484" lon="11.535352652739581"><ele>305.0</ele><time>2026-03-29T12:45:54.993Z</time></trkpt><trkpt lat="42.68363791636043" lon="11.535177587724409"><ele>305.0</ele><time>2026-03-29T12:45:55.993Z</time></trkpt><trkpt lat="42.68359175351895" lon="11.53500271037762"><ele>306.25</ele><time>2026-03-29T12:45:56.993Z</time></trkpt><trkpt lat="42.68354358850706" lon="11.534832771813404"><ele>307.5</ele><time>2026-03-29T12:45:57.993Z</time></trkpt><trkpt lat="42.68350006683343" lon="11.534663184832475"><ele>308.75</ele><time>2026-03-29T12:45:58.993Z</time></trkpt><trkpt lat="42.68345424656187" lon="11.534493794025627"><ele>310.0</ele><time>2026-03-29T12:45:59.993Z</time></trkpt><trkpt lat="42.68341349364719" lon="11.534329755523824"><ele>307.25</ele><time>2026-03-29T12:46:00.993Z</time></trkpt><trkpt lat="42.68333110661395" lon="11.53418730065257"><ele>304.5</ele><time>2026-03-29T12:46:01.993Z</time></trkpt><trkpt lat="42.68321674559205" lon="11.534094051429632"><ele>301.75</ele><time>2026-03-29T12:46:02.992Z</time></trkpt><trkpt lat="42.68311966355298" lon="11.533989354839992"><ele>299.0</ele><time>2026-03-29T12:46:03.992Z</time></trkpt><trkpt lat="42.682992093431395" lon="11.53394757640737"><ele>299.0</ele><time>2026-03-29T12:46:04.992Z</time></trkpt><trkpt lat="42.68287486509872" lon="11.533874043256782"><ele>299.0</ele><time>2026-03-29T12:46:05.992Z</time></trkpt><trkpt lat="42.682777540908994" lon="11.533846936196012"><ele>299.0</ele><time>2026-03-29T12:46:06.992Z</time></trkpt><trkpt lat="42.6827066401985" lon="11.533769940802717"><ele>299.0</ele><time>2026-03-29T12:46:07.992Z</time></trkpt><trkpt lat="42.68267867547422" lon="11.533665208686545"><ele>299.0</ele><time>2026-03-29T12:46:08.992Z</time></trkpt><trkpt lat="42.68268479983229" lon="11.53355434754517"><ele>298.4</ele><time>2026-03-29T12:46:09.992Z</time></trkpt><trkpt lat="42.68273409457703" lon="11.533435848462716"><ele>297.79999999999995</ele><time>2026-03-29T12:46:10.992Z</time></trkpt><trkpt lat="42.68277780550263" lon="11.533295288941039"><ele>297.20000000000005</ele><time>2026-03-29T12:46:11.992Z</time></trkpt><trkpt lat="42.68280257956992" lon="11.533155652936612"><ele>296.6</ele><time>2026-03-29T12:46:12.992Z</time></trkpt><trkpt lat="42.68279802986926" lon="11.533014529494384"><ele>296.0</ele><time>2026-03-29T12:46:13.992Z</time></trkpt><trkpt lat="42.68276223004316" lon="11.532875224470406"><ele>294.0</ele><time>2026-03-29T12:46:14.992Z</time></trkpt><trkpt lat="42.68269745467248" lon="11.532758292234282"><ele>292.0</ele><time>2026-03-29T12:46:15.992Z</time></trkpt><trkpt lat="42.682606736006186" lon="11.532661721255547"><ele>290.0</ele><time>2026-03-29T12:46:16.992Z</time></trkpt><trkpt lat="42.682503885087776" lon="11.532586272846817"><ele>288.0</ele><time>2026-03-29T12:46:17.992Z</time></trkpt><trkpt lat="42.682401346255766" lon="11.532497746322303"><ele>288.0</ele><time>2026-03-29T12:46:18.992Z</time></trkpt><trkpt lat="42.68229932821248" lon="11.53242508123597"><ele>288.0</ele><time>2026-03-29T12:46:19.992Z</time></trkpt><trkpt lat="42.682201477782996" lon="11.53235398450033"><ele>288.0</ele><time>2026-03-29T12:46:20.992Z</time></trkpt><trkpt lat="42.682153241848994" lon="11.532254210670065"><ele>288.0</ele><time>2026-03-29T12:46:21.992Z</time></trkpt><trkpt lat="42.682154139084865" lon="11.532141135664274"><ele>288.0</ele><time>2026-03-29T12:46:22.992Z</time></trkpt><trkpt lat="42.68218156195718" lon="11.532024260052818"><ele>286.0</ele><time>2026-03-29T12:46:23.992Z</time></trkpt><trkpt lat="42.68220823833514" lon="11.531891481899963"><ele>284.0</ele><time>2026-03-29T12:46:24.992Z</time></trkpt><trkpt lat="42.68224511482863" lon="11.531741356942778"><ele>282.0</ele><time>2026-03-29T12:46:25.992Z</time></trkpt><trkpt lat="42.682276170074026" lon="11.531590986358921"><ele>280.0</ele><time>2026-03-29T12:46:26.992Z</time></trkpt><trkpt lat="42.68229878937872" lon="11.531444493263793"><ele>278.0</ele><time>2026-03-29T12:46:27.992Z</time></trkpt><trkpt lat="42.68230506129172" lon="11.53129448638824"><ele>277.0</ele><time>2026-03-29T12:46:28.992Z</time></trkpt><trkpt lat="42.68227762793465" lon="11.531138358199312"><ele>276.0</ele><time>2026-03-29T12:46:29.992Z</time></trkpt><trkpt lat="42.68222223608154" lon="11.530994367519044"><ele>275.0</ele><time>2026-03-29T12:46:30.992Z</time></trkpt><trkpt lat="42.68214691644137" lon="11.530851030861403"><ele>274.0</ele><time>2026-03-29T12:46:31.992Z</time></trkpt><trkpt lat="42.682036449755174" lon="11.530772469740448"><ele>274.0</ele><time>2026-03-29T12:46:32.992Z</time></trkpt><trkpt lat="42.68193227958162" lon="11.530694192042453"><ele>274.0</ele><time>2026-03-29T12:46:33.992Z</time></trkpt><trkpt lat="42.68184294494483" lon="11.53060852139218"><ele>274.0</ele><time>2026-03-29T12:46:34.992Z</time></trkpt><trkpt lat="42.68179180539976" lon="11.5305047459999"><ele>274.0</ele><time>2026-03-29T12:46:35.992Z</time></trkpt><trkpt lat="42.681799508750665" lon="11.530409971498827"><ele>274.0</ele><time>2026-03-29T12:46:36.992Z</time></trkpt><trkpt lat="42.681841806880634" lon="11.530245589859229"><ele>274.59999999999997</ele><time>2026-03-29T12:46:38.992Z</time></trkpt><trkpt lat="42.681874138403295" lon="11.530143069543104"><ele>275.2</ele><time>2026-03-29T12:46:39.992Z</time></trkpt><trkpt lat="42.68191398570591" lon="11.530021190543895"><ele>275.79999999999995</ele><time>2026-03-29T12:46:40.992Z</time></trkpt><trkpt lat="42.68194286695822" lon="11.52988600449774"><ele>276.4</ele><time>2026-03-29T12:46:41.992Z</time></trkpt><trkpt lat="42.68198385470781" lon="11.529741520201478"><ele>277.0</ele><time>2026-03-29T12:46:42.992Z</time></trkpt><trkpt lat="42.68198548853637" lon="11.52957832608694"><ele>275.25</ele><time>2026-03-29T12:46:43.992Z</time></trkpt><trkpt lat="42.68195481929874" lon="11.529398541572219"><ele>273.5</ele><time>2026-03-29T12:46:44.992Z</time></trkpt><trkpt lat="42.68188634237167" lon="11.529225140930762"><ele>271.75</ele><time>2026-03-29T12:46:45.992Z</time></trkpt><trkpt lat="42.68179750231555" lon="11.529071933615334"><ele>270.0</ele><time>2026-03-29T12:46:46.992Z</time></trkpt><trkpt lat="42.681698412139596" lon="11.528911022750838"><ele>270.0</ele><time>2026-03-29T12:46:47.991Z</time></trkpt><trkpt lat="42.68158224898184" lon="11.528749468590162"><ele>270.0</ele><time>2026-03-29T12:46:48.991Z</time></trkpt><trkpt lat="42.681454854932774" lon="11.528600937087388"><ele>270.0</ele><time>2026-03-29T12:46:49.991Z</time></trkpt><trkpt lat="42.68132650863578" lon="11.52846636496963"><ele>267.3333333333333</ele><time>2026-03-29T12:46:50.991Z</time></trkpt><trkpt lat="42.68119772224113" lon="11.528336303245391"><ele>264.66666666666663</ele><time>2026-03-29T12:46:51.991Z</time></trkpt><trkpt lat="42.6810655450647" lon="11.528216769077712"><ele>262.0</ele><time>2026-03-29T12:46:52.991Z</time></trkpt><trkpt lat="42.6809268465361" lon="11.528126373645726"><ele>262.0</ele><time>2026-03-29T12:46:53.991Z</time></trkpt><trkpt lat="42.68077442744219" lon="11.52808407798311"><ele>262.0</ele><time>2026-03-29T12:46:54.991Z</time></trkpt><trkpt lat="42.68062604802355" lon="11.528124077226588"><ele>262.0</ele><time>2026-03-29T12:46:55.991Z</time></trkpt><trkpt lat="42.6804870076456" lon="11.528176989305585"><ele>262.0</ele><time>2026-03-29T12:46:56.991Z</time></trkpt><trkpt lat="42.68035556649915" lon="11.52825092389816"><ele>262.0</ele><time>2026-03-29T12:46:57.991Z</time></trkpt><trkpt lat="42.68022381336261" lon="11.528327340962868"><ele>262.0</ele><time>2026-03-29T12:46:58.991Z</time></trkpt><trkpt lat="42.680086974009406" lon="11.528408087096585"><ele>262.0</ele><time>2026-03-29T12:46:59.991Z</time></trkpt><trkpt lat="42.67996131104627" lon="11.528491763707596"><ele>260.25</ele><time>2026-03-29T12:47:00.991Z</time></trkpt><trkpt lat="42.6798295721786" lon="11.528573264348974"><ele>258.5</ele><time>2026-03-29T12:47:01.991Z</time></trkpt><trkpt lat="42.67969841749628" lon="11.528642917510538"><ele>256.75</ele><time>2026-03-29T12:47:02.99Z</time></trkpt><trkpt lat="42.67956392128778" lon="11.528679734309396"><ele>255.0</ele><time>2026-03-29T12:47:03.99Z</time></trkpt><trkpt lat="42.67943135576481" lon="11.528674383533565"><ele>255.25</ele><time>2026-03-29T12:47:04.99Z</time></trkpt><trkpt lat="42.6792989511798" lon="11.528651228736138"><ele>255.5</ele><time>2026-03-29T12:47:05.99Z</time></trkpt><trkpt lat="42.67916986543798" lon="11.528658648982852"><ele>255.75</ele><time>2026-03-29T12:47:06.99Z</time></trkpt><trkpt lat="42.67905290216414" lon="11.52871231400157"><ele>256.0</ele><time>2026-03-29T12:47:07.99Z</time></trkpt><trkpt lat="42.678952376264036" lon="11.528797021862133"><ele>256.0</ele><time>2026-03-29T12:47:08.99Z</time></trkpt><trkpt lat="42.678856031483626" lon="11.528901029396497"><ele>256.0</ele><time>2026-03-29T12:47:09.99Z</time></trkpt><trkpt lat="42.6787616149526" lon="11.529009780148103"><ele>256.0</ele><time>2026-03-29T12:47:10.99Z</time></trkpt><trkpt lat="42.678662265322494" lon="11.529074796426901"><ele>256.0</ele><time>2026-03-29T12:47:11.99Z</time></trkpt><trkpt lat="42.678560950369246" lon="11.52909053159125"><ele>255.20000000000002</ele><time>2026-03-29T12:47:12.99Z</time></trkpt><trkpt lat="42.678474226810714" lon="11.529033926462017"><ele>254.40000000000003</ele><time>2026-03-29T12:47:13.99Z</time></trkpt><trkpt lat="42.67840315378127" lon="11.528934126068293"><ele>253.6</ele><time>2026-03-29T12:47:14.99Z</time></trkpt><trkpt lat="42.67834755623885" lon="11.528804027168023"><ele>252.8</ele><time>2026-03-29T12:47:15.99Z</time></trkpt><trkpt lat="42.678306769501255" lon="11.528654621660461"><ele>252.0</ele><time>2026-03-29T12:47:16.99Z</time></trkpt><trkpt lat="42.67827152377846" lon="11.528490049812653"><ele>250.25</ele><time>2026-03-29T12:47:17.99Z</time></trkpt><trkpt lat="42.67823435435008" lon="11.528319168667533"><ele>248.5</ele><time>2026-03-29T12:47:18.99Z</time></trkpt><trkpt lat="42.678199818438934" lon="11.528134615869249"><ele>246.75</ele><time>2026-03-29T12:47:19.99Z</time></trkpt><trkpt lat="42.67817273109513" lon="11.527943596443956"><ele>245.0</ele><time>2026-03-29T12:47:20.99Z</time></trkpt><trkpt lat="42.67815310236755" lon="11.527742623624098"><ele>243.66666666666669</ele><time>2026-03-29T12:47:21.99Z</time></trkpt><trkpt lat="42.67814249603437" lon="11.527534063982737"><ele>242.33333333333331</ele><time>2026-03-29T12:47:22.99Z</time></trkpt><trkpt lat="42.678128349275035" lon="11.527324586689016"><ele>241.0</ele><time>2026-03-29T12:47:23.99Z</time></trkpt><trkpt lat="42.67809421779319" lon="11.527111171236736"><ele>239.33333333333331</ele><time>2026-03-29T12:47:24.99Z</time></trkpt><trkpt lat="42.67806217995484" lon="11.526904174873058"><ele>237.66666666666669</ele><time>2026-03-29T12:47:25.99Z</time></trkpt><trkpt lat="42.6780324275698" lon="11.52669657641421"><ele>236.0</ele><time>2026-03-29T12:47:26.99Z</time></trkpt><trkpt lat="42.67800436255882" lon="11.526509675926244"><ele>236.0</ele><time>2026-03-29T12:47:27.99Z</time></trkpt><trkpt lat="42.67798764719109" lon="11.526353935524336"><ele>236.00000000000003</ele><time>2026-03-29T12:47:28.99Z</time></trkpt><trkpt lat="42.67792467700109" lon="11.526226076039588"><ele>236.00000000000003</ele><time>2026-03-29T12:47:29.99Z</time></trkpt><trkpt lat="42.677849807306366" lon="11.526119565141967"><ele>236.0</ele><time>2026-03-29T12:47:30.99Z</time></trkpt><trkpt lat="42.67775254521893" lon="11.526059049171304"><ele>236.0</ele><time>2026-03-29T12:47:31.989Z</time></trkpt><trkpt lat="42.67764196460619" lon="11.52602763351071"><ele>234.0</ele><time>2026-03-29T12:47:32.989Z</time></trkpt><trkpt lat="42.67752176816713" lon="11.526028594473074"><ele>232.0</ele><time>2026-03-29T12:47:33.989Z</time></trkpt><trkpt lat="42.67740699200806" lon="11.526058338662667"><ele>230.0</ele><time>2026-03-29T12:47:34.989Z</time></trkpt><trkpt lat="42.67729417110824" lon="11.526104801091028"><ele>228.0</ele><time>2026-03-29T12:47:35.989Z</time></trkpt><trkpt lat="42.67717531264392" lon="11.52613153412244"><ele>228.0</ele><time>2026-03-29T12:47:36.989Z</time></trkpt><trkpt lat="42.67706482113634" lon="11.52612899064186"><ele>228.0</ele><time>2026-03-29T12:47:37.989Z</time></trkpt><trkpt lat="42.676955314694375" lon="11.526085221100692"><ele>228.0</ele><time>2026-03-29T12:47:38.989Z</time></trkpt><trkpt lat="42.67686793078358" lon="11.525994550621034"><ele>228.0</ele><time>2026-03-29T12:47:39.989Z</time></trkpt><trkpt lat="42.676798078674686" lon="11.525878132759637"><ele>228.0</ele><time>2026-03-29T12:47:40.989Z</time></trkpt><trkpt lat="42.67671239530217" lon="11.525756303425178"><ele>227.75</ele><time>2026-03-29T12:47:41.989Z</time></trkpt><trkpt lat="42.67661139941288" lon="11.525653806013558"><ele>227.5</ele><time>2026-03-29T12:47:42.989Z</time></trkpt><trkpt lat="42.67650051884978" lon="11.525570288646922"><ele>227.25</ele><time>2026-03-29T12:47:43.989Z</time></trkpt><trkpt lat="42.67638281403188" lon="11.525516273044992"><ele>227.0</ele><time>2026-03-29T12:47:44.989Z</time></trkpt><trkpt lat="42.67625590923128" lon="11.525478017020928"><ele>227.0</ele><time>2026-03-29T12:47:45.992Z</time></trkpt><trkpt lat="42.676120615023464" lon="11.525481293726504"><ele>227.0</ele><time>2026-03-29T12:47:46.992Z</time></trkpt><trkpt lat="42.67598452696162" lon="11.52552029926492"><ele>227.0</ele><time>2026-03-29T12:47:47.992Z</time></trkpt><trkpt lat="42.675858124452944" lon="11.525584634417903"><ele>227.0</ele><time>2026-03-29T12:47:48.991Z</time></trkpt><trkpt lat="42.67573385676529" lon="11.52564642156375"><ele>226.25</ele><time>2026-03-29T12:47:49.992Z</time></trkpt><trkpt lat="42.67561469034243" lon="11.525660984627667"><ele>225.5</ele><time>2026-03-29T12:47:50.992Z</time></trkpt><trkpt lat="42.67550211813588" lon="11.525612831988267"><ele>224.75</ele><time>2026-03-29T12:47:51.991Z</time></trkpt><trkpt lat="42.67540689565339" lon="11.525525123683803"><ele>224.0</ele><time>2026-03-29T12:47:52.991Z</time></trkpt><trkpt lat="42.67531449872752" lon="11.525414650736568"><ele>221.0</ele><time>2026-03-29T12:47:53.991Z</time></trkpt><trkpt lat="42.67520227895055" lon="11.52531614839726"><ele>218.0</ele><time>2026-03-29T12:47:54.992Z</time></trkpt><trkpt lat="42.67507532533086" lon="11.525232600455862"><ele>215.0</ele><time>2026-03-29T12:47:55.992Z</time></trkpt><trkpt lat="42.67493630957191" lon="11.525166325522546"><ele>212.0</ele><time>2026-03-29T12:47:56.992Z</time></trkpt><trkpt lat="42.67479093670808" lon="11.525101448930295"><ele>212.0</ele><time>2026-03-29T12:47:57.991Z</time></trkpt><trkpt lat="42.67464231253091" lon="11.5250390073421"><ele>212.0</ele><time>2026-03-29T12:47:58.991Z</time></trkpt><trkpt lat="42.67448777870503" lon="11.524976706532552"><ele>212.0</ele><time>2026-03-29T12:47:59.991Z</time></trkpt><trkpt lat="42.6743393158291" lon="11.524912371741172"><ele>211.0</ele><time>2026-03-29T12:48:00.991Z</time></trkpt><trkpt lat="42.674193924843536" lon="11.52484919146828"><ele>210.0</ele><time>2026-03-29T12:48:01.991Z</time></trkpt><trkpt lat="42.67404765108678" lon="11.524796734458777"><ele>209.0</ele><time>2026-03-29T12:48:02.991Z</time></trkpt><trkpt lat="42.6739078498995" lon="11.52473524979724"><ele>209.0</ele><time>2026-03-29T12:48:03.991Z</time></trkpt><trkpt lat="42.67377047984131" lon="11.524679106228932"><ele>209.0</ele><time>2026-03-29T12:48:04.991Z</time></trkpt><trkpt lat="42.67362693505736" lon="11.524627160064009"><ele>209.0</ele><time>2026-03-29T12:48:05.991Z</time></trkpt><trkpt lat="42.67348639321264" lon="11.52457226656491"><ele>209.0</ele><time>2026-03-29T12:48:06.991Z</time></trkpt><trkpt lat="42.67334755203015" lon="11.524518279971916"><ele>207.5</ele><time>2026-03-29T12:48:07.991Z</time></trkpt><trkpt lat="42.67320713502771" lon="11.524482442144174"><ele>206.0</ele><time>2026-03-29T12:48:08.991Z</time></trkpt><trkpt lat="42.673065616097446" lon="11.524460779058838"><ele>204.5</ele><time>2026-03-29T12:48:09.991Z</time></trkpt><trkpt lat="42.67292328551275" lon="11.524444451248417"><ele>203.0</ele><time>2026-03-29T12:48:10.991Z</time></trkpt><trkpt lat="42.67278293992449" lon="11.524421462677388"><ele>202.75</ele><time>2026-03-29T12:48:11.991Z</time></trkpt><trkpt lat="42.672640851167415" lon="11.524402080191038"><ele>202.5</ele><time>2026-03-29T12:48:12.991Z</time></trkpt><trkpt lat="42.672494874492166" lon="11.524383448281283"><ele>202.25</ele><time>2026-03-29T12:48:13.991Z</time></trkpt><trkpt lat="42.672350510702806" lon="11.5243645539322"><ele>202.0</ele><time>2026-03-29T12:48:14.991Z</time></trkpt><trkpt lat="42.672207183322996" lon="11.52434327795331"><ele>202.0</ele><time>2026-03-29T12:48:15.991Z</time></trkpt><trkpt lat="42.672064597918805" lon="11.524321165452772"><ele>202.0</ele><time>2026-03-29T12:48:16.991Z</time></trkpt><trkpt lat="42.67192668903495" lon="11.524304796036539"><ele>202.0</ele><time>2026-03-29T12:48:17.991Z</time></trkpt><trkpt lat="42.6717911695159" lon="11.524283760456628"><ele>202.0</ele><time>2026-03-29T12:48:18.991Z</time></trkpt><trkpt lat="42.67165840321863" lon="11.524268376295838"><ele>201.75</ele><time>2026-03-29T12:48:19.991Z</time></trkpt><trkpt lat="42.671529465574515" lon="11.524258106578982"><ele>201.5</ele><time>2026-03-29T12:48:20.991Z</time></trkpt><trkpt lat="42.67140300631995" lon="11.52424006808956"><ele>201.25</ele><time>2026-03-29T12:48:21.991Z</time></trkpt><trkpt lat="42.67127058665426" lon="11.524221686956425"><ele>201.0</ele><time>2026-03-29T12:48:22.991Z</time></trkpt><trkpt lat="42.67114133373828" lon="11.524202881823356"><ele>201.5</ele><time>2026-03-29T12:48:23.991Z</time></trkpt><trkpt lat="42.67101331172187" lon="11.524180730694733"><ele>202.0</ele><time>2026-03-29T12:48:24.991Z</time></trkpt><trkpt lat="42.67088052304471" lon="11.524142458339732"><ele>202.5</ele><time>2026-03-29T12:48:25.991Z</time></trkpt><trkpt lat="42.67075252645646" lon="11.524087608051616"><ele>203.0</ele><time>2026-03-29T12:48:26.991Z</time></trkpt><trkpt lat="42.67062342646039" lon="11.524028284014808"><ele>203.0</ele><time>2026-03-29T12:48:27.991Z</time></trkpt><trkpt lat="42.67049523530543" lon="11.523972670900951"><ele>203.0</ele><time>2026-03-29T12:48:28.991Z</time></trkpt><trkpt lat="42.670363663040824" lon="11.5239211628058"><ele>203.0</ele><time>2026-03-29T12:48:29.991Z</time></trkpt><trkpt lat="42.67022770493729" lon="11.523869015927524"><ele>203.0</ele><time>2026-03-29T12:48:30.991Z</time></trkpt><trkpt lat="42.67009400722487" lon="11.523818346594194"><ele>204.5</ele><time>2026-03-29T12:48:31.991Z</time></trkpt><trkpt lat="42.6699653940409" lon="11.523774700383731"><ele>206.0</ele><time>2026-03-29T12:48:32.991Z</time></trkpt><trkpt lat="42.66984198372413" lon="11.523756733789599"><ele>207.5</ele><time>2026-03-29T12:48:33.991Z</time></trkpt><trkpt lat="42.66972124734569" lon="11.523771055540143"><ele>209.0</ele><time>2026-03-29T12:48:34.991Z</time></trkpt><trkpt lat="42.66960789988845" lon="11.523828759757075"><ele>209.0</ele><time>2026-03-29T12:48:35.991Z</time></trkpt><trkpt lat="42.66950050527648" lon="11.523895254300479"><ele>209.0</ele><time>2026-03-29T12:48:36.991Z</time></trkpt><trkpt lat="42.66939772693122" lon="11.523948089063422"><ele>209.0</ele><time>2026-03-29T12:48:37.991Z</time></trkpt><trkpt lat="42.66930481192446" lon="11.523980770692326"><ele>209.0</ele><time>2026-03-29T12:48:38.991Z</time></trkpt><trkpt lat="42.66921593665485" lon="11.523981316520208"><ele>209.0</ele><time>2026-03-29T12:48:39.991Z</time></trkpt><trkpt lat="42.6691376460214" lon="11.523945689873905"><ele>210.6</ele><time>2026-03-29T12:48:40.99Z</time></trkpt><trkpt lat="42.669071683278446" lon="11.523870748324354"><ele>212.2</ele><time>2026-03-29T12:48:41.99Z</time></trkpt><trkpt lat="42.66902262229007" lon="11.523770011485698"><ele>213.79999999999998</ele><time>2026-03-29T12:48:42.99Z</time></trkpt><trkpt lat="42.66898683918816" lon="11.523638557713937"><ele>215.39999999999998</ele><time>2026-03-29T12:48:43.99Z</time></trkpt><trkpt lat="42.66896146356084" lon="11.523469792942327"><ele>217.0</ele><time>2026-03-29T12:48:44.99Z</time></trkpt><trkpt lat="42.668947037340104" lon="11.523287736744178"><ele>217.5</ele><time>2026-03-29T12:48:45.99Z</time></trkpt><trkpt lat="42.668947499565235" lon="11.523113235382993"><ele>218.0</ele><time>2026-03-29T12:48:46.99Z</time></trkpt><trkpt lat="42.66897853862247" lon="11.522938715744058"><ele>218.5</ele><time>2026-03-29T12:48:47.99Z</time></trkpt><trkpt lat="42.66902094106309" lon="11.52276507911734"><ele>219.0</ele><time>2026-03-29T12:48:48.99Z</time></trkpt><trkpt lat="42.669080594444885" lon="11.522592394573948"><ele>219.75</ele><time>2026-03-29T12:48:49.99Z</time></trkpt><trkpt lat="42.66913895296269" lon="11.522414101286902"><ele>220.5</ele><time>2026-03-29T12:48:50.99Z</time></trkpt><trkpt lat="42.6692136857298" lon="11.522242210169457"><ele>221.25</ele><time>2026-03-29T12:48:51.99Z</time></trkpt><trkpt lat="42.66926790785652" lon="11.522045203719935"><ele>222.0</ele><time>2026-03-29T12:48:52.99Z</time></trkpt><trkpt lat="42.669338153238265" lon="11.52186016158875"><ele>222.5</ele><time>2026-03-29T12:48:53.99Z</time></trkpt><trkpt lat="42.66940070321171" lon="11.521677886006447"><ele>223.0</ele><time>2026-03-29T12:48:54.99Z</time></trkpt><trkpt lat="42.66945204793633" lon="11.521504359796754"><ele>223.5</ele><time>2026-03-29T12:48:55.99Z</time></trkpt><trkpt lat="42.66949382923615" lon="11.521321151170554"><ele>224.0</ele><time>2026-03-29T12:48:56.99Z</time></trkpt><trkpt lat="42.66951803196992" lon="11.521135575042392"><ele>224.0</ele><time>2026-03-29T12:48:57.99Z</time></trkpt><trkpt lat="42.66952411198712" lon="11.52094618585498"><ele>224.0</ele><time>2026-03-29T12:48:58.99Z</time></trkpt><trkpt lat="42.66951279958716" lon="11.52075807850386"><ele>224.0</ele><time>2026-03-29T12:48:59.99Z</time></trkpt><trkpt lat="42.66947935124554" lon="11.52058038045248"><ele>224.0</ele><time>2026-03-29T12:49:00.99Z</time></trkpt><trkpt lat="42.66942159153439" lon="11.520394459864859"><ele>225.75</ele><time>2026-03-29T12:49:01.99Z</time></trkpt><trkpt lat="42.66938289064348" lon="11.520204669285109"><ele>227.5</ele><time>2026-03-29T12:49:02.99Z</time></trkpt><trkpt lat="42.66933325086365" lon="11.520021843215975"><ele>229.25</ele><time>2026-03-29T12:49:03.99Z</time></trkpt><trkpt lat="42.66927856962212" lon="11.519835982733342"><ele>231.0</ele><time>2026-03-29T12:49:04.99Z</time></trkpt><trkpt lat="42.66923510287838" lon="11.519644555422754"><ele>231.75</ele><time>2026-03-29T12:49:05.99Z</time></trkpt><trkpt lat="42.66920612100145" lon="11.519451771259765"><ele>232.5</ele><time>2026-03-29T12:49:06.99Z</time></trkpt><trkpt lat="42.66919270404093" lon="11.519255160916979"><ele>233.25</ele><time>2026-03-29T12:49:07.99Z</time></trkpt><trkpt lat="42.669180587264414" lon="11.51905026360676"><ele>234.0</ele><time>2026-03-29T12:49:08.99Z</time></trkpt><trkpt lat="42.66917139800696" lon="11.51884543256923"><ele>235.66666666666669</ele><time>2026-03-29T12:49:09.99Z</time></trkpt><trkpt lat="42.669156454813944" lon="11.51863999875665"><ele>237.33333333333334</ele><time>2026-03-29T12:49:10.99Z</time></trkpt><trkpt lat="42.66917141101672" lon="11.518425959591744"><ele>239.0</ele><time>2026-03-29T12:49:11.99Z</time></trkpt><trkpt lat="42.669159256373824" lon="11.518219037274907"><ele>239.0</ele><time>2026-03-29T12:49:12.99Z</time></trkpt><trkpt lat="42.66914659356268" lon="11.518002335588866"><ele>239.0</ele><time>2026-03-29T12:49:13.99Z</time></trkpt><trkpt lat="42.669130088015265" lon="11.517788486630224"><ele>239.0</ele><time>2026-03-29T12:49:14.99Z</time></trkpt><trkpt lat="42.66911739185526" lon="11.517585901137192"><ele>239.5</ele><time>2026-03-29T12:49:15.99Z</time></trkpt><trkpt lat="42.6691041669595" lon="11.517382026068466"><ele>240.0</ele><time>2026-03-29T12:49:16.99Z</time></trkpt><trkpt lat="42.66908833637498" lon="11.517187156590397"><ele>240.5</ele><time>2026-03-29T12:49:17.99Z</time></trkpt><trkpt lat="42.669067500548984" lon="11.516998276671965"><ele>241.0</ele><time>2026-03-29T12:49:18.99Z</time></trkpt><trkpt lat="42.6690538008241" lon="11.516818456332238"><ele>241.0</ele><time>2026-03-29T12:49:19.99Z</time></trkpt><trkpt lat="42.669044729216566" lon="11.51663644648427"><ele>241.0</ele><time>2026-03-29T12:49:20.99Z</time></trkpt><trkpt lat="42.669033538382635" lon="11.516466172223183"><ele>241.0</ele><time>2026-03-29T12:49:21.99Z</time></trkpt><trkpt lat="42.66902401190892" lon="11.516296129486197"><ele>241.0</ele><time>2026-03-29T12:49:22.99Z</time></trkpt><trkpt lat="42.66900571198781" lon="11.516128255483236"><ele>241.25</ele><time>2026-03-29T12:49:23.99Z</time></trkpt><trkpt lat="42.668989074005616" lon="11.515959020555764"><ele>241.5</ele><time>2026-03-29T12:49:24.989Z</time></trkpt><trkpt lat="42.668973946102696" lon="11.515793850831605"><ele>241.75</ele><time>2026-03-29T12:49:25.989Z</time></trkpt><trkpt lat="42.668963321474365" lon="11.515632319351303"><ele>242.0</ele><time>2026-03-29T12:49:26.989Z</time></trkpt><trkpt lat="42.66895078251883" lon="11.515485401931379"><ele>242.2</ele><time>2026-03-29T12:49:27.989Z</time></trkpt><trkpt lat="42.6689388123902" lon="11.515343300552829"><ele>242.39999999999998</ele><time>2026-03-29T12:49:28.989Z</time></trkpt><trkpt lat="42.66893078379925" lon="11.515208269318565"><ele>242.60000000000002</ele><time>2026-03-29T12:49:29.989Z</time></trkpt><trkpt lat="42.668921837015134" lon="11.5150700363023"><ele>242.8</ele><time>2026-03-29T12:49:30.989Z</time></trkpt><trkpt lat="42.66891034925552" lon="11.514930196484627"><ele>243.0</ele><time>2026-03-29T12:49:31.989Z</time></trkpt><trkpt lat="42.668901792773745" lon="11.514788269989372"><ele>243.0</ele><time>2026-03-29T12:49:32.989Z</time></trkpt><trkpt lat="42.66889878842717" lon="11.514646320610446"><ele>243.0</ele><time>2026-03-29T12:49:33.989Z</time></trkpt><trkpt lat="42.66889421216099" lon="11.514497440097522"><ele>243.0</ele><time>2026-03-29T12:49:34.989Z</time></trkpt><trkpt lat="42.66889149532354" lon="11.514342168877171"><ele>243.0</ele><time>2026-03-29T12:49:35.989Z</time></trkpt><trkpt lat="42.66888895205091" lon="11.514182684075726"><ele>243.0</ele><time>2026-03-29T12:49:36.989Z</time></trkpt><trkpt lat="42.66888745993902" lon="11.514013952760767"><ele>243.5</ele><time>2026-03-29T12:49:37.989Z</time></trkpt><trkpt lat="42.668878967466675" lon="11.513849277466553"><ele>244.0</ele><time>2026-03-29T12:49:38.989Z</time></trkpt><trkpt lat="42.66887109100387" lon="11.513688863154233"><ele>244.5</ele><time>2026-03-29T12:49:39.989Z</time></trkpt><trkpt lat="42.66886977694414" lon="11.513524630096072"><ele>245.0</ele><time>2026-03-29T12:49:40.989Z</time></trkpt><trkpt lat="42.668865672003335" lon="11.513354873977098"><ele>245.5</ele><time>2026-03-29T12:49:41.989Z</time></trkpt><trkpt lat="42.66886633491292" lon="11.513184828827283"><ele>246.0</ele><time>2026-03-29T12:49:42.989Z</time></trkpt><trkpt lat="42.668864941404934" lon="11.513014213417415"><ele>246.5</ele><time>2026-03-29T12:49:43.989Z</time></trkpt><trkpt lat="42.668858662953866" lon="11.512841186208215"><ele>247.0</ele><time>2026-03-29T12:49:44.989Z</time></trkpt><trkpt lat="42.6688486648642" lon="11.512672619762242"><ele>247.5</ele><time>2026-03-29T12:49:45.989Z</time></trkpt><trkpt lat="42.66883463537428" lon="11.512500024809967"><ele>248.0</ele><time>2026-03-29T12:49:46.989Z</time></trkpt><trkpt lat="42.66881633621795" lon="11.512327584094963"><ele>248.5</ele><time>2026-03-29T12:49:47.989Z</time></trkpt><trkpt lat="42.668788883061694" lon="11.51215448490943"><ele>249.0</ele><time>2026-03-29T12:49:48.989Z</time></trkpt><trkpt lat="42.66877091209487" lon="11.51199282868319"><ele>249.2</ele><time>2026-03-29T12:49:49.989Z</time></trkpt><trkpt lat="42.668748905387446" lon="11.511842722882339"><ele>249.39999999999998</ele><time>2026-03-29T12:49:50.989Z</time></trkpt><trkpt lat="42.66871642189527" lon="11.511705852071056"><ele>249.6</ele><time>2026-03-29T12:49:51.991Z</time></trkpt><trkpt lat="42.66867347636328" lon="11.511589838214798"><ele>249.8</ele><time>2026-03-29T12:49:52.991Z</time></trkpt><trkpt lat="42.668623084701906" lon="11.511497410380827"><ele>250.0</ele><time>2026-03-29T12:49:53.991Z</time></trkpt><trkpt lat="42.66856911108383" lon="11.511428026322442"><ele>249.16666666666666</ele><time>2026-03-29T12:49:54.991Z</time></trkpt><trkpt lat="42.668516728348386" lon="11.511378892712264"><ele>248.33333333333331</ele><time>2026-03-29T12:49:55.991Z</time></trkpt><trkpt lat="42.668412978680344" lon="11.511308611139423"><ele>247.5</ele><time>2026-03-29T12:49:57.991Z</time></trkpt><trkpt lat="42.66834599541093" lon="11.511270421211707"><ele>246.66666666666669</ele><time>2026-03-29T12:49:58.991Z</time></trkpt><trkpt lat="42.668262365741235" lon="11.51122997510573"><ele>245.83333333333334</ele><time>2026-03-29T12:49:59.991Z</time></trkpt><trkpt lat="42.66816702248288" lon="11.51120098863197"><ele>245.0</ele><time>2026-03-29T12:50:00.991Z</time></trkpt><trkpt lat="42.66805332378081" lon="11.511189688052196"><ele>245.0</ele><time>2026-03-29T12:50:01.991Z</time></trkpt><trkpt lat="42.667923860927345" lon="11.511196612436642"><ele>245.0</ele><time>2026-03-29T12:50:02.991Z</time></trkpt><trkpt lat="42.667781608494046" lon="11.511211728505598"><ele>245.0</ele><time>2026-03-29T12:50:03.991Z</time></trkpt><trkpt lat="42.66762679747459" lon="11.511226422416069"><ele>245.0</ele><time>2026-03-29T12:50:04.991Z</time></trkpt><trkpt lat="42.66745670608456" lon="11.511238916086207"><ele>240.66666666666669</ele><time>2026-03-29T12:50:05.99Z</time></trkpt><trkpt lat="42.66727231942345" lon="11.511261586102046"><ele>236.33333333333331</ele><time>2026-03-29T12:50:06.99Z</time></trkpt><trkpt lat="42.66708506083748" lon="11.511285886146458"><ele>232.0</ele><time>2026-03-29T12:50:07.99Z</time></trkpt><trkpt lat="42.66689588704712" lon="11.51131021615794"><ele>231.33333333333331</ele><time>2026-03-29T12:50:08.99Z</time></trkpt><trkpt lat="42.66670222031933" lon="11.511337039076666"><ele>230.66666666666669</ele><time>2026-03-29T12:50:09.99Z</time></trkpt><trkpt lat="42.66650746101418" lon="11.511362907616137"><ele>230.0</ele><time>2026-03-29T12:50:10.99Z</time></trkpt><trkpt lat="42.666311346358135" lon="11.51138268882321"><ele>230.0</ele><time>2026-03-29T12:50:11.99Z</time></trkpt><trkpt lat="42.66612038559311" lon="11.511403354462805"><ele>230.0</ele><time>2026-03-29T12:50:12.99Z</time></trkpt><trkpt lat="42.6659335714323" lon="11.511420611012076"><ele>230.0</ele><time>2026-03-29T12:50:13.99Z</time></trkpt><trkpt lat="42.66574969621001" lon="11.511441200190148"><ele>229.66666666666669</ele><time>2026-03-29T12:50:14.99Z</time></trkpt><trkpt lat="42.66556843048494" lon="11.511461723620776"><ele>229.33333333333331</ele><time>2026-03-29T12:50:15.99Z</time></trkpt><trkpt lat="42.66539305628454" lon="11.511477664213682"><ele>229.0</ele><time>2026-03-29T12:50:16.99Z</time></trkpt><trkpt lat="42.6652139402621" lon="11.511491334266138"><ele>227.33333333333331</ele><time>2026-03-29T12:50:17.99Z</time></trkpt><trkpt lat="42.66504174732707" lon="11.51149975791783"><ele>225.66666666666669</ele><time>2026-03-29T12:50:18.99Z</time></trkpt><trkpt lat="42.664868658420396" lon="11.511497482103179"><ele>224.0</ele><time>2026-03-29T12:50:19.99Z</time></trkpt><trkpt lat="42.66469975740719" lon="11.511477761862391"><ele>224.0</ele><time>2026-03-29T12:50:20.99Z</time></trkpt><trkpt lat="42.66453741826577" lon="11.511435159260186"><ele>224.0</ele><time>2026-03-29T12:50:21.99Z</time></trkpt><trkpt lat="42.66437219587745" lon="11.51138026758851"><ele>224.0</ele><time>2026-03-29T12:50:22.99Z</time></trkpt><trkpt lat="42.664207233667625" lon="11.511313313173774"><ele>223.0</ele><time>2026-03-29T12:50:23.99Z</time></trkpt><trkpt lat="42.66405420985551" lon="11.51121140566096"><ele>222.0</ele><time>2026-03-29T12:50:24.99Z</time></trkpt><trkpt lat="42.663914550112366" lon="11.511086697347627"><ele>221.0</ele><time>2026-03-29T12:50:25.99Z</time></trkpt><trkpt lat="42.663777070161856" lon="11.510950239593098"><ele>221.0</ele><time>2026-03-29T12:50:26.99Z</time></trkpt><trkpt lat="42.6636380283101" lon="11.51080287559185"><ele>221.0</ele><time>2026-03-29T12:50:27.99Z</time></trkpt><trkpt lat="42.663496935938014" lon="11.51065115246143"><ele>221.0</ele><time>2026-03-29T12:50:28.99Z</time></trkpt><trkpt lat="42.663355163326095" lon="11.510508637682113"><ele>219.33333333333334</ele><time>2026-03-29T12:50:29.99Z</time></trkpt><trkpt lat="42.663215372345505" lon="11.510371834158931"><ele>217.66666666666669</ele><time>2026-03-29T12:50:30.99Z</time></trkpt><trkpt lat="42.663071989641" lon="11.510236312643421"><ele>216.0</ele><time>2026-03-29T12:50:31.99Z</time></trkpt><trkpt lat="42.66292366144225" lon="11.510112861698628"><ele>212.33333333333331</ele><time>2026-03-29T12:50:32.99Z</time></trkpt><trkpt lat="42.66277034907499" lon="11.510008711563929"><ele>208.66666666666666</ele><time>2026-03-29T12:50:33.99Z</time></trkpt><trkpt lat="42.66260863179982" lon="11.509940167021846"><ele>205.0</ele><time>2026-03-29T12:50:34.99Z</time></trkpt><trkpt lat="42.66244234178731" lon="11.509911254018489"><ele>205.0</ele><time>2026-03-29T12:50:35.99Z</time></trkpt><trkpt lat="42.66228426574656" lon="11.509920374507294"><ele>205.0</ele><time>2026-03-29T12:50:36.99Z</time></trkpt><trkpt lat="42.662135503711305" lon="11.509965501916259"><ele>205.0</ele><time>2026-03-29T12:50:37.99Z</time></trkpt><trkpt lat="42.66198219037214" lon="11.510034324366178"><ele>204.33333333333331</ele><time>2026-03-29T12:50:38.99Z</time></trkpt><trkpt lat="42.661820543958854" lon="11.5101190584025"><ele>203.66666666666669</ele><time>2026-03-29T12:50:39.99Z</time></trkpt><trkpt lat="42.66165965295743" lon="11.510209957981782"><ele>203.0</ele><time>2026-03-29T12:50:40.99Z</time></trkpt><trkpt lat="42.661498660619635" lon="11.510299426975383"><ele>203.0</ele><time>2026-03-29T12:50:41.99Z</time></trkpt><trkpt lat="42.6613435639716" lon="11.510392174605359"><ele>203.0</ele><time>2026-03-29T12:50:42.99Z</time></trkpt><trkpt lat="42.661181092258566" lon="11.510479013431576"><ele>203.0</ele><time>2026-03-29T12:50:43.99Z</time></trkpt><trkpt lat="42.66102519607342" lon="11.510555797204615"><ele>199.75</ele><time>2026-03-29T12:50:44.99Z</time></trkpt><trkpt lat="42.66087740172389" lon="11.510629249998972"><ele>196.5</ele><time>2026-03-29T12:50:45.99Z</time></trkpt><trkpt lat="42.66074567836883" lon="11.510696428163468"><ele>193.25</ele><time>2026-03-29T12:50:46.99Z</time></trkpt><trkpt lat="42.66062070101013" lon="11.510754492122706"><ele>190.0</ele><time>2026-03-29T12:50:47.99Z</time></trkpt><trkpt lat="42.66049837287817" lon="11.510803544883538"><ele>190.0</ele><time>2026-03-29T12:50:48.99Z</time></trkpt><trkpt lat="42.6603850051678" lon="11.510836068890423"><ele>190.0</ele><time>2026-03-29T12:50:49.989Z</time></trkpt><trkpt lat="42.66027937687893" lon="11.510856567205272"><ele>190.0</ele><time>2026-03-29T12:50:50.989Z</time></trkpt><trkpt lat="42.66017666726103" lon="11.510876774728734"><ele>190.0</ele><time>2026-03-29T12:50:51.989Z</time></trkpt><trkpt lat="42.660076122703906" lon="11.510889609538074"><ele>190.0</ele><time>2026-03-29T12:50:52.989Z</time></trkpt><trkpt lat="42.65997265835542" lon="11.510883181053494"><ele>189.6</ele><time>2026-03-29T12:50:53.989Z</time></trkpt><trkpt lat="42.659874902055364" lon="11.510862236230395"><ele>189.2</ele><time>2026-03-29T12:50:54.989Z</time></trkpt><trkpt lat="42.6597789184487" lon="11.510829586646903"><ele>188.8</ele><time>2026-03-29T12:50:55.989Z</time></trkpt><trkpt lat="42.6597066394579" lon="11.510798600423865"><ele>188.4</ele><time>2026-03-29T12:50:56.989Z</time></trkpt><trkpt lat="42.659602654286005" lon="11.510729258823208"><ele>188.0</ele><time>2026-03-29T12:50:58.989Z</time></trkpt><trkpt lat="42.65949370765283" lon="11.510652247746943"><ele>187.66666666666666</ele><time>2026-03-29T12:51:00.989Z</time></trkpt><trkpt lat="42.65942000894844" lon="11.510597992185309"><ele>187.33333333333331</ele><time>2026-03-29T12:51:01.989Z</time></trkpt><trkpt lat="42.65935335297405" lon="11.510542344171592"><ele>187.0</ele><time>2026-03-29T12:51:02.989Z</time></trkpt><trkpt lat="42.659285197496104" lon="11.510493407910754"><ele>186.66666666666666</ele><time>2026-03-29T12:51:03.989Z</time></trkpt><trkpt lat="42.65920838305978" lon="11.510445021755555"><ele>186.33333333333334</ele><time>2026-03-29T12:51:04.989Z</time></trkpt><trkpt lat="42.65912681015803" lon="11.510387626934211"><ele>186.0</ele><time>2026-03-29T12:51:05.989Z</time></trkpt><trkpt lat="42.6590341788793" lon="11.51031094161557"><ele>186.0</ele><time>2026-03-29T12:51:06.989Z</time></trkpt><trkpt lat="42.65892387563704" lon="11.510231207612401"><ele>186.0</ele><time>2026-03-29T12:51:07.989Z</time></trkpt><trkpt lat="42.65880181825275" lon="11.510141006105187"><ele>186.0</ele><time>2026-03-29T12:51:08.989Z</time></trkpt><trkpt lat="42.658667361015155" lon="11.51004344413423"><ele>186.0</ele><time>2026-03-29T12:51:09.989Z</time></trkpt><trkpt lat="42.658529633507676" lon="11.509944587869558"><ele>183.75</ele><time>2026-03-29T12:51:10.989Z</time></trkpt><trkpt lat="42.65840254356847" lon="11.509854964676558"><ele>181.5</ele><time>2026-03-29T12:51:11.989Z</time></trkpt><trkpt lat="42.65828354647165" lon="11.509765260181183"><ele>179.25</ele><time>2026-03-29T12:51:12.989Z</time></trkpt><trkpt lat="42.658176645141566" lon="11.509691930494244"><ele>177.0</ele><time>2026-03-29T12:51:13.989Z</time></trkpt><trkpt lat="42.658074507505546" lon="11.50965061112423"><ele>177.0</ele><time>2026-03-29T12:51:14.989Z</time></trkpt><trkpt lat="42.6579661384769" lon="11.50965254494203"><ele>177.0</ele><time>2026-03-29T12:51:15.989Z</time></trkpt><trkpt lat="42.657866183691084" lon="11.509688365402372"><ele>177.0</ele><time>2026-03-29T12:51:16.989Z</time></trkpt><trkpt lat="42.65778203788641" lon="11.509788973181077"><ele>177.0</ele><time>2026-03-29T12:51:17.989Z</time></trkpt><trkpt lat="42.65771045244946" lon="11.509915200847786"><ele>177.0</ele><time>2026-03-29T12:51:18.989Z</time></trkpt><trkpt lat="42.65764927013823" lon="11.510078824723776"><ele>174.5</ele><time>2026-03-29T12:51:19.989Z</time></trkpt><trkpt lat="42.65758826500286" lon="11.510251457341866"><ele>172.0</ele><time>2026-03-29T12:51:20.989Z</time></trkpt><trkpt lat="42.65753154872441" lon="11.510425259755566"><ele>169.5</ele><time>2026-03-29T12:51:21.989Z</time></trkpt><trkpt lat="42.65747059096828" lon="11.510590197771357"><ele>167.0</ele><time>2026-03-29T12:51:22.989Z</time></trkpt><trkpt lat="42.65740267266102" lon="11.510730942392273"><ele>166.25</ele><time>2026-03-29T12:51:23.989Z</time></trkpt><trkpt lat="42.65733315550576" lon="11.510845661507705"><ele>165.5</ele><time>2026-03-29T12:51:24.989Z</time></trkpt><trkpt lat="42.65725579988585" lon="11.510941893812126"><ele>164.75</ele><time>2026-03-29T12:51:25.989Z</time></trkpt><trkpt lat="42.657156576107226" lon="11.511032068524951"><ele>164.0</ele><time>2026-03-29T12:51:26.989Z</time></trkpt><trkpt lat="42.65704370887552" lon="11.511110546129553"><ele>162.5</ele><time>2026-03-29T12:51:27.989Z</time></trkpt><trkpt lat="42.65690819774604" lon="11.511178602629917"><ele>161.0</ele><time>2026-03-29T12:51:28.989Z</time></trkpt><trkpt lat="42.65677327370856" lon="11.511229281607243"><ele>159.5</ele><time>2026-03-29T12:51:29.989Z</time></trkpt><trkpt lat="42.6566358622231" lon="11.511269648389163"><ele>158.0</ele><time>2026-03-29T12:51:30.989Z</time></trkpt><trkpt lat="42.656495355260624" lon="11.511301708590631"><ele>158.0</ele><time>2026-03-29T12:51:31.989Z</time></trkpt><trkpt lat="42.65636021727164" lon="11.511328581769614"><ele>158.0</ele><time>2026-03-29T12:51:32.989Z</time></trkpt><trkpt lat="42.65623749175855" lon="11.511350106163267"><ele>158.0</ele><time>2026-03-29T12:51:33.989Z</time></trkpt><trkpt lat="42.656114028411075" lon="11.511369627053359"><ele>158.0</ele><time>2026-03-29T12:51:34.988Z</time></trkpt><trkpt lat="42.65599540423509" lon="11.511392131520907"><ele>156.6</ele><time>2026-03-29T12:51:35.988Z</time></trkpt><trkpt lat="42.65588385418106" lon="11.511407611885254"><ele>155.20000000000002</ele><time>2026-03-29T12:51:36.988Z</time></trkpt><trkpt lat="42.655770191574" lon="11.51141499994378"><ele>153.8</ele><time>2026-03-29T12:51:37.988Z</time></trkpt><trkpt lat="42.6556601166158" lon="11.511421778265795"><ele>152.4</ele><time>2026-03-29T12:51:38.988Z</time></trkpt><trkpt lat="42.6555505111312" lon="11.511426004251302"><ele>151.0</ele><time>2026-03-29T12:51:39.988Z</time></trkpt><trkpt lat="42.655444043324295" lon="11.511432461092285"><ele>151.0</ele><time>2026-03-29T12:51:40.988Z</time></trkpt><trkpt lat="42.65534254053297" lon="11.511435333773195"><ele>151.0</ele><time>2026-03-29T12:51:41.988Z</time></trkpt><trkpt lat="42.65523666384709" lon="11.511441875145037"><ele>151.0</ele><time>2026-03-29T12:51:42.988Z</time></trkpt><trkpt lat="42.65513071981627" lon="11.511452090075819"><ele>151.0</ele><time>2026-03-29T12:51:43.988Z</time></trkpt><trkpt lat="42.6550229653191" lon="11.511461393129798"><ele>151.0</ele><time>2026-03-29T12:51:44.988Z</time></trkpt><trkpt lat="42.65491334174971" lon="11.511468270129841"><ele>150.5</ele><time>2026-03-29T12:51:45.988Z</time></trkpt><trkpt lat="42.654803610162986" lon="11.511475561958017"><ele>150.0</ele><time>2026-03-29T12:51:46.988Z</time></trkpt><trkpt lat="42.654692792861496" lon="11.511481588312963"><ele>149.5</ele><time>2026-03-29T12:51:47.988Z</time></trkpt><trkpt lat="42.65457403582" lon="11.511492515257642"><ele>149.0</ele><time>2026-03-29T12:51:48.988Z</time></trkpt><trkpt lat="42.65445518352331" lon="11.51150055092039"><ele>149.0</ele><time>2026-03-29T12:51:49.988Z</time></trkpt><trkpt lat="42.65433121871762" lon="11.511508496511611"><ele>149.0</ele><time>2026-03-29T12:51:50.988Z</time></trkpt><trkpt lat="42.65420241058094" lon="11.511517519121925"><ele>149.0</ele><time>2026-03-29T12:51:51.988Z</time></trkpt><trkpt lat="42.6540844568041" lon="11.511524556230253"><ele>149.0</ele><time>2026-03-29T12:51:52.988Z</time></trkpt><trkpt lat="42.653964108570364" lon="11.511530153612776"><ele>149.0</ele><time>2026-03-29T12:51:53.988Z</time></trkpt><trkpt lat="42.65384265629282" lon="11.51153774658669"><ele>149.0</ele><time>2026-03-29T12:51:54.988Z</time></trkpt><trkpt lat="42.65371931470556" lon="11.511546104642884"><ele>149.0</ele><time>2026-03-29T12:51:55.988Z</time></trkpt><trkpt lat="42.65359870733638" lon="11.511552964740916"><ele>149.0</ele><time>2026-03-29T12:51:56.991Z</time></trkpt><trkpt lat="42.65347877374222" lon="11.511561698876887"><ele>148.5</ele><time>2026-03-29T12:51:57.99Z</time></trkpt><trkpt lat="42.65335516753124" lon="11.511572511217706"><ele>148.0</ele><time>2026-03-29T12:51:58.99Z</time></trkpt><trkpt lat="42.65323177189566" lon="11.511577004332628"><ele>147.5</ele><time>2026-03-29T12:51:59.991Z</time></trkpt><trkpt lat="42.65311237127866" lon="11.511582729098002"><ele>147.0</ele><time>2026-03-29T12:52:00.991Z</time></trkpt><trkpt lat="42.65299630508048" lon="11.51158827183595"><ele>147.0</ele><time>2026-03-29T12:52:01.991Z</time></trkpt><trkpt lat="42.65287176999043" lon="11.511597014800465"><ele>147.0</ele><time>2026-03-29T12:52:02.99Z</time></trkpt><trkpt lat="42.65274820511787" lon="11.511605838578927"><ele>147.0</ele><time>2026-03-29T12:52:03.991Z</time></trkpt><trkpt lat="42.652626238791214" lon="11.511611904592774"><ele>147.0</ele><time>2026-03-29T12:52:04.991Z</time></trkpt><trkpt lat="42.652506975178056" lon="11.511618717672961"><ele>147.0</ele><time>2026-03-29T12:52:05.991Z</time></trkpt><trkpt lat="42.652383894047" lon="11.511625357182744"><ele>147.0</ele><time>2026-03-29T12:52:06.991Z</time></trkpt><trkpt lat="42.652261732539756" lon="11.511634037895616"><ele>147.0</ele><time>2026-03-29T12:52:07.991Z</time></trkpt><trkpt lat="42.6521380692014" lon="11.51163765886722"><ele>147.0</ele><time>2026-03-29T12:52:08.991Z</time></trkpt><trkpt lat="42.65201523252091" lon="11.511642822257475"><ele>147.2</ele><time>2026-03-29T12:52:09.991Z</time></trkpt><trkpt lat="42.6518943055288" lon="11.511654188268691"><ele>147.39999999999998</ele><time>2026-03-29T12:52:10.991Z</time></trkpt><trkpt lat="42.651781822021924" lon="11.511664429909755"><ele>147.60000000000002</ele><time>2026-03-29T12:52:11.991Z</time></trkpt><trkpt lat="42.651671913933534" lon="11.511673825827629"><ele>147.8</ele><time>2026-03-29T12:52:12.991Z</time></trkpt><trkpt lat="42.65156812593958" lon="11.511679490513174"><ele>148.0</ele><time>2026-03-29T12:52:13.991Z</time></trkpt><trkpt lat="42.65146928564758" lon="11.511685873909832"><ele>148.0</ele><time>2026-03-29T12:52:14.991Z</time></trkpt><trkpt lat="42.65137029412907" lon="11.511688646390079"><ele>148.0</ele><time>2026-03-29T12:52:15.991Z</time></trkpt><trkpt lat="42.65127791687635" lon="11.511692528746043"><ele>148.0</ele><time>2026-03-29T12:52:16.991Z</time></trkpt><trkpt lat="42.65119091282487" lon="11.511695791438806"><ele>148.0</ele><time>2026-03-29T12:52:17.991Z</time></trkpt><trkpt lat="42.65110354496378" lon="11.51169879964136"><ele>148.0</ele><time>2026-03-29T12:52:18.991Z</time></trkpt><trkpt lat="42.65101386432921" lon="11.511703911143053"><ele>147.8</ele><time>2026-03-29T12:52:19.991Z</time></trkpt><trkpt lat="42.65091918762063" lon="11.511707717000744"><ele>147.60000000000002</ele><time>2026-03-29T12:52:20.991Z</time></trkpt><trkpt lat="42.65082120525303" lon="11.511709618390643"><ele>147.39999999999998</ele><time>2026-03-29T12:52:21.99Z</time></trkpt><trkpt lat="42.65072277326497" lon="11.511711395596718"><ele>147.2</ele><time>2026-03-29T12:52:22.99Z</time></trkpt><trkpt lat="42.65062477374845" lon="11.511720096166831"><ele>147.0</ele><time>2026-03-29T12:52:23.99Z</time></trkpt><trkpt lat="42.65052780374581" lon="11.511723876276575"><ele>147.0</ele><time>2026-03-29T12:52:24.99Z</time></trkpt><trkpt lat="42.65042787070434" lon="11.5117283214437"><ele>147.0</ele><time>2026-03-29T12:52:25.99Z</time></trkpt><trkpt lat="42.65032884212521" lon="11.51173373048369"><ele>147.0</ele><time>2026-03-29T12:52:26.99Z</time></trkpt><trkpt lat="42.6502273328704" lon="11.511741920440716"><ele>147.0</ele><time>2026-03-29T12:52:27.99Z</time></trkpt><trkpt lat="42.65012821430762" lon="11.51174649821815"><ele>147.0</ele><time>2026-03-29T12:52:28.99Z</time></trkpt><trkpt lat="42.650033946683266" lon="11.511748695534719"><ele>147.0</ele><time>2026-03-29T12:52:29.99Z</time></trkpt><trkpt lat="42.64993907136815" lon="11.511751503391812"><ele>147.0</ele><time>2026-03-29T12:52:30.99Z</time></trkpt><trkpt lat="42.64985076728085" lon="11.51175774874635"><ele>147.0</ele><time>2026-03-29T12:52:31.99Z</time></trkpt><trkpt lat="42.64976549082965" lon="11.511766375707067"><ele>147.0</ele><time>2026-03-29T12:52:32.99Z</time></trkpt><trkpt lat="42.64968387681254" lon="11.511777613650414"><ele>147.0</ele><time>2026-03-29T12:52:33.99Z</time></trkpt><trkpt lat="42.649606926929145" lon="11.511786205968601"><ele>147.0</ele><time>2026-03-29T12:52:34.99Z</time></trkpt><trkpt lat="42.64953590841452" lon="11.511803209061883"><ele>147.0</ele><time>2026-03-29T12:52:35.99Z</time></trkpt><trkpt lat="42.64946613928199" lon="11.511823725612011"><ele>147.0</ele><time>2026-03-29T12:52:36.99Z</time></trkpt><trkpt lat="42.64937231563413" lon="11.511881777486332"><ele>147.0</ele><time>2026-03-29T12:52:38.99Z</time></trkpt><trkpt lat="42.64931264048266" lon="11.511930251066648"><ele>147.0</ele><time>2026-03-29T12:52:41.99Z</time></trkpt><trkpt lat="42.64927354529639" lon="11.512003755145413"><ele>147.0</ele><time>2026-03-29T12:52:43.99Z</time></trkpt><trkpt lat="42.64921329122741" lon="11.512145083973389"><ele>147.0</ele><time>2026-03-29T12:52:45.99Z</time></trkpt><trkpt lat="42.6491789612368" lon="11.51223721076806"><ele>146.4</ele><time>2026-03-29T12:52:46.99Z</time></trkpt><trkpt lat="42.64913928129016" lon="11.512335417535562"><ele>145.79999999999998</ele><time>2026-03-29T12:52:47.99Z</time></trkpt><trkpt lat="42.64909897094132" lon="11.512443891519414"><ele>145.2</ele><time>2026-03-29T12:52:48.99Z</time></trkpt><trkpt lat="42.64905866978143" lon="11.512557658731197"><ele>144.6</ele><time>2026-03-29T12:52:49.99Z</time></trkpt><trkpt lat="42.64901753428757" lon="11.512671313240597"><ele>144.0</ele><time>2026-03-29T12:52:50.99Z</time></trkpt><trkpt lat="42.648974990240376" lon="11.51278402303768"><ele>144.0</ele><time>2026-03-29T12:52:51.99Z</time></trkpt><trkpt lat="42.64893352897292" lon="11.512897085315949"><ele>144.0</ele><time>2026-03-29T12:52:52.99Z</time></trkpt><trkpt lat="42.64888867869005" lon="11.51302299855799"><ele>144.0</ele><time>2026-03-29T12:52:53.99Z</time></trkpt><trkpt lat="42.648840980642134" lon="11.513159180092135"><ele>144.0</ele><time>2026-03-29T12:52:54.99Z</time></trkpt><trkpt lat="42.648786789348584" lon="11.513299890813647"><ele>144.0</ele><time>2026-03-29T12:52:55.99Z</time></trkpt><trkpt lat="42.648734307295385" lon="11.513453255218089"><ele>143.5</ele><time>2026-03-29T12:52:56.99Z</time></trkpt><trkpt lat="42.648678502164024" lon="11.513607468220808"><ele>143.0</ele><time>2026-03-29T12:52:57.99Z</time></trkpt><trkpt lat="42.64862334381308" lon="11.51375845210538"><ele>142.5</ele><time>2026-03-29T12:52:58.99Z</time></trkpt><trkpt lat="42.64856652306062" lon="11.513910922389034"><ele>142.0</ele><time>2026-03-29T12:52:59.99Z</time></trkpt><trkpt lat="42.64851102605053" lon="11.514067089690085"><ele>141.25</ele><time>2026-03-29T12:53:00.99Z</time></trkpt><trkpt lat="42.648450785385634" lon="11.514229483913661"><ele>140.5</ele><time>2026-03-29T12:53:01.99Z</time></trkpt><trkpt lat="42.64839229404858" lon="11.514395921562246"><ele>139.75</ele><time>2026-03-29T12:53:02.99Z</time></trkpt><trkpt lat="42.64833712088572" lon="11.514565712634845"><ele>139.0</ele><time>2026-03-29T12:53:03.99Z</time></trkpt><trkpt lat="42.64828010480572" lon="11.514729696575408"><ele>139.0</ele><time>2026-03-29T12:53:04.99Z</time></trkpt><trkpt lat="42.64822405786455" lon="11.51488821903514"><ele>139.0</ele><time>2026-03-29T12:53:05.99Z</time></trkpt><trkpt lat="42.64817111440252" lon="11.515048500036995"><ele>139.0</ele><time>2026-03-29T12:53:06.989Z</time></trkpt><trkpt lat="42.64812059959679" lon="11.515202342803699"><ele>139.0</ele><time>2026-03-29T12:53:07.989Z</time></trkpt><trkpt lat="42.64807300935146" lon="11.515346924244463"><ele>138.66666666666669</ele><time>2026-03-29T12:53:08.989Z</time></trkpt><trkpt lat="42.648035269546035" lon="11.515470315998712"><ele>138.33333333333334</ele><time>2026-03-29T12:53:09.989Z</time></trkpt><trkpt lat="42.6480027837403" lon="11.515569938907257"><ele>138.0</ele><time>2026-03-29T12:53:10.989Z</time></trkpt><trkpt lat="42.64796218238416" lon="11.515694337835622"><ele>137.66666666666666</ele><time>2026-03-29T12:53:12.989Z</time></trkpt><trkpt lat="42.64793738330345" lon="11.515782157794312"><ele>137.33333333333331</ele><time>2026-03-29T12:53:14.989Z</time></trkpt><trkpt lat="42.64789707168777" lon="11.51589830148183"><ele>137.0</ele><time>2026-03-29T12:53:17.988Z</time></trkpt><trkpt lat="42.647852903876235" lon="11.516017578856022"><ele>137.0</ele><time>2026-03-29T12:53:19.988Z</time></trkpt><trkpt lat="42.647800233869994" lon="11.516189336333444"><ele>137.0</ele><time>2026-03-29T12:53:21.987Z</time></trkpt><trkpt lat="42.64777041799857" lon="11.51629156140881"><ele>137.0</ele><time>2026-03-29T12:53:22.987Z</time></trkpt><trkpt lat="42.64773809695423" lon="11.516401296061668"><ele>137.0</ele><time>2026-03-29T12:53:23.987Z</time></trkpt><trkpt lat="42.64769792416514" lon="11.516513032757857"><ele>137.0</ele><time>2026-03-29T12:53:24.987Z</time></trkpt><trkpt lat="42.64766115102344" lon="11.516625965298394"><ele>137.4</ele><time>2026-03-29T12:53:25.986Z</time></trkpt><trkpt lat="42.647623441115755" lon="11.516747355766482"><ele>137.79999999999998</ele><time>2026-03-29T12:53:26.986Z</time></trkpt><trkpt lat="42.64758448967599" lon="11.516876220488292"><ele>138.2</ele><time>2026-03-29T12:53:27.986Z</time></trkpt><trkpt lat="42.64753991155487" lon="11.51701579937221"><ele>138.6</ele><time>2026-03-29T12:53:28.986Z</time></trkpt><trkpt lat="42.647496482647384" lon="11.517158461499326"><ele>139.0</ele><time>2026-03-29T12:53:29.986Z</time></trkpt><trkpt lat="42.64745070014365" lon="11.517302245321856"><ele>139.4</ele><time>2026-03-29T12:53:30.986Z</time></trkpt><trkpt lat="42.64740310599722" lon="11.517430340478017"><ele>139.8</ele><time>2026-03-29T12:53:31.985Z</time></trkpt><trkpt lat="42.647349748546354" lon="11.517558025998024"><ele>140.2</ele><time>2026-03-29T12:53:32.985Z</time></trkpt><trkpt lat="42.647289548649425" lon="11.517672879248087"><ele>140.6</ele><time>2026-03-29T12:53:33.985Z</time></trkpt><trkpt lat="42.64722137917518" lon="11.517772365017874"><ele>141.0</ele><time>2026-03-29T12:53:34.985Z</time></trkpt><trkpt lat="42.647137574150115" lon="11.517861553826023"><ele>141.2</ele><time>2026-03-29T12:53:35.985Z</time></trkpt><trkpt lat="42.64704700945535" lon="11.517926666359324"><ele>141.39999999999998</ele><time>2026-03-29T12:53:36.985Z</time></trkpt><trkpt lat="42.646952300696725" lon="11.51796043303354"><ele>141.6</ele><time>2026-03-29T12:53:37.985Z</time></trkpt><trkpt lat="42.646858733201185" lon="11.517967396165362"><ele>141.79999999999998</ele><time>2026-03-29T12:53:38.985Z</time></trkpt><trkpt lat="42.64676588455317" lon="11.517948678098342"><ele>142.0</ele><time>2026-03-29T12:53:39.985Z</time></trkpt><trkpt lat="42.64668045684961" lon="11.517903656984643"><ele>142.2</ele><time>2026-03-29T12:53:40.984Z</time></trkpt><trkpt lat="42.64660674699375" lon="11.517854082155257"><ele>142.39999999999998</ele><time>2026-03-29T12:53:41.984Z</time></trkpt><trkpt lat="42.646530103567855" lon="11.517784556136133"><ele>142.60000000000002</ele><time>2026-03-29T12:53:42.984Z</time></trkpt><trkpt lat="42.646453560982856" lon="11.51770755715679"><ele>142.8</ele><time>2026-03-29T12:53:43.984Z</time></trkpt><trkpt lat="42.646375683566255" lon="11.517625724690426"><ele>143.0</ele><time>2026-03-29T12:53:44.984Z</time></trkpt><trkpt lat="42.64629233379623" lon="11.517544026750913"><ele>143.0</ele><time>2026-03-29T12:53:45.984Z</time></trkpt><trkpt lat="42.64620317333111" lon="11.517460441872865"><ele>143.0</ele><time>2026-03-29T12:53:46.984Z</time></trkpt><trkpt lat="42.64611404588982" lon="11.517367225341506"><ele>143.0</ele><time>2026-03-29T12:53:47.984Z</time></trkpt><trkpt lat="42.646020709908676" lon="11.517271109579477"><ele>143.0</ele><time>2026-03-29T12:53:48.984Z</time></trkpt><trkpt lat="42.645926005654836" lon="11.517175296321065"><ele>143.0</ele><time>2026-03-29T12:53:49.984Z</time></trkpt><trkpt lat="42.64583085715496" lon="11.517079972108025"><ele>143.0</ele><time>2026-03-29T12:53:50.984Z</time></trkpt><trkpt lat="42.64573720632319" lon="11.516980037489354"><ele>143.0</ele><time>2026-03-29T12:53:51.984Z</time></trkpt><trkpt lat="42.64565348865173" lon="11.516879338297596"><ele>143.0</ele><time>2026-03-29T12:53:52.984Z</time></trkpt><trkpt lat="42.64558681244795" lon="11.516765675334229"><ele>143.0</ele><time>2026-03-29T12:53:53.984Z</time></trkpt><trkpt lat="42.64554394457666" lon="11.516642295346097"><ele>143.0</ele><time>2026-03-29T12:53:54.984Z</time></trkpt><trkpt lat="42.64553107726858" lon="11.516492239336731"><ele>143.0</ele><time>2026-03-29T12:53:55.984Z</time></trkpt><trkpt lat="42.64548947849983" lon="11.516338306052646"><ele>143.0</ele><time>2026-03-29T12:53:56.983Z</time></trkpt><trkpt lat="42.64546103673134" lon="11.516187051094946"><ele>143.0</ele><time>2026-03-29T12:53:57.983Z</time></trkpt><trkpt lat="42.645430613107166" lon="11.516054869685806"><ele>143.0</ele><time>2026-03-29T12:53:58.983Z</time></trkpt><trkpt lat="42.64537373702343" lon="11.515940438034901"><ele>143.0</ele><time>2026-03-29T12:53:59.983Z</time></trkpt><trkpt lat="42.64531477273483" lon="11.515831107179235"><ele>143.0</ele><time>2026-03-29T12:54:00.983Z</time></trkpt><trkpt lat="42.645214355929845" lon="11.515795818726197"><ele>143.0</ele><time>2026-03-29T12:54:01.983Z</time></trkpt><trkpt lat="42.64511589005514" lon="11.515768755788464"><ele>143.0</ele><time>2026-03-29T12:54:02.986Z</time></trkpt><trkpt lat="42.64500653964964" lon="11.515753612156116"><ele>144.4</ele><time>2026-03-29T12:54:03.985Z</time></trkpt><trkpt lat="42.64489260312695" lon="11.515722001786255"><ele>145.8</ele><time>2026-03-29T12:54:04.985Z</time></trkpt><trkpt lat="42.64479382575253" lon="11.515660767947617"><ele>147.2</ele><time>2026-03-29T12:54:05.985Z</time></trkpt><trkpt lat="42.644704622423966" lon="11.515591241913173"><ele>148.6</ele><time>2026-03-29T12:54:06.985Z</time></trkpt><trkpt lat="42.64463799758956" lon="11.515508287057303"><ele>150.0</ele><time>2026-03-29T12:54:07.985Z</time></trkpt><trkpt lat="42.64460531213992" lon="11.51541239118453"><ele>150.83333333333334</ele><time>2026-03-29T12:54:08.985Z</time></trkpt><trkpt lat="42.6446006435321" lon="11.515317690956898"><ele>151.66666666666666</ele><time>2026-03-29T12:54:09.986Z</time></trkpt><trkpt lat="42.64463224247863" lon="11.515235437283025"><ele>152.5</ele><time>2026-03-29T12:54:10.986Z</time></trkpt><trkpt lat="42.64469824507033" lon="11.515162175116142"><ele>153.33333333333331</ele><time>2026-03-29T12:54:11.985Z</time></trkpt><trkpt lat="42.64477846074298" lon="11.515104790455812"><ele>154.16666666666666</ele><time>2026-03-29T12:54:12.985Z</time></trkpt><trkpt lat="42.64487024699276" lon="11.515051927824866"><ele>155.0</ele><time>2026-03-29T12:54:13.985Z</time></trkpt><trkpt lat="42.64495296178241" lon="11.514987046584833"><ele>155.0</ele><time>2026-03-29T12:54:14.985Z</time></trkpt><trkpt lat="42.64502294267381" lon="11.514906104023533"><ele>155.0</ele><time>2026-03-29T12:54:15.985Z</time></trkpt><trkpt lat="42.645074138759924" lon="11.514800408829586"><ele>155.0</ele><time>2026-03-29T12:54:16.985Z</time></trkpt><trkpt lat="42.64510123701222" lon="11.514671273116388"><ele>155.0</ele><time>2026-03-29T12:54:17.985Z</time></trkpt><trkpt lat="42.645106283485426" lon="11.514519851426574"><ele>155.0</ele><time>2026-03-29T12:54:18.985Z</time></trkpt><trkpt lat="42.645101774602324" lon="11.514361440983302"><ele>157.5</ele><time>2026-03-29T12:54:19.985Z</time></trkpt><trkpt lat="42.64512471613122" lon="11.51417745495233"><ele>160.0</ele><time>2026-03-29T12:54:20.985Z</time></trkpt><trkpt lat="42.645130913238276" lon="11.513998229612714"><ele>162.5</ele><time>2026-03-29T12:54:21.985Z</time></trkpt><trkpt lat="42.64514177730043" lon="11.51382511612871"><ele>165.0</ele><time>2026-03-29T12:54:22.985Z</time></trkpt><trkpt lat="42.64517292551576" lon="11.51365764750499"><ele>167.75</ele><time>2026-03-29T12:54:23.985Z</time></trkpt><trkpt lat="42.64522658907903" lon="11.513510074886643"><ele>170.5</ele><time>2026-03-29T12:54:24.985Z</time></trkpt><trkpt lat="42.645305481798026" lon="11.513389740630775"><ele>173.25</ele><time>2026-03-29T12:54:25.985Z</time></trkpt><trkpt lat="42.645389412380005" lon="11.513289580346429"><ele>176.0</ele><time>2026-03-29T12:54:26.985Z</time></trkpt><trkpt lat="42.64546073449052" lon="11.513191569439654"><ele>172.8</ele><time>2026-03-29T12:54:27.985Z</time></trkpt><trkpt lat="42.64551183225017" lon="11.51308998786115"><ele>169.60000000000002</ele><time>2026-03-29T12:54:28.985Z</time></trkpt><trkpt lat="42.645560009032216" lon="11.512979511069704"><ele>166.4</ele><time>2026-03-29T12:54:29.985Z</time></trkpt><trkpt lat="42.64560352325266" lon="11.51286273537704"><ele>163.2</ele><time>2026-03-29T12:54:30.985Z</time></trkpt><trkpt lat="42.64563206808594" lon="11.512736432593988"><ele>160.0</ele><time>2026-03-29T12:54:31.985Z</time></trkpt><trkpt lat="42.645640489005224" lon="11.512611105072263"><ele>160.0</ele><time>2026-03-29T12:54:32.985Z</time></trkpt><trkpt lat="42.645610071081805" lon="11.512480131137023"><ele>160.0</ele><time>2026-03-29T12:54:33.985Z</time></trkpt><trkpt lat="42.64555727013244" lon="11.512370312801739"><ele>160.0</ele><time>2026-03-29T12:54:34.985Z</time></trkpt><trkpt lat="42.64548867283536" lon="11.512281372224425"><ele>160.0</ele><time>2026-03-29T12:54:35.985Z</time></trkpt><trkpt lat="42.6454073267923" lon="11.512205065850246"><ele>160.0</ele><time>2026-03-29T12:54:36.985Z</time></trkpt><trkpt lat="42.645329482317116" lon="11.512123158119984"><ele>164.8</ele><time>2026-03-29T12:54:37.985Z</time></trkpt><trkpt lat="42.64525697631147" lon="11.512034345326155"><ele>169.6</ele><time>2026-03-29T12:54:38.985Z</time></trkpt><trkpt lat="42.64519911022833" lon="11.511919460387773"><ele>174.39999999999998</ele><time>2026-03-29T12:54:39.985Z</time></trkpt><trkpt lat="42.645145452073265" lon="11.511788070597946"><ele>179.2</ele><time>2026-03-29T12:54:40.985Z</time></trkpt><trkpt lat="42.64513217875405" lon="11.511632186076879"><ele>184.0</ele><time>2026-03-29T12:54:41.985Z</time></trkpt><trkpt lat="42.64512285443028" lon="11.511476183962703"><ele>184.0</ele><time>2026-03-29T12:54:42.985Z</time></trkpt><trkpt lat="42.645102332944134" lon="11.511312656285543"><ele>184.0</ele><time>2026-03-29T12:54:43.985Z</time></trkpt><trkpt lat="42.645104903007045" lon="11.511162323196407"><ele>184.0</ele><time>2026-03-29T12:54:44.985Z</time></trkpt><trkpt lat="42.64510839125895" lon="11.511019512619171"><ele>184.0</ele><time>2026-03-29T12:54:45.985Z</time></trkpt><trkpt lat="42.645084297484" lon="11.510888918942204"><ele>184.0</ele><time>2026-03-29T12:54:46.985Z</time></trkpt><trkpt lat="42.645025452479324" lon="11.510770860145515"><ele>184.6</ele><time>2026-03-29T12:54:47.985Z</time></trkpt><trkpt lat="42.644929355913334" lon="11.510703069192568"><ele>185.2</ele><time>2026-03-29T12:54:48.985Z</time></trkpt><trkpt lat="42.644826554379414" lon="11.510705281164485"><ele>185.79999999999998</ele><time>2026-03-29T12:54:49.985Z</time></trkpt><trkpt lat="42.64472899359452" lon="11.510692956063695"><ele>186.39999999999998</ele><time>2026-03-29T12:54:50.985Z</time></trkpt><trkpt lat="42.644624863546056" lon="11.5106821835899"><ele>187.0</ele><time>2026-03-29T12:54:51.985Z</time></trkpt><trkpt lat="42.64450155569569" lon="11.510643239490504"><ele>188.75</ele><time>2026-03-29T12:54:52.985Z</time></trkpt><trkpt lat="42.64435505703283" lon="11.510623601376526"><ele>190.5</ele><time>2026-03-29T12:54:53.984Z</time></trkpt><trkpt lat="42.64422418341847" lon="11.510590209282455"><ele>192.25</ele><time>2026-03-29T12:54:54.984Z</time></trkpt><trkpt lat="42.64408151493389" lon="11.510552526318824"><ele>194.0</ele><time>2026-03-29T12:54:55.984Z</time></trkpt><trkpt lat="42.64393170065864" lon="11.51050661978562"><ele>194.0</ele><time>2026-03-29T12:54:56.984Z</time></trkpt><trkpt lat="42.64378867266486" lon="11.510449173281941"><ele>194.0</ele><time>2026-03-29T12:54:57.984Z</time></trkpt><trkpt lat="42.64365511245698" lon="11.510380709349262"><ele>194.0</ele><time>2026-03-29T12:54:58.984Z</time></trkpt><trkpt lat="42.64352651331442" lon="11.51029423442497"><ele>194.0</ele><time>2026-03-29T12:54:59.984Z</time></trkpt><trkpt lat="42.64340560970699" lon="11.510203950532171"><ele>194.5</ele><time>2026-03-29T12:55:00.984Z</time></trkpt><trkpt lat="42.6432871614663" lon="11.510106177547339"><ele>195.0</ele><time>2026-03-29T12:55:01.984Z</time></trkpt><trkpt lat="42.6431698365385" lon="11.509998663952642"><ele>195.5</ele><time>2026-03-29T12:55:02.984Z</time></trkpt><trkpt lat="42.643053821360475" lon="11.509891180700974"><ele>196.0</ele><time>2026-03-29T12:55:03.984Z</time></trkpt><trkpt lat="42.64294083173466" lon="11.509782710802824"><ele>196.0</ele><time>2026-03-29T12:55:04.984Z</time></trkpt><trkpt lat="42.64283051455705" lon="11.50967637896173"><ele>196.0</ele><time>2026-03-29T12:55:05.984Z</time></trkpt><trkpt lat="42.642717796004746" lon="11.509565988917934"><ele>196.0</ele><time>2026-03-29T12:55:06.984Z</time></trkpt><trkpt lat="42.64260195576667" lon="11.50946182089944"><ele>196.0</ele><time>2026-03-29T12:55:07.984Z</time></trkpt><trkpt lat="42.642482289978" lon="11.509352716423187"><ele>197.25</ele><time>2026-03-29T12:55:08.984Z</time></trkpt><trkpt lat="42.64236601905998" lon="11.50924236715347"><ele>198.5</ele><time>2026-03-29T12:55:09.984Z</time></trkpt><trkpt lat="42.642250290464716" lon="11.509130119372784"><ele>199.75</ele><time>2026-03-29T12:55:10.984Z</time></trkpt><trkpt lat="42.64213706868658" lon="11.509017649915641"><ele>201.0</ele><time>2026-03-29T12:55:11.984Z</time></trkpt><trkpt lat="42.642022931527485" lon="11.508909174582495"><ele>201.75</ele><time>2026-03-29T12:55:12.984Z</time></trkpt><trkpt lat="42.641915313901315" lon="11.508807112765206"><ele>202.5</ele><time>2026-03-29T12:55:13.984Z</time></trkpt><trkpt lat="42.64180978540704" lon="11.508709970074356"><ele>203.25</ele><time>2026-03-29T12:55:14.984Z</time></trkpt><trkpt lat="42.64170287885631" lon="11.508607939851323"><ele>204.0</ele><time>2026-03-29T12:55:15.984Z</time></trkpt><trkpt lat="42.64159626645401" lon="11.508507108289766"><ele>204.0</ele><time>2026-03-29T12:55:16.984Z</time></trkpt><trkpt lat="42.64148553509126" lon="11.50840973556696"><ele>204.0</ele><time>2026-03-29T12:55:17.984Z</time></trkpt><trkpt lat="42.64137181956132" lon="11.508310479211715"><ele>204.0</ele><time>2026-03-29T12:55:18.984Z</time></trkpt><trkpt lat="42.64125760487352" lon="11.508212048731776"><ele>204.0</ele><time>2026-03-29T12:55:19.984Z</time></trkpt><trkpt lat="42.64114569927384" lon="11.508113114072682"><ele>203.5</ele><time>2026-03-29T12:55:20.984Z</time></trkpt><trkpt lat="42.641032055202345" lon="11.508003474208223"><ele>203.0</ele><time>2026-03-29T12:55:21.984Z</time></trkpt><trkpt lat="42.64091941946811" lon="11.507893459068452"><ele>202.5</ele><time>2026-03-29T12:55:22.984Z</time></trkpt><trkpt lat="42.640805969989515" lon="11.507785729143482"><ele>202.0</ele><time>2026-03-29T12:55:23.984Z</time></trkpt><trkpt lat="42.64069102470416" lon="11.507677820914529"><ele>202.0</ele><time>2026-03-29T12:55:24.984Z</time></trkpt><trkpt lat="42.64057648589929" lon="11.50756880088898"><ele>202.0</ele><time>2026-03-29T12:55:25.984Z</time></trkpt><trkpt lat="42.640463340392856" lon="11.50746055690002"><ele>202.0</ele><time>2026-03-29T12:55:26.984Z</time></trkpt><trkpt lat="42.64034955943836" lon="11.507351322390186"><ele>202.0</ele><time>2026-03-29T12:55:27.984Z</time></trkpt><trkpt lat="42.6402358616893" lon="11.507245696932614"><ele>202.0</ele><time>2026-03-29T12:55:28.984Z</time></trkpt><trkpt lat="42.640121131665914" lon="11.507138707272354"><ele>202.0</ele><time>2026-03-29T12:55:29.984Z</time></trkpt><trkpt lat="42.64000751361527" lon="11.507029482841144"><ele>202.0</ele><time>2026-03-29T12:55:30.984Z</time></trkpt><trkpt lat="42.63989327058401" lon="11.506921288098376"><ele>202.0</ele><time>2026-03-29T12:55:31.984Z</time></trkpt><trkpt lat="42.639778701728694" lon="11.506812574459387"><ele>202.25</ele><time>2026-03-29T12:55:32.984Z</time></trkpt><trkpt lat="42.63966437538271" lon="11.506702564072503"><ele>202.5</ele><time>2026-03-29T12:55:33.984Z</time></trkpt><trkpt lat="42.639548915549895" lon="11.506594223069666"><ele>202.75</ele><time>2026-03-29T12:55:34.984Z</time></trkpt><trkpt lat="42.63943707944116" lon="11.506488829076627"><ele>203.0</ele><time>2026-03-29T12:55:35.983Z</time></trkpt><trkpt lat="42.639324241764434" lon="11.50638515738454"><ele>203.25</ele><time>2026-03-29T12:55:36.983Z</time></trkpt><trkpt lat="42.63921278299612" lon="11.506282677858472"><ele>203.5</ele><time>2026-03-29T12:55:37.983Z</time></trkpt><trkpt lat="42.6391006008405" lon="11.506181420870597"><ele>203.75</ele><time>2026-03-29T12:55:38.983Z</time></trkpt><trkpt lat="42.63899463206424" lon="11.506080793899653"><ele>204.0</ele><time>2026-03-29T12:55:39.983Z</time></trkpt><trkpt lat="42.638888140153824" lon="11.505981350780186"><ele>204.25</ele><time>2026-03-29T12:55:40.983Z</time></trkpt><trkpt lat="42.63878423597454" lon="11.505882884769441"><ele>204.5</ele><time>2026-03-29T12:55:41.983Z</time></trkpt><trkpt lat="42.63868005920474" lon="11.505784107900146"><ele>204.75</ele><time>2026-03-29T12:55:42.983Z</time></trkpt><trkpt lat="42.638574349656714" lon="11.505684002971586"><ele>205.0</ele><time>2026-03-29T12:55:43.983Z</time></trkpt><trkpt lat="42.638469396778326" lon="11.505582189589102"><ele>205.0</ele><time>2026-03-29T12:55:44.983Z</time></trkpt><trkpt lat="42.638366641493484" lon="11.50548711060228"><ele>205.0</ele><time>2026-03-29T12:55:45.983Z</time></trkpt><trkpt lat="42.63826435698365" lon="11.505390707601903"><ele>205.0</ele><time>2026-03-29T12:55:46.983Z</time></trkpt><trkpt lat="42.63815711897516" lon="11.505295388005226"><ele>205.0</ele><time>2026-03-29T12:55:47.983Z</time></trkpt><trkpt lat="42.63804916149458" lon="11.50520254158842"><ele>205.0</ele><time>2026-03-29T12:55:48.983Z</time></trkpt><trkpt lat="42.63793627293599" lon="11.505103318885677"><ele>205.0</ele><time>2026-03-29T12:55:49.983Z</time></trkpt><trkpt lat="42.63782107883998" lon="11.504999679221866"><ele>205.0</ele><time>2026-03-29T12:55:50.983Z</time></trkpt><trkpt lat="42.63770386922316" lon="11.504894626635721"><ele>205.0</ele><time>2026-03-29T12:55:51.983Z</time></trkpt><trkpt lat="42.63759110964918" lon="11.504783284770612"><ele>205.25</ele><time>2026-03-29T12:55:52.983Z</time></trkpt><trkpt lat="42.63747259765901" lon="11.504669670743429"><ele>205.5</ele><time>2026-03-29T12:55:53.983Z</time></trkpt><trkpt lat="42.63735290885669" lon="11.504558107436123"><ele>205.75</ele><time>2026-03-29T12:55:54.983Z</time></trkpt><trkpt lat="42.63723419469332" lon="11.504448956399324"><ele>206.0</ele><time>2026-03-29T12:55:55.983Z</time></trkpt><trkpt lat="42.63711581533649" lon="11.504329060978234"><ele>206.0</ele><time>2026-03-29T12:55:56.983Z</time></trkpt><trkpt lat="42.636994473061456" lon="11.504212323110938"><ele>206.0</ele><time>2026-03-29T12:55:57.983Z</time></trkpt><trkpt lat="42.63687329548594" lon="11.504095613600452"><ele>206.0</ele><time>2026-03-29T12:55:58.983Z</time></trkpt><trkpt lat="42.636747765806966" lon="11.503982631675703"><ele>206.0</ele><time>2026-03-29T12:55:59.983Z</time></trkpt><trkpt lat="42.63662165983333" lon="11.503864250991152"><ele>205.5</ele><time>2026-03-29T12:56:00.983Z</time></trkpt><trkpt lat="42.63650064263384" lon="11.503745366955307"><ele>205.0</ele><time>2026-03-29T12:56:01.983Z</time></trkpt><trkpt lat="42.63638033583924" lon="11.503629386664219"><ele>204.5</ele><time>2026-03-29T12:56:02.983Z</time></trkpt><trkpt lat="42.63626366823774" lon="11.503520078901358"><ele>204.0</ele><time>2026-03-29T12:56:03.983Z</time></trkpt><trkpt lat="42.636141438378246" lon="11.503406507547304"><ele>204.66666666666669</ele><time>2026-03-29T12:56:04.983Z</time></trkpt><trkpt lat="42.63601520519368" lon="11.503294772300848"><ele>205.33333333333334</ele><time>2026-03-29T12:56:05.983Z</time></trkpt><trkpt lat="42.63588688156329" lon="11.503178199673744"><ele>206.0</ele><time>2026-03-29T12:56:06.983Z</time></trkpt><trkpt lat="42.63575769457754" lon="11.503059475224392"><ele>206.0</ele><time>2026-03-29T12:56:07.983Z</time></trkpt><trkpt lat="42.6356311506235" lon="11.502942614756074"><ele>206.0</ele><time>2026-03-29T12:56:08.985Z</time></trkpt><trkpt lat="42.63550570345502" lon="11.502825370878208"><ele>206.0</ele><time>2026-03-29T12:56:09.985Z</time></trkpt><trkpt lat="42.63537934356957" lon="11.50270909785675"><ele>206.66666666666669</ele><time>2026-03-29T12:56:10.985Z</time></trkpt><trkpt lat="42.63525144480598" lon="11.502583356337333"><ele>207.33333333333331</ele><time>2026-03-29T12:56:11.984Z</time></trkpt><trkpt lat="42.63511736673396" lon="11.50246392290392"><ele>208.0</ele><time>2026-03-29T12:56:12.984Z</time></trkpt><trkpt lat="42.634977996397915" lon="11.502341500877888"><ele>208.0</ele><time>2026-03-29T12:56:13.984Z</time></trkpt><trkpt lat="42.63483171477048" lon="11.502209480679198"><ele>208.0</ele><time>2026-03-29T12:56:14.984Z</time></trkpt><trkpt lat="42.6346845681912" lon="11.502068910536059"><ele>208.0</ele><time>2026-03-29T12:56:15.984Z</time></trkpt><trkpt lat="42.63453589914761" lon="11.501922896932713"><ele>208.66666666666666</ele><time>2026-03-29T12:56:16.984Z</time></trkpt><trkpt lat="42.63438414956652" lon="11.501777082788315"><ele>209.33333333333331</ele><time>2026-03-29T12:56:17.984Z</time></trkpt><trkpt lat="42.63423961379779" lon="11.501636925299918"><ele>210.0</ele><time>2026-03-29T12:56:18.984Z</time></trkpt><trkpt lat="42.634096433665746" lon="11.501495390804697"><ele>210.0</ele><time>2026-03-29T12:56:19.984Z</time></trkpt><trkpt lat="42.633955159809446" lon="11.501359585251643"><ele>210.0</ele><time>2026-03-29T12:56:20.984Z</time></trkpt><trkpt lat="42.633817634502" lon="11.50122970614713"><ele>210.0</ele><time>2026-03-29T12:56:21.984Z</time></trkpt><trkpt lat="42.633683566856504" lon="11.501099956563825"><ele>210.0</ele><time>2026-03-29T12:56:22.984Z</time></trkpt><trkpt lat="42.6335449033252" lon="11.500970939064146"><ele>210.0</ele><time>2026-03-29T12:56:23.984Z</time></trkpt><trkpt lat="42.6334087338123" lon="11.500844650339083"><ele>210.0</ele><time>2026-03-29T12:56:24.984Z</time></trkpt><trkpt lat="42.63327783669315" lon="11.500718250626795"><ele>210.0</ele><time>2026-03-29T12:56:25.984Z</time></trkpt><trkpt lat="42.63315328479115" lon="11.500600834438181"><ele>210.0</ele><time>2026-03-29T12:56:26.984Z</time></trkpt><trkpt lat="42.63303179223398" lon="11.500486697027057"><ele>210.0</ele><time>2026-03-29T12:56:27.984Z</time></trkpt><trkpt lat="42.63291026617772" lon="11.500379769448724"><ele>210.0</ele><time>2026-03-29T12:56:28.984Z</time></trkpt><trkpt lat="42.63278757702527" lon="11.500285291575718"><ele>211.75</ele><time>2026-03-29T12:56:29.984Z</time></trkpt><trkpt lat="42.63265719069158" lon="11.500211610043301"><ele>213.5</ele><time>2026-03-29T12:56:30.984Z</time></trkpt><trkpt lat="42.632521778941765" lon="11.500154473034994"><ele>215.25</ele><time>2026-03-29T12:56:31.984Z</time></trkpt><trkpt lat="42.63238559600209" lon="11.500109375593235"><ele>217.0</ele><time>2026-03-29T12:56:32.984Z</time></trkpt><trkpt lat="42.6322463480781" lon="11.500074705961747"><ele>217.0</ele><time>2026-03-29T12:56:33.984Z</time></trkpt><trkpt lat="42.63210973384844" lon="11.500048942660886"><ele>217.0</ele><time>2026-03-29T12:56:34.984Z</time></trkpt><trkpt lat="42.63197130016202" lon="11.500028415257278"><ele>217.0</ele><time>2026-03-29T12:56:35.984Z</time></trkpt><trkpt lat="42.63183355211917" lon="11.500004423223919"><ele>217.0</ele><time>2026-03-29T12:56:36.984Z</time></trkpt><trkpt lat="42.63169674751481" lon="11.499978401609592"><ele>218.25</ele><time>2026-03-29T12:56:37.984Z</time></trkpt><trkpt lat="42.631561566127864" lon="11.499939812289982"><ele>219.5</ele><time>2026-03-29T12:56:38.984Z</time></trkpt><trkpt lat="42.63143390825871" lon="11.499916579763674"><ele>220.75</ele><time>2026-03-29T12:56:39.984Z</time></trkpt><trkpt lat="42.63130623312343" lon="11.499888754422843"><ele>222.0</ele><time>2026-03-29T12:56:40.984Z</time></trkpt><trkpt lat="42.63118135363614" lon="11.499867028942031"><ele>223.5</ele><time>2026-03-29T12:56:41.984Z</time></trkpt><trkpt lat="42.63105107835925" lon="11.499840108604772"><ele>225.0</ele><time>2026-03-29T12:56:42.984Z</time></trkpt><trkpt lat="42.63091283571457" lon="11.499813129167245"><ele>226.5</ele><time>2026-03-29T12:56:43.984Z</time></trkpt><trkpt lat="42.63077676222636" lon="11.499786700303595"><ele>228.0</ele><time>2026-03-29T12:56:44.984Z</time></trkpt><trkpt lat="42.63063356722313" lon="11.499759175390308"><ele>228.0</ele><time>2026-03-29T12:56:45.984Z</time></trkpt><trkpt lat="42.630491049912315" lon="11.49973186764646"><ele>228.0</ele><time>2026-03-29T12:56:46.984Z</time></trkpt><trkpt lat="42.630344138541595" lon="11.49969722374946"><ele>228.0</ele><time>2026-03-29T12:56:47.984Z</time></trkpt><trkpt lat="42.63020201537017" lon="11.49966681178395"><ele>228.0</ele><time>2026-03-29T12:56:48.983Z</time></trkpt><trkpt lat="42.630057197891425" lon="11.499627363397673"><ele>226.0</ele><time>2026-03-29T12:56:49.983Z</time></trkpt><trkpt lat="42.62991162298379" lon="11.499561147199412"><ele>224.0</ele><time>2026-03-29T12:56:50.983Z</time></trkpt><trkpt lat="42.62977359795129" lon="11.499458981792197"><ele>222.0</ele><time>2026-03-29T12:56:51.983Z</time></trkpt><trkpt lat="42.62964094740833" lon="11.49934177426386"><ele>222.0</ele><time>2026-03-29T12:56:52.983Z</time></trkpt><trkpt lat="42.629501244991985" lon="11.499237282989444"><ele>222.0</ele><time>2026-03-29T12:56:53.983Z</time></trkpt><trkpt lat="42.62935278543403" lon="11.499154452584827"><ele>222.0</ele><time>2026-03-29T12:56:54.983Z</time></trkpt><trkpt lat="42.62918887409767" lon="11.499095287712153"><ele>225.33333333333331</ele><time>2026-03-29T12:56:55.983Z</time></trkpt><trkpt lat="42.62902470885731" lon="11.499048456839569"><ele>228.66666666666666</ele><time>2026-03-29T12:56:56.983Z</time></trkpt><trkpt lat="42.628868200402565" lon="11.499027376051096"><ele>232.0</ele><time>2026-03-29T12:56:57.983Z</time></trkpt><trkpt lat="42.628715229561536" lon="11.498995611594431"><ele>231.75</ele><time>2026-03-29T12:56:58.983Z</time></trkpt><trkpt lat="42.62858150119643" lon="11.498937980049753"><ele>231.5</ele><time>2026-03-29T12:56:59.983Z</time></trkpt><trkpt lat="42.628459060208215" lon="11.498861345768077"><ele>231.25</ele><time>2026-03-29T12:57:00.983Z</time></trkpt><trkpt lat="42.62834693925406" lon="11.498768304358979"><ele>231.0</ele><time>2026-03-29T12:57:01.983Z</time></trkpt><trkpt lat="42.62824067978881" lon="11.498653027981952"><ele>231.0</ele><time>2026-03-29T12:57:02.983Z</time></trkpt><trkpt lat="42.628130822893" lon="11.498526952765717"><ele>231.0</ele><time>2026-03-29T12:57:03.983Z</time></trkpt><trkpt lat="42.62801419971704" lon="11.498401179255934"><ele>231.0</ele><time>2026-03-29T12:57:04.983Z</time></trkpt><trkpt lat="42.627892800412056" lon="11.498272064100663"><ele>231.0</ele><time>2026-03-29T12:57:05.983Z</time></trkpt><trkpt lat="42.62777960047104" lon="11.498122872975436"><ele>230.66666666666669</ele><time>2026-03-29T12:57:06.983Z</time></trkpt><trkpt lat="42.62764658853849" lon="11.498003522067709"><ele>230.33333333333334</ele><time>2026-03-29T12:57:07.983Z</time></trkpt><trkpt lat="42.627535585780805" lon="11.497854402970365"><ele>230.0</ele><time>2026-03-29T12:57:08.983Z</time></trkpt><trkpt lat="42.62741196338505" lon="11.497718461153658"><ele>230.0</ele><time>2026-03-29T12:57:09.983Z</time></trkpt><trkpt lat="42.62727340739225" lon="11.49758643635664"><ele>230.0</ele><time>2026-03-29T12:57:10.983Z</time></trkpt><trkpt lat="42.627137978353126" lon="11.497437379174409"><ele>230.0</ele><time>2026-03-29T12:57:11.983Z</time></trkpt><trkpt lat="42.627000305889695" lon="11.497291957546164"><ele>228.33333333333334</ele><time>2026-03-29T12:57:12.983Z</time></trkpt><trkpt lat="42.62686534686686" lon="11.497154137034878"><ele>226.66666666666669</ele><time>2026-03-29T12:57:13.983Z</time></trkpt><trkpt lat="42.62674294837792" lon="11.496997273934609"><ele>225.0</ele><time>2026-03-29T12:57:14.983Z</time></trkpt><trkpt lat="42.62661693681492" lon="11.496862794739506"><ele>224.5</ele><time>2026-03-29T12:57:15.983Z</time></trkpt><trkpt lat="42.62650265486734" lon="11.496729388181814"><ele>224.0</ele><time>2026-03-29T12:57:16.983Z</time></trkpt><trkpt lat="42.62639542977151" lon="11.496598537221777"><ele>223.5</ele><time>2026-03-29T12:57:17.983Z</time></trkpt><trkpt lat="42.62634325110909" lon="11.4964184731032"><ele>223.0</ele><time>2026-03-29T12:57:18.983Z</time></trkpt><trkpt lat="42.626297555564534" lon="11.496225308693191"><ele>222.33333333333331</ele><time>2026-03-29T12:57:19.983Z</time></trkpt><trkpt lat="42.62627662751105" lon="11.496013156763102"><ele>221.66666666666669</ele><time>2026-03-29T12:57:20.983Z</time></trkpt><trkpt lat="42.62627252530031" lon="11.495787962930931"><ele>221.0</ele><time>2026-03-29T12:57:21.983Z</time></trkpt><trkpt lat="42.6262824831994" lon="11.495543985888075"><ele>219.33333333333334</ele><time>2026-03-29T12:57:22.983Z</time></trkpt><trkpt lat="42.626312877730435" lon="11.495293285126618"><ele>217.66666666666669</ele><time>2026-03-29T12:57:23.983Z</time></trkpt><trkpt lat="42.626357353830166" lon="11.495055304249062"><ele>216.0</ele><time>2026-03-29T12:57:24.983Z</time></trkpt><trkpt lat="42.62639241754013" lon="11.494812469925579"><ele>216.33333333333331</ele><time>2026-03-29T12:57:25.983Z</time></trkpt><trkpt lat="42.626448384443655" lon="11.494568025793283"><ele>216.66666666666666</ele><time>2026-03-29T12:57:26.983Z</time></trkpt><trkpt lat="42.62649761524417" lon="11.494324919395462"><ele>217.0</ele><time>2026-03-29T12:57:27.983Z</time></trkpt><trkpt lat="42.62653915921196" lon="11.494100649502377"><ele>217.0</ele><time>2026-03-29T12:57:28.983Z</time></trkpt><trkpt lat="42.62658349837141" lon="11.493886060184447"><ele>217.0</ele><time>2026-03-29T12:57:29.983Z</time></trkpt><trkpt lat="42.626555182779896" lon="11.493681286007657"><ele>217.0</ele><time>2026-03-29T12:57:30.983Z</time></trkpt><trkpt lat="42.626513941556865" lon="11.493495418535293"><ele>218.5</ele><time>2026-03-29T12:57:31.982Z</time></trkpt><trkpt lat="42.626449143807136" lon="11.493332463394713"><ele>220.0</ele><time>2026-03-29T12:57:32.982Z</time></trkpt><trkpt lat="42.62636791885137" lon="11.4931861411729"><ele>221.5</ele><time>2026-03-29T12:57:33.982Z</time></trkpt><trkpt lat="42.62628490436088" lon="11.49303664822535"><ele>223.0</ele><time>2026-03-29T12:57:34.982Z</time></trkpt><trkpt lat="42.626202875069595" lon="11.492878979114455"><ele>222.5</ele><time>2026-03-29T12:57:35.982Z</time></trkpt><trkpt lat="42.626120565785264" lon="11.492709868202097"><ele>222.0</ele><time>2026-03-29T12:57:36.982Z</time></trkpt><trkpt lat="42.62603902934351" lon="11.492552118238997"><ele>221.5</ele><time>2026-03-29T12:57:37.982Z</time></trkpt><trkpt lat="42.62596572158831" lon="11.49239875087907"><ele>221.0</ele><time>2026-03-29T12:57:38.982Z</time></trkpt><trkpt lat="42.62588390401884" lon="11.492266932653491"><ele>221.0</ele><time>2026-03-29T12:57:39.982Z</time></trkpt><trkpt lat="42.62581317269385" lon="11.492134387251193"><ele>221.0</ele><time>2026-03-29T12:57:40.982Z</time></trkpt><trkpt lat="42.62574386401126" lon="11.491999624908576"><ele>221.0</ele><time>2026-03-29T12:57:41.982Z</time></trkpt><trkpt lat="42.62567214708223" lon="11.491863547089208"><ele>221.0</ele><time>2026-03-29T12:57:42.982Z</time></trkpt><trkpt lat="42.62560365132288" lon="11.49173191282855"><ele>221.8</ele><time>2026-03-29T12:57:43.982Z</time></trkpt><trkpt lat="42.62553887554696" lon="11.491610264942695"><ele>222.60000000000002</ele><time>2026-03-29T12:57:44.982Z</time></trkpt><trkpt lat="42.62548442156458" lon="11.49150117843776"><ele>223.4</ele><time>2026-03-29T12:57:45.982Z</time></trkpt><trkpt lat="42.62542975881741" lon="11.491407293150871"><ele>224.2</ele><time>2026-03-29T12:57:46.982Z</time></trkpt><trkpt lat="42.62539010850671" lon="11.491326863874544"><ele>225.0</ele><time>2026-03-29T12:57:47.982Z</time></trkpt><trkpt lat="42.62536281611023" lon="11.491208059496945"><ele>226.25</ele><time>2026-03-29T12:57:49.982Z</time></trkpt><trkpt lat="42.62546931246556" lon="11.491099441325105"><ele>227.5</ele><time>2026-03-29T12:57:52.982Z</time></trkpt><trkpt lat="42.62556578613611" lon="11.491099840800896"><ele>228.75</ele><time>2026-03-29T12:57:53.982Z</time></trkpt><trkpt lat="42.625669621331916" lon="11.491088612552284"><ele>230.0</ele><time>2026-03-29T12:57:54.982Z</time></trkpt><trkpt lat="42.62579813668662" lon="11.491059780678397"><ele>230.0</ele><time>2026-03-29T12:57:55.982Z</time></trkpt><trkpt lat="42.62593473096644" lon="11.49102804365451"><ele>230.0</ele><time>2026-03-29T12:57:56.982Z</time></trkpt><trkpt lat="42.62605479367237" lon="11.491002973656633"><ele>230.0</ele><time>2026-03-29T12:57:57.982Z</time></trkpt><trkpt lat="42.62617906151423" lon="11.490980198947836"><ele>230.0</ele><time>2026-03-29T12:57:58.982Z</time></trkpt><trkpt lat="42.62629728880203" lon="11.49096474044292"><ele>230.25</ele><time>2026-03-29T12:57:59.982Z</time></trkpt><trkpt lat="42.626419095153736" lon="11.490934637035997"><ele>230.5</ele><time>2026-03-29T12:58:00.982Z</time></trkpt><trkpt lat="42.626539258217846" lon="11.490884196354536"><ele>230.75</ele><time>2026-03-29T12:58:01.982Z</time></trkpt><trkpt lat="42.62666485574812" lon="11.490820492584842"><ele>231.0</ele><time>2026-03-29T12:58:02.982Z</time></trkpt><trkpt lat="42.62678828572419" lon="11.49073838290934"><ele>231.0</ele><time>2026-03-29T12:58:03.982Z</time></trkpt><trkpt lat="42.62691296803959" lon="11.490651793465638"><ele>231.0</ele><time>2026-03-29T12:58:04.982Z</time></trkpt><trkpt lat="42.6270409178407" lon="11.490577801343916"><ele>231.0</ele><time>2026-03-29T12:58:05.982Z</time></trkpt><trkpt lat="42.6271707530507" lon="11.490506098745437"><ele>231.0</ele><time>2026-03-29T12:58:06.982Z</time></trkpt><trkpt lat="42.62730375648799" lon="11.490430441166227"><ele>229.0</ele><time>2026-03-29T12:58:07.982Z</time></trkpt><trkpt lat="42.62743611729873" lon="11.490341250023517"><ele>227.0</ele><time>2026-03-29T12:58:08.982Z</time></trkpt><trkpt lat="42.6275660127989" lon="11.490254542265609"><ele>225.0</ele><time>2026-03-29T12:58:09.982Z</time></trkpt><trkpt lat="42.62769668132105" lon="11.49016706165217"><ele>223.0</ele><time>2026-03-29T12:58:10.982Z</time></trkpt><trkpt lat="42.62782937076794" lon="11.490068075435481"><ele>220.33333333333331</ele><time>2026-03-29T12:58:11.982Z</time></trkpt><trkpt lat="42.627969470970974" lon="11.48997696988282"><ele>217.66666666666669</ele><time>2026-03-29T12:58:12.982Z</time></trkpt><trkpt lat="42.628111078363474" lon="11.489879879429822"><ele>215.0</ele><time>2026-03-29T12:58:13.981Z</time></trkpt><trkpt lat="42.628250056393696" lon="11.489779236475833"><ele>215.0</ele><time>2026-03-29T12:58:14.983Z</time></trkpt><trkpt lat="42.62838347002367" lon="11.489663834262013"><ele>215.0</ele><time>2026-03-29T12:58:15.983Z</time></trkpt><trkpt lat="42.62850785685504" lon="11.48953588036821"><ele>215.0</ele><time>2026-03-29T12:58:16.983Z</time></trkpt><trkpt lat="42.62862568623429" lon="11.489395312101713"><ele>215.33333333333334</ele><time>2026-03-29T12:58:17.984Z</time></trkpt><trkpt lat="42.628739234695416" lon="11.48924726047893"><ele>215.66666666666669</ele><time>2026-03-29T12:58:18.984Z</time></trkpt><trkpt lat="42.62885014738035" lon="11.489100865210364"><ele>216.0</ele><time>2026-03-29T12:58:19.984Z</time></trkpt><trkpt lat="42.6289602366674" lon="11.488959815262865"><ele>216.0</ele><time>2026-03-29T12:58:20.984Z</time></trkpt><trkpt lat="42.62906995305465" lon="11.48881392443987"><ele>216.0</ele><time>2026-03-29T12:58:21.984Z</time></trkpt><trkpt lat="42.62918196765885" lon="11.488662329539862"><ele>216.0</ele><time>2026-03-29T12:58:22.984Z</time></trkpt><trkpt lat="42.62929587249623" lon="11.488508260087974"><ele>215.0</ele><time>2026-03-29T12:58:23.984Z</time></trkpt><trkpt lat="42.629411345417886" lon="11.488349816786274"><ele>214.0</ele><time>2026-03-29T12:58:24.984Z</time></trkpt><trkpt lat="42.62952740172873" lon="11.488192653717002"><ele>213.0</ele><time>2026-03-29T12:58:25.984Z</time></trkpt><trkpt lat="42.629635620862274" lon="11.48804451967514"><ele>210.0</ele><time>2026-03-29T12:58:26.984Z</time></trkpt><trkpt lat="42.629760471506614" lon="11.487909257794957"><ele>207.0</ele><time>2026-03-29T12:58:27.984Z</time></trkpt><trkpt lat="42.62987231743768" lon="11.487762604207674"><ele>204.0</ele><time>2026-03-29T12:58:28.984Z</time></trkpt><trkpt lat="42.62998598936666" lon="11.487613556364963"><ele>204.0</ele><time>2026-03-29T12:58:29.984Z</time></trkpt><trkpt lat="42.63010467690872" lon="11.487467386263209"><ele>204.0</ele><time>2026-03-29T12:58:30.984Z</time></trkpt><trkpt lat="42.630212281327545" lon="11.487320338005537"><ele>204.0</ele><time>2026-03-29T12:58:31.984Z</time></trkpt><trkpt lat="42.630322266413316" lon="11.487172341198155"><ele>200.0</ele><time>2026-03-29T12:58:32.984Z</time></trkpt><trkpt lat="42.63043190482078" lon="11.487024396947781"><ele>196.0</ele><time>2026-03-29T12:58:33.984Z</time></trkpt><trkpt lat="42.63054234873316" lon="11.48687892860193"><ele>192.0</ele><time>2026-03-29T12:58:34.984Z</time></trkpt><trkpt lat="42.630650772148485" lon="11.486734645311062"><ele>192.0</ele><time>2026-03-29T12:58:35.984Z</time></trkpt><trkpt lat="42.6307589068104" lon="11.48659251116234"><ele>192.0</ele><time>2026-03-29T12:58:36.984Z</time></trkpt><trkpt lat="42.63086624274528" lon="11.486449396867165"><ele>192.0</ele><time>2026-03-29T12:58:37.984Z</time></trkpt><trkpt lat="42.630973163512834" lon="11.486307226849503"><ele>191.0</ele><time>2026-03-29T12:58:38.984Z</time></trkpt><trkpt lat="42.631080348640424" lon="11.486162573991425"><ele>190.0</ele><time>2026-03-29T12:58:39.984Z</time></trkpt><trkpt lat="42.63118551230928" lon="11.486016588627212"><ele>189.0</ele><time>2026-03-29T12:58:40.984Z</time></trkpt><trkpt lat="42.63129237694587" lon="11.48587845374321"><ele>188.0</ele><time>2026-03-29T12:58:41.984Z</time></trkpt><trkpt lat="42.63139820625653" lon="11.485740707432555"><ele>187.0</ele><time>2026-03-29T12:58:42.984Z</time></trkpt><trkpt lat="42.6315049063434" lon="11.48560611640225"><ele>186.0</ele><time>2026-03-29T12:58:43.984Z</time></trkpt><trkpt lat="42.63162614144738" lon="11.48547568981208"><ele>185.0</ele><time>2026-03-29T12:58:44.983Z</time></trkpt><trkpt lat="42.63173262048498" lon="11.485333488199975"><ele>184.0</ele><time>2026-03-29T12:58:45.983Z</time></trkpt><trkpt lat="42.631840126843414" lon="11.485192643420898"><ele>183.0</ele><time>2026-03-29T12:58:46.983Z</time></trkpt><trkpt lat="42.631947622218725" lon="11.485050404755125"><ele>182.0</ele><time>2026-03-29T12:58:47.983Z</time></trkpt><trkpt lat="42.63205837235035" lon="11.484905017770949"><ele>181.0</ele><time>2026-03-29T12:58:48.983Z</time></trkpt><trkpt lat="42.63216906627832" lon="11.484750229827641"><ele>179.33333333333334</ele><time>2026-03-29T12:58:49.983Z</time></trkpt><trkpt lat="42.63227621215565" lon="11.484596042983544"><ele>177.66666666666666</ele><time>2026-03-29T12:58:50.983Z</time></trkpt><trkpt lat="42.632390301882715" lon="11.484438557702026"><ele>176.0</ele><time>2026-03-29T12:58:51.983Z</time></trkpt><trkpt lat="42.632498019980154" lon="11.484275032432171"><ele>176.0</ele><time>2026-03-29T12:58:52.983Z</time></trkpt><trkpt lat="42.63259590098335" lon="11.484102556082698"><ele>176.0</ele><time>2026-03-29T12:58:53.983Z</time></trkpt><trkpt lat="42.632690700499886" lon="11.483923816993915"><ele>176.0</ele><time>2026-03-29T12:58:54.983Z</time></trkpt><trkpt lat="42.63278572805667" lon="11.483742041445746"><ele>175.0</ele><time>2026-03-29T12:58:55.983Z</time></trkpt><trkpt lat="42.632870640542166" lon="11.48356036268757"><ele>174.0</ele><time>2026-03-29T12:58:56.983Z</time></trkpt><trkpt lat="42.63295947025439" lon="11.48337565071793"><ele>173.0</ele><time>2026-03-29T12:58:57.983Z</time></trkpt><trkpt lat="42.63304858993376" lon="11.483199632262165"><ele>173.0</ele><time>2026-03-29T12:58:58.983Z</time></trkpt><trkpt lat="42.633136917717344" lon="11.483024151964871"><ele>173.0</ele><time>2026-03-29T12:58:59.983Z</time></trkpt><trkpt lat="42.63322620138618" lon="11.482850933038188"><ele>173.0</ele><time>2026-03-29T12:59:00.983Z</time></trkpt><trkpt lat="42.633303471100234" lon="11.482680387168983"><ele>172.75</ele><time>2026-03-29T12:59:01.983Z</time></trkpt><trkpt lat="42.63338577012163" lon="11.482513758451347"><ele>172.5</ele><time>2026-03-29T12:59:02.983Z</time></trkpt><trkpt lat="42.63346300041578" lon="11.482355978909064"><ele>172.25</ele><time>2026-03-29T12:59:03.983Z</time></trkpt><trkpt lat="42.633549622064386" lon="11.48220091539808"><ele>172.0</ele><time>2026-03-29T12:59:04.983Z</time></trkpt><trkpt lat="42.633640858742055" lon="11.482050743221548"><ele>171.5</ele><time>2026-03-29T12:59:05.983Z</time></trkpt><trkpt lat="42.63373081878934" lon="11.481908945327968"><ele>171.0</ele><time>2026-03-29T12:59:06.983Z</time></trkpt><trkpt lat="42.6338232944415" lon="11.481768858470389"><ele>170.5</ele><time>2026-03-29T12:59:07.983Z</time></trkpt><trkpt lat="42.6339169688113" lon="11.481629667433978"><ele>170.0</ele><time>2026-03-29T12:59:08.983Z</time></trkpt><trkpt lat="42.634014564041856" lon="11.481489348937163"><ele>170.0</ele><time>2026-03-29T12:59:09.983Z</time></trkpt><trkpt lat="42.634113328347794" lon="11.481358655445428"><ele>170.0</ele><time>2026-03-29T12:59:10.983Z</time></trkpt><trkpt lat="42.634207981528746" lon="11.48121742638596"><ele>170.0</ele><time>2026-03-29T12:59:11.983Z</time></trkpt><trkpt lat="42.634301095676996" lon="11.481081307233007"><ele>170.0</ele><time>2026-03-29T12:59:12.983Z</time></trkpt><trkpt lat="42.63439782841967" lon="11.480951556365312"><ele>169.0</ele><time>2026-03-29T12:59:13.983Z</time></trkpt><trkpt lat="42.63448875952865" lon="11.480819739751219"><ele>168.0</ele><time>2026-03-29T12:59:14.983Z</time></trkpt><trkpt lat="42.634581655879536" lon="11.480686754641148"><ele>167.0</ele><time>2026-03-29T12:59:15.983Z</time></trkpt><trkpt lat="42.63466994640173" lon="11.480558140353986"><ele>166.0</ele><time>2026-03-29T12:59:16.983Z</time></trkpt><trkpt lat="42.6347586127412" lon="11.48042708999283"><ele>163.5</ele><time>2026-03-29T12:59:17.983Z</time></trkpt><trkpt lat="42.63485473605365" lon="11.4803094036567"><ele>161.0</ele><time>2026-03-29T12:59:18.983Z</time></trkpt><trkpt lat="42.634937147402496" lon="11.480174498676563"><ele>158.5</ele><time>2026-03-29T12:59:19.983Z</time></trkpt><trkpt lat="42.63502290941723" lon="11.48003237061254"><ele>156.0</ele><time>2026-03-29T12:59:20.983Z</time></trkpt><trkpt lat="42.635105891380604" lon="11.47989503708908"><ele>156.0</ele><time>2026-03-29T12:59:21.983Z</time></trkpt><trkpt lat="42.635192326199984" lon="11.479759346867162"><ele>156.0</ele><time>2026-03-29T12:59:22.983Z</time></trkpt><trkpt lat="42.635279270451456" lon="11.479618640233557"><ele>156.0</ele><time>2026-03-29T12:59:23.983Z</time></trkpt><trkpt lat="42.635365924842" lon="11.479476063308724"><ele>156.0</ele><time>2026-03-29T12:59:24.983Z</time></trkpt><trkpt lat="42.63545447231749" lon="11.479329572311311"><ele>154.0</ele><time>2026-03-29T12:59:25.983Z</time></trkpt><trkpt lat="42.63553809108926" lon="11.479188929627682"><ele>152.0</ele><time>2026-03-29T12:59:26.982Z</time></trkpt><trkpt lat="42.635622785064726" lon="11.47904197753615"><ele>150.0</ele><time>2026-03-29T12:59:27.982Z</time></trkpt><trkpt lat="42.63570906234595" lon="11.478897810369107"><ele>148.0</ele><time>2026-03-29T12:59:28.982Z</time></trkpt><trkpt lat="42.6357997300501" lon="11.478748698954"><ele>146.75</ele><time>2026-03-29T12:59:29.982Z</time></trkpt><trkpt lat="42.635890046939224" lon="11.478600176542328"><ele>145.5</ele><time>2026-03-29T12:59:30.982Z</time></trkpt><trkpt lat="42.63597806697698" lon="11.478448232093498"><ele>144.25</ele><time>2026-03-29T12:59:31.982Z</time></trkpt><trkpt lat="42.636068667380464" lon="11.478297254561319"><ele>143.0</ele><time>2026-03-29T12:59:32.982Z</time></trkpt><trkpt lat="42.63616102225504" lon="11.478141840886245"><ele>142.33333333333331</ele><time>2026-03-29T12:59:33.982Z</time></trkpt><trkpt lat="42.63625502973579" lon="11.477984278173627"><ele>141.66666666666666</ele><time>2026-03-29T12:59:34.982Z</time></trkpt><trkpt lat="42.636350181537544" lon="11.47782464148124"><ele>141.0</ele><time>2026-03-29T12:59:35.982Z</time></trkpt><trkpt lat="42.63645122547193" lon="11.477660898904203"><ele>140.0</ele><time>2026-03-29T12:59:36.982Z</time></trkpt><trkpt lat="42.63655514464117" lon="11.47749787911898"><ele>139.0</ele><time>2026-03-29T12:59:37.982Z</time></trkpt><trkpt lat="42.6366576789608" lon="11.47732781497758"><ele>138.0</ele><time>2026-03-29T12:59:38.982Z</time></trkpt><trkpt lat="42.63675927560627" lon="11.477154102723086"><ele>136.66666666666666</ele><time>2026-03-29T12:59:39.982Z</time></trkpt><trkpt lat="42.636861672499755" lon="11.476983071331409"><ele>135.33333333333331</ele><time>2026-03-29T12:59:40.982Z</time></trkpt><trkpt lat="42.636968024673735" lon="11.476812096936222"><ele>134.0</ele><time>2026-03-29T12:59:41.982Z</time></trkpt><trkpt lat="42.637071268859195" lon="11.47664186151753"><ele>134.0</ele><time>2026-03-29T12:59:42.982Z</time></trkpt><trkpt lat="42.63717453220575" lon="11.476473831227267"><ele>134.0</ele><time>2026-03-29T12:59:43.982Z</time></trkpt><trkpt lat="42.637277125029065" lon="11.476300708070248"><ele>134.0</ele><time>2026-03-29T12:59:44.982Z</time></trkpt><trkpt lat="42.6373783950871" lon="11.476126767900618"><ele>132.33333333333331</ele><time>2026-03-29T12:59:45.982Z</time></trkpt><trkpt lat="42.637482893388544" lon="11.475954620986101"><ele>130.66666666666666</ele><time>2026-03-29T12:59:46.982Z</time></trkpt><trkpt lat="42.63758919069777" lon="11.475778585443122"><ele>129.0</ele><time>2026-03-29T12:59:47.982Z</time></trkpt><trkpt lat="42.63769502870998" lon="11.475605371183555"><ele>129.0</ele><time>2026-03-29T12:59:48.982Z</time></trkpt><trkpt lat="42.6378008830911" lon="11.475426586772166"><ele>129.0</ele><time>2026-03-29T12:59:49.982Z</time></trkpt><trkpt lat="42.637910375981804" lon="11.47524808746301"><ele>129.0</ele><time>2026-03-29T12:59:50.982Z</time></trkpt><trkpt lat="42.63802012897409" lon="11.475067676283249"><ele>129.0</ele><time>2026-03-29T12:59:51.982Z</time></trkpt><trkpt lat="42.63813026795609" lon="11.47488432700594"><ele>129.0</ele><time>2026-03-29T12:59:52.982Z</time></trkpt><trkpt lat="42.638238061860605" lon="11.474706496524085"><ele>129.0</ele><time>2026-03-29T12:59:53.982Z</time></trkpt><trkpt lat="42.638347123949565" lon="11.474527097080719"><ele>127.66666666666666</ele><time>2026-03-29T12:59:54.982Z</time></trkpt><trkpt lat="42.63845652279594" lon="11.47434483409544"><ele>126.33333333333333</ele><time>2026-03-29T12:59:55.982Z</time></trkpt><trkpt lat="42.63856217055766" lon="11.474159000608568"><ele>125.0</ele><time>2026-03-29T12:59:56.982Z</time></trkpt><trkpt lat="42.638659318380846" lon="11.47396329990773"><ele>126.0</ele><time>2026-03-29T12:59:57.982Z</time></trkpt><trkpt lat="42.638739386574336" lon="11.473757400125193"><ele>127.0</ele><time>2026-03-29T12:59:58.982Z</time></trkpt><trkpt lat="42.63880461677989" lon="11.473537355883467"><ele>128.0</ele><time>2026-03-29T12:59:59.982Z</time></trkpt><trkpt lat="42.63886593127471" lon="11.47332123975938"><ele>128.0</ele><time>2026-03-29T13:00:00.982Z</time></trkpt><trkpt lat="42.638919851006555" lon="11.473097491095738"><ele>128.0</ele><time>2026-03-29T13:00:01.982Z</time></trkpt><trkpt lat="42.63896598027448" lon="11.472861624197506"><ele>128.0</ele><time>2026-03-29T13:00:02.982Z</time></trkpt><trkpt lat="42.63899878605679" lon="11.472618439882353"><ele>128.0</ele><time>2026-03-29T13:00:03.982Z</time></trkpt><trkpt lat="42.639021483353645" lon="11.472376485979535"><ele>128.0</ele><time>2026-03-29T13:00:04.982Z</time></trkpt><trkpt lat="42.63903468822427" lon="11.472139214048381"><ele>128.0</ele><time>2026-03-29T13:00:05.982Z</time></trkpt><trkpt lat="42.63903974707621" lon="11.471906889182094"><ele>128.0</ele><time>2026-03-29T13:00:06.982Z</time></trkpt><trkpt lat="42.6390396572149" lon="11.471670356796686"><ele>128.0</ele><time>2026-03-29T13:00:07.982Z</time></trkpt><trkpt lat="42.639046483722716" lon="11.471432554770796"><ele>128.0</ele><time>2026-03-29T13:00:08.981Z</time></trkpt><trkpt lat="42.63906853198235" lon="11.471181785305811"><ele>127.33333333333333</ele><time>2026-03-29T13:00:09.981Z</time></trkpt><trkpt lat="42.6390853320317" lon="11.470933590509564"><ele>126.66666666666666</ele><time>2026-03-29T13:00:10.981Z</time></trkpt><trkpt lat="42.639101227713866" lon="11.470682496519151"><ele>126.0</ele><time>2026-03-29T13:00:11.981Z</time></trkpt><trkpt lat="42.6391248988774" lon="11.4704342421953"><ele>124.33333333333334</ele><time>2026-03-29T13:00:12.981Z</time></trkpt><trkpt lat="42.63914778104127" lon="11.470196400249268"><ele>122.66666666666667</ele><time>2026-03-29T13:00:13.981Z</time></trkpt><trkpt lat="42.63916817582533" lon="11.469966289608397"><ele>121.0</ele><time>2026-03-29T13:00:14.981Z</time></trkpt><trkpt lat="42.639188698495595" lon="11.469745108521824"><ele>121.0</ele><time>2026-03-29T13:00:15.981Z</time></trkpt><trkpt lat="42.63920391257007" lon="11.469526532383437"><ele>121.0</ele><time>2026-03-29T13:00:16.981Z</time></trkpt><trkpt lat="42.63922082484833" lon="11.469324563337592"><ele>121.0</ele><time>2026-03-29T13:00:17.981Z</time></trkpt><trkpt lat="42.63923808416318" lon="11.469131207929362"><ele>121.0</ele><time>2026-03-29T13:00:18.981Z</time></trkpt><trkpt lat="42.63925255842838" lon="11.468932986954446"><ele>121.0</ele><time>2026-03-29T13:00:19.981Z</time></trkpt><trkpt lat="42.63926553447323" lon="11.468730051391946"><ele>121.0</ele><time>2026-03-29T13:00:20.984Z</time></trkpt><trkpt lat="42.63927970112321" lon="11.468527386466842"><ele>121.0</ele><time>2026-03-29T13:00:21.984Z</time></trkpt><trkpt lat="42.6392909816809" lon="11.468324651179024"><ele>120.33333333333334</ele><time>2026-03-29T13:00:22.983Z</time></trkpt><trkpt lat="42.639300074598076" lon="11.468124930385653"><ele>119.66666666666666</ele><time>2026-03-29T13:00:23.983Z</time></trkpt><trkpt lat="42.63931471436257" lon="11.467923008581158"><ele>119.0</ele><time>2026-03-29T13:00:24.984Z</time></trkpt><trkpt lat="42.639331230105725" lon="11.467715304733726"><ele>118.33333333333333</ele><time>2026-03-29T13:00:25.984Z</time></trkpt><trkpt lat="42.63934932344382" lon="11.467509997746937"><ele>117.66666666666666</ele><time>2026-03-29T13:00:26.984Z</time></trkpt><trkpt lat="42.63937119180077" lon="11.467298835912317"><ele>117.0</ele><time>2026-03-29T13:00:27.983Z</time></trkpt><trkpt lat="42.63940469898585" lon="11.467086623363869"><ele>116.0</ele><time>2026-03-29T13:00:28.983Z</time></trkpt><trkpt lat="42.63944774433875" lon="11.466875497388402"><ele>115.0</ele><time>2026-03-29T13:00:29.983Z</time></trkpt><trkpt lat="42.639497431666484" lon="11.466672193518072"><ele>114.0</ele><time>2026-03-29T13:00:30.984Z</time></trkpt><trkpt lat="42.63954941682897" lon="11.466473788222682"><ele>114.25</ele><time>2026-03-29T13:00:31.984Z</time></trkpt><trkpt lat="42.639601782534506" lon="11.466283909650741"><ele>114.5</ele><time>2026-03-29T13:00:32.983Z</time></trkpt><trkpt lat="42.63965428334732" lon="11.46609592473626"><ele>114.75</ele><time>2026-03-29T13:00:33.983Z</time></trkpt><trkpt lat="42.63971024440968" lon="11.465918779569188"><ele>115.0</ele><time>2026-03-29T13:00:34.983Z</time></trkpt><trkpt lat="42.63977677338886" lon="11.465747035077523"><ele>115.0</ele><time>2026-03-29T13:00:35.983Z</time></trkpt><trkpt lat="42.63985731130004" lon="11.465575948410008"><ele>115.0</ele><time>2026-03-29T13:00:36.983Z</time></trkpt><trkpt lat="42.639945794608025" lon="11.465409643213482"><ele>115.0</ele><time>2026-03-29T13:00:37.983Z</time></trkpt><trkpt lat="42.640034837727015" lon="11.465244997241363"><ele>114.66666666666667</ele><time>2026-03-29T13:00:38.983Z</time></trkpt><trkpt lat="42.640126832630045" lon="11.46507843222441"><ele>114.33333333333334</ele><time>2026-03-29T13:00:39.983Z</time></trkpt><trkpt lat="42.64021873566885" lon="11.464911999442931"><ele>114.0</ele><time>2026-03-29T13:00:40.983Z</time></trkpt><trkpt lat="42.64030228009035" lon="11.46474212868927"><ele>112.0</ele><time>2026-03-29T13:00:41.983Z</time></trkpt><trkpt lat="42.64038889947009" lon="11.464568777569555"><ele>110.0</ele><time>2026-03-29T13:00:42.983Z</time></trkpt><trkpt lat="42.64044988228695" lon="11.464372215881454"><ele>108.0</ele><time>2026-03-29T13:00:43.983Z</time></trkpt><trkpt lat="42.640503680124574" lon="11.464176906326248"><ele>108.0</ele><time>2026-03-29T13:00:44.983Z</time></trkpt><trkpt lat="42.64055955590052" lon="11.46398158516419"><ele>108.0</ele><time>2026-03-29T13:00:45.983Z</time></trkpt><trkpt lat="42.64061352430288" lon="11.463787013820102"><ele>108.0</ele><time>2026-03-29T13:00:46.983Z</time></trkpt><trkpt lat="42.6406665385684" lon="11.4635941697925"><ele>109.0</ele><time>2026-03-29T13:00:47.983Z</time></trkpt><trkpt lat="42.64072501094826" lon="11.463402239793908"><ele>110.0</ele><time>2026-03-29T13:00:48.983Z</time></trkpt><trkpt lat="42.64078438527249" lon="11.46320973563005"><ele>111.0</ele><time>2026-03-29T13:00:49.983Z</time></trkpt><trkpt lat="42.64083884922235" lon="11.463020567782065"><ele>111.0</ele><time>2026-03-29T13:00:50.983Z</time></trkpt><trkpt lat="42.64088273764445" lon="11.462838753778373"><ele>111.0</ele><time>2026-03-29T13:00:51.983Z</time></trkpt><trkpt lat="42.64091689080211" lon="11.462658957107923"><ele>111.0</ele><time>2026-03-29T13:00:52.983Z</time></trkpt><trkpt lat="42.64094823085736" lon="11.462468781233607"><ele>111.0</ele><time>2026-03-29T13:00:53.983Z</time></trkpt><trkpt lat="42.64092786697419" lon="11.462261338779074"><ele>110.0</ele><time>2026-03-29T13:00:54.983Z</time></trkpt><trkpt lat="42.64089833963234" lon="11.462055690688443"><ele>109.0</ele><time>2026-03-29T13:00:55.983Z</time></trkpt><trkpt lat="42.64085161346288" lon="11.461860550214935"><ele>108.0</ele><time>2026-03-29T13:00:56.983Z</time></trkpt><trkpt lat="42.64080011200799" lon="11.46165860508986"><ele>108.0</ele><time>2026-03-29T13:00:57.983Z</time></trkpt><trkpt lat="42.640753009170496" lon="11.461449359482137"><ele>108.0</ele><time>2026-03-29T13:00:58.983Z</time></trkpt><trkpt lat="42.6407003080336" lon="11.461240276829253"><ele>108.0</ele><time>2026-03-29T13:00:59.983Z</time></trkpt><trkpt lat="42.64064564648559" lon="11.46102665284849"><ele>107.0</ele><time>2026-03-29T13:01:00.983Z</time></trkpt><trkpt lat="42.640591488340895" lon="11.460817646805141"><ele>106.0</ele><time>2026-03-29T13:01:01.983Z</time></trkpt><trkpt lat="42.64054108199003" lon="11.460620917930452"><ele>105.0</ele><time>2026-03-29T13:01:02.983Z</time></trkpt><trkpt lat="42.64048425014491" lon="11.460437782489073"><ele>105.66666666666666</ele><time>2026-03-29T13:01:03.983Z</time></trkpt><trkpt lat="42.64040937068757" lon="11.46026469763751"><ele>106.33333333333333</ele><time>2026-03-29T13:01:04.983Z</time></trkpt><trkpt lat="42.6403141877189" lon="11.460101931688836"><ele>107.0</ele><time>2026-03-29T13:01:05.983Z</time></trkpt><trkpt lat="42.64021041990859" lon="11.45993574530115"><ele>107.0</ele><time>2026-03-29T13:01:06.983Z</time></trkpt><trkpt lat="42.640103152946715" lon="11.459764471199069"><ele>107.0</ele><time>2026-03-29T13:01:07.983Z</time></trkpt><trkpt lat="42.639996610623704" lon="11.459589209583175"><ele>107.0</ele><time>2026-03-29T13:01:08.983Z</time></trkpt><trkpt lat="42.639889431723155" lon="11.459415072459276"><ele>104.66666666666666</ele><time>2026-03-29T13:01:09.983Z</time></trkpt><trkpt lat="42.63977867434888" lon="11.45924769024494"><ele>102.33333333333334</ele><time>2026-03-29T13:01:10.983Z</time></trkpt><trkpt lat="42.639669957370835" lon="11.459082919571921"><ele>100.0</ele><time>2026-03-29T13:01:11.983Z</time></trkpt><trkpt lat="42.639568244619134" lon="11.458926140639504"><ele>102.0</ele><time>2026-03-29T13:01:12.983Z</time></trkpt><trkpt lat="42.63946357125086" lon="11.458763633248296"><ele>104.0</ele><time>2026-03-29T13:01:13.983Z</time></trkpt><trkpt lat="42.63935732816361" lon="11.458597064505799"><ele>106.0</ele><time>2026-03-29T13:01:14.982Z</time></trkpt><trkpt lat="42.639246816245084" lon="11.45842917931531"><ele>106.0</ele><time>2026-03-29T13:01:15.982Z</time></trkpt><trkpt lat="42.639124793988415" lon="11.458273861176977"><ele>106.0</ele><time>2026-03-29T13:01:16.982Z</time></trkpt><trkpt lat="42.63898800085225" lon="11.458130974750365"><ele>106.0</ele><time>2026-03-29T13:01:17.982Z</time></trkpt><trkpt lat="42.63883533211669" lon="11.45799342489284"><ele>105.66666666666667</ele><time>2026-03-29T13:01:18.982Z</time></trkpt><trkpt lat="42.63866574965641" lon="11.457863298708807"><ele>105.33333333333334</ele><time>2026-03-29T13:01:19.982Z</time></trkpt><trkpt lat="42.63850888052016" lon="11.45773718882491"><ele>105.0</ele><time>2026-03-29T13:01:20.982Z</time></trkpt><trkpt lat="42.63835603569606" lon="11.457618827922795"><ele>105.0</ele><time>2026-03-29T13:01:21.982Z</time></trkpt><trkpt lat="42.638213154937375" lon="11.457508469801642"><ele>105.0</ele><time>2026-03-29T13:01:22.982Z</time></trkpt><trkpt lat="42.63808767534628" lon="11.457425091100578"><ele>105.0</ele><time>2026-03-29T13:01:23.982Z</time></trkpt><trkpt lat="42.637995955473194" lon="11.457342019483905"><ele>105.0</ele><time>2026-03-29T13:01:24.982Z</time></trkpt><trkpt lat="42.637928792021484" lon="11.457238025585388"><ele>103.6</ele><time>2026-03-29T13:01:25.982Z</time></trkpt><trkpt lat="42.63789225146933" lon="11.457108710557959"><ele>102.2</ele><time>2026-03-29T13:01:26.982Z</time></trkpt><trkpt lat="42.63789159049874" lon="11.456982634679935"><ele>100.80000000000001</ele><time>2026-03-29T13:01:27.982Z</time></trkpt><trkpt lat="42.63792382213748" lon="11.456851250262828"><ele>99.4</ele><time>2026-03-29T13:01:28.982Z</time></trkpt><trkpt lat="42.63797216637085" lon="11.456680119013015"><ele>98.0</ele><time>2026-03-29T13:01:29.982Z</time></trkpt><trkpt lat="42.63802617898817" lon="11.456458576301417"><ele>99.33333333333333</ele><time>2026-03-29T13:01:30.982Z</time></trkpt><trkpt lat="42.638111116833734" lon="11.456190654206786"><ele>100.66666666666666</ele><time>2026-03-29T13:01:31.982Z</time></trkpt><trkpt lat="42.63817892162097" lon="11.455899388506552"><ele>102.0</ele><time>2026-03-29T13:01:32.982Z</time></trkpt><trkpt lat="42.638253083558176" lon="11.45558274211339"><ele>103.5</ele><time>2026-03-29T13:01:33.982Z</time></trkpt><trkpt lat="42.638335019795704" lon="11.455240249461845"><ele>105.0</ele><time>2026-03-29T13:01:34.982Z</time></trkpt><trkpt lat="42.63842001943654" lon="11.454880969064005"><ele>105.5</ele><time>2026-03-29T13:01:35.982Z</time></trkpt><trkpt lat="42.63850584319088" lon="11.454528730839742"><ele>106.0</ele><time>2026-03-29T13:01:36.982Z</time></trkpt><trkpt lat="42.63858311852718" lon="11.4541952737407"><ele>108.0</ele><time>2026-03-29T13:01:37.982Z</time></trkpt><trkpt lat="42.63865629396808" lon="11.453884289875168"><ele>110.0</ele><time>2026-03-29T13:01:38.982Z</time></trkpt><trkpt lat="42.638727509376004" lon="11.453598040305698"><ele>110.0</ele><time>2026-03-29T13:01:39.982Z</time></trkpt><trkpt lat="42.63879105488" lon="11.45331821773376"><ele>110.0</ele><time>2026-03-29T13:01:40.982Z</time></trkpt><trkpt lat="42.63885948785398" lon="11.453033577084595"><ele>110.0</ele><time>2026-03-29T13:01:41.982Z</time></trkpt><trkpt lat="42.63892544447167" lon="11.45274793601171"><ele>111.5</ele><time>2026-03-29T13:01:42.982Z</time></trkpt><trkpt lat="42.6390005087656" lon="11.452446350905943"><ele>113.0</ele><time>2026-03-29T13:01:43.982Z</time></trkpt><trkpt lat="42.63907115799976" lon="11.452133982340802"><ele>114.33333333333333</ele><time>2026-03-29T13:01:44.982Z</time></trkpt><trkpt lat="42.639139699091544" lon="11.451835108568124"><ele>115.66666666666666</ele><time>2026-03-29T13:01:45.982Z</time></trkpt><trkpt lat="42.639205432925266" lon="11.451572267931471"><ele>117.0</ele><time>2026-03-29T13:01:46.982Z</time></trkpt><trkpt lat="42.63925897918986" lon="11.451330488930557"><ele>118.0</ele><time>2026-03-29T13:01:47.982Z</time></trkpt><trkpt lat="42.63931833276729" lon="11.451119082847562"><ele>119.0</ele><time>2026-03-29T13:01:48.982Z</time></trkpt><trkpt lat="42.63938522858768" lon="11.45092744559735"><ele>120.0</ele><time>2026-03-29T13:01:49.982Z</time></trkpt><trkpt lat="42.63947276701648" lon="11.450758955236804"><ele>120.0</ele><time>2026-03-29T13:01:50.982Z</time></trkpt><trkpt lat="42.63958586614785" lon="11.450606334185823"><ele>120.0</ele><time>2026-03-29T13:01:51.982Z</time></trkpt><trkpt lat="42.63972714042546" lon="11.450468048940357"><ele>120.0</ele><time>2026-03-29T13:01:52.982Z</time></trkpt><trkpt lat="42.639884537405685" lon="11.450325055292392"><ele>121.66666666666666</ele><time>2026-03-29T13:01:53.982Z</time></trkpt><trkpt lat="42.64006294010704" lon="11.450177120284081"><ele>123.33333333333333</ele><time>2026-03-29T13:01:54.982Z</time></trkpt><trkpt lat="42.64026928457247" lon="11.450023177488776"><ele>125.0</ele><time>2026-03-29T13:01:55.982Z</time></trkpt><trkpt lat="42.64049327289319" lon="11.449844632930374"><ele>126.5</ele><time>2026-03-29T13:01:56.981Z</time></trkpt><trkpt lat="42.6407322568363" lon="11.449659557363516"><ele>128.0</ele><time>2026-03-29T13:01:57.981Z</time></trkpt><trkpt lat="42.64094730912876" lon="11.449494175487978"><ele>130.0</ele><time>2026-03-29T13:01:58.981Z</time></trkpt><trkpt lat="42.64114234470304" lon="11.449348856947113"><ele>132.0</ele><time>2026-03-29T13:01:59.981Z</time></trkpt><trkpt lat="42.641318226726945" lon="11.449213448543281"><ele>134.0</ele><time>2026-03-29T13:02:00.981Z</time></trkpt><trkpt lat="42.64148301233345" lon="11.449080016952694"><ele>134.0</ele><time>2026-03-29T13:02:01.981Z</time></trkpt><trkpt lat="42.64163144589636" lon="11.448955312949115"><ele>134.0</ele><time>2026-03-29T13:02:02.981Z</time></trkpt><trkpt lat="42.64176405753767" lon="11.448849697932552"><ele>134.0</ele><time>2026-03-29T13:02:03.981Z</time></trkpt><trkpt lat="42.64187034210935" lon="11.448725374066244"><ele>137.66666666666666</ele><time>2026-03-29T13:02:04.981Z</time></trkpt><trkpt lat="42.64193354167455" lon="11.44854832812951"><ele>141.33333333333334</ele><time>2026-03-29T13:02:05.981Z</time></trkpt><trkpt lat="42.642006835109704" lon="11.448359946324851"><ele>145.0</ele><time>2026-03-29T13:02:06.981Z</time></trkpt><trkpt lat="42.64201520627498" lon="11.448143501844044"><ele>145.0</ele><time>2026-03-29T13:02:07.981Z</time></trkpt><trkpt lat="42.642004322559195" lon="11.44792097853801"><ele>145.0</ele><time>2026-03-29T13:02:08.981Z</time></trkpt><trkpt lat="42.641953309528105" lon="11.447691795808252"><ele>145.0</ele><time>2026-03-29T13:02:09.981Z</time></trkpt><trkpt lat="42.64191023075237" lon="11.447425921503939"><ele>145.0</ele><time>2026-03-29T13:02:10.981Z</time></trkpt><trkpt lat="42.641845309393986" lon="11.447139675058203"><ele>145.0</ele><time>2026-03-29T13:02:11.981Z</time></trkpt><trkpt lat="42.64177943172611" lon="11.446845136956362"><ele>145.0</ele><time>2026-03-29T13:02:12.981Z</time></trkpt><trkpt lat="42.64171153796672" lon="11.446536744285858"><ele>145.0</ele><time>2026-03-29T13:02:13.981Z</time></trkpt><trkpt lat="42.641640247790356" lon="11.446212924871988"><ele>145.0</ele><time>2026-03-29T13:02:14.981Z</time></trkpt><trkpt lat="42.641565985597644" lon="11.44587659393962"><ele>145.0</ele><time>2026-03-29T13:02:15.981Z</time></trkpt><trkpt lat="42.641488608108254" lon="11.445531365040777"><ele>145.0</ele><time>2026-03-29T13:02:16.981Z</time></trkpt><trkpt lat="42.6414113281324" lon="11.445192827279739"><ele>142.5</ele><time>2026-03-29T13:02:17.981Z</time></trkpt><trkpt lat="42.6413386106564" lon="11.444874963920768"><ele>140.0</ele><time>2026-03-29T13:02:18.981Z</time></trkpt><trkpt lat="42.64126732572033" lon="11.444563362545189"><ele>138.66666666666666</ele><time>2026-03-29T13:02:19.981Z</time></trkpt><trkpt lat="42.64118867667667" lon="11.444280048597621"><ele>137.33333333333334</ele><time>2026-03-29T13:02:20.981Z</time></trkpt><trkpt lat="42.6411406343881" lon="11.444015077486357"><ele>136.0</ele><time>2026-03-29T13:02:21.981Z</time></trkpt><trkpt lat="42.64111267154953" lon="11.443766284591783"><ele>135.0</ele><time>2026-03-29T13:02:22.981Z</time></trkpt><trkpt lat="42.64111088966586" lon="11.44353307943624"><ele>134.0</ele><time>2026-03-29T13:02:23.981Z</time></trkpt><trkpt lat="42.64111900267421" lon="11.443309389297857"><ele>133.0</ele><time>2026-03-29T13:02:24.981Z</time></trkpt><trkpt lat="42.641174721056636" lon="11.443097777010031"><ele>131.33333333333334</ele><time>2026-03-29T13:02:25.981Z</time></trkpt><trkpt lat="42.64122381985561" lon="11.442854105671076"><ele>129.66666666666666</ele><time>2026-03-29T13:02:26.982Z</time></trkpt><trkpt lat="42.641297174101325" lon="11.44258931018501"><ele>128.0</ele><time>2026-03-29T13:02:27.983Z</time></trkpt><trkpt lat="42.64138741070379" lon="11.44230732513013"><ele>129.5</ele><time>2026-03-29T13:02:28.983Z</time></trkpt><trkpt lat="42.641452302460316" lon="11.441996831588435"><ele>131.0</ele><time>2026-03-29T13:02:29.983Z</time></trkpt><trkpt lat="42.64153925255612" lon="11.441679187032062"><ele>131.0</ele><time>2026-03-29T13:02:30.983Z</time></trkpt><trkpt lat="42.64162970277645" lon="11.44133250889155"><ele>131.0</ele><time>2026-03-29T13:02:31.983Z</time></trkpt><trkpt lat="42.64172380487906" lon="11.440978706409105"><ele>135.0</ele><time>2026-03-29T13:02:32.983Z</time></trkpt><trkpt lat="42.64181867375832" lon="11.440630761422737"><ele>139.0</ele><time>2026-03-29T13:02:33.983Z</time></trkpt><trkpt lat="42.64190342180415" lon="11.440301503837606"><ele>140.5</ele><time>2026-03-29T13:02:34.983Z</time></trkpt><trkpt lat="42.64198491407077" lon="11.439998612664416"><ele>142.0</ele><time>2026-03-29T13:02:35.983Z</time></trkpt><trkpt lat="42.64205916217853" lon="11.439722300003279"><ele>142.0</ele><time>2026-03-29T13:02:36.983Z</time></trkpt><trkpt lat="42.64212898522582" lon="11.439462027771361"><ele>142.0</ele><time>2026-03-29T13:02:37.983Z</time></trkpt><trkpt lat="42.64220012587287" lon="11.4392013348438"><ele>142.0</ele><time>2026-03-29T13:02:38.983Z</time></trkpt><trkpt lat="42.64226934505173" lon="11.438945677655829"><ele>142.0</ele><time>2026-03-29T13:02:39.983Z</time></trkpt><trkpt lat="42.64234558928266" lon="11.438697679139416"><ele>142.0</ele><time>2026-03-29T13:02:40.983Z</time></trkpt><trkpt lat="42.64239802637429" lon="11.438468126037655"><ele>142.0</ele><time>2026-03-29T13:02:41.983Z</time></trkpt><trkpt lat="42.64242988992529" lon="11.438238658481357"><ele>142.0</ele><time>2026-03-29T13:02:42.983Z</time></trkpt><trkpt lat="42.64242737848279" lon="11.43800413427069"><ele>142.0</ele><time>2026-03-29T13:02:43.983Z</time></trkpt><trkpt lat="42.642399889745505" lon="11.437759776818819"><ele>142.0</ele><time>2026-03-29T13:02:44.983Z</time></trkpt><trkpt lat="42.642345816174746" lon="11.437506367078784"><ele>143.33333333333334</ele><time>2026-03-29T13:02:45.983Z</time></trkpt><trkpt lat="42.64228521940601" lon="11.437249283581016"><ele>144.66666666666666</ele><time>2026-03-29T13:02:46.983Z</time></trkpt><trkpt lat="42.64224130908616" lon="11.436998854506955"><ele>146.0</ele><time>2026-03-29T13:02:47.982Z</time></trkpt><trkpt lat="42.64221269965543" lon="11.436767798784206"><ele>146.33333333333331</ele><time>2026-03-29T13:02:48.982Z</time></trkpt><trkpt lat="42.64220205247543" lon="11.436556560164753"><ele>146.66666666666666</ele><time>2026-03-29T13:02:49.982Z</time></trkpt><trkpt lat="42.64222701598565" lon="11.436342834785565"><ele>147.0</ele><time>2026-03-29T13:02:50.982Z</time></trkpt><trkpt lat="42.642276646580626" lon="11.436137855866853"><ele>148.33333333333334</ele><time>2026-03-29T13:02:51.982Z</time></trkpt><trkpt lat="42.642346702281166" lon="11.435916430929572"><ele>149.66666666666669</ele><time>2026-03-29T13:02:52.982Z</time></trkpt><trkpt lat="42.6424248163681" lon="11.435679845456551"><ele>151.0</ele><time>2026-03-29T13:02:53.982Z</time></trkpt><trkpt lat="42.642500137231046" lon="11.435455904042316"><ele>151.0</ele><time>2026-03-29T13:02:54.982Z</time></trkpt><trkpt lat="42.64258889335749" lon="11.435233522813219"><ele>151.0</ele><time>2026-03-29T13:02:55.982Z</time></trkpt><trkpt lat="42.642691444774286" lon="11.434996636762515"><ele>151.0</ele><time>2026-03-29T13:02:56.982Z</time></trkpt><trkpt lat="42.642803938856225" lon="11.434738262431662"><ele>152.5</ele><time>2026-03-29T13:02:57.982Z</time></trkpt><trkpt lat="42.64292522780253" lon="11.434466102948287"><ele>154.0</ele><time>2026-03-29T13:02:58.982Z</time></trkpt><trkpt lat="42.64305351259888" lon="11.434194926909102"><ele>154.0</ele><time>2026-03-29T13:02:59.982Z</time></trkpt><trkpt lat="42.64317716777823" lon="11.433935235445581"><ele>154.0</ele><time>2026-03-29T13:03:00.982Z</time></trkpt><trkpt lat="42.643287936936844" lon="11.433692709900143"><ele>154.0</ele><time>2026-03-29T13:03:01.982Z</time></trkpt><trkpt lat="42.643388111589616" lon="11.433474458197344"><ele>154.0</ele><time>2026-03-29T13:03:02.982Z</time></trkpt><trkpt lat="42.6434689728935" lon="11.433282453547186"><ele>154.0</ele><time>2026-03-29T13:03:03.982Z</time></trkpt><trkpt lat="42.64353757785433" lon="11.433108549815802"><ele>154.0</ele><time>2026-03-29T13:03:04.982Z</time></trkpt><trkpt lat="42.64354016095443" lon="11.43295236522964"><ele>154.0</ele><time>2026-03-29T13:03:05.982Z</time></trkpt><trkpt lat="42.64348341395495" lon="11.43279201193534"><ele>155.66666666666669</ele><time>2026-03-29T13:03:06.982Z</time></trkpt><trkpt lat="42.64339968379211" lon="11.432627073059477"><ele>157.33333333333334</ele><time>2026-03-29T13:03:07.982Z</time></trkpt><trkpt lat="42.643278922441034" lon="11.432464841089109"><ele>159.0</ele><time>2026-03-29T13:03:08.982Z</time></trkpt><trkpt lat="42.64317816910183" lon="11.432295101847563"><ele>161.66666666666666</ele><time>2026-03-29T13:03:09.982Z</time></trkpt><trkpt lat="42.64310216270107" lon="11.432124686977549"><ele>164.33333333333331</ele><time>2026-03-29T13:03:10.982Z</time></trkpt><trkpt lat="42.64304270757338" lon="11.431928986458129"><ele>167.0</ele><time>2026-03-29T13:03:11.982Z</time></trkpt><trkpt lat="42.642996807848476" lon="11.43171573599196"><ele>167.0</ele><time>2026-03-29T13:03:12.982Z</time></trkpt><trkpt lat="42.64296249255552" lon="11.431474893959837"><ele>167.0</ele><time>2026-03-29T13:03:13.982Z</time></trkpt><trkpt lat="42.64293429810083" lon="11.431226173643367"><ele>167.0</ele><time>2026-03-29T13:03:14.982Z</time></trkpt><trkpt lat="42.642921332899405" lon="11.430977789831033"><ele>167.33333333333331</ele><time>2026-03-29T13:03:15.982Z</time></trkpt><trkpt lat="42.64292018106844" lon="11.430745881577177"><ele>167.66666666666666</ele><time>2026-03-29T13:03:16.982Z</time></trkpt><trkpt lat="42.642930495049356" lon="11.430513286885382"><ele>168.0</ele><time>2026-03-29T13:03:17.982Z</time></trkpt><trkpt lat="42.64294939689597" lon="11.43026127064825"><ele>168.0</ele><time>2026-03-29T13:03:18.982Z</time></trkpt><trkpt lat="42.64297667476202" lon="11.430004819714968"><ele>168.0</ele><time>2026-03-29T13:03:19.982Z</time></trkpt><trkpt lat="42.64300378111507" lon="11.429758357179526"><ele>168.0</ele><time>2026-03-29T13:03:20.982Z</time></trkpt><trkpt lat="42.64303032113572" lon="11.42953334378266"><ele>167.25</ele><time>2026-03-29T13:03:21.982Z</time></trkpt><trkpt lat="42.64305243359291" lon="11.42932030709825"><ele>166.5</ele><time>2026-03-29T13:03:22.982Z</time></trkpt><trkpt lat="42.64308247355942" lon="11.429121603889351"><ele>165.75</ele><time>2026-03-29T13:03:23.982Z</time></trkpt><trkpt lat="42.64313765847738" lon="11.428957757550936"><ele>165.0</ele><time>2026-03-29T13:03:24.982Z</time></trkpt><trkpt lat="42.64322035853148" lon="11.428817288605908"><ele>164.5</ele><time>2026-03-29T13:03:25.982Z</time></trkpt><trkpt lat="42.64332644672398" lon="11.428708833789676"><ele>164.0</ele><time>2026-03-29T13:03:26.982Z</time></trkpt><trkpt lat="42.64342589914171" lon="11.428609579974536"><ele>163.5</ele><time>2026-03-29T13:03:27.982Z</time></trkpt><trkpt lat="42.64350439418943" lon="11.428495507040143"><ele>163.0</ele><time>2026-03-29T13:03:28.982Z</time></trkpt><trkpt lat="42.64355818253597" lon="11.428338391157208"><ele>163.0</ele><time>2026-03-29T13:03:29.981Z</time></trkpt><trkpt lat="42.64358399093483" lon="11.428150320278618"><ele>163.0</ele><time>2026-03-29T13:03:30.981Z</time></trkpt><trkpt lat="42.64358370008618" lon="11.42794095529726"><ele>163.0</ele><time>2026-03-29T13:03:31.981Z</time></trkpt><trkpt lat="42.64357300185136" lon="11.427695467619198"><ele>163.0</ele><time>2026-03-29T13:03:32.981Z</time></trkpt><trkpt lat="42.64356950449022" lon="11.427442823420298"><ele>163.0</ele><time>2026-03-29T13:03:33.981Z</time></trkpt><trkpt lat="42.64356572706283" lon="11.427217441218268"><ele>163.0</ele><time>2026-03-29T13:03:34.981Z</time></trkpt><trkpt lat="42.64356003603354" lon="11.42700282428712"><ele>163.0</ele><time>2026-03-29T13:03:35.981Z</time></trkpt><trkpt lat="42.643545781791076" lon="11.426815530285221"><ele>163.0</ele><time>2026-03-29T13:03:36.981Z</time></trkpt><trkpt lat="42.643515183770596" lon="11.426645818581543"><ele>163.0</ele><time>2026-03-29T13:03:37.981Z</time></trkpt><trkpt lat="42.64345649262829" lon="11.426508783832091"><ele>163.0</ele><time>2026-03-29T13:03:38.981Z</time></trkpt><trkpt lat="42.643365822410665" lon="11.426402772794102"><ele>163.0</ele><time>2026-03-29T13:03:39.981Z</time></trkpt><trkpt lat="42.64324826237411" lon="11.426321118699866"><ele>163.0</ele><time>2026-03-29T13:03:40.981Z</time></trkpt><trkpt lat="42.643106269269616" lon="11.426266825024967"><ele>163.0</ele><time>2026-03-29T13:03:41.981Z</time></trkpt><trkpt lat="42.64295788542993" lon="11.426218906240948"><ele>163.0</ele><time>2026-03-29T13:03:42.981Z</time></trkpt><trkpt lat="42.64282026187359" lon="11.426158723514163"><ele>165.25</ele><time>2026-03-29T13:03:43.981Z</time></trkpt><trkpt lat="42.64271188497932" lon="11.426065608738698"><ele>167.5</ele><time>2026-03-29T13:03:44.981Z</time></trkpt><trkpt lat="42.64264177360615" lon="11.425929967480117"><ele>169.75</ele><time>2026-03-29T13:03:45.981Z</time></trkpt><trkpt lat="42.64257619506374" lon="11.425782305875488"><ele>172.0</ele><time>2026-03-29T13:03:46.981Z</time></trkpt><trkpt lat="42.64253416526187" lon="11.425644700316422"><ele>172.0</ele><time>2026-03-29T13:03:47.981Z</time></trkpt><trkpt lat="42.64250966517111" lon="11.425490179540619"><ele>172.0</ele><time>2026-03-29T13:03:48.981Z</time></trkpt><trkpt lat="42.642511813465525" lon="11.425330292815595"><ele>172.0</ele><time>2026-03-29T13:03:49.981Z</time></trkpt><trkpt lat="42.642531625566924" lon="11.425182166093604"><ele>172.0</ele><time>2026-03-29T13:03:50.981Z</time></trkpt><trkpt lat="42.64257686196018" lon="11.425044807953336"><ele>171.75</ele><time>2026-03-29T13:03:51.981Z</time></trkpt><trkpt lat="42.64266235550087" lon="11.424903154300956"><ele>171.5</ele><time>2026-03-29T13:03:52.981Z</time></trkpt><trkpt lat="42.64276694473632" lon="11.424762852620681"><ele>171.25</ele><time>2026-03-29T13:03:53.981Z</time></trkpt><trkpt lat="42.64287551300223" lon="11.424598253351482"><ele>171.0</ele><time>2026-03-29T13:03:54.981Z</time></trkpt><trkpt lat="42.642983568870086" lon="11.424445783330183"><ele>170.75</ele><time>2026-03-29T13:03:55.981Z</time></trkpt><trkpt lat="42.64308182477123" lon="11.424308670137812"><ele>170.5</ele><time>2026-03-29T13:03:56.981Z</time></trkpt><trkpt lat="42.643180032043304" lon="11.424181177951741"><ele>170.25</ele><time>2026-03-29T13:03:57.981Z</time></trkpt><trkpt lat="42.643253467919564" lon="11.4240243438849"><ele>170.0</ele><time>2026-03-29T13:03:58.981Z</time></trkpt><trkpt lat="42.643291300399056" lon="11.42384975398195"><ele>168.5</ele><time>2026-03-29T13:03:59.981Z</time></trkpt><trkpt lat="42.64328712399467" lon="11.423665450805984"><ele>167.0</ele><time>2026-03-29T13:04:00.981Z</time></trkpt><trkpt lat="42.64330519857377" lon="11.423490729950254"><ele>165.5</ele><time>2026-03-29T13:04:01.981Z</time></trkpt><trkpt lat="42.64335714694304" lon="11.423336927212494"><ele>164.0</ele><time>2026-03-29T13:04:02.981Z</time></trkpt><trkpt lat="42.64345586722792" lon="11.423214910010623"><ele>164.0</ele><time>2026-03-29T13:04:03.981Z</time></trkpt><trkpt lat="42.64356009912488" lon="11.42309104676158"><ele>164.0</ele><time>2026-03-29T13:04:04.981Z</time></trkpt><trkpt lat="42.64366599486825" lon="11.422931455331808"><ele>164.0</ele><time>2026-03-29T13:04:05.981Z</time></trkpt><trkpt lat="42.643742094269435" lon="11.422752110715894"><ele>164.0</ele><time>2026-03-29T13:04:06.981Z</time></trkpt><trkpt lat="42.643808754148225" lon="11.42258864697284"><ele>163.5</ele><time>2026-03-29T13:04:07.981Z</time></trkpt><trkpt lat="42.64390813646493" lon="11.422475981921721"><ele>163.0</ele><time>2026-03-29T13:04:08.981Z</time></trkpt><trkpt lat="42.644011996157595" lon="11.4224034870695"><ele>162.5</ele><time>2026-03-29T13:04:09.981Z</time></trkpt><trkpt lat="42.64413121867652" lon="11.422352600829322"><ele>162.0</ele><time>2026-03-29T13:04:10.981Z</time></trkpt><trkpt lat="42.644265044334816" lon="11.42233778796582"><ele>162.0</ele><time>2026-03-29T13:04:11.98Z</time></trkpt><trkpt lat="42.64441069426683" lon="11.42231942526684"><ele>162.0</ele><time>2026-03-29T13:04:12.98Z</time></trkpt><trkpt lat="42.644552725825974" lon="11.422306719487523"><ele>162.0</ele><time>2026-03-29T13:04:13.98Z</time></trkpt><trkpt lat="42.64469443311717" lon="11.422290469789742"><ele>162.0</ele><time>2026-03-29T13:04:14.98Z</time></trkpt><trkpt lat="42.644830882711986" lon="11.422327071680073"><ele>162.75</ele><time>2026-03-29T13:04:15.98Z</time></trkpt><trkpt lat="42.64496556193673" lon="11.42236321350112"><ele>163.5</ele><time>2026-03-29T13:04:16.98Z</time></trkpt><trkpt lat="42.64509259878537" lon="11.422411066434256"><ele>164.25</ele><time>2026-03-29T13:04:17.98Z</time></trkpt><trkpt lat="42.645234559517505" lon="11.422393122602244"><ele>165.0</ele><time>2026-03-29T13:04:18.98Z</time></trkpt><trkpt lat="42.64536150791221" lon="11.422324749785854"><ele>165.0</ele><time>2026-03-29T13:04:19.98Z</time></trkpt><trkpt lat="42.64546613447702" lon="11.422221836651696"><ele>165.0</ele><time>2026-03-29T13:04:20.98Z</time></trkpt><trkpt lat="42.64554945945665" lon="11.422081235245972"><ele>165.0</ele><time>2026-03-29T13:04:21.98Z</time></trkpt><trkpt lat="42.64558599054629" lon="11.421902145090382"><ele>165.0</ele><time>2026-03-29T13:04:22.98Z</time></trkpt><trkpt lat="42.645614595714534" lon="11.421713595897822"><ele>165.0</ele><time>2026-03-29T13:04:23.98Z</time></trkpt><trkpt lat="42.64563482442609" lon="11.421497630444762"><ele>165.0</ele><time>2026-03-29T13:04:24.98Z</time></trkpt><trkpt lat="42.64565569330856" lon="11.421295926602786"><ele>165.0</ele><time>2026-03-29T13:04:25.98Z</time></trkpt><trkpt lat="42.64566658370959" lon="11.42110456693086"><ele>163.75</ele><time>2026-03-29T13:04:26.98Z</time></trkpt><trkpt lat="42.64564176860197" lon="11.42091593356568"><ele>162.5</ele><time>2026-03-29T13:04:27.98Z</time></trkpt><trkpt lat="42.64558327116189" lon="11.420744278385541"><ele>161.25</ele><time>2026-03-29T13:04:28.98Z</time></trkpt><trkpt lat="42.64550058122393" lon="11.420601650006585"><ele>160.0</ele><time>2026-03-29T13:04:29.98Z</time></trkpt><trkpt lat="42.64539464657945" lon="11.420498941834097"><ele>161.0</ele><time>2026-03-29T13:04:30.98Z</time></trkpt><trkpt lat="42.64526172078729" lon="11.420439309437837"><ele>162.0</ele><time>2026-03-29T13:04:31.98Z</time></trkpt><trkpt lat="42.6451137974388" lon="11.420423491853235"><ele>163.0</ele><time>2026-03-29T13:04:32.982Z</time></trkpt><trkpt lat="42.64495260241949" lon="11.420428108772578"><ele>163.0</ele><time>2026-03-29T13:04:33.982Z</time></trkpt><trkpt lat="42.64477780218023" lon="11.420409596078464"><ele>163.0</ele><time>2026-03-29T13:04:34.982Z</time></trkpt><trkpt lat="42.64459598849419" lon="11.420359995808624"><ele>163.0</ele><time>2026-03-29T13:04:35.982Z</time></trkpt><trkpt lat="42.644415424099776" lon="11.420291996153333"><ele>160.33333333333334</ele><time>2026-03-29T13:04:36.982Z</time></trkpt><trkpt lat="42.64423410818754" lon="11.420223202991977"><ele>157.66666666666666</ele><time>2026-03-29T13:04:37.982Z</time></trkpt><trkpt lat="42.644061606395255" lon="11.420166065431642"><ele>155.0</ele><time>2026-03-29T13:04:38.982Z</time></trkpt><trkpt lat="42.64389365866721" lon="11.420143378127133"><ele>155.0</ele><time>2026-03-29T13:04:39.981Z</time></trkpt><trkpt lat="42.64371450035255" lon="11.420164035835723"><ele>155.0</ele><time>2026-03-29T13:04:40.981Z</time></trkpt><trkpt lat="42.64354786903638" lon="11.420218710604255"><ele>155.0</ele><time>2026-03-29T13:04:41.982Z</time></trkpt><trkpt lat="42.64339326938492" lon="11.420279384650994"><ele>154.75</ele><time>2026-03-29T13:04:42.981Z</time></trkpt><trkpt lat="42.64324060743636" lon="11.420325997143065"><ele>154.5</ele><time>2026-03-29T13:04:43.981Z</time></trkpt><trkpt lat="42.6431069945452" lon="11.420342205527646"><ele>154.25</ele><time>2026-03-29T13:04:44.982Z</time></trkpt><trkpt lat="42.64298470684428" lon="11.42030645965897"><ele>154.0</ele><time>2026-03-29T13:04:45.982Z</time></trkpt><trkpt lat="42.642863880517666" lon="11.420230692370597"><ele>151.75</ele><time>2026-03-29T13:04:46.982Z</time></trkpt><trkpt lat="42.64273559095166" lon="11.420144544832413"><ele>149.5</ele><time>2026-03-29T13:04:47.982Z</time></trkpt><trkpt lat="42.64261210060861" lon="11.420046191235112"><ele>147.25</ele><time>2026-03-29T13:04:48.982Z</time></trkpt><trkpt lat="42.642506933146734" lon="11.41992973009466"><ele>145.0</ele><time>2026-03-29T13:04:49.982Z</time></trkpt><trkpt lat="42.64241818080766" lon="11.419795577238805"><ele>146.25</ele><time>2026-03-29T13:04:50.982Z</time></trkpt><trkpt lat="42.64235034543705" lon="11.419628692063807"><ele>147.5</ele><time>2026-03-29T13:04:51.982Z</time></trkpt><trkpt lat="42.64230683558252" lon="11.419441341309787"><ele>148.75</ele><time>2026-03-29T13:04:52.982Z</time></trkpt><trkpt lat="42.64226819056298" lon="11.419255869903575"><ele>150.0</ele><time>2026-03-29T13:04:53.982Z</time></trkpt><trkpt lat="42.64220331683939" lon="11.419091046253374"><ele>150.0</ele><time>2026-03-29T13:04:54.982Z</time></trkpt><trkpt lat="42.642107963215" lon="11.418962495812522"><ele>150.0</ele><time>2026-03-29T13:04:55.982Z</time></trkpt><trkpt lat="42.64199351165687" lon="11.418852387645305"><ele>150.0</ele><time>2026-03-29T13:04:56.982Z</time></trkpt><trkpt lat="42.641873086452584" lon="11.418757533080884"><ele>150.0</ele><time>2026-03-29T13:04:57.981Z</time></trkpt><trkpt lat="42.64174952592567" lon="11.418678331175455"><ele>148.5</ele><time>2026-03-29T13:04:58.981Z</time></trkpt><trkpt lat="42.64163109423882" lon="11.418603899562651"><ele>147.0</ele><time>2026-03-29T13:04:59.981Z</time></trkpt><trkpt lat="42.641517961262565" lon="11.418574972755293"><ele>145.5</ele><time>2026-03-29T13:05:00.981Z</time></trkpt><trkpt lat="42.641400724151715" lon="11.41859405894248"><ele>144.0</ele><time>2026-03-29T13:05:01.981Z</time></trkpt><trkpt lat="42.64126960450523" lon="11.418645146957557"><ele>143.33333333333334</ele><time>2026-03-29T13:05:02.981Z</time></trkpt><trkpt lat="42.641116755476105" lon="11.418718435126332"><ele>142.66666666666669</ele><time>2026-03-29T13:05:03.981Z</time></trkpt><trkpt lat="42.64095703593203" lon="11.41880422969029"><ele>142.0</ele><time>2026-03-29T13:05:04.981Z</time></trkpt><trkpt lat="42.64078172881714" lon="11.418889611026579"><ele>138.0</ele><time>2026-03-29T13:05:05.981Z</time></trkpt><trkpt lat="42.64060407240481" lon="11.418972272796246"><ele>134.0</ele><time>2026-03-29T13:05:06.981Z</time></trkpt><trkpt lat="42.64043443479233" lon="11.419050121859653"><ele>130.0</ele><time>2026-03-29T13:05:07.981Z</time></trkpt><trkpt lat="42.640292097108855" lon="11.419103685931079"><ele>130.0</ele><time>2026-03-29T13:05:08.981Z</time></trkpt><trkpt lat="42.64016154514922" lon="11.419121631216084"><ele>130.0</ele><time>2026-03-29T13:05:09.981Z</time></trkpt><trkpt lat="42.64005312871633" lon="11.419109863962161"><ele>130.0</ele><time>2026-03-29T13:05:10.981Z</time></trkpt><trkpt lat="42.63997376771585" lon="11.419064330278562"><ele>130.0</ele><time>2026-03-29T13:05:11.981Z</time></trkpt><trkpt lat="42.63989111225402" lon="11.418988872632674"><ele>130.0</ele><time>2026-03-29T13:05:12.981Z</time></trkpt><trkpt lat="42.63979471979892" lon="11.418882792382119"><ele>130.0</ele><time>2026-03-29T13:05:13.981Z</time></trkpt><trkpt lat="42.63968927542634" lon="11.418779452039857"><ele>130.0</ele><time>2026-03-29T13:05:14.981Z</time></trkpt><trkpt lat="42.63956574280229" lon="11.418677117325322"><ele>130.0</ele><time>2026-03-29T13:05:15.981Z</time></trkpt><trkpt lat="42.639430190138384" lon="11.418574935701916"><ele>130.0</ele><time>2026-03-29T13:05:16.981Z</time></trkpt><trkpt lat="42.6392779213294" lon="11.418481128579273"><ele>130.0</ele><time>2026-03-29T13:05:17.981Z</time></trkpt><trkpt lat="42.63911408928343" lon="11.4184066696098"><ele>130.0</ele><time>2026-03-29T13:05:18.98Z</time></trkpt><trkpt lat="42.63894202493181" lon="11.418342728977025"><ele>130.0</ele><time>2026-03-29T13:05:19.98Z</time></trkpt><trkpt lat="42.63877339529829" lon="11.418268243742984"><ele>128.66666666666669</ele><time>2026-03-29T13:05:20.98Z</time></trkpt><trkpt lat="42.63861703646019" lon="11.418196242364298"><ele>127.33333333333334</ele><time>2026-03-29T13:05:21.98Z</time></trkpt><trkpt lat="42.63846890339901" lon="11.418134971924486"><ele>126.0</ele><time>2026-03-29T13:05:22.98Z</time></trkpt><trkpt lat="42.63831997652411" lon="11.41807941583557"><ele>126.0</ele><time>2026-03-29T13:05:23.98Z</time></trkpt><trkpt lat="42.638174932828996" lon="11.418024753721848"><ele>126.0</ele><time>2026-03-29T13:05:24.98Z</time></trkpt><trkpt lat="42.63804671228529" lon="11.417966947895904"><ele>126.0</ele><time>2026-03-29T13:05:25.98Z</time></trkpt><trkpt lat="42.637923342084335" lon="11.417903893298806"><ele>126.0</ele><time>2026-03-29T13:05:26.98Z</time></trkpt><trkpt lat="42.637820372620965" lon="11.417827748826632"><ele>126.8</ele><time>2026-03-29T13:05:27.98Z</time></trkpt><trkpt lat="42.6377386255354" lon="11.417741275939584"><ele>127.6</ele><time>2026-03-29T13:05:28.98Z</time></trkpt><trkpt lat="42.637689283197226" lon="11.417631842982036"><ele>128.4</ele><time>2026-03-29T13:05:29.98Z</time></trkpt><trkpt lat="42.63769270355724" lon="11.417494897047497"><ele>129.2</ele><time>2026-03-29T13:05:30.98Z</time></trkpt><trkpt lat="42.63774216050261" lon="11.417377702062899"><ele>130.0</ele><time>2026-03-29T13:05:31.98Z</time></trkpt><trkpt lat="42.63784770443766" lon="11.417287115998674"><ele>130.0</ele><time>2026-03-29T13:05:32.98Z</time></trkpt><trkpt lat="42.637966099170356" lon="11.41718406216857"><ele>130.0</ele><time>2026-03-29T13:05:33.98Z</time></trkpt><trkpt lat="42.638084393541014" lon="11.41706713871527"><ele>130.0</ele><time>2026-03-29T13:05:34.98Z</time></trkpt><trkpt lat="42.63822473345171" lon="11.416975500130174"><ele>130.0</ele><time>2026-03-29T13:05:35.98Z</time></trkpt><trkpt lat="42.63838232252152" lon="11.416896604299254"><ele>127.66666666666667</ele><time>2026-03-29T13:05:36.98Z</time></trkpt><trkpt lat="42.638560023093916" lon="11.4168187190819"><ele>125.33333333333334</ele><time>2026-03-29T13:05:37.98Z</time></trkpt><trkpt lat="42.638743071832465" lon="11.41674682858515"><ele>123.0</ele><time>2026-03-29T13:05:38.98Z</time></trkpt><trkpt lat="42.63892367560772" lon="11.4166860361158"><ele>123.0</ele><time>2026-03-29T13:05:39.979Z</time></trkpt><trkpt lat="42.63908497309009" lon="11.416598094525211"><ele>123.0</ele><time>2026-03-29T13:05:40.979Z</time></trkpt><trkpt lat="42.63923117028706" lon="11.41648186250853"><ele>123.0</ele><time>2026-03-29T13:05:41.979Z</time></trkpt><trkpt lat="42.639380890682965" lon="11.416393809739667"><ele>121.66666666666666</ele><time>2026-03-29T13:05:42.979Z</time></trkpt><trkpt lat="42.63952309383089" lon="11.4163002170765"><ele>120.33333333333333</ele><time>2026-03-29T13:05:43.979Z</time></trkpt><trkpt lat="42.63965468483682" lon="11.416196348547052"><ele>119.0</ele><time>2026-03-29T13:05:44.979Z</time></trkpt><trkpt lat="42.639773711646676" lon="11.416065827527108"><ele>119.0</ele><time>2026-03-29T13:05:45.979Z</time></trkpt><trkpt lat="42.63987335297064" lon="11.415915102559882"><ele>119.0</ele><time>2026-03-29T13:05:46.979Z</time></trkpt><trkpt lat="42.6399546602706" lon="11.41574939106092"><ele>119.0</ele><time>2026-03-29T13:05:47.979Z</time></trkpt><trkpt lat="42.64001604224174" lon="11.41557343510853"><ele>119.0</ele><time>2026-03-29T13:05:48.979Z</time></trkpt><trkpt lat="42.640051217338346" lon="11.415393982521353"><ele>117.5</ele><time>2026-03-29T13:05:49.979Z</time></trkpt><trkpt lat="42.64005567784533" lon="11.415205112052016"><ele>116.0</ele><time>2026-03-29T13:05:50.979Z</time></trkpt><trkpt lat="42.640031788414575" lon="11.415010823488165"><ele>114.5</ele><time>2026-03-29T13:05:51.979Z</time></trkpt><trkpt lat="42.639994991313635" lon="11.414802461448144"><ele>113.0</ele><time>2026-03-29T13:05:52.979Z</time></trkpt><trkpt lat="42.639959132413196" lon="11.414581742644454"><ele>113.0</ele><time>2026-03-29T13:05:53.979Z</time></trkpt><trkpt lat="42.639943118984355" lon="11.41436750346338"><ele>113.0</ele><time>2026-03-29T13:05:54.979Z</time></trkpt><trkpt lat="42.639907874455304" lon="11.414167458598904"><ele>113.0</ele><time>2026-03-29T13:05:55.979Z</time></trkpt><trkpt lat="42.639864314012506" lon="11.413975295958224"><ele>112.66666666666666</ele><time>2026-03-29T13:05:56.979Z</time></trkpt><trkpt lat="42.63980958893116" lon="11.413784394531595"><ele>112.33333333333334</ele><time>2026-03-29T13:05:57.979Z</time></trkpt><trkpt lat="42.63973875316871" lon="11.413594524641038"><ele>112.0</ele><time>2026-03-29T13:05:58.979Z</time></trkpt><trkpt lat="42.63965697665275" lon="11.413409059586446"><ele>112.0</ele><time>2026-03-29T13:05:59.979Z</time></trkpt><trkpt lat="42.63956409976679" lon="11.413227469335396"><ele>112.0</ele><time>2026-03-29T13:06:00.979Z</time></trkpt><trkpt lat="42.639462593203795" lon="11.413043918914708"><ele>112.0</ele><time>2026-03-29T13:06:01.979Z</time></trkpt><trkpt lat="42.639357419271064" lon="11.412882036391"><ele>112.0</ele><time>2026-03-29T13:06:02.979Z</time></trkpt><trkpt lat="42.63925600774871" lon="11.412720781926266"><ele>112.0</ele><time>2026-03-29T13:06:03.979Z</time></trkpt><trkpt lat="42.639160193446756" lon="11.412558193761056"><ele>112.0</ele><time>2026-03-29T13:06:04.979Z</time></trkpt><trkpt lat="42.63907450972526" lon="11.412399514262786"><ele>112.0</ele><time>2026-03-29T13:06:05.979Z</time></trkpt><trkpt lat="42.63900532616191" lon="11.4122419155685"><ele>112.0</ele><time>2026-03-29T13:06:06.979Z</time></trkpt><trkpt lat="42.638966261800505" lon="11.412067872069946"><ele>112.0</ele><time>2026-03-29T13:06:07.979Z</time></trkpt><trkpt lat="42.638944581797425" lon="11.411877543926064"><ele>112.0</ele><time>2026-03-29T13:06:08.979Z</time></trkpt><trkpt lat="42.63894707392815" lon="11.411671167383487"><ele>113.33333333333334</ele><time>2026-03-29T13:06:09.979Z</time></trkpt><trkpt lat="42.63898176068597" lon="11.411468048556591"><ele>114.66666666666666</ele><time>2026-03-29T13:06:10.979Z</time></trkpt><trkpt lat="42.639002570158674" lon="11.411255830202682"><ele>116.0</ele><time>2026-03-29T13:06:11.979Z</time></trkpt><trkpt lat="42.63901224998286" lon="11.41103218869774"><ele>117.0</ele><time>2026-03-29T13:06:12.979Z</time></trkpt><trkpt lat="42.639035766924295" lon="11.410809602618086"><ele>118.0</ele><time>2026-03-29T13:06:13.979Z</time></trkpt><trkpt lat="42.63906109457288" lon="11.410589159381855"><ele>119.0</ele><time>2026-03-29T13:06:14.979Z</time></trkpt><trkpt lat="42.639079751114565" lon="11.410370103560975"><ele>119.66666666666666</ele><time>2026-03-29T13:06:15.979Z</time></trkpt><trkpt lat="42.63908059029259" lon="11.410147848347647"><ele>120.33333333333334</ele><time>2026-03-29T13:06:16.979Z</time></trkpt><trkpt lat="42.63906422530867" lon="11.409931900031081"><ele>121.0</ele><time>2026-03-29T13:06:17.979Z</time></trkpt><trkpt lat="42.63904070564056" lon="11.409702823035207"><ele>122.0</ele><time>2026-03-29T13:06:18.979Z</time></trkpt><trkpt lat="42.63901409563347" lon="11.409472627732269"><ele>123.0</ele><time>2026-03-29T13:06:19.979Z</time></trkpt><trkpt lat="42.63897679807752" lon="11.409239800545341"><ele>124.0</ele><time>2026-03-29T13:06:20.979Z</time></trkpt><trkpt lat="42.63894371730938" lon="11.40900806439168"><ele>125.0</ele><time>2026-03-29T13:06:21.979Z</time></trkpt><trkpt lat="42.63891484370451" lon="11.408775181004525"><ele>126.0</ele><time>2026-03-29T13:06:22.978Z</time></trkpt><trkpt lat="42.63888204418437" lon="11.408540973774098"><ele>127.0</ele><time>2026-03-29T13:06:23.978Z</time></trkpt><trkpt lat="42.63885576360353" lon="11.408311600663481"><ele>127.0</ele><time>2026-03-29T13:06:24.978Z</time></trkpt><trkpt lat="42.63882487424826" lon="11.408094256656918"><ele>127.0</ele><time>2026-03-29T13:06:25.978Z</time></trkpt><trkpt lat="42.638797224266334" lon="11.407887957856161"><ele>127.0</ele><time>2026-03-29T13:06:26.978Z</time></trkpt><trkpt lat="42.63877578826379" lon="11.407705566960349"><ele>128.0</ele><time>2026-03-29T13:06:27.978Z</time></trkpt><trkpt lat="42.63875513883619" lon="11.407538893419288"><ele>129.0</ele><time>2026-03-29T13:06:28.978Z</time></trkpt><trkpt lat="42.63875833416261" lon="11.40737937613503"><ele>130.0</ele><time>2026-03-29T13:06:29.978Z</time></trkpt><trkpt lat="42.638738939586666" lon="11.407235598270095"><ele>131.0</ele><time>2026-03-29T13:06:30.978Z</time></trkpt><trkpt lat="42.638718785721764" lon="11.407103547673488"><ele>132.0</ele><time>2026-03-29T13:06:31.978Z</time></trkpt><trkpt lat="42.63870640901814" lon="11.406960254140118"><ele>133.4</ele><time>2026-03-29T13:06:32.978Z</time></trkpt><trkpt lat="42.638712680395486" lon="11.406818992970127"><ele>134.79999999999998</ele><time>2026-03-29T13:06:33.978Z</time></trkpt><trkpt lat="42.638743075221385" lon="11.40667488031765"><ele>136.2</ele><time>2026-03-29T13:06:34.978Z</time></trkpt><trkpt lat="42.63879020820871" lon="11.406534679726821"><ele>137.6</ele><time>2026-03-29T13:06:35.978Z</time></trkpt><trkpt lat="42.638856234499464" lon="11.406403853800724"><ele>139.0</ele><time>2026-03-29T13:06:36.978Z</time></trkpt><trkpt lat="42.63894546999792" lon="11.406289188802312"><ele>140.25</ele><time>2026-03-29T13:06:37.978Z</time></trkpt><trkpt lat="42.63904578886221" lon="11.40615581209735"><ele>141.5</ele><time>2026-03-29T13:06:38.98Z</time></trkpt><trkpt lat="42.639149033897446" lon="11.406019959460814"><ele>142.75</ele><time>2026-03-29T13:06:39.98Z</time></trkpt><trkpt lat="42.63926530212567" lon="11.405865268245565"><ele>144.0</ele><time>2026-03-29T13:06:40.98Z</time></trkpt><trkpt lat="42.639394476572335" lon="11.405695634826554"><ele>144.33333333333334</ele><time>2026-03-29T13:06:41.98Z</time></trkpt><trkpt lat="42.63953195825241" lon="11.405524874367012"><ele>144.66666666666669</ele><time>2026-03-29T13:06:42.98Z</time></trkpt><trkpt lat="42.63967442538365" lon="11.405338964429493"><ele>145.0</ele><time>2026-03-29T13:06:43.98Z</time></trkpt><trkpt lat="42.639823951301686" lon="11.40515759785203"><ele>145.0</ele><time>2026-03-29T13:06:44.98Z</time></trkpt><trkpt lat="42.63997605965601" lon="11.404960826183201"><ele>145.0</ele><time>2026-03-29T13:06:45.979Z</time></trkpt><trkpt lat="42.64011837174576" lon="11.40474608861109"><ele>145.0</ele><time>2026-03-29T13:06:46.979Z</time></trkpt><trkpt lat="42.640275566817756" lon="11.404545742785354"><ele>144.66666666666669</ele><time>2026-03-29T13:06:47.98Z</time></trkpt><trkpt lat="42.64043419065875" lon="11.40434248862851"><ele>144.33333333333334</ele><time>2026-03-29T13:06:48.98Z</time></trkpt><trkpt lat="42.64058858826394" lon="11.404143606504377"><ele>144.0</ele><time>2026-03-29T13:06:49.98Z</time></trkpt><trkpt lat="42.6407440719591" lon="11.403945438031837"><ele>145.33333333333334</ele><time>2026-03-29T13:06:50.98Z</time></trkpt><trkpt lat="42.64089779458089" lon="11.403744309213625"><ele>146.66666666666669</ele><time>2026-03-29T13:06:51.979Z</time></trkpt><trkpt lat="42.64105169083077" lon="11.403540167603579"><ele>148.0</ele><time>2026-03-29T13:06:52.979Z</time></trkpt><trkpt lat="42.6412073518552" lon="11.403334239754164"><ele>148.0</ele><time>2026-03-29T13:06:53.979Z</time></trkpt><trkpt lat="42.64136247328641" lon="11.403125752853446"><ele>148.0</ele><time>2026-03-29T13:06:54.979Z</time></trkpt><trkpt lat="42.64151790129659" lon="11.402919137657069"><ele>148.0</ele><time>2026-03-29T13:06:55.979Z</time></trkpt><trkpt lat="42.64167483315881" lon="11.402713616619664"><ele>148.0</ele><time>2026-03-29T13:06:56.979Z</time></trkpt><trkpt lat="42.641832082689355" lon="11.402507599886652"><ele>148.0</ele><time>2026-03-29T13:06:57.979Z</time></trkpt><trkpt lat="42.64198504788033" lon="11.402307047139734"><ele>148.0</ele><time>2026-03-29T13:06:58.979Z</time></trkpt><trkpt lat="42.64213567944226" lon="11.402117948624308"><ele>149.0</ele><time>2026-03-29T13:06:59.979Z</time></trkpt><trkpt lat="42.64227883745513" lon="11.401926480089145"><ele>150.0</ele><time>2026-03-29T13:07:00.979Z</time></trkpt><trkpt lat="42.642420851969064" lon="11.40172881145523"><ele>151.0</ele><time>2026-03-29T13:07:01.979Z</time></trkpt><trkpt lat="42.642573905951735" lon="11.40152499022566"><ele>151.33333333333334</ele><time>2026-03-29T13:07:02.979Z</time></trkpt><trkpt lat="42.642726122250096" lon="11.401330090839105"><ele>151.66666666666666</ele><time>2026-03-29T13:07:03.979Z</time></trkpt><trkpt lat="42.64287522691974" lon="11.401130076856283"><ele>152.0</ele><time>2026-03-29T13:07:04.979Z</time></trkpt><trkpt lat="42.6430185329371" lon="11.400940302113815"><ele>153.0</ele><time>2026-03-29T13:07:05.979Z</time></trkpt><trkpt lat="42.64314697979224" lon="11.40077289409657"><ele>154.0</ele><time>2026-03-29T13:07:06.979Z</time></trkpt><trkpt lat="42.64327727152702" lon="11.40061598051838"><ele>155.0</ele><time>2026-03-29T13:07:07.979Z</time></trkpt><trkpt lat="42.64341248986868" lon="11.400415304994375"><ele>155.5</ele><time>2026-03-29T13:07:08.979Z</time></trkpt><trkpt lat="42.643590639068265" lon="11.400202635203632"><ele>156.0</ele><time>2026-03-29T13:07:09.979Z</time></trkpt><trkpt lat="42.643780801262714" lon="11.399964721882835"><ele>158.0</ele><time>2026-03-29T13:07:10.979Z</time></trkpt><trkpt lat="42.64397235808774" lon="11.399724335334291"><ele>160.0</ele><time>2026-03-29T13:07:11.979Z</time></trkpt><trkpt lat="42.64413475784752" lon="11.399503149533468"><ele>160.0</ele><time>2026-03-29T13:07:12.979Z</time></trkpt><trkpt lat="42.644284916328964" lon="11.399301320646343"><ele>160.0</ele><time>2026-03-29T13:07:13.979Z</time></trkpt><trkpt lat="42.64443047423006" lon="11.399117641183745"><ele>160.0</ele><time>2026-03-29T13:07:14.979Z</time></trkpt><trkpt lat="42.64458701913324" lon="11.398943185572273"><ele>159.0</ele><time>2026-03-29T13:07:15.979Z</time></trkpt><trkpt lat="42.64476073368981" lon="11.398774157019092"><ele>158.0</ele><time>2026-03-29T13:07:16.979Z</time></trkpt><trkpt lat="42.64495379996543" lon="11.398614133542045"><ele>157.0</ele><time>2026-03-29T13:07:17.979Z</time></trkpt><trkpt lat="42.645173931446415" lon="11.398449456557408"><ele>159.0</ele><time>2026-03-29T13:07:18.979Z</time></trkpt><trkpt lat="42.645394792551" lon="11.398273292851249"><ele>161.0</ele><time>2026-03-29T13:07:19.979Z</time></trkpt><trkpt lat="42.64560698694855" lon="11.398108235311934"><ele>161.0</ele><time>2026-03-29T13:07:20.979Z</time></trkpt><trkpt lat="42.645804728101986" lon="11.397949133293087"><ele>161.0</ele><time>2026-03-29T13:07:21.979Z</time></trkpt><trkpt lat="42.645994624901746" lon="11.397806416705066"><ele>161.0</ele><time>2026-03-29T13:07:22.979Z</time></trkpt><trkpt lat="42.64618478466403" lon="11.397664346776468"><ele>161.0</ele><time>2026-03-29T13:07:23.979Z</time></trkpt><trkpt lat="42.6463678651205" lon="11.397537074927286"><ele>161.0</ele><time>2026-03-29T13:07:24.979Z</time></trkpt><trkpt lat="42.64654097330268" lon="11.397406399708132"><ele>161.0</ele><time>2026-03-29T13:07:25.979Z</time></trkpt><trkpt lat="42.646702923290306" lon="11.397281784764528"><ele>159.33333333333331</ele><time>2026-03-29T13:07:26.979Z</time></trkpt><trkpt lat="42.646848357546844" lon="11.397168835640867"><ele>157.66666666666666</ele><time>2026-03-29T13:07:27.979Z</time></trkpt><trkpt lat="42.646972003381514" lon="11.397054967878244"><ele>156.0</ele><time>2026-03-29T13:07:28.979Z</time></trkpt><trkpt lat="42.64707409193492" lon="11.396931215593499"><ele>156.0</ele><time>2026-03-29T13:07:29.978Z</time></trkpt><trkpt lat="42.64715233546691" lon="11.396766221333394"><ele>156.0</ele><time>2026-03-29T13:07:30.978Z</time></trkpt><trkpt lat="42.64720339512437" lon="11.396580894874038"><ele>156.0</ele><time>2026-03-29T13:07:31.978Z</time></trkpt><trkpt lat="42.64722700063095" lon="11.396365624368421"><ele>154.33333333333334</ele><time>2026-03-29T13:07:32.978Z</time></trkpt><trkpt lat="42.647235799208396" lon="11.396108844288186"><ele>152.66666666666669</ele><time>2026-03-29T13:07:33.978Z</time></trkpt><trkpt lat="42.64725346844298" lon="11.39582232036229"><ele>151.0</ele><time>2026-03-29T13:07:34.978Z</time></trkpt><trkpt lat="42.64727071807382" lon="11.395510196322574"><ele>150.0</ele><time>2026-03-29T13:07:35.978Z</time></trkpt><trkpt lat="42.647289416231914" lon="11.395192187390954"><ele>149.0</ele><time>2026-03-29T13:07:36.978Z</time></trkpt><trkpt lat="42.647302646298364" lon="11.394896835701282"><ele>149.33333333333331</ele><time>2026-03-29T13:07:37.978Z</time></trkpt><trkpt lat="42.64733543349145" lon="11.394638804847375"><ele>149.66666666666666</ele><time>2026-03-29T13:07:38.978Z</time></trkpt><trkpt lat="42.64735464807761" lon="11.394376114880114"><ele>150.0</ele><time>2026-03-29T13:07:39.978Z</time></trkpt><trkpt lat="42.647370419103495" lon="11.39413372445242"><ele>150.0</ele><time>2026-03-29T13:07:40.978Z</time></trkpt><trkpt lat="42.647347889751586" lon="11.393901316105254"><ele>150.0</ele><time>2026-03-29T13:07:41.978Z</time></trkpt><trkpt lat="42.647340001937344" lon="11.393697231931533"><ele>150.0</ele><time>2026-03-29T13:07:42.978Z</time></trkpt><trkpt lat="42.647293459787676" lon="11.39351511017342"><ele>151.0</ele><time>2026-03-29T13:07:43.978Z</time></trkpt><trkpt lat="42.64721470747898" lon="11.393357408751964"><ele>152.0</ele><time>2026-03-29T13:07:44.978Z</time></trkpt><trkpt lat="42.64710378736663" lon="11.39323640673649"><ele>153.0</ele><time>2026-03-29T13:07:45.978Z</time></trkpt><trkpt lat="42.64695502499626" lon="11.393152347701491"><ele>154.0</ele><time>2026-03-29T13:07:46.978Z</time></trkpt><trkpt lat="42.64677444157053" lon="11.393086484634916"><ele>154.0</ele><time>2026-03-29T13:07:47.978Z</time></trkpt><trkpt lat="42.64656931800282" lon="11.393019313065585"><ele>154.0</ele><time>2026-03-29T13:07:48.978Z</time></trkpt><trkpt lat="42.64634441883683" lon="11.392926979453383"><ele>154.0</ele><time>2026-03-29T13:07:49.978Z</time></trkpt><trkpt lat="42.64612098925774" lon="11.392833254505467"><ele>156.0</ele><time>2026-03-29T13:07:50.978Z</time></trkpt><trkpt lat="42.645909790955805" lon="11.392747948563935"><ele>158.0</ele><time>2026-03-29T13:07:51.978Z</time></trkpt><trkpt lat="42.645708133916415" lon="11.392645771071832"><ele>160.0</ele><time>2026-03-29T13:07:52.978Z</time></trkpt><trkpt lat="42.645517152540236" lon="11.39251655727727"><ele>160.0</ele><time>2026-03-29T13:07:53.978Z</time></trkpt><trkpt lat="42.645319783787436" lon="11.392365833131079"><ele>160.0</ele><time>2026-03-29T13:07:54.978Z</time></trkpt><trkpt lat="42.645135245540644" lon="11.392227423624087"><ele>160.0</ele><time>2026-03-29T13:07:55.978Z</time></trkpt><trkpt lat="42.644956992965874" lon="11.39208293613225"><ele>160.66666666666669</ele><time>2026-03-29T13:07:56.978Z</time></trkpt><trkpt lat="42.64478683436292" lon="11.391945438902601"><ele>161.33333333333334</ele><time>2026-03-29T13:07:57.978Z</time></trkpt><trkpt lat="42.64463060185995" lon="11.391818040063898"><ele>162.0</ele><time>2026-03-29T13:07:58.978Z</time></trkpt><trkpt lat="42.644494652673586" lon="11.391693639047153"><ele>161.25</ele><time>2026-03-29T13:07:59.978Z</time></trkpt><trkpt lat="42.64438885546716" lon="11.391569843456296"><ele>160.5</ele><time>2026-03-29T13:08:00.978Z</time></trkpt><trkpt lat="42.64432200099922" lon="11.391431939718728"><ele>159.75</ele><time>2026-03-29T13:08:01.978Z</time></trkpt><trkpt lat="42.64429919615887" lon="11.391282536961508"><ele>159.0</ele><time>2026-03-29T13:08:02.978Z</time></trkpt><trkpt lat="42.644303204764284" lon="11.391107784854594"><ele>159.0</ele><time>2026-03-29T13:08:03.978Z</time></trkpt><trkpt lat="42.64434981653601" lon="11.390897107277855"><ele>159.0</ele><time>2026-03-29T13:08:04.978Z</time></trkpt><trkpt lat="42.64442415229758" lon="11.39064554347563"><ele>159.0</ele><time>2026-03-29T13:08:05.978Z</time></trkpt><trkpt lat="42.64449869693245" lon="11.390353430597736"><ele>159.5</ele><time>2026-03-29T13:08:06.978Z</time></trkpt><trkpt lat="42.64457324059319" lon="11.390021379353916"><ele>160.0</ele><time>2026-03-29T13:08:07.978Z</time></trkpt><trkpt lat="42.6446526168257" lon="11.389676209181955"><ele>159.5</ele><time>2026-03-29T13:08:08.978Z</time></trkpt><trkpt lat="42.64471891493015" lon="11.389360578284075"><ele>159.0</ele><time>2026-03-29T13:08:09.978Z</time></trkpt><trkpt lat="42.64478121094525" lon="11.389062125521978"><ele>159.0</ele><time>2026-03-29T13:08:10.978Z</time></trkpt><trkpt lat="42.64483242581012" lon="11.388767484757823"><ele>159.0</ele><time>2026-03-29T13:08:11.977Z</time></trkpt><trkpt lat="42.64486446987436" lon="11.38849120087468"><ele>159.0</ele><time>2026-03-29T13:08:12.977Z</time></trkpt><trkpt lat="42.644868119140355" lon="11.388231487573776"><ele>159.0</ele><time>2026-03-29T13:08:13.977Z</time></trkpt><trkpt lat="42.64483830871193" lon="11.387989416925183"><ele>159.0</ele><time>2026-03-29T13:08:14.977Z</time></trkpt><trkpt lat="42.64477413920671" lon="11.387756788548238"><ele>159.0</ele><time>2026-03-29T13:08:15.977Z</time></trkpt><trkpt lat="42.64468242419658" lon="11.387570417919601"><ele>159.0</ele><time>2026-03-29T13:08:16.977Z</time></trkpt><trkpt lat="42.644561506187905" lon="11.387385491889702"><ele>159.0</ele><time>2026-03-29T13:08:17.977Z</time></trkpt><trkpt lat="42.64445726073032" lon="11.387215008034868"><ele>159.0</ele><time>2026-03-29T13:08:18.977Z</time></trkpt><trkpt lat="42.6443321362832" lon="11.386973483300757"><ele>160.0</ele><time>2026-03-29T13:08:19.977Z</time></trkpt><trkpt lat="42.6442189416775" lon="11.386749736918208"><ele>161.0</ele><time>2026-03-29T13:08:20.977Z</time></trkpt><trkpt lat="42.64411398614153" lon="11.38656377525615"><ele>162.0</ele><time>2026-03-29T13:08:21.977Z</time></trkpt><trkpt lat="42.64403954534793" lon="11.386364445566914"><ele>162.75</ele><time>2026-03-29T13:08:22.977Z</time></trkpt><trkpt lat="42.643984656634885" lon="11.386186293546523"><ele>163.5</ele><time>2026-03-29T13:08:23.977Z</time></trkpt><trkpt lat="42.64395348965992" lon="11.386031540394214"><ele>164.25</ele><time>2026-03-29T13:08:24.977Z</time></trkpt><trkpt lat="42.64395641877815" lon="11.385883846938045"><ele>165.0</ele><time>2026-03-29T13:08:25.977Z</time></trkpt><trkpt lat="42.64399866065873" lon="11.385753533281122"><ele>165.0</ele><time>2026-03-29T13:08:26.977Z</time></trkpt><trkpt lat="42.644066130950435" lon="11.385601614560963"><ele>165.0</ele><time>2026-03-29T13:08:27.977Z</time></trkpt><trkpt lat="42.644178338207155" lon="11.385446194959425"><ele>165.0</ele><time>2026-03-29T13:08:28.977Z</time></trkpt><trkpt lat="42.644318719991006" lon="11.38528603688517"><ele>167.33333333333334</ele><time>2026-03-29T13:08:29.977Z</time></trkpt><trkpt lat="42.64447327409803" lon="11.385102387822867"><ele>169.66666666666669</ele><time>2026-03-29T13:08:30.977Z</time></trkpt><trkpt lat="42.64462807080063" lon="11.38488148443057"><ele>172.0</ele><time>2026-03-29T13:08:31.977Z</time></trkpt><trkpt lat="42.644782156054966" lon="11.38468458271322"><ele>169.75</ele><time>2026-03-29T13:08:32.977Z</time></trkpt><trkpt lat="42.644915623891826" lon="11.384525860502592"><ele>167.5</ele><time>2026-03-29T13:08:33.977Z</time></trkpt><trkpt lat="42.645024247289896" lon="11.384398869491848"><ele>165.25</ele><time>2026-03-29T13:08:34.903Z</time></trkpt><trkpt lat="42.64510943903743" lon="11.384294180956493"><ele>163.0</ele><time>2026-03-29T13:08:35.903Z</time></trkpt><trkpt lat="42.64516785146322" lon="11.384227841752189"><ele>163.0</ele><time>2026-03-29T13:08:36.903Z</time></trkpt><trkpt lat="42.64524041928801" lon="11.384162775752865"><ele>163.0</ele><time>2026-03-29T13:08:38.903Z</time></trkpt><trkpt lat="42.645312246352255" lon="11.384072510201934"><ele>163.0</ele><time>2026-03-29T13:08:40.902Z</time></trkpt><trkpt lat="42.64537371474478" lon="11.383985618475831"><ele>163.0</ele><time>2026-03-29T13:08:41.902Z</time></trkpt><trkpt lat="42.64547244183037" lon="11.383886391032854"><ele>163.0</ele><time>2026-03-29T13:08:42.902Z</time></trkpt><trkpt lat="42.645586108538176" lon="11.383785480926909"><ele>162.33333333333334</ele><time>2026-03-29T13:08:43.901Z</time></trkpt><trkpt lat="42.645722022921724" lon="11.38369323937765"><ele>161.66666666666666</ele><time>2026-03-29T13:08:44.903Z</time></trkpt><trkpt lat="42.645888809219635" lon="11.383600422014739"><ele>161.0</ele><time>2026-03-29T13:08:45.904Z</time></trkpt><trkpt lat="42.646053164820955" lon="11.383510460033104"><ele>165.0</ele><time>2026-03-29T13:08:46.903Z</time></trkpt><trkpt lat="42.646207037295106" lon="11.383414930951904"><ele>169.0</ele><time>2026-03-29T13:08:47.903Z</time></trkpt><trkpt lat="42.646341305131415" lon="11.383315023465402"><ele>173.0</ele><time>2026-03-29T13:08:48.903Z</time></trkpt><trkpt lat="42.64645933015541" lon="11.383190609418133"><ele>173.0</ele><time>2026-03-29T13:08:49.903Z</time></trkpt><trkpt lat="42.646541282176344" lon="11.383014877403253"><ele>173.0</ele><time>2026-03-29T13:08:50.903Z</time></trkpt><trkpt lat="42.64661284773923" lon="11.38280297573971"><ele>173.0</ele><time>2026-03-29T13:08:51.903Z</time></trkpt><trkpt lat="42.64668635534149" lon="11.382545521239107"><ele>170.66666666666666</ele><time>2026-03-29T13:08:52.903Z</time></trkpt><trkpt lat="42.64676872647532" lon="11.38225731999061"><ele>168.33333333333334</ele><time>2026-03-29T13:08:53.903Z</time></trkpt><trkpt lat="42.64684314757989" lon="11.381998769509684"><ele>166.0</ele><time>2026-03-29T13:08:54.902Z</time></trkpt><trkpt lat="42.64690246362557" lon="11.381740811303347"><ele>165.66666666666669</ele><time>2026-03-29T13:08:55.902Z</time></trkpt><trkpt lat="42.646979504633705" lon="11.381528409103488"><ele>165.33333333333334</ele><time>2026-03-29T13:08:56.902Z</time></trkpt><trkpt lat="42.64705925257814" lon="11.381323502635256"><ele>165.0</ele><time>2026-03-29T13:08:57.902Z</time></trkpt><trkpt lat="42.64715327876142" lon="11.381155237256971"><ele>167.75</ele><time>2026-03-29T13:08:58.902Z</time></trkpt><trkpt lat="42.64726661362724" lon="11.38103834093496"><ele>170.5</ele><time>2026-03-29T13:08:59.902Z</time></trkpt><trkpt lat="42.6474032355113" lon="11.38099348166207"><ele>173.25</ele><time>2026-03-29T13:09:00.902Z</time></trkpt><trkpt lat="42.64753762751468" lon="11.380994073735883"><ele>176.0</ele><time>2026-03-29T13:09:01.902Z</time></trkpt><trkpt lat="42.64770234924491" lon="11.38100365366356"><ele>177.66666666666666</ele><time>2026-03-29T13:09:02.902Z</time></trkpt><trkpt lat="42.64788848844903" lon="11.381018249684764"><ele>179.33333333333334</ele><time>2026-03-29T13:09:03.902Z</time></trkpt><trkpt lat="42.64811210409818" lon="11.381021993705852"><ele>181.0</ele><time>2026-03-29T13:09:04.902Z</time></trkpt><trkpt lat="42.64833984210457" lon="11.381055983069514"><ele>181.0</ele><time>2026-03-29T13:09:05.902Z</time></trkpt><trkpt lat="42.64859243647288" lon="11.38108799750992"><ele>181.0</ele><time>2026-03-29T13:09:06.901Z</time></trkpt><trkpt lat="42.64885199042322" lon="11.381111780476944"><ele>186.0</ele><time>2026-03-29T13:09:07.901Z</time></trkpt><trkpt lat="42.64910657713216" lon="11.38113843263649"><ele>191.0</ele><time>2026-03-29T13:09:08.901Z</time></trkpt><trkpt lat="42.649352405222906" lon="11.381165421614435"><ele>194.66666666666666</ele><time>2026-03-29T13:09:09.901Z</time></trkpt><trkpt lat="42.649576372376075" lon="11.381217437175163"><ele>198.33333333333331</ele><time>2026-03-29T13:09:10.901Z</time></trkpt><trkpt lat="42.64978507692321" lon="11.38127417149846"><ele>202.0</ele><time>2026-03-29T13:09:11.901Z</time></trkpt><trkpt lat="42.64998319165517" lon="11.381322507844091"><ele>196.33333333333331</ele><time>2026-03-29T13:09:12.901Z</time></trkpt><trkpt lat="42.65015944807254" lon="11.381364741310895"><ele>190.66666666666666</ele><time>2026-03-29T13:09:13.901Z</time></trkpt><trkpt lat="42.650305008988006" lon="11.381375839938224"><ele>185.0</ele><time>2026-03-29T13:09:14.901Z</time></trkpt><trkpt lat="42.65043938322948" lon="11.381357396525019"><ele>188.75</ele><time>2026-03-29T13:09:15.901Z</time></trkpt><trkpt lat="42.65056941702964" lon="11.381298661572783"><ele>192.5</ele><time>2026-03-29T13:09:16.901Z</time></trkpt><trkpt lat="42.65069643438556" lon="11.381198710744233"><ele>196.25</ele><time>2026-03-29T13:09:17.901Z</time></trkpt><trkpt lat="42.65082093426005" lon="11.381055198990547"><ele>200.0</ele><time>2026-03-29T13:09:18.901Z</time></trkpt><trkpt lat="42.650926384905546" lon="11.380918223665775"><ele>200.0</ele><time>2026-03-29T13:09:19.901Z</time></trkpt><trkpt lat="42.651029768728186" lon="11.380798349901303"><ele>200.0</ele><time>2026-03-29T13:09:20.901Z</time></trkpt><trkpt lat="42.651129582604504" lon="11.38070095438548"><ele>200.0</ele><time>2026-03-29T13:09:21.901Z</time></trkpt><trkpt lat="42.65122708694054" lon="11.38062890803509"><ele>200.0</ele><time>2026-03-29T13:09:22.9Z</time></trkpt><trkpt lat="42.65132856078401" lon="11.380619420375456"><ele>199.5</ele><time>2026-03-29T13:09:23.9Z</time></trkpt><trkpt lat="42.65144234386503" lon="11.380579306417626"><ele>199.0</ele><time>2026-03-29T13:09:24.9Z</time></trkpt><trkpt lat="42.65157853889291" lon="11.380603617232223"><ele>198.5</ele><time>2026-03-29T13:09:25.9Z</time></trkpt><trkpt lat="42.65174186772372" lon="11.380588374392723"><ele>198.0</ele><time>2026-03-29T13:09:26.9Z</time></trkpt><trkpt lat="42.65193291358656" lon="11.380539638137568"><ele>203.66666666666669</ele><time>2026-03-29T13:09:27.9Z</time></trkpt><trkpt lat="42.65213219381009" lon="11.380466574939232"><ele>209.33333333333334</ele><time>2026-03-29T13:09:28.9Z</time></trkpt><trkpt lat="42.65233601187612" lon="11.38035009183869"><ele>215.0</ele><time>2026-03-29T13:09:29.9Z</time></trkpt><trkpt lat="42.65246543450804" lon="11.380219873493314"><ele>215.0</ele><time>2026-03-29T13:09:30.9Z</time></trkpt><trkpt lat="42.65265453906961" lon="11.380108645353113"><ele>215.0</ele><time>2026-03-29T13:09:31.9Z</time></trkpt><trkpt lat="42.652834040182505" lon="11.380009607354294"><ele>215.0</ele><time>2026-03-29T13:09:32.9Z</time></trkpt><trkpt lat="42.653021812070406" lon="11.379952419898315"><ele>216.0</ele><time>2026-03-29T13:09:33.9Z</time></trkpt><trkpt lat="42.65321493467853" lon="11.379933550877691"><ele>217.0</ele><time>2026-03-29T13:09:34.9Z</time></trkpt><trkpt lat="42.653416408161256" lon="11.379935073555018"><ele>218.0</ele><time>2026-03-29T13:09:35.9Z</time></trkpt><trkpt lat="42.653597057654785" lon="11.379936450786847"><ele>219.33333333333334</ele><time>2026-03-29T13:09:36.9Z</time></trkpt><trkpt lat="42.653759270675074" lon="11.379929273240286"><ele>220.66666666666669</ele><time>2026-03-29T13:09:37.9Z</time></trkpt><trkpt lat="42.653905195764665" lon="11.379899276277472"><ele>222.0</ele><time>2026-03-29T13:09:38.9Z</time></trkpt><trkpt lat="42.65402945761537" lon="11.379808673079879"><ele>225.33333333333331</ele><time>2026-03-29T13:09:39.9Z</time></trkpt><trkpt lat="42.6541448401355" lon="11.379674771581705"><ele>228.66666666666666</ele><time>2026-03-29T13:09:40.9Z</time></trkpt><trkpt lat="42.65428108041613" lon="11.379507645683455"><ele>232.0</ele><time>2026-03-29T13:09:41.9Z</time></trkpt><trkpt lat="42.654422889594905" lon="11.37934565457394"><ele>232.33333333333331</ele><time>2026-03-29T13:09:42.9Z</time></trkpt><trkpt lat="42.654575421838764" lon="11.379178799182233"><ele>232.66666666666669</ele><time>2026-03-29T13:09:43.899Z</time></trkpt><trkpt lat="42.65470889770616" lon="11.379014962715194"><ele>233.0</ele><time>2026-03-29T13:09:44.899Z</time></trkpt><trkpt lat="42.65483516330326" lon="11.378877522475943"><ele>233.25</ele><time>2026-03-29T13:09:45.899Z</time></trkpt><trkpt lat="42.65495018441031" lon="11.378754571852424"><ele>233.5</ele><time>2026-03-29T13:09:46.899Z</time></trkpt><trkpt lat="42.65506838536597" lon="11.378647086093332"><ele>233.75</ele><time>2026-03-29T13:09:47.899Z</time></trkpt><trkpt lat="42.65521609564055" lon="11.378575055960503"><ele>234.0</ele><time>2026-03-29T13:09:48.899Z</time></trkpt><trkpt lat="42.655380958440325" lon="11.378489541211858"><ele>234.0</ele><time>2026-03-29T13:09:49.899Z</time></trkpt><trkpt lat="42.65555683040773" lon="11.378398208025946"><ele>234.0</ele><time>2026-03-29T13:09:50.899Z</time></trkpt><trkpt lat="42.65574504227879" lon="11.378300466501019"><ele>234.0</ele><time>2026-03-29T13:09:51.899Z</time></trkpt><trkpt lat="42.655937674222486" lon="11.378197643859576"><ele>234.0</ele><time>2026-03-29T13:09:52.899Z</time></trkpt><trkpt lat="42.6561346526093" lon="11.37808301719745"><ele>234.0</ele><time>2026-03-29T13:09:53.899Z</time></trkpt><trkpt lat="42.656336551580516" lon="11.377975240642717"><ele>234.0</ele><time>2026-03-29T13:09:54.899Z</time></trkpt><trkpt lat="42.656544088413455" lon="11.37786738263273"><ele>234.0</ele><time>2026-03-29T13:09:55.899Z</time></trkpt><trkpt lat="42.65674628085238" lon="11.377757250437542"><ele>234.0</ele><time>2026-03-29T13:09:56.899Z</time></trkpt><trkpt lat="42.65694035970381" lon="11.377649497175696"><ele>234.0</ele><time>2026-03-29T13:09:57.899Z</time></trkpt><trkpt lat="42.65712993147867" lon="11.37754463246351"><ele>236.0</ele><time>2026-03-29T13:09:58.899Z</time></trkpt><trkpt lat="42.65731711207087" lon="11.377480559581816"><ele>238.0</ele><time>2026-03-29T13:09:59.899Z</time></trkpt><trkpt lat="42.6574891322917" lon="11.37739283863092"><ele>240.0</ele><time>2026-03-29T13:10:00.899Z</time></trkpt><trkpt lat="42.65764323083915" lon="11.377303058012243"><ele>240.5</ele><time>2026-03-29T13:10:01.899Z</time></trkpt><trkpt lat="42.657786284728964" lon="11.377300862279634"><ele>241.0</ele><time>2026-03-29T13:10:02.899Z</time></trkpt><trkpt lat="42.657913883699294" lon="11.37733326289947"><ele>241.5</ele><time>2026-03-29T13:10:03.899Z</time></trkpt><trkpt lat="42.658040364340955" lon="11.377393886031758"><ele>242.0</ele><time>2026-03-29T13:10:04.899Z</time></trkpt><trkpt lat="42.658186773294695" lon="11.37748086266158"><ele>242.0</ele><time>2026-03-29T13:10:05.899Z</time></trkpt><trkpt lat="42.658356530462775" lon="11.377554259226777"><ele>242.0</ele><time>2026-03-29T13:10:06.899Z</time></trkpt><trkpt lat="42.65853791145529" lon="11.37764119391104"><ele>242.0</ele><time>2026-03-29T13:10:07.899Z</time></trkpt><trkpt lat="42.658727631956154" lon="11.37771485863384"><ele>241.33333333333334</ele><time>2026-03-29T13:10:08.898Z</time></trkpt><trkpt lat="42.65892965598979" lon="11.37778752759572"><ele>240.66666666666669</ele><time>2026-03-29T13:10:09.898Z</time></trkpt><trkpt lat="42.65913166729198" lon="11.37786423659535"><ele>240.0</ele><time>2026-03-29T13:10:10.898Z</time></trkpt><trkpt lat="42.659330149853844" lon="11.377934426570325"><ele>239.66666666666669</ele><time>2026-03-29T13:10:11.898Z</time></trkpt><trkpt lat="42.659520266755294" lon="11.377987521819605"><ele>239.33333333333334</ele><time>2026-03-29T13:10:12.898Z</time></trkpt><trkpt lat="42.6597245728834" lon="11.37799919953646"><ele>239.0</ele><time>2026-03-29T13:10:13.898Z</time></trkpt><trkpt lat="42.659932479526034" lon="11.37797769037086"><ele>239.0</ele><time>2026-03-29T13:10:14.898Z</time></trkpt><trkpt lat="42.66014779529761" lon="11.377937904369155"><ele>239.0</ele><time>2026-03-29T13:10:15.898Z</time></trkpt><trkpt lat="42.660357508875315" lon="11.37789116432151"><ele>239.0</ele><time>2026-03-29T13:10:16.898Z</time></trkpt><trkpt lat="42.66056410477734" lon="11.377855669460066"><ele>240.66666666666669</ele><time>2026-03-29T13:10:17.898Z</time></trkpt><trkpt lat="42.66076608382495" lon="11.377841600434728"><ele>242.33333333333331</ele><time>2026-03-29T13:10:18.898Z</time></trkpt><trkpt lat="42.66097571289172" lon="11.3778386512611"><ele>244.0</ele><time>2026-03-29T13:10:19.898Z</time></trkpt><trkpt lat="42.661188376053516" lon="11.377852313020144"><ele>246.33333333333331</ele><time>2026-03-29T13:10:20.898Z</time></trkpt><trkpt lat="42.661400285304865" lon="11.377894566229454"><ele>248.66666666666669</ele><time>2026-03-29T13:10:21.898Z</time></trkpt><trkpt lat="42.66160259408062" lon="11.37793237091738"><ele>251.0</ele><time>2026-03-29T13:10:22.898Z</time></trkpt><trkpt lat="42.661801431328584" lon="11.377948073134915"><ele>253.33333333333334</ele><time>2026-03-29T13:10:23.898Z</time></trkpt><trkpt lat="42.662014292226075" lon="11.377934359526451"><ele>255.66666666666669</ele><time>2026-03-29T13:10:24.898Z</time></trkpt><trkpt lat="42.66223578702487" lon="11.37790537207696"><ele>258.0</ele><time>2026-03-29T13:10:25.898Z</time></trkpt><trkpt lat="42.66246248989806" lon="11.37786521726393"><ele>258.0</ele><time>2026-03-29T13:10:26.898Z</time></trkpt><trkpt lat="42.66269034577858" lon="11.377832223628896"><ele>258.0</ele><time>2026-03-29T13:10:27.898Z</time></trkpt><trkpt lat="42.662903451608614" lon="11.377805677025913"><ele>258.0</ele><time>2026-03-29T13:10:28.898Z</time></trkpt><trkpt lat="42.66309487964507" lon="11.377772705212674"><ele>259.0</ele><time>2026-03-29T13:10:29.898Z</time></trkpt><trkpt lat="42.66327301727073" lon="11.37775231613412"><ele>260.0</ele><time>2026-03-29T13:10:30.898Z</time></trkpt><trkpt lat="42.66344596660691" lon="11.37775200976768"><ele>261.0</ele><time>2026-03-29T13:10:31.898Z</time></trkpt><trkpt lat="42.66361174306061" lon="11.377809545212033"><ele>261.6666666666667</ele><time>2026-03-29T13:10:32.898Z</time></trkpt><trkpt lat="42.663794154799696" lon="11.377868106580863"><ele>262.33333333333337</ele><time>2026-03-29T13:10:33.897Z</time></trkpt><trkpt lat="42.663981689053905" lon="11.377928322481509"><ele>263.0</ele><time>2026-03-29T13:10:34.897Z</time></trkpt><trkpt lat="42.66415644524593" lon="11.377982664439724"><ele>263.0</ele><time>2026-03-29T13:10:35.897Z</time></trkpt><trkpt lat="42.664342406203566" lon="11.37800643327658"><ele>263.0</ele><time>2026-03-29T13:10:36.897Z</time></trkpt><trkpt lat="42.66452741173211" lon="11.37801118533565"><ele>263.0</ele><time>2026-03-29T13:10:37.897Z</time></trkpt><trkpt lat="42.664714185937925" lon="11.377979199305015"><ele>264.0</ele><time>2026-03-29T13:10:38.897Z</time></trkpt><trkpt lat="42.664914452499225" lon="11.377940300828682"><ele>265.0</ele><time>2026-03-29T13:10:39.897Z</time></trkpt><trkpt lat="42.665124414695285" lon="11.377898415882608"><ele>266.0</ele><time>2026-03-29T13:10:40.897Z</time></trkpt><trkpt lat="42.66533973337573" lon="11.377864075837529"><ele>268.6666666666667</ele><time>2026-03-29T13:10:41.897Z</time></trkpt><trkpt lat="42.66555146573106" lon="11.377831049820378"><ele>271.3333333333333</ele><time>2026-03-29T13:10:42.897Z</time></trkpt><trkpt lat="42.665749517217805" lon="11.377799054719397"><ele>274.0</ele><time>2026-03-29T13:10:43.897Z</time></trkpt><trkpt lat="42.665928978980965" lon="11.377770753801354"><ele>274.0</ele><time>2026-03-29T13:10:44.897Z</time></trkpt><trkpt lat="42.666086563879986" lon="11.37773307656925"><ele>274.0</ele><time>2026-03-29T13:10:45.897Z</time></trkpt><trkpt lat="42.66623631204413" lon="11.377666113375376"><ele>274.0</ele><time>2026-03-29T13:10:46.897Z</time></trkpt><trkpt lat="42.66637201486213" lon="11.377547252809189"><ele>274.3333333333333</ele><time>2026-03-29T13:10:47.897Z</time></trkpt><trkpt lat="42.66649843372475" lon="11.377381624700302"><ele>274.6666666666667</ele><time>2026-03-29T13:10:48.897Z</time></trkpt><trkpt lat="42.66662971603035" lon="11.377198207927949"><ele>275.0</ele><time>2026-03-29T13:10:49.897Z</time></trkpt><trkpt lat="42.66676115693634" lon="11.377023920848574"><ele>275.0</ele><time>2026-03-29T13:10:50.898Z</time></trkpt><trkpt lat="42.66690914701877" lon="11.376866337713075"><ele>275.0</ele><time>2026-03-29T13:10:51.898Z</time></trkpt><trkpt lat="42.66705055534464" lon="11.376758890281051"><ele>275.0</ele><time>2026-03-29T13:10:52.898Z</time></trkpt><trkpt lat="42.66717389553337" lon="11.376639707333075"><ele>277.6666666666667</ele><time>2026-03-29T13:10:53.898Z</time></trkpt><trkpt lat="42.66730891955792" lon="11.376514806352928"><ele>280.3333333333333</ele><time>2026-03-29T13:10:54.898Z</time></trkpt><trkpt lat="42.667461249303734" lon="11.376376204000797"><ele>283.0</ele><time>2026-03-29T13:10:55.898Z</time></trkpt><trkpt lat="42.66761839747798" lon="11.37622914117007"><ele>283.0</ele><time>2026-03-29T13:10:56.898Z</time></trkpt><trkpt lat="42.66776196850661" lon="11.376080561876137"><ele>283.0</ele><time>2026-03-29T13:10:57.898Z</time></trkpt><trkpt lat="42.667886236415185" lon="11.375891269653552"><ele>283.0</ele><time>2026-03-29T13:10:58.898Z</time></trkpt><trkpt lat="42.66800349456577" lon="11.375679285033286"><ele>288.0</ele><time>2026-03-29T13:10:59.898Z</time></trkpt><trkpt lat="42.66810354489485" lon="11.37545044408851"><ele>293.0</ele><time>2026-03-29T13:11:00.898Z</time></trkpt><trkpt lat="42.66819146588824" lon="11.375220587961243"><ele>298.0</ele><time>2026-03-29T13:11:01.898Z</time></trkpt><trkpt lat="42.66825401495208" lon="11.375001037043992"><ele>298.0</ele><time>2026-03-29T13:11:02.898Z</time></trkpt><trkpt lat="42.66828805988253" lon="11.374769526823647"><ele>298.0</ele><time>2026-03-29T13:11:03.898Z</time></trkpt><trkpt lat="42.66832511286999" lon="11.374533729853287"><ele>298.0</ele><time>2026-03-29T13:11:04.898Z</time></trkpt><trkpt lat="42.66837939136211" lon="11.374313312773284"><ele>296.0</ele><time>2026-03-29T13:11:05.898Z</time></trkpt><trkpt lat="42.6684867545527" lon="11.37416438081287"><ele>294.0</ele><time>2026-03-29T13:11:06.898Z</time></trkpt><trkpt lat="42.66860973649593" lon="11.374032414666878"><ele>292.0</ele><time>2026-03-29T13:11:07.898Z</time></trkpt><trkpt lat="42.668741877956684" lon="11.373874397850393"><ele>293.66666666666663</ele><time>2026-03-29T13:11:08.898Z</time></trkpt><trkpt lat="42.66887300930523" lon="11.373685923322473"><ele>295.3333333333333</ele><time>2026-03-29T13:11:09.898Z</time></trkpt><trkpt lat="42.66902167964744" lon="11.37351968691306"><ele>297.0</ele><time>2026-03-29T13:11:10.898Z</time></trkpt><trkpt lat="42.669166077042505" lon="11.373343818886942"><ele>297.0</ele><time>2026-03-29T13:11:11.898Z</time></trkpt><trkpt lat="42.66931880358746" lon="11.373159928630024"><ele>297.0</ele><time>2026-03-29T13:11:12.898Z</time></trkpt><trkpt lat="42.66946597291096" lon="11.372989778902825"><ele>297.0</ele><time>2026-03-29T13:11:13.898Z</time></trkpt><trkpt lat="42.66961561771628" lon="11.372814852094367"><ele>296.6666666666667</ele><time>2026-03-29T13:11:14.898Z</time></trkpt><trkpt lat="42.66976920147435" lon="11.372628964752087"><ele>296.33333333333337</ele><time>2026-03-29T13:11:15.898Z</time></trkpt><trkpt lat="42.66993884697589" lon="11.372412799770617"><ele>296.0</ele><time>2026-03-29T13:11:16.898Z</time></trkpt><trkpt lat="42.67013013815392" lon="11.372181375213597"><ele>302.5</ele><time>2026-03-29T13:11:17.898Z</time></trkpt><trkpt lat="42.67031650508003" lon="11.371952113208053"><ele>309.0</ele><time>2026-03-29T13:11:18.898Z</time></trkpt><trkpt lat="42.67049003236688" lon="11.37174274740368"><ele>309.0</ele><time>2026-03-29T13:11:19.898Z</time></trkpt><trkpt lat="42.670637917400356" lon="11.371564797888276"><ele>309.0</ele><time>2026-03-29T13:11:20.898Z</time></trkpt><trkpt lat="42.670776528846616" lon="11.371410127131968"><ele>309.0</ele><time>2026-03-29T13:11:21.897Z</time></trkpt><trkpt lat="42.67089104868108" lon="11.371296850527765"><ele>308.75</ele><time>2026-03-29T13:11:22.897Z</time></trkpt><trkpt lat="42.67100228034478" lon="11.371250470309738"><ele>308.5</ele><time>2026-03-29T13:11:23.897Z</time></trkpt><trkpt lat="42.67112644562308" lon="11.371221522455567"><ele>308.25</ele><time>2026-03-29T13:11:24.897Z</time></trkpt><trkpt lat="42.671281898123425" lon="11.371202508868"><ele>308.0</ele><time>2026-03-29T13:11:25.897Z</time></trkpt><trkpt lat="42.671462612172306" lon="11.371178083924338"><ele>308.0</ele><time>2026-03-29T13:11:26.897Z</time></trkpt><trkpt lat="42.671669445903454" lon="11.371150128751657"><ele>308.0</ele><time>2026-03-29T13:11:27.897Z</time></trkpt><trkpt lat="42.671908626334876" lon="11.371116338877478"><ele>308.0</ele><time>2026-03-29T13:11:28.897Z</time></trkpt><trkpt lat="42.672156832064154" lon="11.371081031508696"><ele>308.5</ele><time>2026-03-29T13:11:29.897Z</time></trkpt><trkpt lat="42.67240183602142" lon="11.371048148137204"><ele>309.0</ele><time>2026-03-29T13:11:30.897Z</time></trkpt><trkpt lat="42.672651087627315" lon="11.371014682098384"><ele>313.0</ele><time>2026-03-29T13:11:31.897Z</time></trkpt><trkpt lat="42.67289302764958" lon="11.3709821977717"><ele>317.0</ele><time>2026-03-29T13:11:32.897Z</time></trkpt><trkpt lat="42.673120622101564" lon="11.370951639532963"><ele>317.0</ele><time>2026-03-29T13:11:33.897Z</time></trkpt><trkpt lat="42.67334222217506" lon="11.3709218861727"><ele>317.0</ele><time>2026-03-29T13:11:34.897Z</time></trkpt><trkpt lat="42.67356888947793" lon="11.370891452421152"><ele>320.0</ele><time>2026-03-29T13:11:35.897Z</time></trkpt><trkpt lat="42.673807042597986" lon="11.370857565732729"><ele>323.0</ele><time>2026-03-29T13:11:36.897Z</time></trkpt><trkpt lat="42.67405689087068" lon="11.370807337946085"><ele>323.0</ele><time>2026-03-29T13:11:37.897Z</time></trkpt><trkpt lat="42.674300292733484" lon="11.370720477202788"><ele>323.0</ele><time>2026-03-29T13:11:38.897Z</time></trkpt><trkpt lat="42.67452231094224" lon="11.370656233662528"><ele>325.0</ele><time>2026-03-29T13:11:39.897Z</time></trkpt><trkpt lat="42.67471586083507" lon="11.370606029226632"><ele>327.0</ele><time>2026-03-29T13:11:40.897Z</time></trkpt><trkpt lat="42.67487743399031" lon="11.370549398453111"><ele>329.0</ele><time>2026-03-29T13:11:41.897Z</time></trkpt><trkpt lat="42.67501500826502" lon="11.370464005625816"><ele>328.0</ele><time>2026-03-29T13:11:42.897Z</time></trkpt><trkpt lat="42.67513283396405" lon="11.37033321175831"><ele>327.0</ele><time>2026-03-29T13:11:43.897Z</time></trkpt><trkpt lat="42.67522931551319" lon="11.3701456223114"><ele>326.0</ele><time>2026-03-29T13:11:44.897Z</time></trkpt><trkpt lat="42.67534354032389" lon="11.369954028732513"><ele>326.0</ele><time>2026-03-29T13:11:45.897Z</time></trkpt><trkpt lat="42.67547903798869" lon="11.369732601799292"><ele>326.0</ele><time>2026-03-29T13:11:46.896Z</time></trkpt><trkpt lat="42.67562186484224" lon="11.369498796803219"><ele>326.0</ele><time>2026-03-29T13:11:47.896Z</time></trkpt><trkpt lat="42.67576539158734" lon="11.369264146071153"><ele>324.6666666666667</ele><time>2026-03-29T13:11:48.896Z</time></trkpt><trkpt lat="42.675905437174436" lon="11.369044486238355"><ele>323.3333333333333</ele><time>2026-03-29T13:11:49.896Z</time></trkpt><trkpt lat="42.67605741068206" lon="11.368819544309545"><ele>322.0</ele><time>2026-03-29T13:11:50.896Z</time></trkpt><trkpt lat="42.67623476256553" lon="11.368603265511535"><ele>328.0</ele><time>2026-03-29T13:11:51.896Z</time></trkpt><trkpt lat="42.676435695939375" lon="11.368368204368876"><ele>334.0</ele><time>2026-03-29T13:11:52.896Z</time></trkpt><trkpt lat="42.67665532312892" lon="11.368113734384387"><ele>336.0</ele><time>2026-03-29T13:11:53.896Z</time></trkpt><trkpt lat="42.67687792891445" lon="11.367855838905392"><ele>338.0</ele><time>2026-03-29T13:11:54.896Z</time></trkpt><trkpt lat="42.67710790477646" lon="11.367589406372831"><ele>338.0</ele><time>2026-03-29T13:11:55.896Z</time></trkpt><trkpt lat="42.67732483269625" lon="11.367338089172373"><ele>338.0</ele><time>2026-03-29T13:11:56.896Z</time></trkpt><trkpt lat="42.67752766333679" lon="11.367102727388891"><ele>342.5</ele><time>2026-03-29T13:11:57.896Z</time></trkpt><trkpt lat="42.67772362760873" lon="11.366874747052856"><ele>347.0</ele><time>2026-03-29T13:11:58.896Z</time></trkpt><trkpt lat="42.67792422806903" lon="11.36664153124235"><ele>347.0</ele><time>2026-03-29T13:11:59.896Z</time></trkpt><trkpt lat="42.67812121946211" lon="11.366413167798875"><ele>347.0</ele><time>2026-03-29T13:12:00.896Z</time></trkpt><trkpt lat="42.678318174672306" lon="11.366157676310458"><ele>350.5</ele><time>2026-03-29T13:12:01.896Z</time></trkpt><trkpt lat="42.678509410277734" lon="11.365945542581454"><ele>354.0</ele><time>2026-03-29T13:12:02.896Z</time></trkpt><trkpt lat="42.678672322108746" lon="11.36574952798212"><ele>354.0</ele><time>2026-03-29T13:12:03.896Z</time></trkpt><trkpt lat="42.67883072897071" lon="11.36556973725084"><ele>354.0</ele><time>2026-03-29T13:12:04.896Z</time></trkpt><trkpt lat="42.67896694385772" lon="11.36541108189559"><ele>354.0</ele><time>2026-03-29T13:12:05.896Z</time></trkpt><trkpt lat="42.67908586534615" lon="11.36526059697438"><ele>351.6666666666667</ele><time>2026-03-29T13:12:06.896Z</time></trkpt><trkpt lat="42.67919540053403" lon="11.365091602308652"><ele>349.33333333333337</ele><time>2026-03-29T13:12:07.896Z</time></trkpt><trkpt lat="42.679288169804536" lon="11.364906431955168"><ele>347.0</ele><time>2026-03-29T13:12:08.896Z</time></trkpt><trkpt lat="42.679350388618154" lon="11.364679449131692"><ele>347.0</ele><time>2026-03-29T13:12:09.896Z</time></trkpt><trkpt lat="42.67938863843467" lon="11.364450582447674"><ele>347.0</ele><time>2026-03-29T13:12:10.896Z</time></trkpt><trkpt lat="42.67943516952917" lon="11.364202782930283"><ele>347.0</ele><time>2026-03-29T13:12:11.896Z</time></trkpt><trkpt lat="42.67948471497955" lon="11.363970686455255"><ele>349.6666666666667</ele><time>2026-03-29T13:12:12.895Z</time></trkpt><trkpt lat="42.679538626883975" lon="11.363728479027838"><ele>352.3333333333333</ele><time>2026-03-29T13:12:13.895Z</time></trkpt><trkpt lat="42.67958664837381" lon="11.363476744156408"><ele>355.0</ele><time>2026-03-29T13:12:14.895Z</time></trkpt><trkpt lat="42.67964010001671" lon="11.363216226298139"><ele>355.0</ele><time>2026-03-29T13:12:15.895Z</time></trkpt><trkpt lat="42.67969287860896" lon="11.362937902459763"><ele>355.0</ele><time>2026-03-29T13:12:16.895Z</time></trkpt><trkpt lat="42.67974726338357" lon="11.362659774042479"><ele>355.0</ele><time>2026-03-29T13:12:17.895Z</time></trkpt><trkpt lat="42.67980283887705" lon="11.362376333072271"><ele>355.3333333333333</ele><time>2026-03-29T13:12:18.895Z</time></trkpt><trkpt lat="42.679857798808335" lon="11.362092557385715"><ele>355.6666666666667</ele><time>2026-03-29T13:12:19.895Z</time></trkpt><trkpt lat="42.67990340365133" lon="11.361817282998137"><ele>356.0</ele><time>2026-03-29T13:12:20.895Z</time></trkpt><trkpt lat="42.67993148986976" lon="11.36154421152346"><ele>358.6666666666667</ele><time>2026-03-29T13:12:21.895Z</time></trkpt><trkpt lat="42.67993958160756" lon="11.361270416900393"><ele>361.3333333333333</ele><time>2026-03-29T13:12:22.895Z</time></trkpt><trkpt lat="42.67992996082917" lon="11.360993147284473"><ele>364.0</ele><time>2026-03-29T13:12:23.895Z</time></trkpt><trkpt lat="42.679908309889306" lon="11.360720660387425"><ele>365.66666666666663</ele><time>2026-03-29T13:12:24.895Z</time></trkpt><trkpt lat="42.67988757851047" lon="11.360464290423392"><ele>367.3333333333333</ele><time>2026-03-29T13:12:25.895Z</time></trkpt><trkpt lat="42.67987855924137" lon="11.360228475345766"><ele>369.0</ele><time>2026-03-29T13:12:26.895Z</time></trkpt><trkpt lat="42.67988487659487" lon="11.359990332795384"><ele>369.0</ele><time>2026-03-29T13:12:27.895Z</time></trkpt><trkpt lat="42.67990628149603" lon="11.359747902691891"><ele>369.0</ele><time>2026-03-29T13:12:28.895Z</time></trkpt><trkpt lat="42.67994168273886" lon="11.359507042056089"><ele>369.0</ele><time>2026-03-29T13:12:29.895Z</time></trkpt><trkpt lat="42.67998423537825" lon="11.359258263068902"><ele>367.3333333333333</ele><time>2026-03-29T13:12:30.895Z</time></trkpt><trkpt lat="42.68002565716051" lon="11.35901394261528"><ele>365.66666666666663</ele><time>2026-03-29T13:12:31.895Z</time></trkpt><trkpt lat="42.680055791575356" lon="11.358803732686617"><ele>364.0</ele><time>2026-03-29T13:12:32.895Z</time></trkpt><trkpt lat="42.68006131424691" lon="11.358618093794902"><ele>363.75</ele><time>2026-03-29T13:12:33.895Z</time></trkpt><trkpt lat="42.680081837068734" lon="11.358457653003429"><ele>363.5</ele><time>2026-03-29T13:12:34.895Z</time></trkpt><trkpt lat="42.68012895358041" lon="11.358348652247644"><ele>363.25</ele><time>2026-03-29T13:12:35.895Z</time></trkpt><trkpt lat="42.68020437096311" lon="11.358242640662617"><ele>363.0</ele><time>2026-03-29T13:12:36.895Z</time></trkpt><trkpt lat="42.6803189268346" lon="11.358159905168172"><ele>364.0</ele><time>2026-03-29T13:12:37.894Z</time></trkpt><trkpt lat="42.680501047983654" lon="11.358053832028455"><ele>365.0</ele><time>2026-03-29T13:12:38.894Z</time></trkpt><trkpt lat="42.68070567671871" lon="11.35794721756424"><ele>366.0</ele><time>2026-03-29T13:12:39.894Z</time></trkpt><trkpt lat="42.680955476629286" lon="11.357794115162942"><ele>368.3333333333333</ele><time>2026-03-29T13:12:40.894Z</time></trkpt><trkpt lat="42.6811661902608" lon="11.357674661458852"><ele>370.66666666666663</ele><time>2026-03-29T13:12:41.894Z</time></trkpt><trkpt lat="42.68134095736907" lon="11.357588838383828"><ele>373.0</ele><time>2026-03-29T13:12:42.894Z</time></trkpt><trkpt lat="42.681501635460116" lon="11.357509582296007"><ele>373.0</ele><time>2026-03-29T13:12:43.894Z</time></trkpt><trkpt lat="42.68164989088856" lon="11.357436499586152"><ele>373.0</ele><time>2026-03-29T13:12:44.894Z</time></trkpt><trkpt lat="42.68178162072443" lon="11.357341232626267"><ele>373.0</ele><time>2026-03-29T13:12:45.894Z</time></trkpt><trkpt lat="42.681892146002525" lon="11.357217935163698"><ele>376.5</ele><time>2026-03-29T13:12:46.894Z</time></trkpt><trkpt lat="42.681966551891264" lon="11.35706505282915"><ele>380.0</ele><time>2026-03-29T13:12:47.894Z</time></trkpt><trkpt lat="42.682009186531616" lon="11.356878205196258"><ele>383.5</ele><time>2026-03-29T13:12:48.894Z</time></trkpt><trkpt lat="42.68203542108609" lon="11.35666193307628"><ele>387.0</ele><time>2026-03-29T13:12:49.894Z</time></trkpt><trkpt lat="42.68212492683696" lon="11.356458089600498"><ele>388.0</ele><time>2026-03-29T13:12:50.894Z</time></trkpt><trkpt lat="42.68212736168175" lon="11.356205180802558"><ele>389.0</ele><time>2026-03-29T13:12:51.894Z</time></trkpt><trkpt lat="42.682146857617184" lon="11.355950470526457"><ele>390.0</ele><time>2026-03-29T13:12:52.894Z</time></trkpt><trkpt lat="42.68217483037139" lon="11.355703911281537"><ele>388.33333333333337</ele><time>2026-03-29T13:12:53.894Z</time></trkpt><trkpt lat="42.682200093004695" lon="11.355472063764555"><ele>386.6666666666667</ele><time>2026-03-29T13:12:54.894Z</time></trkpt><trkpt lat="42.68223570866485" lon="11.355273219175636"><ele>385.0</ele><time>2026-03-29T13:12:55.894Z</time></trkpt><trkpt lat="42.68229850640869" lon="11.355090344489923"><ele>385.0</ele><time>2026-03-29T13:12:56.895Z</time></trkpt><trkpt lat="42.682382602050005" lon="11.354919467779606"><ele>385.0</ele><time>2026-03-29T13:12:57.895Z</time></trkpt><trkpt lat="42.68250333074598" lon="11.354746837596483"><ele>385.0</ele><time>2026-03-29T13:12:58.895Z</time></trkpt><trkpt lat="42.6826446308045" lon="11.354586977597979"><ele>386.33333333333337</ele><time>2026-03-29T13:12:59.895Z</time></trkpt><trkpt lat="42.682787972080945" lon="11.35441556931154"><ele>387.66666666666663</ele><time>2026-03-29T13:13:00.895Z</time></trkpt><trkpt lat="42.682930703864" lon="11.354249814016965"><ele>389.0</ele><time>2026-03-29T13:13:01.895Z</time></trkpt><trkpt lat="42.68306288751919" lon="11.354086784982623"><ele>389.0</ele><time>2026-03-29T13:13:02.895Z</time></trkpt><trkpt lat="42.683183187102266" lon="11.353948430429439"><ele>389.0</ele><time>2026-03-29T13:13:03.895Z</time></trkpt><trkpt lat="42.683312145221485" lon="11.353832710000654"><ele>389.0</ele><time>2026-03-29T13:13:04.895Z</time></trkpt><trkpt lat="42.68345506564907" lon="11.353759271638962"><ele>388.0</ele><time>2026-03-29T13:13:05.895Z</time></trkpt><trkpt lat="42.68360978742022" lon="11.35371756605106"><ele>387.0</ele><time>2026-03-29T13:13:06.895Z</time></trkpt><trkpt lat="42.68376719044306" lon="11.353692791870152"><ele>386.0</ele><time>2026-03-29T13:13:07.895Z</time></trkpt><trkpt lat="42.68395417149428" lon="11.353695641659916"><ele>386.0</ele><time>2026-03-29T13:13:08.895Z</time></trkpt><trkpt lat="42.68415584447693" lon="11.353696715070601"><ele>386.0</ele><time>2026-03-29T13:13:09.895Z</time></trkpt><trkpt lat="42.68433619794675" lon="11.353684264111694"><ele>386.0</ele><time>2026-03-29T13:13:10.895Z</time></trkpt><trkpt lat="42.68449037748796" lon="11.353651745622134"><ele>389.0</ele><time>2026-03-29T13:13:11.895Z</time></trkpt><trkpt lat="42.68462997176054" lon="11.353581573964211"><ele>392.0</ele><time>2026-03-29T13:13:12.894Z</time></trkpt><trkpt lat="42.684774995607164" lon="11.35345605533593"><ele>395.0</ele><time>2026-03-29T13:13:13.894Z</time></trkpt><trkpt lat="42.68486946261154" lon="11.353252695208596"><ele>394.0</ele><time>2026-03-29T13:13:14.894Z</time></trkpt><trkpt lat="42.68497710663929" lon="11.35303510686524"><ele>393.0</ele><time>2026-03-29T13:13:15.894Z</time></trkpt><trkpt lat="42.685100039121906" lon="11.352820385598822"><ele>392.0</ele><time>2026-03-29T13:13:16.894Z</time></trkpt><trkpt lat="42.685233431433744" lon="11.352609842518154"><ele>393.0</ele><time>2026-03-29T13:13:17.894Z</time></trkpt><trkpt lat="42.68537594377142" lon="11.352392316932004"><ele>394.0</ele><time>2026-03-29T13:13:18.894Z</time></trkpt><trkpt lat="42.68551143487007" lon="11.3521673880731"><ele>395.0</ele><time>2026-03-29T13:13:19.894Z</time></trkpt><trkpt lat="42.685640920768144" lon="11.351934400958404"><ele>395.0</ele><time>2026-03-29T13:13:20.894Z</time></trkpt><trkpt lat="42.685783269838964" lon="11.351713893093892"><ele>395.0</ele><time>2026-03-29T13:13:21.894Z</time></trkpt><trkpt lat="42.68591944965076" lon="11.351495397743427"><ele>395.0</ele><time>2026-03-29T13:13:22.894Z</time></trkpt><trkpt lat="42.686060609110726" lon="11.351262240793744"><ele>398.0</ele><time>2026-03-29T13:13:23.894Z</time></trkpt><trkpt lat="42.68620323970734" lon="11.351034523445998"><ele>401.0</ele><time>2026-03-29T13:13:24.894Z</time></trkpt><trkpt lat="42.68633282619118" lon="11.350817181427997"><ele>404.0</ele><time>2026-03-29T13:13:25.894Z</time></trkpt><trkpt lat="42.6864440811799" lon="11.350624300196152"><ele>406.3333333333333</ele><time>2026-03-29T13:13:26.894Z</time></trkpt><trkpt lat="42.68653112182538" lon="11.35041671804693"><ele>408.66666666666663</ele><time>2026-03-29T13:13:27.894Z</time></trkpt><trkpt lat="42.68658363024826" lon="11.350183496810134"><ele>411.0</ele><time>2026-03-29T13:13:28.894Z</time></trkpt><trkpt lat="42.686601858615894" lon="11.349937701099092"><ele>412.66666666666663</ele><time>2026-03-29T13:13:29.894Z</time></trkpt><trkpt lat="42.68658967495023" lon="11.349680393797524"><ele>414.3333333333333</ele><time>2026-03-29T13:13:30.894Z</time></trkpt><trkpt lat="42.68656004359269" lon="11.349415983753858"><ele>416.0</ele><time>2026-03-29T13:13:31.894Z</time></trkpt><trkpt lat="42.68649748007902" lon="11.34915434991851"><ele>416.0</ele><time>2026-03-29T13:13:32.894Z</time></trkpt><trkpt lat="42.686418178213685" lon="11.348927480544095"><ele>416.0</ele><time>2026-03-29T13:13:33.894Z</time></trkpt><trkpt lat="42.68638712288431" lon="11.34866910819113"><ele>416.0</ele><time>2026-03-29T13:13:34.894Z</time></trkpt><trkpt lat="42.68636821466283" lon="11.34843088380112"><ele>417.66666666666663</ele><time>2026-03-29T13:13:35.894Z</time></trkpt><trkpt lat="42.68638877446709" lon="11.348215753311337"><ele>419.33333333333337</ele><time>2026-03-29T13:13:36.894Z</time></trkpt><trkpt lat="42.686433978136776" lon="11.348012977791416"><ele>421.0</ele><time>2026-03-29T13:13:37.893Z</time></trkpt><trkpt lat="42.686483480990375" lon="11.347795103582339"><ele>421.0</ele><time>2026-03-29T13:13:38.893Z</time></trkpt><trkpt lat="42.68653284064088" lon="11.347554363043297"><ele>421.0</ele><time>2026-03-29T13:13:39.893Z</time></trkpt><trkpt lat="42.686591392535334" lon="11.347346037077873"><ele>421.0</ele><time>2026-03-29T13:13:40.893Z</time></trkpt><trkpt lat="42.68665340351227" lon="11.347157851969495"><ele>422.75</ele><time>2026-03-29T13:13:41.893Z</time></trkpt><trkpt lat="42.68673036627936" lon="11.347013324906177"><ele>424.5</ele><time>2026-03-29T13:13:42.893Z</time></trkpt><trkpt lat="42.68681619056192" lon="11.34688611764456"><ele>426.25</ele><time>2026-03-29T13:13:43.893Z</time></trkpt><trkpt lat="42.68692484456963" lon="11.346812223690554"><ele>428.0</ele><time>2026-03-29T13:13:44.893Z</time></trkpt><trkpt lat="42.68705202027313" lon="11.346745801830837"><ele>428.0</ele><time>2026-03-29T13:13:45.893Z</time></trkpt><trkpt lat="42.68719273802719" lon="11.346701518497682"><ele>428.0</ele><time>2026-03-29T13:13:46.893Z</time></trkpt><trkpt lat="42.687362006777356" lon="11.346646469405192"><ele>428.0</ele><time>2026-03-29T13:13:47.893Z</time></trkpt><trkpt lat="42.687551438216325" lon="11.34658270797485"><ele>428.0</ele><time>2026-03-29T13:13:48.893Z</time></trkpt><trkpt lat="42.687749410623105" lon="11.346516071767882"><ele>428.0</ele><time>2026-03-29T13:13:49.893Z</time></trkpt><trkpt lat="42.687951264464715" lon="11.346451422710365"><ele>428.0</ele><time>2026-03-29T13:13:50.893Z</time></trkpt><trkpt lat="42.6881514669145" lon="11.346386753491505"><ele>427.66666666666663</ele><time>2026-03-29T13:13:51.893Z</time></trkpt><trkpt lat="42.6883477487562" lon="11.346317049414463"><ele>427.33333333333337</ele><time>2026-03-29T13:13:52.893Z</time></trkpt><trkpt lat="42.68853060702424" lon="11.346265754269023"><ele>427.0</ele><time>2026-03-29T13:13:53.893Z</time></trkpt><trkpt lat="42.68871435016255" lon="11.346256304050998"><ele>427.0</ele><time>2026-03-29T13:13:54.893Z</time></trkpt><trkpt lat="42.6888830492347" lon="11.346291396746174"><ele>427.0</ele><time>2026-03-29T13:13:55.893Z</time></trkpt><trkpt lat="42.689053352471625" lon="11.346342365750747"><ele>427.0</ele><time>2026-03-29T13:13:56.893Z</time></trkpt><trkpt lat="42.689241733956806" lon="11.346384483055457"><ele>432.6666666666667</ele><time>2026-03-29T13:13:57.893Z</time></trkpt><trkpt lat="42.689419646084694" lon="11.346448406915318"><ele>438.33333333333337</ele><time>2026-03-29T13:13:58.893Z</time></trkpt><trkpt lat="42.68961357503006" lon="11.346523579207204"><ele>444.0</ele><time>2026-03-29T13:13:59.893Z</time></trkpt><trkpt lat="42.68979055445373" lon="11.346586064137023"><ele>444.0</ele><time>2026-03-29T13:14:00.893Z</time></trkpt><trkpt lat="42.68995879585845" lon="11.346657313855046"><ele>444.0</ele><time>2026-03-29T13:14:01.893Z</time></trkpt><trkpt lat="42.690117775871" lon="11.346692279548577"><ele>444.0</ele><time>2026-03-29T13:14:02.893Z</time></trkpt><trkpt lat="42.69026210713355" lon="11.346691973739762"><ele>447.0</ele><time>2026-03-29T13:14:03.892Z</time></trkpt><trkpt lat="42.69041153068725" lon="11.346658332661244"><ele>450.0</ele><time>2026-03-29T13:14:04.892Z</time></trkpt><trkpt lat="42.69055066668712" lon="11.346585018216667"><ele>453.0</ele><time>2026-03-29T13:14:05.892Z</time></trkpt><trkpt lat="42.69067451721384" lon="11.346456463726138"><ele>454.0</ele><time>2026-03-29T13:14:06.892Z</time></trkpt><trkpt lat="42.69077710459787" lon="11.34630960034475"><ele>455.0</ele><time>2026-03-29T13:14:07.892Z</time></trkpt><trkpt lat="42.690843709052494" lon="11.346149387560953"><ele>456.0</ele><time>2026-03-29T13:14:08.892Z</time></trkpt><trkpt lat="42.69087152631497" lon="11.345987778259353"><ele>457.0</ele><time>2026-03-29T13:14:09.892Z</time></trkpt><trkpt lat="42.69085516330799" lon="11.345832124822053"><ele>457.0</ele><time>2026-03-29T13:14:10.892Z</time></trkpt><trkpt lat="42.69077940480819" lon="11.345691289953653"><ele>457.0</ele><time>2026-03-29T13:14:11.892Z</time></trkpt><trkpt lat="42.69067839779524" lon="11.34558380005108"><ele>457.0</ele><time>2026-03-29T13:14:12.892Z</time></trkpt><trkpt lat="42.69054261424336" lon="11.34549788241048"><ele>457.0</ele><time>2026-03-29T13:14:13.892Z</time></trkpt><trkpt lat="42.69041483490227" lon="11.345404448447098"><ele>456.33333333333337</ele><time>2026-03-29T13:14:14.892Z</time></trkpt><trkpt lat="42.69025025206264" lon="11.345284811458287"><ele>455.66666666666663</ele><time>2026-03-29T13:14:15.892Z</time></trkpt><trkpt lat="42.69010205680941" lon="11.345160079651762"><ele>455.0</ele><time>2026-03-29T13:14:16.892Z</time></trkpt><trkpt lat="42.68999382071206" lon="11.345032422879935"><ele>455.0</ele><time>2026-03-29T13:14:17.892Z</time></trkpt><trkpt lat="42.68991360738118" lon="11.344872152087664"><ele>455.0</ele><time>2026-03-29T13:14:18.892Z</time></trkpt><trkpt lat="42.68987192413029" lon="11.344686293367783"><ele>455.0</ele><time>2026-03-29T13:14:19.892Z</time></trkpt><trkpt lat="42.68982832375694" lon="11.344495388187372"><ele>455.0</ele><time>2026-03-29T13:14:20.892Z</time></trkpt><trkpt lat="42.68984341809415" lon="11.344305164135761"><ele>454.3333333333333</ele><time>2026-03-29T13:14:21.892Z</time></trkpt><trkpt lat="42.689891731887776" lon="11.344119138615696"><ele>453.66666666666663</ele><time>2026-03-29T13:14:22.892Z</time></trkpt><trkpt lat="42.68995730455506" lon="11.343929096294708"><ele>453.0</ele><time>2026-03-29T13:14:23.892Z</time></trkpt><trkpt lat="42.69007610859667" lon="11.343758667997285"><ele>453.0</ele><time>2026-03-29T13:14:24.892Z</time></trkpt><trkpt lat="42.69020217097384" lon="11.343605894968452"><ele>453.0</ele><time>2026-03-29T13:14:25.892Z</time></trkpt><trkpt lat="42.69033384936434" lon="11.34343807902348"><ele>453.0</ele><time>2026-03-29T13:14:26.892Z</time></trkpt><trkpt lat="42.69047754448311" lon="11.343264638493247"><ele>458.0</ele><time>2026-03-29T13:14:27.892Z</time></trkpt><trkpt lat="42.69061004254267" lon="11.343100872740125"><ele>463.0</ele><time>2026-03-29T13:14:28.891Z</time></trkpt><trkpt lat="42.69073888623196" lon="11.342946663605764"><ele>468.0</ele><time>2026-03-29T13:14:29.891Z</time></trkpt><trkpt lat="42.690863117164135" lon="11.342804787114954"><ele>468.0</ele><time>2026-03-29T13:14:30.891Z</time></trkpt><trkpt lat="42.69097723762895" lon="11.342664757355854"><ele>468.0</ele><time>2026-03-29T13:14:31.891Z</time></trkpt><trkpt lat="42.69107172422626" lon="11.342523756793437"><ele>468.0</ele><time>2026-03-29T13:14:32.891Z</time></trkpt><trkpt lat="42.69114057172697" lon="11.342372903179857"><ele>468.0</ele><time>2026-03-29T13:14:33.891Z</time></trkpt><trkpt lat="42.69118962005356" lon="11.342195240950089"><ele>477.33333333333337</ele><time>2026-03-29T13:14:34.891Z</time></trkpt><trkpt lat="42.691199305666984" lon="11.34199658331178"><ele>486.6666666666667</ele><time>2026-03-29T13:14:35.891Z</time></trkpt><trkpt lat="42.691151267871305" lon="11.341790919468481"><ele>496.0</ele><time>2026-03-29T13:14:36.891Z</time></trkpt><trkpt lat="42.69109733193345" lon="11.34159582464842"><ele>493.20000000000005</ele><time>2026-03-29T13:14:37.891Z</time></trkpt><trkpt lat="42.69107270311166" lon="11.34142779583649"><ele>490.40000000000003</ele><time>2026-03-29T13:14:38.891Z</time></trkpt><trkpt lat="42.69108528212529" lon="11.341278976077875"><ele>487.6</ele><time>2026-03-29T13:14:39.891Z</time></trkpt><trkpt lat="42.6911227534929" lon="11.341154514136102"><ele>484.8</ele><time>2026-03-29T13:14:40.891Z</time></trkpt><trkpt lat="42.69118513033246" lon="11.341040207456219"><ele>482.0</ele><time>2026-03-29T13:14:41.891Z</time></trkpt><trkpt lat="42.69128262790675" lon="11.340940910363548"><ele>482.0</ele><time>2026-03-29T13:14:42.891Z</time></trkpt><trkpt lat="42.691404877795456" lon="11.34082716600722"><ele>482.0</ele><time>2026-03-29T13:14:43.891Z</time></trkpt><trkpt lat="42.69153670140799" lon="11.34070528438326"><ele>482.0</ele><time>2026-03-29T13:14:44.891Z</time></trkpt><trkpt lat="42.69165996619402" lon="11.340592048296397"><ele>478.75</ele><time>2026-03-29T13:14:45.891Z</time></trkpt><trkpt lat="42.691768945525446" lon="11.340494879219309"><ele>475.5</ele><time>2026-03-29T13:14:46.891Z</time></trkpt><trkpt lat="42.69186634917188" lon="11.340396282886116"><ele>472.25</ele><time>2026-03-29T13:14:47.891Z</time></trkpt><trkpt lat="42.69194090777682" lon="11.340265085569495"><ele>469.0</ele><time>2026-03-29T13:14:48.891Z</time></trkpt><trkpt lat="42.691995645313916" lon="11.340132076358138"><ele>476.5</ele><time>2026-03-29T13:14:49.891Z</time></trkpt><trkpt lat="42.69203845755132" lon="11.339998751119493"><ele>484.0</ele><time>2026-03-29T13:14:50.891Z</time></trkpt><trkpt lat="42.6920416881322" lon="11.339846667332395"><ele>491.5</ele><time>2026-03-29T13:14:51.891Z</time></trkpt><trkpt lat="42.692014241892835" lon="11.33969209938069"><ele>499.0</ele><time>2026-03-29T13:14:52.891Z</time></trkpt><trkpt lat="42.6919571167706" lon="11.339529797204946"><ele>492.6666666666667</ele><time>2026-03-29T13:14:53.891Z</time></trkpt><trkpt lat="42.69187122678756" lon="11.339365970593603"><ele>486.33333333333337</ele><time>2026-03-29T13:14:54.89Z</time></trkpt><trkpt lat="42.69178999078122" lon="11.339164146833289"><ele>480.0</ele><time>2026-03-29T13:14:55.89Z</time></trkpt><trkpt lat="42.691696794208966" lon="11.338954046401525"><ele>486.0</ele><time>2026-03-29T13:14:56.89Z</time></trkpt><trkpt lat="42.69159540412298" lon="11.338750087596562"><ele>492.0</ele><time>2026-03-29T13:14:57.89Z</time></trkpt><trkpt lat="42.69152169519535" lon="11.338568017821276"><ele>498.0</ele><time>2026-03-29T13:14:58.89Z</time></trkpt><trkpt lat="42.69146261297699" lon="11.338382706148703"><ele>498.0</ele><time>2026-03-29T13:14:59.89Z</time></trkpt><trkpt lat="42.69141577125952" lon="11.33822229460664"><ele>498.0</ele><time>2026-03-29T13:15:00.89Z</time></trkpt><trkpt lat="42.69139306379212" lon="11.338058412007125"><ele>498.0</ele><time>2026-03-29T13:15:01.89Z</time></trkpt><trkpt lat="42.69136588664583" lon="11.337913692350119"><ele>498.0</ele><time>2026-03-29T13:15:02.891Z</time></trkpt><trkpt lat="42.691346113271635" lon="11.337781725443843"><ele>498.79999999999995</ele><time>2026-03-29T13:15:03.891Z</time></trkpt><trkpt lat="42.69133448812871" lon="11.337683165898136"><ele>499.59999999999997</ele><time>2026-03-29T13:15:04.891Z</time></trkpt><trkpt lat="42.69138237346657" lon="11.337571212223288"><ele>500.40000000000003</ele><time>2026-03-29T13:15:06.892Z</time></trkpt><trkpt lat="42.691491141402665" lon="11.33749544210454"><ele>501.20000000000005</ele><time>2026-03-29T13:15:08.891Z</time></trkpt><trkpt lat="42.691548699856476" lon="11.337424870690208"><ele>502.0</ele><time>2026-03-29T13:15:09.891Z</time></trkpt><trkpt lat="42.691589049067254" lon="11.337325957460914"><ele>502.0</ele><time>2026-03-29T13:15:10.891Z</time></trkpt><trkpt lat="42.69162249839777" lon="11.33721996443592"><ele>502.00000000000006</ele><time>2026-03-29T13:15:11.891Z</time></trkpt><trkpt lat="42.69168062604306" lon="11.337119646528526"><ele>502.00000000000006</ele><time>2026-03-29T13:15:12.891Z</time></trkpt><trkpt lat="42.69175829802227" lon="11.337009995254421"><ele>502.0</ele><time>2026-03-29T13:15:13.891Z</time></trkpt><trkpt lat="42.691835369930075" lon="11.336888271942431"><ele>502.0</ele><time>2026-03-29T13:15:14.891Z</time></trkpt><trkpt lat="42.69190022765094" lon="11.336768572475728"><ele>502.0</ele><time>2026-03-29T13:15:15.891Z</time></trkpt><trkpt lat="42.69193827907644" lon="11.336641037579456"><ele>502.00000000000006</ele><time>2026-03-29T13:15:16.891Z</time></trkpt><trkpt lat="42.69196503858585" lon="11.33650889971992"><ele>502.00000000000006</ele><time>2026-03-29T13:15:17.891Z</time></trkpt><trkpt lat="42.691989228053515" lon="11.336379926630542"><ele>502.0</ele><time>2026-03-29T13:15:18.891Z</time></trkpt><trkpt lat="42.69204512760556" lon="11.33627281493049"><ele>502.0</ele><time>2026-03-29T13:15:19.891Z</time></trkpt><trkpt lat="42.69211887358807" lon="11.336198505357052"><ele>498.8</ele><time>2026-03-29T13:15:20.891Z</time></trkpt><trkpt lat="42.69220980370551" lon="11.336182954832124"><ele>495.6</ele><time>2026-03-29T13:15:21.891Z</time></trkpt><trkpt lat="42.692296552409886" lon="11.33619903853774"><ele>492.40000000000003</ele><time>2026-03-29T13:15:22.891Z</time></trkpt><trkpt lat="42.69238355542407" lon="11.336196044102634"><ele>489.20000000000005</ele><time>2026-03-29T13:15:23.891Z</time></trkpt><trkpt lat="42.69250088693585" lon="11.336191993001513"><ele>486.0</ele><time>2026-03-29T13:15:24.891Z</time></trkpt><trkpt lat="42.692618505647054" lon="11.336185202439925"><ele>486.0</ele><time>2026-03-29T13:15:25.891Z</time></trkpt><trkpt lat="42.6927364891169" lon="11.336177409143444"><ele>486.0</ele><time>2026-03-29T13:15:26.891Z</time></trkpt><trkpt lat="42.692855003262366" lon="11.336162520204063"><ele>486.0</ele><time>2026-03-29T13:15:27.891Z</time></trkpt><trkpt lat="42.692961033534274" lon="11.336134541610152"><ele>486.0</ele><time>2026-03-29T13:15:28.891Z</time></trkpt><trkpt lat="42.693052700297706" lon="11.336081115805385"><ele>486.0</ele><time>2026-03-29T13:15:29.891Z</time></trkpt><trkpt lat="42.69313124184333" lon="11.335993774211216"><ele>489.20000000000005</ele><time>2026-03-29T13:15:30.89Z</time></trkpt><trkpt lat="42.693187445773226" lon="11.335867525908888"><ele>492.40000000000003</ele><time>2026-03-29T13:15:31.89Z</time></trkpt><trkpt lat="42.69320198558173" lon="11.335728455556312"><ele>495.6</ele><time>2026-03-29T13:15:32.89Z</time></trkpt><trkpt lat="42.693164833594864" lon="11.335594742626597"><ele>498.8</ele><time>2026-03-29T13:15:33.89Z</time></trkpt><trkpt lat="42.69310836305001" lon="11.335525280437423"><ele>502.0</ele><time>2026-03-29T13:15:34.89Z</time></trkpt><trkpt lat="42.69305203680152" lon="11.335441628429033"><ele>502.20000000000005</ele><time>2026-03-29T13:15:35.89Z</time></trkpt><trkpt lat="42.69299295546296" lon="11.335356721466056"><ele>502.40000000000003</ele><time>2026-03-29T13:15:36.89Z</time></trkpt><trkpt lat="42.69293007762925" lon="11.335274843573778"><ele>502.59999999999997</ele><time>2026-03-29T13:15:37.89Z</time></trkpt><trkpt lat="42.69286405137592" lon="11.335171285482833"><ele>502.79999999999995</ele><time>2026-03-29T13:15:38.89Z</time></trkpt><trkpt lat="42.69281228929201" lon="11.335061160666282"><ele>503.0</ele><time>2026-03-29T13:15:39.89Z</time></trkpt><trkpt lat="42.6927705553445" lon="11.334934994514972"><ele>503.8333333333333</ele><time>2026-03-29T13:15:40.89Z</time></trkpt><trkpt lat="42.69274005908195" lon="11.334798787516814"><ele>504.66666666666663</ele><time>2026-03-29T13:15:41.89Z</time></trkpt><trkpt lat="42.69273851196412" lon="11.334674700362042"><ele>505.5</ele><time>2026-03-29T13:15:42.89Z</time></trkpt><trkpt lat="42.69275581736443" lon="11.334551833996459"><ele>506.33333333333337</ele><time>2026-03-29T13:15:43.89Z</time></trkpt><trkpt lat="42.69276012381698" lon="11.3344342609394"><ele>507.1666666666667</ele><time>2026-03-29T13:15:44.89Z</time></trkpt><trkpt lat="42.69274882755546" lon="11.334348009758308"><ele>508.0</ele><time>2026-03-29T13:15:45.89Z</time></trkpt><trkpt lat="42.69270011677815" lon="11.334223413748012"><ele>505.79999999999995</ele><time>2026-03-29T13:15:47.89Z</time></trkpt><trkpt lat="42.69261288224919" lon="11.334205958807864"><ele>503.59999999999997</ele><time>2026-03-29T13:15:48.89Z</time></trkpt><trkpt lat="42.69251846794748" lon="11.334189269338337"><ele>501.40000000000003</ele><time>2026-03-29T13:15:49.89Z</time></trkpt><trkpt lat="42.69242053081324" lon="11.334175827021532"><ele>499.20000000000005</ele><time>2026-03-29T13:15:50.89Z</time></trkpt><trkpt lat="42.692311389880736" lon="11.334169375859426"><ele>497.0</ele><time>2026-03-29T13:15:51.89Z</time></trkpt><trkpt lat="42.69220615472505" lon="11.33417245288617"><ele>497.0</ele><time>2026-03-29T13:15:52.89Z</time></trkpt><trkpt lat="42.69210181833764" lon="11.3341944961472"><ele>497.0</ele><time>2026-03-29T13:15:53.89Z</time></trkpt><trkpt lat="42.6919885063294" lon="11.334224632988155"><ele>497.0</ele><time>2026-03-29T13:15:54.89Z</time></trkpt><trkpt lat="42.691873350773626" lon="11.334260332652416"><ele>497.0</ele><time>2026-03-29T13:15:55.89Z</time></trkpt><trkpt lat="42.69175836958307" lon="11.334301732558528"><ele>498.25</ele><time>2026-03-29T13:15:56.889Z</time></trkpt><trkpt lat="42.691652472116196" lon="11.334347716141227"><ele>499.5</ele><time>2026-03-29T13:15:57.889Z</time></trkpt><trkpt lat="42.69153624492425" lon="11.334413452572623"><ele>500.75</ele><time>2026-03-29T13:15:58.889Z</time></trkpt><trkpt lat="42.691411735563754" lon="11.33450243508969"><ele>502.0</ele><time>2026-03-29T13:15:59.889Z</time></trkpt><trkpt lat="42.69130414005563" lon="11.334591333207518"><ele>502.0</ele><time>2026-03-29T13:16:00.889Z</time></trkpt><trkpt lat="42.69120803021159" lon="11.334672210256425"><ele>502.0</ele><time>2026-03-29T13:16:01.889Z</time></trkpt><trkpt lat="42.69111456921316" lon="11.334747754889712"><ele>502.0</ele><time>2026-03-29T13:16:02.889Z</time></trkpt><trkpt lat="42.691009656571374" lon="11.334816268202536"><ele>502.0</ele><time>2026-03-29T13:16:03.889Z</time></trkpt><trkpt lat="42.6908963218477" lon="11.334883412411898"><ele>497.5</ele><time>2026-03-29T13:16:04.889Z</time></trkpt><trkpt lat="42.6907649780012" lon="11.334896234453192"><ele>493.0</ele><time>2026-03-29T13:16:05.889Z</time></trkpt><trkpt lat="42.6906380184784" lon="11.334893408576116"><ele>488.5</ele><time>2026-03-29T13:16:06.889Z</time></trkpt><trkpt lat="42.69051452556213" lon="11.334885281457261"><ele>484.0</ele><time>2026-03-29T13:16:07.889Z</time></trkpt><trkpt lat="42.690407429610595" lon="11.33487614671257"><ele>484.0</ele><time>2026-03-29T13:16:08.889Z</time></trkpt><trkpt lat="42.69030414567016" lon="11.33483841248293"><ele>484.0</ele><time>2026-03-29T13:16:09.889Z</time></trkpt><trkpt lat="42.69022610083503" lon="11.334762478860862"><ele>484.0</ele><time>2026-03-29T13:16:10.889Z</time></trkpt><trkpt lat="42.69017539882567" lon="11.334660900623819"><ele>484.0</ele><time>2026-03-29T13:16:11.889Z</time></trkpt><trkpt lat="42.6901363436302" lon="11.33455006252247"><ele>484.0</ele><time>2026-03-29T13:16:12.889Z</time></trkpt><trkpt lat="42.690103009046915" lon="11.334437436429946"><ele>484.79999999999995</ele><time>2026-03-29T13:16:13.889Z</time></trkpt><trkpt lat="42.690082878832634" lon="11.334313167221948"><ele>485.59999999999997</ele><time>2026-03-29T13:16:14.889Z</time></trkpt><trkpt lat="42.69006345742577" lon="11.33418599893624"><ele>486.4</ele><time>2026-03-29T13:16:15.889Z</time></trkpt><trkpt lat="42.6900427152882" lon="11.334064547357276"><ele>487.2</ele><time>2026-03-29T13:16:16.889Z</time></trkpt><trkpt lat="42.69001983224484" lon="11.333936297222074"><ele>488.0</ele><time>2026-03-29T13:16:17.889Z</time></trkpt><trkpt lat="42.690003235496455" lon="11.333827067696957"><ele>489.49999999999994</ele><time>2026-03-29T13:16:18.889Z</time></trkpt><trkpt lat="42.68998045794393" lon="11.33372134723436"><ele>491.0</ele><time>2026-03-29T13:16:19.889Z</time></trkpt><trkpt lat="42.68996018103707" lon="11.333639231495859"><ele>492.5</ele><time>2026-03-29T13:16:20.889Z</time></trkpt><trkpt lat="42.68993611202669" lon="11.333549948003439"><ele>494.0</ele><time>2026-03-29T13:16:22.888Z</time></trkpt><trkpt lat="42.689840048908955" lon="11.333495591928388"><ele>495.49999999999994</ele><time>2026-03-29T13:17:02.887Z</time></trkpt><trkpt lat="42.68990601836284" lon="11.333486052444925"><ele>497.0</ele><time>2026-03-29T13:18:47.883Z</time></trkpt><trkpt lat="42.68980280109072" lon="11.333469485417897"><ele>497.0</ele><time>2026-03-29T13:19:15.883Z</time></trkpt><trkpt lat="42.68966495130666" lon="11.333450836350872"><ele>497.00000000000006</ele><time>2026-03-29T13:19:17.883Z</time></trkpt><trkpt lat="42.689580728912" lon="11.333498052269132"><ele>497.00000000000006</ele><time>2026-03-29T13:19:19.883Z</time></trkpt><trkpt lat="42.68952082592878" lon="11.333581889352704"><ele>497.0</ele><time>2026-03-29T13:19:21.883Z</time></trkpt><trkpt lat="42.68945101001465" lon="11.33373038822771"><ele>497.0</ele><time>2026-03-29T13:19:23.883Z</time></trkpt><trkpt lat="42.68941025391264" lon="11.333815699736743"><ele>496.16666666666663</ele><time>2026-03-29T13:19:24.883Z</time></trkpt><trkpt lat="42.689370119464456" lon="11.333907789304977"><ele>495.3333333333333</ele><time>2026-03-29T13:19:25.883Z</time></trkpt><trkpt lat="42.689327816513774" lon="11.334000786044413"><ele>494.5</ele><time>2026-03-29T13:19:26.883Z</time></trkpt><trkpt lat="42.6892743747243" lon="11.334093390858541"><ele>493.66666666666663</ele><time>2026-03-29T13:19:27.883Z</time></trkpt><trkpt lat="42.68921162715546" lon="11.334176743339913"><ele>492.8333333333333</ele><time>2026-03-29T13:19:28.883Z</time></trkpt><trkpt lat="42.689131651019174" lon="11.33424926297772"><ele>492.0</ele><time>2026-03-29T13:19:29.883Z</time></trkpt><trkpt lat="42.689045822453366" lon="11.334322475508932"><ele>492.0</ele><time>2026-03-29T13:19:30.883Z</time></trkpt><trkpt lat="42.68896495248577" lon="11.3344088241761"><ele>492.00000000000006</ele><time>2026-03-29T13:19:31.883Z</time></trkpt><trkpt lat="42.688891610446674" lon="11.334501426879429"><ele>492.00000000000006</ele><time>2026-03-29T13:19:32.883Z</time></trkpt><trkpt lat="42.68883036129498" lon="11.334589174152068"><ele>492.0</ele><time>2026-03-29T13:19:33.883Z</time></trkpt><trkpt lat="42.68877655002607" lon="11.334686126261415"><ele>492.0</ele><time>2026-03-29T13:19:34.883Z</time></trkpt><trkpt lat="42.6887337979808" lon="11.334776866196933"><ele>493.0</ele><time>2026-03-29T13:19:35.883Z</time></trkpt><trkpt lat="42.688696820489675" lon="11.334853903710824"><ele>494.0</ele><time>2026-03-29T13:19:36.883Z</time></trkpt><trkpt lat="42.68866390041943" lon="11.334929095450727"><ele>495.0</ele><time>2026-03-29T13:19:37.883Z</time></trkpt><trkpt lat="42.688602557815656" lon="11.335067876327866"><ele>496.0</ele><time>2026-03-29T13:19:39.883Z</time></trkpt><trkpt lat="42.68855627486106" lon="11.335162246967146"><ele>497.0</ele><time>2026-03-29T13:19:42.883Z</time></trkpt><trkpt lat="42.688621466992636" lon="11.335089084285583"><ele>498.0</ele><time>2026-03-29T13:20:01.882Z</time></trkpt><trkpt lat="42.688682803306776" lon="11.33496163791356"><ele>496.79999999999995</ele><time>2026-03-29T13:20:03.882Z</time></trkpt><trkpt lat="42.68874120428023" lon="11.334808011271509"><ele>495.59999999999997</ele><time>2026-03-29T13:20:05.882Z</time></trkpt><trkpt lat="42.68877637980406" lon="11.334725076411281"><ele>494.40000000000003</ele><time>2026-03-29T13:20:06.882Z</time></trkpt><trkpt lat="42.68883588358538" lon="11.334597897610559"><ele>493.20000000000005</ele><time>2026-03-29T13:20:08.881Z</time></trkpt><trkpt lat="42.6889125263375" lon="11.334503123170283"><ele>492.0</ele><time>2026-03-29T13:20:10.881Z</time></trkpt><trkpt lat="42.68894639073136" lon="11.33441232547046"><ele>492.0</ele><time>2026-03-29T13:20:11.881Z</time></trkpt><trkpt lat="42.68899714368184" lon="11.334358038096155"><ele>492.0</ele><time>2026-03-29T13:20:12.881Z</time></trkpt><trkpt lat="42.689056725654375" lon="11.334290248576165"><ele>492.0</ele><time>2026-03-29T13:20:13.881Z</time></trkpt><trkpt lat="42.689126429789944" lon="11.33422447322812"><ele>492.0</ele><time>2026-03-29T13:20:14.881Z</time></trkpt><trkpt lat="42.68920812775162" lon="11.334174669636804"><ele>492.0</ele><time>2026-03-29T13:20:15.881Z</time></trkpt><trkpt lat="42.689258596575165" lon="11.334091378534149"><ele>492.0</ele><time>2026-03-29T13:20:16.881Z</time></trkpt><trkpt lat="42.689301875173335" lon="11.334008574030989"><ele>492.0</ele><time>2026-03-29T13:20:17.881Z</time></trkpt><trkpt lat="42.68936313125864" lon="11.333965024733061"><ele>492.00000000000006</ele><time>2026-03-29T13:20:18.881Z</time></trkpt><trkpt lat="42.689402722036064" lon="11.333884619577727"><ele>492.00000000000006</ele><time>2026-03-29T13:20:19.881Z</time></trkpt><trkpt lat="42.68945999092877" lon="11.333734418925207"><ele>492.0</ele><time>2026-03-29T13:20:21.881Z</time></trkpt><trkpt lat="42.68948836497254" lon="11.333634869353732"><ele>492.0</ele><time>2026-03-29T13:20:23.881Z</time></trkpt><trkpt lat="42.689821530870255" lon="11.33389534595393"><ele>491.20000000000005</ele><time>2026-03-29T13:20:29.881Z</time></trkpt><trkpt lat="42.689905686020374" lon="11.333952826697773"><ele>490.40000000000003</ele><time>2026-03-29T13:20:31.881Z</time></trkpt><trkpt lat="42.6899755417816" lon="11.334045203402296"><ele>489.59999999999997</ele><time>2026-03-29T13:20:33.881Z</time></trkpt><trkpt lat="42.69000010511378" lon="11.334240965640939"><ele>488.79999999999995</ele><time>2026-03-29T13:20:35.88Z</time></trkpt><trkpt lat="42.69002111613841" lon="11.334350472939063"><ele>488.0</ele><time>2026-03-29T13:20:36.88Z</time></trkpt><trkpt lat="42.690048412812615" lon="11.334468041199921"><ele>488.0</ele><time>2026-03-29T13:20:37.88Z</time></trkpt><trkpt lat="42.69008461462461" lon="11.33459060870109"><ele>487.99999999999994</ele><time>2026-03-29T13:20:38.88Z</time></trkpt><trkpt lat="42.69013759610254" lon="11.334718339986265"><ele>487.99999999999994</ele><time>2026-03-29T13:20:39.88Z</time></trkpt><trkpt lat="42.690206408132696" lon="11.334819491874784"><ele>488.0</ele><time>2026-03-29T13:20:40.88Z</time></trkpt><trkpt lat="42.69029512813168" lon="11.334882741490214"><ele>488.0</ele><time>2026-03-29T13:20:41.88Z</time></trkpt><trkpt lat="42.690396188234224" lon="11.334911090822644"><ele>487.0</ele><time>2026-03-29T13:20:42.88Z</time></trkpt><trkpt lat="42.690506986803015" lon="11.334916597570304"><ele>486.0</ele><time>2026-03-29T13:20:43.88Z</time></trkpt><trkpt lat="42.69063348126555" lon="11.334924259841598"><ele>485.0</ele><time>2026-03-29T13:20:44.88Z</time></trkpt><trkpt lat="42.69076436146371" lon="11.334923810809142"><ele>484.0</ele><time>2026-03-29T13:20:45.88Z</time></trkpt><trkpt lat="42.6908951071333" lon="11.334911667047168"><ele>484.0</ele><time>2026-03-29T13:20:46.88Z</time></trkpt><trkpt lat="42.691025746265126" lon="11.334874978245503"><ele>484.0</ele><time>2026-03-29T13:20:47.88Z</time></trkpt><trkpt lat="42.69114858692968" lon="11.33480015979201"><ele>484.0</ele><time>2026-03-29T13:20:48.88Z</time></trkpt><trkpt lat="42.691267599902034" lon="11.334692418025591"><ele>484.0</ele><time>2026-03-29T13:20:49.88Z</time></trkpt><trkpt lat="42.69138910399224" lon="11.334560423020092"><ele>487.25</ele><time>2026-03-29T13:20:50.88Z</time></trkpt><trkpt lat="42.691520361320066" lon="11.334458679356498"><ele>490.5</ele><time>2026-03-29T13:20:51.88Z</time></trkpt><trkpt lat="42.691649416102365" lon="11.334383528463595"><ele>493.75</ele><time>2026-03-29T13:20:52.88Z</time></trkpt><trkpt lat="42.69178477945649" lon="11.334320789594544"><ele>497.0</ele><time>2026-03-29T13:20:53.88Z</time></trkpt><trkpt lat="42.691926770156684" lon="11.334281848253967"><ele>497.0</ele><time>2026-03-29T13:20:54.88Z</time></trkpt><trkpt lat="42.69206099862043" lon="11.334247052517405"><ele>497.0</ele><time>2026-03-29T13:20:55.88Z</time></trkpt><trkpt lat="42.69219074246021" lon="11.334225124871026"><ele>497.0</ele><time>2026-03-29T13:20:56.88Z</time></trkpt><trkpt lat="42.69231020141908" lon="11.334224169787383"><ele>497.0</ele><time>2026-03-29T13:20:57.88Z</time></trkpt><trkpt lat="42.6924092742266" lon="11.334241960547946"><ele>496.99999999999994</ele><time>2026-03-29T13:20:58.88Z</time></trkpt><trkpt lat="42.69250048112526" lon="11.334260563092906"><ele>497.0</ele><time>2026-03-29T13:20:59.879Z</time></trkpt><trkpt lat="42.69257450123043" lon="11.334276173610212"><ele>497.0</ele><time>2026-03-29T13:21:00.879Z</time></trkpt><trkpt lat="42.692635008543164" lon="11.334303855809639"><ele>497.0</ele><time>2026-03-29T13:21:01.879Z</time></trkpt><trkpt lat="42.692726713400894" lon="11.334333952956234"><ele>496.99999999999994</ele><time>2026-03-29T13:21:03.879Z</time></trkpt><trkpt lat="42.69280791585572" lon="11.334279360247814"><ele>497.0</ele><time>2026-03-29T13:21:05.879Z</time></trkpt><trkpt lat="42.69289196304245" lon="11.334227364968074"><ele>499.20000000000005</ele><time>2026-03-29T13:21:07.879Z</time></trkpt><trkpt lat="42.693009285260906" lon="11.334312279344646"><ele>501.40000000000003</ele><time>2026-03-29T13:21:09.879Z</time></trkpt><trkpt lat="42.6930770100674" lon="11.334364240131661"><ele>503.59999999999997</ele><time>2026-03-29T13:21:10.879Z</time></trkpt><trkpt lat="42.69316523971816" lon="11.334410451753842"><ele>505.79999999999995</ele><time>2026-03-29T13:21:11.879Z</time></trkpt><trkpt lat="42.69325660966051" lon="11.334453287294135"><ele>508.0</ele><time>2026-03-29T13:21:12.879Z</time></trkpt><trkpt lat="42.69332486618382" lon="11.334487305797222"><ele>508.0</ele><time>2026-03-29T13:21:13.879Z</time></trkpt><trkpt lat="42.69339964959212" lon="11.33456474558713"><ele>507.99999999999994</ele><time>2026-03-29T13:21:15.879Z</time></trkpt><trkpt lat="42.69340270875936" lon="11.334708586625162"><ele>507.99999999999994</ele><time>2026-03-29T13:21:17.879Z</time></trkpt><trkpt lat="42.69334075928711" lon="11.33485582846864"><ele>508.0</ele><time>2026-03-29T13:21:19.879Z</time></trkpt><trkpt lat="42.693322707940055" lon="11.334943348905135"><ele>508.0</ele><time>2026-03-29T13:21:20.879Z</time></trkpt><trkpt lat="42.69331285885194" lon="11.335077886776645"><ele>507.0</ele><time>2026-03-29T13:21:22.879Z</time></trkpt><trkpt lat="42.69338451655145" lon="11.335192798751791"><ele>505.99999999999994</ele><time>2026-03-29T13:21:24.878Z</time></trkpt><trkpt lat="42.69348184806806" lon="11.33532080925142"><ele>504.99999999999994</ele><time>2026-03-29T13:21:26.879Z</time></trkpt><trkpt lat="42.69354926314968" lon="11.335403344017767"><ele>504.0</ele><time>2026-03-29T13:21:27.878Z</time></trkpt><trkpt lat="42.69363070525923" lon="11.335490802651861"><ele>503.0</ele><time>2026-03-29T13:21:28.878Z</time></trkpt><trkpt lat="42.69371780880542" lon="11.335572649475607"><ele>505.59999999999997</ele><time>2026-03-29T13:21:29.878Z</time></trkpt><trkpt lat="42.69380853187249" lon="11.33564182313181"><ele>508.19999999999993</ele><time>2026-03-29T13:21:30.878Z</time></trkpt><trkpt lat="42.69389191088279" lon="11.3356981592788"><ele>510.8</ele><time>2026-03-29T13:21:31.878Z</time></trkpt><trkpt lat="42.69396560750871" lon="11.335743409342149"><ele>513.4</ele><time>2026-03-29T13:21:32.878Z</time></trkpt><trkpt lat="42.69405363106574" lon="11.33578191828441"><ele>516.0</ele><time>2026-03-29T13:21:33.879Z</time></trkpt><trkpt lat="42.69414880616144" lon="11.335794525868364"><ele>516.0</ele><time>2026-03-29T13:21:34.879Z</time></trkpt><trkpt lat="42.69425910862267" lon="11.335792843223647"><ele>516.0</ele><time>2026-03-29T13:21:35.879Z</time></trkpt><trkpt lat="42.69436988280517" lon="11.33575537540347"><ele>516.0</ele><time>2026-03-29T13:21:36.879Z</time></trkpt><trkpt lat="42.69448668502819" lon="11.335750831803892"><ele>516.0</ele><time>2026-03-29T13:21:37.879Z</time></trkpt><trkpt lat="42.69459328780006" lon="11.33574733834409"><ele>516.0</ele><time>2026-03-29T13:21:38.879Z</time></trkpt><trkpt lat="42.69469157947381" lon="11.335763902549328"><ele>517.2</ele><time>2026-03-29T13:21:39.879Z</time></trkpt><trkpt lat="42.69478381293342" lon="11.33579199742531"><ele>518.4000000000001</ele><time>2026-03-29T13:21:40.878Z</time></trkpt><trkpt lat="42.69487528313137" lon="11.335855055872795"><ele>519.6</ele><time>2026-03-29T13:21:41.878Z</time></trkpt><trkpt lat="42.69495336434505" lon="11.33591702261772"><ele>520.8000000000001</ele><time>2026-03-29T13:21:42.878Z</time></trkpt><trkpt lat="42.69505697570096" lon="11.335936180271208"><ele>522.0</ele><time>2026-03-29T13:21:43.878Z</time></trkpt><trkpt lat="42.69513748088913" lon="11.33597739853201"><ele>522.0</ele><time>2026-03-29T13:21:44.878Z</time></trkpt><trkpt lat="42.69521791070821" lon="11.336003009513698"><ele>522.0</ele><time>2026-03-29T13:21:45.878Z</time></trkpt><trkpt lat="42.695314449037404" lon="11.336033882961624"><ele>522.0</ele><time>2026-03-29T13:21:46.878Z</time></trkpt><trkpt lat="42.695417909728945" lon="11.336056013377684"><ele>522.0</ele><time>2026-03-29T13:21:47.878Z</time></trkpt><trkpt lat="42.69553091256515" lon="11.33605811450851"><ele>522.0</ele><time>2026-03-29T13:21:48.878Z</time></trkpt><trkpt lat="42.69566968467951" lon="11.336148418247143"><ele>524.6666666666666</ele><time>2026-03-29T13:21:49.878Z</time></trkpt><trkpt lat="42.69585313217056" lon="11.336225272386633"><ele>527.3333333333333</ele><time>2026-03-29T13:21:50.878Z</time></trkpt><trkpt lat="42.69601046719009" lon="11.336285195109873"><ele>530.0</ele><time>2026-03-29T13:21:51.878Z</time></trkpt><trkpt lat="42.69613909389812" lon="11.336317504446088"><ele>531.0</ele><time>2026-03-29T13:21:52.878Z</time></trkpt><trkpt lat="42.69625868453961" lon="11.336359368808237"><ele>532.0</ele><time>2026-03-29T13:21:53.878Z</time></trkpt><trkpt lat="42.696348174471545" lon="11.336408881457388"><ele>533.0</ele><time>2026-03-29T13:21:54.878Z</time></trkpt><trkpt lat="42.69641950463855" lon="11.336435912956654"><ele>534.0</ele><time>2026-03-29T13:21:55.878Z</time></trkpt><trkpt lat="42.69656842181755" lon="11.336446890328908"><ele>535.0</ele><time>2026-03-29T13:21:57.878Z</time></trkpt><trkpt lat="42.69663424385702" lon="11.336391114786872"><ele>535.1666666666667</ele><time>2026-03-29T13:21:58.878Z</time></trkpt><trkpt lat="42.696684456281034" lon="11.336301120087967"><ele>535.3333333333334</ele><time>2026-03-29T13:21:59.878Z</time></trkpt><trkpt lat="42.69670402430233" lon="11.33620378546816"><ele>535.5</ele><time>2026-03-29T13:22:00.878Z</time></trkpt><trkpt lat="42.696741233055235" lon="11.336123360009722"><ele>535.6666666666666</ele><time>2026-03-29T13:22:02.878Z</time></trkpt><trkpt lat="42.69672902548251" lon="11.335980992789946"><ele>535.8333333333333</ele><time>2026-03-29T13:22:04.878Z</time></trkpt><trkpt lat="42.696696244548995" lon="11.33587253489485"><ele>536.0</ele><time>2026-03-29T13:22:05.878Z</time></trkpt><trkpt lat="42.69667817616457" lon="11.335728858390697"><ele>537.0</ele><time>2026-03-29T13:22:06.877Z</time></trkpt><trkpt lat="42.696669540182555" lon="11.335546930980446"><ele>538.0</ele><time>2026-03-29T13:22:07.877Z</time></trkpt><trkpt lat="42.696672742817924" lon="11.33533611202586"><ele>539.0</ele><time>2026-03-29T13:22:08.877Z</time></trkpt><trkpt lat="42.696676527319504" lon="11.335100575407253"><ele>539.0</ele><time>2026-03-29T13:22:09.877Z</time></trkpt><trkpt lat="42.69667788626387" lon="11.334848818160262"><ele>539.0</ele><time>2026-03-29T13:22:10.877Z</time></trkpt><trkpt lat="42.69668754835638" lon="11.33459899941173"><ele>539.0</ele><time>2026-03-29T13:22:11.877Z</time></trkpt><trkpt lat="42.69666594401148" lon="11.334360807781838"><ele>538.6666666666666</ele><time>2026-03-29T13:22:12.877Z</time></trkpt><trkpt lat="42.6966251145443" lon="11.334149663798497"><ele>538.3333333333334</ele><time>2026-03-29T13:22:13.877Z</time></trkpt><trkpt lat="42.696568352552156" lon="11.333962290878905"><ele>538.0</ele><time>2026-03-29T13:22:14.877Z</time></trkpt><trkpt lat="42.69650167899602" lon="11.333786713310884"><ele>539.3333333333334</ele><time>2026-03-29T13:22:15.877Z</time></trkpt><trkpt lat="42.696429198048456" lon="11.333606264612119"><ele>540.6666666666666</ele><time>2026-03-29T13:22:16.877Z</time></trkpt><trkpt lat="42.696357339820814" lon="11.33342113246927"><ele>542.0</ele><time>2026-03-29T13:22:17.877Z</time></trkpt><trkpt lat="42.696289522558864" lon="11.333233063394966"><ele>540.5</ele><time>2026-03-29T13:22:18.877Z</time></trkpt><trkpt lat="42.69622615870611" lon="11.33304545635218"><ele>539.0</ele><time>2026-03-29T13:22:19.877Z</time></trkpt><trkpt lat="42.696169874276954" lon="11.332856296576312"><ele>537.5</ele><time>2026-03-29T13:22:20.877Z</time></trkpt><trkpt lat="42.69613722260026" lon="11.3326624734538"><ele>536.0</ele><time>2026-03-29T13:22:21.877Z</time></trkpt><trkpt lat="42.696127129139555" lon="11.3324683377538"><ele>536.0</ele><time>2026-03-29T13:22:22.877Z</time></trkpt><trkpt lat="42.69615337821625" lon="11.332271584934862"><ele>536.0</ele><time>2026-03-29T13:22:23.877Z</time></trkpt><trkpt lat="42.69617686811562" lon="11.332059895607337"><ele>536.0</ele><time>2026-03-29T13:22:24.877Z</time></trkpt><trkpt lat="42.696185461908925" lon="11.331854816911475"><ele>535.5</ele><time>2026-03-29T13:22:25.877Z</time></trkpt><trkpt lat="42.69620507117529" lon="11.331673594780517"><ele>535.0</ele><time>2026-03-29T13:22:26.877Z</time></trkpt><trkpt lat="42.69621838103989" lon="11.331488442237369"><ele>534.5</ele><time>2026-03-29T13:22:27.877Z</time></trkpt><trkpt lat="42.69622963797036" lon="11.33131766475542"><ele>534.0</ele><time>2026-03-29T13:22:28.877Z</time></trkpt><trkpt lat="42.696202670194374" lon="11.331148450861106"><ele>535.25</ele><time>2026-03-29T13:22:29.877Z</time></trkpt><trkpt lat="42.69615125960554" lon="11.330992458616402"><ele>536.5</ele><time>2026-03-29T13:22:30.877Z</time></trkpt><trkpt lat="42.69608362646952" lon="11.33084948081054"><ele>537.75</ele><time>2026-03-29T13:22:31.876Z</time></trkpt><trkpt lat="42.69600006857838" lon="11.330706428487009"><ele>539.0</ele><time>2026-03-29T13:22:32.876Z</time></trkpt><trkpt lat="42.6959177330101" lon="11.330559532795217"><ele>539.0</ele><time>2026-03-29T13:22:33.876Z</time></trkpt><trkpt lat="42.69582855790081" lon="11.330394834134422"><ele>539.0</ele><time>2026-03-29T13:22:34.876Z</time></trkpt><trkpt lat="42.69573153888818" lon="11.330230215448106"><ele>539.0</ele><time>2026-03-29T13:22:35.876Z</time></trkpt><trkpt lat="42.69562535030148" lon="11.33005899180317"><ele>539.0</ele><time>2026-03-29T13:22:36.876Z</time></trkpt><trkpt lat="42.69550767547644" lon="11.329888547077422"><ele>539.0</ele><time>2026-03-29T13:22:37.876Z</time></trkpt><trkpt lat="42.69538727904259" lon="11.329713335411967"><ele>539.0</ele><time>2026-03-29T13:22:38.876Z</time></trkpt><trkpt lat="42.6952618642247" lon="11.32953680345407"><ele>541.3333333333333</ele><time>2026-03-29T13:22:39.876Z</time></trkpt><trkpt lat="42.69514105705975" lon="11.329369971801205"><ele>543.6666666666666</ele><time>2026-03-29T13:22:40.876Z</time></trkpt><trkpt lat="42.69502994552559" lon="11.329205223726419"><ele>546.0</ele><time>2026-03-29T13:22:41.876Z</time></trkpt><trkpt lat="42.69492552322416" lon="11.329044255394509"><ele>546.0</ele><time>2026-03-29T13:22:42.876Z</time></trkpt><trkpt lat="42.69481840837939" lon="11.32890881034017"><ele>546.0</ele><time>2026-03-29T13:22:43.876Z</time></trkpt><trkpt lat="42.69470584303222" lon="11.328793888147308"><ele>546.0</ele><time>2026-03-29T13:22:44.876Z</time></trkpt><trkpt lat="42.69458579673821" lon="11.328694015153646"><ele>546.0</ele><time>2026-03-29T13:22:45.876Z</time></trkpt><trkpt lat="42.694451844662304" lon="11.328599905364914"><ele>544.75</ele><time>2026-03-29T13:22:46.876Z</time></trkpt><trkpt lat="42.69431767093468" lon="11.328506964689714"><ele>543.5</ele><time>2026-03-29T13:22:47.876Z</time></trkpt><trkpt lat="42.694190612161" lon="11.32842380905615"><ele>542.25</ele><time>2026-03-29T13:22:48.876Z</time></trkpt><trkpt lat="42.69406526491469" lon="11.32836050806048"><ele>541.0</ele><time>2026-03-29T13:22:49.876Z</time></trkpt><trkpt lat="42.69393488014937" lon="11.328324487120987"><ele>541.0</ele><time>2026-03-29T13:22:50.876Z</time></trkpt><trkpt lat="42.693798653984786" lon="11.328316489163102"><ele>541.0</ele><time>2026-03-29T13:22:51.876Z</time></trkpt><trkpt lat="42.693651803134486" lon="11.32833525789043"><ele>541.0</ele><time>2026-03-29T13:22:52.876Z</time></trkpt><trkpt lat="42.693495419030945" lon="11.328364391264824"><ele>541.0</ele><time>2026-03-29T13:22:53.876Z</time></trkpt><trkpt lat="42.69333233891304" lon="11.328394794728853"><ele>542.6666666666667</ele><time>2026-03-29T13:22:54.876Z</time></trkpt><trkpt lat="42.69315988390153" lon="11.32842823721102"><ele>544.3333333333334</ele><time>2026-03-29T13:22:55.876Z</time></trkpt><trkpt lat="42.69299773794849" lon="11.32845563810055"><ele>546.0</ele><time>2026-03-29T13:22:56.876Z</time></trkpt><trkpt lat="42.692862234961616" lon="11.328486419618487"><ele>546.5</ele><time>2026-03-29T13:22:57.875Z</time></trkpt><trkpt lat="42.69273539619592" lon="11.328498894722744"><ele>547.0</ele><time>2026-03-29T13:22:58.875Z</time></trkpt><trkpt lat="42.69261967270905" lon="11.328461858091782"><ele>547.5</ele><time>2026-03-29T13:22:59.875Z</time></trkpt><trkpt lat="42.69250394140737" lon="11.32843787282825"><ele>548.0</ele><time>2026-03-29T13:23:00.875Z</time></trkpt><trkpt lat="42.69239600779216" lon="11.328354863014688"><ele>548.0</ele><time>2026-03-29T13:23:01.875Z</time></trkpt><trkpt lat="42.69228878152824" lon="11.328247981170401"><ele>548.0</ele><time>2026-03-29T13:23:02.875Z</time></trkpt><trkpt lat="42.692183581889566" lon="11.328121011547152"><ele>548.0</ele><time>2026-03-29T13:23:03.875Z</time></trkpt><trkpt lat="42.69208066740708" lon="11.327976821500338"><ele>548.0</ele><time>2026-03-29T13:23:04.875Z</time></trkpt><trkpt lat="42.69198162074063" lon="11.327834249450751"><ele>549.5</ele><time>2026-03-29T13:23:05.875Z</time></trkpt><trkpt lat="42.6918842261032" lon="11.327695536829948"><ele>551.0</ele><time>2026-03-29T13:23:06.875Z</time></trkpt><trkpt lat="42.69179515750975" lon="11.32755507163085"><ele>552.5</ele><time>2026-03-29T13:23:07.875Z</time></trkpt><trkpt lat="42.691715197000775" lon="11.32740288797983"><ele>554.0</ele><time>2026-03-29T13:23:08.875Z</time></trkpt><trkpt lat="42.691651509468244" lon="11.32723000906126"><ele>555.0</ele><time>2026-03-29T13:23:09.875Z</time></trkpt><trkpt lat="42.69160310083389" lon="11.327052682429047"><ele>556.0</ele><time>2026-03-29T13:23:10.875Z</time></trkpt><trkpt lat="42.69156377720346" lon="11.326870836602179"><ele>557.0</ele><time>2026-03-29T13:23:11.875Z</time></trkpt><trkpt lat="42.691530545276564" lon="11.326692034760312"><ele>558.0</ele><time>2026-03-29T13:23:12.875Z</time></trkpt><trkpt lat="42.691493301163085" lon="11.32651265671749"><ele>558.25</ele><time>2026-03-29T13:23:13.875Z</time></trkpt><trkpt lat="42.69145704273613" lon="11.326337543711551"><ele>558.5</ele><time>2026-03-29T13:23:14.875Z</time></trkpt><trkpt lat="42.69142837885879" lon="11.326159369554226"><ele>558.75</ele><time>2026-03-29T13:23:15.875Z</time></trkpt><trkpt lat="42.69139283978624" lon="11.32599546518996"><ele>559.0</ele><time>2026-03-29T13:23:16.875Z</time></trkpt><trkpt lat="42.69136250942409" lon="11.325841280894556"><ele>559.0</ele><time>2026-03-29T13:23:17.875Z</time></trkpt><trkpt lat="42.691332143575394" lon="11.325697479855585"><ele>559.0</ele><time>2026-03-29T13:23:18.875Z</time></trkpt><trkpt lat="42.69130027912975" lon="11.325547293209699"><ele>559.0</ele><time>2026-03-29T13:23:19.875Z</time></trkpt><trkpt lat="42.69126728746156" lon="11.325385678117543"><ele>559.0</ele><time>2026-03-29T13:23:20.875Z</time></trkpt><trkpt lat="42.69123567647359" lon="11.325226727895279"><ele>559.2</ele><time>2026-03-29T13:23:21.875Z</time></trkpt><trkpt lat="42.69120180859922" lon="11.32507916266436"><ele>559.4</ele><time>2026-03-29T13:23:22.874Z</time></trkpt><trkpt lat="42.69116087956378" lon="11.32494555064258"><ele>559.6</ele><time>2026-03-29T13:23:23.874Z</time></trkpt><trkpt lat="42.69111354518074" lon="11.3248192803229"><ele>559.8</ele><time>2026-03-29T13:23:24.874Z</time></trkpt><trkpt lat="42.691059300310506" lon="11.324707403151722"><ele>560.0</ele><time>2026-03-29T13:23:25.874Z</time></trkpt><trkpt lat="42.69100720014585" lon="11.324607265232443"><ele>560.0</ele><time>2026-03-29T13:23:26.875Z</time></trkpt><trkpt lat="42.6909676745895" lon="11.32451635406396"><ele>560.0</ele><time>2026-03-29T13:23:27.875Z</time></trkpt><trkpt lat="42.69094991282678" lon="11.32442868436957"><ele>560.0</ele><time>2026-03-29T13:23:28.875Z</time></trkpt><trkpt lat="42.69093105219131" lon="11.324330355560841"><ele>560.0</ele><time>2026-03-29T13:23:29.875Z</time></trkpt><trkpt lat="42.69093105219111" lon="11.32422990800811"><ele>560.0</ele><time>2026-03-29T13:23:30.875Z</time></trkpt><trkpt lat="42.691034813328855" lon="11.324123774458837"><ele>560.0</ele><time>2026-03-29T13:23:31.875Z</time></trkpt><trkpt lat="42.69110348232246" lon="11.324011796883397"><ele>560.0</ele><time>2026-03-29T13:23:32.875Z</time></trkpt><trkpt lat="42.69119846554735" lon="11.323902858696707"><ele>560.0</ele><time>2026-03-29T13:23:33.874Z</time></trkpt><trkpt lat="42.69130170374444" lon="11.323787960605848"><ele>560.0</ele><time>2026-03-29T13:23:34.874Z</time></trkpt><trkpt lat="42.69141042791551" lon="11.323659747461017"><ele>560.0</ele><time>2026-03-29T13:23:35.873Z</time></trkpt><trkpt lat="42.691528572034855" lon="11.323523912133105"><ele>559.75</ele><time>2026-03-29T13:23:36.873Z</time></trkpt><trkpt lat="42.69164671226713" lon="11.323382877701198"><ele>559.5</ele><time>2026-03-29T13:23:37.873Z</time></trkpt><trkpt lat="42.69175809446259" lon="11.323249590356438"><ele>559.25</ele><time>2026-03-29T13:23:38.874Z</time></trkpt><trkpt lat="42.69186325725498" lon="11.323125846091902"><ele>559.0</ele><time>2026-03-29T13:23:39.873Z</time></trkpt><trkpt lat="42.69196653392385" lon="11.323004928890853"><ele>558.75</ele><time>2026-03-29T13:23:40.873Z</time></trkpt><trkpt lat="42.69206286654768" lon="11.322886920013058"><ele>558.5</ele><time>2026-03-29T13:23:41.873Z</time></trkpt><trkpt lat="42.6921678486948" lon="11.322770211143068"><ele>558.25</ele><time>2026-03-29T13:23:42.873Z</time></trkpt><trkpt lat="42.692277376592536" lon="11.322650960692414"><ele>558.0</ele><time>2026-03-29T13:23:43.873Z</time></trkpt><trkpt lat="42.692391558384585" lon="11.32252093206182"><ele>558.0</ele><time>2026-03-29T13:23:44.873Z</time></trkpt><trkpt lat="42.692509415746116" lon="11.322384007980867"><ele>558.0</ele><time>2026-03-29T13:23:45.873Z</time></trkpt><trkpt lat="42.69262458415059" lon="11.322239160068778"><ele>558.0</ele><time>2026-03-29T13:23:46.873Z</time></trkpt><trkpt lat="42.69273434067738" lon="11.322091671940559"><ele>555.3333333333334</ele><time>2026-03-29T13:23:47.872Z</time></trkpt><trkpt lat="42.69284260320296" lon="11.321939738605526"><ele>552.6666666666667</ele><time>2026-03-29T13:23:48.872Z</time></trkpt><trkpt lat="42.69293901210402" lon="11.321782119148548"><ele>550.0</ele><time>2026-03-29T13:23:49.872Z</time></trkpt><trkpt lat="42.69302551608544" lon="11.321617160685998"><ele>550.0</ele><time>2026-03-29T13:23:50.872Z</time></trkpt><trkpt lat="42.693099960839625" lon="11.321452434714915"><ele>550.0</ele><time>2026-03-29T13:23:51.872Z</time></trkpt><trkpt lat="42.693170730998794" lon="11.321270051894496"><ele>550.0</ele><time>2026-03-29T13:23:52.875Z</time></trkpt><trkpt lat="42.6932451397204" lon="11.321089853266846"><ele>550.0</ele><time>2026-03-29T13:23:53.878Z</time></trkpt><trkpt lat="42.69331370586229" lon="11.320910003546425"><ele>549.3333333333334</ele><time>2026-03-29T13:23:54.88Z</time></trkpt><trkpt lat="42.69338677408652" lon="11.320721923929641"><ele>548.6666666666666</ele><time>2026-03-29T13:23:55.883Z</time></trkpt><trkpt lat="42.69346335702077" lon="11.320538916501054"><ele>548.0</ele><time>2026-03-29T13:23:56.885Z</time></trkpt><trkpt lat="42.693542168323354" lon="11.320346167996922"><ele>546.0</ele><time>2026-03-29T13:23:57.887Z</time></trkpt><trkpt lat="42.69362311824006" lon="11.320148223847143"><ele>544.0</ele><time>2026-03-29T13:23:58.89Z</time></trkpt><trkpt lat="42.69370621748677" lon="11.31994719076587"><ele>542.0</ele><time>2026-03-29T13:23:59.892Z</time></trkpt><trkpt lat="42.69379248844281" lon="11.319744953547566"><ele>542.0</ele><time>2026-03-29T13:24:00.893Z</time></trkpt><trkpt lat="42.69388409539792" lon="11.319545108500934"><ele>542.0</ele><time>2026-03-29T13:24:01.895Z</time></trkpt><trkpt lat="42.693981138982025" lon="11.319344544642837"><ele>542.0</ele><time>2026-03-29T13:24:02.897Z</time></trkpt><trkpt lat="42.69407800548187" lon="11.319145449958729"><ele>542.0</ele><time>2026-03-29T13:24:03.898Z</time></trkpt><trkpt lat="42.694176060557105" lon="11.31894123391225"><ele>542.0</ele><time>2026-03-29T13:24:04.9Z</time></trkpt><trkpt lat="42.69428050464434" lon="11.318737090782975"><ele>542.0</ele><time>2026-03-29T13:24:05.901Z</time></trkpt><trkpt lat="42.69438327049814" lon="11.318530165573662"><ele>542.0</ele><time>2026-03-29T13:24:06.902Z</time></trkpt><trkpt lat="42.694486047247096" lon="11.318322585294284"><ele>542.0</ele><time>2026-03-29T13:24:07.903Z</time></trkpt><trkpt lat="42.694590753118696" lon="11.318112489343001"><ele>542.0</ele><time>2026-03-29T13:24:08.904Z</time></trkpt><trkpt lat="42.69468933165118" lon="11.317906209041238"><ele>542.6666666666666</ele><time>2026-03-29T13:24:09.905Z</time></trkpt><trkpt lat="42.69478856149034" lon="11.317699725033064"><ele>543.3333333333334</ele><time>2026-03-29T13:24:10.906Z</time></trkpt><trkpt lat="42.694885283606105" lon="11.317506545345564"><ele>544.0</ele><time>2026-03-29T13:24:11.907Z</time></trkpt><trkpt lat="42.694982388450434" lon="11.317320107190621"><ele>544.3333333333334</ele><time>2026-03-29T13:24:12.908Z</time></trkpt><trkpt lat="42.69508288416172" lon="11.317128679311306"><ele>544.6666666666666</ele><time>2026-03-29T13:24:13.909Z</time></trkpt><trkpt lat="42.695180937550084" lon="11.316930221675337"><ele>545.0</ele><time>2026-03-29T13:24:14.91Z</time></trkpt><trkpt lat="42.695273657757554" lon="11.31672777706821"><ele>543.6666666666666</ele><time>2026-03-29T13:24:15.91Z</time></trkpt><trkpt lat="42.695368147352326" lon="11.316529582110004"><ele>542.3333333333334</ele><time>2026-03-29T13:24:16.911Z</time></trkpt><trkpt lat="42.6954671429598" lon="11.316327938985308"><ele>541.0</ele><time>2026-03-29T13:24:17.912Z</time></trkpt><trkpt lat="42.69556158606632" lon="11.316127056493915"><ele>541.0</ele><time>2026-03-29T13:24:18.912Z</time></trkpt><trkpt lat="42.695646780090335" lon="11.315920180555334"><ele>541.0</ele><time>2026-03-29T13:24:19.913Z</time></trkpt><trkpt lat="42.69570942966184" lon="11.31571244325717"><ele>541.0</ele><time>2026-03-29T13:24:20.913Z</time></trkpt><trkpt lat="42.69574706231512" lon="11.315493437900827"><ele>541.0</ele><time>2026-03-29T13:24:21.914Z</time></trkpt><trkpt lat="42.69577881780391" lon="11.315265865793817"><ele>541.0</ele><time>2026-03-29T13:24:22.914Z</time></trkpt><trkpt lat="42.69578231231327" lon="11.31503441662923"><ele>541.0</ele><time>2026-03-29T13:24:23.914Z</time></trkpt><trkpt lat="42.69577083886098" lon="11.314809799229307"><ele>538.6666666666667</ele><time>2026-03-29T13:24:24.915Z</time></trkpt><trkpt lat="42.69574745958636" lon="11.314587631185535"><ele>536.3333333333334</ele><time>2026-03-29T13:24:25.915Z</time></trkpt><trkpt lat="42.69570360472207" lon="11.31436894555402"><ele>534.0</ele><time>2026-03-29T13:24:26.915Z</time></trkpt><trkpt lat="42.695628648817255" lon="11.314156906247868"><ele>534.0</ele><time>2026-03-29T13:24:27.916Z</time></trkpt><trkpt lat="42.695527003622225" lon="11.313936840041022"><ele>534.0</ele><time>2026-03-29T13:24:28.916Z</time></trkpt><trkpt lat="42.69541233437768" lon="11.31370131111052"><ele>534.0</ele><time>2026-03-29T13:24:29.916Z</time></trkpt><trkpt lat="42.69529090813122" lon="11.313445452543787"><ele>532.5</ele><time>2026-03-29T13:24:30.916Z</time></trkpt><trkpt lat="42.69516861979674" lon="11.313180032614753"><ele>531.0</ele><time>2026-03-29T13:24:31.917Z</time></trkpt><trkpt lat="42.69504792229234" lon="11.312919785874518"><ele>531.0</ele><time>2026-03-29T13:24:32.917Z</time></trkpt><trkpt lat="42.6949268935914" lon="11.312672263540309"><ele>531.0</ele><time>2026-03-29T13:24:33.917Z</time></trkpt><trkpt lat="42.694803006577665" lon="11.312428939176334"><ele>531.0</ele><time>2026-03-29T13:24:34.917Z</time></trkpt><trkpt lat="42.69466878555167" lon="11.312196634819864"><ele>528.3333333333334</ele><time>2026-03-29T13:24:35.917Z</time></trkpt><trkpt lat="42.69451446128162" lon="11.311979135462291"><ele>525.6666666666667</ele><time>2026-03-29T13:24:36.918Z</time></trkpt><trkpt lat="42.694346666501524" lon="11.311788203288994"><ele>523.0</ele><time>2026-03-29T13:24:37.918Z</time></trkpt><trkpt lat="42.69416125730903" lon="11.311622267253743"><ele>523.0</ele><time>2026-03-29T13:24:38.918Z</time></trkpt><trkpt lat="42.69395796936475" lon="11.311482795646677"><ele>523.0</ele><time>2026-03-29T13:24:39.918Z</time></trkpt><trkpt lat="42.69374518410064" lon="11.311351113618008"><ele>518.5</ele><time>2026-03-29T13:24:40.918Z</time></trkpt><trkpt lat="42.69353288594465" lon="11.311221504712613"><ele>514.0</ele><time>2026-03-29T13:24:41.918Z</time></trkpt><trkpt lat="42.69332666084623" lon="11.311064725250636"><ele>514.0</ele><time>2026-03-29T13:24:42.918Z</time></trkpt><trkpt lat="42.69312377114199" lon="11.31093182758105"><ele>514.0</ele><time>2026-03-29T13:24:43.918Z</time></trkpt><trkpt lat="42.69293144976661" lon="11.31080396767019"><ele>514.0</ele><time>2026-03-29T13:24:44.918Z</time></trkpt><trkpt lat="42.69274728506482" lon="11.31068065746348"><ele>511.6666666666667</ele><time>2026-03-29T13:24:45.918Z</time></trkpt><trkpt lat="42.692572519410156" lon="11.310561066108853"><ele>509.33333333333337</ele><time>2026-03-29T13:24:46.919Z</time></trkpt><trkpt lat="42.69242929199271" lon="11.310412856374802"><ele>507.0</ele><time>2026-03-29T13:24:47.919Z</time></trkpt><trkpt lat="42.69232326397954" lon="11.310250559218886"><ele>507.0</ele><time>2026-03-29T13:24:48.919Z</time></trkpt><trkpt lat="42.69225295030561" lon="11.310069423127267"><ele>507.0</ele><time>2026-03-29T13:24:49.919Z</time></trkpt><trkpt lat="42.69220933700452" lon="11.309869030998126"><ele>507.0</ele><time>2026-03-29T13:24:50.919Z</time></trkpt><trkpt lat="42.69220050915993" lon="11.30966098806892"><ele>506.66666666666663</ele><time>2026-03-29T13:24:51.919Z</time></trkpt><trkpt lat="42.692221170603254" lon="11.309449508393893"><ele>506.3333333333333</ele><time>2026-03-29T13:24:52.919Z</time></trkpt><trkpt lat="42.69227731781712" lon="11.309245242654635"><ele>506.0</ele><time>2026-03-29T13:24:53.919Z</time></trkpt><trkpt lat="42.692364142104935" lon="11.30906867036151"><ele>506.0</ele><time>2026-03-29T13:24:54.919Z</time></trkpt><trkpt lat="42.69247107001481" lon="11.30891155043118"><ele>506.0</ele><time>2026-03-29T13:24:55.919Z</time></trkpt><trkpt lat="42.69260021842842" lon="11.308779922972224"><ele>506.0</ele><time>2026-03-29T13:24:56.919Z</time></trkpt><trkpt lat="42.692754422471666" lon="11.308680866583277"><ele>506.3333333333333</ele><time>2026-03-29T13:24:57.919Z</time></trkpt><trkpt lat="42.692921618947715" lon="11.308592847614278"><ele>506.66666666666663</ele><time>2026-03-29T13:24:58.919Z</time></trkpt><trkpt lat="42.69309399047101" lon="11.308511677128992"><ele>507.0</ele><time>2026-03-29T13:24:59.919Z</time></trkpt><trkpt lat="42.69327054128787" lon="11.30843224932132"><ele>507.0</ele><time>2026-03-29T13:25:00.919Z</time></trkpt><trkpt lat="42.69344885859289" lon="11.308349556596783"><ele>507.0</ele><time>2026-03-29T13:25:01.919Z</time></trkpt><trkpt lat="42.693633919785654" lon="11.308264210165463"><ele>507.0</ele><time>2026-03-29T13:25:02.919Z</time></trkpt><trkpt lat="42.69382090263316" lon="11.308180360652992"><ele>506.66666666666663</ele><time>2026-03-29T13:25:03.919Z</time></trkpt><trkpt lat="42.69400709313889" lon="11.308099576578902"><ele>506.3333333333333</ele><time>2026-03-29T13:25:04.919Z</time></trkpt><trkpt lat="42.69419314344031" lon="11.308011170318363"><ele>506.0</ele><time>2026-03-29T13:25:05.919Z</time></trkpt><trkpt lat="42.69437200618598" lon="11.307923394620348"><ele>505.0</ele><time>2026-03-29T13:25:06.919Z</time></trkpt><trkpt lat="42.69455053475914" lon="11.307839054231929"><ele>504.0</ele><time>2026-03-29T13:25:07.919Z</time></trkpt><trkpt lat="42.69470029379472" lon="11.307774721516761"><ele>503.0</ele><time>2026-03-29T13:25:08.919Z</time></trkpt><trkpt lat="42.694801394627376" lon="11.307729961031797"><ele>503.0</ele><time>2026-03-29T13:25:09.919Z</time></trkpt><trkpt lat="42.69486150870492" lon="11.307687759505857"><ele>502.99999999999994</ele><time>2026-03-29T13:25:10.919Z</time></trkpt><trkpt lat="42.69486840848932" lon="11.307520303211515"><ele>502.99999999999994</ele><time>2026-03-29T13:25:13.919Z</time></trkpt><trkpt lat="42.694855825495125" lon="11.307415817618084"><ele>503.0</ele><time>2026-03-29T13:25:14.919Z</time></trkpt><trkpt lat="42.694865652081916" lon="11.30728560007708"><ele>503.0</ele><time>2026-03-29T13:25:15.919Z</time></trkpt><trkpt lat="42.69488330327835" lon="11.307127400751778"><ele>503.5</ele><time>2026-03-29T13:25:16.919Z</time></trkpt><trkpt lat="42.69490337264925" lon="11.306949273081798"><ele>504.0</ele><time>2026-03-29T13:25:17.919Z</time></trkpt><trkpt lat="42.69491266279779" lon="11.306764362849687"><ele>504.5</ele><time>2026-03-29T13:25:18.919Z</time></trkpt><trkpt lat="42.694900952307535" lon="11.306590612462452"><ele>505.0</ele><time>2026-03-29T13:25:19.919Z</time></trkpt><trkpt lat="42.6948794021717" lon="11.30641488882718"><ele>506.25</ele><time>2026-03-29T13:25:20.919Z</time></trkpt><trkpt lat="42.69481904898084" lon="11.306237005959638"><ele>507.5</ele><time>2026-03-29T13:25:21.919Z</time></trkpt><trkpt lat="42.694732280284576" lon="11.306079534129033"><ele>508.75</ele><time>2026-03-29T13:25:22.919Z</time></trkpt><trkpt lat="42.69463112877283" lon="11.305949715171819"><ele>510.0</ele><time>2026-03-29T13:25:23.919Z</time></trkpt><trkpt lat="42.69454063293451" lon="11.305826953628364"><ele>510.0</ele><time>2026-03-29T13:25:24.919Z</time></trkpt><trkpt lat="42.69447726738725" lon="11.305707204246954"><ele>510.0</ele><time>2026-03-29T13:25:25.919Z</time></trkpt><trkpt lat="42.69443865987767" lon="11.305571306731553"><ele>510.0</ele><time>2026-03-29T13:25:26.919Z</time></trkpt><trkpt lat="42.69438320801577" lon="11.305378038118125"><ele>510.0</ele><time>2026-03-29T13:25:27.919Z</time></trkpt><trkpt lat="42.69435407638016" lon="11.305221532590663"><ele>509.0</ele><time>2026-03-29T13:25:28.919Z</time></trkpt><trkpt lat="42.69433857960782" lon="11.305085365253175"><ele>508.0</ele><time>2026-03-29T13:25:29.919Z</time></trkpt><trkpt lat="42.69435569990584" lon="11.304960058460642"><ele>507.0</ele><time>2026-03-29T13:25:30.919Z</time></trkpt><trkpt lat="42.69439670256621" lon="11.304861115508496"><ele>506.0</ele><time>2026-03-29T13:25:31.919Z</time></trkpt><trkpt lat="42.69445917277082" lon="11.304786792812491"><ele>505.0</ele><time>2026-03-29T13:25:32.92Z</time></trkpt><trkpt lat="42.69454269427762" lon="11.304742435654878"><ele>502.6</ele><time>2026-03-29T13:25:33.92Z</time></trkpt><trkpt lat="42.69464411984431" lon="11.30473068962838"><ele>500.2</ele><time>2026-03-29T13:25:34.92Z</time></trkpt><trkpt lat="42.69473858138662" lon="11.304722214196923"><ele>497.79999999999995</ele><time>2026-03-29T13:25:35.92Z</time></trkpt><trkpt lat="42.69482281838557" lon="11.304688632291976"><ele>495.4</ele><time>2026-03-29T13:25:36.92Z</time></trkpt><trkpt lat="42.69489629509803" lon="11.304617861646971"><ele>493.0</ele><time>2026-03-29T13:25:37.92Z</time></trkpt><trkpt lat="42.69494082837429" lon="11.304519889488178"><ele>493.0</ele><time>2026-03-29T13:25:38.92Z</time></trkpt><trkpt lat="42.694972317932276" lon="11.304390627331614"><ele>492.99999999999994</ele><time>2026-03-29T13:25:39.92Z</time></trkpt><trkpt lat="42.69499189741687" lon="11.30422940258935"><ele>492.99999999999994</ele><time>2026-03-29T13:25:40.92Z</time></trkpt><trkpt lat="42.69503089472016" lon="11.304096271534403"><ele>493.0</ele><time>2026-03-29T13:25:41.92Z</time></trkpt><trkpt lat="42.69509817396664" lon="11.303977872798916"><ele>493.0</ele><time>2026-03-29T13:25:42.92Z</time></trkpt><trkpt lat="42.69515662455368" lon="11.303861340951833"><ele>491.4</ele><time>2026-03-29T13:25:43.919Z</time></trkpt><trkpt lat="42.69519544051221" lon="11.30372994986901"><ele>489.79999999999995</ele><time>2026-03-29T13:25:44.92Z</time></trkpt><trkpt lat="42.695204284222555" lon="11.303589246352093"><ele>488.2</ele><time>2026-03-29T13:25:45.92Z</time></trkpt><trkpt lat="42.69517642833943" lon="11.30345612332277"><ele>486.6</ele><time>2026-03-29T13:25:46.92Z</time></trkpt><trkpt lat="42.69511472375976" lon="11.303338692094783"><ele>485.0</ele><time>2026-03-29T13:25:47.92Z</time></trkpt><trkpt lat="42.69502391696752" lon="11.303246522035371"><ele>485.0</ele><time>2026-03-29T13:25:48.92Z</time></trkpt><trkpt lat="42.69491844740738" lon="11.303162982377135"><ele>485.0</ele><time>2026-03-29T13:25:49.92Z</time></trkpt><trkpt lat="42.69481276342475" lon="11.303079572139414"><ele>485.0</ele><time>2026-03-29T13:25:50.92Z</time></trkpt><trkpt lat="42.694728179078105" lon="11.302959862805038"><ele>485.0</ele><time>2026-03-29T13:25:51.92Z</time></trkpt><trkpt lat="42.69467666561626" lon="11.302828347696524"><ele>487.0</ele><time>2026-03-29T13:25:52.92Z</time></trkpt><trkpt lat="42.69463782698384" lon="11.302672820077923"><ele>489.0</ele><time>2026-03-29T13:25:53.92Z</time></trkpt><trkpt lat="42.69459190742177" lon="11.302520417910054"><ele>491.0</ele><time>2026-03-29T13:25:54.92Z</time></trkpt><trkpt lat="42.694541680639645" lon="11.30236201147484"><ele>493.0</ele><time>2026-03-29T13:25:55.92Z</time></trkpt><trkpt lat="42.694487486543046" lon="11.302210751765521"><ele>493.0</ele><time>2026-03-29T13:25:56.92Z</time></trkpt><trkpt lat="42.694434950038314" lon="11.302064440489005"><ele>492.99999999999994</ele><time>2026-03-29T13:25:57.92Z</time></trkpt><trkpt lat="42.694394718400886" lon="11.30191541960775"><ele>492.99999999999994</ele><time>2026-03-29T13:25:58.92Z</time></trkpt><trkpt lat="42.694363353978865" lon="11.301778116170583"><ele>493.0</ele><time>2026-03-29T13:25:59.92Z</time></trkpt><trkpt lat="42.69434855836027" lon="11.301648517274723"><ele>493.0</ele><time>2026-03-29T13:26:00.92Z</time></trkpt><trkpt lat="42.694345130946004" lon="11.301518377244093"><ele>490.33333333333337</ele><time>2026-03-29T13:26:01.92Z</time></trkpt><trkpt lat="42.694357005775025" lon="11.301399306137437"><ele>487.6666666666667</ele><time>2026-03-29T13:26:02.92Z</time></trkpt><trkpt lat="42.69438053810711" lon="11.301284815267804"><ele>485.0</ele><time>2026-03-29T13:26:03.92Z</time></trkpt><trkpt lat="42.69440391350662" lon="11.301176013483825"><ele>482.33333333333337</ele><time>2026-03-29T13:26:04.92Z</time></trkpt><trkpt lat="42.694432823547785" lon="11.30108235146909"><ele>479.6666666666667</ele><time>2026-03-29T13:26:05.919Z</time></trkpt><trkpt lat="42.694464317561234" lon="11.300995994508021"><ele>477.0</ele><time>2026-03-29T13:26:06.919Z</time></trkpt><trkpt lat="42.69450786529428" lon="11.300921173868971"><ele>477.0</ele><time>2026-03-29T13:26:07.919Z</time></trkpt><trkpt lat="42.69455530685049" lon="11.300856205694274"><ele>477.00000000000006</ele><time>2026-03-29T13:26:08.919Z</time></trkpt><trkpt lat="42.694598078938895" lon="11.300792658758429"><ele>477.00000000000006</ele><time>2026-03-29T13:26:09.919Z</time></trkpt><trkpt lat="42.694661059732404" lon="11.300661081830894"><ele>477.0</ele><time>2026-03-29T13:26:11.919Z</time></trkpt><trkpt lat="42.69470114430187" lon="11.300510502654667"><ele>477.0</ele><time>2026-03-29T13:26:13.919Z</time></trkpt><trkpt lat="42.69472542247551" lon="11.300391426774679"><ele>474.1666666666667</ele><time>2026-03-29T13:26:15.919Z</time></trkpt><trkpt lat="42.69475587605242" lon="11.30030170217362"><ele>471.33333333333337</ele><time>2026-03-29T13:26:17.919Z</time></trkpt><trkpt lat="42.69480060909736" lon="11.300215239956712"><ele>468.5</ele><time>2026-03-29T13:26:19.919Z</time></trkpt><trkpt lat="42.69486676322674" lon="11.300118152975106"><ele>465.6666666666667</ele><time>2026-03-29T13:26:21.919Z</time></trkpt><trkpt lat="42.694928896754945" lon="11.300085498618124"><ele>462.83333333333337</ele><time>2026-03-29T13:26:22.919Z</time></trkpt><trkpt lat="42.69500804952589" lon="11.300075958967751"><ele>460.0</ele><time>2026-03-29T13:26:23.919Z</time></trkpt><trkpt lat="42.69509802329509" lon="11.300075486987604"><ele>460.0</ele><time>2026-03-29T13:26:24.919Z</time></trkpt><trkpt lat="42.69519839638761" lon="11.300088249953593"><ele>460.0</ele><time>2026-03-29T13:26:25.919Z</time></trkpt><trkpt lat="42.69530804204668" lon="11.300111817541465"><ele>460.0</ele><time>2026-03-29T13:26:26.919Z</time></trkpt><trkpt lat="42.69542752328195" lon="11.300146961759355"><ele>460.0</ele><time>2026-03-29T13:26:27.919Z</time></trkpt><trkpt lat="42.69555936543023" lon="11.300195140158827"><ele>458.0</ele><time>2026-03-29T13:26:28.919Z</time></trkpt><trkpt lat="42.69570404145033" lon="11.300246350680204"><ele>456.0</ele><time>2026-03-29T13:26:29.919Z</time></trkpt><trkpt lat="42.695856807293055" lon="11.30029246182813"><ele>454.0</ele><time>2026-03-29T13:26:30.919Z</time></trkpt><trkpt lat="42.696008951031885" lon="11.300342913157268"><ele>449.5</ele><time>2026-03-29T13:26:31.919Z</time></trkpt><trkpt lat="42.69616057302094" lon="11.300390017691056"><ele>445.0</ele><time>2026-03-29T13:26:32.919Z</time></trkpt><trkpt lat="42.69630114431723" lon="11.300457546226639"><ele>440.5</ele><time>2026-03-29T13:26:33.919Z</time></trkpt><trkpt lat="42.6964376059498" lon="11.300515657573321"><ele>436.0</ele><time>2026-03-29T13:26:34.919Z</time></trkpt><trkpt lat="42.69655533141986" lon="11.300574880575736"><ele>434.20000000000005</ele><time>2026-03-29T13:26:35.919Z</time></trkpt><trkpt lat="42.69665501892073" lon="11.300640540589798"><ele>432.40000000000003</ele><time>2026-03-29T13:26:36.919Z</time></trkpt><trkpt lat="42.69673628038913" lon="11.300729290942568"><ele>430.6</ele><time>2026-03-29T13:26:37.918Z</time></trkpt><trkpt lat="42.69681405920415" lon="11.300836283987516"><ele>428.8</ele><time>2026-03-29T13:26:38.918Z</time></trkpt><trkpt lat="42.69688467827972" lon="11.3009471040074"><ele>427.0</ele><time>2026-03-29T13:26:39.918Z</time></trkpt><trkpt lat="42.69694957915039" lon="11.301081902428312"><ele>427.0</ele><time>2026-03-29T13:26:40.918Z</time></trkpt><trkpt lat="42.69700428543513" lon="11.301227938798585"><ele>427.0</ele><time>2026-03-29T13:26:41.918Z</time></trkpt><trkpt lat="42.69705039439132" lon="11.301379075789184"><ele>427.0</ele><time>2026-03-29T13:26:42.918Z</time></trkpt><trkpt lat="42.697121485869495" lon="11.30152685471093"><ele>427.0</ele><time>2026-03-29T13:26:43.918Z</time></trkpt><trkpt lat="42.69721872641236" lon="11.301649886937888"><ele>432.0</ele><time>2026-03-29T13:26:44.918Z</time></trkpt><trkpt lat="42.69732047996513" lon="11.30175524291871"><ele>437.0</ele><time>2026-03-29T13:26:45.918Z</time></trkpt><trkpt lat="42.69742969298207" lon="11.301861668663301"><ele>442.0</ele><time>2026-03-29T13:26:46.918Z</time></trkpt><trkpt lat="42.69753730454091" lon="11.301962710664835"><ele>447.0</ele><time>2026-03-29T13:26:47.918Z</time></trkpt><trkpt lat="42.69765065935295" lon="11.302074558849332"><ele>448.75</ele><time>2026-03-29T13:26:48.918Z</time></trkpt><trkpt lat="42.69777259314652" lon="11.302176188067916"><ele>450.5</ele><time>2026-03-29T13:26:49.918Z</time></trkpt><trkpt lat="42.697889637715676" lon="11.302268182059526"><ele>452.25</ele><time>2026-03-29T13:26:50.918Z</time></trkpt><trkpt lat="42.69799056271602" lon="11.302357764604448"><ele>454.0</ele><time>2026-03-29T13:26:51.918Z</time></trkpt><trkpt lat="42.698091046857854" lon="11.302431966985738"><ele>454.0</ele><time>2026-03-29T13:26:52.918Z</time></trkpt><trkpt lat="42.69816984876201" lon="11.302487057893975"><ele>454.0</ele><time>2026-03-29T13:26:53.918Z</time></trkpt><trkpt lat="42.69823959889911" lon="11.302515077061809"><ele>454.0</ele><time>2026-03-29T13:26:54.918Z</time></trkpt><trkpt lat="42.69836187333907" lon="11.302493073332748"><ele>454.0</ele><time>2026-03-29T13:26:56.918Z</time></trkpt><trkpt lat="42.69840455782198" lon="11.302379715111265"><ele>454.0</ele><time>2026-03-29T13:26:57.918Z</time></trkpt><trkpt lat="42.69840695376141" lon="11.3022552085205"><ele>450.0</ele><time>2026-03-29T13:26:58.918Z</time></trkpt><trkpt lat="42.69840472120677" lon="11.302138906319634"><ele>446.0</ele><time>2026-03-29T13:26:59.918Z</time></trkpt><trkpt lat="42.698389705697664" lon="11.301999569981911"><ele>442.0</ele><time>2026-03-29T13:27:00.918Z</time></trkpt><trkpt lat="42.69839577805576" lon="11.301842523406577"><ele>438.0</ele><time>2026-03-29T13:27:01.918Z</time></trkpt><trkpt lat="42.69838241310087" lon="11.301687803578819"><ele>434.0</ele><time>2026-03-29T13:27:02.918Z</time></trkpt><trkpt lat="42.69836367303803" lon="11.301525559725764"><ele>430.79999999999995</ele><time>2026-03-29T13:27:03.918Z</time></trkpt><trkpt lat="42.698360784929456" lon="11.301382881086148"><ele>427.59999999999997</ele><time>2026-03-29T13:27:04.918Z</time></trkpt><trkpt lat="42.69837159878183" lon="11.301271512036001"><ele>424.4</ele><time>2026-03-29T13:27:05.918Z</time></trkpt><trkpt lat="42.69841562948072" lon="11.301168925951238"><ele>421.2</ele><time>2026-03-29T13:27:06.918Z</time></trkpt><trkpt lat="42.69848381080455" lon="11.3011134672439"><ele>418.0</ele><time>2026-03-29T13:27:07.918Z</time></trkpt><trkpt lat="42.698580298052796" lon="11.301079087261833"><ele>417.79999999999995</ele><time>2026-03-29T13:27:08.918Z</time></trkpt><trkpt lat="42.698685196136815" lon="11.301078008711576"><ele>417.6</ele><time>2026-03-29T13:27:09.918Z</time></trkpt><trkpt lat="42.69879352755089" lon="11.301111135426098"><ele>417.4</ele><time>2026-03-29T13:27:10.917Z</time></trkpt><trkpt lat="42.698878440625755" lon="11.30117561456708"><ele>417.20000000000005</ele><time>2026-03-29T13:27:11.917Z</time></trkpt><trkpt lat="42.698949209069475" lon="11.301266900131287"><ele>417.0</ele><time>2026-03-29T13:27:12.917Z</time></trkpt><trkpt lat="42.699037495538654" lon="11.301354830833635"><ele>420.5</ele><time>2026-03-29T13:27:13.917Z</time></trkpt><trkpt lat="42.69913986610213" lon="11.301442837117708"><ele>424.0</ele><time>2026-03-29T13:27:14.917Z</time></trkpt><trkpt lat="42.69924618990233" lon="11.301504373478716"><ele>427.5</ele><time>2026-03-29T13:27:15.917Z</time></trkpt><trkpt lat="42.69936819321926" lon="11.301544080270727"><ele>431.0</ele><time>2026-03-29T13:27:16.917Z</time></trkpt><trkpt lat="42.6994868965363" lon="11.301575710903352"><ele>431.0</ele><time>2026-03-29T13:27:17.917Z</time></trkpt><trkpt lat="42.699610504206014" lon="11.301602153732906"><ele>431.0</ele><time>2026-03-29T13:27:18.917Z</time></trkpt><trkpt lat="42.69972699440303" lon="11.301608739269543"><ele>431.0</ele><time>2026-03-29T13:27:19.917Z</time></trkpt><trkpt lat="42.69982853794256" lon="11.301629175231351"><ele>431.0</ele><time>2026-03-29T13:27:20.917Z</time></trkpt><trkpt lat="42.69992082537171" lon="11.301625144586248"><ele>431.0</ele><time>2026-03-29T13:27:21.917Z</time></trkpt><trkpt lat="42.700002040949244" lon="11.30160476198988"><ele>431.0</ele><time>2026-03-29T13:27:22.917Z</time></trkpt><trkpt lat="42.70006064910458" lon="11.301539083108937"><ele>431.0</ele><time>2026-03-29T13:27:23.917Z</time></trkpt><trkpt lat="42.700071415158995" lon="11.301388144361145"><ele>431.0</ele><time>2026-03-29T13:27:25.917Z</time></trkpt><trkpt lat="42.70002708103423" lon="11.301294954949919"><ele>431.0</ele><time>2026-03-29T13:27:26.917Z</time></trkpt><trkpt lat="42.699971792744265" lon="11.30120171880762"><ele>431.0</ele><time>2026-03-29T13:27:27.917Z</time></trkpt><trkpt lat="42.69990823009734" lon="11.30108084320581"><ele>429.5</ele><time>2026-03-29T13:27:28.917Z</time></trkpt><trkpt lat="42.69984926033835" lon="11.300920506326648"><ele>428.0</ele><time>2026-03-29T13:27:29.917Z</time></trkpt><trkpt lat="42.699809634089526" lon="11.300735603124677"><ele>426.5</ele><time>2026-03-29T13:27:30.917Z</time></trkpt><trkpt lat="42.69978197285238" lon="11.300537965367305"><ele>425.0</ele><time>2026-03-29T13:27:31.917Z</time></trkpt><trkpt lat="42.699753323252196" lon="11.30033632731763"><ele>423.75</ele><time>2026-03-29T13:27:32.917Z</time></trkpt><trkpt lat="42.699712959118045" lon="11.300135639854098"><ele>422.5</ele><time>2026-03-29T13:27:33.917Z</time></trkpt><trkpt lat="42.69967472999383" lon="11.299944439062395"><ele>421.25</ele><time>2026-03-29T13:27:34.917Z</time></trkpt><trkpt lat="42.69964252982625" lon="11.299779665473428"><ele>420.0</ele><time>2026-03-29T13:27:35.917Z</time></trkpt><trkpt lat="42.69961665261445" lon="11.299629287474241"><ele>417.6</ele><time>2026-03-29T13:27:36.917Z</time></trkpt><trkpt lat="42.69960590511997" lon="11.299496854263179"><ele>415.2</ele><time>2026-03-29T13:27:37.917Z</time></trkpt><trkpt lat="42.699627094317876" lon="11.29937648574309"><ele>412.79999999999995</ele><time>2026-03-29T13:27:38.917Z</time></trkpt><trkpt lat="42.69969214687453" lon="11.299288171002233"><ele>410.4</ele><time>2026-03-29T13:27:39.917Z</time></trkpt><trkpt lat="42.699780895858126" lon="11.299234008736308"><ele>408.0</ele><time>2026-03-29T13:27:40.917Z</time></trkpt><trkpt lat="42.69987859056302" lon="11.299164700339826"><ele>408.0</ele><time>2026-03-29T13:27:41.917Z</time></trkpt><trkpt lat="42.6999746840061" lon="11.299077236664957"><ele>408.0</ele><time>2026-03-29T13:27:42.917Z</time></trkpt><trkpt lat="42.70008002874014" lon="11.298972817197352"><ele>408.0</ele><time>2026-03-29T13:27:43.917Z</time></trkpt><trkpt lat="42.70016519870298" lon="11.298809071424094"><ele>408.0</ele><time>2026-03-29T13:27:44.917Z</time></trkpt><trkpt lat="42.70023873130001" lon="11.298623049917028"><ele>405.33333333333337</ele><time>2026-03-29T13:27:45.917Z</time></trkpt><trkpt lat="42.70031880026319" lon="11.29842209824237"><ele>402.6666666666667</ele><time>2026-03-29T13:27:46.917Z</time></trkpt><trkpt lat="42.700398524055174" lon="11.298228003923784"><ele>400.0</ele><time>2026-03-29T13:27:47.917Z</time></trkpt><trkpt lat="42.70048532547363" lon="11.298054753708662"><ele>400.0</ele><time>2026-03-29T13:27:48.916Z</time></trkpt><trkpt lat="42.70058409047029" lon="11.29790940914815"><ele>400.0</ele><time>2026-03-29T13:27:49.916Z</time></trkpt><trkpt lat="42.700678708691534" lon="11.297781498199354"><ele>400.0</ele><time>2026-03-29T13:27:50.916Z</time></trkpt><trkpt lat="42.70075806004306" lon="11.297648571736506"><ele>400.0</ele><time>2026-03-29T13:27:51.916Z</time></trkpt><trkpt lat="42.7008235862863" lon="11.297500053545567"><ele>400.0</ele><time>2026-03-29T13:27:52.916Z</time></trkpt><trkpt lat="42.70087785475475" lon="11.29732887767099"><ele>400.0</ele><time>2026-03-29T13:27:53.916Z</time></trkpt><trkpt lat="42.700937658084904" lon="11.297159539494274"><ele>400.0</ele><time>2026-03-29T13:27:54.916Z</time></trkpt><trkpt lat="42.701001378523905" lon="11.29698792645463"><ele>400.0</ele><time>2026-03-29T13:27:55.916Z</time></trkpt><trkpt lat="42.701062230557845" lon="11.296834272265595"><ele>398.5</ele><time>2026-03-29T13:27:56.916Z</time></trkpt><trkpt lat="42.70112672881359" lon="11.296674467110755"><ele>397.0</ele><time>2026-03-29T13:27:57.916Z</time></trkpt><trkpt lat="42.70119051990918" lon="11.296498084422947"><ele>395.5</ele><time>2026-03-29T13:27:58.916Z</time></trkpt><trkpt lat="42.70126860477138" lon="11.296318717918995"><ele>394.0</ele><time>2026-03-29T13:27:59.916Z</time></trkpt><trkpt lat="42.701344072039035" lon="11.296136374581172"><ele>393.0</ele><time>2026-03-29T13:28:00.916Z</time></trkpt><trkpt lat="42.70142845050306" lon="11.295943026707148"><ele>392.0</ele><time>2026-03-29T13:28:01.916Z</time></trkpt><trkpt lat="42.70151049805312" lon="11.295741215434987"><ele>391.0</ele><time>2026-03-29T13:28:02.916Z</time></trkpt><trkpt lat="42.701583696819945" lon="11.295535610027802"><ele>391.0</ele><time>2026-03-29T13:28:03.916Z</time></trkpt><trkpt lat="42.70164819131869" lon="11.295322849279774"><ele>391.0</ele><time>2026-03-29T13:28:04.916Z</time></trkpt><trkpt lat="42.7016983073872" lon="11.295107641566503"><ele>391.0</ele><time>2026-03-29T13:28:05.915Z</time></trkpt><trkpt lat="42.70173760233845" lon="11.294885862695919"><ele>391.0</ele><time>2026-03-29T13:28:06.915Z</time></trkpt><trkpt lat="42.70175954129136" lon="11.294666966059335"><ele>391.0</ele><time>2026-03-29T13:28:07.915Z</time></trkpt><trkpt lat="42.70176902942955" lon="11.294449570864003"><ele>391.0</ele><time>2026-03-29T13:28:08.915Z</time></trkpt><trkpt lat="42.70176261204725" lon="11.294239756776511"><ele>391.0</ele><time>2026-03-29T13:28:09.915Z</time></trkpt><trkpt lat="42.70173830353953" lon="11.294029996453158"><ele>391.0</ele><time>2026-03-29T13:28:10.915Z</time></trkpt><trkpt lat="42.70169457117384" lon="11.2938272639432"><ele>391.0</ele><time>2026-03-29T13:28:11.915Z</time></trkpt><trkpt lat="42.70163713608846" lon="11.293625337121398"><ele>390.0</ele><time>2026-03-29T13:28:12.915Z</time></trkpt><trkpt lat="42.701585102805694" lon="11.293418237919793"><ele>389.0</ele><time>2026-03-29T13:28:13.915Z</time></trkpt><trkpt lat="42.701535300453166" lon="11.29321665908858"><ele>388.0</ele><time>2026-03-29T13:28:14.915Z</time></trkpt><trkpt lat="42.70148563251579" lon="11.293026126318571"><ele>386.6666666666667</ele><time>2026-03-29T13:28:15.915Z</time></trkpt><trkpt lat="42.7014300849503" lon="11.292840703598861"><ele>385.33333333333337</ele><time>2026-03-29T13:28:16.915Z</time></trkpt><trkpt lat="42.7013609350146" lon="11.292658258353406"><ele>384.0</ele><time>2026-03-29T13:28:17.915Z</time></trkpt><trkpt lat="42.70128566973138" lon="11.292473444820862"><ele>384.0</ele><time>2026-03-29T13:28:18.915Z</time></trkpt><trkpt lat="42.70120789433301" lon="11.29228704000788"><ele>384.0</ele><time>2026-03-29T13:28:19.915Z</time></trkpt><trkpt lat="42.701132861189535" lon="11.292100834266847"><ele>384.0</ele><time>2026-03-29T13:28:20.915Z</time></trkpt><trkpt lat="42.70105915294128" lon="11.291917555347885"><ele>386.0</ele><time>2026-03-29T13:28:21.915Z</time></trkpt><trkpt lat="42.70098198255923" lon="11.29174242556766"><ele>388.0</ele><time>2026-03-29T13:28:22.915Z</time></trkpt><trkpt lat="42.700910118913" lon="11.291579162963519"><ele>390.0</ele><time>2026-03-29T13:28:23.915Z</time></trkpt><trkpt lat="42.700834057058174" lon="11.291427288869444"><ele>392.0</ele><time>2026-03-29T13:28:24.915Z</time></trkpt><trkpt lat="42.700757335847" lon="11.291295704741307"><ele>393.75</ele><time>2026-03-29T13:28:25.915Z</time></trkpt><trkpt lat="42.7006871345249" lon="11.291166855177998"><ele>395.5</ele><time>2026-03-29T13:28:26.915Z</time></trkpt><trkpt lat="42.70061717902492" lon="11.291039776775003"><ele>397.25</ele><time>2026-03-29T13:28:27.915Z</time></trkpt><trkpt lat="42.70054495543566" lon="11.290925165729155"><ele>399.0</ele><time>2026-03-29T13:28:28.915Z</time></trkpt><trkpt lat="42.70047151793358" lon="11.290818805167616"><ele>399.0</ele><time>2026-03-29T13:28:29.915Z</time></trkpt><trkpt lat="42.70039760361972" lon="11.29071048047596"><ele>399.0</ele><time>2026-03-29T13:28:30.915Z</time></trkpt><trkpt lat="42.70031964596638" lon="11.290590034846497"><ele>399.0</ele><time>2026-03-29T13:28:31.915Z</time></trkpt><trkpt lat="42.70022897998054" lon="11.290471814195708"><ele>399.0</ele><time>2026-03-29T13:28:32.915Z</time></trkpt><trkpt lat="42.70011698739324" lon="11.290358020303348"><ele>397.66666666666663</ele><time>2026-03-29T13:28:33.915Z</time></trkpt><trkpt lat="42.69998938799538" lon="11.290254940650799"><ele>396.3333333333333</ele><time>2026-03-29T13:28:34.915Z</time></trkpt><trkpt lat="42.699846275702875" lon="11.290166402036302"><ele>395.0</ele><time>2026-03-29T13:28:35.915Z</time></trkpt><trkpt lat="42.699694832940224" lon="11.290108536002542"><ele>395.0</ele><time>2026-03-29T13:28:36.915Z</time></trkpt><trkpt lat="42.6995366241722" lon="11.290067353425252"><ele>395.0</ele><time>2026-03-29T13:28:37.914Z</time></trkpt><trkpt lat="42.699377862885406" lon="11.290041187068185"><ele>395.0</ele><time>2026-03-29T13:28:38.914Z</time></trkpt><trkpt lat="42.69922338085047" lon="11.290017613485743"><ele>393.3333333333333</ele><time>2026-03-29T13:28:39.914Z</time></trkpt><trkpt lat="42.69906789628002" lon="11.289996564131103"><ele>391.66666666666663</ele><time>2026-03-29T13:28:40.914Z</time></trkpt><trkpt lat="42.69891685538274" lon="11.289973189800538"><ele>390.0</ele><time>2026-03-29T13:28:41.914Z</time></trkpt><trkpt lat="42.69876646073077" lon="11.28995445614948"><ele>390.0</ele><time>2026-03-29T13:28:42.914Z</time></trkpt><trkpt lat="42.698616516459765" lon="11.289931202576955"><ele>390.0</ele><time>2026-03-29T13:28:43.914Z</time></trkpt><trkpt lat="42.69847218685949" lon="11.289899639274365"><ele>390.0</ele><time>2026-03-29T13:28:44.914Z</time></trkpt><trkpt lat="42.698329386616386" lon="11.28986723236495"><ele>390.0</ele><time>2026-03-29T13:28:45.914Z</time></trkpt><trkpt lat="42.69819023893826" lon="11.289834963802214"><ele>390.25</ele><time>2026-03-29T13:28:46.914Z</time></trkpt><trkpt lat="42.698061735324245" lon="11.28979233861961"><ele>390.5</ele><time>2026-03-29T13:28:47.914Z</time></trkpt><trkpt lat="42.69795113816899" lon="11.289734046062375"><ele>390.75</ele><time>2026-03-29T13:28:48.914Z</time></trkpt><trkpt lat="42.69785626964392" lon="11.289642115648892"><ele>391.0</ele><time>2026-03-29T13:28:49.914Z</time></trkpt><trkpt lat="42.69777686758604" lon="11.289510521503116"><ele>388.0</ele><time>2026-03-29T13:28:50.914Z</time></trkpt><trkpt lat="42.69770508908949" lon="11.289356648527978"><ele>385.0</ele><time>2026-03-29T13:28:51.914Z</time></trkpt><trkpt lat="42.697628365460766" lon="11.289204132403698"><ele>382.0</ele><time>2026-03-29T13:28:52.914Z</time></trkpt><trkpt lat="42.6975437106002" lon="11.28906744344657"><ele>379.0</ele><time>2026-03-29T13:28:53.914Z</time></trkpt><trkpt lat="42.69745177445176" lon="11.288952054761122"><ele>378.25</ele><time>2026-03-29T13:28:54.914Z</time></trkpt><trkpt lat="42.697341354050515" lon="11.288859170394735"><ele>377.5</ele><time>2026-03-29T13:28:55.914Z</time></trkpt><trkpt lat="42.69721485369815" lon="11.28879102463361"><ele>376.75</ele><time>2026-03-29T13:28:56.914Z</time></trkpt><trkpt lat="42.69707703815615" lon="11.288738832812953"><ele>376.0</ele><time>2026-03-29T13:28:57.914Z</time></trkpt><trkpt lat="42.69692995288797" lon="11.288687257746902"><ele>373.3333333333333</ele><time>2026-03-29T13:28:58.914Z</time></trkpt><trkpt lat="42.69678131638649" lon="11.288615413304534"><ele>370.6666666666667</ele><time>2026-03-29T13:28:59.914Z</time></trkpt><trkpt lat="42.696625334298105" lon="11.28854483897784"><ele>368.0</ele><time>2026-03-29T13:29:00.914Z</time></trkpt><trkpt lat="42.69646169647811" lon="11.28849567208422"><ele>368.0</ele><time>2026-03-29T13:29:01.914Z</time></trkpt><trkpt lat="42.69629342130409" lon="11.288426809267502"><ele>368.0</ele><time>2026-03-29T13:29:02.914Z</time></trkpt><trkpt lat="42.69611718339514" lon="11.288362218295982"><ele>368.0</ele><time>2026-03-29T13:29:03.914Z</time></trkpt><trkpt lat="42.69594009019795" lon="11.28830738528318"><ele>368.0</ele><time>2026-03-29T13:29:04.914Z</time></trkpt><trkpt lat="42.69576670744172" lon="11.288251798100138"><ele>368.0</ele><time>2026-03-29T13:29:05.914Z</time></trkpt><trkpt lat="42.69559596345973" lon="11.288196262593864"><ele>368.0</ele><time>2026-03-29T13:29:06.914Z</time></trkpt><trkpt lat="42.695430091957256" lon="11.288139306161211"><ele>364.6666666666667</ele><time>2026-03-29T13:29:07.914Z</time></trkpt><trkpt lat="42.695267144990716" lon="11.288086265273455"><ele>361.3333333333333</ele><time>2026-03-29T13:29:08.914Z</time></trkpt><trkpt lat="42.695104571952825" lon="11.288036777628356"><ele>358.0</ele><time>2026-03-29T13:29:09.913Z</time></trkpt><trkpt lat="42.694946441643765" lon="11.287985783504075"><ele>358.0</ele><time>2026-03-29T13:29:10.913Z</time></trkpt><trkpt lat="42.694804108733216" lon="11.287932894253654"><ele>358.0</ele><time>2026-03-29T13:29:11.913Z</time></trkpt><trkpt lat="42.69467537554892" lon="11.287867464627631"><ele>358.0</ele><time>2026-03-29T13:29:12.913Z</time></trkpt><trkpt lat="42.6945560128988" lon="11.287773790019838"><ele>358.0</ele><time>2026-03-29T13:29:13.913Z</time></trkpt><trkpt lat="42.69444487547424" lon="11.287649978160363"><ele>358.0</ele><time>2026-03-29T13:29:14.913Z</time></trkpt><trkpt lat="42.69434780352415" lon="11.287511178152597"><ele>358.0</ele><time>2026-03-29T13:29:15.913Z</time></trkpt><trkpt lat="42.694267701455814" lon="11.287357735813957"><ele>358.0</ele><time>2026-03-29T13:29:16.913Z</time></trkpt><trkpt lat="42.69419454584494" lon="11.28718492336932"><ele>358.0</ele><time>2026-03-29T13:29:17.913Z</time></trkpt><trkpt lat="42.69412381955573" lon="11.287013758579846"><ele>356.0</ele><time>2026-03-29T13:29:18.913Z</time></trkpt><trkpt lat="42.694060034130715" lon="11.286868424506046"><ele>354.0</ele><time>2026-03-29T13:29:19.913Z</time></trkpt><trkpt lat="42.693995833892934" lon="11.286771089521581"><ele>352.0</ele><time>2026-03-29T13:29:20.913Z</time></trkpt><trkpt lat="42.69391373332684" lon="11.286716524310188"><ele>350.0</ele><time>2026-03-29T13:29:21.913Z</time></trkpt><trkpt lat="42.69381903244406" lon="11.286698973533271"><ele>348.0</ele><time>2026-03-29T13:29:22.913Z</time></trkpt><trkpt lat="42.69371958126003" lon="11.286735980354957"><ele>348.0</ele><time>2026-03-29T13:29:23.913Z</time></trkpt><trkpt lat="42.6936211373004" lon="11.286796061099528"><ele>348.0</ele><time>2026-03-29T13:29:24.913Z</time></trkpt><trkpt lat="42.693512331203465" lon="11.286849217890053"><ele>348.0</ele><time>2026-03-29T13:29:25.913Z</time></trkpt><trkpt lat="42.69338097105652" lon="11.286880433570836"><ele>348.0</ele><time>2026-03-29T13:29:26.913Z</time></trkpt><trkpt lat="42.69323824406661" lon="11.286891979930468"><ele>348.3333333333333</ele><time>2026-03-29T13:29:27.913Z</time></trkpt><trkpt lat="42.693085744519415" lon="11.286900651594053"><ele>348.66666666666663</ele><time>2026-03-29T13:29:28.913Z</time></trkpt><trkpt lat="42.6929234772808" lon="11.286914332912325"><ele>349.0</ele><time>2026-03-29T13:29:29.913Z</time></trkpt><trkpt lat="42.692757461062726" lon="11.286938685218074"><ele>346.66666666666663</ele><time>2026-03-29T13:29:30.913Z</time></trkpt><trkpt lat="42.692591923709834" lon="11.28697847743835"><ele>344.3333333333333</ele><time>2026-03-29T13:29:31.913Z</time></trkpt><trkpt lat="42.69243072080792" lon="11.287016629931523"><ele>342.0</ele><time>2026-03-29T13:29:32.913Z</time></trkpt><trkpt lat="42.69228303159943" lon="11.28705184611614"><ele>342.0</ele><time>2026-03-29T13:29:33.913Z</time></trkpt><trkpt lat="42.692146291481016" lon="11.287099469674935"><ele>342.0</ele><time>2026-03-29T13:29:34.913Z</time></trkpt><trkpt lat="42.69201600817347" lon="11.287165275243165"><ele>342.0</ele><time>2026-03-29T13:29:35.913Z</time></trkpt><trkpt lat="42.691896555101174" lon="11.287246504662642"><ele>342.0</ele><time>2026-03-29T13:29:36.913Z</time></trkpt><trkpt lat="42.691778863763226" lon="11.28733319556347"><ele>342.0</ele><time>2026-03-29T13:29:37.913Z</time></trkpt><trkpt lat="42.69166382267286" lon="11.287389932411267"><ele>342.0</ele><time>2026-03-29T13:29:38.913Z</time></trkpt><trkpt lat="42.691549109303324" lon="11.28741570604225"><ele>342.0</ele><time>2026-03-29T13:29:39.913Z</time></trkpt><trkpt lat="42.69143835926391" lon="11.287385790609974"><ele>342.0</ele><time>2026-03-29T13:29:40.913Z</time></trkpt><trkpt lat="42.69133792260706" lon="11.287307770996462"><ele>339.75</ele><time>2026-03-29T13:29:41.913Z</time></trkpt><trkpt lat="42.691236893275686" lon="11.287208217175467"><ele>337.5</ele><time>2026-03-29T13:29:42.912Z</time></trkpt><trkpt lat="42.691130173249576" lon="11.28712195668127"><ele>335.25</ele><time>2026-03-29T13:29:43.912Z</time></trkpt><trkpt lat="42.69101424423134" lon="11.28702485077682"><ele>333.0</ele><time>2026-03-29T13:29:44.913Z</time></trkpt><trkpt lat="42.69089466215643" lon="11.28694479432861"><ele>332.5</ele><time>2026-03-29T13:29:45.913Z</time></trkpt><trkpt lat="42.69076950421359" lon="11.28688445897476"><ele>332.0</ele><time>2026-03-29T13:29:46.913Z</time></trkpt><trkpt lat="42.69063189683893" lon="11.286837192218993"><ele>331.5</ele><time>2026-03-29T13:29:47.914Z</time></trkpt><trkpt lat="42.69048517312847" lon="11.28680942571534"><ele>331.0</ele><time>2026-03-29T13:29:48.913Z</time></trkpt><trkpt lat="42.69032673190403" lon="11.286789727698112"><ele>331.0</ele><time>2026-03-29T13:29:49.913Z</time></trkpt><trkpt lat="42.69016192775281" lon="11.286773652695706"><ele>331.0</ele><time>2026-03-29T13:29:50.914Z</time></trkpt><trkpt lat="42.68999372476185" lon="11.286755553706527"><ele>331.0</ele><time>2026-03-29T13:29:51.913Z</time></trkpt><trkpt lat="42.689820395617254" lon="11.286736996779117"><ele>331.0</ele><time>2026-03-29T13:29:52.913Z</time></trkpt><trkpt lat="42.68964314683531" lon="11.286720998686071"><ele>331.0</ele><time>2026-03-29T13:29:53.913Z</time></trkpt><trkpt lat="42.68945876088028" lon="11.28667972878223"><ele>331.0</ele><time>2026-03-29T13:29:54.913Z</time></trkpt><trkpt lat="42.68927214346035" lon="11.286657890148678"><ele>330.66666666666663</ele><time>2026-03-29T13:29:55.913Z</time></trkpt><trkpt lat="42.68909234034756" lon="11.286635621179386"><ele>330.3333333333333</ele><time>2026-03-29T13:29:56.913Z</time></trkpt><trkpt lat="42.68891934102436" lon="11.286612371686886"><ele>330.0</ele><time>2026-03-29T13:29:57.914Z</time></trkpt><trkpt lat="42.68874935509961" lon="11.286580325074844"><ele>328.3333333333333</ele><time>2026-03-29T13:29:58.913Z</time></trkpt><trkpt lat="42.68857690145049" lon="11.286537630587796"><ele>326.66666666666663</ele><time>2026-03-29T13:29:59.913Z</time></trkpt><trkpt lat="42.68839470397685" lon="11.28648454839614"><ele>325.0</ele><time>2026-03-29T13:30:00.913Z</time></trkpt><trkpt lat="42.688215295294555" lon="11.28642816849032"><ele>323.0</ele><time>2026-03-29T13:30:01.913Z</time></trkpt><trkpt lat="42.68803164205102" lon="11.286367464566672"><ele>321.0</ele><time>2026-03-29T13:30:02.913Z</time></trkpt><trkpt lat="42.6878511629737" lon="11.28630571860904"><ele>319.0</ele><time>2026-03-29T13:30:03.913Z</time></trkpt><trkpt lat="42.687673326338825" lon="11.286242511318779"><ele>319.0</ele><time>2026-03-29T13:30:04.913Z</time></trkpt><trkpt lat="42.687497047801386" lon="11.286179376982533"><ele>319.0</ele><time>2026-03-29T13:30:05.913Z</time></trkpt><trkpt lat="42.68732772933624" lon="11.286115207741462"><ele>319.0</ele><time>2026-03-29T13:30:06.913Z</time></trkpt><trkpt lat="42.687163603770166" lon="11.286052625059973"><ele>319.0</ele><time>2026-03-29T13:30:07.913Z</time></trkpt><trkpt lat="42.68700392025729" lon="11.285989647584978"><ele>319.0</ele><time>2026-03-29T13:30:08.913Z</time></trkpt><trkpt lat="42.686842433631085" lon="11.285943251216313"><ele>319.0</ele><time>2026-03-29T13:30:09.913Z</time></trkpt><trkpt lat="42.686694842624505" lon="11.285891669356488"><ele>318.25</ele><time>2026-03-29T13:30:10.913Z</time></trkpt><trkpt lat="42.686554409549295" lon="11.285864837796124"><ele>317.5</ele><time>2026-03-29T13:30:11.913Z</time></trkpt><trkpt lat="42.68641628592723" lon="11.285864380602096"><ele>316.75</ele><time>2026-03-29T13:30:12.913Z</time></trkpt><trkpt lat="42.68628035962229" lon="11.28587751281011"><ele>316.0</ele><time>2026-03-29T13:30:13.913Z</time></trkpt><trkpt lat="42.68614828063964" lon="11.285886888874662"><ele>315.0</ele><time>2026-03-29T13:30:14.913Z</time></trkpt><trkpt lat="42.68602035932506" lon="11.285885460435669"><ele>314.0</ele><time>2026-03-29T13:30:15.913Z</time></trkpt><trkpt lat="42.68589117809214" lon="11.285879512646451"><ele>313.0</ele><time>2026-03-29T13:30:16.913Z</time></trkpt><trkpt lat="42.68576693968742" lon="11.285860578735207"><ele>312.0</ele><time>2026-03-29T13:30:17.913Z</time></trkpt><trkpt lat="42.68563370474683" lon="11.285827051775124"><ele>312.0</ele><time>2026-03-29T13:30:18.913Z</time></trkpt><trkpt lat="42.68550235235664" lon="11.285773910427407"><ele>312.0</ele><time>2026-03-29T13:30:19.913Z</time></trkpt><trkpt lat="42.685373581485486" lon="11.28570351150426"><ele>312.0</ele><time>2026-03-29T13:30:20.913Z</time></trkpt><trkpt lat="42.68525072379266" lon="11.285600940217515"><ele>312.0</ele><time>2026-03-29T13:30:21.913Z</time></trkpt><trkpt lat="42.685148318115644" lon="11.285464012772893"><ele>312.25</ele><time>2026-03-29T13:30:22.913Z</time></trkpt><trkpt lat="42.685066006133226" lon="11.285304531809343"><ele>312.5</ele><time>2026-03-29T13:30:23.913Z</time></trkpt><trkpt lat="42.68499843759871" lon="11.285130952830817"><ele>312.75</ele><time>2026-03-29T13:30:24.913Z</time></trkpt><trkpt lat="42.68492711261395" lon="11.284965779561729"><ele>313.0</ele><time>2026-03-29T13:30:25.913Z</time></trkpt><trkpt lat="42.68485072336967" lon="11.284815589700335"><ele>312.25</ele><time>2026-03-29T13:30:26.913Z</time></trkpt><trkpt lat="42.684754966404" lon="11.284690354622882"><ele>311.5</ele><time>2026-03-29T13:30:27.913Z</time></trkpt><trkpt lat="42.68463767012998" lon="11.284580723044174"><ele>310.75</ele><time>2026-03-29T13:30:28.913Z</time></trkpt><trkpt lat="42.684513511169115" lon="11.284488529112622"><ele>310.0</ele><time>2026-03-29T13:30:29.913Z</time></trkpt><trkpt lat="42.684392836266" lon="11.284431884535877"><ele>310.0</ele><time>2026-03-29T13:30:30.913Z</time></trkpt><trkpt lat="42.684267497905005" lon="11.284407390317256"><ele>310.0</ele><time>2026-03-29T13:30:31.912Z</time></trkpt><trkpt lat="42.68413334233751" lon="11.28441821230879"><ele>310.0</ele><time>2026-03-29T13:30:32.912Z</time></trkpt><trkpt lat="42.68399791736609" lon="11.284450709443279"><ele>310.0</ele><time>2026-03-29T13:30:33.912Z</time></trkpt><trkpt lat="42.68386085640282" lon="11.284494997410194"><ele>310.0</ele><time>2026-03-29T13:30:34.912Z</time></trkpt><trkpt lat="42.68373502033879" lon="11.284565775013068"><ele>310.0</ele><time>2026-03-29T13:30:35.912Z</time></trkpt><trkpt lat="42.683619922129324" lon="11.284674216128497"><ele>310.0</ele><time>2026-03-29T13:30:36.912Z</time></trkpt><trkpt lat="42.68350218395446" lon="11.284786973423238"><ele>310.0</ele><time>2026-03-29T13:30:37.912Z</time></trkpt><trkpt lat="42.683375104111484" lon="11.284879541713181"><ele>312.0</ele><time>2026-03-29T13:30:38.912Z</time></trkpt><trkpt lat="42.68323455889863" lon="11.284937327951903"><ele>314.0</ele><time>2026-03-29T13:30:39.912Z</time></trkpt><trkpt lat="42.68308823720021" lon="11.284955881825635"><ele>316.0</ele><time>2026-03-29T13:30:40.912Z</time></trkpt><trkpt lat="42.682943054617816" lon="11.284953959291705"><ele>318.0</ele><time>2026-03-29T13:30:41.912Z</time></trkpt><trkpt lat="42.68278930772481" lon="11.284921210877812"><ele>317.0</ele><time>2026-03-29T13:30:42.912Z</time></trkpt><trkpt lat="42.68263539407222" lon="11.284853650080056"><ele>316.0</ele><time>2026-03-29T13:30:43.912Z</time></trkpt><trkpt lat="42.68249016586509" lon="11.284766011181489"><ele>315.0</ele><time>2026-03-29T13:30:44.912Z</time></trkpt><trkpt lat="42.68236153263121" lon="11.28469393879229"><ele>315.0</ele><time>2026-03-29T13:30:45.912Z</time></trkpt><trkpt lat="42.68223519764999" lon="11.28461066207027"><ele>315.0</ele><time>2026-03-29T13:30:46.912Z</time></trkpt><trkpt lat="42.68211306186808" lon="11.284530574625679"><ele>315.0</ele><time>2026-03-29T13:30:47.912Z</time></trkpt><trkpt lat="42.681989555579584" lon="11.284452101789714"><ele>315.0</ele><time>2026-03-29T13:30:48.912Z</time></trkpt><trkpt lat="42.68186705533242" lon="11.284367044250141"><ele>316.0</ele><time>2026-03-29T13:30:49.912Z</time></trkpt><trkpt lat="42.681745830209394" lon="11.284290452351096"><ele>317.0</ele><time>2026-03-29T13:30:50.912Z</time></trkpt><trkpt lat="42.6816222912632" lon="11.284240270791255"><ele>318.0</ele><time>2026-03-29T13:30:51.912Z</time></trkpt><trkpt lat="42.68149526810843" lon="11.284219983626905"><ele>319.0</ele><time>2026-03-29T13:30:52.912Z</time></trkpt><trkpt lat="42.68136137548169" lon="11.284226130275297"><ele>319.0</ele><time>2026-03-29T13:30:53.912Z</time></trkpt><trkpt lat="42.68122735200416" lon="11.284249325179067"><ele>319.0</ele><time>2026-03-29T13:30:54.912Z</time></trkpt><trkpt lat="42.68109572010885" lon="11.284259192283605"><ele>319.0</ele><time>2026-03-29T13:30:55.912Z</time></trkpt><trkpt lat="42.68096154647905" lon="11.284231041711672"><ele>319.0</ele><time>2026-03-29T13:30:56.912Z</time></trkpt><trkpt lat="42.680830716768284" lon="11.2841553024134"><ele>317.75</ele><time>2026-03-29T13:30:57.912Z</time></trkpt><trkpt lat="42.68070270171727" lon="11.284047401596533"><ele>316.5</ele><time>2026-03-29T13:30:58.912Z</time></trkpt><trkpt lat="42.680579670252705" lon="11.283926851031932"><ele>315.25</ele><time>2026-03-29T13:30:59.912Z</time></trkpt><trkpt lat="42.68046800316547" lon="11.283806277474671"><ele>314.0</ele><time>2026-03-29T13:31:00.912Z</time></trkpt><trkpt lat="42.68035723805957" lon="11.283694298367907"><ele>311.5</ele><time>2026-03-29T13:31:01.912Z</time></trkpt><trkpt lat="42.68024666093415" lon="11.283605625185288"><ele>309.0</ele><time>2026-03-29T13:31:02.912Z</time></trkpt><trkpt lat="42.68013785966128" lon="11.283543363013349"><ele>306.5</ele><time>2026-03-29T13:31:03.911Z</time></trkpt><trkpt lat="42.68002029904151" lon="11.283532190708716"><ele>304.0</ele><time>2026-03-29T13:31:04.911Z</time></trkpt><trkpt lat="42.6799044249522" lon="11.283568259869377"><ele>304.0</ele><time>2026-03-29T13:31:05.911Z</time></trkpt><trkpt lat="42.679799057478064" lon="11.283643104875303"><ele>304.0</ele><time>2026-03-29T13:31:06.911Z</time></trkpt><trkpt lat="42.67969603396853" lon="11.283740421452508"><ele>304.0</ele><time>2026-03-29T13:31:07.911Z</time></trkpt><trkpt lat="42.67957594436697" lon="11.283844081828997"><ele>304.0</ele><time>2026-03-29T13:31:08.911Z</time></trkpt><trkpt lat="42.67945158601687" lon="11.283924268141753"><ele>303.0</ele><time>2026-03-29T13:31:09.911Z</time></trkpt><trkpt lat="42.67931776299432" lon="11.28397373479128"><ele>302.0</ele><time>2026-03-29T13:31:10.911Z</time></trkpt><trkpt lat="42.67917207509503" lon="11.28397644701407"><ele>301.0</ele><time>2026-03-29T13:31:11.911Z</time></trkpt><trkpt lat="42.6790219430584" lon="11.283949148309446"><ele>300.0</ele><time>2026-03-29T13:31:12.911Z</time></trkpt><trkpt lat="42.67886405891849" lon="11.283914719192255"><ele>298.3333333333333</ele><time>2026-03-29T13:31:13.911Z</time></trkpt><trkpt lat="42.67869919272961" lon="11.283872522733024"><ele>296.66666666666663</ele><time>2026-03-29T13:31:14.911Z</time></trkpt><trkpt lat="42.678530345730636" lon="11.283825427221828"><ele>295.0</ele><time>2026-03-29T13:31:15.911Z</time></trkpt><trkpt lat="42.67835928505865" lon="11.28378220998234"><ele>293.0</ele><time>2026-03-29T13:31:16.911Z</time></trkpt><trkpt lat="42.678193334415106" lon="11.283741770978855"><ele>291.0</ele><time>2026-03-29T13:31:17.911Z</time></trkpt><trkpt lat="42.67803340821737" lon="11.283697160505735"><ele>289.0</ele><time>2026-03-29T13:31:18.911Z</time></trkpt><trkpt lat="42.67787699397134" lon="11.283647386811344"><ele>288.66666666666663</ele><time>2026-03-29T13:31:19.911Z</time></trkpt><trkpt lat="42.677724389425315" lon="11.283590851787846"><ele>288.3333333333333</ele><time>2026-03-29T13:31:20.911Z</time></trkpt><trkpt lat="42.677570685835455" lon="11.28353750288691"><ele>288.0</ele><time>2026-03-29T13:31:21.911Z</time></trkpt><trkpt lat="42.677421872250356" lon="11.28349404116989"><ele>288.0</ele><time>2026-03-29T13:31:22.911Z</time></trkpt><trkpt lat="42.677275351935926" lon="11.283446734843281"><ele>288.0</ele><time>2026-03-29T13:31:23.911Z</time></trkpt><trkpt lat="42.67713685921024" lon="11.283403784975414"><ele>288.0</ele><time>2026-03-29T13:31:24.911Z</time></trkpt><trkpt lat="42.67700582608712" lon="11.283350313131178"><ele>288.0</ele><time>2026-03-29T13:31:25.911Z</time></trkpt><trkpt lat="42.67689457483958" lon="11.283275966514898"><ele>287.25</ele><time>2026-03-29T13:31:26.911Z</time></trkpt><trkpt lat="42.67679411906487" lon="11.283175253060895"><ele>286.5</ele><time>2026-03-29T13:31:27.911Z</time></trkpt><trkpt lat="42.67670668240634" lon="11.283047514665808"><ele>285.75</ele><time>2026-03-29T13:31:28.911Z</time></trkpt><trkpt lat="42.67664422068756" lon="11.282896544911324"><ele>285.0</ele><time>2026-03-29T13:31:29.911Z</time></trkpt><trkpt lat="42.67660694742303" lon="11.282728611495541"><ele>283.0</ele><time>2026-03-29T13:31:30.911Z</time></trkpt><trkpt lat="42.67658961389058" lon="11.282539334377756"><ele>281.0</ele><time>2026-03-29T13:31:31.911Z</time></trkpt><trkpt lat="42.676589214404515" lon="11.282334694689753"><ele>279.0</ele><time>2026-03-29T13:31:32.911Z</time></trkpt><trkpt lat="42.67659092966802" lon="11.282115371078229"><ele>278.0</ele><time>2026-03-29T13:31:33.911Z</time></trkpt><trkpt lat="42.67659633543791" lon="11.28189822880077"><ele>277.0</ele><time>2026-03-29T13:31:34.911Z</time></trkpt><trkpt lat="42.676596135702276" lon="11.281673640904797"><ele>276.0</ele><time>2026-03-29T13:31:35.911Z</time></trkpt><trkpt lat="42.67661183344485" lon="11.281445021514935"><ele>274.0</ele><time>2026-03-29T13:31:36.91Z</time></trkpt><trkpt lat="42.676616969411285" lon="11.281217737469618"><ele>272.0</ele><time>2026-03-29T13:31:37.91Z</time></trkpt><trkpt lat="42.6766071251811" lon="11.281002726425259"><ele>270.0</ele><time>2026-03-29T13:31:38.91Z</time></trkpt><trkpt lat="42.67661409974096" lon="11.28079028215231"><ele>268.6666666666667</ele><time>2026-03-29T13:31:39.91Z</time></trkpt><trkpt lat="42.6766203359777" lon="11.280569856280211"><ele>267.33333333333337</ele><time>2026-03-29T13:31:40.91Z</time></trkpt><trkpt lat="42.676627925018096" lon="11.280355572913562"><ele>266.0</ele><time>2026-03-29T13:31:41.91Z</time></trkpt><trkpt lat="42.67662881942089" lon="11.280147497676035"><ele>266.0</ele><time>2026-03-29T13:31:42.91Z</time></trkpt><trkpt lat="42.67661342746455" lon="11.279943000268728"><ele>266.0</ele><time>2026-03-29T13:31:43.91Z</time></trkpt><trkpt lat="42.67656443886488" lon="11.279752527382493"><ele>266.0</ele><time>2026-03-29T13:31:44.91Z</time></trkpt><trkpt lat="42.67647856425645" lon="11.279583986257146"><ele>265.25</ele><time>2026-03-29T13:31:45.91Z</time></trkpt><trkpt lat="42.67638109792218" lon="11.27943966522829"><ele>264.5</ele><time>2026-03-29T13:31:46.91Z</time></trkpt><trkpt lat="42.67626776826044" lon="11.279313504751977"><ele>263.75</ele><time>2026-03-29T13:31:47.91Z</time></trkpt><trkpt lat="42.67614822098638" lon="11.279191516844302"><ele>263.0</ele><time>2026-03-29T13:31:48.91Z</time></trkpt><trkpt lat="42.67602745499852" lon="11.2790709836158"><ele>261.0</ele><time>2026-03-29T13:31:49.91Z</time></trkpt><trkpt lat="42.67589628908963" lon="11.278934152056028"><ele>259.0</ele><time>2026-03-29T13:31:50.91Z</time></trkpt><trkpt lat="42.67575663075596" lon="11.278787492736033"><ele>257.0</ele><time>2026-03-29T13:31:51.911Z</time></trkpt><trkpt lat="42.675610011344084" lon="11.278639431162638"><ele>257.0</ele><time>2026-03-29T13:31:52.911Z</time></trkpt><trkpt lat="42.67546091937457" lon="11.278487609150504"><ele>257.0</ele><time>2026-03-29T13:31:53.911Z</time></trkpt><trkpt lat="42.675314000145974" lon="11.278333317362152"><ele>257.0</ele><time>2026-03-29T13:31:54.91Z</time></trkpt><trkpt lat="42.675169490691985" lon="11.278182118192417"><ele>255.0</ele><time>2026-03-29T13:31:55.91Z</time></trkpt><trkpt lat="42.67502988136407" lon="11.278036132003667"><ele>253.0</ele><time>2026-03-29T13:31:56.91Z</time></trkpt><trkpt lat="42.67489334639407" lon="11.277889923891134"><ele>251.0</ele><time>2026-03-29T13:31:57.91Z</time></trkpt><trkpt lat="42.67475390219439" lon="11.277746450424967"><ele>251.0</ele><time>2026-03-29T13:31:58.91Z</time></trkpt><trkpt lat="42.674601350193285" lon="11.277632284651597"><ele>251.0</ele><time>2026-03-29T13:31:59.91Z</time></trkpt><trkpt lat="42.67444073400828" lon="11.277554380259433"><ele>251.0</ele><time>2026-03-29T13:32:00.91Z</time></trkpt><trkpt lat="42.674275708016694" lon="11.277503669346682"><ele>250.66666666666669</ele><time>2026-03-29T13:32:01.91Z</time></trkpt><trkpt lat="42.67410072845948" lon="11.27748883657339"><ele>250.33333333333331</ele><time>2026-03-29T13:32:02.91Z</time></trkpt><trkpt lat="42.67392235268555" lon="11.277508445630994"><ele>250.0</ele><time>2026-03-29T13:32:03.91Z</time></trkpt><trkpt lat="42.67373845295466" lon="11.27754159194703"><ele>250.0</ele><time>2026-03-29T13:32:04.91Z</time></trkpt><trkpt lat="42.67355042366412" lon="11.277569789546021"><ele>250.0</ele><time>2026-03-29T13:32:05.91Z</time></trkpt><trkpt lat="42.673371704760484" lon="11.27760068642074"><ele>250.0</ele><time>2026-03-29T13:32:06.91Z</time></trkpt><trkpt lat="42.67319499158644" lon="11.277624305898307"><ele>250.0</ele><time>2026-03-29T13:32:07.91Z</time></trkpt><trkpt lat="42.673021090519185" lon="11.277632662057847"><ele>250.0</ele><time>2026-03-29T13:32:08.91Z</time></trkpt><trkpt lat="42.67285142209886" lon="11.27761492962401"><ele>250.0</ele><time>2026-03-29T13:32:09.91Z</time></trkpt><trkpt lat="42.6726875381177" lon="11.277564119780186"><ele>248.66666666666666</ele><time>2026-03-29T13:32:10.91Z</time></trkpt><trkpt lat="42.67252412633311" lon="11.277483354076235"><ele>247.33333333333331</ele><time>2026-03-29T13:32:11.91Z</time></trkpt><trkpt lat="42.672377933154976" lon="11.277372293881974"><ele>246.0</ele><time>2026-03-29T13:32:12.909Z</time></trkpt><trkpt lat="42.672236168869624" lon="11.27723853820106"><ele>246.0</ele><time>2026-03-29T13:32:13.909Z</time></trkpt><trkpt lat="42.672108825314936" lon="11.277078609390285"><ele>246.0</ele><time>2026-03-29T13:32:14.909Z</time></trkpt><trkpt lat="42.671990411948215" lon="11.27689875513768"><ele>246.0</ele><time>2026-03-29T13:32:15.909Z</time></trkpt><trkpt lat="42.67186823161176" lon="11.276711236267907"><ele>244.0</ele><time>2026-03-29T13:32:16.909Z</time></trkpt><trkpt lat="42.67174241945001" lon="11.276518150986313"><ele>242.0</ele><time>2026-03-29T13:32:17.909Z</time></trkpt><trkpt lat="42.67161971990868" lon="11.276319903791832"><ele>240.0</ele><time>2026-03-29T13:32:18.909Z</time></trkpt><trkpt lat="42.67149023557193" lon="11.276119175713982"><ele>240.0</ele><time>2026-03-29T13:32:19.909Z</time></trkpt><trkpt lat="42.671355231846455" lon="11.275915924158898"><ele>240.0</ele><time>2026-03-29T13:32:20.909Z</time></trkpt><trkpt lat="42.67121455873426" lon="11.275715616763918"><ele>240.0</ele><time>2026-03-29T13:32:21.909Z</time></trkpt><trkpt lat="42.67107517642659" lon="11.275511468991006"><ele>237.66666666666669</ele><time>2026-03-29T13:32:22.909Z</time></trkpt><trkpt lat="42.67094157931413" lon="11.275308582931244"><ele>235.33333333333334</ele><time>2026-03-29T13:32:23.909Z</time></trkpt><trkpt lat="42.6708159688637" lon="11.275114659468809"><ele>233.0</ele><time>2026-03-29T13:32:24.909Z</time></trkpt><trkpt lat="42.670695788957616" lon="11.274929836433548"><ele>233.0</ele><time>2026-03-29T13:32:25.909Z</time></trkpt><trkpt lat="42.67057858030643" lon="11.274750863942288"><ele>233.0</ele><time>2026-03-29T13:32:26.909Z</time></trkpt><trkpt lat="42.67046152272307" lon="11.274576718602239"><ele>233.0</ele><time>2026-03-29T13:32:27.909Z</time></trkpt><trkpt lat="42.67034416990778" lon="11.27440818108457"><ele>232.33333333333334</ele><time>2026-03-29T13:32:28.909Z</time></trkpt><trkpt lat="42.670210500596966" lon="11.274262425900716"><ele>231.66666666666669</ele><time>2026-03-29T13:32:29.909Z</time></trkpt><trkpt lat="42.670065329084295" lon="11.27414038549594"><ele>231.0</ele><time>2026-03-29T13:32:30.909Z</time></trkpt><trkpt lat="42.66991337316974" lon="11.2740538243648"><ele>231.0</ele><time>2026-03-29T13:32:31.909Z</time></trkpt><trkpt lat="42.66975150359506" lon="11.273992713357316"><ele>231.0</ele><time>2026-03-29T13:32:32.909Z</time></trkpt><trkpt lat="42.669582385767974" lon="11.273939283357938"><ele>231.0</ele><time>2026-03-29T13:32:33.909Z</time></trkpt><trkpt lat="42.6694078387019" lon="11.273882271801924"><ele>230.66666666666669</ele><time>2026-03-29T13:32:34.909Z</time></trkpt><trkpt lat="42.66923295334359" lon="11.273825121811614"><ele>230.33333333333334</ele><time>2026-03-29T13:32:35.909Z</time></trkpt><trkpt lat="42.66905414592766" lon="11.273766320226342"><ele>230.0</ele><time>2026-03-29T13:32:36.909Z</time></trkpt><trkpt lat="42.66887893557746" lon="11.273710783382661"><ele>230.0</ele><time>2026-03-29T13:32:37.909Z</time></trkpt><trkpt lat="42.668699354705446" lon="11.273655833857086"><ele>230.0</ele><time>2026-03-29T13:32:38.909Z</time></trkpt><trkpt lat="42.668525713721536" lon="11.273605127738564"><ele>230.0</ele><time>2026-03-29T13:32:39.909Z</time></trkpt><trkpt lat="42.6683567976754" lon="11.27355652355144"><ele>229.66666666666669</ele><time>2026-03-29T13:32:40.909Z</time></trkpt><trkpt lat="42.66818985683893" lon="11.273500398345742"><ele>229.33333333333331</ele><time>2026-03-29T13:32:41.909Z</time></trkpt><trkpt lat="42.66802411102544" lon="11.273448006113675"><ele>229.0</ele><time>2026-03-29T13:32:42.909Z</time></trkpt><trkpt lat="42.66785710035107" lon="11.27339849418646"><ele>229.33333333333331</ele><time>2026-03-29T13:32:43.909Z</time></trkpt><trkpt lat="42.667685380831344" lon="11.27336038074191"><ele>229.66666666666669</ele><time>2026-03-29T13:32:44.908Z</time></trkpt><trkpt lat="42.6675070030999" lon="11.273335803285768"><ele>230.0</ele><time>2026-03-29T13:32:45.908Z</time></trkpt><trkpt lat="42.66732502668559" lon="11.273315741770325"><ele>230.0</ele><time>2026-03-29T13:32:46.908Z</time></trkpt><trkpt lat="42.66714031942012" lon="11.273311798062535"><ele>230.0</ele><time>2026-03-29T13:32:47.908Z</time></trkpt><trkpt lat="42.66695339823482" lon="11.273311526695094"><ele>230.0</ele><time>2026-03-29T13:32:48.908Z</time></trkpt><trkpt lat="42.66677161386414" lon="11.273308633416656"><ele>229.66666666666669</ele><time>2026-03-29T13:32:49.908Z</time></trkpt><trkpt lat="42.666597473616626" lon="11.273312539013954"><ele>229.33333333333331</ele><time>2026-03-29T13:32:50.908Z</time></trkpt><trkpt lat="42.66643002922788" lon="11.273302666616974"><ele>229.0</ele><time>2026-03-29T13:32:51.908Z</time></trkpt><trkpt lat="42.66626878965299" lon="11.273270849992185"><ele>228.66666666666666</ele><time>2026-03-29T13:32:52.908Z</time></trkpt><trkpt lat="42.66610125718355" lon="11.273221799141842"><ele>228.33333333333331</ele><time>2026-03-29T13:32:53.908Z</time></trkpt><trkpt lat="42.6659313188686" lon="11.273157878303394"><ele>228.0</ele><time>2026-03-29T13:32:54.908Z</time></trkpt><trkpt lat="42.6657595885176" lon="11.273095950692824"><ele>227.33333333333331</ele><time>2026-03-29T13:32:55.908Z</time></trkpt><trkpt lat="42.66558115449162" lon="11.273031899179356"><ele>226.66666666666666</ele><time>2026-03-29T13:32:56.908Z</time></trkpt><trkpt lat="42.66539956029441" lon="11.272969847614402"><ele>226.0</ele><time>2026-03-29T13:32:57.908Z</time></trkpt><trkpt lat="42.66521603169095" lon="11.272903921930858"><ele>226.0</ele><time>2026-03-29T13:32:58.908Z</time></trkpt><trkpt lat="42.665029840741234" lon="11.27283522430422"><ele>226.0</ele><time>2026-03-29T13:32:59.908Z</time></trkpt><trkpt lat="42.66483999452858" lon="11.272765403669966"><ele>226.0</ele><time>2026-03-29T13:33:00.908Z</time></trkpt><trkpt lat="42.66464745889122" lon="11.272701598409174"><ele>226.0</ele><time>2026-03-29T13:33:01.908Z</time></trkpt><trkpt lat="42.664457578423104" lon="11.272636013777145"><ele>226.0</ele><time>2026-03-29T13:33:02.908Z</time></trkpt><trkpt lat="42.66427132315854" lon="11.27257007011736"><ele>226.0</ele><time>2026-03-29T13:33:03.908Z</time></trkpt><trkpt lat="42.66408620677459" lon="11.27250827059885"><ele>226.0</ele><time>2026-03-29T13:33:04.908Z</time></trkpt><trkpt lat="42.663904844015796" lon="11.272444908453851"><ele>226.0</ele><time>2026-03-29T13:33:05.908Z</time></trkpt><trkpt lat="42.66372668830774" lon="11.272377096478346"><ele>226.0</ele><time>2026-03-29T13:33:06.908Z</time></trkpt><trkpt lat="42.66355002765889" lon="11.272308904745499"><ele>230.0</ele><time>2026-03-29T13:33:07.908Z</time></trkpt><trkpt lat="42.663375310583376" lon="11.272243167061543"><ele>234.0</ele><time>2026-03-29T13:33:08.908Z</time></trkpt><trkpt lat="42.66320429665084" lon="11.272169900759499"><ele>238.0</ele><time>2026-03-29T13:33:09.908Z</time></trkpt><trkpt lat="42.66303692633135" lon="11.272090344432025"><ele>238.0</ele><time>2026-03-29T13:33:10.908Z</time></trkpt><trkpt lat="42.66287304058951" lon="11.27200146593231"><ele>238.0</ele><time>2026-03-29T13:33:11.908Z</time></trkpt><trkpt lat="42.66271169700175" lon="11.271907696469817"><ele>238.0</ele><time>2026-03-29T13:33:12.908Z</time></trkpt><trkpt lat="42.662555019173055" lon="11.271801560301618"><ele>237.66666666666666</ele><time>2026-03-29T13:33:13.908Z</time></trkpt><trkpt lat="42.662395940883414" lon="11.271696163153784"><ele>237.33333333333331</ele><time>2026-03-29T13:33:14.908Z</time></trkpt><trkpt lat="42.662235872241666" lon="11.271580101466686"><ele>237.0</ele><time>2026-03-29T13:33:15.908Z</time></trkpt><trkpt lat="42.662072921299796" lon="11.27146183811802"><ele>236.66666666666669</ele><time>2026-03-29T13:33:16.908Z</time></trkpt><trkpt lat="42.66190550676311" lon="11.271351376118371"><ele>236.33333333333334</ele><time>2026-03-29T13:33:17.907Z</time></trkpt><trkpt lat="42.66173711032437" lon="11.271242585857232"><ele>236.0</ele><time>2026-03-29T13:33:18.907Z</time></trkpt><trkpt lat="42.661583912322584" lon="11.271135680048472"><ele>236.0</ele><time>2026-03-29T13:33:19.907Z</time></trkpt><trkpt lat="42.66144380770951" lon="11.271019110555251"><ele>236.0</ele><time>2026-03-29T13:33:20.907Z</time></trkpt><trkpt lat="42.66130170577784" lon="11.270914066568972"><ele>236.0</ele><time>2026-03-29T13:33:21.907Z</time></trkpt><trkpt lat="42.66116182983753" lon="11.270814954867452"><ele>235.75</ele><time>2026-03-29T13:33:22.907Z</time></trkpt><trkpt lat="42.661019801125676" lon="11.270724924264083"><ele>235.5</ele><time>2026-03-29T13:33:23.907Z</time></trkpt><trkpt lat="42.66088381425461" lon="11.270633448949196"><ele>235.25</ele><time>2026-03-29T13:33:24.907Z</time></trkpt><trkpt lat="42.66075936233024" lon="11.270543329718025"><ele>235.0</ele><time>2026-03-29T13:33:25.907Z</time></trkpt><trkpt lat="42.66064223750474" lon="11.270457122512168"><ele>235.0</ele><time>2026-03-29T13:33:26.907Z</time></trkpt><trkpt lat="42.66054348846486" lon="11.2703910374662"><ele>235.0</ele><time>2026-03-29T13:33:27.907Z</time></trkpt><trkpt lat="42.66046761260669" lon="11.270339173559917"><ele>235.0</ele><time>2026-03-29T13:33:28.907Z</time></trkpt><trkpt lat="42.66037257223324" lon="11.270279871690986"><ele>235.0</ele><time>2026-03-29T13:33:30.907Z</time></trkpt><trkpt lat="42.66026685093627" lon="11.270332896075429"><ele>235.0</ele><time>2026-03-29T13:33:41.907Z</time></trkpt><trkpt lat="42.66022700532881" lon="11.270412340672186"><ele>234.99999999999997</ele><time>2026-03-29T13:34:00.908Z</time></trkpt><trkpt lat="42.66017132170855" lon="11.270455340645356"><ele>235.0</ele><time>2026-03-29T13:34:02.908Z</time></trkpt><trkpt lat="42.66008309955146" lon="11.270553157677803"><ele>235.0</ele><time>2026-03-29T13:34:04.907Z</time></trkpt><trkpt lat="42.66002976376946" lon="11.270602275031518"><ele>235.0</ele><time>2026-03-29T13:34:05.907Z</time></trkpt><trkpt lat="42.6599730089631" lon="11.27065005001688"><ele>234.99999999999997</ele><time>2026-03-29T13:34:06.908Z</time></trkpt><trkpt lat="42.6599009430209" lon="11.270699259194892"><ele>235.0</ele><time>2026-03-29T13:34:07.908Z</time></trkpt><trkpt lat="42.6598296859056" lon="11.270751450544253"><ele>235.0</ele><time>2026-03-29T13:34:08.907Z</time></trkpt><trkpt lat="42.65975052887834" lon="11.27081009958914"><ele>235.0</ele><time>2026-03-29T13:34:09.907Z</time></trkpt><trkpt lat="42.659668725388435" lon="11.270876722754721"><ele>235.0</ele><time>2026-03-29T13:34:10.907Z</time></trkpt><trkpt lat="42.65957576989979" lon="11.270953201606556"><ele>235.0</ele><time>2026-03-29T13:34:11.907Z</time></trkpt><trkpt lat="42.65948012074503" lon="11.271028915511764"><ele>235.0</ele><time>2026-03-29T13:34:12.907Z</time></trkpt><trkpt lat="42.65937578585138" lon="11.271109043381218"><ele>234.25</ele><time>2026-03-29T13:34:13.907Z</time></trkpt><trkpt lat="42.659266575661874" lon="11.271179036050407"><ele>233.5</ele><time>2026-03-29T13:34:14.907Z</time></trkpt><trkpt lat="42.65915527693485" lon="11.271239799191083"><ele>232.75</ele><time>2026-03-29T13:34:15.907Z</time></trkpt><trkpt lat="42.65904344360222" lon="11.271293851358887"><ele>232.0</ele><time>2026-03-29T13:34:16.907Z</time></trkpt><trkpt lat="42.65893170250586" lon="11.271342383306445"><ele>232.0</ele><time>2026-03-29T13:34:17.907Z</time></trkpt><trkpt lat="42.65882370274636" lon="11.271387765651577"><ele>232.0</ele><time>2026-03-29T13:34:18.907Z</time></trkpt><trkpt lat="42.65871553519897" lon="11.271448917454101"><ele>232.0</ele><time>2026-03-29T13:34:19.907Z</time></trkpt><trkpt lat="42.658606643950996" lon="11.271515333333314"><ele>232.0</ele><time>2026-03-29T13:34:20.907Z</time></trkpt><trkpt lat="42.65850727764555" lon="11.271607627331933"><ele>229.75</ele><time>2026-03-29T13:34:21.907Z</time></trkpt><trkpt lat="42.65840344599795" lon="11.271701000583713"><ele>227.5</ele><time>2026-03-29T13:34:22.907Z</time></trkpt><trkpt lat="42.658313368832" lon="11.27181644000262"><ele>225.25</ele><time>2026-03-29T13:34:23.907Z</time></trkpt><trkpt lat="42.65823539190584" lon="11.271933780551715"><ele>223.0</ele><time>2026-03-29T13:34:24.907Z</time></trkpt><trkpt lat="42.658136064258755" lon="11.271992009205556"><ele>223.0</ele><time>2026-03-29T13:34:25.907Z</time></trkpt><trkpt lat="42.6580361912377" lon="11.272002289342996"><ele>223.0</ele><time>2026-03-29T13:34:26.907Z</time></trkpt><trkpt lat="42.65792794865113" lon="11.271972012620212"><ele>223.0</ele><time>2026-03-29T13:34:27.907Z</time></trkpt><trkpt lat="42.657816792037714" lon="11.27193163606496"><ele>223.0</ele><time>2026-03-29T13:34:28.907Z</time></trkpt><trkpt lat="42.657699018062594" lon="11.27189510729431"><ele>223.0</ele><time>2026-03-29T13:34:29.907Z</time></trkpt><trkpt lat="42.65758101366525" lon="11.271863739027536"><ele>222.0</ele><time>2026-03-29T13:34:30.907Z</time></trkpt><trkpt lat="42.65746010705657" lon="11.27183376150202"><ele>221.0</ele><time>2026-03-29T13:34:31.907Z</time></trkpt><trkpt lat="42.657333784600304" lon="11.271809538295196"><ele>220.0</ele><time>2026-03-29T13:34:32.907Z</time></trkpt><trkpt lat="42.657198268974895" lon="11.271800271974904"><ele>219.0</ele><time>2026-03-29T13:34:33.907Z</time></trkpt><trkpt lat="42.65705747873299" lon="11.27179729295936"><ele>218.5</ele><time>2026-03-29T13:34:34.906Z</time></trkpt><trkpt lat="42.656915836910045" lon="11.271805886070425"><ele>218.0</ele><time>2026-03-29T13:34:35.906Z</time></trkpt><trkpt lat="42.65677314546339" lon="11.271827148317223"><ele>217.5</ele><time>2026-03-29T13:34:36.906Z</time></trkpt><trkpt lat="42.65663342844591" lon="11.27187874160902"><ele>217.0</ele><time>2026-03-29T13:34:37.906Z</time></trkpt><trkpt lat="42.65649428496018" lon="11.271941875720678"><ele>217.0</ele><time>2026-03-29T13:34:38.906Z</time></trkpt><trkpt lat="42.65635571065873" lon="11.272010477592065"><ele>217.0</ele><time>2026-03-29T13:34:39.906Z</time></trkpt><trkpt lat="42.656222972405885" lon="11.272080229069424"><ele>217.0</ele><time>2026-03-29T13:34:40.906Z</time></trkpt><trkpt lat="42.65608626179928" lon="11.272144945432123"><ele>217.0</ele><time>2026-03-29T13:34:41.906Z</time></trkpt><trkpt lat="42.65595611856922" lon="11.272207933072025"><ele>217.25</ele><time>2026-03-29T13:34:42.906Z</time></trkpt><trkpt lat="42.655831402646875" lon="11.27226041808666"><ele>217.5</ele><time>2026-03-29T13:34:43.906Z</time></trkpt><trkpt lat="42.65570107206317" lon="11.272287157929437"><ele>217.75</ele><time>2026-03-29T13:34:44.906Z</time></trkpt><trkpt lat="42.65556994817813" lon="11.27227926010051"><ele>218.0</ele><time>2026-03-29T13:34:45.906Z</time></trkpt><trkpt lat="42.65544642777476" lon="11.272245898171276"><ele>218.25</ele><time>2026-03-29T13:34:46.906Z</time></trkpt><trkpt lat="42.65532789040852" lon="11.272198791925822"><ele>218.5</ele><time>2026-03-29T13:34:47.906Z</time></trkpt><trkpt lat="42.65520617303764" lon="11.272156908250688"><ele>218.75</ele><time>2026-03-29T13:34:48.906Z</time></trkpt><trkpt lat="42.6550828389491" lon="11.272121943676364"><ele>219.0</ele><time>2026-03-29T13:34:49.906Z</time></trkpt><trkpt lat="42.65495895462603" lon="11.272098053656128"><ele>219.0</ele><time>2026-03-29T13:34:50.906Z</time></trkpt><trkpt lat="42.6548290763723" lon="11.272080088128451"><ele>219.0</ele><time>2026-03-29T13:34:51.906Z</time></trkpt><trkpt lat="42.65469902100086" lon="11.272057824018216"><ele>219.0</ele><time>2026-03-29T13:34:52.906Z</time></trkpt><trkpt lat="42.65456930900437" lon="11.272031150750326"><ele>219.0</ele><time>2026-03-29T13:34:53.906Z</time></trkpt><trkpt lat="42.654445378871856" lon="11.272011451928476"><ele>219.0</ele><time>2026-03-29T13:34:54.906Z</time></trkpt><trkpt lat="42.65431545442635" lon="11.271994558389641"><ele>219.0</ele><time>2026-03-29T13:34:55.906Z</time></trkpt><trkpt lat="42.654192914936" lon="11.271964345554933"><ele>219.0</ele><time>2026-03-29T13:34:56.906Z</time></trkpt><trkpt lat="42.65407204585356" lon="11.27193159316523"><ele>219.0</ele><time>2026-03-29T13:34:57.906Z</time></trkpt><trkpt lat="42.65394705352778" lon="11.271902898630694"><ele>219.0</ele><time>2026-03-29T13:34:58.906Z</time></trkpt><trkpt lat="42.65382058187175" lon="11.271899564462403"><ele>219.0</ele><time>2026-03-29T13:34:59.906Z</time></trkpt><trkpt lat="42.653688089910325" lon="11.271920113262487"><ele>219.0</ele><time>2026-03-29T13:35:00.906Z</time></trkpt><trkpt lat="42.65355087775265" lon="11.271952401353966"><ele>219.0</ele><time>2026-03-29T13:35:01.906Z</time></trkpt><trkpt lat="42.65341083480886" lon="11.271981350374062"><ele>219.5</ele><time>2026-03-29T13:35:02.906Z</time></trkpt><trkpt lat="42.65327324575589" lon="11.272011281207309"><ele>220.0</ele><time>2026-03-29T13:35:03.906Z</time></trkpt><trkpt lat="42.65314586238377" lon="11.2720283193981"><ele>220.5</ele><time>2026-03-29T13:35:04.906Z</time></trkpt><trkpt lat="42.653024194122345" lon="11.272045110979857"><ele>221.0</ele><time>2026-03-29T13:35:05.906Z</time></trkpt><trkpt lat="42.65289897194929" lon="11.27206400234358"><ele>219.75</ele><time>2026-03-29T13:35:06.906Z</time></trkpt><trkpt lat="42.652768267198596" lon="11.272070723889023"><ele>218.5</ele><time>2026-03-29T13:35:07.905Z</time></trkpt><trkpt lat="42.65263516794115" lon="11.272126183308222"><ele>217.25</ele><time>2026-03-29T13:35:08.905Z</time></trkpt><trkpt lat="42.652505862223485" lon="11.272205992131337"><ele>216.0</ele><time>2026-03-29T13:35:09.905Z</time></trkpt><trkpt lat="42.6523891777707" lon="11.272299140624684"><ele>215.75</ele><time>2026-03-29T13:35:10.905Z</time></trkpt><trkpt lat="42.652271731512805" lon="11.272400575745243"><ele>215.5</ele><time>2026-03-29T13:35:11.905Z</time></trkpt><trkpt lat="42.65216144064811" lon="11.272503975134285"><ele>215.25</ele><time>2026-03-29T13:35:12.905Z</time></trkpt><trkpt lat="42.652022053600014" lon="11.272545095067995"><ele>215.0</ele><time>2026-03-29T13:35:13.905Z</time></trkpt><trkpt lat="42.6518867969543" lon="11.272545650204606"><ele>213.75</ele><time>2026-03-29T13:35:14.905Z</time></trkpt><trkpt lat="42.65175885828424" lon="11.27252254607045"><ele>212.5</ele><time>2026-03-29T13:35:15.905Z</time></trkpt><trkpt lat="42.65162667446525" lon="11.272491625857837"><ele>211.25</ele><time>2026-03-29T13:35:16.905Z</time></trkpt><trkpt lat="42.65148120500299" lon="11.272472169318215"><ele>210.0</ele><time>2026-03-29T13:35:17.905Z</time></trkpt><trkpt lat="42.651340065427036" lon="11.272449992373938"><ele>210.0</ele><time>2026-03-29T13:35:18.905Z</time></trkpt><trkpt lat="42.65120054759418" lon="11.272432615437115"><ele>210.0</ele><time>2026-03-29T13:35:19.905Z</time></trkpt><trkpt lat="42.651060723119286" lon="11.272404142341523"><ele>210.0</ele><time>2026-03-29T13:35:20.905Z</time></trkpt><trkpt lat="42.65092398444824" lon="11.272376169675383"><ele>210.0</ele><time>2026-03-29T13:35:21.905Z</time></trkpt><trkpt lat="42.65078399689056" lon="11.272351913348459"><ele>208.75</ele><time>2026-03-29T13:35:22.905Z</time></trkpt><trkpt lat="42.65063772499627" lon="11.272327049564819"><ele>207.5</ele><time>2026-03-29T13:35:23.905Z</time></trkpt><trkpt lat="42.650499990923294" lon="11.272303966766087"><ele>206.25</ele><time>2026-03-29T13:35:24.905Z</time></trkpt><trkpt lat="42.65036691453406" lon="11.272284059333947"><ele>205.0</ele><time>2026-03-29T13:35:25.905Z</time></trkpt><trkpt lat="42.65023385926677" lon="11.272278923455318"><ele>203.5</ele><time>2026-03-29T13:35:26.905Z</time></trkpt><trkpt lat="42.650095592666396" lon="11.272288754808795"><ele>202.0</ele><time>2026-03-29T13:35:27.905Z</time></trkpt><trkpt lat="42.64995595591654" lon="11.272313822687929"><ele>200.5</ele><time>2026-03-29T13:35:28.905Z</time></trkpt><trkpt lat="42.649812830109276" lon="11.272353528148143"><ele>199.0</ele><time>2026-03-29T13:35:29.905Z</time></trkpt><trkpt lat="42.64967410756411" lon="11.27239908704699"><ele>199.0</ele><time>2026-03-29T13:35:30.905Z</time></trkpt><trkpt lat="42.649536206192415" lon="11.27241152856119"><ele>199.0</ele><time>2026-03-29T13:35:31.905Z</time></trkpt><trkpt lat="42.64941710811397" lon="11.272450692485666"><ele>199.0</ele><time>2026-03-29T13:35:32.905Z</time></trkpt><trkpt lat="42.64929935442244" lon="11.272432224344993"><ele>199.0</ele><time>2026-03-29T13:35:33.905Z</time></trkpt><trkpt lat="42.64919590298168" lon="11.272377642789996"><ele>198.6</ele><time>2026-03-29T13:35:34.905Z</time></trkpt><trkpt lat="42.64911547069474" lon="11.272292426473987"><ele>198.2</ele><time>2026-03-29T13:35:35.905Z</time></trkpt><trkpt lat="42.64903928222403" lon="11.27223051580613"><ele>197.79999999999998</ele><time>2026-03-29T13:35:36.905Z</time></trkpt><trkpt lat="42.64896339515694" lon="11.272182770471122"><ele>197.39999999999998</ele><time>2026-03-29T13:35:37.905Z</time></trkpt><trkpt lat="42.64887644899389" lon="11.272145985181503"><ele>197.0</ele><time>2026-03-29T13:35:38.905Z</time></trkpt><trkpt lat="42.64877776607553" lon="11.272122412392315"><ele>197.0</ele><time>2026-03-29T13:35:39.904Z</time></trkpt><trkpt lat="42.64867175813664" lon="11.272116012934701"><ele>197.0</ele><time>2026-03-29T13:35:40.904Z</time></trkpt><trkpt lat="42.64856679779022" lon="11.272128653713406"><ele>197.0</ele><time>2026-03-29T13:35:41.904Z</time></trkpt><trkpt lat="42.648466834966214" lon="11.272156061676315"><ele>197.0</ele><time>2026-03-29T13:35:42.904Z</time></trkpt><trkpt lat="42.64837428137699" lon="11.272203311583322"><ele>197.0</ele><time>2026-03-29T13:35:43.904Z</time></trkpt><trkpt lat="42.64829736363688" lon="11.272268934075392"><ele>197.33333333333334</ele><time>2026-03-29T13:35:44.904Z</time></trkpt><trkpt lat="42.64823426398974" lon="11.272356330398303"><ele>197.66666666666669</ele><time>2026-03-29T13:35:45.904Z</time></trkpt><trkpt lat="42.6481843270217" lon="11.272457627976365"><ele>198.0</ele><time>2026-03-29T13:35:46.904Z</time></trkpt><trkpt lat="42.64817783558187" lon="11.27258509776999"><ele>198.33333333333331</ele><time>2026-03-29T13:35:47.904Z</time></trkpt><trkpt lat="42.648118348938084" lon="11.27267180190062"><ele>198.66666666666666</ele><time>2026-03-29T13:35:48.904Z</time></trkpt><trkpt lat="42.64803542136645" lon="11.272703821778833"><ele>199.0</ele><time>2026-03-29T13:35:49.904Z</time></trkpt><trkpt lat="42.64794030863898" lon="11.272692080300427"><ele>199.0</ele><time>2026-03-29T13:35:50.904Z</time></trkpt><trkpt lat="42.647845274821236" lon="11.272655814299311"><ele>199.0</ele><time>2026-03-29T13:35:51.904Z</time></trkpt><trkpt lat="42.647741407756754" lon="11.272653792957508"><ele>199.0</ele><time>2026-03-29T13:35:52.904Z</time></trkpt><trkpt lat="42.64763532032389" lon="11.27262037118519"><ele>199.0</ele><time>2026-03-29T13:35:53.904Z</time></trkpt><trkpt lat="42.64752198550963" lon="11.272637476323052"><ele>199.0</ele><time>2026-03-29T13:35:54.904Z</time></trkpt><trkpt lat="42.64741123121967" lon="11.272676377304942"><ele>200.25</ele><time>2026-03-29T13:35:55.904Z</time></trkpt><trkpt lat="42.647293234826705" lon="11.272728079564637"><ele>201.5</ele><time>2026-03-29T13:35:56.904Z</time></trkpt><trkpt lat="42.64718225285572" lon="11.27277437654064"><ele>202.75</ele><time>2026-03-29T13:35:57.904Z</time></trkpt><trkpt lat="42.64706775149188" lon="11.272823739847638"><ele>204.0</ele><time>2026-03-29T13:35:58.904Z</time></trkpt><trkpt lat="42.64695578120298" lon="11.272880364635158"><ele>206.25</ele><time>2026-03-29T13:35:59.904Z</time></trkpt><trkpt lat="42.64684620793634" lon="11.272952588684818"><ele>208.5</ele><time>2026-03-29T13:36:00.904Z</time></trkpt><trkpt lat="42.646734907935006" lon="11.273027360466267"><ele>210.75</ele><time>2026-03-29T13:36:01.904Z</time></trkpt><trkpt lat="42.64662236664111" lon="11.273104198112755"><ele>213.0</ele><time>2026-03-29T13:36:02.905Z</time></trkpt><trkpt lat="42.64650810231848" lon="11.273186544622494"><ele>213.75</ele><time>2026-03-29T13:36:03.904Z</time></trkpt><trkpt lat="42.64639668945965" lon="11.273271469726236"><ele>214.5</ele><time>2026-03-29T13:36:04.904Z</time></trkpt><trkpt lat="42.646288264326444" lon="11.273355799487"><ele>215.25</ele><time>2026-03-29T13:36:05.905Z</time></trkpt><trkpt lat="42.64617555609009" lon="11.273436342257808"><ele>216.0</ele><time>2026-03-29T13:36:06.905Z</time></trkpt><trkpt lat="42.646068488847945" lon="11.273494084903907"><ele>216.60000000000002</ele><time>2026-03-29T13:36:07.905Z</time></trkpt><trkpt lat="42.645954691156376" lon="11.273530827764484"><ele>217.20000000000002</ele><time>2026-03-29T13:36:08.904Z</time></trkpt><trkpt lat="42.64585133414745" lon="11.27351345558617"><ele>217.79999999999998</ele><time>2026-03-29T13:36:09.904Z</time></trkpt><trkpt lat="42.64576393528457" lon="11.273453917182305"><ele>218.39999999999998</ele><time>2026-03-29T13:36:10.904Z</time></trkpt><trkpt lat="42.64570022157917" lon="11.273360506497948"><ele>219.0</ele><time>2026-03-29T13:36:11.904Z</time></trkpt><trkpt lat="42.645625806275454" lon="11.273251814547315"><ele>219.0</ele><time>2026-03-29T13:36:12.904Z</time></trkpt><trkpt lat="42.64559083933685" lon="11.273113637338039"><ele>219.0</ele><time>2026-03-29T13:36:13.904Z</time></trkpt><trkpt lat="42.64555417037501" lon="11.273003728537956"><ele>219.0</ele><time>2026-03-29T13:36:14.904Z</time></trkpt><trkpt lat="42.64551439825976" lon="11.272910636014513"><ele>219.0</ele><time>2026-03-29T13:36:15.904Z</time></trkpt><trkpt lat="42.64545285324005" lon="11.272856703913915"><ele>219.0</ele><time>2026-03-29T13:36:16.904Z</time></trkpt><trkpt lat="42.64538043052554" lon="11.272853440441054"><ele>219.0</ele><time>2026-03-29T13:36:17.904Z</time></trkpt><trkpt lat="42.64530675847967" lon="11.27290318639019"><ele>222.0</ele><time>2026-03-29T13:36:18.904Z</time></trkpt><trkpt lat="42.64522866848399" lon="11.272979887195742"><ele>225.0</ele><time>2026-03-29T13:36:19.904Z</time></trkpt><trkpt lat="42.645177120815916" lon="11.273122356016136"><ele>228.0</ele><time>2026-03-29T13:36:20.904Z</time></trkpt><trkpt lat="42.64509983403643" lon="11.273245291443423"><ele>231.0</ele><time>2026-03-29T13:36:21.904Z</time></trkpt><trkpt lat="42.64503138818133" lon="11.273391773517801"><ele>231.0</ele><time>2026-03-29T13:36:22.904Z</time></trkpt><trkpt lat="42.64497387093252" lon="11.273547696572507"><ele>231.0</ele><time>2026-03-29T13:36:23.904Z</time></trkpt><trkpt lat="42.644931013187026" lon="11.273706961411925"><ele>231.0</ele><time>2026-03-29T13:36:24.904Z</time></trkpt><trkpt lat="42.644896591957966" lon="11.273871135311945"><ele>231.0</ele><time>2026-03-29T13:36:25.904Z</time></trkpt><trkpt lat="42.64487984076855" lon="11.274029503263403"><ele>230.5</ele><time>2026-03-29T13:36:26.904Z</time></trkpt><trkpt lat="42.64485449170393" lon="11.274192565027493"><ele>230.0</ele><time>2026-03-29T13:36:27.904Z</time></trkpt><trkpt lat="42.644806742550934" lon="11.274355221901697"><ele>229.5</ele><time>2026-03-29T13:36:28.904Z</time></trkpt><trkpt lat="42.64474559300342" lon="11.274504246817957"><ele>229.0</ele><time>2026-03-29T13:36:29.904Z</time></trkpt><trkpt lat="42.64467988429068" lon="11.274647608958839"><ele>227.75</ele><time>2026-03-29T13:36:30.904Z</time></trkpt><trkpt lat="42.64460769416407" lon="11.274775514667908"><ele>226.5</ele><time>2026-03-29T13:36:31.904Z</time></trkpt><trkpt lat="42.64452441960894" lon="11.274892603293276"><ele>225.25</ele><time>2026-03-29T13:36:32.904Z</time></trkpt><trkpt lat="42.64442432272733" lon="11.274983985376398"><ele>224.0</ele><time>2026-03-29T13:36:33.904Z</time></trkpt><trkpt lat="42.64431659875027" lon="11.275053817513346"><ele>227.39999999999998</ele><time>2026-03-29T13:36:34.904Z</time></trkpt><trkpt lat="42.64420061007237" lon="11.275097218544454"><ele>230.79999999999998</ele><time>2026-03-29T13:36:35.904Z</time></trkpt><trkpt lat="42.64408821566606" lon="11.275118479351539"><ele>234.20000000000002</ele><time>2026-03-29T13:36:36.904Z</time></trkpt><trkpt lat="42.643987205304015" lon="11.275130901692911"><ele>237.60000000000002</ele><time>2026-03-29T13:36:37.904Z</time></trkpt><trkpt lat="42.6438979677597" lon="11.275131344446072"><ele>241.0</ele><time>2026-03-29T13:36:38.904Z</time></trkpt><trkpt lat="42.64381418238377" lon="11.275116086074542"><ele>241.0</ele><time>2026-03-29T13:36:39.904Z</time></trkpt><trkpt lat="42.643729230725825" lon="11.275075470559944"><ele>241.00000000000003</ele><time>2026-03-29T13:36:40.904Z</time></trkpt><trkpt lat="42.64363726903094" lon="11.275013279418186"><ele>241.00000000000003</ele><time>2026-03-29T13:36:41.904Z</time></trkpt><trkpt lat="42.64354696706568" lon="11.274929967808976"><ele>241.0</ele><time>2026-03-29T13:36:42.904Z</time></trkpt><trkpt lat="42.643462087464506" lon="11.274843378917355"><ele>241.0</ele><time>2026-03-29T13:36:43.904Z</time></trkpt><trkpt lat="42.64337751135828" lon="11.274743568384492"><ele>242.20000000000002</ele><time>2026-03-29T13:36:44.904Z</time></trkpt><trkpt lat="42.64329997467707" lon="11.274630157731409"><ele>243.40000000000003</ele><time>2026-03-29T13:36:45.904Z</time></trkpt><trkpt lat="42.64323333638761" lon="11.274512069309045"><ele>244.6</ele><time>2026-03-29T13:36:46.904Z</time></trkpt><trkpt lat="42.64318053482703" lon="11.274390693119516"><ele>245.8</ele><time>2026-03-29T13:36:47.904Z</time></trkpt><trkpt lat="42.643132258057854" lon="11.274264420312244"><ele>247.0</ele><time>2026-03-29T13:36:48.903Z</time></trkpt><trkpt lat="42.6431035387445" lon="11.274136725879572"><ele>247.0</ele><time>2026-03-29T13:36:49.903Z</time></trkpt><trkpt lat="42.64309183123313" lon="11.274006799761189"><ele>247.0</ele><time>2026-03-29T13:36:50.903Z</time></trkpt><trkpt lat="42.64309157167072" lon="11.273869181366"><ele>247.0</ele><time>2026-03-29T13:36:51.903Z</time></trkpt><trkpt lat="42.64308265701232" lon="11.27372791155302"><ele>247.0</ele><time>2026-03-29T13:36:52.903Z</time></trkpt><trkpt lat="42.64306254056032" lon="11.273581344103548"><ele>247.0</ele><time>2026-03-29T13:36:53.903Z</time></trkpt><trkpt lat="42.642975432712404" lon="11.273469279491344"><ele>247.0</ele><time>2026-03-29T13:36:54.903Z</time></trkpt><trkpt lat="42.642880468169906" lon="11.273376543541685"><ele>247.0</ele><time>2026-03-29T13:36:55.903Z</time></trkpt><trkpt lat="42.642775469560476" lon="11.273302594518357"><ele>247.0</ele><time>2026-03-29T13:36:56.903Z</time></trkpt><trkpt lat="42.64266520243688" lon="11.273234532004304"><ele>247.0</ele><time>2026-03-29T13:36:57.903Z</time></trkpt><trkpt lat="42.642548155849866" lon="11.273174666825067"><ele>246.75</ele><time>2026-03-29T13:36:58.903Z</time></trkpt><trkpt lat="42.642426956142614" lon="11.273126462433849"><ele>246.5</ele><time>2026-03-29T13:36:59.903Z</time></trkpt><trkpt lat="42.642304142434625" lon="11.273104905776224"><ele>246.25</ele><time>2026-03-29T13:37:00.903Z</time></trkpt><trkpt lat="42.64218180901607" lon="11.273107875040587"><ele>246.0</ele><time>2026-03-29T13:37:01.903Z</time></trkpt><trkpt lat="42.64205726348636" lon="11.273130979466458"><ele>244.75</ele><time>2026-03-29T13:37:02.903Z</time></trkpt><trkpt lat="42.641931580363725" lon="11.27314582401877"><ele>243.5</ele><time>2026-03-29T13:37:03.903Z</time></trkpt><trkpt lat="42.641806363830234" lon="11.273146963201025"><ele>242.25</ele><time>2026-03-29T13:37:04.903Z</time></trkpt><trkpt lat="42.64168683203603" lon="11.273133664782241"><ele>241.0</ele><time>2026-03-29T13:37:05.903Z</time></trkpt><trkpt lat="42.64156376314922" lon="11.273113351351789"><ele>240.75</ele><time>2026-03-29T13:37:06.903Z</time></trkpt><trkpt lat="42.641445234824666" lon="11.273087317972806"><ele>240.5</ele><time>2026-03-29T13:37:07.903Z</time></trkpt><trkpt lat="42.64133249631181" lon="11.273047670729607"><ele>240.25</ele><time>2026-03-29T13:37:08.903Z</time></trkpt><trkpt lat="42.641213991173046" lon="11.27299111793726"><ele>240.0</ele><time>2026-03-29T13:37:09.903Z</time></trkpt><trkpt lat="42.64109267145797" lon="11.272921615411564"><ele>240.0</ele><time>2026-03-29T13:37:10.903Z</time></trkpt><trkpt lat="42.64097103961963" lon="11.272842599318288"><ele>240.0</ele><time>2026-03-29T13:37:11.903Z</time></trkpt><trkpt lat="42.64085177906772" lon="11.272757505366613"><ele>240.0</ele><time>2026-03-29T13:37:12.903Z</time></trkpt><trkpt lat="42.64074863891054" lon="11.272668016485893"><ele>240.0</ele><time>2026-03-29T13:37:13.903Z</time></trkpt><trkpt lat="42.64067117083422" lon="11.272588758765673"><ele>240.0</ele><time>2026-03-29T13:37:14.903Z</time></trkpt><trkpt lat="42.64061054507828" lon="11.272529380000716"><ele>240.0</ele><time>2026-03-29T13:37:15.903Z</time></trkpt><trkpt lat="42.64055635790781" lon="11.272447451395237"><ele>240.0</ele><time>2026-03-29T13:37:17.903Z</time></trkpt><trkpt lat="42.6404571890715" lon="11.272554747853224"><ele>240.0</ele><time>2026-03-29T13:37:18.903Z</time></trkpt><trkpt lat="42.64035059580543" lon="11.272672240946578"><ele>240.0</ele><time>2026-03-29T13:37:20.902Z</time></trkpt><trkpt lat="42.64027599842776" lon="11.27274750080271"><ele>240.75</ele><time>2026-03-29T13:37:21.902Z</time></trkpt><trkpt lat="42.64018529219664" lon="11.272831781473833"><ele>241.5</ele><time>2026-03-29T13:37:22.902Z</time></trkpt><trkpt lat="42.64008912714835" lon="11.27293273788909"><ele>242.25</ele><time>2026-03-29T13:37:23.902Z</time></trkpt><trkpt lat="42.63998679718818" lon="11.273039198700436"><ele>243.0</ele><time>2026-03-29T13:37:24.902Z</time></trkpt><trkpt lat="42.639883845703864" lon="11.273144210688752"><ele>241.5</ele><time>2026-03-29T13:37:25.902Z</time></trkpt><trkpt lat="42.63978526537318" lon="11.273235593748092"><ele>240.0</ele><time>2026-03-29T13:37:26.902Z</time></trkpt><trkpt lat="42.63968411363745" lon="11.273315656322186"><ele>238.5</ele><time>2026-03-29T13:37:27.902Z</time></trkpt><trkpt lat="42.63957519294876" lon="11.273379049926165"><ele>237.0</ele><time>2026-03-29T13:37:28.902Z</time></trkpt><trkpt lat="42.63945991577931" lon="11.273436232058742"><ele>237.0</ele><time>2026-03-29T13:37:29.902Z</time></trkpt><trkpt lat="42.63934581059085" lon="11.273489594270616"><ele>237.0</ele><time>2026-03-29T13:37:30.902Z</time></trkpt><trkpt lat="42.6392284988711" lon="11.273553975197878"><ele>237.0</ele><time>2026-03-29T13:37:31.902Z</time></trkpt><trkpt lat="42.63910868064723" lon="11.273641369263283"><ele>237.0</ele><time>2026-03-29T13:37:32.902Z</time></trkpt><trkpt lat="42.63898645852374" lon="11.273749173239452"><ele>237.0</ele><time>2026-03-29T13:37:33.902Z</time></trkpt><trkpt lat="42.63886360334826" lon="11.273866573512132"><ele>237.0</ele><time>2026-03-29T13:37:34.902Z</time></trkpt><trkpt lat="42.638738460176825" lon="11.273992530778939"><ele>237.0</ele><time>2026-03-29T13:37:35.902Z</time></trkpt><trkpt lat="42.63860961784584" lon="11.274118894730234"><ele>234.66666666666669</ele><time>2026-03-29T13:37:36.902Z</time></trkpt><trkpt lat="42.63847719561281" lon="11.274247879753965"><ele>232.33333333333334</ele><time>2026-03-29T13:37:37.902Z</time></trkpt><trkpt lat="42.63834390606082" lon="11.27437782308602"><ele>230.0</ele><time>2026-03-29T13:37:38.902Z</time></trkpt><trkpt lat="42.6382094326305" lon="11.274516430500892"><ele>230.0</ele><time>2026-03-29T13:37:39.902Z</time></trkpt><trkpt lat="42.638078537147315" lon="11.274650629324828"><ele>230.0</ele><time>2026-03-29T13:37:40.902Z</time></trkpt><trkpt lat="42.6379476196322" lon="11.274783947877742"><ele>230.0</ele><time>2026-03-29T13:37:41.902Z</time></trkpt><trkpt lat="42.63781908685803" lon="11.274912954648816"><ele>228.66666666666669</ele><time>2026-03-29T13:37:42.902Z</time></trkpt><trkpt lat="42.63768926473691" lon="11.27503488791411"><ele>227.33333333333331</ele><time>2026-03-29T13:37:43.902Z</time></trkpt><trkpt lat="42.63755940430514" lon="11.275164343614588"><ele>226.0</ele><time>2026-03-29T13:37:44.902Z</time></trkpt><trkpt lat="42.63744193917186" lon="11.275279442510788"><ele>226.0</ele><time>2026-03-29T13:37:45.902Z</time></trkpt><trkpt lat="42.63733821789072" lon="11.27538720960685"><ele>226.0</ele><time>2026-03-29T13:37:46.902Z</time></trkpt><trkpt lat="42.63725237280007" lon="11.275503025818523"><ele>226.0</ele><time>2026-03-29T13:37:47.902Z</time></trkpt><trkpt lat="42.63719943907647" lon="11.275638624623973"><ele>226.0</ele><time>2026-03-29T13:37:48.902Z</time></trkpt><trkpt lat="42.63717469156207" lon="11.27579561415265"><ele>225.25</ele><time>2026-03-29T13:37:49.902Z</time></trkpt><trkpt lat="42.637170458956575" lon="11.275967880892173"><ele>224.5</ele><time>2026-03-29T13:37:50.902Z</time></trkpt><trkpt lat="42.63717034088521" lon="11.276155052762913"><ele>223.75</ele><time>2026-03-29T13:37:51.902Z</time></trkpt><trkpt lat="42.637159096775314" lon="11.276353040644395"><ele>223.0</ele><time>2026-03-29T13:37:52.901Z</time></trkpt><trkpt lat="42.6371425789765" lon="11.276555747406979"><ele>223.0</ele><time>2026-03-29T13:37:53.901Z</time></trkpt><trkpt lat="42.63712409625227" lon="11.276763948939644"><ele>223.0</ele><time>2026-03-29T13:37:54.901Z</time></trkpt><trkpt lat="42.63709638512976" lon="11.276974070716253"><ele>223.0</ele><time>2026-03-29T13:37:55.901Z</time></trkpt><trkpt lat="42.63705928389403" lon="11.277184288664884"><ele>224.33333333333331</ele><time>2026-03-29T13:37:56.901Z</time></trkpt><trkpt lat="42.63702001832633" lon="11.277396662539857"><ele>225.66666666666669</ele><time>2026-03-29T13:37:57.901Z</time></trkpt><trkpt lat="42.63697629625709" lon="11.277613099815266"><ele>227.0</ele><time>2026-03-29T13:37:58.901Z</time></trkpt><trkpt lat="42.636926431530775" lon="11.277818659517953"><ele>227.0</ele><time>2026-03-29T13:37:59.901Z</time></trkpt><trkpt lat="42.636871999186816" lon="11.278019945327618"><ele>227.0</ele><time>2026-03-29T13:38:00.901Z</time></trkpt><trkpt lat="42.636804035493796" lon="11.278222160893396"><ele>227.0</ele><time>2026-03-29T13:38:01.901Z</time></trkpt><trkpt lat="42.63673109194696" lon="11.278415784400456"><ele>228.33333333333334</ele><time>2026-03-29T13:38:02.901Z</time></trkpt><trkpt lat="42.63665416206021" lon="11.278607118465795"><ele>229.66666666666669</ele><time>2026-03-29T13:38:03.901Z</time></trkpt><trkpt lat="42.63656395968041" lon="11.278793088521075"><ele>231.0</ele><time>2026-03-29T13:38:04.901Z</time></trkpt><trkpt lat="42.636463443837904" lon="11.278970752123303"><ele>231.66666666666669</ele><time>2026-03-29T13:38:05.901Z</time></trkpt><trkpt lat="42.6363639510121" lon="11.27914177801956"><ele>232.33333333333334</ele><time>2026-03-29T13:38:06.901Z</time></trkpt><trkpt lat="42.63627008570669" lon="11.279315884057098"><ele>233.0</ele><time>2026-03-29T13:38:07.901Z</time></trkpt><trkpt lat="42.63617883239812" lon="11.279483030029892"><ele>231.0</ele><time>2026-03-29T13:38:08.901Z</time></trkpt><trkpt lat="42.63609019409542" lon="11.27964711857852"><ele>229.0</ele><time>2026-03-29T13:38:09.901Z</time></trkpt><trkpt lat="42.63599906781797" lon="11.279807098724007"><ele>227.0</ele><time>2026-03-29T13:38:10.901Z</time></trkpt><trkpt lat="42.63590669662417" lon="11.27996804096415"><ele>225.0</ele><time>2026-03-29T13:38:11.901Z</time></trkpt><trkpt lat="42.635817888457275" lon="11.280126091647494"><ele>225.0</ele><time>2026-03-29T13:38:12.901Z</time></trkpt><trkpt lat="42.63573490707864" lon="11.280280940461575"><ele>225.0</ele><time>2026-03-29T13:38:13.901Z</time></trkpt><trkpt lat="42.63565415853633" lon="11.280428038077792"><ele>225.0</ele><time>2026-03-29T13:38:14.901Z</time></trkpt><trkpt lat="42.635577685904956" lon="11.280550311156334"><ele>225.0</ele><time>2026-03-29T13:38:15.902Z</time></trkpt><trkpt lat="42.635505655616555" lon="11.280644198022769"><ele>225.2</ele><time>2026-03-29T13:38:16.902Z</time></trkpt><trkpt lat="42.635431632047684" lon="11.28071194877153"><ele>225.4</ele><time>2026-03-29T13:38:17.901Z</time></trkpt><trkpt lat="42.63534642344793" lon="11.280745593327707"><ele>225.60000000000002</ele><time>2026-03-29T13:38:18.901Z</time></trkpt><trkpt lat="42.63524930097305" lon="11.280753472793897"><ele>225.8</ele><time>2026-03-29T13:38:19.901Z</time></trkpt><trkpt lat="42.635144148928184" lon="11.28075235320302"><ele>226.0</ele><time>2026-03-29T13:38:20.901Z</time></trkpt><trkpt lat="42.63502617830063" lon="11.28075247021996"><ele>227.5</ele><time>2026-03-29T13:38:21.902Z</time></trkpt><trkpt lat="42.634898560841094" lon="11.280751422139474"><ele>229.0</ele><time>2026-03-29T13:38:22.902Z</time></trkpt><trkpt lat="42.63476139845635" lon="11.280747524595233"><ele>230.5</ele><time>2026-03-29T13:38:23.902Z</time></trkpt><trkpt lat="42.63462798380108" lon="11.280743340517667"><ele>232.0</ele><time>2026-03-29T13:38:24.902Z</time></trkpt><trkpt lat="42.63448863184412" lon="11.280735950845418"><ele>233.33333333333331</ele><time>2026-03-29T13:38:25.901Z</time></trkpt><trkpt lat="42.63433815158267" lon="11.2807312605369"><ele>234.66666666666669</ele><time>2026-03-29T13:38:26.901Z</time></trkpt><trkpt lat="42.63418554376911" lon="11.280724377084173"><ele>236.0</ele><time>2026-03-29T13:38:27.901Z</time></trkpt><trkpt lat="42.63403617980697" lon="11.2807144047736"><ele>236.0</ele><time>2026-03-29T13:38:28.901Z</time></trkpt><trkpt lat="42.63388736390896" lon="11.280707749038196"><ele>236.0</ele><time>2026-03-29T13:38:29.901Z</time></trkpt><trkpt lat="42.63374473467741" lon="11.280694746574104"><ele>236.0</ele><time>2026-03-29T13:38:30.901Z</time></trkpt><trkpt lat="42.63360523112368" lon="11.280658830940146"><ele>236.0</ele><time>2026-03-29T13:38:31.901Z</time></trkpt><trkpt lat="42.6334698397344" lon="11.280609522880436"><ele>236.25</ele><time>2026-03-29T13:38:32.901Z</time></trkpt><trkpt lat="42.63334028544713" lon="11.280555516137628"><ele>236.5</ele><time>2026-03-29T13:38:33.901Z</time></trkpt><trkpt lat="42.633205927705646" lon="11.280498414556773"><ele>236.75</ele><time>2026-03-29T13:38:34.901Z</time></trkpt><trkpt lat="42.633070509018886" lon="11.28042975253138"><ele>237.0</ele><time>2026-03-29T13:38:35.901Z</time></trkpt><trkpt lat="42.63292042960257" lon="11.280376344574522"><ele>237.5</ele><time>2026-03-29T13:38:36.901Z</time></trkpt><trkpt lat="42.63277433610052" lon="11.280311665022397"><ele>238.0</ele><time>2026-03-29T13:38:37.901Z</time></trkpt><trkpt lat="42.632635160121716" lon="11.280242206698066"><ele>238.5</ele><time>2026-03-29T13:38:38.901Z</time></trkpt><trkpt lat="42.63250036638294" lon="11.280166166551627"><ele>239.0</ele><time>2026-03-29T13:38:39.901Z</time></trkpt><trkpt lat="42.63236288113067" lon="11.280084009817529"><ele>239.0</ele><time>2026-03-29T13:38:40.901Z</time></trkpt><trkpt lat="42.63222197266827" lon="11.279992999602623"><ele>239.0</ele><time>2026-03-29T13:38:41.901Z</time></trkpt><trkpt lat="42.63208347409659" lon="11.27989896818964"><ele>239.0</ele><time>2026-03-29T13:38:42.901Z</time></trkpt><trkpt lat="42.631946956742034" lon="11.279798917214968"><ele>236.33333333333334</ele><time>2026-03-29T13:38:43.901Z</time></trkpt><trkpt lat="42.63180392374743" lon="11.279700032042246"><ele>233.66666666666669</ele><time>2026-03-29T13:38:44.901Z</time></trkpt><trkpt lat="42.63166529841019" lon="11.27959889511369"><ele>231.0</ele><time>2026-03-29T13:38:45.901Z</time></trkpt><trkpt lat="42.63153032341226" lon="11.279500547387327"><ele>231.0</ele><time>2026-03-29T13:38:46.901Z</time></trkpt><trkpt lat="42.63139761590617" lon="11.279406566021418"><ele>231.0</ele><time>2026-03-29T13:38:47.901Z</time></trkpt><trkpt lat="42.63126098130446" lon="11.27931668691686"><ele>231.0</ele><time>2026-03-29T13:38:48.901Z</time></trkpt><trkpt lat="42.631138805972704" lon="11.279244920526429"><ele>231.0</ele><time>2026-03-29T13:38:49.901Z</time></trkpt><trkpt lat="42.63101245692717" lon="11.279198080574224"><ele>230.75</ele><time>2026-03-29T13:38:50.901Z</time></trkpt><trkpt lat="42.6308890855239" lon="11.279184991592576"><ele>230.5</ele><time>2026-03-29T13:38:51.901Z</time></trkpt><trkpt lat="42.63076505437888" lon="11.279191692913297"><ele>230.25</ele><time>2026-03-29T13:38:52.901Z</time></trkpt><trkpt lat="42.63063831868126" lon="11.279201990745316"><ele>230.0</ele><time>2026-03-29T13:38:53.901Z</time></trkpt><trkpt lat="42.63051268592749" lon="11.279214455943654"><ele>230.0</ele><time>2026-03-29T13:38:54.901Z</time></trkpt><trkpt lat="42.63038582643111" lon="11.279237031566613"><ele>230.0</ele><time>2026-03-29T13:38:55.901Z</time></trkpt><trkpt lat="42.63026067435797" lon="11.279282162594386"><ele>230.0</ele><time>2026-03-29T13:38:56.901Z</time></trkpt><trkpt lat="42.63014219506199" lon="11.279349319698063"><ele>230.0</ele><time>2026-03-29T13:38:57.901Z</time></trkpt><trkpt lat="42.63003105537715" lon="11.279441666883237"><ele>230.75</ele><time>2026-03-29T13:38:58.9Z</time></trkpt><trkpt lat="42.62991862025487" lon="11.279538673503906"><ele>231.5</ele><time>2026-03-29T13:38:59.9Z</time></trkpt><trkpt lat="42.62980054255718" lon="11.279631472299277"><ele>232.25</ele><time>2026-03-29T13:39:00.9Z</time></trkpt><trkpt lat="42.629691635350774" lon="11.279726417139026"><ele>233.0</ele><time>2026-03-29T13:39:01.9Z</time></trkpt><trkpt lat="42.62957486184739" lon="11.279832004284124"><ele>232.75</ele><time>2026-03-29T13:39:02.9Z</time></trkpt><trkpt lat="42.629451994244874" lon="11.279944320741286"><ele>232.5</ele><time>2026-03-29T13:39:03.9Z</time></trkpt><trkpt lat="42.629334252238245" lon="11.280049720071773"><ele>232.25</ele><time>2026-03-29T13:39:04.9Z</time></trkpt><trkpt lat="42.62921020821986" lon="11.280145448133258"><ele>232.0</ele><time>2026-03-29T13:39:05.9Z</time></trkpt><trkpt lat="42.62908534619024" lon="11.280238583663191"><ele>232.0</ele><time>2026-03-29T13:39:06.9Z</time></trkpt><trkpt lat="42.62894920345132" lon="11.280335677372513"><ele>232.0</ele><time>2026-03-29T13:39:07.9Z</time></trkpt><trkpt lat="42.62881272630391" lon="11.280436028207166"><ele>232.0</ele><time>2026-03-29T13:39:08.9Z</time></trkpt><trkpt lat="42.62867853922568" lon="11.280532190763163"><ele>229.33333333333331</ele><time>2026-03-29T13:39:09.9Z</time></trkpt><trkpt lat="42.62854088299623" lon="11.280629795863959"><ele>226.66666666666669</ele><time>2026-03-29T13:39:10.9Z</time></trkpt><trkpt lat="42.62840070422538" lon="11.280727979554545"><ele>224.0</ele><time>2026-03-29T13:39:11.9Z</time></trkpt><trkpt lat="42.62825564861304" lon="11.280824838891542"><ele>224.0</ele><time>2026-03-29T13:39:12.9Z</time></trkpt><trkpt lat="42.62810799597504" lon="11.280900514776887"><ele>224.0</ele><time>2026-03-29T13:39:13.9Z</time></trkpt><trkpt lat="42.62795992641439" lon="11.28096120874701"><ele>224.0</ele><time>2026-03-29T13:39:14.9Z</time></trkpt><trkpt lat="42.62780756995638" lon="11.281019349388371"><ele>223.0</ele><time>2026-03-29T13:39:15.9Z</time></trkpt><trkpt lat="42.62764983773159" lon="11.281088125550347"><ele>222.0</ele><time>2026-03-29T13:39:16.9Z</time></trkpt><trkpt lat="42.62748830752437" lon="11.281149308450354"><ele>221.0</ele><time>2026-03-29T13:39:17.9Z</time></trkpt><trkpt lat="42.62732956592583" lon="11.28121008853773"><ele>221.0</ele><time>2026-03-29T13:39:18.9Z</time></trkpt><trkpt lat="42.62717145370885" lon="11.281262080749928"><ele>221.0</ele><time>2026-03-29T13:39:19.9Z</time></trkpt><trkpt lat="42.6270210206811" lon="11.281302304227719"><ele>221.0</ele><time>2026-03-29T13:39:20.9Z</time></trkpt><trkpt lat="42.6268659873949" lon="11.281362231071517"><ele>221.25</ele><time>2026-03-29T13:39:21.9Z</time></trkpt><trkpt lat="42.626717258631764" lon="11.281416752076963"><ele>221.5</ele><time>2026-03-29T13:39:22.9Z</time></trkpt><trkpt lat="42.62657658518904" lon="11.281462755335353"><ele>221.75</ele><time>2026-03-29T13:39:23.9Z</time></trkpt><trkpt lat="42.626438150847164" lon="11.28151083774791"><ele>222.0</ele><time>2026-03-29T13:39:24.9Z</time></trkpt><trkpt lat="42.62630329980442" lon="11.281561840296293"><ele>223.25</ele><time>2026-03-29T13:39:25.9Z</time></trkpt><trkpt lat="42.62617651736693" lon="11.281610861763124"><ele>224.5</ele><time>2026-03-29T13:39:26.9Z</time></trkpt><trkpt lat="42.62604474226802" lon="11.28166329645379"><ele>225.75</ele><time>2026-03-29T13:39:27.901Z</time></trkpt><trkpt lat="42.625914818246756" lon="11.281709470480717"><ele>227.0</ele><time>2026-03-29T13:39:28.902Z</time></trkpt><trkpt lat="42.62577568547229" lon="11.28177050142085"><ele>227.0</ele><time>2026-03-29T13:39:29.903Z</time></trkpt><trkpt lat="42.62564259367408" lon="11.28182934202012"><ele>227.0</ele><time>2026-03-29T13:39:30.904Z</time></trkpt><trkpt lat="42.62551815283516" lon="11.28187880865641"><ele>227.0</ele><time>2026-03-29T13:39:31.905Z</time></trkpt><trkpt lat="42.62539253961951" lon="11.281924763519873"><ele>227.0</ele><time>2026-03-29T13:39:32.906Z</time></trkpt><trkpt lat="42.6252619704926" lon="11.281962582156126"><ele>227.0</ele><time>2026-03-29T13:39:33.907Z</time></trkpt><trkpt lat="42.62513563013501" lon="11.28200931651095"><ele>227.0</ele><time>2026-03-29T13:39:34.908Z</time></trkpt><trkpt lat="42.62500637799651" lon="11.282060048190855"><ele>227.0</ele><time>2026-03-29T13:39:35.908Z</time></trkpt><trkpt lat="42.62488009489022" lon="11.282120776416301"><ele>227.0</ele><time>2026-03-29T13:39:36.909Z</time></trkpt><trkpt lat="42.62474846750746" lon="11.282179707638129"><ele>227.0</ele><time>2026-03-29T13:39:37.91Z</time></trkpt><trkpt lat="42.62461171645352" lon="11.28224742846241"><ele>227.0</ele><time>2026-03-29T13:39:38.91Z</time></trkpt><trkpt lat="42.62447653377963" lon="11.282318410559506"><ele>227.0</ele><time>2026-03-29T13:39:39.911Z</time></trkpt><trkpt lat="42.62434203186138" lon="11.282383498744137"><ele>227.0</ele><time>2026-03-29T13:39:40.911Z</time></trkpt><trkpt lat="42.624204241365724" lon="11.282453063712317"><ele>225.0</ele><time>2026-03-29T13:39:41.912Z</time></trkpt><trkpt lat="42.624070868441756" lon="11.282523073570683"><ele>223.0</ele><time>2026-03-29T13:39:42.912Z</time></trkpt><trkpt lat="42.62393667984895" lon="11.282589230075716"><ele>221.0</ele><time>2026-03-29T13:39:43.913Z</time></trkpt><trkpt lat="42.62379719408369" lon="11.28265529028756"><ele>219.0</ele><time>2026-03-29T13:39:44.913Z</time></trkpt><trkpt lat="42.623656937929155" lon="11.282728292170397"><ele>216.75</ele><time>2026-03-29T13:39:45.913Z</time></trkpt><trkpt lat="42.62352143733873" lon="11.282793968454"><ele>214.5</ele><time>2026-03-29T13:39:46.914Z</time></trkpt><trkpt lat="42.62339048550052" lon="11.282858841795527"><ele>212.25</ele><time>2026-03-29T13:39:47.914Z</time></trkpt><trkpt lat="42.62326611889608" lon="11.28293113650153"><ele>210.0</ele><time>2026-03-29T13:39:48.914Z</time></trkpt><trkpt lat="42.6231549740441" lon="11.283032207927668"><ele>209.75</ele><time>2026-03-29T13:39:49.915Z</time></trkpt><trkpt lat="42.62305868916344" lon="11.283149508024994"><ele>209.5</ele><time>2026-03-29T13:39:50.915Z</time></trkpt><trkpt lat="42.62297121755328" lon="11.28328549251521"><ele>209.25</ele><time>2026-03-29T13:39:51.915Z</time></trkpt><trkpt lat="42.62289363522669" lon="11.283438106003084"><ele>209.0</ele><time>2026-03-29T13:39:52.915Z</time></trkpt><trkpt lat="42.62281094057835" lon="11.283582691002273"><ele>208.0</ele><time>2026-03-29T13:39:53.915Z</time></trkpt><trkpt lat="42.622741713855504" lon="11.283762438298348"><ele>207.0</ele><time>2026-03-29T13:39:54.916Z</time></trkpt><trkpt lat="42.62264357968004" lon="11.283927482307675"><ele>206.0</ele><time>2026-03-29T13:39:55.916Z</time></trkpt><trkpt lat="42.6225673584284" lon="11.284096505466055"><ele>205.33333333333334</ele><time>2026-03-29T13:39:56.916Z</time></trkpt><trkpt lat="42.62248274783037" lon="11.284271552685858"><ele>204.66666666666669</ele><time>2026-03-29T13:39:57.916Z</time></trkpt><trkpt lat="42.62240298976705" lon="11.284447684203453"><ele>204.0</ele><time>2026-03-29T13:39:58.916Z</time></trkpt><trkpt lat="42.6223206466376" lon="11.284611860624606"><ele>203.66666666666669</ele><time>2026-03-29T13:39:59.916Z</time></trkpt><trkpt lat="42.62223696740093" lon="11.284783342575269"><ele>203.33333333333334</ele><time>2026-03-29T13:40:00.917Z</time></trkpt><trkpt lat="42.62215476065844" lon="11.284956651960657"><ele>203.0</ele><time>2026-03-29T13:40:01.917Z</time></trkpt><trkpt lat="42.62206968474427" lon="11.285134285056436"><ele>203.0</ele><time>2026-03-29T13:40:02.917Z</time></trkpt><trkpt lat="42.62199068309895" lon="11.285314255343957"><ele>203.0</ele><time>2026-03-29T13:40:03.917Z</time></trkpt><trkpt lat="42.62191466120821" lon="11.285502510890037"><ele>203.0</ele><time>2026-03-29T13:40:04.917Z</time></trkpt><trkpt lat="42.62184635025668" lon="11.285704256923811"><ele>204.0</ele><time>2026-03-29T13:40:05.917Z</time></trkpt><trkpt lat="42.621775705586444" lon="11.285905870513847"><ele>205.0</ele><time>2026-03-29T13:40:06.917Z</time></trkpt><trkpt lat="42.62171368569209" lon="11.286105256095624"><ele>206.0</ele><time>2026-03-29T13:40:07.917Z</time></trkpt><trkpt lat="42.62165690752381" lon="11.286310317485805"><ele>203.33333333333334</ele><time>2026-03-29T13:40:08.917Z</time></trkpt><trkpt lat="42.62160214030121" lon="11.286521842093734"><ele>200.66666666666669</ele><time>2026-03-29T13:40:09.917Z</time></trkpt><trkpt lat="42.62154330999119" lon="11.286727893303475"><ele>198.0</ele><time>2026-03-29T13:40:10.917Z</time></trkpt><trkpt lat="42.621479082367" lon="11.286925161452741"><ele>198.0</ele><time>2026-03-29T13:40:11.917Z</time></trkpt><trkpt lat="42.62141276221473" lon="11.287122803546348"><ele>198.0</ele><time>2026-03-29T13:40:12.917Z</time></trkpt><trkpt lat="42.621345522408504" lon="11.287319515435618"><ele>198.0</ele><time>2026-03-29T13:40:13.917Z</time></trkpt><trkpt lat="42.62126374049409" lon="11.287504925451309"><ele>195.66666666666666</ele><time>2026-03-29T13:40:14.919Z</time></trkpt><trkpt lat="42.62117910909807" lon="11.287696710348538"><ele>193.33333333333331</ele><time>2026-03-29T13:40:15.918Z</time></trkpt><trkpt lat="42.62109524611467" lon="11.28787939486805"><ele>191.0</ele><time>2026-03-29T13:40:16.918Z</time></trkpt><trkpt lat="42.62100889338278" lon="11.28806652498852"><ele>192.66666666666666</ele><time>2026-03-29T13:40:17.919Z</time></trkpt><trkpt lat="42.62092174995512" lon="11.288248953892689"><ele>194.33333333333331</ele><time>2026-03-29T13:40:18.918Z</time></trkpt><trkpt lat="42.62083185561226" lon="11.288436977013323"><ele>196.0</ele><time>2026-03-29T13:40:19.918Z</time></trkpt><trkpt lat="42.62074398892086" lon="11.288621878302237"><ele>196.0</ele><time>2026-03-29T13:40:20.918Z</time></trkpt><trkpt lat="42.620650078171124" lon="11.28879161099227"><ele>196.0</ele><time>2026-03-29T13:40:21.918Z</time></trkpt><trkpt lat="42.62054365398265" lon="11.288942849436738"><ele>196.0</ele><time>2026-03-29T13:40:22.918Z</time></trkpt><trkpt lat="42.620426772720414" lon="11.289074060787065"><ele>199.66666666666666</ele><time>2026-03-29T13:40:23.918Z</time></trkpt><trkpt lat="42.620299266111175" lon="11.289184102509251"><ele>203.33333333333331</ele><time>2026-03-29T13:40:24.918Z</time></trkpt><trkpt lat="42.6201701099162" lon="11.28929343105186"><ele>207.0</ele><time>2026-03-29T13:40:25.918Z</time></trkpt><trkpt lat="42.6200414346333" lon="11.28941232609612"><ele>207.0</ele><time>2026-03-29T13:40:26.919Z</time></trkpt><trkpt lat="42.61990696128082" lon="11.289530908152178"><ele>207.0</ele><time>2026-03-29T13:40:27.918Z</time></trkpt><trkpt lat="42.61977686036256" lon="11.289649473832219"><ele>207.0</ele><time>2026-03-29T13:40:28.918Z</time></trkpt><trkpt lat="42.61964971481474" lon="11.289764145675596"><ele>206.5</ele><time>2026-03-29T13:40:29.918Z</time></trkpt><trkpt lat="42.619527256790604" lon="11.2898714356242"><ele>206.0</ele><time>2026-03-29T13:40:30.918Z</time></trkpt><trkpt lat="42.61940649382008" lon="11.289986290520401"><ele>205.5</ele><time>2026-03-29T13:40:31.918Z</time></trkpt><trkpt lat="42.61929064210321" lon="11.29011047242363"><ele>205.0</ele><time>2026-03-29T13:40:32.918Z</time></trkpt><trkpt lat="42.619180546985056" lon="11.290238335738849"><ele>205.0</ele><time>2026-03-29T13:40:33.918Z</time></trkpt><trkpt lat="42.61907711520215" lon="11.29036226993484"><ele>205.0</ele><time>2026-03-29T13:40:34.918Z</time></trkpt><trkpt lat="42.618976320496856" lon="11.290488690835252"><ele>205.0</ele><time>2026-03-29T13:40:35.918Z</time></trkpt><trkpt lat="42.618877748767154" lon="11.290619334961594"><ele>205.0</ele><time>2026-03-29T13:40:36.918Z</time></trkpt><trkpt lat="42.618778146001695" lon="11.290747631075664"><ele>203.0</ele><time>2026-03-29T13:40:37.918Z</time></trkpt><trkpt lat="42.61866816155827" lon="11.290868486677777"><ele>201.0</ele><time>2026-03-29T13:40:38.918Z</time></trkpt><trkpt lat="42.61854721977357" lon="11.290968553171712"><ele>199.0</ele><time>2026-03-29T13:40:39.918Z</time></trkpt><trkpt lat="42.61840957542273" lon="11.291034982539209"><ele>197.0</ele><time>2026-03-29T13:40:40.918Z</time></trkpt><trkpt lat="42.61826708956388" lon="11.291054549526606"><ele>196.75</ele><time>2026-03-29T13:40:41.918Z</time></trkpt><trkpt lat="42.61812296330957" lon="11.291046621955287"><ele>196.5</ele><time>2026-03-29T13:40:42.918Z</time></trkpt><trkpt lat="42.61797723836421" lon="11.291042116917787"><ele>196.25</ele><time>2026-03-29T13:40:43.918Z</time></trkpt><trkpt lat="42.61782669252706" lon="11.291029572123168"><ele>196.0</ele><time>2026-03-29T13:40:44.918Z</time></trkpt><trkpt lat="42.61767488111224" lon="11.291020062751922"><ele>192.0</ele><time>2026-03-29T13:40:45.918Z</time></trkpt><trkpt lat="42.61752193278718" lon="11.291009578264086"><ele>188.0</ele><time>2026-03-29T13:40:46.918Z</time></trkpt><trkpt lat="42.61736879795759" lon="11.291002177316162"><ele>184.0</ele><time>2026-03-29T13:40:47.918Z</time></trkpt><trkpt lat="42.61721680467683" lon="11.29099633059266"><ele>184.0</ele><time>2026-03-29T13:40:48.918Z</time></trkpt><trkpt lat="42.617061344111626" lon="11.290990428764164"><ele>184.0</ele><time>2026-03-29T13:40:49.918Z</time></trkpt><trkpt lat="42.61689966637907" lon="11.290995348806915"><ele>184.0</ele><time>2026-03-29T13:40:50.918Z</time></trkpt><trkpt lat="42.61673769149204" lon="11.291006116078437"><ele>181.0</ele><time>2026-03-29T13:40:51.918Z</time></trkpt><trkpt lat="42.616577615806904" lon="11.291023786121247"><ele>178.0</ele><time>2026-03-29T13:40:52.918Z</time></trkpt><trkpt lat="42.61641760564599" lon="11.291047358091847"><ele>175.0</ele><time>2026-03-29T13:40:53.918Z</time></trkpt><trkpt lat="42.61626003226101" lon="11.291081517769086"><ele>172.0</ele><time>2026-03-29T13:40:54.918Z</time></trkpt><trkpt lat="42.61610331086956" lon="11.291100747522853"><ele>169.0</ele><time>2026-03-29T13:40:55.918Z</time></trkpt><trkpt lat="42.61595856429651" lon="11.291114470353962"><ele>166.0</ele><time>2026-03-29T13:40:56.918Z</time></trkpt><trkpt lat="42.61582061337398" lon="11.291129270329284"><ele>163.0</ele><time>2026-03-29T13:40:57.918Z</time></trkpt><trkpt lat="42.615691196056346" lon="11.29115141178755"><ele>163.0</ele><time>2026-03-29T13:40:58.918Z</time></trkpt><trkpt lat="42.615555624691766" lon="11.291161382104045"><ele>163.0</ele><time>2026-03-29T13:40:59.918Z</time></trkpt><trkpt lat="42.615424130295004" lon="11.291224763683534"><ele>163.0</ele><time>2026-03-29T13:41:00.918Z</time></trkpt><trkpt lat="42.615297842564146" lon="11.291305423980472"><ele>163.0</ele><time>2026-03-29T13:41:01.918Z</time></trkpt><trkpt lat="42.615189428020216" lon="11.291426741732296"><ele>162.0</ele><time>2026-03-29T13:41:02.918Z</time></trkpt><trkpt lat="42.615083918146006" lon="11.29155306988336"><ele>161.0</ele><time>2026-03-29T13:41:03.918Z</time></trkpt><trkpt lat="42.614983854904274" lon="11.291653140102724"><ele>160.0</ele><time>2026-03-29T13:41:04.918Z</time></trkpt><trkpt lat="42.614891965429514" lon="11.291734515884182"><ele>159.0</ele><time>2026-03-29T13:41:05.918Z</time></trkpt><trkpt lat="42.61479379331911" lon="11.291796215137898"><ele>159.0</ele><time>2026-03-29T13:41:06.918Z</time></trkpt><trkpt lat="42.6146739206452" lon="11.29182543853396"><ele>159.0</ele><time>2026-03-29T13:41:07.918Z</time></trkpt><trkpt lat="42.61454382952508" lon="11.291816892315465"><ele>159.0</ele><time>2026-03-29T13:41:08.918Z</time></trkpt><trkpt lat="42.6144059580042" lon="11.291793337451422"><ele>159.0</ele><time>2026-03-29T13:41:09.918Z</time></trkpt><trkpt lat="42.61426030220298" lon="11.291774082392099"><ele>155.0</ele><time>2026-03-29T13:41:10.918Z</time></trkpt><trkpt lat="42.61411158322691" lon="11.291758427647808"><ele>151.0</ele><time>2026-03-29T13:41:11.918Z</time></trkpt><trkpt lat="42.61395627651187" lon="11.29173092102017"><ele>147.0</ele><time>2026-03-29T13:41:12.918Z</time></trkpt><trkpt lat="42.61379508284434" lon="11.291710680916673"><ele>145.0</ele><time>2026-03-29T13:41:13.918Z</time></trkpt><trkpt lat="42.61362703057085" lon="11.29170048767778"><ele>143.0</ele><time>2026-03-29T13:41:14.917Z</time></trkpt><trkpt lat="42.61345456987262" lon="11.291705153372414"><ele>141.0</ele><time>2026-03-29T13:41:15.917Z</time></trkpt><trkpt lat="42.61327754861548" lon="11.29172682445118"><ele>141.0</ele><time>2026-03-29T13:41:16.917Z</time></trkpt><trkpt lat="42.61309669260453" lon="11.291753352531645"><ele>141.0</ele><time>2026-03-29T13:41:17.917Z</time></trkpt><trkpt lat="42.61291457968609" lon="11.29178076882635"><ele>141.0</ele><time>2026-03-29T13:41:18.917Z</time></trkpt><trkpt lat="42.61273776555678" lon="11.291810236938739"><ele>139.33333333333334</ele><time>2026-03-29T13:41:19.917Z</time></trkpt><trkpt lat="42.61256079897365" lon="11.291836856522929"><ele>137.66666666666669</ele><time>2026-03-29T13:41:20.917Z</time></trkpt><trkpt lat="42.61238800074419" lon="11.291868451694016"><ele>136.0</ele><time>2026-03-29T13:41:21.917Z</time></trkpt><trkpt lat="42.61222016610459" lon="11.291898063538671"><ele>136.0</ele><time>2026-03-29T13:41:22.917Z</time></trkpt><trkpt lat="42.61205201168563" lon="11.291930453730155"><ele>136.0</ele><time>2026-03-29T13:41:23.917Z</time></trkpt><trkpt lat="42.61188694632843" lon="11.2919645322267"><ele>136.0</ele><time>2026-03-29T13:41:24.917Z</time></trkpt><trkpt lat="42.611720836607645" lon="11.291998312552527"><ele>134.33333333333334</ele><time>2026-03-29T13:41:25.917Z</time></trkpt><trkpt lat="42.61155905734963" lon="11.292035988886628"><ele>132.66666666666666</ele><time>2026-03-29T13:41:26.917Z</time></trkpt><trkpt lat="42.611398076887156" lon="11.292056125715636"><ele>131.0</ele><time>2026-03-29T13:41:27.917Z</time></trkpt><trkpt lat="42.611234509737" lon="11.292093369258325"><ele>128.66666666666666</ele><time>2026-03-29T13:41:28.917Z</time></trkpt><trkpt lat="42.6110710188554" lon="11.292136313038695"><ele>126.33333333333334</ele><time>2026-03-29T13:41:29.917Z</time></trkpt><trkpt lat="42.61090781091345" lon="11.29218121282272"><ele>124.0</ele><time>2026-03-29T13:41:30.917Z</time></trkpt><trkpt lat="42.61074834049515" lon="11.292228128203243"><ele>124.33333333333334</ele><time>2026-03-29T13:41:31.917Z</time></trkpt><trkpt lat="42.61058856896774" lon="11.292273108964695"><ele>124.66666666666666</ele><time>2026-03-29T13:41:32.917Z</time></trkpt><trkpt lat="42.61042532576888" lon="11.292306781204482"><ele>125.0</ele><time>2026-03-29T13:41:33.917Z</time></trkpt><trkpt lat="42.61026107122621" lon="11.292327672471929"><ele>122.66666666666666</ele><time>2026-03-29T13:41:34.917Z</time></trkpt><trkpt lat="42.61009232003998" lon="11.29234260522256"><ele>120.33333333333334</ele><time>2026-03-29T13:41:35.917Z</time></trkpt><trkpt lat="42.60992315930404" lon="11.292347742028282"><ele>118.0</ele><time>2026-03-29T13:41:36.917Z</time></trkpt><trkpt lat="42.60975301938301" lon="11.29235884632886"><ele>118.0</ele><time>2026-03-29T13:41:37.917Z</time></trkpt><trkpt lat="42.60958491603728" lon="11.292368354062743"><ele>118.0</ele><time>2026-03-29T13:41:38.917Z</time></trkpt><trkpt lat="42.609415261951504" lon="11.292379974419509"><ele>118.0</ele><time>2026-03-29T13:41:39.917Z</time></trkpt><trkpt lat="42.609244121233814" lon="11.292398495511748"><ele>117.33333333333334</ele><time>2026-03-29T13:41:40.917Z</time></trkpt><trkpt lat="42.609081469481154" lon="11.292435753411926"><ele>116.66666666666666</ele><time>2026-03-29T13:41:41.917Z</time></trkpt><trkpt lat="42.6089223448333" lon="11.292494834469254"><ele>116.0</ele><time>2026-03-29T13:41:42.917Z</time></trkpt><trkpt lat="42.608768975065644" lon="11.292562925793657"><ele>115.0</ele><time>2026-03-29T13:41:43.917Z</time></trkpt><trkpt lat="42.60861804129477" lon="11.292632688392402"><ele>114.0</ele><time>2026-03-29T13:41:44.917Z</time></trkpt><trkpt lat="42.60846962261801" lon="11.292696747776969"><ele>113.0</ele><time>2026-03-29T13:41:45.917Z</time></trkpt><trkpt lat="42.608321008647565" lon="11.292754825616585"><ele>113.0</ele><time>2026-03-29T13:41:46.917Z</time></trkpt><trkpt lat="42.60817079015897" lon="11.292795888645312"><ele>113.0</ele><time>2026-03-29T13:41:47.917Z</time></trkpt><trkpt lat="42.60801791971884" lon="11.292823715036693"><ele>113.0</ele><time>2026-03-29T13:41:48.916Z</time></trkpt><trkpt lat="42.607868851741735" lon="11.29283892933387"><ele>112.0</ele><time>2026-03-29T13:41:49.916Z</time></trkpt><trkpt lat="42.607717458061906" lon="11.29286362808843"><ele>111.0</ele><time>2026-03-29T13:41:50.916Z</time></trkpt><trkpt lat="42.60757156719616" lon="11.292882070316386"><ele>110.0</ele><time>2026-03-29T13:41:51.916Z</time></trkpt><trkpt lat="42.60742933934889" lon="11.29291150313745"><ele>109.0</ele><time>2026-03-29T13:41:52.915Z</time></trkpt><trkpt lat="42.60729649677083" lon="11.292963229220982"><ele>109.0</ele><time>2026-03-29T13:41:53.915Z</time></trkpt><trkpt lat="42.60717317505708" lon="11.29304525220182"><ele>109.0</ele><time>2026-03-29T13:41:54.915Z</time></trkpt><trkpt lat="42.60706412480977" lon="11.293138211439276"><ele>109.0</ele><time>2026-03-29T13:41:55.915Z</time></trkpt><trkpt lat="42.606958049929816" lon="11.293209047510263"><ele>109.0</ele><time>2026-03-29T13:41:56.915Z</time></trkpt><trkpt lat="42.606853832820455" lon="11.293243112021065"><ele>108.6</ele><time>2026-03-29T13:41:57.915Z</time></trkpt><trkpt lat="42.6067556934502" lon="11.293250618940286"><ele>108.2</ele><time>2026-03-29T13:41:58.915Z</time></trkpt><trkpt lat="42.6066638918501" lon="11.29322335069433"><ele>107.79999999999998</ele><time>2026-03-29T13:41:59.915Z</time></trkpt><trkpt lat="42.606564413352785" lon="11.293176790363866"><ele>107.39999999999999</ele><time>2026-03-29T13:42:00.915Z</time></trkpt><trkpt lat="42.606464485597584" lon="11.293121170354443"><ele>107.0</ele><time>2026-03-29T13:42:01.915Z</time></trkpt><trkpt lat="42.606363452125535" lon="11.293067819611915"><ele>107.0</ele><time>2026-03-29T13:42:02.915Z</time></trkpt><trkpt lat="42.60624709756919" lon="11.293017712281467"><ele>107.0</ele><time>2026-03-29T13:42:03.915Z</time></trkpt><trkpt lat="42.60612292253956" lon="11.292989862252643"><ele>107.0</ele><time>2026-03-29T13:42:04.915Z</time></trkpt><trkpt lat="42.60599111574651" lon="11.292973516660847"><ele>107.0</ele><time>2026-03-29T13:42:05.915Z</time></trkpt><trkpt lat="42.60585707098917" lon="11.292978810924541"><ele>106.25</ele><time>2026-03-29T13:42:06.915Z</time></trkpt><trkpt lat="42.60572045589089" lon="11.292990033297334"><ele>105.5</ele><time>2026-03-29T13:42:07.915Z</time></trkpt><trkpt lat="42.605584986432575" lon="11.292998667259212"><ele>104.75</ele><time>2026-03-29T13:42:08.915Z</time></trkpt><trkpt lat="42.60545212449844" lon="11.293017811104107"><ele>104.0</ele><time>2026-03-29T13:42:09.915Z</time></trkpt><trkpt lat="42.60532144066181" lon="11.293053819705708"><ele>102.0</ele><time>2026-03-29T13:42:10.915Z</time></trkpt><trkpt lat="42.605191385557596" lon="11.293085674394694"><ele>100.0</ele><time>2026-03-29T13:42:11.915Z</time></trkpt><trkpt lat="42.605070990743464" lon="11.293104048668374"><ele>98.0</ele><time>2026-03-29T13:42:12.915Z</time></trkpt><trkpt lat="42.60494328527458" lon="11.293098230344022"><ele>96.0</ele><time>2026-03-29T13:42:13.915Z</time></trkpt><trkpt lat="42.60482471534113" lon="11.293080226518763"><ele>96.0</ele><time>2026-03-29T13:42:14.915Z</time></trkpt><trkpt lat="42.6047095396925" lon="11.293061268992309"><ele>96.0</ele><time>2026-03-29T13:42:15.915Z</time></trkpt><trkpt lat="42.60459904154448" lon="11.293044338564991"><ele>96.0</ele><time>2026-03-29T13:42:16.915Z</time></trkpt><trkpt lat="42.60450319187474" lon="11.293034383861833"><ele>96.0</ele><time>2026-03-29T13:42:17.915Z</time></trkpt><trkpt lat="42.60442574034985" lon="11.293028284072232"><ele>96.0</ele><time>2026-03-29T13:42:18.915Z</time></trkpt><trkpt lat="42.604329274737026" lon="11.293043339672117"><ele>94.4</ele><time>2026-03-29T13:42:20.916Z</time></trkpt><trkpt lat="42.604245973574585" lon="11.292903336974005"><ele>92.8</ele><time>2026-03-29T13:42:22.916Z</time></trkpt><trkpt lat="42.60420316301434" lon="11.292823122491706"><ele>91.2</ele><time>2026-03-29T13:42:23.916Z</time></trkpt><trkpt lat="42.60416352835306" lon="11.292717350863496"><ele>89.60000000000001</ele><time>2026-03-29T13:42:24.916Z</time></trkpt><trkpt lat="42.60410752606435" lon="11.292594814183325"><ele>88.0</ele><time>2026-03-29T13:42:25.916Z</time></trkpt><trkpt lat="42.6040394872047" lon="11.292460082156293"><ele>88.0</ele><time>2026-03-29T13:42:26.916Z</time></trkpt><trkpt lat="42.603946429887685" lon="11.292341527195454"><ele>88.0</ele><time>2026-03-29T13:42:27.916Z</time></trkpt><trkpt lat="42.60382725159604" lon="11.29223981597586"><ele>88.0</ele><time>2026-03-29T13:42:28.916Z</time></trkpt><trkpt lat="42.603690885754055" lon="11.292165902356745"><ele>88.0</ele><time>2026-03-29T13:42:29.916Z</time></trkpt><trkpt lat="42.60353709814117" lon="11.292126804177151"><ele>87.0</ele><time>2026-03-29T13:42:30.916Z</time></trkpt><trkpt lat="42.60337741453326" lon="11.29210151455321"><ele>86.0</ele><time>2026-03-29T13:42:31.916Z</time></trkpt><trkpt lat="42.60322438952369" lon="11.292049052725279"><ele>85.0</ele><time>2026-03-29T13:42:32.916Z</time></trkpt><trkpt lat="42.603077862852466" lon="11.291958851461175"><ele>85.0</ele><time>2026-03-29T13:42:33.916Z</time></trkpt><trkpt lat="42.60294355793274" lon="11.291830834772778"><ele>85.0</ele><time>2026-03-29T13:42:34.916Z</time></trkpt><trkpt lat="42.60281912377008" lon="11.291666765020073"><ele>85.0</ele><time>2026-03-29T13:42:35.916Z</time></trkpt><trkpt lat="42.60270048007906" lon="11.291485203645596"><ele>84.33333333333333</ele><time>2026-03-29T13:42:36.916Z</time></trkpt><trkpt lat="42.602591199859766" lon="11.291286961908902"><ele>83.66666666666667</ele><time>2026-03-29T13:42:37.916Z</time></trkpt><trkpt lat="42.60249149395736" lon="11.291079388261002"><ele>83.0</ele><time>2026-03-29T13:42:38.916Z</time></trkpt><trkpt lat="42.60239500774146" lon="11.290870996875128"><ele>83.0</ele><time>2026-03-29T13:42:39.916Z</time></trkpt><trkpt lat="42.60230593264247" lon="11.29066219183437"><ele>83.0</ele><time>2026-03-29T13:42:40.916Z</time></trkpt><trkpt lat="42.602217921996065" lon="11.290462226779821"><ele>83.0</ele><time>2026-03-29T13:42:41.916Z</time></trkpt><trkpt lat="42.60212864687317" lon="11.290268986483213"><ele>84.0</ele><time>2026-03-29T13:42:42.916Z</time></trkpt><trkpt lat="42.602039282736094" lon="11.290074220692773"><ele>85.0</ele><time>2026-03-29T13:42:43.916Z</time></trkpt><trkpt lat="42.60195744654876" lon="11.289867655335247"><ele>86.0</ele><time>2026-03-29T13:42:44.916Z</time></trkpt><trkpt lat="42.60187578918608" lon="11.289657331922296"><ele>86.0</ele><time>2026-03-29T13:42:45.916Z</time></trkpt><trkpt lat="42.60179071903867" lon="11.28945168600251"><ele>86.0</ele><time>2026-03-29T13:42:46.916Z</time></trkpt><trkpt lat="42.60170204476244" lon="11.289256108420451"><ele>86.0</ele><time>2026-03-29T13:42:47.916Z</time></trkpt><trkpt lat="42.601601730313405" lon="11.289074974405096"><ele>84.0</ele><time>2026-03-29T13:42:48.916Z</time></trkpt><trkpt lat="42.60149321085898" lon="11.288918622917507"><ele>82.0</ele><time>2026-03-29T13:42:49.916Z</time></trkpt><trkpt lat="42.601371728146454" lon="11.288790796371899"><ele>80.0</ele><time>2026-03-29T13:42:50.916Z</time></trkpt><trkpt lat="42.60123557701134" lon="11.288693721862362"><ele>82.0</ele><time>2026-03-29T13:42:51.916Z</time></trkpt><trkpt lat="42.601085578418044" lon="11.288616096211857"><ele>84.0</ele><time>2026-03-29T13:42:52.916Z</time></trkpt><trkpt lat="42.600925735949616" lon="11.288560529910285"><ele>86.0</ele><time>2026-03-29T13:42:53.916Z</time></trkpt><trkpt lat="42.60076418347545" lon="11.288525582218234"><ele>86.0</ele><time>2026-03-29T13:42:54.916Z</time></trkpt><trkpt lat="42.60059975925372" lon="11.288500771250696"><ele>86.0</ele><time>2026-03-29T13:42:55.916Z</time></trkpt><trkpt lat="42.60043676298541" lon="11.288472368551865"><ele>86.0</ele><time>2026-03-29T13:42:56.916Z</time></trkpt><trkpt lat="42.60028313135671" lon="11.288446512571241"><ele>86.5</ele><time>2026-03-29T13:42:57.916Z</time></trkpt><trkpt lat="42.600134423641215" lon="11.288424538827604"><ele>87.0</ele><time>2026-03-29T13:42:58.916Z</time></trkpt><trkpt lat="42.59998833052584" lon="11.288401979243067"><ele>87.5</ele><time>2026-03-29T13:42:59.916Z</time></trkpt><trkpt lat="42.59984419360467" lon="11.288378905746717"><ele>88.0</ele><time>2026-03-29T13:43:00.916Z</time></trkpt><trkpt lat="42.59970031518162" lon="11.28835156633348"><ele>88.0</ele><time>2026-03-29T13:43:01.916Z</time></trkpt><trkpt lat="42.59955629544803" lon="11.288319424854162"><ele>88.0</ele><time>2026-03-29T13:43:02.916Z</time></trkpt><trkpt lat="42.599405186226114" lon="11.28829735758037"><ele>88.0</ele><time>2026-03-29T13:43:03.915Z</time></trkpt><trkpt lat="42.5992509465929" lon="11.288291071696833"><ele>89.0</ele><time>2026-03-29T13:43:04.915Z</time></trkpt><trkpt lat="42.59909753363592" lon="11.288308860230076"><ele>90.0</ele><time>2026-03-29T13:43:05.915Z</time></trkpt><trkpt lat="42.59895137434599" lon="11.28835339221917"><ele>91.0</ele><time>2026-03-29T13:43:06.915Z</time></trkpt><trkpt lat="42.59881034655241" lon="11.288428937806623"><ele>91.0</ele><time>2026-03-29T13:43:07.915Z</time></trkpt><trkpt lat="42.598669373605226" lon="11.28853428848945"><ele>91.0</ele><time>2026-03-29T13:43:08.915Z</time></trkpt><trkpt lat="42.59852724220532" lon="11.288655872688198"><ele>91.0</ele><time>2026-03-29T13:43:09.915Z</time></trkpt><trkpt lat="42.59839141149023" lon="11.28878167957365"><ele>91.66666666666666</ele><time>2026-03-29T13:43:10.915Z</time></trkpt><trkpt lat="42.59825728662832" lon="11.288903423346554"><ele>92.33333333333333</ele><time>2026-03-29T13:43:11.915Z</time></trkpt><trkpt lat="42.59812137422882" lon="11.2890146934967"><ele>93.0</ele><time>2026-03-29T13:43:12.915Z</time></trkpt><trkpt lat="42.59798394986342" lon="11.289106520581699"><ele>93.0</ele><time>2026-03-29T13:43:13.915Z</time></trkpt><trkpt lat="42.597841050397214" lon="11.289159165388195"><ele>93.0</ele><time>2026-03-29T13:43:14.915Z</time></trkpt><trkpt lat="42.59770154086668" lon="11.289162381120418"><ele>93.0</ele><time>2026-03-29T13:43:15.915Z</time></trkpt><trkpt lat="42.597565304281545" lon="11.28912126148599"><ele>93.0</ele><time>2026-03-29T13:43:16.915Z</time></trkpt><trkpt lat="42.597429466910214" lon="11.289040924415325"><ele>91.5</ele><time>2026-03-29T13:43:17.915Z</time></trkpt><trkpt lat="42.59730808320662" lon="11.288933589806346"><ele>90.0</ele><time>2026-03-29T13:43:18.915Z</time></trkpt><trkpt lat="42.59720541891831" lon="11.288791524686"><ele>88.5</ele><time>2026-03-29T13:43:19.915Z</time></trkpt><trkpt lat="42.597127275787585" lon="11.288618811042156"><ele>87.0</ele><time>2026-03-29T13:43:20.915Z</time></trkpt><trkpt lat="42.5970631127975" lon="11.288417844977577"><ele>86.33333333333333</ele><time>2026-03-29T13:43:21.915Z</time></trkpt><trkpt lat="42.59699773385623" lon="11.288206661871008"><ele>85.66666666666666</ele><time>2026-03-29T13:43:22.915Z</time></trkpt><trkpt lat="42.596927980977235" lon="11.288001448859672"><ele>85.0</ele><time>2026-03-29T13:43:23.915Z</time></trkpt><trkpt lat="42.596859104499934" lon="11.287810101389324"><ele>85.0</ele><time>2026-03-29T13:43:24.915Z</time></trkpt><trkpt lat="42.59678004714454" lon="11.287624119099348"><ele>85.0</ele><time>2026-03-29T13:43:25.915Z</time></trkpt><trkpt lat="42.59668570989645" lon="11.287439651037085"><ele>85.0</ele><time>2026-03-29T13:43:26.915Z</time></trkpt><trkpt lat="42.59657490488696" lon="11.28726533634937"><ele>83.66666666666666</ele><time>2026-03-29T13:43:27.915Z</time></trkpt><trkpt lat="42.59644550674827" lon="11.287103764563604"><ele>82.33333333333333</ele><time>2026-03-29T13:43:28.915Z</time></trkpt><trkpt lat="42.596300482689294" lon="11.286964446347593"><ele>81.0</ele><time>2026-03-29T13:43:29.915Z</time></trkpt><trkpt lat="42.59613956956797" lon="11.286856507397276"><ele>81.0</ele><time>2026-03-29T13:43:30.915Z</time></trkpt><trkpt lat="42.59596910405579" lon="11.286776767883799"><ele>81.0</ele><time>2026-03-29T13:43:31.915Z</time></trkpt><trkpt lat="42.59579435669836" lon="11.286722470245232"><ele>81.0</ele><time>2026-03-29T13:43:32.915Z</time></trkpt><trkpt lat="42.59560763097926" lon="11.286690111076181"><ele>81.0</ele><time>2026-03-29T13:43:33.915Z</time></trkpt><trkpt lat="42.59542071488958" lon="11.286677026934646"><ele>81.0</ele><time>2026-03-29T13:43:34.915Z</time></trkpt><trkpt lat="42.5952252035301" lon="11.286665475948736"><ele>81.0</ele><time>2026-03-29T13:43:35.915Z</time></trkpt><trkpt lat="42.59502675260897" lon="11.286653994748159"><ele>81.66666666666667</ele><time>2026-03-29T13:43:36.915Z</time></trkpt><trkpt lat="42.59482591821681" lon="11.286642891465693"><ele>82.33333333333334</ele><time>2026-03-29T13:43:37.915Z</time></trkpt><trkpt lat="42.59462317650193" lon="11.286639773844291"><ele>83.0</ele><time>2026-03-29T13:43:38.915Z</time></trkpt><trkpt lat="42.594428750306" lon="11.28663289314278"><ele>81.66666666666667</ele><time>2026-03-29T13:43:39.915Z</time></trkpt><trkpt lat="42.5942297245195" lon="11.286625468864015"><ele>80.33333333333333</ele><time>2026-03-29T13:43:40.914Z</time></trkpt><trkpt lat="42.594028562906644" lon="11.28659572229917"><ele>79.0</ele><time>2026-03-29T13:43:41.914Z</time></trkpt><trkpt lat="42.59383083961341" lon="11.286599757022072"><ele>78.33333333333333</ele><time>2026-03-29T13:43:42.914Z</time></trkpt><trkpt lat="42.59363063092062" lon="11.286584210227437"><ele>77.66666666666667</ele><time>2026-03-29T13:43:43.914Z</time></trkpt><trkpt lat="42.59342670478392" lon="11.28656595107138"><ele>77.0</ele><time>2026-03-29T13:43:44.914Z</time></trkpt><trkpt lat="42.59321653829348" lon="11.286551343768505"><ele>77.0</ele><time>2026-03-29T13:43:45.914Z</time></trkpt><trkpt lat="42.59300849522122" lon="11.286540670356422"><ele>77.0</ele><time>2026-03-29T13:43:46.914Z</time></trkpt><trkpt lat="42.59279969212952" lon="11.286528980423787"><ele>77.0</ele><time>2026-03-29T13:43:47.914Z</time></trkpt><trkpt lat="42.59259092280056" lon="11.286517678276592"><ele>76.0</ele><time>2026-03-29T13:43:48.914Z</time></trkpt><trkpt lat="42.592374887288415" lon="11.286510222189747"><ele>75.0</ele><time>2026-03-29T13:43:49.914Z</time></trkpt><trkpt lat="42.59216846300329" lon="11.286497764792946"><ele>74.0</ele><time>2026-03-29T13:43:50.914Z</time></trkpt><trkpt lat="42.59195767541952" lon="11.286485763110285"><ele>73.0</ele><time>2026-03-29T13:43:51.914Z</time></trkpt><trkpt lat="42.59174571370259" lon="11.286474204260038"><ele>72.0</ele><time>2026-03-29T13:43:52.914Z</time></trkpt><trkpt lat="42.59153524622431" lon="11.286469936652761"><ele>71.0</ele><time>2026-03-29T13:43:53.914Z</time></trkpt><trkpt lat="42.59132474052354" lon="11.286454754142325"><ele>69.66666666666667</ele><time>2026-03-29T13:43:54.914Z</time></trkpt><trkpt lat="42.59111485418083" lon="11.286438913914376"><ele>68.33333333333333</ele><time>2026-03-29T13:43:55.914Z</time></trkpt><trkpt lat="42.59090341412656" lon="11.286428475403833"><ele>67.0</ele><time>2026-03-29T13:43:56.914Z</time></trkpt><trkpt lat="42.59069536142966" lon="11.286416534186003"><ele>65.0</ele><time>2026-03-29T13:43:57.914Z</time></trkpt><trkpt lat="42.59048786499559" lon="11.286403988993563"><ele>63.0</ele><time>2026-03-29T13:43:58.914Z</time></trkpt><trkpt lat="42.59027820557465" lon="11.286391173702826"><ele>61.0</ele><time>2026-03-29T13:43:59.914Z</time></trkpt><trkpt lat="42.59007019100363" lon="11.286378631356975"><ele>61.0</ele><time>2026-03-29T13:44:00.914Z</time></trkpt><trkpt lat="42.58986014723483" lon="11.286369138149276"><ele>61.0</ele><time>2026-03-29T13:44:01.914Z</time></trkpt><trkpt lat="42.58965296902121" lon="11.286360075817425"><ele>61.0</ele><time>2026-03-29T13:44:02.914Z</time></trkpt><trkpt lat="42.589446085595725" lon="11.286346613634231"><ele>60.666666666666664</ele><time>2026-03-29T13:44:03.914Z</time></trkpt><trkpt lat="42.58923770778776" lon="11.286332492769295"><ele>60.33333333333333</ele><time>2026-03-29T13:44:04.914Z</time></trkpt><trkpt lat="42.58903166798283" lon="11.286320188943591"><ele>60.0</ele><time>2026-03-29T13:44:05.914Z</time></trkpt><trkpt lat="42.58882797795319" lon="11.286307393335436"><ele>59.66666666666667</ele><time>2026-03-29T13:44:06.914Z</time></trkpt><trkpt lat="42.58862077923901" lon="11.286295831639576"><ele>59.333333333333336</ele><time>2026-03-29T13:44:07.914Z</time></trkpt><trkpt lat="42.588413255944836" lon="11.286283938978485"><ele>59.0</ele><time>2026-03-29T13:44:08.914Z</time></trkpt><trkpt lat="42.58820289988488" lon="11.2862710870492"><ele>59.0</ele><time>2026-03-29T13:44:09.914Z</time></trkpt><trkpt lat="42.58799416965866" lon="11.28625606994758"><ele>59.0</ele><time>2026-03-29T13:44:10.914Z</time></trkpt><trkpt lat="42.587783182768526" lon="11.286243694810862"><ele>59.0</ele><time>2026-03-29T13:44:11.914Z</time></trkpt><trkpt lat="42.58757209112638" lon="11.286231015913916"><ele>59.333333333333336</ele><time>2026-03-29T13:44:12.914Z</time></trkpt><trkpt lat="42.587362923096556" lon="11.286218799677007"><ele>59.66666666666667</ele><time>2026-03-29T13:44:13.914Z</time></trkpt><trkpt lat="42.58715530027429" lon="11.2862134705124"><ele>60.0</ele><time>2026-03-29T13:44:14.914Z</time></trkpt><trkpt lat="42.58694487151641" lon="11.286202022714951"><ele>59.33333333333333</ele><time>2026-03-29T13:44:15.914Z</time></trkpt><trkpt lat="42.58673470994675" lon="11.286185644099886"><ele>58.666666666666664</ele><time>2026-03-29T13:44:16.914Z</time></trkpt><trkpt lat="42.586520744530034" lon="11.286173545760104"><ele>58.0</ele><time>2026-03-29T13:44:17.914Z</time></trkpt><trkpt lat="42.58631258639357" lon="11.286164920419127"><ele>58.0</ele><time>2026-03-29T13:44:18.913Z</time></trkpt><trkpt lat="42.58610053053646" lon="11.28615320482646"><ele>58.0</ele><time>2026-03-29T13:44:19.913Z</time></trkpt><trkpt lat="42.585890165150374" lon="11.286137654122648"><ele>58.0</ele><time>2026-03-29T13:44:20.913Z</time></trkpt><trkpt lat="42.58567942392892" lon="11.28612432453471"><ele>58.0</ele><time>2026-03-29T13:44:21.913Z</time></trkpt><trkpt lat="42.58546927671751" lon="11.286111471777524"><ele>58.0</ele><time>2026-03-29T13:44:22.913Z</time></trkpt><trkpt lat="42.585259307362165" lon="11.286095793496864"><ele>58.0</ele><time>2026-03-29T13:44:23.913Z</time></trkpt><trkpt lat="42.585050646305284" lon="11.286087256095772"><ele>58.0</ele><time>2026-03-29T13:44:24.913Z</time></trkpt><trkpt lat="42.584842226310705" lon="11.286075914119152"><ele>58.0</ele><time>2026-03-29T13:44:25.913Z</time></trkpt><trkpt lat="42.58462779979558" lon="11.286063355331752"><ele>58.0</ele><time>2026-03-29T13:44:26.914Z</time></trkpt><trkpt lat="42.58441458519581" lon="11.286049167402249"><ele>56.33333333333333</ele><time>2026-03-29T13:44:27.914Z</time></trkpt><trkpt lat="42.58420017710506" lon="11.286034159868999"><ele>54.66666666666667</ele><time>2026-03-29T13:44:28.914Z</time></trkpt><trkpt lat="42.583988658299226" lon="11.286024902953402"><ele>53.0</ele><time>2026-03-29T13:44:29.914Z</time></trkpt><trkpt lat="42.583777450891255" lon="11.28601355724779"><ele>52.66666666666667</ele><time>2026-03-29T13:44:30.914Z</time></trkpt><trkpt lat="42.583565294305956" lon="11.286002937145819"><ele>52.33333333333333</ele><time>2026-03-29T13:44:31.914Z</time></trkpt><trkpt lat="42.58335522135723" lon="11.285985139571327"><ele>52.0</ele><time>2026-03-29T13:44:32.914Z</time></trkpt><trkpt lat="42.583147580598755" lon="11.28597259074027"><ele>52.0</ele><time>2026-03-29T13:44:33.914Z</time></trkpt><trkpt lat="42.58294056766948" lon="11.285966935535342"><ele>52.0</ele><time>2026-03-29T13:44:34.914Z</time></trkpt><trkpt lat="42.582732375075565" lon="11.285964813260955"><ele>52.0</ele><time>2026-03-29T13:44:35.914Z</time></trkpt><trkpt lat="42.58252344207969" lon="11.28595589945312"><ele>52.33333333333333</ele><time>2026-03-29T13:44:36.914Z</time></trkpt><trkpt lat="42.582315920540786" lon="11.285947141255178"><ele>52.66666666666667</ele><time>2026-03-29T13:44:37.914Z</time></trkpt><trkpt lat="42.58210553355831" lon="11.28593558763379"><ele>53.0</ele><time>2026-03-29T13:44:38.913Z</time></trkpt><trkpt lat="42.581889989966115" lon="11.28592887391755"><ele>52.0</ele><time>2026-03-29T13:44:39.913Z</time></trkpt><trkpt lat="42.58167131696164" lon="11.285922952110568"><ele>51.0</ele><time>2026-03-29T13:44:40.913Z</time></trkpt><trkpt lat="42.581454216908156" lon="11.28591300877709"><ele>50.0</ele><time>2026-03-29T13:44:41.913Z</time></trkpt><trkpt lat="42.58123025437486" lon="11.285904502350585"><ele>47.5</ele><time>2026-03-29T13:44:42.913Z</time></trkpt><trkpt lat="42.581009886626326" lon="11.28588585432142"><ele>45.0</ele><time>2026-03-29T13:44:43.913Z</time></trkpt><trkpt lat="42.58077672896416" lon="11.285867948675458"><ele>45.0</ele><time>2026-03-29T13:44:44.913Z</time></trkpt><trkpt lat="42.58052089553563" lon="11.28586055661174"><ele>45.0</ele><time>2026-03-29T13:44:45.913Z</time></trkpt><trkpt lat="42.580261518897224" lon="11.285843331526813"><ele>44.0</ele><time>2026-03-29T13:44:46.913Z</time></trkpt><trkpt lat="42.579997004754105" lon="11.28582025142287"><ele>43.0</ele><time>2026-03-29T13:44:47.913Z</time></trkpt><trkpt lat="42.57972952326114" lon="11.285797899159924"><ele>40.5</ele><time>2026-03-29T13:44:48.913Z</time></trkpt><trkpt lat="42.579468198802424" lon="11.285780054290896"><ele>38.0</ele><time>2026-03-29T13:44:49.913Z</time></trkpt><trkpt lat="42.57920997102914" lon="11.285762947148747"><ele>38.0</ele><time>2026-03-29T13:44:50.913Z</time></trkpt><trkpt lat="42.57895293648922" lon="11.285746104488545"><ele>38.0</ele><time>2026-03-29T13:44:51.913Z</time></trkpt><trkpt lat="42.57869662078562" lon="11.285729149839598"><ele>37.5</ele><time>2026-03-29T13:44:52.913Z</time></trkpt><trkpt lat="42.5784442771676" lon="11.285692784602727"><ele>37.0</ele><time>2026-03-29T13:44:53.913Z</time></trkpt><trkpt lat="42.57819371289096" lon="11.285645617173412"><ele>35.5</ele><time>2026-03-29T13:44:54.913Z</time></trkpt><trkpt lat="42.577942551064" lon="11.285588529801359"><ele>34.0</ele><time>2026-03-29T13:44:55.913Z</time></trkpt><trkpt lat="42.57769235166184" lon="11.285522141055308"><ele>34.0</ele><time>2026-03-29T13:44:56.913Z</time></trkpt><trkpt lat="42.57744669242024" lon="11.285462494098775"><ele>34.0</ele><time>2026-03-29T13:44:57.913Z</time></trkpt><trkpt lat="42.57720136529976" lon="11.285402485459196"><ele>33.5</ele><time>2026-03-29T13:44:58.913Z</time></trkpt><trkpt lat="42.57695439372381" lon="11.285335558141451"><ele>33.0</ele><time>2026-03-29T13:44:59.913Z</time></trkpt><trkpt lat="42.57670623050429" lon="11.285250420364795"><ele>33.0</ele><time>2026-03-29T13:45:00.913Z</time></trkpt><trkpt lat="42.576459926741705" lon="11.285152324940666"><ele>33.0</ele><time>2026-03-29T13:45:01.913Z</time></trkpt><trkpt lat="42.57621641428432" lon="11.285047121068143"><ele>33.0</ele><time>2026-03-29T13:45:02.913Z</time></trkpt><trkpt lat="42.57597108362409" lon="11.284940920396915"><ele>33.0</ele><time>2026-03-29T13:45:03.913Z</time></trkpt><trkpt lat="42.57572540033351" lon="11.284838792036654"><ele>33.5</ele><time>2026-03-29T13:45:04.913Z</time></trkpt><trkpt lat="42.57547877324323" lon="11.28473721145776"><ele>34.0</ele><time>2026-03-29T13:45:05.913Z</time></trkpt><trkpt lat="42.5752335821732" lon="11.284636897639505"><ele>34.0</ele><time>2026-03-29T13:45:06.913Z</time></trkpt><trkpt lat="42.57499138194209" lon="11.28453628116162"><ele>34.0</ele><time>2026-03-29T13:45:07.913Z</time></trkpt><trkpt lat="42.57474594588879" lon="11.284436088415042"><ele>33.5</ele><time>2026-03-29T13:45:08.913Z</time></trkpt><trkpt lat="42.57450298805773" lon="11.284338763313777"><ele>33.0</ele><time>2026-03-29T13:45:09.913Z</time></trkpt><trkpt lat="42.57426537196373" lon="11.284241575283707"><ele>33.0</ele><time>2026-03-29T13:45:10.913Z</time></trkpt><trkpt lat="42.574031700124735" lon="11.284140120102867"><ele>33.0</ele><time>2026-03-29T13:45:11.913Z</time></trkpt><trkpt lat="42.57380122514353" lon="11.284044335553302"><ele>31.5</ele><time>2026-03-29T13:45:12.913Z</time></trkpt><trkpt lat="42.573577245183316" lon="11.283955699919424"><ele>30.0</ele><time>2026-03-29T13:45:13.913Z</time></trkpt><trkpt lat="42.573356394215104" lon="11.283866280431207"><ele>30.0</ele><time>2026-03-29T13:45:14.913Z</time></trkpt><trkpt lat="42.57314161350664" lon="11.283777382259862"><ele>30.0</ele><time>2026-03-29T13:45:15.913Z</time></trkpt><trkpt lat="42.572921935226404" lon="11.28368661062281"><ele>29.5</ele><time>2026-03-29T13:45:16.912Z</time></trkpt><trkpt lat="42.57270187720571" lon="11.283594502609201"><ele>29.0</ele><time>2026-03-29T13:45:17.912Z</time></trkpt><trkpt lat="42.57247461389512" lon="11.283501761058508"><ele>29.0</ele><time>2026-03-29T13:45:18.912Z</time></trkpt><trkpt lat="42.5722490390681" lon="11.28341247231719"><ele>29.0</ele><time>2026-03-29T13:45:19.912Z</time></trkpt><trkpt lat="42.57202170287388" lon="11.283315168499012"><ele>28.5</ele><time>2026-03-29T13:45:20.912Z</time></trkpt><trkpt lat="42.57179470693757" lon="11.283212757682001"><ele>28.0</ele><time>2026-03-29T13:45:21.912Z</time></trkpt><trkpt lat="42.571562949787214" lon="11.283127635806112"><ele>27.0</ele><time>2026-03-29T13:45:22.912Z</time></trkpt><trkpt lat="42.57133088432176" lon="11.283034623825177"><ele>26.0</ele><time>2026-03-29T13:45:23.912Z</time></trkpt><trkpt lat="42.5710979737331" lon="11.282941074179469"><ele>25.5</ele><time>2026-03-29T13:45:24.912Z</time></trkpt><trkpt lat="42.57086658577469" lon="11.282845505230066"><ele>25.0</ele><time>2026-03-29T13:45:25.912Z</time></trkpt><trkpt lat="42.570633436689754" lon="11.282746158197392"><ele>25.0</ele><time>2026-03-29T13:45:26.912Z</time></trkpt><trkpt lat="42.57039459332204" lon="11.282649475285549"><ele>25.0</ele><time>2026-03-29T13:45:27.912Z</time></trkpt><trkpt lat="42.5701579138157" lon="11.282550982137977"><ele>25.5</ele><time>2026-03-29T13:45:28.912Z</time></trkpt><trkpt lat="42.5699218274953" lon="11.282452778102252"><ele>26.0</ele><time>2026-03-29T13:45:29.912Z</time></trkpt><trkpt lat="42.56968683840883" lon="11.282352839942234"><ele>27.0</ele><time>2026-03-29T13:45:30.912Z</time></trkpt><trkpt lat="42.56945277952233" lon="11.28225537452889"><ele>28.0</ele><time>2026-03-29T13:45:31.912Z</time></trkpt><trkpt lat="42.56922286916094" lon="11.282162259307409"><ele>28.0</ele><time>2026-03-29T13:45:32.912Z</time></trkpt><trkpt lat="42.56899853523474" lon="11.282069215209628"><ele>28.0</ele><time>2026-03-29T13:45:33.912Z</time></trkpt><trkpt lat="42.56877623990639" lon="11.281978829374058"><ele>27.0</ele><time>2026-03-29T13:45:34.912Z</time></trkpt><trkpt lat="42.56854856169779" lon="11.281885390848009"><ele>26.0</ele><time>2026-03-29T13:45:35.912Z</time></trkpt><trkpt lat="42.56832589428195" lon="11.28179021239371"><ele>26.0</ele><time>2026-03-29T13:45:36.912Z</time></trkpt><trkpt lat="42.56810952517873" lon="11.281699124910482"><ele>26.0</ele><time>2026-03-29T13:45:37.912Z</time></trkpt><trkpt lat="42.56789460862552" lon="11.281609778826189"><ele>25.666666666666664</ele><time>2026-03-29T13:45:38.912Z</time></trkpt><trkpt lat="42.56768024617428" lon="11.281526510516994"><ele>25.333333333333336</ele><time>2026-03-29T13:45:39.912Z</time></trkpt><trkpt lat="42.567466544301425" lon="11.281439673084304"><ele>25.0</ele><time>2026-03-29T13:45:40.912Z</time></trkpt><trkpt lat="42.567253937025875" lon="11.281350962047929"><ele>25.0</ele><time>2026-03-29T13:45:41.912Z</time></trkpt><trkpt lat="42.56703681706405" lon="11.28125786687054"><ele>25.0</ele><time>2026-03-29T13:45:42.912Z</time></trkpt><trkpt lat="42.56682224744891" lon="11.28117238460249"><ele>25.0</ele><time>2026-03-29T13:45:43.912Z</time></trkpt><trkpt lat="42.56660558244006" lon="11.281082929685057"><ele>25.0</ele><time>2026-03-29T13:45:44.912Z</time></trkpt><trkpt lat="42.56638721376292" lon="11.280990996891468"><ele>24.5</ele><time>2026-03-29T13:45:45.912Z</time></trkpt><trkpt lat="42.56617240196611" lon="11.280899230518896"><ele>24.0</ele><time>2026-03-29T13:45:46.912Z</time></trkpt><trkpt lat="42.56595437282955" lon="11.280813243897013"><ele>24.0</ele><time>2026-03-29T13:45:47.912Z</time></trkpt><trkpt lat="42.5657390357044" lon="11.280729467072442"><ele>24.0</ele><time>2026-03-29T13:45:48.912Z</time></trkpt><trkpt lat="42.56552221294708" lon="11.280639501086949"><ele>23.666666666666668</ele><time>2026-03-29T13:45:49.912Z</time></trkpt><trkpt lat="42.565307570413346" lon="11.28055209435237"><ele>23.333333333333336</ele><time>2026-03-29T13:45:50.912Z</time></trkpt><trkpt lat="42.56509410340084" lon="11.280465978751245"><ele>23.0</ele><time>2026-03-29T13:45:51.912Z</time></trkpt><trkpt lat="42.56488169815949" lon="11.280379388213216"><ele>23.0</ele><time>2026-03-29T13:45:52.912Z</time></trkpt><trkpt lat="42.56466979158023" lon="11.280293292594388"><ele>23.0</ele><time>2026-03-29T13:45:53.912Z</time></trkpt><trkpt lat="42.56446044743864" lon="11.28020621235728"><ele>23.0</ele><time>2026-03-29T13:45:54.911Z</time></trkpt><trkpt lat="42.56425030971969" lon="11.280120481111853"><ele>23.0</ele><time>2026-03-29T13:45:55.911Z</time></trkpt><trkpt lat="42.56404295288143" lon="11.280037266644385"><ele>23.0</ele><time>2026-03-29T13:45:56.911Z</time></trkpt><trkpt lat="42.56383404154438" lon="11.279953235771373"><ele>23.0</ele><time>2026-03-29T13:45:57.911Z</time></trkpt><trkpt lat="42.56362818249919" lon="11.279866179148762"><ele>22.333333333333336</ele><time>2026-03-29T13:45:58.911Z</time></trkpt><trkpt lat="42.56342236293202" lon="11.27977764207241"><ele>21.666666666666668</ele><time>2026-03-29T13:45:59.911Z</time></trkpt><trkpt lat="42.5632155417492" lon="11.27968777879245"><ele>21.0</ele><time>2026-03-29T13:46:00.911Z</time></trkpt><trkpt lat="42.56300349038299" lon="11.279599510102592"><ele>21.666666666666668</ele><time>2026-03-29T13:46:01.911Z</time></trkpt><trkpt lat="42.562798605480054" lon="11.27951856166159"><ele>22.333333333333336</ele><time>2026-03-29T13:46:02.911Z</time></trkpt><trkpt lat="42.56258651943313" lon="11.279435540746618"><ele>23.0</ele><time>2026-03-29T13:46:03.911Z</time></trkpt><trkpt lat="42.562372897171535" lon="11.279350423091605"><ele>23.0</ele><time>2026-03-29T13:46:04.911Z</time></trkpt><trkpt lat="42.56215545536915" lon="11.279260282876097"><ele>23.0</ele><time>2026-03-29T13:46:05.911Z</time></trkpt><trkpt lat="42.56194098081242" lon="11.279172770500802"><ele>22.0</ele><time>2026-03-29T13:46:06.911Z</time></trkpt><trkpt lat="42.56172355476844" lon="11.279080903825905"><ele>21.0</ele><time>2026-03-29T13:46:07.911Z</time></trkpt><trkpt lat="42.56149197123676" lon="11.27899029843299"><ele>25.0</ele><time>2026-03-29T13:46:08.911Z</time></trkpt><trkpt lat="42.56126212767471" lon="11.278884714404807"><ele>29.0</ele><time>2026-03-29T13:46:09.911Z</time></trkpt><trkpt lat="42.5610312099401" lon="11.278771935930145"><ele>29.5</ele><time>2026-03-29T13:46:10.911Z</time></trkpt><trkpt lat="42.5608074082078" lon="11.278628378552135"><ele>30.0</ele><time>2026-03-29T13:46:11.911Z</time></trkpt><trkpt lat="42.56058911671167" lon="11.278518035376495"><ele>28.0</ele><time>2026-03-29T13:46:12.911Z</time></trkpt><trkpt lat="42.56036183841287" lon="11.278291729075525"><ele>26.0</ele><time>2026-03-29T13:46:13.911Z</time></trkpt><trkpt lat="42.560112278219684" lon="11.278087188525479"><ele>26.0</ele><time>2026-03-29T13:46:14.911Z</time></trkpt><trkpt lat="42.559857645437724" lon="11.277851548639534"><ele>26.0</ele><time>2026-03-29T13:46:15.911Z</time></trkpt><trkpt lat="42.55959042974709" lon="11.27761217298606"><ele>24.0</ele><time>2026-03-29T13:46:16.911Z</time></trkpt><trkpt lat="42.55930885072187" lon="11.277358964775692"><ele>22.0</ele><time>2026-03-29T13:46:17.911Z</time></trkpt><trkpt lat="42.55901975411269" lon="11.277095035873444"><ele>21.5</ele><time>2026-03-29T13:46:18.911Z</time></trkpt><trkpt lat="42.55872327498183" lon="11.276825687753131"><ele>21.0</ele><time>2026-03-29T13:46:19.911Z</time></trkpt><trkpt lat="42.55843819559271" lon="11.276557830176102"><ele>23.5</ele><time>2026-03-29T13:46:20.911Z</time></trkpt><trkpt lat="42.55815040241356" lon="11.276295074609596"><ele>26.0</ele><time>2026-03-29T13:46:21.911Z</time></trkpt><trkpt lat="42.55786456031232" lon="11.276035065083594"><ele>27.5</ele><time>2026-03-29T13:46:22.911Z</time></trkpt><trkpt lat="42.55759379967975" lon="11.27578874923909"><ele>29.0</ele><time>2026-03-29T13:46:23.911Z</time></trkpt><trkpt lat="42.55734470329367" lon="11.27555542202473"><ele>31.0</ele><time>2026-03-29T13:46:24.911Z</time></trkpt><trkpt lat="42.557109406472286" lon="11.27533289497625"><ele>33.0</ele><time>2026-03-29T13:46:25.911Z</time></trkpt><trkpt lat="42.556879442966974" lon="11.275126446980083"><ele>33.5</ele><time>2026-03-29T13:46:26.911Z</time></trkpt><trkpt lat="42.556663066484944" lon="11.27493281680011"><ele>34.0</ele><time>2026-03-29T13:46:27.911Z</time></trkpt><trkpt lat="42.55645428316804" lon="11.274737111121564"><ele>34.0</ele><time>2026-03-29T13:46:28.911Z</time></trkpt><trkpt lat="42.556247140257476" lon="11.274550583304903"><ele>34.0</ele><time>2026-03-29T13:46:29.911Z</time></trkpt><trkpt lat="42.5560473794102" lon="11.274370876552958"><ele>34.0</ele><time>2026-03-29T13:46:30.911Z</time></trkpt><trkpt lat="42.55585167822427" lon="11.27419436678581"><ele>34.0</ele><time>2026-03-29T13:46:31.91Z</time></trkpt><trkpt lat="42.55565662106774" lon="11.274011736546747"><ele>33.5</ele><time>2026-03-29T13:46:32.912Z</time></trkpt><trkpt lat="42.55545258294544" lon="11.273832119354536"><ele>33.0</ele><time>2026-03-29T13:46:33.912Z</time></trkpt><trkpt lat="42.55524719893232" lon="11.273648271684126"><ele>35.5</ele><time>2026-03-29T13:46:34.912Z</time></trkpt><trkpt lat="42.555046399191134" lon="11.273464969380043"><ele>38.0</ele><time>2026-03-29T13:46:35.913Z</time></trkpt><trkpt lat="42.554852071808206" lon="11.273284921292438"><ele>38.0</ele><time>2026-03-29T13:46:36.913Z</time></trkpt><trkpt lat="42.55465633576393" lon="11.273110331838328"><ele>38.0</ele><time>2026-03-29T13:46:37.913Z</time></trkpt><trkpt lat="42.5544541136733" lon="11.272936689291956"><ele>37.0</ele><time>2026-03-29T13:46:38.912Z</time></trkpt><trkpt lat="42.554246996934324" lon="11.27277008761929"><ele>36.0</ele><time>2026-03-29T13:46:39.912Z</time></trkpt><trkpt lat="42.55403113712186" lon="11.272613848536684"><ele>36.0</ele><time>2026-03-29T13:46:40.912Z</time></trkpt><trkpt lat="42.553805087938294" lon="11.272461831289599"><ele>36.0</ele><time>2026-03-29T13:46:41.912Z</time></trkpt><trkpt lat="42.55356620910849" lon="11.272313896596133"><ele>35.5</ele><time>2026-03-29T13:46:42.912Z</time></trkpt><trkpt lat="42.55331441836719" lon="11.272156114425453"><ele>35.0</ele><time>2026-03-29T13:46:43.912Z</time></trkpt><trkpt lat="42.55305142079485" lon="11.271989471963352"><ele>34.0</ele><time>2026-03-29T13:46:44.913Z</time></trkpt><trkpt lat="42.55278121652465" lon="11.271816131241314"><ele>33.0</ele><time>2026-03-29T13:46:45.913Z</time></trkpt><trkpt lat="42.552494705403966" lon="11.271642806791927"><ele>33.0</ele><time>2026-03-29T13:46:46.913Z</time></trkpt><trkpt lat="42.552202252120125" lon="11.271460789549467"><ele>33.0</ele><time>2026-03-29T13:46:47.912Z</time></trkpt><trkpt lat="42.55189983545781" lon="11.271267159180967"><ele>32.0</ele><time>2026-03-29T13:46:48.912Z</time></trkpt><trkpt lat="42.55159415784172" lon="11.271074004732409"><ele>31.0</ele><time>2026-03-29T13:46:49.912Z</time></trkpt><trkpt lat="42.55128920655164" lon="11.270884171993037"><ele>31.0</ele><time>2026-03-29T13:46:50.912Z</time></trkpt><trkpt lat="42.550987775025924" lon="11.27069696580691"><ele>31.0</ele><time>2026-03-29T13:46:51.912Z</time></trkpt><trkpt lat="42.55068786250705" lon="11.270512158863447"><ele>31.0</ele><time>2026-03-29T13:46:52.912Z</time></trkpt><trkpt lat="42.550386562774186" lon="11.270325240104697"><ele>31.0</ele><time>2026-03-29T13:46:53.912Z</time></trkpt><trkpt lat="42.55008364501721" lon="11.270136025416965"><ele>30.5</ele><time>2026-03-29T13:46:54.912Z</time></trkpt><trkpt lat="42.54978367641543" lon="11.269944220273333"><ele>30.0</ele><time>2026-03-29T13:46:55.912Z</time></trkpt><trkpt lat="42.54948180835495" lon="11.269759674880378"><ele>28.5</ele><time>2026-03-29T13:46:56.912Z</time></trkpt><trkpt lat="42.54917796099819" lon="11.269575768693914"><ele>27.0</ele><time>2026-03-29T13:46:57.912Z</time></trkpt><trkpt lat="42.548877748485076" lon="11.269389896837497"><ele>27.5</ele><time>2026-03-29T13:46:58.912Z</time></trkpt><trkpt lat="42.54858175954658" lon="11.269204278796227"><ele>28.0</ele><time>2026-03-29T13:46:59.912Z</time></trkpt><trkpt lat="42.548287998834866" lon="11.26902165851181"><ele>28.0</ele><time>2026-03-29T13:47:00.912Z</time></trkpt><trkpt lat="42.54799795692291" lon="11.268836211293532"><ele>28.0</ele><time>2026-03-29T13:47:01.912Z</time></trkpt><trkpt lat="42.547725570214254" lon="11.268660475938713"><ele>28.0</ele><time>2026-03-29T13:47:02.912Z</time></trkpt><trkpt lat="42.54746742819767" lon="11.268504609992226"><ele>28.0</ele><time>2026-03-29T13:47:03.912Z</time></trkpt><trkpt lat="42.547223145869665" lon="11.268350722287998"><ele>27.5</ele><time>2026-03-29T13:47:04.912Z</time></trkpt><trkpt lat="42.54699296454154" lon="11.268204376028303"><ele>27.0</ele><time>2026-03-29T13:47:05.912Z</time></trkpt><trkpt lat="42.54678202392541" lon="11.268045527047423"><ele>26.5</ele><time>2026-03-29T13:47:06.912Z</time></trkpt><trkpt lat="42.546579376903516" lon="11.267866769885812"><ele>26.0</ele><time>2026-03-29T13:47:07.912Z</time></trkpt><trkpt lat="42.546382313088394" lon="11.26766429818778"><ele>26.0</ele><time>2026-03-29T13:47:08.912Z</time></trkpt><trkpt lat="42.54618599522065" lon="11.267439737466121"><ele>26.0</ele><time>2026-03-29T13:47:09.912Z</time></trkpt><trkpt lat="42.54598967803416" lon="11.267214124558826"><ele>26.0</ele><time>2026-03-29T13:47:10.912Z</time></trkpt><trkpt lat="42.545803559706464" lon="11.266988770101458"><ele>26.0</ele><time>2026-03-29T13:47:11.912Z</time></trkpt><trkpt lat="42.54563026728729" lon="11.266755065166297"><ele>26.0</ele><time>2026-03-29T13:47:12.912Z</time></trkpt><trkpt lat="42.545473551869634" lon="11.266514328102009"><ele>26.0</ele><time>2026-03-29T13:47:13.912Z</time></trkpt><trkpt lat="42.54533686618857" lon="11.266255432409851"><ele>24.5</ele><time>2026-03-29T13:47:14.912Z</time></trkpt><trkpt lat="42.545220422703316" lon="11.26597184362279"><ele>23.0</ele><time>2026-03-29T13:47:15.912Z</time></trkpt><trkpt lat="42.54511172942895" lon="11.265656436686593"><ele>23.5</ele><time>2026-03-29T13:47:16.912Z</time></trkpt><trkpt lat="42.54500652804576" lon="11.265309616321126"><ele>24.0</ele><time>2026-03-29T13:47:17.912Z</time></trkpt><trkpt lat="42.544901047653646" lon="11.264934081607338"><ele>24.0</ele><time>2026-03-29T13:47:18.912Z</time></trkpt><trkpt lat="42.544785347458706" lon="11.26454222648134"><ele>24.0</ele><time>2026-03-29T13:47:19.912Z</time></trkpt><trkpt lat="42.54466583027694" lon="11.264150780899405"><ele>24.0</ele><time>2026-03-29T13:47:20.912Z</time></trkpt><trkpt lat="42.54454710398576" lon="11.263757872823815"><ele>24.0</ele><time>2026-03-29T13:47:21.912Z</time></trkpt><trkpt lat="42.54442626636796" lon="11.263359575641763"><ele>24.0</ele><time>2026-03-29T13:47:22.912Z</time></trkpt><trkpt lat="42.54431082314892" lon="11.262967192733862"><ele>24.0</ele><time>2026-03-29T13:47:23.912Z</time></trkpt><trkpt lat="42.5441920813097" lon="11.262569224319723"><ele>24.0</ele><time>2026-03-29T13:47:24.912Z</time></trkpt><trkpt lat="42.544078855693726" lon="11.262172936680239"><ele>24.0</ele><time>2026-03-29T13:47:25.911Z</time></trkpt><trkpt lat="42.54396341349374" lon="11.261779740289827"><ele>23.5</ele><time>2026-03-29T13:47:26.911Z</time></trkpt><trkpt lat="42.5438472440095" lon="11.261388949364314"><ele>23.0</ele><time>2026-03-29T13:47:27.911Z</time></trkpt><trkpt lat="42.54373583570645" lon="11.261005153280394"><ele>24.0</ele><time>2026-03-29T13:47:28.911Z</time></trkpt><trkpt lat="42.54362441902764" lon="11.260630172302472"><ele>25.0</ele><time>2026-03-29T13:47:29.911Z</time></trkpt><trkpt lat="42.54351202074452" lon="11.26025488247994"><ele>25.5</ele><time>2026-03-29T13:47:30.911Z</time></trkpt><trkpt lat="42.543399465015746" lon="11.25988001454995"><ele>26.0</ele><time>2026-03-29T13:47:31.911Z</time></trkpt><trkpt lat="42.54328841051084" lon="11.259509665779536"><ele>26.0</ele><time>2026-03-29T13:47:32.911Z</time></trkpt><trkpt lat="42.543187248074574" lon="11.259158918929959"><ele>26.0</ele><time>2026-03-29T13:47:33.911Z</time></trkpt><trkpt lat="42.54307672987182" lon="11.258803743723835"><ele>26.0</ele><time>2026-03-29T13:47:34.911Z</time></trkpt><trkpt lat="42.54296704185592" lon="11.258438201399075"><ele>26.0</ele><time>2026-03-29T13:47:35.911Z</time></trkpt><trkpt lat="42.54285504695436" lon="11.258069039083635"><ele>25.0</ele><time>2026-03-29T13:47:36.911Z</time></trkpt><trkpt lat="42.54274310453363" lon="11.257697199045197"><ele>24.0</ele><time>2026-03-29T13:47:37.911Z</time></trkpt><trkpt lat="42.5426412102852" lon="11.257339591135361"><ele>24.0</ele><time>2026-03-29T13:47:38.911Z</time></trkpt><trkpt lat="42.54254281512375" lon="11.256996559340093"><ele>24.0</ele><time>2026-03-29T13:47:39.911Z</time></trkpt><trkpt lat="42.542447029842045" lon="11.256672919761867"><ele>24.0</ele><time>2026-03-29T13:47:40.911Z</time></trkpt><trkpt lat="42.54235446567897" lon="11.256364803714632"><ele>24.0</ele><time>2026-03-29T13:47:41.911Z</time></trkpt><trkpt lat="42.542263719222255" lon="11.25607187718167"><ele>24.0</ele><time>2026-03-29T13:47:42.911Z</time></trkpt><trkpt lat="42.54215892517309" lon="11.255788937689857"><ele>24.0</ele><time>2026-03-29T13:47:43.911Z</time></trkpt><trkpt lat="42.5420373993967" lon="11.255515232905733"><ele>23.0</ele><time>2026-03-29T13:47:44.911Z</time></trkpt><trkpt lat="42.5418919105178" lon="11.25525371634927"><ele>22.0</ele><time>2026-03-29T13:47:45.911Z</time></trkpt><trkpt lat="42.541724667857615" lon="11.25499233677291"><ele>22.5</ele><time>2026-03-29T13:47:46.911Z</time></trkpt><trkpt lat="42.54153861124374" lon="11.254737576608363"><ele>23.0</ele><time>2026-03-29T13:47:47.911Z</time></trkpt><trkpt lat="42.54133778889334" lon="11.254476250958326"><ele>21.5</ele><time>2026-03-29T13:47:48.911Z</time></trkpt><trkpt lat="42.541141518077225" lon="11.25421330206375"><ele>20.0</ele><time>2026-03-29T13:47:49.911Z</time></trkpt><trkpt lat="42.54096301251225" lon="11.253967482423601"><ele>21.0</ele><time>2026-03-29T13:47:50.911Z</time></trkpt><trkpt lat="42.54078940802053" lon="11.253736412363153"><ele>22.0</ele><time>2026-03-29T13:47:51.911Z</time></trkpt><trkpt lat="42.54061818375973" lon="11.253518470338477"><ele>22.0</ele><time>2026-03-29T13:47:52.911Z</time></trkpt><trkpt lat="42.54043500801885" lon="11.253308968665937"><ele>22.0</ele><time>2026-03-29T13:47:53.911Z</time></trkpt><trkpt lat="42.54023885572998" lon="11.253117417384326"><ele>22.0</ele><time>2026-03-29T13:47:54.911Z</time></trkpt><trkpt lat="42.54002263835636" lon="11.252950701066203"><ele>22.0</ele><time>2026-03-29T13:47:55.911Z</time></trkpt><trkpt lat="42.53978430490112" lon="11.252800897009113"><ele>21.5</ele><time>2026-03-29T13:47:56.911Z</time></trkpt><trkpt lat="42.5395261133293" lon="11.252651153996664"><ele>21.0</ele><time>2026-03-29T13:47:57.911Z</time></trkpt><trkpt lat="42.5392520544414" lon="11.25248880433462"><ele>21.0</ele><time>2026-03-29T13:47:58.911Z</time></trkpt><trkpt lat="42.538972693458305" lon="11.252316883534212"><ele>21.0</ele><time>2026-03-29T13:47:59.911Z</time></trkpt><trkpt lat="42.53869150237867" lon="11.252147598506474"><ele>20.5</ele><time>2026-03-29T13:48:00.911Z</time></trkpt><trkpt lat="42.53841323614273" lon="11.251978856790947"><ele>20.0</ele><time>2026-03-29T13:48:01.911Z</time></trkpt><trkpt lat="42.53813560168041" lon="11.251815488515314"><ele>18.5</ele><time>2026-03-29T13:48:02.91Z</time></trkpt><trkpt lat="42.53786411036451" lon="11.251656510602231"><ele>17.0</ele><time>2026-03-29T13:48:03.91Z</time></trkpt><trkpt lat="42.53759403713045" lon="11.251497342649436"><ele>16.5</ele><time>2026-03-29T13:48:04.91Z</time></trkpt><trkpt lat="42.5373321446055" lon="11.251339079981497"><ele>16.0</ele><time>2026-03-29T13:48:05.91Z</time></trkpt><trkpt lat="42.53707378522672" lon="11.25118348647517"><ele>15.0</ele><time>2026-03-29T13:48:06.91Z</time></trkpt><trkpt lat="42.536813883274846" lon="11.251027507327109"><ele>14.0</ele><time>2026-03-29T13:48:07.91Z</time></trkpt><trkpt lat="42.5365491036846" lon="11.250862375899867"><ele>14.0</ele><time>2026-03-29T13:48:08.91Z</time></trkpt><trkpt lat="42.53628038225127" lon="11.250694600469444"><ele>14.0</ele><time>2026-03-29T13:48:09.91Z</time></trkpt><trkpt lat="42.53600654600939" lon="11.250527592776084"><ele>13.0</ele><time>2026-03-29T13:48:10.91Z</time></trkpt><trkpt lat="42.53572699252154" lon="11.250358068489373"><ele>12.0</ele><time>2026-03-29T13:48:11.91Z</time></trkpt><trkpt lat="42.53545308242828" lon="11.250189252714126"><ele>10.5</ele><time>2026-03-29T13:48:12.91Z</time></trkpt><trkpt lat="42.53517436112905" lon="11.250020779321616"><ele>9.0</ele><time>2026-03-29T13:48:13.91Z</time></trkpt><trkpt lat="42.534892168043655" lon="11.249855597097135"><ele>10.0</ele><time>2026-03-29T13:48:14.91Z</time></trkpt><trkpt lat="42.53460909289503" lon="11.249685520058723"><ele>11.0</ele><time>2026-03-29T13:48:15.91Z</time></trkpt><trkpt lat="42.53432715099561" lon="11.249512759625876"><ele>9.0</ele><time>2026-03-29T13:48:16.91Z</time></trkpt><trkpt lat="42.534045408347524" lon="11.249341576517395"><ele>7.0</ele><time>2026-03-29T13:48:17.91Z</time></trkpt><trkpt lat="42.533766532735136" lon="11.249171657005142"><ele>7.0</ele><time>2026-03-29T13:48:18.91Z</time></trkpt><trkpt lat="42.53348993231979" lon="11.249002355929239"><ele>7.0</ele><time>2026-03-29T13:48:19.91Z</time></trkpt><trkpt lat="42.53321467800549" lon="11.248834831315358"><ele>7.0</ele><time>2026-03-29T13:48:20.91Z</time></trkpt><trkpt lat="42.53293958169362" lon="11.248671995419691"><ele>7.0</ele><time>2026-03-29T13:48:21.91Z</time></trkpt><trkpt lat="42.53266900958008" lon="11.248502952868266"><ele>6.5</ele><time>2026-03-29T13:48:22.91Z</time></trkpt><trkpt lat="42.53239529047399" lon="11.248335154751146"><ele>6.0</ele><time>2026-03-29T13:48:23.91Z</time></trkpt><trkpt lat="42.53211637937021" lon="11.248166280066933"><ele>6.0</ele><time>2026-03-29T13:48:24.91Z</time></trkpt><trkpt lat="42.53183262939097" lon="11.247995805826667"><ele>6.0</ele><time>2026-03-29T13:48:25.91Z</time></trkpt><trkpt lat="42.531551180837255" lon="11.247823455964914"><ele>6.0</ele><time>2026-03-29T13:48:26.91Z</time></trkpt><trkpt lat="42.53126870901913" lon="11.247650775188022"><ele>6.0</ele><time>2026-03-29T13:48:27.91Z</time></trkpt><trkpt lat="42.53098488218045" lon="11.247479474019306"><ele>6.0</ele><time>2026-03-29T13:48:28.91Z</time></trkpt><trkpt lat="42.53070236552033" lon="11.247311513295177"><ele>6.0</ele><time>2026-03-29T13:48:29.91Z</time></trkpt><trkpt lat="42.53042188604885" lon="11.247144836331998"><ele>7.5</ele><time>2026-03-29T13:48:30.91Z</time></trkpt><trkpt lat="42.530143312219025" lon="11.246978802194059"><ele>9.0</ele><time>2026-03-29T13:48:31.91Z</time></trkpt><trkpt lat="42.52987023223944" lon="11.246816683717702"><ele>9.0</ele><time>2026-03-29T13:48:32.91Z</time></trkpt><trkpt lat="42.52959784731513" lon="11.24665690835394"><ele>9.0</ele><time>2026-03-29T13:48:33.91Z</time></trkpt><trkpt lat="42.5293300757935" lon="11.246497351322867"><ele>8.0</ele><time>2026-03-29T13:48:34.91Z</time></trkpt><trkpt lat="42.529062555377706" lon="11.246334000588396"><ele>7.0</ele><time>2026-03-29T13:48:35.91Z</time></trkpt><trkpt lat="42.52879366140711" lon="11.246171409065832"><ele>6.5</ele><time>2026-03-29T13:48:36.91Z</time></trkpt><trkpt lat="42.52853807792146" lon="11.246019890917534"><ele>6.0</ele><time>2026-03-29T13:48:37.91Z</time></trkpt><trkpt lat="42.52829235893872" lon="11.245870903868065"><ele>6.0</ele><time>2026-03-29T13:48:38.91Z</time></trkpt><trkpt lat="42.52805371720162" lon="11.245724645342566"><ele>6.0</ele><time>2026-03-29T13:48:39.911Z</time></trkpt><trkpt lat="42.52781654516652" lon="11.245583078343454"><ele>5.5</ele><time>2026-03-29T13:48:40.911Z</time></trkpt><trkpt lat="42.52757907562148" lon="11.245434298982504"><ele>5.0</ele><time>2026-03-29T13:48:41.91Z</time></trkpt><trkpt lat="42.52733408734944" lon="11.245281986467683"><ele>5.0</ele><time>2026-03-29T13:48:42.911Z</time></trkpt><trkpt lat="42.52708249242615" lon="11.245126831550772"><ele>5.0</ele><time>2026-03-29T13:48:43.911Z</time></trkpt><trkpt lat="42.526820889666695" lon="11.244968185149826"><ele>4.5</ele><time>2026-03-29T13:48:44.911Z</time></trkpt><trkpt lat="42.52656513066112" lon="11.244815259841099"><ele>4.0</ele><time>2026-03-29T13:48:45.91Z</time></trkpt><trkpt lat="42.52631585523735" lon="11.244666796254574"><ele>4.0</ele><time>2026-03-29T13:48:46.91Z</time></trkpt><trkpt lat="42.526078778939585" lon="11.24452640200386"><ele>4.0</ele><time>2026-03-29T13:48:47.91Z</time></trkpt><trkpt lat="42.525844056223484" lon="11.24438754189381"><ele>4.0</ele><time>2026-03-29T13:48:48.91Z</time></trkpt><trkpt lat="42.525612206427915" lon="11.244255451983612"><ele>4.0</ele><time>2026-03-29T13:48:49.91Z</time></trkpt><trkpt lat="42.52538447394038" lon="11.244126667458064"><ele>4.5</ele><time>2026-03-29T13:48:50.911Z</time></trkpt><trkpt lat="42.525163281290126" lon="11.243993368659078"><ele>5.0</ele><time>2026-03-29T13:48:51.91Z</time></trkpt><trkpt lat="42.524946597790596" lon="11.24385815650678"><ele>5.0</ele><time>2026-03-29T13:48:52.91Z</time></trkpt><trkpt lat="42.524727745239666" lon="11.243723408002253"><ele>5.0</ele><time>2026-03-29T13:48:53.91Z</time></trkpt><trkpt lat="42.52451032267386" lon="11.24358622216969"><ele>5.0</ele><time>2026-03-29T13:48:54.91Z</time></trkpt><trkpt lat="42.52429509850971" lon="11.24344092754952"><ele>5.0</ele><time>2026-03-29T13:48:55.91Z</time></trkpt><trkpt lat="42.52408137863383" lon="11.24329139226724"><ele>5.0</ele><time>2026-03-29T13:48:56.91Z</time></trkpt><trkpt lat="42.523865126779576" lon="11.243155867652943"><ele>5.0</ele><time>2026-03-29T13:48:57.91Z</time></trkpt><trkpt lat="42.52364701789361" lon="11.243038922938293"><ele>4.0</ele><time>2026-03-29T13:48:58.91Z</time></trkpt><trkpt lat="42.52342971309844" lon="11.242908317998348"><ele>3.0</ele><time>2026-03-29T13:48:59.91Z</time></trkpt><trkpt lat="42.5232120229804" lon="11.242777504876406"><ele>3.0</ele><time>2026-03-29T13:49:00.91Z</time></trkpt><trkpt lat="42.5229943398069" lon="11.242645244562105"><ele>3.0</ele><time>2026-03-29T13:49:01.91Z</time></trkpt><trkpt lat="42.52278372855528" lon="11.242518656303416"><ele>3.0</ele><time>2026-03-29T13:49:02.91Z</time></trkpt><trkpt lat="42.52258579635362" lon="11.242399319826722"><ele>3.0</ele><time>2026-03-29T13:49:03.91Z</time></trkpt><trkpt lat="42.52239844438398" lon="11.242289773178367"><ele>3.0</ele><time>2026-03-29T13:49:04.91Z</time></trkpt><trkpt lat="42.5222224011265" lon="11.24218357534686"><ele>2.6666666666666665</ele><time>2026-03-29T13:49:05.91Z</time></trkpt><trkpt lat="42.52205212123852" lon="11.242080716392312"><ele>2.333333333333333</ele><time>2026-03-29T13:49:06.91Z</time></trkpt><trkpt lat="42.521878188703276" lon="11.2419761210292"><ele>2.0</ele><time>2026-03-29T13:49:07.91Z</time></trkpt><trkpt lat="42.52171119540661" lon="11.241873719217644"><ele>2.0</ele><time>2026-03-29T13:49:08.91Z</time></trkpt><trkpt lat="42.5215461774483" lon="11.241773622248774"><ele>2.0</ele><time>2026-03-29T13:49:09.91Z</time></trkpt><trkpt lat="42.5213883014931" lon="11.241678238339997"><ele>2.0</ele><time>2026-03-29T13:49:10.91Z</time></trkpt><trkpt lat="42.52123655131603" lon="11.24158509874174"><ele>2.0</ele><time>2026-03-29T13:49:11.91Z</time></trkpt><trkpt lat="42.5210947377537" lon="11.241498145083318"><ele>2.0</ele><time>2026-03-29T13:49:12.91Z</time></trkpt><trkpt lat="42.520968462221255" lon="11.241425707724474"><ele>2.0</ele><time>2026-03-29T13:49:13.91Z</time></trkpt><trkpt lat="42.52085543530931" lon="11.241373144511325"><ele>2.0</ele><time>2026-03-29T13:49:14.909Z</time></trkpt><trkpt lat="42.520744784250354" lon="11.241336581572243"><ele>2.0</ele><time>2026-03-29T13:49:15.909Z</time></trkpt><trkpt lat="42.520635100312525" lon="11.241313735818027"><ele>2.0</ele><time>2026-03-29T13:49:16.909Z</time></trkpt><trkpt lat="42.52052446962175" lon="11.241318376086907"><ele>2.0</ele><time>2026-03-29T13:49:17.909Z</time></trkpt><trkpt lat="42.52040836540484" lon="11.241314999921737"><ele>2.0</ele><time>2026-03-29T13:49:18.909Z</time></trkpt><trkpt lat="42.52028748829058" lon="11.241329236922972"><ele>2.25</ele><time>2026-03-29T13:49:19.909Z</time></trkpt><trkpt lat="42.52015666059956" lon="11.241370573629508"><ele>2.5</ele><time>2026-03-29T13:49:20.909Z</time></trkpt><trkpt lat="42.52001963487196" lon="11.241408945118625"><ele>2.75</ele><time>2026-03-29T13:49:21.909Z</time></trkpt><trkpt lat="42.51988131534856" lon="11.241457740620904"><ele>3.0</ele><time>2026-03-29T13:49:22.909Z</time></trkpt><trkpt lat="42.519742221562026" lon="11.241510428790734"><ele>3.25</ele><time>2026-03-29T13:49:23.909Z</time></trkpt><trkpt lat="42.519611438164446" lon="11.241561512913481"><ele>3.5</ele><time>2026-03-29T13:49:24.909Z</time></trkpt><trkpt lat="42.51948494510458" lon="11.241613491531142"><ele>3.75</ele><time>2026-03-29T13:49:25.909Z</time></trkpt><trkpt lat="42.519364364345364" lon="11.241661041266504"><ele>4.0</ele><time>2026-03-29T13:49:26.909Z</time></trkpt><trkpt lat="42.519227712526686" lon="11.241721093083939"><ele>4.0</ele><time>2026-03-29T13:49:27.909Z</time></trkpt><trkpt lat="42.519075320640894" lon="11.241780571914566"><ele>4.0</ele><time>2026-03-29T13:49:28.909Z</time></trkpt><trkpt lat="42.51890225171498" lon="11.241843862213422"><ele>4.0</ele><time>2026-03-29T13:49:29.909Z</time></trkpt><trkpt lat="42.51870496613043" lon="11.24193128848956"><ele>3.333333333333333</ele><time>2026-03-29T13:49:30.909Z</time></trkpt><trkpt lat="42.51849653290149" lon="11.24200248803002"><ele>2.6666666666666665</ele><time>2026-03-29T13:49:31.909Z</time></trkpt><trkpt lat="42.51828080025504" lon="11.242078601878163"><ele>2.0</ele><time>2026-03-29T13:49:32.909Z</time></trkpt><trkpt lat="42.518059597140486" lon="11.24215975648118"><ele>3.5</ele><time>2026-03-29T13:49:33.909Z</time></trkpt><trkpt lat="42.51783577984834" lon="11.242239472120191"><ele>5.0</ele><time>2026-03-29T13:49:34.909Z</time></trkpt><trkpt lat="42.517623152593146" lon="11.24231619570526"><ele>5.0</ele><time>2026-03-29T13:49:35.909Z</time></trkpt><trkpt lat="42.51740655508965" lon="11.242382481478922"><ele>5.0</ele><time>2026-03-29T13:49:36.909Z</time></trkpt><trkpt lat="42.51719285151113" lon="11.242438880817401"><ele>5.0</ele><time>2026-03-29T13:49:37.909Z</time></trkpt><trkpt lat="42.51697570383116" lon="11.24247301822482"><ele>4.333333333333334</ele><time>2026-03-29T13:49:38.909Z</time></trkpt><trkpt lat="42.51676551313953" lon="11.242488903058435"><ele>3.666666666666667</ele><time>2026-03-29T13:49:39.909Z</time></trkpt><trkpt lat="42.516559639709875" lon="11.242499331925808"><ele>3.0</ele><time>2026-03-29T13:49:40.909Z</time></trkpt><trkpt lat="42.51635452953032" lon="11.242504163361968"><ele>2.6666666666666665</ele><time>2026-03-29T13:49:41.909Z</time></trkpt><trkpt lat="42.516156836571945" lon="11.242508311235005"><ele>2.333333333333333</ele><time>2026-03-29T13:49:42.909Z</time></trkpt><trkpt lat="42.51597161529525" lon="11.242512614660585"><ele>2.0</ele><time>2026-03-29T13:49:43.909Z</time></trkpt><trkpt lat="42.51580086392183" lon="11.242517570125539"><ele>2.0</ele><time>2026-03-29T13:49:44.909Z</time></trkpt><trkpt lat="42.51565336331369" lon="11.24251914034778"><ele>2.0</ele><time>2026-03-29T13:49:45.909Z</time></trkpt><trkpt lat="42.515531961841674" lon="11.242516501963076"><ele>2.0</ele><time>2026-03-29T13:49:46.909Z</time></trkpt><trkpt lat="42.51542792316598" lon="11.242502228544472"><ele>2.0</ele><time>2026-03-29T13:49:47.909Z</time></trkpt><trkpt lat="42.515329208617395" lon="11.242460614726157"><ele>2.25</ele><time>2026-03-29T13:49:48.909Z</time></trkpt><trkpt lat="42.51523754887485" lon="11.24238671202435"><ele>2.5</ele><time>2026-03-29T13:49:49.909Z</time></trkpt><trkpt lat="42.5151458322679" lon="11.242289887483892"><ele>2.75</ele><time>2026-03-29T13:49:50.909Z</time></trkpt><trkpt lat="42.51505645368175" lon="11.242179613901584"><ele>3.0</ele><time>2026-03-29T13:49:51.909Z</time></trkpt><trkpt lat="42.51498147069119" lon="11.242051282017455"><ele>3.0</ele><time>2026-03-29T13:49:52.908Z</time></trkpt><trkpt lat="42.51490860687325" lon="11.241919204290847"><ele>3.0</ele><time>2026-03-29T13:49:53.908Z</time></trkpt><trkpt lat="42.51487358729198" lon="11.24172320998898"><ele>3.0</ele><time>2026-03-29T13:49:54.908Z</time></trkpt><trkpt lat="42.51484025358081" lon="11.241508216165187"><ele>3.0</ele><time>2026-03-29T13:49:55.908Z</time></trkpt><trkpt lat="42.51480720611545" lon="11.24126839439142"><ele>3.0</ele><time>2026-03-29T13:49:56.908Z</time></trkpt><trkpt lat="42.51478299352647" lon="11.241006421747995"><ele>3.0</ele><time>2026-03-29T13:49:57.908Z</time></trkpt><trkpt lat="42.5147695109063" lon="11.24071656773075"><ele>3.0</ele><time>2026-03-29T13:49:58.908Z</time></trkpt><trkpt lat="42.5147665988271" lon="11.240407498833891"><ele>3.0</ele><time>2026-03-29T13:49:59.908Z</time></trkpt><trkpt lat="42.514763281563994" lon="11.24008659229458"><ele>3.0</ele><time>2026-03-29T13:50:00.908Z</time></trkpt><trkpt lat="42.514761471035044" lon="11.23974987411341"><ele>3.0</ele><time>2026-03-29T13:50:01.908Z</time></trkpt><trkpt lat="42.51476160591804" lon="11.239415134931566"><ele>3.0</ele><time>2026-03-29T13:50:02.908Z</time></trkpt><trkpt lat="42.51476132587872" lon="11.239072686174241"><ele>3.5</ele><time>2026-03-29T13:50:03.908Z</time></trkpt><trkpt lat="42.51476505204996" lon="11.238730620985985"><ele>4.0</ele><time>2026-03-29T13:50:04.908Z</time></trkpt><trkpt lat="42.51476769887737" lon="11.238387571346614"><ele>3.5</ele><time>2026-03-29T13:50:05.908Z</time></trkpt><trkpt lat="42.5147683165234" lon="11.238066438993076"><ele>3.0</ele><time>2026-03-29T13:50:06.908Z</time></trkpt><trkpt lat="42.514770109379" lon="11.237757544287875"><ele>3.0</ele><time>2026-03-29T13:50:07.908Z</time></trkpt><trkpt lat="42.514774849931456" lon="11.237448146855781"><ele>3.0</ele><time>2026-03-29T13:50:08.908Z</time></trkpt><trkpt lat="42.51477498323174" lon="11.237144769370678"><ele>3.0</ele><time>2026-03-29T13:50:09.908Z</time></trkpt><trkpt lat="42.514760471840525" lon="11.236842077424896"><ele>3.0</ele><time>2026-03-29T13:50:10.908Z</time></trkpt><trkpt lat="42.514721923210146" lon="11.236545220911042"><ele>3.0</ele><time>2026-03-29T13:50:11.908Z</time></trkpt><trkpt lat="42.5146577896527" lon="11.236250593599976"><ele>3.0</ele><time>2026-03-29T13:50:12.908Z</time></trkpt><trkpt lat="42.51457570645224" lon="11.235956403540317"><ele>3.0</ele><time>2026-03-29T13:50:13.908Z</time></trkpt><trkpt lat="42.51447376672533" lon="11.235666353449867"><ele>3.0</ele><time>2026-03-29T13:50:14.908Z</time></trkpt><trkpt lat="42.514358227432794" lon="11.235392646470295"><ele>3.0</ele><time>2026-03-29T13:50:15.908Z</time></trkpt><trkpt lat="42.514241001090696" lon="11.235121792234695"><ele>3.0</ele><time>2026-03-29T13:50:16.908Z</time></trkpt><trkpt lat="42.514128759930806" lon="11.234836867234904"><ele>3.0</ele><time>2026-03-29T13:50:17.908Z</time></trkpt><trkpt lat="42.51401743089255" lon="11.234554202943986"><ele>2.5</ele><time>2026-03-29T13:50:18.908Z</time></trkpt><trkpt lat="42.51390210572636" lon="11.23427327323247"><ele>2.0</ele><time>2026-03-29T13:50:19.908Z</time></trkpt><trkpt lat="42.51379228020853" lon="11.233999509435998"><ele>2.333333333333333</ele><time>2026-03-29T13:50:20.908Z</time></trkpt><trkpt lat="42.513687052680844" lon="11.233736356896932"><ele>2.6666666666666665</ele><time>2026-03-29T13:50:21.908Z</time></trkpt><trkpt lat="42.51358191392409" lon="11.233476426878427"><ele>3.0</ele><time>2026-03-29T13:50:22.908Z</time></trkpt><trkpt lat="42.51347437284195" lon="11.233219368819164"><ele>2.6666666666666665</ele><time>2026-03-29T13:50:23.908Z</time></trkpt><trkpt lat="42.513368922122794" lon="11.232957112442286"><ele>2.333333333333333</ele><time>2026-03-29T13:50:24.908Z</time></trkpt><trkpt lat="42.513265056006674" lon="11.232688944411139"><ele>2.0</ele><time>2026-03-29T13:50:25.908Z</time></trkpt><trkpt lat="42.51315647174384" lon="11.23241784699434"><ele>1.5</ele><time>2026-03-29T13:50:26.908Z</time></trkpt><trkpt lat="42.513044789849424" lon="11.232150316913229"><ele>1.0</ele><time>2026-03-29T13:50:27.908Z</time></trkpt><trkpt lat="42.51293443571056" lon="11.231882215080294"><ele>1.5</ele><time>2026-03-29T13:50:28.908Z</time></trkpt><trkpt lat="42.512826644325216" lon="11.231612622286297"><ele>2.0</ele><time>2026-03-29T13:50:29.908Z</time></trkpt><trkpt lat="42.512719705042755" lon="11.231342645957476"><ele>2.0</ele><time>2026-03-29T13:50:30.907Z</time></trkpt><trkpt lat="42.5126098674598" lon="11.231074570059903"><ele>2.0</ele><time>2026-03-29T13:50:31.907Z</time></trkpt><trkpt lat="42.512504667858614" lon="11.230810826786874"><ele>2.0</ele><time>2026-03-29T13:50:32.907Z</time></trkpt><trkpt lat="42.512395468251704" lon="11.230544975758482"><ele>1.6666666666666665</ele><time>2026-03-29T13:50:33.907Z</time></trkpt><trkpt lat="42.51228771651316" lon="11.230278157853434"><ele>1.3333333333333333</ele><time>2026-03-29T13:50:34.907Z</time></trkpt><trkpt lat="42.51218588133819" lon="11.23001640186407"><ele>1.0</ele><time>2026-03-29T13:50:35.907Z</time></trkpt><trkpt lat="42.51207807442711" lon="11.229744922328932"><ele>1.0</ele><time>2026-03-29T13:50:36.907Z</time></trkpt><trkpt lat="42.5119704590013" lon="11.229479270645925"><ele>1.0</ele><time>2026-03-29T13:50:37.907Z</time></trkpt><trkpt lat="42.51186473617471" lon="11.22921363508262"><ele>1.0</ele><time>2026-03-29T13:50:38.907Z</time></trkpt><trkpt lat="42.511764868576144" lon="11.22895433514269"><ele>1.0</ele><time>2026-03-29T13:50:39.907Z</time></trkpt><trkpt lat="42.51166400067712" lon="11.22869307371858"><ele>1.0</ele><time>2026-03-29T13:50:40.907Z</time></trkpt><trkpt lat="42.51156029247407" lon="11.228432467224"><ele>1.0</ele><time>2026-03-29T13:50:41.907Z</time></trkpt><trkpt lat="42.511457646791136" lon="11.22818093687699"><ele>1.0</ele><time>2026-03-29T13:50:42.907Z</time></trkpt><trkpt lat="42.511357248905526" lon="11.227925357286244"><ele>1.0</ele><time>2026-03-29T13:50:43.907Z</time></trkpt><trkpt lat="42.51125485665956" lon="11.227661279248123"><ele>1.0</ele><time>2026-03-29T13:50:44.909Z</time></trkpt><trkpt lat="42.51114632758327" lon="11.227399611489453"><ele>1.3333333333333333</ele><time>2026-03-29T13:50:45.909Z</time></trkpt><trkpt lat="42.51104021075183" lon="11.227134817661936"><ele>1.6666666666666665</ele><time>2026-03-29T13:50:46.909Z</time></trkpt><trkpt lat="42.51093483256162" lon="11.226865914958271"><ele>2.0</ele><time>2026-03-29T13:50:47.909Z</time></trkpt><trkpt lat="42.510832795125054" lon="11.226598968451782"><ele>2.0</ele><time>2026-03-29T13:50:48.909Z</time></trkpt><trkpt lat="42.51072305751983" lon="11.226329662911349"><ele>2.0</ele><time>2026-03-29T13:50:49.909Z</time></trkpt><trkpt lat="42.51060689408248" lon="11.226062244750032"><ele>2.0</ele><time>2026-03-29T13:50:50.909Z</time></trkpt><trkpt lat="42.51049747006245" lon="11.22579408248072"><ele>2.0</ele><time>2026-03-29T13:50:51.908Z</time></trkpt><trkpt lat="42.51039098323187" lon="11.22551987876514"><ele>1.5</ele><time>2026-03-29T13:50:52.908Z</time></trkpt><trkpt lat="42.51027788927858" lon="11.225251777537466"><ele>1.0</ele><time>2026-03-29T13:50:53.908Z</time></trkpt><trkpt lat="42.51016750381798" lon="11.224984322236095"><ele>1.0</ele><time>2026-03-29T13:50:54.908Z</time></trkpt><trkpt lat="42.510056690880575" lon="11.224716637811621"><ele>1.0</ele><time>2026-03-29T13:50:55.908Z</time></trkpt><trkpt lat="42.50994559425243" lon="11.224441746031172"><ele>1.0</ele><time>2026-03-29T13:50:56.908Z</time></trkpt><trkpt lat="42.50983657481003" lon="11.224170995339007"><ele>1.0</ele><time>2026-03-29T13:50:57.908Z</time></trkpt><trkpt lat="42.50972852548721" lon="11.223899328361949"><ele>1.0</ele><time>2026-03-29T13:50:58.908Z</time></trkpt><trkpt lat="42.50961710694844" lon="11.223627443905762"><ele>1.0</ele><time>2026-03-29T13:50:59.908Z</time></trkpt><trkpt lat="42.50950714369495" lon="11.223349879259944"><ele>1.5</ele><time>2026-03-29T13:51:00.908Z</time></trkpt><trkpt lat="42.5093997339204" lon="11.223070590279743"><ele>2.0</ele><time>2026-03-29T13:51:01.908Z</time></trkpt><trkpt lat="42.509289171686454" lon="11.222788802128056"><ele>2.0</ele><time>2026-03-29T13:51:02.908Z</time></trkpt><trkpt lat="42.50917850740067" lon="11.222514708535556"><ele>2.0</ele><time>2026-03-29T13:51:03.908Z</time></trkpt><trkpt lat="42.509066512971174" lon="11.222239434786921"><ele>2.0</ele><time>2026-03-29T13:51:04.908Z</time></trkpt><trkpt lat="42.50895768328572" lon="11.221969785022445"><ele>2.0</ele><time>2026-03-29T13:51:05.908Z</time></trkpt><trkpt lat="42.50884831930904" lon="11.221702130577173"><ele>1.5</ele><time>2026-03-29T13:51:06.908Z</time></trkpt><trkpt lat="42.50874078404486" lon="11.2214325053714"><ele>1.0</ele><time>2026-03-29T13:51:07.908Z</time></trkpt><trkpt lat="42.508634337903175" lon="11.221160506472403"><ele>1.0</ele><time>2026-03-29T13:51:08.908Z</time></trkpt><trkpt lat="42.50852950061432" lon="11.220887123653613"><ele>1.0</ele><time>2026-03-29T13:51:09.908Z</time></trkpt><trkpt lat="42.50842106417455" lon="11.220617915657723"><ele>1.5</ele><time>2026-03-29T13:51:10.908Z</time></trkpt><trkpt lat="42.508311966764985" lon="11.220345821311545"><ele>2.0</ele><time>2026-03-29T13:51:11.908Z</time></trkpt><trkpt lat="42.508200631321394" lon="11.220082561652811"><ele>2.0</ele><time>2026-03-29T13:51:12.908Z</time></trkpt><trkpt lat="42.508095677697185" lon="11.21981926271314"><ele>2.0</ele><time>2026-03-29T13:51:13.908Z</time></trkpt><trkpt lat="42.5079938928157" lon="11.219576354253096"><ele>2.0</ele><time>2026-03-29T13:51:14.908Z</time></trkpt><trkpt lat="42.50789933727229" lon="11.219342856848208"><ele>1.6666666666666665</ele><time>2026-03-29T13:51:15.908Z</time></trkpt><trkpt lat="42.507805370000625" lon="11.219117236484943"><ele>1.3333333333333333</ele><time>2026-03-29T13:51:16.908Z</time></trkpt><trkpt lat="42.50771551809838" lon="11.218904163582568"><ele>1.0</ele><time>2026-03-29T13:51:17.908Z</time></trkpt><trkpt lat="42.50762870366728" lon="11.218682646901915"><ele>1.0</ele><time>2026-03-29T13:51:18.908Z</time></trkpt><trkpt lat="42.5075560375944" lon="11.218465280818155"><ele>1.0</ele><time>2026-03-29T13:51:19.908Z</time></trkpt><trkpt lat="42.50749575611245" lon="11.21824263601397"><ele>1.0</ele><time>2026-03-29T13:51:20.908Z</time></trkpt><trkpt lat="42.50744612460041" lon="11.218031153343595"><ele>1.25</ele><time>2026-03-29T13:51:21.908Z</time></trkpt><trkpt lat="42.507397518624195" lon="11.21782722488261"><ele>1.5</ele><time>2026-03-29T13:51:22.908Z</time></trkpt><trkpt lat="42.5073618997402" lon="11.217637259652747"><ele>1.75</ele><time>2026-03-29T13:51:23.908Z</time></trkpt><trkpt lat="42.50733743864425" lon="11.217470354768608"><ele>2.0</ele><time>2026-03-29T13:51:24.908Z</time></trkpt><trkpt lat="42.507325812254365" lon="11.217322519354644"><ele>2.0</ele><time>2026-03-29T13:51:25.908Z</time></trkpt><trkpt lat="42.507334661383815" lon="11.217180072949523"><ele>2.0</ele><time>2026-03-29T13:51:26.908Z</time></trkpt><trkpt lat="42.507349600096084" lon="11.217061237054699"><ele>2.0</ele><time>2026-03-29T13:51:27.908Z</time></trkpt><trkpt lat="42.50733859532925" lon="11.21694894652294"><ele>2.0</ele><time>2026-03-29T13:51:28.908Z</time></trkpt><trkpt lat="42.50731058767235" lon="11.216818324978615"><ele>2.0</ele><time>2026-03-29T13:51:29.908Z</time></trkpt><trkpt lat="42.507268953311645" lon="11.21667319137765"><ele>2.0</ele><time>2026-03-29T13:51:30.907Z</time></trkpt><trkpt lat="42.507243661577185" lon="11.21649157855754"><ele>2.0</ele><time>2026-03-29T13:51:31.907Z</time></trkpt><trkpt lat="42.50722546637362" lon="11.216275692957511"><ele>2.0</ele><time>2026-03-29T13:51:32.907Z</time></trkpt><trkpt lat="42.50719932008572" lon="11.216045944825456"><ele>2.0</ele><time>2026-03-29T13:51:33.907Z</time></trkpt><trkpt lat="42.50717706551746" lon="11.21580094102945"><ele>2.0</ele><time>2026-03-29T13:51:34.907Z</time></trkpt><trkpt lat="42.50716369308952" lon="11.215542775539225"><ele>2.0</ele><time>2026-03-29T13:51:35.907Z</time></trkpt><trkpt lat="42.50715291209445" lon="11.21526698623746"><ele>1.6666666666666665</ele><time>2026-03-29T13:51:36.907Z</time></trkpt><trkpt lat="42.50714211421176" lon="11.214984107966186"><ele>1.3333333333333333</ele><time>2026-03-29T13:51:37.907Z</time></trkpt><trkpt lat="42.50712891118884" lon="11.214701474679885"><ele>1.0</ele><time>2026-03-29T13:51:38.907Z</time></trkpt><trkpt lat="42.50711173296885" lon="11.214423912735223"><ele>1.0</ele><time>2026-03-29T13:51:39.907Z</time></trkpt><trkpt lat="42.507085159626754" lon="11.214149442917106"><ele>1.0</ele><time>2026-03-29T13:51:40.907Z</time></trkpt><trkpt lat="42.50706331109567" lon="11.213873850406795"><ele>1.0</ele><time>2026-03-29T13:51:41.907Z</time></trkpt><trkpt lat="42.50705264519421" lon="11.213603266471834"><ele>1.0</ele><time>2026-03-29T13:51:42.907Z</time></trkpt><trkpt lat="42.50704963330792" lon="11.213322484670751"><ele>1.0</ele><time>2026-03-29T13:51:43.907Z</time></trkpt><trkpt lat="42.5070526730158" lon="11.213025446839847"><ele>1.0</ele><time>2026-03-29T13:51:44.907Z</time></trkpt><trkpt lat="42.50707341241349" lon="11.212717700742342"><ele>1.0</ele><time>2026-03-29T13:51:45.907Z</time></trkpt><trkpt lat="42.50711980703127" lon="11.212391992951499"><ele>1.0</ele><time>2026-03-29T13:51:46.907Z</time></trkpt><trkpt lat="42.507187829669654" lon="11.212060816130931"><ele>1.0</ele><time>2026-03-29T13:51:47.907Z</time></trkpt><trkpt lat="42.507275025053076" lon="11.211738361555046"><ele>1.0</ele><time>2026-03-29T13:51:48.907Z</time></trkpt><trkpt lat="42.50736950246677" lon="11.211442365457813"><ele>1.0</ele><time>2026-03-29T13:51:49.907Z</time></trkpt><trkpt lat="42.50745462533381" lon="11.211153879088323"><ele>1.0</ele><time>2026-03-29T13:51:50.907Z</time></trkpt><trkpt lat="42.50752918306908" lon="11.210859297605952"><ele>0.5</ele><time>2026-03-29T13:51:51.907Z</time></trkpt><trkpt lat="42.50758821128979" lon="11.210557323803629"><ele>0.0</ele><time>2026-03-29T13:51:52.907Z</time></trkpt><trkpt lat="42.50762839828861" lon="11.210261809521267"><ele>0.0</ele><time>2026-03-29T13:51:53.907Z</time></trkpt><trkpt lat="42.50764426350965" lon="11.209965561257448"><ele>0.0</ele><time>2026-03-29T13:51:54.907Z</time></trkpt><trkpt lat="42.507640617704354" lon="11.209653503877915"><ele>0.0</ele><time>2026-03-29T13:51:55.907Z</time></trkpt><trkpt lat="42.507618731086914" lon="11.209331584965344"><ele>0.0</ele><time>2026-03-29T13:51:56.907Z</time></trkpt><trkpt lat="42.50757576915344" lon="11.209019251456962"><ele>0.0</ele><time>2026-03-29T13:51:57.907Z</time></trkpt><trkpt lat="42.50751072732213" lon="11.208715768791347"><ele>1.0</ele><time>2026-03-29T13:51:58.907Z</time></trkpt><trkpt lat="42.5074283267448" lon="11.208414594762873"><ele>2.0</ele><time>2026-03-29T13:51:59.907Z</time></trkpt><trkpt lat="42.507330307013135" lon="11.20812302296061"><ele>2.0</ele><time>2026-03-29T13:52:00.907Z</time></trkpt><trkpt lat="42.50721383217056" lon="11.207829101803387"><ele>2.0</ele><time>2026-03-29T13:52:01.907Z</time></trkpt><trkpt lat="42.50708762347384" lon="11.20752676946765"><ele>1.0</ele><time>2026-03-29T13:52:02.907Z</time></trkpt><trkpt lat="42.50695956946105" lon="11.20721176359209"><ele>0.0</ele><time>2026-03-29T13:52:03.907Z</time></trkpt><trkpt lat="42.50682684872768" lon="11.206880971938704"><ele>0.0</ele><time>2026-03-29T13:52:04.907Z</time></trkpt><trkpt lat="42.506686263000965" lon="11.20654278843741"><ele>0.0</ele><time>2026-03-29T13:52:05.907Z</time></trkpt><trkpt lat="42.506536451136974" lon="11.206187487926094"><ele>0.0</ele><time>2026-03-29T13:52:06.907Z</time></trkpt><trkpt lat="42.50639994238347" lon="11.205844184950216"><ele>0.0</ele><time>2026-03-29T13:52:07.906Z</time></trkpt><trkpt lat="42.506270079964445" lon="11.20551035914678"><ele>0.5</ele><time>2026-03-29T13:52:08.906Z</time></trkpt><trkpt lat="42.50613909795223" lon="11.205198485026132"><ele>1.0</ele><time>2026-03-29T13:52:09.906Z</time></trkpt><trkpt lat="42.50601793468725" lon="11.204901283124867"><ele>0.0</ele><time>2026-03-29T13:52:10.906Z</time></trkpt><trkpt lat="42.50589938370836" lon="11.204616607844944"><ele>-1.0</ele><time>2026-03-29T13:52:11.906Z</time></trkpt><trkpt lat="42.505781365412105" lon="11.204337822189038"><ele>-1.0</ele><time>2026-03-29T13:52:12.906Z</time></trkpt><trkpt lat="42.50566522888217" lon="11.204055850270272"><ele>-1.0</ele><time>2026-03-29T13:52:13.906Z</time></trkpt><trkpt lat="42.505544617861204" lon="11.203771766911578"><ele>-1.0</ele><time>2026-03-29T13:52:14.906Z</time></trkpt><trkpt lat="42.505426965961384" lon="11.203491186820713"><ele>-1.0</ele><time>2026-03-29T13:52:15.906Z</time></trkpt><trkpt lat="42.50531571459226" lon="11.203221371283634"><ele>-1.0</ele><time>2026-03-29T13:52:16.906Z</time></trkpt><trkpt lat="42.505217378311826" lon="11.202945926636731"><ele>-1.0</ele><time>2026-03-29T13:52:17.906Z</time></trkpt><trkpt lat="42.50511017335427" lon="11.20267608806356"><ele>-1.0</ele><time>2026-03-29T13:52:18.906Z</time></trkpt><trkpt lat="42.50500236416962" lon="11.202406884399478"><ele>-1.0</ele><time>2026-03-29T13:52:19.906Z</time></trkpt><trkpt lat="42.50489183062534" lon="11.202134455360165"><ele>-1.0</ele><time>2026-03-29T13:52:20.906Z</time></trkpt><trkpt lat="42.50478099319206" lon="11.201861277581463"><ele>-1.0</ele><time>2026-03-29T13:52:21.906Z</time></trkpt><trkpt lat="42.50467080876462" lon="11.201588346167718"><ele>-1.0</ele><time>2026-03-29T13:52:22.906Z</time></trkpt><trkpt lat="42.50455994156337" lon="11.201309878502245"><ele>-1.0</ele><time>2026-03-29T13:52:23.906Z</time></trkpt><trkpt lat="42.50443745031346" lon="11.20104681122631"><ele>-1.0</ele><time>2026-03-29T13:52:24.906Z</time></trkpt><trkpt lat="42.504328646709595" lon="11.200790733427887"><ele>-1.0</ele><time>2026-03-29T13:52:25.906Z</time></trkpt><trkpt lat="42.50422129805757" lon="11.200552421437468"><ele>-1.0</ele><time>2026-03-29T13:52:26.906Z</time></trkpt><trkpt lat="42.50410696407713" lon="11.20033111402647"><ele>-0.6666666666666666</ele><time>2026-03-29T13:52:27.906Z</time></trkpt><trkpt lat="42.50398470621092" lon="11.200123735182503"><ele>-0.3333333333333333</ele><time>2026-03-29T13:52:28.906Z</time></trkpt><trkpt lat="42.50384768822352" lon="11.199929260083424"><ele>0.0</ele><time>2026-03-29T13:52:29.906Z</time></trkpt><trkpt lat="42.50369566309673" lon="11.199743956000136"><ele>0.0</ele><time>2026-03-29T13:52:30.906Z</time></trkpt><trkpt lat="42.50355082979379" lon="11.199556072954037"><ele>0.0</ele><time>2026-03-29T13:52:31.906Z</time></trkpt><trkpt lat="42.503382126648894" lon="11.199420904612895"><ele>0.0</ele><time>2026-03-29T13:52:32.906Z</time></trkpt><trkpt lat="42.503227356210424" lon="11.199284167741054"><ele>0.0</ele><time>2026-03-29T13:52:33.906Z</time></trkpt><trkpt lat="42.50308287650395" lon="11.199158939209463"><ele>0.0</ele><time>2026-03-29T13:52:34.906Z</time></trkpt><trkpt lat="42.50296207840016" lon="11.199057505302857"><ele>0.0</ele><time>2026-03-29T13:52:35.906Z</time></trkpt><trkpt lat="42.50286027324857" lon="11.198965995885617"><ele>0.0</ele><time>2026-03-29T13:52:36.906Z</time></trkpt><trkpt lat="42.50277855853999" lon="11.198877705039322"><ele>0.0</ele><time>2026-03-29T13:52:37.906Z</time></trkpt><trkpt lat="42.502716860823135" lon="11.198784221681375"><ele>0.0</ele><time>2026-03-29T13:52:38.906Z</time></trkpt><trkpt lat="42.50264859188656" lon="11.198734664294497"><ele>0.0</ele><time>2026-03-29T13:52:39.906Z</time></trkpt><trkpt lat="42.502580872894754" lon="11.198683289999003"><ele>0.0</ele><time>2026-03-29T13:52:40.906Z</time></trkpt><trkpt lat="42.5025169945654" lon="11.198634829389754"><ele>0.0</ele><time>2026-03-29T13:52:41.906Z</time></trkpt><trkpt lat="42.5025650074629" lon="11.19837242441583"><ele>0.0</ele><time>2026-03-29T13:52:42.906Z</time></trkpt><trkpt lat="42.50257683550474" lon="11.198229274372215"><ele>0.0</ele><time>2026-03-29T13:52:43.906Z</time></trkpt><trkpt lat="42.5025724460576" lon="11.198074337006167"><ele>0.0</ele><time>2026-03-29T13:52:44.906Z</time></trkpt><trkpt lat="42.502557950146" lon="11.197922379646334"><ele>0.0</ele><time>2026-03-29T13:52:45.905Z</time></trkpt><trkpt lat="42.50253051619391" lon="11.19778138210696"><ele>0.0</ele><time>2026-03-29T13:52:46.905Z</time></trkpt><trkpt lat="42.502481656269566" lon="11.197640683925853"><ele>0.25</ele><time>2026-03-29T13:52:47.905Z</time></trkpt><trkpt lat="42.50240254839748" lon="11.197513599285736"><ele>0.5</ele><time>2026-03-29T13:52:48.905Z</time></trkpt><trkpt lat="42.50229704040471" lon="11.197379255028341"><ele>0.75</ele><time>2026-03-29T13:52:49.905Z</time></trkpt><trkpt lat="42.502182277272645" lon="11.1972305586759"><ele>1.0</ele><time>2026-03-29T13:52:50.907Z</time></trkpt><trkpt lat="42.502069534679" lon="11.197047295490755"><ele>0.6666666666666666</ele><time>2026-03-29T13:52:51.907Z</time></trkpt><trkpt lat="42.50194925073595" lon="11.196851181742995"><ele>0.3333333333333333</ele><time>2026-03-29T13:52:52.907Z</time></trkpt><trkpt lat="42.50181802558824" lon="11.196662975414023"><ele>0.0</ele><time>2026-03-29T13:52:53.907Z</time></trkpt><trkpt lat="42.50168171712797" lon="11.196481343982875"><ele>0.0</ele><time>2026-03-29T13:52:54.907Z</time></trkpt><trkpt lat="42.50154792622973" lon="11.196297930706727"><ele>0.0</ele><time>2026-03-29T13:52:55.907Z</time></trkpt><trkpt lat="42.501414428925465" lon="11.19611777596528"><ele>0.0</ele><time>2026-03-29T13:52:56.907Z</time></trkpt><trkpt lat="42.50128086411667" lon="11.195944979604958"><ele>0.0</ele><time>2026-03-29T13:52:57.907Z</time></trkpt><trkpt lat="42.50114539272756" lon="11.195778967741465"><ele>0.0</ele><time>2026-03-29T13:52:58.907Z</time></trkpt><trkpt lat="42.50100420371943" lon="11.19562018613425"><ele>0.0</ele><time>2026-03-29T13:52:59.906Z</time></trkpt><trkpt lat="42.50085924350609" lon="11.195472933583444"><ele>0.6666666666666666</ele><time>2026-03-29T13:53:00.906Z</time></trkpt><trkpt lat="42.500707610690895" lon="11.195336977194888"><ele>1.3333333333333333</ele><time>2026-03-29T13:53:01.906Z</time></trkpt><trkpt lat="42.50056121576066" lon="11.195215625835557"><ele>2.0</ele><time>2026-03-29T13:53:02.907Z</time></trkpt><trkpt lat="42.50041757424851" lon="11.195102919367608"><ele>1.6666666666666665</ele><time>2026-03-29T13:53:03.907Z</time></trkpt><trkpt lat="42.50026881155802" lon="11.194999563388846"><ele>1.3333333333333333</ele><time>2026-03-29T13:53:04.907Z</time></trkpt><trkpt lat="42.50012063597704" lon="11.194905315138968"><ele>1.0</ele><time>2026-03-29T13:53:05.907Z</time></trkpt><trkpt lat="42.49996889370457" lon="11.194817660248942"><ele>2.0</ele><time>2026-03-29T13:53:06.907Z</time></trkpt><trkpt lat="42.49981487211407" lon="11.194741129486207"><ele>3.0</ele><time>2026-03-29T13:53:07.907Z</time></trkpt><trkpt lat="42.49965798327292" lon="11.194672241243486"><ele>4.0</ele><time>2026-03-29T13:53:08.907Z</time></trkpt><trkpt lat="42.49949760297278" lon="11.194610128612064"><ele>4.0</ele><time>2026-03-29T13:53:09.907Z</time></trkpt><trkpt lat="42.499335474748065" lon="11.194554520626873"><ele>4.0</ele><time>2026-03-29T13:53:10.907Z</time></trkpt><trkpt lat="42.49917319975164" lon="11.19451258725812"><ele>4.0</ele><time>2026-03-29T13:53:11.907Z</time></trkpt><trkpt lat="42.49900809041654" lon="11.194480362403949"><ele>4.0</ele><time>2026-03-29T13:53:12.907Z</time></trkpt><trkpt lat="42.49884203135314" lon="11.194458558325836"><ele>4.0</ele><time>2026-03-29T13:53:13.907Z</time></trkpt><trkpt lat="42.49867722945137" lon="11.194447075155965"><ele>4.0</ele><time>2026-03-29T13:53:14.907Z</time></trkpt><trkpt lat="42.49850892017752" lon="11.194449288183366"><ele>3.333333333333333</ele><time>2026-03-29T13:53:15.907Z</time></trkpt><trkpt lat="42.49834473353407" lon="11.194455410253662"><ele>2.6666666666666665</ele><time>2026-03-29T13:53:16.907Z</time></trkpt><trkpt lat="42.498176644576496" lon="11.1944526975128"><ele>2.0</ele><time>2026-03-29T13:53:17.906Z</time></trkpt><trkpt lat="42.49800674177272" lon="11.194452170007175"><ele>2.0</ele><time>2026-03-29T13:53:18.906Z</time></trkpt><trkpt lat="42.49784183010023" lon="11.194454411160049"><ele>2.0</ele><time>2026-03-29T13:53:19.906Z</time></trkpt><trkpt lat="42.49767242727191" lon="11.194460320206508"><ele>2.0</ele><time>2026-03-29T13:53:20.906Z</time></trkpt><trkpt lat="42.49750362544843" lon="11.194471895020603"><ele>2.0</ele><time>2026-03-29T13:53:21.906Z</time></trkpt><trkpt lat="42.49733584941429" lon="11.194479940772451"><ele>2.0</ele><time>2026-03-29T13:53:22.906Z</time></trkpt><trkpt lat="42.49717031804322" lon="11.194491909919792"><ele>2.0</ele><time>2026-03-29T13:53:23.906Z</time></trkpt><trkpt lat="42.49699822822662" lon="11.194493660642047"><ele>2.333333333333333</ele><time>2026-03-29T13:53:24.906Z</time></trkpt><trkpt lat="42.4968289972149" lon="11.194498689253201"><ele>2.6666666666666665</ele><time>2026-03-29T13:53:25.906Z</time></trkpt><trkpt lat="42.49665986293248" lon="11.194508822596253"><ele>3.0</ele><time>2026-03-29T13:53:26.906Z</time></trkpt><trkpt lat="42.496492524189875" lon="11.194512791075782"><ele>3.0</ele><time>2026-03-29T13:53:27.906Z</time></trkpt><trkpt lat="42.49632562501535" lon="11.194511380183211"><ele>3.0</ele><time>2026-03-29T13:53:28.906Z</time></trkpt><trkpt lat="42.49615996226013" lon="11.19451486847918"><ele>3.0</ele><time>2026-03-29T13:53:29.906Z</time></trkpt><trkpt lat="42.49599335488427" lon="11.194516214464086"><ele>3.333333333333333</ele><time>2026-03-29T13:53:30.906Z</time></trkpt><trkpt lat="42.49582512748956" lon="11.194511102608363"><ele>3.6666666666666665</ele><time>2026-03-29T13:53:31.906Z</time></trkpt><trkpt lat="42.4956534711882" lon="11.194503343944877"><ele>4.0</ele><time>2026-03-29T13:53:32.906Z</time></trkpt><trkpt lat="42.49548514837266" lon="11.19449047489859"><ele>3.6666666666666665</ele><time>2026-03-29T13:53:33.906Z</time></trkpt><trkpt lat="42.49531424412852" lon="11.19448294281325"><ele>3.333333333333333</ele><time>2026-03-29T13:53:34.906Z</time></trkpt><trkpt lat="42.49514817313158" lon="11.19447060183395"><ele>3.0</ele><time>2026-03-29T13:53:35.906Z</time></trkpt><trkpt lat="42.49497742006829" lon="11.194455560167034"><ele>3.0</ele><time>2026-03-29T13:53:36.906Z</time></trkpt><trkpt lat="42.49481188700889" lon="11.194438451308883"><ele>3.0</ele><time>2026-03-29T13:53:37.906Z</time></trkpt><trkpt lat="42.49464328733919" lon="11.194422985093325"><ele>3.0</ele><time>2026-03-29T13:53:38.906Z</time></trkpt><trkpt lat="42.494474549739124" lon="11.19441356293819"><ele>3.333333333333333</ele><time>2026-03-29T13:53:39.906Z</time></trkpt><trkpt lat="42.49430553746075" lon="11.194399651730366"><ele>3.6666666666666665</ele><time>2026-03-29T13:53:40.906Z</time></trkpt><trkpt lat="42.49414053647479" lon="11.194381632661806"><ele>4.0</ele><time>2026-03-29T13:53:41.906Z</time></trkpt><trkpt lat="42.49397149963842" lon="11.194364018996005"><ele>4.0</ele><time>2026-03-29T13:53:42.906Z</time></trkpt><trkpt lat="42.49380017758378" lon="11.19435155505634"><ele>4.0</ele><time>2026-03-29T13:53:43.906Z</time></trkpt><trkpt lat="42.493634688675705" lon="11.194339501602173"><ele>4.0</ele><time>2026-03-29T13:53:44.906Z</time></trkpt><trkpt lat="42.49346960100374" lon="11.194324574570922"><ele>4.0</ele><time>2026-03-29T13:53:45.906Z</time></trkpt><trkpt lat="42.49330414848851" lon="11.194301497642092"><ele>4.0</ele><time>2026-03-29T13:53:46.906Z</time></trkpt><trkpt lat="42.49314002950331" lon="11.194272959556786"><ele>4.0</ele><time>2026-03-29T13:53:47.906Z</time></trkpt><trkpt lat="42.49297269892626" lon="11.194234911823763"><ele>3.6666666666666665</ele><time>2026-03-29T13:53:48.906Z</time></trkpt><trkpt lat="42.492806909212504" lon="11.19420399452206"><ele>3.333333333333333</ele><time>2026-03-29T13:53:49.906Z</time></trkpt><trkpt lat="42.49264527863935" lon="11.194167302966642"><ele>3.0</ele><time>2026-03-29T13:53:50.906Z</time></trkpt><trkpt lat="42.492479354107914" lon="11.194133223732766"><ele>3.0</ele><time>2026-03-29T13:53:51.906Z</time></trkpt><trkpt lat="42.492313361892194" lon="11.194100441478467"><ele>3.0</ele><time>2026-03-29T13:53:52.906Z</time></trkpt><trkpt lat="42.49214481466512" lon="11.19407603974069"><ele>3.0</ele><time>2026-03-29T13:53:53.906Z</time></trkpt><trkpt lat="42.49197786349818" lon="11.194046981699804"><ele>3.333333333333333</ele><time>2026-03-29T13:53:54.905Z</time></trkpt><trkpt lat="42.49181078915662" lon="11.19401469891768"><ele>3.6666666666666665</ele><time>2026-03-29T13:53:55.905Z</time></trkpt><trkpt lat="42.491639164954826" lon="11.193981364024856"><ele>4.0</ele><time>2026-03-29T13:53:56.905Z</time></trkpt><trkpt lat="42.49146723036352" lon="11.19395306774074"><ele>4.666666666666666</ele><time>2026-03-29T13:53:57.905Z</time></trkpt><trkpt lat="42.491294467942" lon="11.193920128959022"><ele>5.333333333333333</ele><time>2026-03-29T13:53:58.905Z</time></trkpt><trkpt lat="42.491119780109116" lon="11.193887538646091"><ele>6.0</ele><time>2026-03-29T13:53:59.905Z</time></trkpt><trkpt lat="42.49095079295467" lon="11.193856834918549"><ele>6.0</ele><time>2026-03-29T13:54:00.905Z</time></trkpt><trkpt lat="42.49077363719957" lon="11.193824658366616"><ele>6.0</ele><time>2026-03-29T13:54:01.905Z</time></trkpt><trkpt lat="42.49060361908761" lon="11.193803167805608"><ele>6.0</ele><time>2026-03-29T13:54:02.905Z</time></trkpt><trkpt lat="42.49043265225882" lon="11.193770693623163"><ele>6.0</ele><time>2026-03-29T13:54:03.905Z</time></trkpt><trkpt lat="42.490258011017076" lon="11.193746735727048"><ele>6.0</ele><time>2026-03-29T13:54:04.905Z</time></trkpt><trkpt lat="42.49008667445893" lon="11.193714102621623"><ele>6.0</ele><time>2026-03-29T13:54:05.905Z</time></trkpt><trkpt lat="42.489917986880855" lon="11.193679327937296"><ele>6.0</ele><time>2026-03-29T13:54:06.905Z</time></trkpt><trkpt lat="42.489747708403" lon="11.19364899761216"><ele>6.0</ele><time>2026-03-29T13:54:07.905Z</time></trkpt><trkpt lat="42.48957847643732" lon="11.193622483528706"><ele>6.0</ele><time>2026-03-29T13:54:08.905Z</time></trkpt><trkpt lat="42.489409286851874" lon="11.193593010289426"><ele>5.666666666666667</ele><time>2026-03-29T13:54:09.905Z</time></trkpt><trkpt lat="42.48924128588679" lon="11.193558220321798"><ele>5.333333333333334</ele><time>2026-03-29T13:54:10.905Z</time></trkpt><trkpt lat="42.489076573136" lon="11.193519543848893"><ele>5.0</ele><time>2026-03-29T13:54:11.905Z</time></trkpt><trkpt lat="42.48890592293346" lon="11.193495198292698"><ele>5.0</ele><time>2026-03-29T13:54:12.905Z</time></trkpt><trkpt lat="42.4887379953296" lon="11.193465572359308"><ele>5.0</ele><time>2026-03-29T13:54:13.905Z</time></trkpt><trkpt lat="42.48857176729693" lon="11.19343427776414"><ele>5.0</ele><time>2026-03-29T13:54:14.905Z</time></trkpt><trkpt lat="42.48839949477341" lon="11.193405158662353"><ele>5.0</ele><time>2026-03-29T13:54:15.905Z</time></trkpt><trkpt lat="42.4882279209807" lon="11.193374583506234"><ele>5.0</ele><time>2026-03-29T13:54:16.905Z</time></trkpt><trkpt lat="42.488058235136855" lon="11.193343896730708"><ele>5.0</ele><time>2026-03-29T13:54:17.905Z</time></trkpt><trkpt lat="42.487885722597916" lon="11.193314477617404"><ele>4.0</ele><time>2026-03-29T13:54:18.905Z</time></trkpt><trkpt lat="42.48771399652855" lon="11.193287641327457"><ele>3.0</ele><time>2026-03-29T13:54:19.905Z</time></trkpt><trkpt lat="42.48754525063429" lon="11.193259357145282"><ele>2.0</ele><time>2026-03-29T13:54:20.905Z</time></trkpt><trkpt lat="42.48737589036051" lon="11.193222991338812"><ele>2.0</ele><time>2026-03-29T13:54:21.905Z</time></trkpt><trkpt lat="42.48720541105633" lon="11.19319134590192"><ele>2.0</ele><time>2026-03-29T13:54:22.905Z</time></trkpt><trkpt lat="42.48702999881419" lon="11.193176741895256"><ele>2.0</ele><time>2026-03-29T13:54:23.905Z</time></trkpt><trkpt lat="42.48686052957761" lon="11.19314796786793"><ele>3.0</ele><time>2026-03-29T13:54:24.905Z</time></trkpt><trkpt lat="42.48668719280466" lon="11.193126875070623"><ele>4.0</ele><time>2026-03-29T13:54:25.905Z</time></trkpt><trkpt lat="42.48651478906757" lon="11.193097064546377"><ele>5.0</ele><time>2026-03-29T13:54:26.905Z</time></trkpt><trkpt lat="42.4863442458325" lon="11.193068364620311"><ele>6.0</ele><time>2026-03-29T13:54:27.905Z</time></trkpt><trkpt lat="42.486173258681205" lon="11.193038822050825"><ele>7.0</ele><time>2026-03-29T13:54:28.905Z</time></trkpt><trkpt lat="42.48600127094698" lon="11.193009586288865"><ele>8.0</ele><time>2026-03-29T13:54:29.905Z</time></trkpt><trkpt lat="42.48582832332827" lon="11.192982954252074"><ele>8.0</ele><time>2026-03-29T13:54:30.904Z</time></trkpt><trkpt lat="42.48565492746541" lon="11.192956435859848"><ele>8.0</ele><time>2026-03-29T13:54:31.904Z</time></trkpt><trkpt lat="42.48548328032629" lon="11.192913494848328"><ele>8.0</ele><time>2026-03-29T13:54:32.903Z</time></trkpt><trkpt lat="42.485316315347475" lon="11.192852950314139"><ele>7.0</ele><time>2026-03-29T13:54:33.903Z</time></trkpt><trkpt lat="42.485149602396234" lon="11.192783438226925"><ele>6.0</ele><time>2026-03-29T13:54:34.903Z</time></trkpt><trkpt lat="42.48499633618076" lon="11.192705492961847"><ele>5.0</ele><time>2026-03-29T13:54:35.902Z</time></trkpt><trkpt lat="42.48482224264793" lon="11.192647640095752"><ele>5.0</ele><time>2026-03-29T13:54:36.902Z</time></trkpt><trkpt lat="42.48464600667773" lon="11.192598222487563"><ele>5.0</ele><time>2026-03-29T13:54:37.902Z</time></trkpt><trkpt lat="42.48447291673152" lon="11.192546576245777"><ele>5.0</ele><time>2026-03-29T13:54:38.902Z</time></trkpt><trkpt lat="42.48429897652641" lon="11.192502981614062"><ele>4.666666666666667</ele><time>2026-03-29T13:54:39.901Z</time></trkpt><trkpt lat="42.48412645629479" lon="11.192466916555768"><ele>4.333333333333333</ele><time>2026-03-29T13:54:40.901Z</time></trkpt><trkpt lat="42.48396057326303" lon="11.192413800914348"><ele>4.0</ele><time>2026-03-29T13:54:41.901Z</time></trkpt><trkpt lat="42.483789987399696" lon="11.192369616076139"><ele>5.0</ele><time>2026-03-29T13:54:42.901Z</time></trkpt><trkpt lat="42.48361964886089" lon="11.192323843166385"><ele>6.0</ele><time>2026-03-29T13:54:43.901Z</time></trkpt><trkpt lat="42.483446894491635" lon="11.1922865340469"><ele>7.0</ele><time>2026-03-29T13:54:44.9Z</time></trkpt><trkpt lat="42.48327332199927" lon="11.192246963520308"><ele>7.0</ele><time>2026-03-29T13:54:45.9Z</time></trkpt><trkpt lat="42.48310016631546" lon="11.192206386748401"><ele>7.0</ele><time>2026-03-29T13:54:46.9Z</time></trkpt><trkpt lat="42.48292879636047" lon="11.192161430057018"><ele>7.0</ele><time>2026-03-29T13:54:47.9Z</time></trkpt><trkpt lat="42.482754171706645" lon="11.192112609200516"><ele>7.0</ele><time>2026-03-29T13:54:48.9Z</time></trkpt><trkpt lat="42.482580409613874" lon="11.1920697909279"><ele>7.0</ele><time>2026-03-29T13:54:49.9Z</time></trkpt><trkpt lat="42.48240644679841" lon="11.19202658702851"><ele>7.0</ele><time>2026-03-29T13:54:50.899Z</time></trkpt><trkpt lat="42.48223289961049" lon="11.191985342213492"><ele>6.333333333333334</ele><time>2026-03-29T13:54:51.899Z</time></trkpt><trkpt lat="42.48206130925219" lon="11.191942632868209"><ele>5.666666666666667</ele><time>2026-03-29T13:54:52.899Z</time></trkpt><trkpt lat="42.48189314924529" lon="11.19189242988689"><ele>5.0</ele><time>2026-03-29T13:54:53.899Z</time></trkpt><trkpt lat="42.48172199478926" lon="11.191848717508428"><ele>5.0</ele><time>2026-03-29T13:54:54.899Z</time></trkpt><trkpt lat="42.48154832880458" lon="11.191806969379424"><ele>5.0</ele><time>2026-03-29T13:54:55.899Z</time></trkpt><trkpt lat="42.48137546777371" lon="11.191763693526406"><ele>5.0</ele><time>2026-03-29T13:54:56.9Z</time></trkpt><trkpt lat="42.481203828930724" lon="11.19171964779482"><ele>5.0</ele><time>2026-03-29T13:54:57.9Z</time></trkpt><trkpt lat="42.4810321818675" lon="11.191679620540455"><ele>5.0</ele><time>2026-03-29T13:54:58.9Z</time></trkpt><trkpt lat="42.4808598772042" lon="11.191637470759458"><ele>5.0</ele><time>2026-03-29T13:54:59.9Z</time></trkpt><trkpt lat="42.480687605594376" lon="11.191598443722123"><ele>5.0</ele><time>2026-03-29T13:55:00.9Z</time></trkpt><trkpt lat="42.48051522467546" lon="11.191557618796473"><ele>5.0</ele><time>2026-03-29T13:55:01.9Z</time></trkpt><trkpt lat="42.480345229160775" lon="11.19151199286127"><ele>5.0</ele><time>2026-03-29T13:55:02.9Z</time></trkpt><trkpt lat="42.48017268143543" lon="11.191468067102617"><ele>5.333333333333334</ele><time>2026-03-29T13:55:03.899Z</time></trkpt><trkpt lat="42.48000013586288" lon="11.191424859461613"><ele>5.666666666666667</ele><time>2026-03-29T13:55:04.899Z</time></trkpt><trkpt lat="42.47982797134634" lon="11.191379483039317"><ele>6.0</ele><time>2026-03-29T13:55:05.9Z</time></trkpt><trkpt lat="42.47965636996884" lon="11.191338653229721"><ele>6.333333333333334</ele><time>2026-03-29T13:55:06.9Z</time></trkpt><trkpt lat="42.47948453307207" lon="11.191293727942988"><ele>6.666666666666667</ele><time>2026-03-29T13:55:07.9Z</time></trkpt><trkpt lat="42.47930962597938" lon="11.191254390271649"><ele>7.0</ele><time>2026-03-29T13:55:08.899Z</time></trkpt><trkpt lat="42.479138968312625" lon="11.191213890488994"><ele>7.0</ele><time>2026-03-29T13:55:09.899Z</time></trkpt><trkpt lat="42.47896821330696" lon="11.191168958421601"><ele>7.0</ele><time>2026-03-29T13:55:10.899Z</time></trkpt><trkpt lat="42.47879896375827" lon="11.191113194132475"><ele>7.0</ele><time>2026-03-29T13:55:11.899Z</time></trkpt><trkpt lat="42.47862816781604" lon="11.191068521811742"><ele>6.666666666666667</ele><time>2026-03-29T13:55:12.899Z</time></trkpt><trkpt lat="42.4784555439738" lon="11.191034450175277"><ele>6.333333333333334</ele><time>2026-03-29T13:55:13.899Z</time></trkpt><trkpt lat="42.47828468288314" lon="11.190988866128334"><ele>6.0</ele><time>2026-03-29T13:55:14.899Z</time></trkpt><trkpt lat="42.47811625451684" lon="11.190942091426663"><ele>6.0</ele><time>2026-03-29T13:55:15.899Z</time></trkpt><trkpt lat="42.477944496838084" lon="11.190901851950237"><ele>6.0</ele><time>2026-03-29T13:55:16.899Z</time></trkpt><trkpt lat="42.47777415965446" lon="11.19086408490187"><ele>6.0</ele><time>2026-03-29T13:55:17.899Z</time></trkpt><trkpt lat="42.47760269902491" lon="11.190825065302496"><ele>5.333333333333333</ele><time>2026-03-29T13:55:18.899Z</time></trkpt><trkpt lat="42.477435099693274" lon="11.190779238596154"><ele>4.666666666666666</ele><time>2026-03-29T13:55:19.899Z</time></trkpt><trkpt lat="42.47726356561915" lon="11.19073623317743"><ele>4.0</ele><time>2026-03-29T13:55:20.898Z</time></trkpt><trkpt lat="42.47709233475658" lon="11.19069114348802"><ele>4.333333333333333</ele><time>2026-03-29T13:55:21.898Z</time></trkpt><trkpt lat="42.476920226424284" lon="11.190648747029126"><ele>4.666666666666667</ele><time>2026-03-29T13:55:22.898Z</time></trkpt><trkpt lat="42.4767507206283" lon="11.190595875657822"><ele>5.0</ele><time>2026-03-29T13:55:23.898Z</time></trkpt><trkpt lat="42.47658303138703" lon="11.190535042225902"><ele>5.0</ele><time>2026-03-29T13:55:24.898Z</time></trkpt><trkpt lat="42.476413868199444" lon="11.190495408954256"><ele>5.0</ele><time>2026-03-29T13:55:25.898Z</time></trkpt><trkpt lat="42.47623995242882" lon="11.190465062233867"><ele>5.0</ele><time>2026-03-29T13:55:26.898Z</time></trkpt><trkpt lat="42.4760629692477" lon="11.190424222863928"><ele>4.333333333333334</ele><time>2026-03-29T13:55:27.898Z</time></trkpt><trkpt lat="42.47589055613383" lon="11.190379120786234"><ele>3.666666666666667</ele><time>2026-03-29T13:55:28.898Z</time></trkpt><trkpt lat="42.47572079676631" lon="11.190325226193954"><ele>3.0</ele><time>2026-03-29T13:55:29.898Z</time></trkpt><trkpt lat="42.475548986471786" lon="11.190279774183217"><ele>3.0</ele><time>2026-03-29T13:55:30.898Z</time></trkpt><trkpt lat="42.475371719725416" lon="11.190248688209072"><ele>3.0</ele><time>2026-03-29T13:55:31.898Z</time></trkpt><trkpt lat="42.475193276456814" lon="11.19021032884679"><ele>3.0</ele><time>2026-03-29T13:55:32.898Z</time></trkpt><trkpt lat="42.47501962663738" lon="11.190178260112729"><ele>3.0</ele><time>2026-03-29T13:55:33.898Z</time></trkpt><trkpt lat="42.474848171948246" lon="11.190124857796445"><ele>3.0</ele><time>2026-03-29T13:55:34.898Z</time></trkpt><trkpt lat="42.4746816861706" lon="11.190078177493572"><ele>3.0</ele><time>2026-03-29T13:55:35.898Z</time></trkpt><trkpt lat="42.47450756908038" lon="11.190039420885904"><ele>2.6666666666666665</ele><time>2026-03-29T13:55:36.898Z</time></trkpt><trkpt lat="42.47433826301984" lon="11.189999604539416"><ele>2.333333333333333</ele><time>2026-03-29T13:55:37.898Z</time></trkpt><trkpt lat="42.474163858378546" lon="11.1899553822982"><ele>2.0</ele><time>2026-03-29T13:55:38.898Z</time></trkpt><trkpt lat="42.47398548220872" lon="11.189904003056746"><ele>2.0</ele><time>2026-03-29T13:55:39.898Z</time></trkpt><trkpt lat="42.47380928983947" lon="11.189852434011556"><ele>2.0</ele><time>2026-03-29T13:55:40.898Z</time></trkpt><trkpt lat="42.47363032032833" lon="11.189811019565143"><ele>2.0</ele><time>2026-03-29T13:55:41.898Z</time></trkpt><trkpt lat="42.47346092533385" lon="11.189771860908035"><ele>3.0</ele><time>2026-03-29T13:55:42.898Z</time></trkpt><trkpt lat="42.47329432418715" lon="11.189716632333035"><ele>4.0</ele><time>2026-03-29T13:55:43.898Z</time></trkpt><trkpt lat="42.47313307936243" lon="11.189658760210277"><ele>5.0</ele><time>2026-03-29T13:55:44.898Z</time></trkpt><trkpt lat="42.47296707682199" lon="11.189595945235792"><ele>5.0</ele><time>2026-03-29T13:55:45.898Z</time></trkpt><trkpt lat="42.47280070658383" lon="11.189528358255489"><ele>5.0</ele><time>2026-03-29T13:55:46.898Z</time></trkpt><trkpt lat="42.47263387847989" lon="11.189466375069568"><ele>5.0</ele><time>2026-03-29T13:55:47.898Z</time></trkpt><trkpt lat="42.47246341580867" lon="11.189408932043053"><ele>5.0</ele><time>2026-03-29T13:55:48.897Z</time></trkpt><trkpt lat="42.47229237680645" lon="11.189355673324751"><ele>5.0</ele><time>2026-03-29T13:55:49.897Z</time></trkpt><trkpt lat="42.472123147889526" lon="11.189302765865072"><ele>5.0</ele><time>2026-03-29T13:55:50.897Z</time></trkpt><trkpt lat="42.471956361434806" lon="11.189246805354129"><ele>4.666666666666667</ele><time>2026-03-29T13:55:51.897Z</time></trkpt><trkpt lat="42.47178581450698" lon="11.189185596362172"><ele>4.333333333333333</ele><time>2026-03-29T13:55:52.897Z</time></trkpt><trkpt lat="42.47161535973053" lon="11.18913180136445"><ele>4.0</ele><time>2026-03-29T13:55:53.897Z</time></trkpt><trkpt lat="42.471449768865526" lon="11.189076185471192"><ele>4.0</ele><time>2026-03-29T13:55:54.897Z</time></trkpt><trkpt lat="42.47128637452012" lon="11.189012358198598"><ele>4.0</ele><time>2026-03-29T13:55:55.897Z</time></trkpt><trkpt lat="42.47112023070317" lon="11.188951184562248"><ele>4.0</ele><time>2026-03-29T13:55:56.897Z</time></trkpt><trkpt lat="42.47095282225624" lon="11.188895211416847"><ele>3.6666666666666665</ele><time>2026-03-29T13:55:57.897Z</time></trkpt><trkpt lat="42.470787979288374" lon="11.188836309547188"><ele>3.333333333333333</ele><time>2026-03-29T13:55:58.897Z</time></trkpt><trkpt lat="42.47062393260515" lon="11.188782192660828"><ele>3.0</ele><time>2026-03-29T13:55:59.897Z</time></trkpt><trkpt lat="42.47045803685942" lon="11.188721059922248"><ele>3.0</ele><time>2026-03-29T13:56:00.897Z</time></trkpt><trkpt lat="42.470291069741194" lon="11.18866496859987"><ele>3.0</ele><time>2026-03-29T13:56:01.897Z</time></trkpt><trkpt lat="42.470111834313904" lon="11.188601659356129"><ele>3.0</ele><time>2026-03-29T13:56:02.897Z</time></trkpt><trkpt lat="42.46993164002701" lon="11.188543023276056"><ele>3.0</ele><time>2026-03-29T13:56:03.897Z</time></trkpt><trkpt lat="42.469763707151635" lon="11.188494502866662"><ele>3.0</ele><time>2026-03-29T13:56:04.897Z</time></trkpt><trkpt lat="42.469594099999526" lon="11.188437154740557"><ele>3.0</ele><time>2026-03-29T13:56:05.897Z</time></trkpt><trkpt lat="42.4694127587343" lon="11.18839014040721"><ele>3.0</ele><time>2026-03-29T13:56:06.897Z</time></trkpt><trkpt lat="42.46924161636549" lon="11.18833719735997"><ele>3.0</ele><time>2026-03-29T13:56:07.897Z</time></trkpt><trkpt lat="42.46906938181171" lon="11.188285186233376"><ele>3.0</ele><time>2026-03-29T13:56:08.897Z</time></trkpt><trkpt lat="42.46889730310463" lon="11.18823665217198"><ele>2.6666666666666665</ele><time>2026-03-29T13:56:09.897Z</time></trkpt><trkpt lat="42.46872970668947" lon="11.18816185046196"><ele>2.333333333333333</ele><time>2026-03-29T13:56:10.897Z</time></trkpt><trkpt lat="42.468559957288505" lon="11.188107081916034"><ele>2.0</ele><time>2026-03-29T13:56:11.897Z</time></trkpt><trkpt lat="42.468388260672846" lon="11.188052412287542"><ele>2.0</ele><time>2026-03-29T13:56:12.897Z</time></trkpt><trkpt lat="42.46822218280239" lon="11.187999634672739"><ele>2.0</ele><time>2026-03-29T13:56:13.897Z</time></trkpt><trkpt lat="42.46805400526838" lon="11.187946189737389"><ele>2.0</ele><time>2026-03-29T13:56:14.897Z</time></trkpt><trkpt lat="42.46788283110968" lon="11.187891792515918"><ele>2.6666666666666665</ele><time>2026-03-29T13:56:15.897Z</time></trkpt><trkpt lat="42.46771542752376" lon="11.187844063582304"><ele>3.333333333333333</ele><time>2026-03-29T13:56:16.897Z</time></trkpt><trkpt lat="42.467547053310454" lon="11.187782745249068"><ele>4.0</ele><time>2026-03-29T13:56:17.897Z</time></trkpt><trkpt lat="42.46737372240152" lon="11.187729136907523"><ele>4.0</ele><time>2026-03-29T13:56:18.897Z</time></trkpt><trkpt lat="42.46720549254409" lon="11.187664444394752"><ele>4.0</ele><time>2026-03-29T13:56:19.897Z</time></trkpt><trkpt lat="42.46703895704995" lon="11.187594601144763"><ele>4.0</ele><time>2026-03-29T13:56:20.897Z</time></trkpt><trkpt lat="42.46687392469511" lon="11.187518993038239"><ele>3.6666666666666665</ele><time>2026-03-29T13:56:21.897Z</time></trkpt><trkpt lat="42.466708957667024" lon="11.187438674256782"><ele>3.333333333333333</ele><time>2026-03-29T13:56:22.897Z</time></trkpt><trkpt lat="42.466539768458375" lon="11.18736369113201"><ele>3.0</ele><time>2026-03-29T13:56:23.896Z</time></trkpt><trkpt lat="42.46637715271995" lon="11.187290400928328"><ele>2.6666666666666665</ele><time>2026-03-29T13:56:24.896Z</time></trkpt><trkpt lat="42.466212110305165" lon="11.18722077825253"><ele>2.333333333333333</ele><time>2026-03-29T13:56:25.896Z</time></trkpt><trkpt lat="42.46604510819899" lon="11.187149611905872"><ele>2.0</ele><time>2026-03-29T13:56:26.896Z</time></trkpt><trkpt lat="42.46588160627725" lon="11.18706645488921"><ele>2.0</ele><time>2026-03-29T13:56:27.896Z</time></trkpt><trkpt lat="42.4657177265828" lon="11.186982669481244"><ele>2.0</ele><time>2026-03-29T13:56:28.896Z</time></trkpt><trkpt lat="42.4655557554009" lon="11.186900782411206"><ele>2.0</ele><time>2026-03-29T13:56:29.896Z</time></trkpt><trkpt lat="42.46539037017718" lon="11.186821430016883"><ele>1.6666666666666665</ele><time>2026-03-29T13:56:30.896Z</time></trkpt><trkpt lat="42.465222603000925" lon="11.18674928296081"><ele>1.3333333333333333</ele><time>2026-03-29T13:56:31.896Z</time></trkpt><trkpt lat="42.46505717563164" lon="11.186671307875185"><ele>1.0</ele><time>2026-03-29T13:56:32.896Z</time></trkpt><trkpt lat="42.464892282536525" lon="11.18658092778795"><ele>1.3333333333333333</ele><time>2026-03-29T13:56:33.896Z</time></trkpt><trkpt lat="42.46472942560139" lon="11.186488014330749"><ele>1.6666666666666665</ele><time>2026-03-29T13:56:34.896Z</time></trkpt><trkpt lat="42.46456373720087" lon="11.186408863786403"><ele>2.0</ele><time>2026-03-29T13:56:35.896Z</time></trkpt><trkpt lat="42.4644040499657" lon="11.186319416662938"><ele>2.0</ele><time>2026-03-29T13:56:36.896Z</time></trkpt><trkpt lat="42.46423955680149" lon="11.186239033654088"><ele>2.0</ele><time>2026-03-29T13:56:37.896Z</time></trkpt><trkpt lat="42.46407465534983" lon="11.186153657349777"><ele>2.0</ele><time>2026-03-29T13:56:38.896Z</time></trkpt><trkpt lat="42.46390918658261" lon="11.186076213703465"><ele>1.6666666666666665</ele><time>2026-03-29T13:56:39.896Z</time></trkpt><trkpt lat="42.46374496507809" lon="11.185996510321042"><ele>1.3333333333333333</ele><time>2026-03-29T13:56:40.896Z</time></trkpt><trkpt lat="42.46358057677928" lon="11.185913162706266"><ele>1.0</ele><time>2026-03-29T13:56:41.896Z</time></trkpt><trkpt lat="42.46341852364554" lon="11.185824300473163"><ele>1.0</ele><time>2026-03-29T13:56:42.896Z</time></trkpt><trkpt lat="42.463255261138485" lon="11.185738875088218"><ele>1.0</ele><time>2026-03-29T13:56:43.896Z</time></trkpt><trkpt lat="42.4630922509923" lon="11.18565032700762"><ele>1.0</ele><time>2026-03-29T13:56:44.896Z</time></trkpt><trkpt lat="42.462928551574635" lon="11.185564918477224"><ele>1.0</ele><time>2026-03-29T13:56:45.896Z</time></trkpt><trkpt lat="42.46276379582824" lon="11.185485225118317"><ele>1.0</ele><time>2026-03-29T13:56:46.896Z</time></trkpt><trkpt lat="42.46260052389765" lon="11.185403682618961"><ele>1.0</ele><time>2026-03-29T13:56:47.896Z</time></trkpt><trkpt lat="42.46243623863134" lon="11.185321448555998"><ele>1.0</ele><time>2026-03-29T13:56:48.896Z</time></trkpt><trkpt lat="42.46227308622008" lon="11.185234716507575"><ele>1.0</ele><time>2026-03-29T13:56:49.896Z</time></trkpt><trkpt lat="42.46211109863416" lon="11.185149661733355"><ele>1.0</ele><time>2026-03-29T13:56:50.896Z</time></trkpt><trkpt lat="42.46195005581182" lon="11.185066216473034"><ele>1.0</ele><time>2026-03-29T13:56:51.896Z</time></trkpt><trkpt lat="42.461784488135116" lon="11.184986251789338"><ele>1.0</ele><time>2026-03-29T13:56:52.896Z</time></trkpt><trkpt lat="42.46161915446593" lon="11.184911978529188"><ele>1.0</ele><time>2026-03-29T13:56:53.896Z</time></trkpt><trkpt lat="42.461453951584446" lon="11.184836727730232"><ele>1.0</ele><time>2026-03-29T13:56:54.896Z</time></trkpt><trkpt lat="42.461290494406114" lon="11.184762624575804"><ele>1.0</ele><time>2026-03-29T13:56:55.896Z</time></trkpt><trkpt lat="42.46112510101062" lon="11.184693042833375"><ele>1.0</ele><time>2026-03-29T13:56:56.896Z</time></trkpt><trkpt lat="42.460959653266" lon="11.18461824572698"><ele>1.0</ele><time>2026-03-29T13:56:57.896Z</time></trkpt><trkpt lat="42.46079470308184" lon="11.18454542805026"><ele>1.0</ele><time>2026-03-29T13:56:58.896Z</time></trkpt><trkpt lat="42.46062883593928" lon="11.18447615372346"><ele>1.0</ele><time>2026-03-29T13:56:59.895Z</time></trkpt><trkpt lat="42.46046170164718" lon="11.18440481419413"><ele>0.6666666666666666</ele><time>2026-03-29T13:57:00.895Z</time></trkpt><trkpt lat="42.460293660128364" lon="11.18433473580791"><ele>0.3333333333333333</ele><time>2026-03-29T13:57:01.895Z</time></trkpt><trkpt lat="42.460127646350095" lon="11.184261754803542"><ele>0.0</ele><time>2026-03-29T13:57:02.897Z</time></trkpt><trkpt lat="42.45995795799717" lon="11.184191386977725"><ele>0.0</ele><time>2026-03-29T13:57:03.898Z</time></trkpt><trkpt lat="42.45979046215132" lon="11.184118466910945"><ele>0.0</ele><time>2026-03-29T13:57:04.897Z</time></trkpt><trkpt lat="42.45962218163559" lon="11.184047420544157"><ele>0.0</ele><time>2026-03-29T13:57:05.897Z</time></trkpt><trkpt lat="42.45945502756833" lon="11.1839749533008"><ele>1.3333333333333333</ele><time>2026-03-29T13:57:06.898Z</time></trkpt><trkpt lat="42.45928966427366" lon="11.183902648431788"><ele>2.6666666666666665</ele><time>2026-03-29T13:57:07.897Z</time></trkpt><trkpt lat="42.45912509743908" lon="11.183824646556731"><ele>4.0</ele><time>2026-03-29T13:57:08.897Z</time></trkpt><trkpt lat="42.45896048786089" lon="11.183746863432086"><ele>4.0</ele><time>2026-03-29T13:57:09.897Z</time></trkpt><trkpt lat="42.45879527971955" lon="11.183679632281244"><ele>4.0</ele><time>2026-03-29T13:57:10.897Z</time></trkpt><trkpt lat="42.45862647633019" lon="11.183616526216044"><ele>4.0</ele><time>2026-03-29T13:57:11.898Z</time></trkpt><trkpt lat="42.45845823919019" lon="11.183550211867258"><ele>4.0</ele><time>2026-03-29T13:57:12.898Z</time></trkpt><trkpt lat="42.458295212251585" lon="11.18346911669881"><ele>4.0</ele><time>2026-03-29T13:57:13.898Z</time></trkpt><trkpt lat="42.45813083763455" lon="11.183386561412558"><ele>4.0</ele><time>2026-03-29T13:57:14.898Z</time></trkpt><trkpt lat="42.4579658065775" lon="11.183318297710592"><ele>4.333333333333333</ele><time>2026-03-29T13:57:15.897Z</time></trkpt><trkpt lat="42.45779742478442" lon="11.183251065911909"><ele>4.666666666666667</ele><time>2026-03-29T13:57:16.897Z</time></trkpt><trkpt lat="42.457628042572196" lon="11.183188945749407"><ele>5.0</ele><time>2026-03-29T13:57:17.897Z</time></trkpt><trkpt lat="42.45746604016816" lon="11.183111235074701"><ele>5.0</ele><time>2026-03-29T13:57:18.897Z</time></trkpt><trkpt lat="42.45729956441796" lon="11.183030636203481"><ele>5.0</ele><time>2026-03-29T13:57:19.897Z</time></trkpt><trkpt lat="42.457136539513854" lon="11.182944470096984"><ele>5.0</ele><time>2026-03-29T13:57:20.897Z</time></trkpt><trkpt lat="42.45697091010477" lon="11.182855979931546"><ele>5.0</ele><time>2026-03-29T13:57:21.897Z</time></trkpt><trkpt lat="42.456804285828646" lon="11.182765197652516"><ele>5.0</ele><time>2026-03-29T13:57:22.897Z</time></trkpt><trkpt lat="42.456634688352736" lon="11.182673834480946"><ele>5.0</ele><time>2026-03-29T13:57:23.897Z</time></trkpt><trkpt lat="42.45647570684261" lon="11.18259039094665"><ele>5.0</ele><time>2026-03-29T13:57:24.897Z</time></trkpt><trkpt lat="42.456313994808305" lon="11.182510342732886"><ele>5.0</ele><time>2026-03-29T13:57:25.897Z</time></trkpt><trkpt lat="42.45615280228738" lon="11.18242934170746"><ele>5.0</ele><time>2026-03-29T13:57:26.897Z</time></trkpt><trkpt lat="42.455993193440854" lon="11.18233875367814"><ele>4.333333333333334</ele><time>2026-03-29T13:57:27.897Z</time></trkpt><trkpt lat="42.45582827437311" lon="11.182252257619545"><ele>3.666666666666667</ele><time>2026-03-29T13:57:28.897Z</time></trkpt><trkpt lat="42.45566788217443" lon="11.18216236166308"><ele>3.0</ele><time>2026-03-29T13:57:29.897Z</time></trkpt><trkpt lat="42.45551308398846" lon="11.182061457412562"><ele>2.0</ele><time>2026-03-29T13:57:30.897Z</time></trkpt><trkpt lat="42.45535984073232" lon="11.181966530611067"><ele>1.0</ele><time>2026-03-29T13:57:31.897Z</time></trkpt><trkpt lat="42.45519445722972" lon="11.181880880027528"><ele>0.0</ele><time>2026-03-29T13:57:32.897Z</time></trkpt><trkpt lat="42.455029918919195" lon="11.181798837362585"><ele>0.0</ele><time>2026-03-29T13:57:33.897Z</time></trkpt><trkpt lat="42.45486560692212" lon="11.181715097885752"><ele>0.0</ele><time>2026-03-29T13:57:34.897Z</time></trkpt><trkpt lat="42.45470324853728" lon="11.181626145654931"><ele>0.0</ele><time>2026-03-29T13:57:35.896Z</time></trkpt><trkpt lat="42.454540185217745" lon="11.181539241724936"><ele>1.0</ele><time>2026-03-29T13:57:36.896Z</time></trkpt><trkpt lat="42.45438036907831" lon="11.181451609171548"><ele>2.0</ele><time>2026-03-29T13:57:37.896Z</time></trkpt><trkpt lat="42.454216837966655" lon="11.181362007317398"><ele>3.0</ele><time>2026-03-29T13:57:38.896Z</time></trkpt><trkpt lat="42.45405589372998" lon="11.181271149225273"><ele>3.0</ele><time>2026-03-29T13:57:39.896Z</time></trkpt><trkpt lat="42.45389306176791" lon="11.181185113380344"><ele>3.0</ele><time>2026-03-29T13:57:40.896Z</time></trkpt><trkpt lat="42.4537292327618" lon="11.181093102554867"><ele>3.0</ele><time>2026-03-29T13:57:41.896Z</time></trkpt><trkpt lat="42.453566699070564" lon="11.180997849661166"><ele>2.3333333333333335</ele><time>2026-03-29T13:57:42.896Z</time></trkpt><trkpt lat="42.453405871650205" lon="11.180899634483309"><ele>1.6666666666666665</ele><time>2026-03-29T13:57:43.896Z</time></trkpt><trkpt lat="42.45324655455737" lon="11.180804413265856"><ele>1.0</ele><time>2026-03-29T13:57:44.896Z</time></trkpt><trkpt lat="42.45309040267794" lon="11.180698766821324"><ele>1.0</ele><time>2026-03-29T13:57:45.896Z</time></trkpt><trkpt lat="42.45293667177972" lon="11.180588766728246"><ele>1.0</ele><time>2026-03-29T13:57:46.896Z</time></trkpt><trkpt lat="42.45278377852628" lon="11.180477142424952"><ele>1.0</ele><time>2026-03-29T13:57:47.896Z</time></trkpt><trkpt lat="42.45262705075639" lon="11.180370968533493"><ele>1.0</ele><time>2026-03-29T13:57:48.896Z</time></trkpt><trkpt lat="42.452470049355576" lon="11.180266878325208"><ele>1.0</ele><time>2026-03-29T13:57:49.896Z</time></trkpt><trkpt lat="42.45231478413881" lon="11.180165792197291"><ele>1.0</ele><time>2026-03-29T13:57:50.896Z</time></trkpt><trkpt lat="42.4521584898039" lon="11.180061468926143"><ele>1.0</ele><time>2026-03-29T13:57:51.896Z</time></trkpt><trkpt lat="42.4520024732576" lon="11.179952699167691"><ele>1.0</ele><time>2026-03-29T13:57:52.896Z</time></trkpt><trkpt lat="42.451849820479474" lon="11.179839593937647"><ele>1.0</ele><time>2026-03-29T13:57:53.896Z</time></trkpt><trkpt lat="42.45169365178398" lon="11.17973101824629"><ele>0.6666666666666666</ele><time>2026-03-29T13:57:54.896Z</time></trkpt><trkpt lat="42.4515394246137" lon="11.179619982328136"><ele>0.3333333333333333</ele><time>2026-03-29T13:57:55.896Z</time></trkpt><trkpt lat="42.451383964921554" lon="11.17951078274605"><ele>0.0</ele><time>2026-03-29T13:57:56.896Z</time></trkpt><trkpt lat="42.45122831272507" lon="11.179402526725047"><ele>0.0</ele><time>2026-03-29T13:57:57.896Z</time></trkpt><trkpt lat="42.45106728385958" lon="11.179291758670363"><ele>0.0</ele><time>2026-03-29T13:57:58.896Z</time></trkpt><trkpt lat="42.450903239101976" lon="11.179173462582503"><ele>0.0</ele><time>2026-03-29T13:57:59.896Z</time></trkpt><trkpt lat="42.45073514518033" lon="11.179055602955136"><ele>0.3333333333333333</ele><time>2026-03-29T13:58:00.896Z</time></trkpt><trkpt lat="42.450567988818364" lon="11.178933881280248"><ele>0.6666666666666666</ele><time>2026-03-29T13:58:01.896Z</time></trkpt><trkpt lat="42.45039826012628" lon="11.178814668452954"><ele>1.0</ele><time>2026-03-29T13:58:02.896Z</time></trkpt><trkpt lat="42.45023068451613" lon="11.17868470265636"><ele>1.0</ele><time>2026-03-29T13:58:03.896Z</time></trkpt><trkpt lat="42.45005976433253" lon="11.178551562696779"><ele>1.0</ele><time>2026-03-29T13:58:04.896Z</time></trkpt><trkpt lat="42.44988790490659" lon="11.178415173653518"><ele>1.0</ele><time>2026-03-29T13:58:05.896Z</time></trkpt><trkpt lat="42.44971268489122" lon="11.178274623102352"><ele>1.3333333333333333</ele><time>2026-03-29T13:58:06.896Z</time></trkpt><trkpt lat="42.44953614038954" lon="11.178129004790785"><ele>1.6666666666666665</ele><time>2026-03-29T13:58:07.896Z</time></trkpt><trkpt lat="42.44935827198775" lon="11.177984696380397"><ele>2.0</ele><time>2026-03-29T13:58:08.896Z</time></trkpt><trkpt lat="42.44918002741161" lon="11.177841000862085"><ele>2.0</ele><time>2026-03-29T13:58:09.896Z</time></trkpt><trkpt lat="42.44900461795852" lon="11.177700926537502"><ele>2.0</ele><time>2026-03-29T13:58:10.896Z</time></trkpt><trkpt lat="42.448837773613825" lon="11.177563436644567"><ele>2.0</ele><time>2026-03-29T13:58:11.895Z</time></trkpt><trkpt lat="42.4486750666596" lon="11.177430320513427"><ele>2.0</ele><time>2026-03-29T13:58:12.895Z</time></trkpt><trkpt lat="42.448515301265545" lon="11.177298358930262"><ele>2.0</ele><time>2026-03-29T13:58:13.895Z</time></trkpt><trkpt lat="42.44836144206256" lon="11.177171039381435"><ele>2.0</ele><time>2026-03-29T13:58:14.895Z</time></trkpt><trkpt lat="42.44820698692764" lon="11.177051267517013"><ele>2.0</ele><time>2026-03-29T13:58:15.895Z</time></trkpt><trkpt lat="42.44805588762779" lon="11.17693193193733"><ele>2.0</ele><time>2026-03-29T13:58:16.895Z</time></trkpt><trkpt lat="42.44790494238177" lon="11.176814698926501"><ele>2.0</ele><time>2026-03-29T13:58:17.895Z</time></trkpt><trkpt lat="42.44775366721063" lon="11.17669556672234"><ele>2.0</ele><time>2026-03-29T13:58:18.895Z</time></trkpt><trkpt lat="42.447603176654106" lon="11.176572225551293"><ele>2.0</ele><time>2026-03-29T13:58:19.895Z</time></trkpt><trkpt lat="42.44745287863291" lon="11.176453970658327"><ele>2.0</ele><time>2026-03-29T13:58:20.895Z</time></trkpt><trkpt lat="42.44730834875721" lon="11.176337157326866"><ele>2.6666666666666665</ele><time>2026-03-29T13:58:21.895Z</time></trkpt><trkpt lat="42.44716899268626" lon="11.176229135546812"><ele>3.333333333333333</ele><time>2026-03-29T13:58:22.895Z</time></trkpt><trkpt lat="42.44703350421616" lon="11.17612452680349"><ele>4.0</ele><time>2026-03-29T13:58:23.895Z</time></trkpt><trkpt lat="42.44690527088571" lon="11.176022854548116"><ele>4.25</ele><time>2026-03-29T13:58:24.895Z</time></trkpt><trkpt lat="42.44678254272145" lon="11.175923290695293"><ele>4.5</ele><time>2026-03-29T13:58:25.895Z</time></trkpt><trkpt lat="42.44666294227399" lon="11.175827768422238"><ele>4.75</ele><time>2026-03-29T13:58:26.895Z</time></trkpt><trkpt lat="42.44655277204309" lon="11.175733150815468"><ele>5.0</ele><time>2026-03-29T13:58:27.895Z</time></trkpt><trkpt lat="42.446440565748766" lon="11.175640828696192"><ele>4.75</ele><time>2026-03-29T13:58:28.895Z</time></trkpt><trkpt lat="42.4463273347078" lon="11.175547175273893"><ele>4.5</ele><time>2026-03-29T13:58:29.895Z</time></trkpt><trkpt lat="42.44621189638389" lon="11.175456413406817"><ele>4.25</ele><time>2026-03-29T13:58:30.895Z</time></trkpt><trkpt lat="42.44609887024298" lon="11.17536339870881"><ele>4.0</ele><time>2026-03-29T13:58:31.895Z</time></trkpt><trkpt lat="42.44598740460885" lon="11.175269637616056"><ele>4.0</ele><time>2026-03-29T13:58:32.895Z</time></trkpt><trkpt lat="42.44586961153724" lon="11.175186651758608"><ele>4.0</ele><time>2026-03-29T13:58:33.895Z</time></trkpt><trkpt lat="42.44575309394621" lon="11.175095700602462"><ele>4.0</ele><time>2026-03-29T13:58:34.895Z</time></trkpt><trkpt lat="42.44563578971015" lon="11.174999935062825"><ele>4.0</ele><time>2026-03-29T13:58:35.895Z</time></trkpt><trkpt lat="42.44552037729522" lon="11.174898106606742"><ele>3.5</ele><time>2026-03-29T13:58:36.895Z</time></trkpt><trkpt lat="42.44539826440686" lon="11.174798593376433"><ele>3.0</ele><time>2026-03-29T13:58:37.895Z</time></trkpt><trkpt lat="42.445279953457764" lon="11.174706787332525"><ele>2.5</ele><time>2026-03-29T13:58:38.895Z</time></trkpt><trkpt lat="42.44516127811598" lon="11.174613712953315"><ele>2.0</ele><time>2026-03-29T13:58:39.895Z</time></trkpt><trkpt lat="42.44503849240603" lon="11.174520451212384"><ele>2.0</ele><time>2026-03-29T13:58:40.895Z</time></trkpt><trkpt lat="42.444910813629875" lon="11.1744223339271"><ele>2.0</ele><time>2026-03-29T13:58:41.895Z</time></trkpt><trkpt lat="42.44478863486933" lon="11.17432026104511"><ele>2.0</ele><time>2026-03-29T13:58:42.895Z</time></trkpt><trkpt lat="42.44467035986441" lon="11.174218320155832"><ele>2.0</ele><time>2026-03-29T13:58:43.895Z</time></trkpt><trkpt lat="42.44455178499924" lon="11.174115929927485"><ele>2.75</ele><time>2026-03-29T13:58:44.895Z</time></trkpt><trkpt lat="42.44443785334708" lon="11.174012305025327"><ele>3.5</ele><time>2026-03-29T13:58:45.895Z</time></trkpt><trkpt lat="42.444329451595" lon="11.173908669174695"><ele>4.25</ele><time>2026-03-29T13:58:46.895Z</time></trkpt><trkpt lat="42.44422146954279" lon="11.173804478257477"><ele>5.0</ele><time>2026-03-29T13:58:47.894Z</time></trkpt><trkpt lat="42.44411749197029" lon="11.173700179704205"><ele>5.0</ele><time>2026-03-29T13:58:48.894Z</time></trkpt><trkpt lat="42.44401026403615" lon="11.173604336305257"><ele>5.0</ele><time>2026-03-29T13:58:49.894Z</time></trkpt><trkpt lat="42.44390583958294" lon="11.173507922145669"><ele>5.0</ele><time>2026-03-29T13:58:50.894Z</time></trkpt><trkpt lat="42.443805484044766" lon="11.173404809316882"><ele>5.0</ele><time>2026-03-29T13:58:51.894Z</time></trkpt><trkpt lat="42.443708101904484" lon="11.173304569929002"><ele>5.2</ele><time>2026-03-29T13:58:52.894Z</time></trkpt><trkpt lat="42.44361524045041" lon="11.173211274001249"><ele>5.4</ele><time>2026-03-29T13:58:53.894Z</time></trkpt><trkpt lat="42.44352662450671" lon="11.173123092074542"><ele>5.6</ele><time>2026-03-29T13:58:54.894Z</time></trkpt><trkpt lat="42.44343712833187" lon="11.173031816278442"><ele>5.8</ele><time>2026-03-29T13:58:55.894Z</time></trkpt><trkpt lat="42.443350526012956" lon="11.172940854673081"><ele>6.0</ele><time>2026-03-29T13:58:56.894Z</time></trkpt><trkpt lat="42.44326325536297" lon="11.1728544866466"><ele>5.5</ele><time>2026-03-29T13:58:57.894Z</time></trkpt><trkpt lat="42.44316786224353" lon="11.17276495600786"><ele>5.0</ele><time>2026-03-29T13:58:58.894Z</time></trkpt><trkpt lat="42.44307250788007" lon="11.172665756989607"><ele>4.5</ele><time>2026-03-29T13:58:59.894Z</time></trkpt><trkpt lat="42.44297353637618" lon="11.17256580980489"><ele>4.0</ele><time>2026-03-29T13:59:00.894Z</time></trkpt><trkpt lat="42.442870075391795" lon="11.172463765067318"><ele>3.5</ele><time>2026-03-29T13:59:01.894Z</time></trkpt><trkpt lat="42.4427620997627" lon="11.172360843096738"><ele>3.0</ele><time>2026-03-29T13:59:02.894Z</time></trkpt><trkpt lat="42.44265045793342" lon="11.172256633947685"><ele>2.5</ele><time>2026-03-29T13:59:03.894Z</time></trkpt><trkpt lat="42.442532774104706" lon="11.172146858524979"><ele>2.0</ele><time>2026-03-29T13:59:04.894Z</time></trkpt><trkpt lat="42.442415458991356" lon="11.172034056885156"><ele>2.0</ele><time>2026-03-29T13:59:05.894Z</time></trkpt><trkpt lat="42.442297998243596" lon="11.171916028138837"><ele>2.0</ele><time>2026-03-29T13:59:06.894Z</time></trkpt><trkpt lat="42.44218302984711" lon="11.17179766097784"><ele>2.0</ele><time>2026-03-29T13:59:07.894Z</time></trkpt><trkpt lat="42.44206099940015" lon="11.171684201199145"><ele>2.0</ele><time>2026-03-29T13:59:08.896Z</time></trkpt><trkpt lat="42.441941214180865" lon="11.171579952792722"><ele>1.6666666666666665</ele><time>2026-03-29T13:59:09.896Z</time></trkpt><trkpt lat="42.441818013357754" lon="11.171466045732497"><ele>1.3333333333333333</ele><time>2026-03-29T13:59:10.896Z</time></trkpt><trkpt lat="42.44170198069201" lon="11.171326732125644"><ele>1.0</ele><time>2026-03-29T13:59:11.896Z</time></trkpt><trkpt lat="42.44157247233212" lon="11.171207031269862"><ele>1.0</ele><time>2026-03-29T13:59:12.896Z</time></trkpt><trkpt lat="42.44143897187189" lon="11.171076183717286"><ele>1.0</ele><time>2026-03-29T13:59:13.896Z</time></trkpt><trkpt lat="42.44130919914777" lon="11.170946792612757"><ele>1.0</ele><time>2026-03-29T13:59:14.896Z</time></trkpt><trkpt lat="42.4411811014232" lon="11.170818011595083"><ele>1.0</ele><time>2026-03-29T13:59:15.896Z</time></trkpt><trkpt lat="42.441054889889536" lon="11.170689828388488"><ele>1.0</ele><time>2026-03-29T13:59:16.896Z</time></trkpt><trkpt lat="42.440922397540255" lon="11.170565448296744"><ele>1.0</ele><time>2026-03-29T13:59:17.896Z</time></trkpt><trkpt lat="42.44078896841927" lon="11.170440192839099"><ele>1.0</ele><time>2026-03-29T13:59:18.896Z</time></trkpt><trkpt lat="42.44065273528686" lon="11.170319566082123"><ele>1.0</ele><time>2026-03-29T13:59:19.896Z</time></trkpt><trkpt lat="42.44051675376982" lon="11.170198894536163"><ele>1.0</ele><time>2026-03-29T13:59:20.895Z</time></trkpt><trkpt lat="42.4403863773602" lon="11.170070350424755"><ele>1.3333333333333333</ele><time>2026-03-29T13:59:21.896Z</time></trkpt><trkpt lat="42.44025767907517" lon="11.169949051820762"><ele>1.6666666666666665</ele><time>2026-03-29T13:59:22.895Z</time></trkpt><trkpt lat="42.44013377783001" lon="11.16982212350992"><ele>2.0</ele><time>2026-03-29T13:59:23.895Z</time></trkpt><trkpt lat="42.44001838087077" lon="11.169704437394131"><ele>2.0</ele><time>2026-03-29T13:59:24.895Z</time></trkpt><trkpt lat="42.439904790095646" lon="11.169586740612612"><ele>2.0</ele><time>2026-03-29T13:59:25.895Z</time></trkpt><trkpt lat="42.439792850193435" lon="11.169469076611206"><ele>2.0</ele><time>2026-03-29T13:59:26.895Z</time></trkpt><trkpt lat="42.43967797986594" lon="11.1693584123595"><ele>2.0</ele><time>2026-03-29T13:59:27.895Z</time></trkpt><trkpt lat="42.439566064864344" lon="11.169247169772534"><ele>2.2</ele><time>2026-03-29T13:59:28.895Z</time></trkpt><trkpt lat="42.43945234850529" lon="11.169148591268685"><ele>2.4000000000000004</ele><time>2026-03-29T13:59:29.895Z</time></trkpt><trkpt lat="42.439366922595674" lon="11.169065346550601"><ele>2.5999999999999996</ele><time>2026-03-29T13:59:30.895Z</time></trkpt><trkpt lat="42.43929293406755" lon="11.168989867874192"><ele>2.8</ele><time>2026-03-29T13:59:31.895Z</time></trkpt><trkpt lat="42.439211719978765" lon="11.168913166442834"><ele>3.0</ele><time>2026-03-29T13:59:32.895Z</time></trkpt><trkpt lat="42.439138447706796" lon="11.168836998024645"><ele>3.0</ele><time>2026-03-29T13:59:33.895Z</time></trkpt><trkpt lat="42.4390623322085" lon="11.168758348915027"><ele>3.0</ele><time>2026-03-29T13:59:34.895Z</time></trkpt><trkpt lat="42.43897867404892" lon="11.168670806433214"><ele>3.0</ele><time>2026-03-29T13:59:35.895Z</time></trkpt><trkpt lat="42.43888808064071" lon="11.168580084441544"><ele>3.0</ele><time>2026-03-29T13:59:36.895Z</time></trkpt><trkpt lat="42.43878169991354" lon="11.168487184841585"><ele>3.0</ele><time>2026-03-29T13:59:37.895Z</time></trkpt><trkpt lat="42.438653196672156" lon="11.168382488916595"><ele>3.333333333333333</ele><time>2026-03-29T13:59:38.895Z</time></trkpt><trkpt lat="42.43851705563352" lon="11.168258884109662"><ele>3.6666666666666665</ele><time>2026-03-29T13:59:39.895Z</time></trkpt><trkpt lat="42.43838656881494" lon="11.168132213678238"><ele>4.0</ele><time>2026-03-29T13:59:40.895Z</time></trkpt><trkpt lat="42.43825875056771" lon="11.168004532690457"><ele>4.0</ele><time>2026-03-29T13:59:41.895Z</time></trkpt><trkpt lat="42.43813466111204" lon="11.167857013408668"><ele>4.0</ele><time>2026-03-29T13:59:42.895Z</time></trkpt><trkpt lat="42.437999489361005" lon="11.167706537977082"><ele>4.0</ele><time>2026-03-29T13:59:43.895Z</time></trkpt><trkpt lat="42.4378841430024" lon="11.167548238755751"><ele>3.333333333333333</ele><time>2026-03-29T13:59:44.895Z</time></trkpt><trkpt lat="42.43776360644573" lon="11.16739569073387"><ele>2.6666666666666665</ele><time>2026-03-29T13:59:45.895Z</time></trkpt><trkpt lat="42.437639966324916" lon="11.167246126602787"><ele>2.0</ele><time>2026-03-29T13:59:46.895Z</time></trkpt><trkpt lat="42.43752096688634" lon="11.167096779095427"><ele>2.0</ele><time>2026-03-29T13:59:47.895Z</time></trkpt><trkpt lat="42.43740466091458" lon="11.166944964072623"><ele>2.0</ele><time>2026-03-29T13:59:48.895Z</time></trkpt><trkpt lat="42.43728819608424" lon="11.166794692303789"><ele>2.0</ele><time>2026-03-29T13:59:49.895Z</time></trkpt><trkpt lat="42.43717588269336" lon="11.166651859799243"><ele>2.0</ele><time>2026-03-29T13:59:50.895Z</time></trkpt><trkpt lat="42.437055211694855" lon="11.166508490761421"><ele>2.0</ele><time>2026-03-29T13:59:51.895Z</time></trkpt><trkpt lat="42.43694108283149" lon="11.166360433757891"><ele>2.0</ele><time>2026-03-29T13:59:52.895Z</time></trkpt><trkpt lat="42.436824511131896" lon="11.166203467344246"><ele>2.0</ele><time>2026-03-29T13:59:53.895Z</time></trkpt><trkpt lat="42.43672240662904" lon="11.166024394930318"><ele>2.0</ele><time>2026-03-29T13:59:54.895Z</time></trkpt><trkpt lat="42.4366055133685" lon="11.165850728553323"><ele>2.0</ele><time>2026-03-29T13:59:55.895Z</time></trkpt><trkpt lat="42.43648862476386" lon="11.165677046578441"><ele>2.0</ele><time>2026-03-29T13:59:56.895Z</time></trkpt><trkpt lat="42.43635560682047" lon="11.16551265230301"><ele>2.0</ele><time>2026-03-29T13:59:57.895Z</time></trkpt><trkpt lat="42.43623844465968" lon="11.165330399746114"><ele>2.0</ele><time>2026-03-29T13:59:58.894Z</time></trkpt><trkpt lat="42.43612350072733" lon="11.165144863261279"><ele>2.0</ele><time>2026-03-29T13:59:59.894Z</time></trkpt><trkpt lat="42.43600476110031" lon="11.16496558940035"><ele>2.0</ele><time>2026-03-29T14:00:00.894Z</time></trkpt><trkpt lat="42.43588425646604" lon="11.164782182275603"><ele>2.0</ele><time>2026-03-29T14:00:01.894Z</time></trkpt><trkpt lat="42.43576663490153" lon="11.164600595338799"><ele>1.6666666666666665</ele><time>2026-03-29T14:00:02.894Z</time></trkpt><trkpt lat="42.435645113760046" lon="11.164417695855024"><ele>1.3333333333333333</ele><time>2026-03-29T14:00:03.894Z</time></trkpt><trkpt lat="42.43551979418723" lon="11.164243093879048"><ele>1.0</ele><time>2026-03-29T14:00:04.893Z</time></trkpt><trkpt lat="42.43539726284036" lon="11.164059582009388"><ele>1.6666666666666665</ele><time>2026-03-29T14:00:05.893Z</time></trkpt><trkpt lat="42.43527278488187" lon="11.16388208924063"><ele>2.3333333333333335</ele><time>2026-03-29T14:00:06.893Z</time></trkpt><trkpt lat="42.435149589503126" lon="11.163702854594742"><ele>3.0</ele><time>2026-03-29T14:00:07.893Z</time></trkpt><trkpt lat="42.435029727248406" lon="11.163523053030424"><ele>3.0</ele><time>2026-03-29T14:00:08.893Z</time></trkpt><trkpt lat="42.434902442994776" lon="11.16335308719275"><ele>3.0</ele><time>2026-03-29T14:00:09.893Z</time></trkpt><trkpt lat="42.434791782322854" lon="11.163173341094515"><ele>3.0</ele><time>2026-03-29T14:00:10.893Z</time></trkpt><trkpt lat="42.4346807215324" lon="11.162993669604809"><ele>2.3333333333333335</ele><time>2026-03-29T14:00:11.893Z</time></trkpt><trkpt lat="42.434566052174915" lon="11.162817938131804"><ele>1.6666666666666665</ele><time>2026-03-29T14:00:12.893Z</time></trkpt><trkpt lat="42.43444555106092" lon="11.162646956330782"><ele>1.0</ele><time>2026-03-29T14:00:13.893Z</time></trkpt><trkpt lat="42.43432238071027" lon="11.16248476903155"><ele>1.0</ele><time>2026-03-29T14:00:14.893Z</time></trkpt><trkpt lat="42.43419887173535" lon="11.162310491569205"><ele>1.0</ele><time>2026-03-29T14:00:15.893Z</time></trkpt><trkpt lat="42.434083736236225" lon="11.162135938872593"><ele>1.0</ele><time>2026-03-29T14:00:16.893Z</time></trkpt><trkpt lat="42.433972879378466" lon="11.161950798987348"><ele>1.0</ele><time>2026-03-29T14:00:17.893Z</time></trkpt><trkpt lat="42.43387733449571" lon="11.161752921854921"><ele>1.0</ele><time>2026-03-29T14:00:18.893Z</time></trkpt><trkpt lat="42.43380161346366" lon="11.161543622407828"><ele>1.0</ele><time>2026-03-29T14:00:19.893Z</time></trkpt><trkpt lat="42.43374147268377" lon="11.161322807492281"><ele>1.3333333333333333</ele><time>2026-03-29T14:00:20.893Z</time></trkpt><trkpt lat="42.43369205927162" lon="11.161090604418185"><ele>1.6666666666666665</ele><time>2026-03-29T14:00:21.893Z</time></trkpt><trkpt lat="42.433648341232036" lon="11.160855496453596"><ele>2.0</ele><time>2026-03-29T14:00:22.893Z</time></trkpt><trkpt lat="42.43360646193845" lon="11.160629986255417"><ele>2.0</ele><time>2026-03-29T14:00:23.893Z</time></trkpt><trkpt lat="42.43356922232111" lon="11.160401728704961"><ele>2.0</ele><time>2026-03-29T14:00:24.893Z</time></trkpt><trkpt lat="42.433538817571794" lon="11.160167401374705"><ele>2.0</ele><time>2026-03-29T14:00:25.893Z</time></trkpt><trkpt lat="42.43351630362879" lon="11.159926043444477"><ele>2.0</ele><time>2026-03-29T14:00:26.893Z</time></trkpt><trkpt lat="42.433501537721696" lon="11.159683772328977"><ele>2.0</ele><time>2026-03-29T14:00:27.893Z</time></trkpt><trkpt lat="42.43349266434342" lon="11.15944855686346"><ele>2.0</ele><time>2026-03-29T14:00:28.893Z</time></trkpt><trkpt lat="42.433476992638774" lon="11.159209893793498"><ele>1.6666666666666665</ele><time>2026-03-29T14:00:29.893Z</time></trkpt><trkpt lat="42.43346482237131" lon="11.158980314801934"><ele>1.3333333333333333</ele><time>2026-03-29T14:00:30.893Z</time></trkpt><trkpt lat="42.43344686167205" lon="11.15876517059261"><ele>1.0</ele><time>2026-03-29T14:00:31.893Z</time></trkpt><trkpt lat="42.43342545982147" lon="11.158580014330234"><ele>1.0</ele><time>2026-03-29T14:00:32.893Z</time></trkpt><trkpt lat="42.433385323016" lon="11.158397698461311"><ele>1.0</ele><time>2026-03-29T14:00:33.893Z</time></trkpt><trkpt lat="42.433347761288665" lon="11.15823615479338"><ele>1.0</ele><time>2026-03-29T14:00:34.892Z</time></trkpt><trkpt lat="42.4333211688267" lon="11.158096685371824"><ele>1.0</ele><time>2026-03-29T14:00:35.892Z</time></trkpt><trkpt lat="42.4333047451036" lon="11.157954288015883"><ele>1.8</ele><time>2026-03-29T14:00:36.892Z</time></trkpt><trkpt lat="42.43332033611988" lon="11.157832566911086"><ele>2.6</ele><time>2026-03-29T14:00:37.892Z</time></trkpt><trkpt lat="42.433304553719644" lon="11.157691666226418"><ele>3.4</ele><time>2026-03-29T14:00:39.892Z</time></trkpt><trkpt lat="42.43340951978939" lon="11.157614958200679"><ele>4.2</ele><time>2026-03-29T14:00:40.892Z</time></trkpt><trkpt lat="42.43348795316105" lon="11.157530257604035"><ele>5.0</ele><time>2026-03-29T14:00:41.892Z</time></trkpt><trkpt lat="42.433572309113956" lon="11.157408965498346"><ele>4.666666666666667</ele><time>2026-03-29T14:00:42.892Z</time></trkpt><trkpt lat="42.433655200477794" lon="11.157260544527073"><ele>4.333333333333333</ele><time>2026-03-29T14:00:43.892Z</time></trkpt><trkpt lat="42.43373710759052" lon="11.15708450770589"><ele>4.0</ele><time>2026-03-29T14:00:44.892Z</time></trkpt><trkpt lat="42.433822188000825" lon="11.156896350141844"><ele>4.0</ele><time>2026-03-29T14:00:45.892Z</time></trkpt><trkpt lat="42.433909728340694" lon="11.15669883693794"><ele>4.0</ele><time>2026-03-29T14:00:46.892Z</time></trkpt><trkpt lat="42.43398819207475" lon="11.156485812496069"><ele>4.0</ele><time>2026-03-29T14:00:47.892Z</time></trkpt><trkpt lat="42.43406405039058" lon="11.156272602358044"><ele>6.333333333333333</ele><time>2026-03-29T14:00:48.892Z</time></trkpt><trkpt lat="42.4341376023354" lon="11.156055354351976"><ele>8.666666666666666</ele><time>2026-03-29T14:00:49.892Z</time></trkpt><trkpt lat="42.434204676366164" lon="11.155845196725082"><ele>11.0</ele><time>2026-03-29T14:00:50.892Z</time></trkpt><trkpt lat="42.4342684878011" lon="11.155643484063056"><ele>13.333333333333332</ele><time>2026-03-29T14:00:51.892Z</time></trkpt><trkpt lat="42.434340084383024" lon="11.155445988005093"><ele>15.666666666666666</ele><time>2026-03-29T14:00:52.892Z</time></trkpt><trkpt lat="42.43441608258727" lon="11.15525534206774"><ele>18.0</ele><time>2026-03-29T14:00:53.892Z</time></trkpt><trkpt lat="42.43449298852171" lon="11.155089262513679"><ele>18.0</ele><time>2026-03-29T14:00:54.892Z</time></trkpt><trkpt lat="42.4345520623017" lon="11.154926782284047"><ele>18.0</ele><time>2026-03-29T14:00:55.892Z</time></trkpt><trkpt lat="42.434613728878475" lon="11.154775094013862"><ele>18.0</ele><time>2026-03-29T14:00:56.892Z</time></trkpt><trkpt lat="42.4346454469343" lon="11.154615243022189"><ele>18.0</ele><time>2026-03-29T14:00:57.892Z</time></trkpt><trkpt lat="42.43465982706707" lon="11.154445365669893"><ele>14.333333333333334</ele><time>2026-03-29T14:00:58.892Z</time></trkpt><trkpt lat="42.434674846957876" lon="11.154248298924191"><ele>10.666666666666668</ele><time>2026-03-29T14:00:59.892Z</time></trkpt><trkpt lat="42.43468896265474" lon="11.154044320513531"><ele>7.0</ele><time>2026-03-29T14:01:00.892Z</time></trkpt><trkpt lat="42.4347086778753" lon="11.153825336820253"><ele>7.0</ele><time>2026-03-29T14:01:01.892Z</time></trkpt><trkpt lat="42.43472588802284" lon="11.153604999311147"><ele>7.0</ele><time>2026-03-29T14:01:02.892Z</time></trkpt><trkpt lat="42.434742286479775" lon="11.153383868651021"><ele>7.0</ele><time>2026-03-29T14:01:03.892Z</time></trkpt><trkpt lat="42.434747997832154" lon="11.153154110890634"><ele>7.666666666666667</ele><time>2026-03-29T14:01:04.892Z</time></trkpt><trkpt lat="42.43475182297407" lon="11.152920798745543"><ele>8.333333333333334</ele><time>2026-03-29T14:01:05.892Z</time></trkpt><trkpt lat="42.43475187597106" lon="11.152686578053338"><ele>9.0</ele><time>2026-03-29T14:01:06.892Z</time></trkpt><trkpt lat="42.43475223688995" lon="11.1524638181702"><ele>10.5</ele><time>2026-03-29T14:01:07.892Z</time></trkpt><trkpt lat="42.43475762684796" lon="11.152254425447248"><ele>12.0</ele><time>2026-03-29T14:01:08.892Z</time></trkpt><trkpt lat="42.434779510692486" lon="11.152060326377816"><ele>13.5</ele><time>2026-03-29T14:01:09.892Z</time></trkpt><trkpt lat="42.43482943635805" lon="11.15188736780345"><ele>15.0</ele><time>2026-03-29T14:01:10.891Z</time></trkpt><trkpt lat="42.43490945009381" lon="11.15174445582522"><ele>15.0</ele><time>2026-03-29T14:01:11.891Z</time></trkpt><trkpt lat="42.43500941579269" lon="11.151626952295482"><ele>15.0</ele><time>2026-03-29T14:01:12.891Z</time></trkpt><trkpt lat="42.43512702825531" lon="11.151542136456753"><ele>15.0</ele><time>2026-03-29T14:01:13.891Z</time></trkpt><trkpt lat="42.435258018068836" lon="11.151467726560393"><ele>15.0</ele><time>2026-03-29T14:01:14.893Z</time></trkpt><trkpt lat="42.43537979079649" lon="11.15137271271439"><ele>15.25</ele><time>2026-03-29T14:01:15.893Z</time></trkpt><trkpt lat="42.43549430071302" lon="11.151250862141653"><ele>15.5</ele><time>2026-03-29T14:01:16.893Z</time></trkpt><trkpt lat="42.435589960809786" lon="11.151101830274882"><ele>15.75</ele><time>2026-03-29T14:01:17.894Z</time></trkpt><trkpt lat="42.435673715302585" lon="11.150937890414127"><ele>16.0</ele><time>2026-03-29T14:01:18.893Z</time></trkpt><trkpt lat="42.43575189959475" lon="11.150760023399883"><ele>19.0</ele><time>2026-03-29T14:01:19.893Z</time></trkpt><trkpt lat="42.43583657970757" lon="11.150577215873358"><ele>22.0</ele><time>2026-03-29T14:01:20.893Z</time></trkpt><trkpt lat="42.43592479876271" lon="11.150393038495734"><ele>25.0</ele><time>2026-03-29T14:01:21.893Z</time></trkpt><trkpt lat="42.43601674079153" lon="11.150205202084894"><ele>25.0</ele><time>2026-03-29T14:01:22.893Z</time></trkpt><trkpt lat="42.436106460701865" lon="11.150020301883238"><ele>25.0</ele><time>2026-03-29T14:01:23.893Z</time></trkpt><trkpt lat="42.43619946195838" lon="11.149841830349978"><ele>25.0</ele><time>2026-03-29T14:01:24.894Z</time></trkpt><trkpt lat="42.436289575734435" lon="11.149675874122329"><ele>21.75</ele><time>2026-03-29T14:01:25.894Z</time></trkpt><trkpt lat="42.43637343689469" lon="11.149515026700994"><ele>18.5</ele><time>2026-03-29T14:01:26.893Z</time></trkpt><trkpt lat="42.43644863907275" lon="11.149366031190771"><ele>15.25</ele><time>2026-03-29T14:01:27.893Z</time></trkpt><trkpt lat="42.43650113083388" lon="11.149231052035072"><ele>12.0</ele><time>2026-03-29T14:01:28.893Z</time></trkpt><trkpt lat="42.43651935981082" lon="11.149092902503577"><ele>11.2</ele><time>2026-03-29T14:01:29.893Z</time></trkpt><trkpt lat="42.43650431684541" lon="11.148961654462118"><ele>10.399999999999999</ele><time>2026-03-29T14:01:30.892Z</time></trkpt><trkpt lat="42.436465938854894" lon="11.148838109445014"><ele>9.600000000000001</ele><time>2026-03-29T14:01:31.892Z</time></trkpt><trkpt lat="42.436403654533244" lon="11.148727439535694"><ele>8.8</ele><time>2026-03-29T14:01:32.892Z</time></trkpt><trkpt lat="42.436336366857404" lon="11.148616367443445"><ele>8.0</ele><time>2026-03-29T14:01:33.892Z</time></trkpt><trkpt lat="42.43625137118187" lon="11.148520153476538"><ele>10.25</ele><time>2026-03-29T14:01:34.892Z</time></trkpt><trkpt lat="42.43614276488695" lon="11.148432652576917"><ele>12.5</ele><time>2026-03-29T14:01:35.892Z</time></trkpt><trkpt lat="42.436024940805204" lon="11.148359311704029"><ele>14.75</ele><time>2026-03-29T14:01:36.892Z</time></trkpt><trkpt lat="42.435902786216126" lon="11.148293055811685"><ele>17.0</ele><time>2026-03-29T14:01:37.892Z</time></trkpt><trkpt lat="42.43578374929653" lon="11.148228702474453"><ele>13.75</ele><time>2026-03-29T14:01:38.892Z</time></trkpt><trkpt lat="42.4356659808008" lon="11.148170132833952"><ele>10.5</ele><time>2026-03-29T14:01:39.892Z</time></trkpt><trkpt lat="42.43554885051764" lon="11.148114839038724"><ele>7.25</ele><time>2026-03-29T14:01:40.892Z</time></trkpt><trkpt lat="42.43543371811854" lon="11.14806787727238"><ele>4.0</ele><time>2026-03-29T14:01:41.892Z</time></trkpt><trkpt lat="42.435326679056594" lon="11.14801991039818"><ele>4.0</ele><time>2026-03-29T14:01:42.892Z</time></trkpt><trkpt lat="42.43522540691064" lon="11.147991713102444"><ele>4.0</ele><time>2026-03-29T14:01:43.892Z</time></trkpt><trkpt lat="42.43512326242465" lon="11.147991748265389"><ele>4.0</ele><time>2026-03-29T14:01:44.892Z</time></trkpt><trkpt lat="42.43502190122166" lon="11.148018999978543"><ele>4.0</ele><time>2026-03-29T14:01:45.892Z</time></trkpt><trkpt lat="42.434917624590014" lon="11.148056172504825"><ele>4.0</ele><time>2026-03-29T14:01:46.892Z</time></trkpt><trkpt lat="42.43480967928579" lon="11.14805823182123"><ele>4.0</ele><time>2026-03-29T14:01:47.892Z</time></trkpt><trkpt lat="42.43470575849352" lon="11.148091781120431"><ele>4.0</ele><time>2026-03-29T14:01:48.892Z</time></trkpt><trkpt lat="42.43459820303005" lon="11.148124861392017"><ele>4.0</ele><time>2026-03-29T14:01:49.892Z</time></trkpt><trkpt lat="42.4344946334991" lon="11.148134535163498"><ele>4.0</ele><time>2026-03-29T14:01:50.892Z</time></trkpt><trkpt lat="42.434390035228354" lon="11.148104287098384"><ele>4.0</ele><time>2026-03-29T14:01:51.892Z</time></trkpt><trkpt lat="42.434305138440365" lon="11.148041648007773"><ele>4.166666666666666</ele><time>2026-03-29T14:01:52.892Z</time></trkpt><trkpt lat="42.434236938760776" lon="11.147955930061135"><ele>4.333333333333333</ele><time>2026-03-29T14:01:53.892Z</time></trkpt><trkpt lat="42.43418052975822" lon="11.147855325785732"><ele>4.5</ele><time>2026-03-29T14:01:54.892Z</time></trkpt><trkpt lat="42.43413406792676" lon="11.147739691770482"><ele>4.666666666666667</ele><time>2026-03-29T14:01:55.892Z</time></trkpt><trkpt lat="42.43408618237505" lon="11.147643914933914"><ele>4.833333333333334</ele><time>2026-03-29T14:01:56.892Z</time></trkpt><trkpt lat="42.434043294144075" lon="11.147551566206829"><ele>5.0</ele><time>2026-03-29T14:01:57.892Z</time></trkpt><trkpt lat="42.4340048193314" lon="11.147464242674905"><ele>4.6</ele><time>2026-03-29T14:01:58.892Z</time></trkpt><trkpt lat="42.43396771426426" lon="11.14736855680943"><ele>4.2</ele><time>2026-03-29T14:01:59.892Z</time></trkpt><trkpt lat="42.43393530526211" lon="11.147253928187698"><ele>3.8</ele><time>2026-03-29T14:02:00.892Z</time></trkpt><trkpt lat="42.43389943761093" lon="11.147127707523703"><ele>3.4</ele><time>2026-03-29T14:02:01.892Z</time></trkpt><trkpt lat="42.43387077468096" lon="11.146987338201477"><ele>3.0</ele><time>2026-03-29T14:02:02.892Z</time></trkpt><trkpt lat="42.433884620693064" lon="11.146841421399209"><ele>3.0</ele><time>2026-03-29T14:02:03.892Z</time></trkpt><trkpt lat="42.43387820178325" lon="11.14669087377944"><ele>3.0</ele><time>2026-03-29T14:02:04.892Z</time></trkpt><trkpt lat="42.43386703613975" lon="11.146549081743403"><ele>3.0</ele><time>2026-03-29T14:02:05.892Z</time></trkpt><trkpt lat="42.43385139576239" lon="11.146411625506444"><ele>3.0</ele><time>2026-03-29T14:02:06.891Z</time></trkpt><trkpt lat="42.43383574567267" lon="11.14627498530689"><ele>3.0</ele><time>2026-03-29T14:02:07.891Z</time></trkpt><trkpt lat="42.43382753854093" lon="11.146132990641402"><ele>3.0</ele><time>2026-03-29T14:02:08.891Z</time></trkpt><trkpt lat="42.433819918742515" lon="11.145977769780709"><ele>3.0</ele><time>2026-03-29T14:02:09.891Z</time></trkpt><trkpt lat="42.4338108667126" lon="11.145808213966491"><ele>3.0</ele><time>2026-03-29T14:02:10.891Z</time></trkpt><trkpt lat="42.433793237381636" lon="11.145653565778744"><ele>3.0</ele><time>2026-03-29T14:02:11.891Z</time></trkpt><trkpt lat="42.43377777401778" lon="11.145509690161388"><ele>3.2</ele><time>2026-03-29T14:02:12.891Z</time></trkpt><trkpt lat="42.43377519773002" lon="11.145361694559725"><ele>3.4</ele><time>2026-03-29T14:02:13.891Z</time></trkpt><trkpt lat="42.433783297271155" lon="11.145224645200507"><ele>3.6000000000000005</ele><time>2026-03-29T14:02:14.891Z</time></trkpt><trkpt lat="42.43381337743821" lon="11.145086486598764"><ele>3.8000000000000003</ele><time>2026-03-29T14:02:15.891Z</time></trkpt><trkpt lat="42.43386785313384" lon="11.144963225053194"><ele>4.0</ele><time>2026-03-29T14:02:16.891Z</time></trkpt><trkpt lat="42.43393641820692" lon="11.144850656183591"><ele>6.5</ele><time>2026-03-29T14:02:17.891Z</time></trkpt><trkpt lat="42.43401583972608" lon="11.144741316279703"><ele>9.0</ele><time>2026-03-29T14:02:18.891Z</time></trkpt><trkpt lat="42.43409703924594" lon="11.14463251153203"><ele>11.5</ele><time>2026-03-29T14:02:19.891Z</time></trkpt><trkpt lat="42.434177591290066" lon="11.144522636815234"><ele>14.0</ele><time>2026-03-29T14:02:20.891Z</time></trkpt><trkpt lat="42.43425986875102" lon="11.144409702517756"><ele>14.0</ele><time>2026-03-29T14:02:21.891Z</time></trkpt><trkpt lat="42.434333775259944" lon="11.14430148779605"><ele>13.999999999999998</ele><time>2026-03-29T14:02:22.891Z</time></trkpt><trkpt lat="42.43440019047875" lon="11.144204540142445"><ele>13.999999999999998</ele><time>2026-03-29T14:02:23.891Z</time></trkpt><trkpt lat="42.434457871349935" lon="11.144098834932935"><ele>14.0</ele><time>2026-03-29T14:02:24.891Z</time></trkpt><trkpt lat="42.43452265035373" lon="11.143991801801754"><ele>14.0</ele><time>2026-03-29T14:02:25.891Z</time></trkpt><trkpt lat="42.434546676566676" lon="11.143837351647507"><ele>12.799999999999999</ele><time>2026-03-29T14:02:26.891Z</time></trkpt><trkpt lat="42.43452414119662" lon="11.143700539755505"><ele>11.599999999999998</ele><time>2026-03-29T14:02:27.891Z</time></trkpt><trkpt lat="42.43446863719924" lon="11.143576764830264"><ele>10.4</ele><time>2026-03-29T14:02:28.891Z</time></trkpt><trkpt lat="42.43438545350714" lon="11.14348345951501"><ele>9.2</ele><time>2026-03-29T14:02:29.891Z</time></trkpt><trkpt lat="42.4342894273426" lon="11.143410685163339"><ele>8.0</ele><time>2026-03-29T14:02:30.891Z</time></trkpt><trkpt lat="42.4341759190346" lon="11.143345082945158"><ele>8.0</ele><time>2026-03-29T14:02:31.891Z</time></trkpt><trkpt lat="42.434076732785016" lon="11.143242495920624"><ele>8.0</ele><time>2026-03-29T14:02:32.891Z</time></trkpt><trkpt lat="42.433968633361204" lon="11.143139941153047"><ele>8.0</ele><time>2026-03-29T14:02:33.891Z</time></trkpt><trkpt lat="42.43386901544089" lon="11.143030845262953"><ele>8.0</ele><time>2026-03-29T14:02:34.891Z</time></trkpt><trkpt lat="42.43378219611296" lon="11.14290350301069"><ele>7.75</ele><time>2026-03-29T14:02:35.891Z</time></trkpt><trkpt lat="42.43371945459905" lon="11.14275858297506"><ele>7.5</ele><time>2026-03-29T14:02:36.891Z</time></trkpt><trkpt lat="42.43369189683715" lon="11.142607048304546"><ele>7.25</ele><time>2026-03-29T14:02:37.891Z</time></trkpt><trkpt lat="42.433683601968816" lon="11.14244125800578"><ele>7.0</ele><time>2026-03-29T14:02:38.891Z</time></trkpt><trkpt lat="42.433684255989085" lon="11.142268343422298"><ele>7.0</ele><time>2026-03-29T14:02:39.891Z</time></trkpt><trkpt lat="42.43369805151643" lon="11.142103038395243"><ele>7.0</ele><time>2026-03-29T14:02:40.891Z</time></trkpt><trkpt lat="42.43372104778568" lon="11.141942340055"><ele>7.0</ele><time>2026-03-29T14:02:41.891Z</time></trkpt><trkpt lat="42.433737414865675" lon="11.141778506972281"><ele>7.0</ele><time>2026-03-29T14:02:42.89Z</time></trkpt><trkpt lat="42.433751847505" lon="11.141616186195463"><ele>6.75</ele><time>2026-03-29T14:02:43.89Z</time></trkpt><trkpt lat="42.433763523477054" lon="11.14145611771183"><ele>6.5</ele><time>2026-03-29T14:02:44.89Z</time></trkpt><trkpt lat="42.43377250559902" lon="11.141302390692381"><ele>6.25</ele><time>2026-03-29T14:02:45.89Z</time></trkpt><trkpt lat="42.433782214895864" lon="11.141147101976173"><ele>6.0</ele><time>2026-03-29T14:02:46.89Z</time></trkpt><trkpt lat="42.43379308522675" lon="11.140983545400054"><ele>6.0</ele><time>2026-03-29T14:02:47.89Z</time></trkpt><trkpt lat="42.43380051505772" lon="11.140818806300963"><ele>6.0</ele><time>2026-03-29T14:02:48.89Z</time></trkpt><trkpt lat="42.433812299131894" lon="11.140658931053329"><ele>6.0</ele><time>2026-03-29T14:02:49.89Z</time></trkpt><trkpt lat="42.43382039103888" lon="11.140503254861029"><ele>6.0</ele><time>2026-03-29T14:02:50.89Z</time></trkpt><trkpt lat="42.43382948461585" lon="11.140346151441127"><ele>4.75</ele><time>2026-03-29T14:02:51.89Z</time></trkpt><trkpt lat="42.43384308811422" lon="11.140194163653216"><ele>3.5</ele><time>2026-03-29T14:02:52.89Z</time></trkpt><trkpt lat="42.43386134496965" lon="11.140045190856187"><ele>2.25</ele><time>2026-03-29T14:02:53.89Z</time></trkpt><trkpt lat="42.433881085582044" lon="11.139895239133057"><ele>1.0</ele><time>2026-03-29T14:02:54.89Z</time></trkpt><trkpt lat="42.43390308911767" lon="11.139737284119986"><ele>1.0</ele><time>2026-03-29T14:02:55.89Z</time></trkpt><trkpt lat="42.43394219248163" lon="11.139583125156134"><ele>1.0</ele><time>2026-03-29T14:02:56.89Z</time></trkpt><trkpt lat="42.433987311308826" lon="11.139438860900933"><ele>1.0</ele><time>2026-03-29T14:02:57.89Z</time></trkpt><trkpt lat="42.434030611671076" lon="11.139304836503989"><ele>1.0</ele><time>2026-03-29T14:02:58.89Z</time></trkpt><trkpt lat="42.43408952813054" lon="11.139175571096322"><ele>1.6</ele><time>2026-03-29T14:02:59.89Z</time></trkpt><trkpt lat="42.43412895479022" lon="11.139037551794376"><ele>2.2</ele><time>2026-03-29T14:03:00.89Z</time></trkpt><trkpt lat="42.43416844116317" lon="11.13889685241585"><ele>2.8000000000000003</ele><time>2026-03-29T14:03:01.89Z</time></trkpt><trkpt lat="42.43420597446777" lon="11.13875104430325"><ele>3.4000000000000004</ele><time>2026-03-29T14:03:02.89Z</time></trkpt><trkpt lat="42.43424848749507" lon="11.13860646519001"><ele>4.0</ele><time>2026-03-29T14:03:03.89Z</time></trkpt><trkpt lat="42.43429550987746" lon="11.138465497121556"><ele>4.0</ele><time>2026-03-29T14:03:04.89Z</time></trkpt><trkpt lat="42.434341577134575" lon="11.138333493977123"><ele>4.0</ele><time>2026-03-29T14:03:05.89Z</time></trkpt><trkpt lat="42.434388761806275" lon="11.138204069199624"><ele>4.0</ele><time>2026-03-29T14:03:06.89Z</time></trkpt><trkpt lat="42.43443623324279" lon="11.138080954049887"><ele>4.0</ele><time>2026-03-29T14:03:07.89Z</time></trkpt><trkpt lat="42.434490793726425" lon="11.137958012206582"><ele>4.0</ele><time>2026-03-29T14:03:08.89Z</time></trkpt><trkpt lat="42.434539763439" lon="11.137835852188761"><ele>4.6</ele><time>2026-03-29T14:03:09.89Z</time></trkpt><trkpt lat="42.434590813347576" lon="11.137707408280306"><ele>5.2</ele><time>2026-03-29T14:03:10.89Z</time></trkpt><trkpt lat="42.43463504415049" lon="11.137574324442232"><ele>5.799999999999999</ele><time>2026-03-29T14:03:11.89Z</time></trkpt><trkpt lat="42.43469812747993" lon="11.13744768551151"><ele>6.3999999999999995</ele><time>2026-03-29T14:03:12.89Z</time></trkpt><trkpt lat="42.43477311186844" lon="11.13734724083836"><ele>7.0</ele><time>2026-03-29T14:03:13.89Z</time></trkpt><trkpt lat="42.43486499716914" lon="11.137266305920642"><ele>9.2</ele><time>2026-03-29T14:03:14.89Z</time></trkpt><trkpt lat="42.43497150733312" lon="11.137223613406595"><ele>11.399999999999999</ele><time>2026-03-29T14:03:15.89Z</time></trkpt><trkpt lat="42.43508002108963" lon="11.1371969843124"><ele>13.600000000000001</ele><time>2026-03-29T14:03:16.89Z</time></trkpt><trkpt lat="42.43519035416271" lon="11.137162011460214"><ele>15.8</ele><time>2026-03-29T14:03:17.89Z</time></trkpt><trkpt lat="42.43528777913902" lon="11.137118271428312"><ele>18.0</ele><time>2026-03-29T14:03:18.889Z</time></trkpt><trkpt lat="42.43537772047521" lon="11.137066963372696"><ele>18.0</ele><time>2026-03-29T14:03:19.889Z</time></trkpt><trkpt lat="42.43545514857323" lon="11.13699976700489"><ele>18.0</ele><time>2026-03-29T14:03:20.891Z</time></trkpt><trkpt lat="42.43554035075563" lon="11.136928145748406"><ele>18.0</ele><time>2026-03-29T14:03:21.891Z</time></trkpt><trkpt lat="42.43561662769901" lon="11.136838491714784"><ele>18.0</ele><time>2026-03-29T14:03:22.891Z</time></trkpt><trkpt lat="42.43568139889465" lon="11.136740228337649"><ele>18.0</ele><time>2026-03-29T14:03:23.891Z</time></trkpt><trkpt lat="42.4357423730744" lon="11.136625678841353"><ele>18.25</ele><time>2026-03-29T14:03:24.891Z</time></trkpt><trkpt lat="42.4358018292761" lon="11.136499275363521"><ele>18.5</ele><time>2026-03-29T14:03:25.891Z</time></trkpt><trkpt lat="42.435867788934594" lon="11.136358838074617"><ele>18.75</ele><time>2026-03-29T14:03:26.891Z</time></trkpt><trkpt lat="42.43593333397415" lon="11.136212569718607"><ele>19.0</ele><time>2026-03-29T14:03:27.891Z</time></trkpt><trkpt lat="42.43600448932493" lon="11.136066139338217"><ele>19.0</ele><time>2026-03-29T14:03:28.891Z</time></trkpt><trkpt lat="42.43607197298029" lon="11.135929715942655"><ele>19.0</ele><time>2026-03-29T14:03:29.891Z</time></trkpt><trkpt lat="42.436138548935695" lon="11.135795339863524"><ele>19.0</ele><time>2026-03-29T14:03:30.891Z</time></trkpt><trkpt lat="42.4361995337707" lon="11.135667196599664"><ele>19.0</ele><time>2026-03-29T14:03:31.891Z</time></trkpt><trkpt lat="42.43626318623192" lon="11.135541173518718"><ele>16.5</ele><time>2026-03-29T14:03:32.891Z</time></trkpt><trkpt lat="42.43631705511477" lon="11.135408466230611"><ele>14.0</ele><time>2026-03-29T14:03:33.89Z</time></trkpt><trkpt lat="42.43639638461798" lon="11.135289912568807"><ele>11.5</ele><time>2026-03-29T14:03:34.89Z</time></trkpt><trkpt lat="42.43644740729526" lon="11.135152458762727"><ele>9.0</ele><time>2026-03-29T14:03:35.89Z</time></trkpt><trkpt lat="42.436526619877085" lon="11.135051096149319"><ele>9.0</ele><time>2026-03-29T14:03:36.89Z</time></trkpt><trkpt lat="42.43658251879502" lon="11.134942037246812"><ele>9.0</ele><time>2026-03-29T14:03:37.89Z</time></trkpt><trkpt lat="42.43663911914544" lon="11.134832576626419"><ele>9.0</ele><time>2026-03-29T14:03:38.89Z</time></trkpt><trkpt lat="42.43670135107195" lon="11.134732116708204"><ele>9.0</ele><time>2026-03-29T14:03:39.89Z</time></trkpt><trkpt lat="42.43677622019787" lon="11.134641886510579"><ele>9.0</ele><time>2026-03-29T14:03:40.89Z</time></trkpt><trkpt lat="42.436864075077686" lon="11.134554254387668"><ele>9.75</ele><time>2026-03-29T14:03:41.89Z</time></trkpt><trkpt lat="42.43696284635002" lon="11.134474118235271"><ele>10.5</ele><time>2026-03-29T14:03:42.89Z</time></trkpt><trkpt lat="42.437073257468704" lon="11.13441289319705"><ele>11.25</ele><time>2026-03-29T14:03:43.89Z</time></trkpt><trkpt lat="42.4371897714517" lon="11.134354496212984"><ele>12.0</ele><time>2026-03-29T14:03:44.89Z</time></trkpt><trkpt lat="42.43730526098279" lon="11.134291895501162"><ele>12.0</ele><time>2026-03-29T14:03:45.89Z</time></trkpt><trkpt lat="42.437420532565824" lon="11.13421825910165"><ele>12.0</ele><time>2026-03-29T14:03:46.89Z</time></trkpt><trkpt lat="42.437522474590985" lon="11.134139231523532"><ele>12.0</ele><time>2026-03-29T14:03:47.89Z</time></trkpt><trkpt lat="42.43761271117566" lon="11.13404757609808"><ele>12.0</ele><time>2026-03-29T14:03:48.89Z</time></trkpt><trkpt lat="42.43769266669895" lon="11.13394124858173"><ele>13.6</ele><time>2026-03-29T14:03:49.89Z</time></trkpt><trkpt lat="42.43775957345791" lon="11.133823188532073"><ele>15.2</ele><time>2026-03-29T14:03:50.89Z</time></trkpt><trkpt lat="42.43780980039834" lon="11.133692790742126"><ele>16.8</ele><time>2026-03-29T14:03:51.89Z</time></trkpt><trkpt lat="42.43783056573007" lon="11.133549066196357"><ele>18.4</ele><time>2026-03-29T14:03:52.89Z</time></trkpt><trkpt lat="42.43783710129553" lon="11.133408799335587"><ele>20.0</ele><time>2026-03-29T14:03:53.89Z</time></trkpt><trkpt lat="42.43780760272429" lon="11.133269575800766"><ele>19.75</ele><time>2026-03-29T14:03:54.89Z</time></trkpt><trkpt lat="42.43776017305247" lon="11.133137990860481"><ele>19.5</ele><time>2026-03-29T14:03:55.89Z</time></trkpt><trkpt lat="42.43770540151704" lon="11.133006647479315"><ele>19.25</ele><time>2026-03-29T14:03:56.89Z</time></trkpt><trkpt lat="42.43764545781573" lon="11.132867049815028"><ele>19.0</ele><time>2026-03-29T14:03:57.89Z</time></trkpt><trkpt lat="42.43757609520648" lon="11.132739199132173"><ele>19.0</ele><time>2026-03-29T14:03:58.89Z</time></trkpt><trkpt lat="42.437503454731335" lon="11.13261656063789"><ele>19.0</ele><time>2026-03-29T14:03:59.89Z</time></trkpt><trkpt lat="42.43743544556153" lon="11.132508199483418"><ele>19.0</ele><time>2026-03-29T14:04:00.89Z</time></trkpt><trkpt lat="42.43736295890213" lon="11.132414024685355"><ele>19.0</ele><time>2026-03-29T14:04:01.89Z</time></trkpt><trkpt lat="42.43729049320883" lon="11.13231663752404"><ele>19.0</ele><time>2026-03-29T14:04:02.89Z</time></trkpt><trkpt lat="42.43722475357452" lon="11.13221433094381"><ele>21.0</ele><time>2026-03-29T14:04:03.89Z</time></trkpt><trkpt lat="42.437152883491876" lon="11.132118474390031"><ele>23.0</ele><time>2026-03-29T14:04:04.89Z</time></trkpt><trkpt lat="42.43707886885535" lon="11.132004906119418"><ele>25.0</ele><time>2026-03-29T14:04:05.89Z</time></trkpt><trkpt lat="42.43700257933099" lon="11.13188149099248"><ele>27.0</ele><time>2026-03-29T14:04:06.89Z</time></trkpt><trkpt lat="42.43692367593566" lon="11.131744230879024"><ele>28.75</ele><time>2026-03-29T14:04:07.89Z</time></trkpt><trkpt lat="42.43685201479363" lon="11.131587996545335"><ele>30.5</ele><time>2026-03-29T14:04:08.889Z</time></trkpt><trkpt lat="42.43679961361898" lon="11.131408719135646"><ele>32.25</ele><time>2026-03-29T14:04:09.889Z</time></trkpt><trkpt lat="42.43677346371571" lon="11.131210637230945"><ele>34.0</ele><time>2026-03-29T14:04:10.889Z</time></trkpt><trkpt lat="42.43677472366923" lon="11.131001706740594"><ele>34.0</ele><time>2026-03-29T14:04:11.889Z</time></trkpt><trkpt lat="42.43677698001334" lon="11.130800612218223"><ele>34.0</ele><time>2026-03-29T14:04:12.889Z</time></trkpt><trkpt lat="42.43678213147216" lon="11.130627744007795"><ele>34.0</ele><time>2026-03-29T14:04:13.889Z</time></trkpt><trkpt lat="42.436785215227296" lon="11.130465742092467"><ele>34.0</ele><time>2026-03-29T14:04:14.889Z</time></trkpt><trkpt lat="42.43678236920068" lon="11.130312113767218"><ele>34.0</ele><time>2026-03-29T14:04:15.889Z</time></trkpt><trkpt lat="42.43677913233222" lon="11.13017349907356"><ele>34.0</ele><time>2026-03-29T14:04:16.889Z</time></trkpt><trkpt lat="42.436769031626106" lon="11.130046903987287"><ele>34.0</ele><time>2026-03-29T14:04:17.889Z</time></trkpt><trkpt lat="42.43674939269966" lon="11.129915332439625"><ele>34.0</ele><time>2026-03-29T14:04:18.889Z</time></trkpt><trkpt lat="42.43673079179475" lon="11.12977486694928"><ele>34.0</ele><time>2026-03-29T14:04:19.889Z</time></trkpt><trkpt lat="42.43671949055368" lon="11.129628893400259"><ele>34.0</ele><time>2026-03-29T14:04:20.889Z</time></trkpt><trkpt lat="42.43670561763883" lon="11.129478934120758"><ele>34.0</ele><time>2026-03-29T14:04:21.889Z</time></trkpt><trkpt lat="42.436687474109235" lon="11.129325421613077"><ele>34.0</ele><time>2026-03-29T14:04:22.889Z</time></trkpt><trkpt lat="42.43667263901796" lon="11.129171494267267"><ele>34.0</ele><time>2026-03-29T14:04:23.889Z</time></trkpt><trkpt lat="42.43665611563911" lon="11.129011420341397"><ele>35.75</ele><time>2026-03-29T14:04:24.889Z</time></trkpt><trkpt lat="42.436639944269196" lon="11.12885060925483"><ele>37.5</ele><time>2026-03-29T14:04:25.889Z</time></trkpt><trkpt lat="42.43662375440209" lon="11.128689567438556"><ele>39.25</ele><time>2026-03-29T14:04:26.889Z</time></trkpt><trkpt lat="42.43661127279975" lon="11.128521212464575"><ele>41.0</ele><time>2026-03-29T14:04:27.889Z</time></trkpt><trkpt lat="42.43663479943747" lon="11.128363643195193"><ele>41.0</ele><time>2026-03-29T14:04:28.889Z</time></trkpt><trkpt lat="42.436704158227386" lon="11.128230524608114"><ele>41.0</ele><time>2026-03-29T14:04:29.889Z</time></trkpt><trkpt lat="42.43673822276202" lon="11.128078193120817"><ele>41.0</ele><time>2026-03-29T14:04:30.889Z</time></trkpt><trkpt lat="42.43679174514" lon="11.127949060643969"><ele>41.0</ele><time>2026-03-29T14:04:31.889Z</time></trkpt><trkpt lat="42.43681532707779" lon="11.127808217868793"><ele>40.599999999999994</ele><time>2026-03-29T14:04:32.889Z</time></trkpt><trkpt lat="42.436829745125415" lon="11.127675136609376"><ele>40.199999999999996</ele><time>2026-03-29T14:04:33.889Z</time></trkpt><trkpt lat="42.436833673242674" lon="11.127529349167562"><ele>39.8</ele><time>2026-03-29T14:04:34.889Z</time></trkpt><trkpt lat="42.43681138172102" lon="11.127378390492124"><ele>39.4</ele><time>2026-03-29T14:04:35.889Z</time></trkpt><trkpt lat="42.43678105888606" lon="11.127242560165854"><ele>39.0</ele><time>2026-03-29T14:04:36.889Z</time></trkpt><trkpt lat="42.43673602102622" lon="11.12711347856374"><ele>37.0</ele><time>2026-03-29T14:04:37.889Z</time></trkpt><trkpt lat="42.43672183121574" lon="11.126965785727657"><ele>35.0</ele><time>2026-03-29T14:04:38.889Z</time></trkpt><trkpt lat="42.43671949146847" lon="11.126823960063174"><ele>33.0</ele><time>2026-03-29T14:04:39.889Z</time></trkpt><trkpt lat="42.436717198303576" lon="11.126688574745865"><ele>31.0</ele><time>2026-03-29T14:04:40.889Z</time></trkpt><trkpt lat="42.436692536491435" lon="11.12657853495674"><ele>29.0</ele><time>2026-03-29T14:04:41.889Z</time></trkpt><trkpt lat="42.43664409346075" lon="11.126493842773614"><ele>25.599999999999998</ele><time>2026-03-29T14:04:42.889Z</time></trkpt><trkpt lat="42.43658130262867" lon="11.126413351060966"><ele>22.2</ele><time>2026-03-29T14:04:43.889Z</time></trkpt><trkpt lat="42.43649927931659" lon="11.126361305784036"><ele>18.799999999999997</ele><time>2026-03-29T14:04:44.888Z</time></trkpt><trkpt lat="42.43640470460231" lon="11.12631552112709"><ele>15.399999999999999</ele><time>2026-03-29T14:04:45.888Z</time></trkpt><trkpt lat="42.43631878091741" lon="11.12625801822838"><ele>12.0</ele><time>2026-03-29T14:04:46.888Z</time></trkpt><trkpt lat="42.43621936398753" lon="11.126205469796789"><ele>12.0</ele><time>2026-03-29T14:04:47.888Z</time></trkpt><trkpt lat="42.4361141041534" lon="11.126146942054177"><ele>12.0</ele><time>2026-03-29T14:04:48.888Z</time></trkpt><trkpt lat="42.43600244924345" lon="11.126092397111506"><ele>12.0</ele><time>2026-03-29T14:04:49.888Z</time></trkpt><trkpt lat="42.43588994560266" lon="11.126038944261929"><ele>12.0</ele><time>2026-03-29T14:04:50.888Z</time></trkpt><trkpt lat="42.43578218724269" lon="11.125989048513853"><ele>12.0</ele><time>2026-03-29T14:04:51.888Z</time></trkpt><trkpt lat="42.43568081040526" lon="11.12593169950299"><ele>12.0</ele><time>2026-03-29T14:04:52.888Z</time></trkpt><trkpt lat="42.435579739496546" lon="11.125870253175313"><ele>12.0</ele><time>2026-03-29T14:04:53.888Z</time></trkpt><trkpt lat="42.43549072684364" lon="11.125784607168123"><ele>12.0</ele><time>2026-03-29T14:04:54.888Z</time></trkpt><trkpt lat="42.4354155833894" lon="11.125678463524576"><ele>12.0</ele><time>2026-03-29T14:04:55.888Z</time></trkpt><trkpt lat="42.43534220597452" lon="11.12554794801061"><ele>12.0</ele><time>2026-03-29T14:04:56.888Z</time></trkpt><trkpt lat="42.435266687789635" lon="11.12540226704322"><ele>12.0</ele><time>2026-03-29T14:04:57.888Z</time></trkpt><trkpt lat="42.435178154871686" lon="11.125260728358377"><ele>12.0</ele><time>2026-03-29T14:04:58.888Z</time></trkpt><trkpt lat="42.435088994451" lon="11.125124716030193"><ele>12.0</ele><time>2026-03-29T14:04:59.888Z</time></trkpt><trkpt lat="42.43500023021712" lon="11.124985541666822"><ele>9.799999999999999</ele><time>2026-03-29T14:05:00.888Z</time></trkpt><trkpt lat="42.43491445065774" lon="11.124878008434742"><ele>7.6</ele><time>2026-03-29T14:05:01.888Z</time></trkpt><trkpt lat="42.434840963808185" lon="11.124783251172172"><ele>5.4</ele><time>2026-03-29T14:05:02.888Z</time></trkpt><trkpt lat="42.43476955514209" lon="11.12469664695842"><ele>3.2</ele><time>2026-03-29T14:05:03.888Z</time></trkpt><trkpt lat="42.43470138172134" lon="11.124614212412009"><ele>1.0</ele><time>2026-03-29T14:05:04.888Z</time></trkpt><trkpt lat="42.43464147751308" lon="11.12453679798769"><ele>1.7142857142857142</ele><time>2026-03-29T14:05:05.888Z</time></trkpt><trkpt lat="42.4345863948323" lon="11.124459084814502"><ele>2.4285714285714284</ele><time>2026-03-29T14:05:06.888Z</time></trkpt><trkpt lat="42.434530326118605" lon="11.124387025015354"><ele>3.1428571428571423</ele><time>2026-03-29T14:05:07.888Z</time></trkpt><trkpt lat="42.43448406688251" lon="11.124327846366564"><ele>3.8571428571428568</ele><time>2026-03-29T14:05:08.888Z</time></trkpt><trkpt lat="42.43443786660726" lon="11.124264093690984"><ele>4.571428571428571</ele><time>2026-03-29T14:05:09.888Z</time></trkpt><trkpt lat="42.43439406468201" lon="11.124198446948895"><ele>5.285714285714286</ele><time>2026-03-29T14:05:10.888Z</time></trkpt><trkpt lat="42.43434733083111" lon="11.12413414261453"><ele>6.0</ele><time>2026-03-29T14:05:11.888Z</time></trkpt><trkpt lat="42.43430657096902" lon="11.124065824525156"><ele>5.285714285714286</ele><time>2026-03-29T14:05:12.888Z</time></trkpt><trkpt lat="42.43426264312521" lon="11.12400127300119"><ele>4.571428571428571</ele><time>2026-03-29T14:05:13.888Z</time></trkpt><trkpt lat="42.43422397524801" lon="11.12393245704757"><ele>3.8571428571428568</ele><time>2026-03-29T14:05:14.888Z</time></trkpt><trkpt lat="42.43419040987988" lon="11.123855329811128"><ele>3.1428571428571423</ele><time>2026-03-29T14:05:15.888Z</time></trkpt><trkpt lat="42.43416782277976" lon="11.123757975636048"><ele>2.4285714285714284</ele><time>2026-03-29T14:05:16.888Z</time></trkpt><trkpt lat="42.43413238026095" lon="11.123674229589705"><ele>1.7142857142857142</ele><time>2026-03-29T14:05:17.888Z</time></trkpt><trkpt lat="42.434097137882844" lon="11.123580197918429"><ele>1.0</ele><time>2026-03-29T14:05:18.888Z</time></trkpt><trkpt lat="42.43399744533207" lon="11.123543331009534"><ele>0.9999999999999999</ele><time>2026-03-29T14:05:19.887Z</time></trkpt><trkpt lat="42.4339159643269" lon="11.123474061342932"><ele>1.0</ele><time>2026-03-29T14:05:20.887Z</time></trkpt><trkpt lat="42.433837226318644" lon="11.123405366994888"><ele>1.0</ele><time>2026-03-29T14:05:21.887Z</time></trkpt><trkpt lat="42.43376619025582" lon="11.12334633938312"><ele>1.0</ele><time>2026-03-29T14:05:22.887Z</time></trkpt><trkpt lat="42.43369603761308" lon="11.123284036331015"><ele>0.9999999999999999</ele><time>2026-03-29T14:05:23.887Z</time></trkpt><trkpt lat="42.43362504405195" lon="11.123212302220622"><ele>1.0</ele><time>2026-03-29T14:05:24.887Z</time></trkpt><trkpt lat="42.43356077307699" lon="11.123148312674488"><ele>2.4285714285714284</ele><time>2026-03-29T14:05:25.887Z</time></trkpt><trkpt lat="42.43349359876289" lon="11.12308434111169"><ele>3.8571428571428568</ele><time>2026-03-29T14:05:26.889Z</time></trkpt><trkpt lat="42.43343160513927" lon="11.123041203631926"><ele>5.285714285714286</ele><time>2026-03-29T14:05:27.888Z</time></trkpt><trkpt lat="42.4333725849545" lon="11.123001917487908"><ele>6.714285714285714</ele><time>2026-03-29T14:05:28.888Z</time></trkpt><trkpt lat="42.43331767590668" lon="11.122957050644784"><ele>8.142857142857142</ele><time>2026-03-29T14:05:29.888Z</time></trkpt><trkpt lat="42.43323679048755" lon="11.122896933123743"><ele>9.571428571428571</ele><time>2026-03-29T14:05:31.889Z</time></trkpt><trkpt lat="42.43318144363662" lon="11.122851832095998"><ele>11.0</ele><time>2026-03-29T14:05:33.889Z</time></trkpt><trkpt lat="42.43311982993904" lon="11.122795964448082"><ele>11.0</ele><time>2026-03-29T14:05:35.889Z</time></trkpt><trkpt lat="42.43303372811129" lon="11.122701403533958"><ele>11.0</ele><time>2026-03-29T14:05:37.888Z</time></trkpt><trkpt lat="42.43297022459757" lon="11.122651039677871"><ele>11.0</ele><time>2026-03-29T14:05:38.889Z</time></trkpt><trkpt lat="42.432882620957706" lon="11.122610263020258"><ele>11.0</ele><time>2026-03-29T14:05:39.889Z</time></trkpt><trkpt lat="42.43280122342386" lon="11.122522793187432"><ele>11.0</ele><time>2026-03-29T14:05:40.889Z</time></trkpt><trkpt lat="42.432709385369016" lon="11.122452926569887"><ele>11.8</ele><time>2026-03-29T14:05:41.889Z</time></trkpt><trkpt lat="42.43261206979248" lon="11.122382633919193"><ele>12.600000000000001</ele><time>2026-03-29T14:05:42.889Z</time></trkpt><trkpt lat="42.43252042806372" lon="11.122317998641932"><ele>13.4</ele><time>2026-03-29T14:05:43.889Z</time></trkpt><trkpt lat="42.432432655623955" lon="11.122249575482506"><ele>14.2</ele><time>2026-03-29T14:05:44.889Z</time></trkpt><trkpt lat="42.43234565827961" lon="11.12218105645589"><ele>15.0</ele><time>2026-03-29T14:05:45.889Z</time></trkpt><trkpt lat="42.432259442560095" lon="11.122120967227724"><ele>15.0</ele><time>2026-03-29T14:05:46.889Z</time></trkpt><trkpt lat="42.432179202476995" lon="11.122065601870556"><ele>15.0</ele><time>2026-03-29T14:05:47.889Z</time></trkpt><trkpt lat="42.4321050452811" lon="11.12201160093122"><ele>15.0</ele><time>2026-03-29T14:05:48.889Z</time></trkpt><trkpt lat="42.432042845136856" lon="11.121964261587099"><ele>15.0</ele><time>2026-03-29T14:05:49.889Z</time></trkpt><trkpt lat="42.431969924773895" lon="11.121847158696983"><ele>15.0</ele><time>2026-03-29T14:05:51.889Z</time></trkpt><trkpt lat="42.431931250160574" lon="11.1217043288745"><ele>16.4</ele><time>2026-03-29T14:05:53.889Z</time></trkpt><trkpt lat="42.43187067717893" lon="11.121556243015924"><ele>17.8</ele><time>2026-03-29T14:05:55.889Z</time></trkpt><trkpt lat="42.431755303254285" lon="11.121479633060556"><ele>19.200000000000003</ele><time>2026-03-29T14:05:57.888Z</time></trkpt><trkpt lat="42.431682730487466" lon="11.121449670016272"><ele>20.6</ele><time>2026-03-29T14:05:58.888Z</time></trkpt><trkpt lat="42.4316052832248" lon="11.121433271602948"><ele>22.0</ele><time>2026-03-29T14:05:59.888Z</time></trkpt><trkpt lat="42.431520542516175" lon="11.12141376458492"><ele>22.0</ele><time>2026-03-29T14:06:00.888Z</time></trkpt><trkpt lat="42.431434849196144" lon="11.121380396335654"><ele>22.0</ele><time>2026-03-29T14:06:01.888Z</time></trkpt><trkpt lat="42.43133920738388" lon="11.121339572443437"><ele>22.0</ele><time>2026-03-29T14:06:02.888Z</time></trkpt><trkpt lat="42.43124112936526" lon="11.121301099127544"><ele>22.0</ele><time>2026-03-29T14:06:03.888Z</time></trkpt><trkpt lat="42.43114212189339" lon="11.12126264663443"><ele>22.0</ele><time>2026-03-29T14:06:04.888Z</time></trkpt><trkpt lat="42.43104122546323" lon="11.12121523245123"><ele>20.400000000000002</ele><time>2026-03-29T14:06:05.888Z</time></trkpt><trkpt lat="42.4309381563908" lon="11.121177805149454"><ele>18.8</ele><time>2026-03-29T14:06:06.888Z</time></trkpt><trkpt lat="42.43083669218431" lon="11.121141775159563"><ele>17.2</ele><time>2026-03-29T14:06:07.888Z</time></trkpt><trkpt lat="42.430741394769036" lon="11.121102235665042"><ele>15.6</ele><time>2026-03-29T14:06:08.888Z</time></trkpt><trkpt lat="42.4306477747779" lon="11.12107222951527"><ele>14.0</ele><time>2026-03-29T14:06:09.888Z</time></trkpt><trkpt lat="42.43055816667535" lon="11.121041659051667"><ele>14.0</ele><time>2026-03-29T14:06:10.888Z</time></trkpt><trkpt lat="42.43046938348032" lon="11.12101291156347"><ele>13.999999999999998</ele><time>2026-03-29T14:06:11.888Z</time></trkpt><trkpt lat="42.430378241438824" lon="11.120985597077462"><ele>13.999999999999998</ele><time>2026-03-29T14:06:12.888Z</time></trkpt><trkpt lat="42.430289591867094" lon="11.120953663689635"><ele>14.0</ele><time>2026-03-29T14:06:13.888Z</time></trkpt><trkpt lat="42.43020146830913" lon="11.120915386222055"><ele>14.0</ele><time>2026-03-29T14:06:14.888Z</time></trkpt><trkpt lat="42.430113904601704" lon="11.120880653308095"><ele>14.0</ele><time>2026-03-29T14:06:15.888Z</time></trkpt><trkpt lat="42.43002875582546" lon="11.120856871053059"><ele>13.999999999999998</ele><time>2026-03-29T14:06:16.888Z</time></trkpt><trkpt lat="42.42994728611679" lon="11.120812348653166"><ele>13.999999999999998</ele><time>2026-03-29T14:06:17.888Z</time></trkpt><trkpt lat="42.42985810770471" lon="11.12077646790148"><ele>14.0</ele><time>2026-03-29T14:06:18.888Z</time></trkpt><trkpt lat="42.42976980212143" lon="11.12074072048133"><ele>14.0</ele><time>2026-03-29T14:06:19.888Z</time></trkpt><trkpt lat="42.42968237298163" lon="11.120701688609326"><ele>14.833333333333334</ele><time>2026-03-29T14:06:20.888Z</time></trkpt><trkpt lat="42.42959382880479" lon="11.120666315299344"><ele>15.666666666666668</ele><time>2026-03-29T14:06:21.888Z</time></trkpt><trkpt lat="42.429511047411985" lon="11.120640431997973"><ele>16.5</ele><time>2026-03-29T14:06:22.888Z</time></trkpt><trkpt lat="42.42941949477408" lon="11.120640549950764"><ele>17.333333333333332</ele><time>2026-03-29T14:06:23.888Z</time></trkpt><trkpt lat="42.429342117849075" lon="11.12062461362459"><ele>18.166666666666664</ele><time>2026-03-29T14:06:24.888Z</time></trkpt><trkpt lat="42.42925396509026" lon="11.120619374591456"><ele>19.0</ele><time>2026-03-29T14:06:25.888Z</time></trkpt><trkpt lat="42.429155675142766" lon="11.120622497842017"><ele>19.0</ele><time>2026-03-29T14:06:26.888Z</time></trkpt><trkpt lat="42.4290476774288" lon="11.12062911209999"><ele>19.0</ele><time>2026-03-29T14:06:27.888Z</time></trkpt><trkpt lat="42.42893315892297" lon="11.120632146274398"><ele>19.0</ele><time>2026-03-29T14:06:28.888Z</time></trkpt><trkpt lat="42.42882571740402" lon="11.120633344384316"><ele>19.0</ele><time>2026-03-29T14:06:29.888Z</time></trkpt><trkpt lat="42.428719179937275" lon="11.120630565655762"><ele>19.0</ele><time>2026-03-29T14:06:30.888Z</time></trkpt><trkpt lat="42.428616380670725" lon="11.120627371237726"><ele>18.0</ele><time>2026-03-29T14:06:31.888Z</time></trkpt><trkpt lat="42.428522317564436" lon="11.120615957928567"><ele>17.0</ele><time>2026-03-29T14:06:32.887Z</time></trkpt><trkpt lat="42.42843248317579" lon="11.120603434418719"><ele>15.999999999999998</ele><time>2026-03-29T14:06:33.887Z</time></trkpt><trkpt lat="42.42834134351696" lon="11.12059315347632"><ele>15.0</ele><time>2026-03-29T14:06:34.887Z</time></trkpt><trkpt lat="42.42824771570718" lon="11.120583289296738"><ele>14.0</ele><time>2026-03-29T14:06:35.887Z</time></trkpt><trkpt lat="42.428154101125436" lon="11.120563421203437"><ele>14.0</ele><time>2026-03-29T14:06:36.887Z</time></trkpt><trkpt lat="42.42806348283048" lon="11.120536954222027"><ele>13.999999999999998</ele><time>2026-03-29T14:06:37.887Z</time></trkpt><trkpt lat="42.42796763585224" lon="11.120507947225056"><ele>13.999999999999998</ele><time>2026-03-29T14:06:38.887Z</time></trkpt><trkpt lat="42.42787682087668" lon="11.120479654596284"><ele>14.0</ele><time>2026-03-29T14:06:39.887Z</time></trkpt><trkpt lat="42.42778699515518" lon="11.120456666130368"><ele>14.0</ele><time>2026-03-29T14:06:40.887Z</time></trkpt><trkpt lat="42.42769638325751" lon="11.12043604017801"><ele>14.399999999999999</ele><time>2026-03-29T14:06:41.887Z</time></trkpt><trkpt lat="42.427598477289656" lon="11.120417188452075"><ele>14.799999999999999</ele><time>2026-03-29T14:06:42.887Z</time></trkpt><trkpt lat="42.42750136340008" lon="11.120390190961778"><ele>15.200000000000001</ele><time>2026-03-29T14:06:43.887Z</time></trkpt><trkpt lat="42.42739337826705" lon="11.12037701580274"><ele>15.600000000000001</ele><time>2026-03-29T14:06:44.887Z</time></trkpt><trkpt lat="42.42728059026722" lon="11.120376837805399"><ele>16.0</ele><time>2026-03-29T14:06:45.887Z</time></trkpt><trkpt lat="42.427162553621095" lon="11.120375765834046"><ele>16.2</ele><time>2026-03-29T14:06:46.887Z</time></trkpt><trkpt lat="42.42704656481759" lon="11.120373024002362"><ele>16.400000000000002</ele><time>2026-03-29T14:06:47.887Z</time></trkpt><trkpt lat="42.426929367253834" lon="11.120368914028406"><ele>16.6</ele><time>2026-03-29T14:06:48.887Z</time></trkpt><trkpt lat="42.4268240778458" lon="11.120360072771806"><ele>16.8</ele><time>2026-03-29T14:06:49.887Z</time></trkpt><trkpt lat="42.426718735127864" lon="11.120323105784346"><ele>17.0</ele><time>2026-03-29T14:06:50.887Z</time></trkpt><trkpt lat="42.42660877609951" lon="11.120294957905152"><ele>17.0</ele><time>2026-03-29T14:06:51.887Z</time></trkpt><trkpt lat="42.426506190381474" lon="11.120260035094445"><ele>17.0</ele><time>2026-03-29T14:06:52.887Z</time></trkpt><trkpt lat="42.426407832509305" lon="11.120226459525503"><ele>17.0</ele><time>2026-03-29T14:06:53.887Z</time></trkpt><trkpt lat="42.426308019695114" lon="11.120194302559263"><ele>17.0</ele><time>2026-03-29T14:06:54.887Z</time></trkpt><trkpt lat="42.42620831501578" lon="11.120155401994964"><ele>17.0</ele><time>2026-03-29T14:06:55.887Z</time></trkpt><trkpt lat="42.42611236583836" lon="11.120100162497986"><ele>17.4</ele><time>2026-03-29T14:06:56.887Z</time></trkpt><trkpt lat="42.426010950024676" lon="11.120055228639174"><ele>17.799999999999997</ele><time>2026-03-29T14:06:57.887Z</time></trkpt><trkpt lat="42.42592045253625" lon="11.120007285856703"><ele>18.2</ele><time>2026-03-29T14:06:58.887Z</time></trkpt><trkpt lat="42.42582039890276" lon="11.119972003348263"><ele>18.599999999999998</ele><time>2026-03-29T14:06:59.887Z</time></trkpt><trkpt lat="42.42571676848206" lon="11.119948499551448"><ele>19.0</ele><time>2026-03-29T14:07:00.887Z</time></trkpt><trkpt lat="42.425604347052484" lon="11.11993789081444"><ele>19.0</ele><time>2026-03-29T14:07:01.887Z</time></trkpt><trkpt lat="42.425493458038765" lon="11.119933793345036"><ele>19.0</ele><time>2026-03-29T14:07:02.887Z</time></trkpt><trkpt lat="42.42538523776264" lon="11.119916625257767"><ele>19.0</ele><time>2026-03-29T14:07:03.887Z</time></trkpt><trkpt lat="42.425279022774795" lon="11.119895497775268"><ele>19.0</ele><time>2026-03-29T14:07:04.887Z</time></trkpt><trkpt lat="42.42517371091463" lon="11.119874935637498"><ele>19.0</ele><time>2026-03-29T14:07:05.887Z</time></trkpt><trkpt lat="42.42507640449611" lon="11.119840882005313"><ele>19.333333333333332</ele><time>2026-03-29T14:07:06.887Z</time></trkpt><trkpt lat="42.42498969892862" lon="11.119807799246006"><ele>19.666666666666664</ele><time>2026-03-29T14:07:07.886Z</time></trkpt><trkpt lat="42.42490428599726" lon="11.119790087992113"><ele>20.0</ele><time>2026-03-29T14:07:09.886Z</time></trkpt><trkpt lat="42.4248392129208" lon="11.119787478013146"><ele>20.333333333333332</ele><time>2026-03-29T14:07:14.886Z</time></trkpt><trkpt lat="42.42474281689462" lon="11.11977032697472"><ele>20.666666666666668</ele><time>2026-03-29T14:07:16.886Z</time></trkpt><trkpt lat="42.42467060829053" lon="11.119749818226925"><ele>21.0</ele><time>2026-03-29T14:07:17.886Z</time></trkpt><trkpt lat="42.42458381163153" lon="11.119729448812896"><ele>22.4</ele><time>2026-03-29T14:07:18.886Z</time></trkpt><trkpt lat="42.42448445730532" lon="11.119708168680091"><ele>23.8</ele><time>2026-03-29T14:07:19.886Z</time></trkpt><trkpt lat="42.4243750840213" lon="11.119700602348662"><ele>25.199999999999996</ele><time>2026-03-29T14:07:20.886Z</time></trkpt><trkpt lat="42.42425996515656" lon="11.11969890333922"><ele>26.599999999999998</ele><time>2026-03-29T14:07:21.886Z</time></trkpt><trkpt lat="42.42413695279017" lon="11.119696072229416"><ele>28.0</ele><time>2026-03-29T14:07:22.886Z</time></trkpt><trkpt lat="42.42401087149057" lon="11.11968637383792"><ele>28.0</ele><time>2026-03-29T14:07:23.886Z</time></trkpt><trkpt lat="42.42387905556055" lon="11.119667590765655"><ele>28.0</ele><time>2026-03-29T14:07:24.886Z</time></trkpt><trkpt lat="42.42374115517829" lon="11.119632540520236"><ele>28.0</ele><time>2026-03-29T14:07:25.886Z</time></trkpt><trkpt lat="42.42360040419272" lon="11.119591414945978"><ele>28.0</ele><time>2026-03-29T14:07:26.886Z</time></trkpt><trkpt lat="42.42346022483099" lon="11.119557545005016"><ele>29.0</ele><time>2026-03-29T14:07:27.886Z</time></trkpt><trkpt lat="42.4233145859526" lon="11.119516507689585"><ele>30.0</ele><time>2026-03-29T14:07:28.886Z</time></trkpt><trkpt lat="42.42316284298806" lon="11.11947317466063"><ele>31.0</ele><time>2026-03-29T14:07:29.886Z</time></trkpt><trkpt lat="42.4230096722863" lon="11.11942433828475"><ele>31.666666666666668</ele><time>2026-03-29T14:07:30.886Z</time></trkpt><trkpt lat="42.42285491706058" lon="11.119375679941745"><ele>32.333333333333336</ele><time>2026-03-29T14:07:31.886Z</time></trkpt><trkpt lat="42.42270836375366" lon="11.11933201803984"><ele>33.0</ele><time>2026-03-29T14:07:32.887Z</time></trkpt><trkpt lat="42.42256963769436" lon="11.11929150634347"><ele>33.0</ele><time>2026-03-29T14:07:33.887Z</time></trkpt><trkpt lat="42.42243103753724" lon="11.119253335250095"><ele>33.0</ele><time>2026-03-29T14:07:34.887Z</time></trkpt><trkpt lat="42.422294747514044" lon="11.119230572524266"><ele>33.0</ele><time>2026-03-29T14:07:35.887Z</time></trkpt><trkpt lat="42.42215624385163" lon="11.119218390606108"><ele>33.0</ele><time>2026-03-29T14:07:36.887Z</time></trkpt><trkpt lat="42.42201442997885" lon="11.119224457566542"><ele>34.0</ele><time>2026-03-29T14:07:37.887Z</time></trkpt><trkpt lat="42.42187746967307" lon="11.119261662769777"><ele>35.0</ele><time>2026-03-29T14:07:38.887Z</time></trkpt><trkpt lat="42.42175285158971" lon="11.119309922538466"><ele>36.0</ele><time>2026-03-29T14:07:39.887Z</time></trkpt><trkpt lat="42.421629966953056" lon="11.119353813745507"><ele>37.0</ele><time>2026-03-29T14:07:40.887Z</time></trkpt><trkpt lat="42.42150270693342" lon="11.11938541638385"><ele>37.0</ele><time>2026-03-29T14:07:41.887Z</time></trkpt><trkpt lat="42.4213788649841" lon="11.119378030697575"><ele>37.0</ele><time>2026-03-29T14:07:42.887Z</time></trkpt><trkpt lat="42.42124287788885" lon="11.119355043909254"><ele>37.0</ele><time>2026-03-29T14:07:43.887Z</time></trkpt><trkpt lat="42.421101131036664" lon="11.119311291873608"><ele>37.0</ele><time>2026-03-29T14:07:44.887Z</time></trkpt><trkpt lat="42.42096913763122" lon="11.119228374826257"><ele>36.0</ele><time>2026-03-29T14:07:45.887Z</time></trkpt><trkpt lat="42.42084440098646" lon="11.119129528246592"><ele>35.0</ele><time>2026-03-29T14:07:46.887Z</time></trkpt><trkpt lat="42.420721209580925" lon="11.119041321239646"><ele>34.0</ele><time>2026-03-29T14:07:47.887Z</time></trkpt><trkpt lat="42.42061571311274" lon="11.118948525593137"><ele>33.0</ele><time>2026-03-29T14:07:48.887Z</time></trkpt><trkpt lat="42.42053298655122" lon="11.118836681785307"><ele>34.75</ele><time>2026-03-29T14:07:49.887Z</time></trkpt><trkpt lat="42.4204648063185" lon="11.118708851750252"><ele>36.5</ele><time>2026-03-29T14:07:50.887Z</time></trkpt><trkpt lat="42.42040067559026" lon="11.118574588939783"><ele>38.25</ele><time>2026-03-29T14:07:51.887Z</time></trkpt><trkpt lat="42.42032708932366" lon="11.118441538239416"><ele>40.0</ele><time>2026-03-29T14:07:52.886Z</time></trkpt><trkpt lat="42.420243389186595" lon="11.118311935630851"><ele>41.25</ele><time>2026-03-29T14:07:53.886Z</time></trkpt><trkpt lat="42.420150084346915" lon="11.118191757325922"><ele>42.5</ele><time>2026-03-29T14:07:54.886Z</time></trkpt><trkpt lat="42.42005947338813" lon="11.118068844638806"><ele>43.75</ele><time>2026-03-29T14:07:55.886Z</time></trkpt><trkpt lat="42.41996852390137" lon="11.1179393460789"><ele>45.0</ele><time>2026-03-29T14:07:56.886Z</time></trkpt><trkpt lat="42.41987726802187" lon="11.117812656873712"><ele>45.0</ele><time>2026-03-29T14:07:57.886Z</time></trkpt><trkpt lat="42.41978505739198" lon="11.117693993679636"><ele>45.0</ele><time>2026-03-29T14:07:58.886Z</time></trkpt><trkpt lat="42.419693664031186" lon="11.117571957383307"><ele>45.0</ele><time>2026-03-29T14:07:59.886Z</time></trkpt><trkpt lat="42.41951431910777" lon="11.117324866737729"><ele>46.75</ele><time>2026-03-29T14:08:01.886Z</time></trkpt><trkpt lat="42.419426668563865" lon="11.117201462242065"><ele>48.5</ele><time>2026-03-29T14:08:02.886Z</time></trkpt><trkpt lat="42.419340441584716" lon="11.117078516734912"><ele>50.25</ele><time>2026-03-29T14:08:03.886Z</time></trkpt><trkpt lat="42.41925292455641" lon="11.116963683929676"><ele>52.0</ele><time>2026-03-29T14:08:04.886Z</time></trkpt><trkpt lat="42.41917112286145" lon="11.116852197463848"><ele>52.0</ele><time>2026-03-29T14:08:05.886Z</time></trkpt><trkpt lat="42.41909111537334" lon="11.116738551846964"><ele>52.0</ele><time>2026-03-29T14:08:06.886Z</time></trkpt><trkpt lat="42.41900788476168" lon="11.11662435513102"><ele>52.0</ele><time>2026-03-29T14:08:07.886Z</time></trkpt><trkpt lat="42.418920141408" lon="11.11650790733257"><ele>52.0</ele><time>2026-03-29T14:08:08.886Z</time></trkpt><trkpt lat="42.41883470250828" lon="11.116394343534365"><ele>53.75</ele><time>2026-03-29T14:08:09.886Z</time></trkpt><trkpt lat="42.41874380049111" lon="11.116288817010208"><ele>55.5</ele><time>2026-03-29T14:08:10.886Z</time></trkpt><trkpt lat="42.41865618709402" lon="11.116182416838644"><ele>57.25</ele><time>2026-03-29T14:08:11.886Z</time></trkpt><trkpt lat="42.41856843289803" lon="11.116081797195907"><ele>59.0</ele><time>2026-03-29T14:08:12.886Z</time></trkpt><trkpt lat="42.41847424233317" lon="11.11598365170614"><ele>59.0</ele><time>2026-03-29T14:08:13.886Z</time></trkpt><trkpt lat="42.418377680098395" lon="11.115888547734134"><ele>59.0</ele><time>2026-03-29T14:08:14.886Z</time></trkpt><trkpt lat="42.41828417074383" lon="11.115787489348072"><ele>59.0</ele><time>2026-03-29T14:08:15.886Z</time></trkpt><trkpt lat="42.41819051375844" lon="11.115675567206853"><ele>59.0</ele><time>2026-03-29T14:08:16.886Z</time></trkpt><trkpt lat="42.41809575152152" lon="11.115554793716688"><ele>59.5</ele><time>2026-03-29T14:08:17.886Z</time></trkpt><trkpt lat="42.41800617994974" lon="11.115427452476482"><ele>60.0</ele><time>2026-03-29T14:08:18.886Z</time></trkpt><trkpt lat="42.41791838956058" lon="11.115299989786504"><ele>60.5</ele><time>2026-03-29T14:08:19.886Z</time></trkpt><trkpt lat="42.41783183985844" lon="11.115174635105701"><ele>61.0</ele><time>2026-03-29T14:08:20.886Z</time></trkpt><trkpt lat="42.417746419496204" lon="11.115050102045648"><ele>62.75</ele><time>2026-03-29T14:08:21.886Z</time></trkpt><trkpt lat="42.41765677978148" lon="11.114930954571282"><ele>64.5</ele><time>2026-03-29T14:08:22.886Z</time></trkpt><trkpt lat="42.417571298501706" lon="11.114811420990112"><ele>66.25</ele><time>2026-03-29T14:08:23.886Z</time></trkpt><trkpt lat="42.417484299775694" lon="11.114692995151856"><ele>68.0</ele><time>2026-03-29T14:08:24.886Z</time></trkpt><trkpt lat="42.41739661944365" lon="11.114573228334528"><ele>69.0</ele><time>2026-03-29T14:08:25.886Z</time></trkpt><trkpt lat="42.41730985044484" lon="11.114460828755783"><ele>70.0</ele><time>2026-03-29T14:08:26.886Z</time></trkpt><trkpt lat="42.41721412102979" lon="11.114365619722868"><ele>71.0</ele><time>2026-03-29T14:08:27.886Z</time></trkpt><trkpt lat="42.41710730056673" lon="11.114283032069222"><ele>72.0</ele><time>2026-03-29T14:08:28.885Z</time></trkpt><trkpt lat="42.41699341063803" lon="11.114214695332254"><ele>74.5</ele><time>2026-03-29T14:08:29.885Z</time></trkpt><trkpt lat="42.41687177355303" lon="11.114152105078484"><ele>77.0</ele><time>2026-03-29T14:08:30.885Z</time></trkpt><trkpt lat="42.41675459105266" lon="11.114087956429975"><ele>79.5</ele><time>2026-03-29T14:08:31.885Z</time></trkpt><trkpt lat="42.41663819147236" lon="11.11402339202741"><ele>82.0</ele><time>2026-03-29T14:08:32.885Z</time></trkpt><trkpt lat="42.41651677204784" lon="11.11396476786598"><ele>84.0</ele><time>2026-03-29T14:08:33.885Z</time></trkpt><trkpt lat="42.416387948678256" lon="11.113925232336248"><ele>86.0</ele><time>2026-03-29T14:08:34.885Z</time></trkpt><trkpt lat="42.416261033862696" lon="11.113890020075795"><ele>88.0</ele><time>2026-03-29T14:08:35.885Z</time></trkpt><trkpt lat="42.41613345940782" lon="11.113860948816821"><ele>90.0</ele><time>2026-03-29T14:08:36.885Z</time></trkpt><trkpt lat="42.41601508163519" lon="11.113811001936297"><ele>93.0</ele><time>2026-03-29T14:08:37.885Z</time></trkpt><trkpt lat="42.415901225682326" lon="11.113733869881466"><ele>96.0</ele><time>2026-03-29T14:08:38.885Z</time></trkpt><trkpt lat="42.41579514454027" lon="11.113640069415917"><ele>99.0</ele><time>2026-03-29T14:08:39.885Z</time></trkpt><trkpt lat="42.415688874622234" lon="11.11355108664417"><ele>102.0</ele><time>2026-03-29T14:08:40.885Z</time></trkpt><trkpt lat="42.41557746193447" lon="11.113463301133633"><ele>101.75</ele><time>2026-03-29T14:08:41.885Z</time></trkpt><trkpt lat="42.41547914032195" lon="11.113350425828921"><ele>101.5</ele><time>2026-03-29T14:08:42.885Z</time></trkpt><trkpt lat="42.41536337419281" lon="11.113270875150635"><ele>101.25</ele><time>2026-03-29T14:08:43.885Z</time></trkpt><trkpt lat="42.41525050007515" lon="11.113190000305941"><ele>101.0</ele><time>2026-03-29T14:08:44.885Z</time></trkpt><trkpt lat="42.41513017774353" lon="11.113125452535888"><ele>106.5</ele><time>2026-03-29T14:08:45.885Z</time></trkpt><trkpt lat="42.41500220458779" lon="11.113078386430105"><ele>112.0</ele><time>2026-03-29T14:08:46.885Z</time></trkpt><trkpt lat="42.41486997224984" lon="11.113036456087112"><ele>117.5</ele><time>2026-03-29T14:08:47.885Z</time></trkpt><trkpt lat="42.41473373921439" lon="11.112998028869391"><ele>123.0</ele><time>2026-03-29T14:08:48.885Z</time></trkpt><trkpt lat="42.414602678247746" lon="11.1129612104944"><ele>124.0</ele><time>2026-03-29T14:08:49.885Z</time></trkpt><trkpt lat="42.41448338694429" lon="11.112925105037942"><ele>125.0</ele><time>2026-03-29T14:08:50.885Z</time></trkpt><trkpt lat="42.414365176609515" lon="11.112877845430999"><ele>126.0</ele><time>2026-03-29T14:08:51.885Z</time></trkpt><trkpt lat="42.41425042101511" lon="11.1128113853014"><ele>127.0</ele><time>2026-03-29T14:08:52.885Z</time></trkpt><trkpt lat="42.41414235318611" lon="11.112719806065162"><ele>127.0</ele><time>2026-03-29T14:08:53.885Z</time></trkpt><trkpt lat="42.41403268183826" lon="11.112628130248764"><ele>127.0</ele><time>2026-03-29T14:08:54.885Z</time></trkpt><trkpt lat="42.413918409936436" lon="11.112559606998634"><ele>127.0</ele><time>2026-03-29T14:08:55.885Z</time></trkpt><trkpt lat="42.4138125477257" lon="11.112520447923753"><ele>127.0</ele><time>2026-03-29T14:08:56.885Z</time></trkpt><trkpt lat="42.41370649635779" lon="11.112517690583637"><ele>127.6</ele><time>2026-03-29T14:08:57.885Z</time></trkpt><trkpt lat="42.41361299199107" lon="11.112545468444488"><ele>128.2</ele><time>2026-03-29T14:08:58.885Z</time></trkpt><trkpt lat="42.413516574525346" lon="11.112597193749778"><ele>128.8</ele><time>2026-03-29T14:08:59.885Z</time></trkpt><trkpt lat="42.413416824501" lon="11.112625140817014"><ele>129.4</ele><time>2026-03-29T14:09:00.885Z</time></trkpt><trkpt lat="42.41331918430578" lon="11.112602765889816"><ele>130.0</ele><time>2026-03-29T14:09:01.885Z</time></trkpt><trkpt lat="42.41321778302987" lon="11.112534379124211"><ele>130.0</ele><time>2026-03-29T14:09:02.885Z</time></trkpt><trkpt lat="42.4131101984843" lon="11.112441797642589"><ele>130.0</ele><time>2026-03-29T14:09:03.885Z</time></trkpt><trkpt lat="42.413003150609356" lon="11.11235806776579"><ele>130.0</ele><time>2026-03-29T14:09:04.884Z</time></trkpt><trkpt lat="42.412893798206284" lon="11.112300696104683"><ele>130.0</ele><time>2026-03-29T14:09:05.884Z</time></trkpt><trkpt lat="42.41279197701849" lon="11.112282933409197"><ele>131.66666666666669</ele><time>2026-03-29T14:09:06.884Z</time></trkpt><trkpt lat="42.41269208597369" lon="11.112309620219255"><ele>133.33333333333334</ele><time>2026-03-29T14:09:07.884Z</time></trkpt><trkpt lat="42.412603940576304" lon="11.11236324153296"><ele>135.0</ele><time>2026-03-29T14:09:08.884Z</time></trkpt><trkpt lat="42.41252733060968" lon="11.11240434721336"><ele>136.66666666666666</ele><time>2026-03-29T14:09:09.884Z</time></trkpt><trkpt lat="42.41245489989545" lon="11.112416192137918"><ele>138.33333333333331</ele><time>2026-03-29T14:09:10.884Z</time></trkpt><trkpt lat="42.41238933505394" lon="11.112387914184449"><ele>140.0</ele><time>2026-03-29T14:09:11.884Z</time></trkpt><trkpt lat="42.41234503337983" lon="11.11231772437731"><ele>144.2</ele><time>2026-03-29T14:09:12.884Z</time></trkpt><trkpt lat="42.412337680576314" lon="11.112223952088641"><ele>148.4</ele><time>2026-03-29T14:09:13.884Z</time></trkpt><trkpt lat="42.41237246915407" lon="11.112131702459966"><ele>152.60000000000002</ele><time>2026-03-29T14:09:14.884Z</time></trkpt><trkpt lat="42.41244205928662" lon="11.11205863212528"><ele>156.8</ele><time>2026-03-29T14:09:15.884Z</time></trkpt><trkpt lat="42.41253536847196" lon="11.111988579772111"><ele>161.0</ele><time>2026-03-29T14:09:16.884Z</time></trkpt><trkpt lat="42.41262636614485" lon="11.111907728865377"><ele>161.0</ele><time>2026-03-29T14:09:17.884Z</time></trkpt><trkpt lat="42.412728219340316" lon="11.111832902404286"><ele>161.0</ele><time>2026-03-29T14:09:18.884Z</time></trkpt><trkpt lat="42.41283503339056" lon="11.111806917868153"><ele>161.0</ele><time>2026-03-29T14:09:19.884Z</time></trkpt><trkpt lat="42.41293959621862" lon="11.111826710423323"><ele>161.0</ele><time>2026-03-29T14:09:20.884Z</time></trkpt><trkpt lat="42.41303118606651" lon="11.111842748740527"><ele>161.0</ele><time>2026-03-29T14:09:21.884Z</time></trkpt><trkpt lat="42.41310443330978" lon="11.111810177953695"><ele>161.5</ele><time>2026-03-29T14:09:22.884Z</time></trkpt><trkpt lat="42.41316775674094" lon="11.111677240699793"><ele>162.0</ele><time>2026-03-29T14:09:24.884Z</time></trkpt><trkpt lat="42.41315531661582" lon="11.111592708682174"><ele>162.5</ele><time>2026-03-29T14:09:25.884Z</time></trkpt><trkpt lat="42.41311116322792" lon="11.111514283425882"><ele>163.0</ele><time>2026-03-29T14:09:26.884Z</time></trkpt><trkpt lat="42.41305048220008" lon="11.111467725068978"><ele>163.5</ele><time>2026-03-29T14:09:27.884Z</time></trkpt><trkpt lat="42.412966835768344" lon="11.111451786998998"><ele>164.0</ele><time>2026-03-29T14:09:28.884Z</time></trkpt><trkpt lat="42.412856953188715" lon="11.111435355613786"><ele>168.0</ele><time>2026-03-29T14:09:29.884Z</time></trkpt><trkpt lat="42.41273470589023" lon="11.111427642067236"><ele>172.0</ele><time>2026-03-29T14:09:30.884Z</time></trkpt><trkpt lat="42.412601646004646" lon="11.111450658356716"><ele>176.0</ele><time>2026-03-29T14:09:31.884Z</time></trkpt><trkpt lat="42.412472086521674" lon="11.111488210869945"><ele>180.0</ele><time>2026-03-29T14:09:32.884Z</time></trkpt><trkpt lat="42.4123447655272" lon="11.111548967208945"><ele>178.0</ele><time>2026-03-29T14:09:33.884Z</time></trkpt><trkpt lat="42.412231532157705" lon="11.111644716615913"><ele>176.0</ele><time>2026-03-29T14:09:34.884Z</time></trkpt><trkpt lat="42.41213945257221" lon="11.111741389772282"><ele>174.0</ele><time>2026-03-29T14:09:35.884Z</time></trkpt><trkpt lat="42.41205615319201" lon="11.111811374679451"><ele>172.0</ele><time>2026-03-29T14:09:36.884Z</time></trkpt><trkpt lat="42.411979706411785" lon="11.11184501626773"><ele>170.0</ele><time>2026-03-29T14:09:37.884Z</time></trkpt><trkpt lat="42.41191361061965" lon="11.11182758819595"><ele>170.0</ele><time>2026-03-29T14:09:38.885Z</time></trkpt><trkpt lat="42.4118552671327" lon="11.111771455492448"><ele>170.0</ele><time>2026-03-29T14:09:39.885Z</time></trkpt><trkpt lat="42.411807340763296" lon="11.111680754829324"><ele>170.0</ele><time>2026-03-29T14:09:40.885Z</time></trkpt><trkpt lat="42.41177219777088" lon="11.111572998204938"><ele>170.0</ele><time>2026-03-29T14:09:41.885Z</time></trkpt><trkpt lat="42.41173121204923" lon="11.111467627074662"><ele>170.0</ele><time>2026-03-29T14:09:42.885Z</time></trkpt><trkpt lat="42.41166928931202" lon="11.111389131062763"><ele>170.0</ele><time>2026-03-29T14:09:43.885Z</time></trkpt><trkpt lat="42.41159301189495" lon="11.11133588146631"><ele>173.2</ele><time>2026-03-29T14:09:44.884Z</time></trkpt><trkpt lat="42.41150473565419" lon="11.111315321293999"><ele>176.4</ele><time>2026-03-29T14:09:45.885Z</time></trkpt><trkpt lat="42.411414030437285" lon="11.11132042936795"><ele>179.60000000000002</ele><time>2026-03-29T14:09:46.885Z</time></trkpt><trkpt lat="42.411326072597944" lon="11.111355966441232"><ele>182.8</ele><time>2026-03-29T14:09:47.885Z</time></trkpt><trkpt lat="42.41122577748843" lon="11.111404246515352"><ele>186.0</ele><time>2026-03-29T14:09:48.885Z</time></trkpt><trkpt lat="42.411132589965476" lon="11.111454245886028"><ele>186.8</ele><time>2026-03-29T14:09:49.885Z</time></trkpt><trkpt lat="42.411047022566365" lon="11.111524671800604"><ele>187.60000000000002</ele><time>2026-03-29T14:09:50.884Z</time></trkpt><trkpt lat="42.41097419711288" lon="11.11162008616212"><ele>188.4</ele><time>2026-03-29T14:09:51.884Z</time></trkpt><trkpt lat="42.4109296893925" lon="11.111766193244355"><ele>189.2</ele><time>2026-03-29T14:09:52.884Z</time></trkpt><trkpt lat="42.41089731804876" lon="11.111926065094343"><ele>190.0</ele><time>2026-03-29T14:09:53.884Z</time></trkpt><trkpt lat="42.41086219433453" lon="11.112084311928474"><ele>190.0</ele><time>2026-03-29T14:09:54.884Z</time></trkpt><trkpt lat="42.41080386239917" lon="11.112238986803987"><ele>190.0</ele><time>2026-03-29T14:09:55.884Z</time></trkpt><trkpt lat="42.410724570348286" lon="11.112397983976667"><ele>190.0</ele><time>2026-03-29T14:09:56.884Z</time></trkpt><trkpt lat="42.41063650838094" lon="11.112557147201954"><ele>190.0</ele><time>2026-03-29T14:09:57.884Z</time></trkpt><trkpt lat="42.410532044196074" lon="11.112712364420567"><ele>197.66666666666669</ele><time>2026-03-29T14:09:58.884Z</time></trkpt><trkpt lat="42.41042499852123" lon="11.11287701210197"><ele>205.33333333333334</ele><time>2026-03-29T14:09:59.884Z</time></trkpt><trkpt lat="42.410323456337345" lon="11.11304567832375"><ele>213.0</ele><time>2026-03-29T14:10:00.884Z</time></trkpt><trkpt lat="42.41022903305877" lon="11.113207006992125"><ele>211.25</ele><time>2026-03-29T14:10:01.884Z</time></trkpt><trkpt lat="42.410143248206154" lon="11.113363530089856"><ele>209.5</ele><time>2026-03-29T14:10:02.884Z</time></trkpt><trkpt lat="42.410067889688605" lon="11.113518655220826"><ele>207.75</ele><time>2026-03-29T14:10:03.884Z</time></trkpt><trkpt lat="42.40999164265009" lon="11.113677833147364"><ele>206.0</ele><time>2026-03-29T14:10:04.884Z</time></trkpt><trkpt lat="42.40990970099665" lon="11.113811380960424"><ele>206.0</ele><time>2026-03-29T14:10:05.887Z</time></trkpt><trkpt lat="42.40981273200018" lon="11.11393221809297"><ele>206.0</ele><time>2026-03-29T14:10:06.889Z</time></trkpt><trkpt lat="42.40970444850036" lon="11.114046615089658"><ele>206.0</ele><time>2026-03-29T14:10:07.891Z</time></trkpt><trkpt lat="42.40959674463979" lon="11.114173335481107"><ele>206.0</ele><time>2026-03-29T14:10:08.893Z</time></trkpt><trkpt lat="42.40950298380368" lon="11.114329402537495"><ele>210.25</ele><time>2026-03-29T14:10:09.895Z</time></trkpt><trkpt lat="42.40943468854365" lon="11.114502864561706"><ele>214.5</ele><time>2026-03-29T14:10:10.897Z</time></trkpt><trkpt lat="42.409361340899416" lon="11.1146695382305"><ele>218.75</ele><time>2026-03-29T14:10:11.899Z</time></trkpt><trkpt lat="42.409311026939704" lon="11.114848345160427"><ele>223.0</ele><time>2026-03-29T14:10:12.9Z</time></trkpt><trkpt lat="42.40927608945205" lon="11.115033114651117"><ele>223.0</ele><time>2026-03-29T14:10:13.902Z</time></trkpt><trkpt lat="42.40923566178265" lon="11.115227284998443"><ele>223.0</ele><time>2026-03-29T14:10:14.903Z</time></trkpt><trkpt lat="42.40917125418573" lon="11.115395321876365"><ele>223.0</ele><time>2026-03-29T14:10:15.905Z</time></trkpt><trkpt lat="42.40913419465519" lon="11.115558463966325"><ele>223.0</ele><time>2026-03-29T14:10:16.906Z</time></trkpt><trkpt lat="42.40906860812508" lon="11.115700443855568"><ele>223.2</ele><time>2026-03-29T14:10:17.907Z</time></trkpt><trkpt lat="42.40896963678712" lon="11.115826256961778"><ele>223.4</ele><time>2026-03-29T14:10:18.908Z</time></trkpt><trkpt lat="42.40888688531677" lon="11.11593327382896"><ele>223.59999999999997</ele><time>2026-03-29T14:10:19.909Z</time></trkpt><trkpt lat="42.408816295925384" lon="11.116022065111952"><ele>223.79999999999998</ele><time>2026-03-29T14:10:20.91Z</time></trkpt><trkpt lat="42.40873849289326" lon="11.116012168893944"><ele>224.0</ele><time>2026-03-29T14:10:21.911Z</time></trkpt><trkpt lat="42.40867484673428" lon="11.115988716343619"><ele>226.25</ele><time>2026-03-29T14:10:22.912Z</time></trkpt><trkpt lat="42.408594900603035" lon="11.115834566520508"><ele>228.5</ele><time>2026-03-29T14:10:24.913Z</time></trkpt><trkpt lat="42.40858880939136" lon="11.115694191126481"><ele>230.75</ele><time>2026-03-29T14:10:25.914Z</time></trkpt><trkpt lat="42.40859541188234" lon="11.115524100015584"><ele>233.0</ele><time>2026-03-29T14:10:26.915Z</time></trkpt><trkpt lat="42.40859280499172" lon="11.115333304973536"><ele>235.0</ele><time>2026-03-29T14:10:27.915Z</time></trkpt><trkpt lat="42.40858876982898" lon="11.115134242237186"><ele>237.0</ele><time>2026-03-29T14:10:28.916Z</time></trkpt><trkpt lat="42.40857446734413" lon="11.114936761587279"><ele>239.0</ele><time>2026-03-29T14:10:29.916Z</time></trkpt><trkpt lat="42.40855742179348" lon="11.114747723095531"><ele>241.0</ele><time>2026-03-29T14:10:30.917Z</time></trkpt><trkpt lat="42.40856280945706" lon="11.114556150572273"><ele>244.5</ele><time>2026-03-29T14:10:31.917Z</time></trkpt><trkpt lat="42.408602037063545" lon="11.114368133966648"><ele>248.0</ele><time>2026-03-29T14:10:32.918Z</time></trkpt><trkpt lat="42.40866159052236" lon="11.114180685990824"><ele>251.5</ele><time>2026-03-29T14:10:33.918Z</time></trkpt><trkpt lat="42.40872231364355" lon="11.113996032412189"><ele>255.0</ele><time>2026-03-29T14:10:34.918Z</time></trkpt><trkpt lat="42.40877193587504" lon="11.113811106951756"><ele>253.25</ele><time>2026-03-29T14:10:35.919Z</time></trkpt><trkpt lat="42.40881992370949" lon="11.113632373383375"><ele>251.5</ele><time>2026-03-29T14:10:36.919Z</time></trkpt><trkpt lat="42.408855829765166" lon="11.11344919987137"><ele>249.75</ele><time>2026-03-29T14:10:37.919Z</time></trkpt><trkpt lat="42.408871924917875" lon="11.11325953822429"><ele>248.0</ele><time>2026-03-29T14:10:38.92Z</time></trkpt><trkpt lat="42.408870992291114" lon="11.113058045354482"><ele>248.0</ele><time>2026-03-29T14:10:39.92Z</time></trkpt><trkpt lat="42.408876043286035" lon="11.112849087397484"><ele>248.0</ele><time>2026-03-29T14:10:40.92Z</time></trkpt><trkpt lat="42.408882127975474" lon="11.112640302462452"><ele>248.0</ele><time>2026-03-29T14:10:41.92Z</time></trkpt><trkpt lat="42.40889482978223" lon="11.112434004310018"><ele>253.0</ele><time>2026-03-29T14:10:42.921Z</time></trkpt><trkpt lat="42.40890734140069" lon="11.112221036538566"><ele>258.0</ele><time>2026-03-29T14:10:43.921Z</time></trkpt><trkpt lat="42.408919515178454" lon="11.112012179620633"><ele>263.0</ele><time>2026-03-29T14:10:44.921Z</time></trkpt><trkpt lat="42.408936368267746" lon="11.111805565229744"><ele>263.0</ele><time>2026-03-29T14:10:45.921Z</time></trkpt><trkpt lat="42.40895692293087" lon="11.111600665162491"><ele>263.0</ele><time>2026-03-29T14:10:46.921Z</time></trkpt><trkpt lat="42.40895344353698" lon="11.11139657216759"><ele>263.0</ele><time>2026-03-29T14:10:47.921Z</time></trkpt><trkpt lat="42.40894544683576" lon="11.111205301046587"><ele>263.0</ele><time>2026-03-29T14:10:48.922Z</time></trkpt><trkpt lat="42.408933055923974" lon="11.111031266534868"><ele>264.5</ele><time>2026-03-29T14:10:49.922Z</time></trkpt><trkpt lat="42.408886421647686" lon="11.110862215495581"><ele>266.0</ele><time>2026-03-29T14:10:50.922Z</time></trkpt><trkpt lat="42.40884678669219" lon="11.110715129620685"><ele>267.5</ele><time>2026-03-29T14:10:51.922Z</time></trkpt><trkpt lat="42.40880743132654" lon="11.110579245736925"><ele>269.0</ele><time>2026-03-29T14:10:52.922Z</time></trkpt><trkpt lat="42.40876108684567" lon="11.110442479820323"><ele>273.75</ele><time>2026-03-29T14:10:53.922Z</time></trkpt><trkpt lat="42.408691673252314" lon="11.110315184646439"><ele>278.5</ele><time>2026-03-29T14:10:54.922Z</time></trkpt><trkpt lat="42.408603855281505" lon="11.110200036176302"><ele>283.25</ele><time>2026-03-29T14:10:55.922Z</time></trkpt><trkpt lat="42.40849716702517" lon="11.110118559228168"><ele>288.0</ele><time>2026-03-29T14:10:56.922Z</time></trkpt><trkpt lat="42.408373922619546" lon="11.110070051776637"><ele>288.0</ele><time>2026-03-29T14:10:57.922Z</time></trkpt><trkpt lat="42.40824492895599" lon="11.110033322627997"><ele>288.0</ele><time>2026-03-29T14:10:58.922Z</time></trkpt><trkpt lat="42.40810932023558" lon="11.109988223430435"><ele>288.0</ele><time>2026-03-29T14:10:59.923Z</time></trkpt><trkpt lat="42.407970931963746" lon="11.10991142894261"><ele>288.0</ele><time>2026-03-29T14:11:00.923Z</time></trkpt><trkpt lat="42.407824932589996" lon="11.109822779593946"><ele>287.6666666666667</ele><time>2026-03-29T14:11:01.923Z</time></trkpt><trkpt lat="42.407681038879744" lon="11.109733827046014"><ele>287.33333333333337</ele><time>2026-03-29T14:11:02.923Z</time></trkpt><trkpt lat="42.40753336364153" lon="11.109642099506308"><ele>287.0</ele><time>2026-03-29T14:11:03.923Z</time></trkpt><trkpt lat="42.407383498686386" lon="11.109562448102382"><ele>287.0</ele><time>2026-03-29T14:11:04.923Z</time></trkpt><trkpt lat="42.407226883007255" lon="11.109506393952929"><ele>287.0</ele><time>2026-03-29T14:11:05.923Z</time></trkpt><trkpt lat="42.40706629411688" lon="11.109464456328114"><ele>287.0</ele><time>2026-03-29T14:11:06.923Z</time></trkpt><trkpt lat="42.40689377878319" lon="11.109441635789489"><ele>292.0</ele><time>2026-03-29T14:11:07.923Z</time></trkpt><trkpt lat="42.406718363958646" lon="11.109425386734019"><ele>297.0</ele><time>2026-03-29T14:11:08.923Z</time></trkpt><trkpt lat="42.40656005318347" lon="11.109407176501756"><ele>302.0</ele><time>2026-03-29T14:11:09.923Z</time></trkpt><trkpt lat="42.40641225940699" lon="11.109401602475636"><ele>305.5</ele><time>2026-03-29T14:11:10.923Z</time></trkpt><trkpt lat="42.40627076489097" lon="11.109394963133816"><ele>309.0</ele><time>2026-03-29T14:11:11.923Z</time></trkpt><trkpt lat="42.406135802939865" lon="11.109454582918183"><ele>312.5</ele><time>2026-03-29T14:11:12.923Z</time></trkpt><trkpt lat="42.406000762662494" lon="11.109503183893484"><ele>316.0</ele><time>2026-03-29T14:11:13.923Z</time></trkpt><trkpt lat="42.40585849992951" lon="11.109545213005893"><ele>316.0</ele><time>2026-03-29T14:11:14.923Z</time></trkpt><trkpt lat="42.40571227012323" lon="11.109577793447972"><ele>316.0</ele><time>2026-03-29T14:11:15.923Z</time></trkpt><trkpt lat="42.405568123711745" lon="11.109587862293733"><ele>316.0</ele><time>2026-03-29T14:11:16.923Z</time></trkpt><trkpt lat="42.40542912288835" lon="11.109554204502748"><ele>316.0</ele><time>2026-03-29T14:11:17.923Z</time></trkpt><trkpt lat="42.40528322911574" lon="11.109552188491326"><ele>318.0</ele><time>2026-03-29T14:11:18.923Z</time></trkpt><trkpt lat="42.40513107627756" lon="11.10952857146157"><ele>320.0</ele><time>2026-03-29T14:11:19.923Z</time></trkpt><trkpt lat="42.404974834908515" lon="11.109514309771576"><ele>322.0</ele><time>2026-03-29T14:11:20.923Z</time></trkpt><trkpt lat="42.40482805479957" lon="11.10950072070551"><ele>322.0</ele><time>2026-03-29T14:11:21.923Z</time></trkpt><trkpt lat="42.40469791065665" lon="11.109488158870056"><ele>322.0</ele><time>2026-03-29T14:11:22.923Z</time></trkpt><trkpt lat="42.404578566802854" lon="11.109498962244833"><ele>322.0</ele><time>2026-03-29T14:11:23.923Z</time></trkpt><trkpt lat="42.40447837458119" lon="11.109539108201155"><ele>322.0</ele><time>2026-03-29T14:11:24.923Z</time></trkpt><trkpt lat="42.40439066503966" lon="11.10961704567664"><ele>323.0</ele><time>2026-03-29T14:11:25.923Z</time></trkpt><trkpt lat="42.40430419650302" lon="11.109724764094851"><ele>324.0</ele><time>2026-03-29T14:11:26.923Z</time></trkpt><trkpt lat="42.404225286926206" lon="11.109839798494875"><ele>325.0</ele><time>2026-03-29T14:11:27.923Z</time></trkpt><trkpt lat="42.404143837205226" lon="11.109971182303564"><ele>326.0</ele><time>2026-03-29T14:11:28.923Z</time></trkpt><trkpt lat="42.40406010620024" lon="11.110105262093885"><ele>326.0</ele><time>2026-03-29T14:11:29.923Z</time></trkpt><trkpt lat="42.403981351228026" lon="11.110215380521794"><ele>326.0</ele><time>2026-03-29T14:11:30.923Z</time></trkpt><trkpt lat="42.403908682345076" lon="11.110319517365284"><ele>326.0</ele><time>2026-03-29T14:11:31.923Z</time></trkpt><trkpt lat="42.4038439240666" lon="11.110407554095337"><ele>326.0</ele><time>2026-03-29T14:11:32.923Z</time></trkpt><trkpt lat="42.403787402136665" lon="11.110484257497003"><ele>326.0</ele><time>2026-03-29T14:11:33.923Z</time></trkpt><trkpt lat="42.40373236895787" lon="11.110538228479546"><ele>327.83333333333337</ele><time>2026-03-29T14:11:34.923Z</time></trkpt><trkpt lat="42.403674046776885" lon="11.110592097698605"><ele>329.6666666666667</ele><time>2026-03-29T14:11:35.923Z</time></trkpt><trkpt lat="42.40361764646411" lon="11.110646675778897"><ele>331.5</ele><time>2026-03-29T14:11:36.923Z</time></trkpt><trkpt lat="42.403550642359036" lon="11.11070730143294"><ele>333.3333333333333</ele><time>2026-03-29T14:11:37.923Z</time></trkpt><trkpt lat="42.40346554289981" lon="11.110783785863076"><ele>335.16666666666663</ele><time>2026-03-29T14:11:38.923Z</time></trkpt><trkpt lat="42.40336276232978" lon="11.11087674509169"><ele>337.0</ele><time>2026-03-29T14:11:39.923Z</time></trkpt><trkpt lat="42.4032395420129" lon="11.110981174230556"><ele>337.0</ele><time>2026-03-29T14:11:40.923Z</time></trkpt><trkpt lat="42.4031133513077" lon="11.111099277015361"><ele>337.0</ele><time>2026-03-29T14:11:41.923Z</time></trkpt><trkpt lat="42.402992890992905" lon="11.111217689048795"><ele>337.0</ele><time>2026-03-29T14:11:42.923Z</time></trkpt><trkpt lat="42.40287191397978" lon="11.111328435853515"><ele>337.0</ele><time>2026-03-29T14:11:43.923Z</time></trkpt><trkpt lat="42.402747636472945" lon="11.111427045153775"><ele>337.0</ele><time>2026-03-29T14:11:44.925Z</time></trkpt><trkpt lat="42.40262767456634" lon="11.111525641887624"><ele>337.0</ele><time>2026-03-29T14:11:45.924Z</time></trkpt><trkpt lat="42.40251224513712" lon="11.111630134167473"><ele>337.0</ele><time>2026-03-29T14:11:46.924Z</time></trkpt><trkpt lat="42.40239110051378" lon="11.111722030003186"><ele>337.0</ele><time>2026-03-29T14:11:47.924Z</time></trkpt><trkpt lat="42.402264359295586" lon="11.111804341363866"><ele>340.75</ele><time>2026-03-29T14:11:48.924Z</time></trkpt><trkpt lat="42.40213665396989" lon="11.11186772304276"><ele>344.5</ele><time>2026-03-29T14:11:49.924Z</time></trkpt><trkpt lat="42.40201623898024" lon="11.111914205933463"><ele>348.25</ele><time>2026-03-29T14:11:50.924Z</time></trkpt><trkpt lat="42.401895737377124" lon="11.111978882165788"><ele>352.0</ele><time>2026-03-29T14:11:51.924Z</time></trkpt><trkpt lat="42.40178162971938" lon="11.112071756547836"><ele>352.0</ele><time>2026-03-29T14:11:52.924Z</time></trkpt><trkpt lat="42.4016711933252" lon="11.11219154194062"><ele>352.0</ele><time>2026-03-29T14:11:53.924Z</time></trkpt><trkpt lat="42.40155580405415" lon="11.112315320707426"><ele>352.0</ele><time>2026-03-29T14:11:54.924Z</time></trkpt><trkpt lat="42.40146784173373" lon="11.11242755889943"><ele>352.0</ele><time>2026-03-29T14:11:55.924Z</time></trkpt><trkpt lat="42.40138304301926" lon="11.11253362528523"><ele>351.0</ele><time>2026-03-29T14:11:56.924Z</time></trkpt><trkpt lat="42.40129701278396" lon="11.112633520218267"><ele>350.0</ele><time>2026-03-29T14:11:57.924Z</time></trkpt><trkpt lat="42.401212979343484" lon="11.112707024763274"><ele>349.0</ele><time>2026-03-29T14:11:58.924Z</time></trkpt><trkpt lat="42.40113066713253" lon="11.112761665744356"><ele>348.0</ele><time>2026-03-29T14:11:59.924Z</time></trkpt><trkpt lat="42.401071318838035" lon="11.112794122289145"><ele>347.0</ele><time>2026-03-29T14:12:00.924Z</time></trkpt><trkpt lat="42.40096349481858" lon="11.112837251732794"><ele>347.0</ele><time>2026-03-29T14:12:02.924Z</time></trkpt><trkpt lat="42.40085012564568" lon="11.112895204125296"><ele>347.0</ele><time>2026-03-29T14:12:04.924Z</time></trkpt><trkpt lat="42.40077379149987" lon="11.112927526911047"><ele>347.0</ele><time>2026-03-29T14:12:05.923Z</time></trkpt><trkpt lat="42.400686714825646" lon="11.112962610731888"><ele>347.0</ele><time>2026-03-29T14:12:06.923Z</time></trkpt><trkpt lat="42.400603241769936" lon="11.113006412502914"><ele>347.0</ele><time>2026-03-29T14:12:07.923Z</time></trkpt><trkpt lat="42.40051900033295" lon="11.113060131496146"><ele>344.20000000000005</ele><time>2026-03-29T14:12:08.923Z</time></trkpt><trkpt lat="42.40043899019023" lon="11.113126676115938"><ele>341.4</ele><time>2026-03-29T14:12:09.923Z</time></trkpt><trkpt lat="42.40035861149622" lon="11.113207555524921"><ele>338.6</ele><time>2026-03-29T14:12:10.923Z</time></trkpt><trkpt lat="42.40028308689734" lon="11.113296257307933"><ele>335.79999999999995</ele><time>2026-03-29T14:12:11.923Z</time></trkpt><trkpt lat="42.400198689398984" lon="11.113376441691237"><ele>333.0</ele><time>2026-03-29T14:12:12.923Z</time></trkpt><trkpt lat="42.40011725244005" lon="11.113462868499782"><ele>333.0</ele><time>2026-03-29T14:12:13.923Z</time></trkpt><trkpt lat="42.40002458489337" lon="11.113539231636372"><ele>333.0</ele><time>2026-03-29T14:12:14.923Z</time></trkpt><trkpt lat="42.399957904977896" lon="11.11365020239343"><ele>333.0</ele><time>2026-03-29T14:12:15.923Z</time></trkpt><trkpt lat="42.399896855825276" lon="11.113767588802254"><ele>333.0</ele><time>2026-03-29T14:12:16.923Z</time></trkpt><trkpt lat="42.399846966112015" lon="11.113893645446144"><ele>333.0</ele><time>2026-03-29T14:12:17.923Z</time></trkpt><trkpt lat="42.3998039846765" lon="11.114033022452169"><ele>335.0</ele><time>2026-03-29T14:12:18.923Z</time></trkpt><trkpt lat="42.39975769150229" lon="11.114175825909296"><ele>337.0</ele><time>2026-03-29T14:12:19.923Z</time></trkpt><trkpt lat="42.39970646734755" lon="11.114322658613055"><ele>339.0</ele><time>2026-03-29T14:12:20.923Z</time></trkpt><trkpt lat="42.39965335686479" lon="11.114464504213721"><ele>341.0</ele><time>2026-03-29T14:12:21.923Z</time></trkpt><trkpt lat="42.39959928703171" lon="11.114610099838284"><ele>336.40000000000003</ele><time>2026-03-29T14:12:22.923Z</time></trkpt><trkpt lat="42.39954728925705" lon="11.114745526750019"><ele>331.8</ele><time>2026-03-29T14:12:23.923Z</time></trkpt><trkpt lat="42.39950195584531" lon="11.114846512018078"><ele>327.20000000000005</ele><time>2026-03-29T14:12:24.923Z</time></trkpt><trkpt lat="42.39945838131648" lon="11.114940667706486"><ele>322.6</ele><time>2026-03-29T14:12:25.923Z</time></trkpt><trkpt lat="42.39940162684676" lon="11.115027667568105"><ele>318.0</ele><time>2026-03-29T14:12:26.923Z</time></trkpt><trkpt lat="42.3993217849999" lon="11.11509886205952"><ele>318.0</ele><time>2026-03-29T14:12:27.923Z</time></trkpt><trkpt lat="42.399238303441656" lon="11.115171250945131"><ele>318.0</ele><time>2026-03-29T14:12:28.923Z</time></trkpt><trkpt lat="42.39915311198908" lon="11.115237643849195"><ele>318.0</ele><time>2026-03-29T14:12:29.923Z</time></trkpt><trkpt lat="42.39906390844599" lon="11.115300938814183"><ele>318.0</ele><time>2026-03-29T14:12:30.923Z</time></trkpt><trkpt lat="42.39897599341454" lon="11.115362413036555"><ele>318.0</ele><time>2026-03-29T14:12:31.923Z</time></trkpt><trkpt lat="42.39888171012457" lon="11.115424817950922"><ele>313.4</ele><time>2026-03-29T14:12:32.923Z</time></trkpt><trkpt lat="42.398779581641755" lon="11.115478934565393"><ele>308.8</ele><time>2026-03-29T14:12:33.923Z</time></trkpt><trkpt lat="42.39867445180186" lon="11.115512089347533"><ele>304.2</ele><time>2026-03-29T14:12:34.923Z</time></trkpt><trkpt lat="42.39856635716163" lon="11.115534505637795"><ele>299.6</ele><time>2026-03-29T14:12:35.923Z</time></trkpt><trkpt lat="42.39845253027664" lon="11.115553463823666"><ele>295.0</ele><time>2026-03-29T14:12:36.923Z</time></trkpt><trkpt lat="42.398336611564964" lon="11.11556076687569"><ele>295.0</ele><time>2026-03-29T14:12:37.923Z</time></trkpt><trkpt lat="42.398222741104135" lon="11.11556626210415"><ele>295.0</ele><time>2026-03-29T14:12:38.923Z</time></trkpt><trkpt lat="42.39810381717614" lon="11.115559989626389"><ele>295.0</ele><time>2026-03-29T14:12:39.923Z</time></trkpt><trkpt lat="42.397978613203854" lon="11.11554416453269"><ele>295.0</ele><time>2026-03-29T14:12:40.923Z</time></trkpt><trkpt lat="42.397853137086756" lon="11.115523417996956"><ele>291.75</ele><time>2026-03-29T14:12:41.923Z</time></trkpt><trkpt lat="42.397727744729366" lon="11.115475214763995"><ele>288.5</ele><time>2026-03-29T14:12:42.923Z</time></trkpt><trkpt lat="42.39760280991099" lon="11.11542338270719"><ele>285.25</ele><time>2026-03-29T14:12:43.923Z</time></trkpt><trkpt lat="42.39748590655114" lon="11.115372900424262"><ele>282.0</ele><time>2026-03-29T14:12:44.923Z</time></trkpt><trkpt lat="42.39736861706594" lon="11.115323143983984"><ele>282.0</ele><time>2026-03-29T14:12:45.923Z</time></trkpt><trkpt lat="42.39725944010806" lon="11.11527789762292"><ele>282.0</ele><time>2026-03-29T14:12:46.923Z</time></trkpt><trkpt lat="42.397142387490604" lon="11.115253341658521"><ele>282.0</ele><time>2026-03-29T14:12:47.923Z</time></trkpt><trkpt lat="42.3970153919782" lon="11.115243227042818"><ele>282.0</ele><time>2026-03-29T14:12:48.923Z</time></trkpt><trkpt lat="42.39688457745402" lon="11.115246222090247"><ele>281.5</ele><time>2026-03-29T14:12:49.923Z</time></trkpt><trkpt lat="42.396752171117704" lon="11.11525552313695"><ele>281.0</ele><time>2026-03-29T14:12:50.923Z</time></trkpt><trkpt lat="42.39661987158927" lon="11.115258078426038"><ele>280.5</ele><time>2026-03-29T14:12:51.923Z</time></trkpt><trkpt lat="42.39648847762453" lon="11.115261317921016"><ele>280.0</ele><time>2026-03-29T14:12:52.923Z</time></trkpt><trkpt lat="42.39635455196275" lon="11.115263798271398"><ele>278.25</ele><time>2026-03-29T14:12:53.923Z</time></trkpt><trkpt lat="42.3962233975838" lon="11.115255008353172"><ele>276.5</ele><time>2026-03-29T14:12:54.923Z</time></trkpt><trkpt lat="42.39609857723125" lon="11.115234985104554"><ele>274.75</ele><time>2026-03-29T14:12:55.923Z</time></trkpt><trkpt lat="42.39599192383644" lon="11.115208813596967"><ele>273.0</ele><time>2026-03-29T14:12:56.923Z</time></trkpt><trkpt lat="42.39588634549971" lon="11.115175845761705"><ele>273.0</ele><time>2026-03-29T14:12:57.922Z</time></trkpt><trkpt lat="42.39578901788781" lon="11.11514814238158"><ele>273.0</ele><time>2026-03-29T14:12:58.922Z</time></trkpt><trkpt lat="42.39570106663482" lon="11.1151345799105"><ele>273.0</ele><time>2026-03-29T14:12:59.922Z</time></trkpt><trkpt lat="42.39561881864875" lon="11.115131162063713"><ele>273.0</ele><time>2026-03-29T14:13:00.922Z</time></trkpt><trkpt lat="42.39554853401386" lon="11.115142234323585"><ele>273.0</ele><time>2026-03-29T14:13:01.922Z</time></trkpt><trkpt lat="42.39545173198867" lon="11.115170063444499"><ele>273.0</ele><time>2026-03-29T14:13:03.922Z</time></trkpt><trkpt lat="42.39538647421193" lon="11.115241190489536"><ele>269.2</ele><time>2026-03-29T14:13:07.922Z</time></trkpt><trkpt lat="42.395365901513394" lon="11.115328722382115"><ele>265.4</ele><time>2026-03-29T14:13:09.922Z</time></trkpt><trkpt lat="42.3953841050178" lon="11.115420695757685"><ele>261.59999999999997</ele><time>2026-03-29T14:13:10.922Z</time></trkpt><trkpt lat="42.3954073039119" lon="11.11560187397521"><ele>257.8</ele><time>2026-03-29T14:13:12.922Z</time></trkpt><trkpt lat="42.39542316089173" lon="11.115718485246012"><ele>254.0</ele><time>2026-03-29T14:13:13.922Z</time></trkpt><trkpt lat="42.39545295428781" lon="11.115840933119127"><ele>254.0</ele><time>2026-03-29T14:13:14.922Z</time></trkpt><trkpt lat="42.39546183051011" lon="11.11597987576356"><ele>253.99999999999997</ele><time>2026-03-29T14:13:15.922Z</time></trkpt><trkpt lat="42.395471353909954" lon="11.116124620939285"><ele>253.99999999999997</ele><time>2026-03-29T14:13:16.922Z</time></trkpt><trkpt lat="42.39545206680234" lon="11.116249208702888"><ele>254.0</ele><time>2026-03-29T14:13:17.922Z</time></trkpt><trkpt lat="42.395443151931126" lon="11.116362785255806"><ele>254.0</ele><time>2026-03-29T14:13:18.922Z</time></trkpt><trkpt lat="42.39543475007056" lon="11.11646502092758"><ele>254.0</ele><time>2026-03-29T14:13:19.922Z</time></trkpt><trkpt lat="42.395375390509045" lon="11.116546816412875"><ele>253.99999999999997</ele><time>2026-03-29T14:13:20.922Z</time></trkpt><trkpt lat="42.395313576725016" lon="11.116638583034343"><ele>253.99999999999997</ele><time>2026-03-29T14:13:21.922Z</time></trkpt><trkpt lat="42.39525631738179" lon="11.116735088128868"><ele>254.0</ele><time>2026-03-29T14:13:22.922Z</time></trkpt><trkpt lat="42.39520148931132" lon="11.116846422163153"><ele>254.0</ele><time>2026-03-29T14:13:23.922Z</time></trkpt><trkpt lat="42.395147606835074" lon="11.116964215241877"><ele>255.0</ele><time>2026-03-29T14:13:24.922Z</time></trkpt><trkpt lat="42.39510337254454" lon="11.117079900583617"><ele>255.99999999999997</ele><time>2026-03-29T14:13:25.922Z</time></trkpt><trkpt lat="42.39505674890754" lon="11.117193439313596"><ele>257.0</ele><time>2026-03-29T14:13:26.922Z</time></trkpt><trkpt lat="42.39499536155826" lon="11.117279679116086"><ele>258.0</ele><time>2026-03-29T14:13:27.922Z</time></trkpt><trkpt lat="42.39494576533122" lon="11.117376630059852"><ele>259.0</ele><time>2026-03-29T14:13:28.922Z</time></trkpt><trkpt lat="42.39489783062852" lon="11.117469581551314"><ele>262.5</ele><time>2026-03-29T14:13:29.922Z</time></trkpt><trkpt lat="42.394853923148574" lon="11.117563245593566"><ele>266.0</ele><time>2026-03-29T14:13:30.922Z</time></trkpt><trkpt lat="42.39480033891168" lon="11.117641218847323"><ele>269.5</ele><time>2026-03-29T14:13:31.922Z</time></trkpt><trkpt lat="42.3947411337152" lon="11.11771222467064"><ele>273.0</ele><time>2026-03-29T14:13:32.922Z</time></trkpt><trkpt lat="42.39467880941626" lon="11.117774416851473"><ele>276.5</ele><time>2026-03-29T14:13:33.922Z</time></trkpt><trkpt lat="42.39461665534972" lon="11.117831558768906"><ele>280.0</ele><time>2026-03-29T14:13:34.922Z</time></trkpt><trkpt lat="42.394550835899274" lon="11.117880828371707"><ele>275.4</ele><time>2026-03-29T14:13:35.922Z</time></trkpt><trkpt lat="42.39449541121465" lon="11.117948361938458"><ele>270.8</ele><time>2026-03-29T14:13:36.922Z</time></trkpt><trkpt lat="42.394449701127" lon="11.11802418566885"><ele>266.2</ele><time>2026-03-29T14:13:37.922Z</time></trkpt><trkpt lat="42.39442240650691" lon="11.118105863626516"><ele>261.6</ele><time>2026-03-29T14:13:38.922Z</time></trkpt><trkpt lat="42.39440740596942" lon="11.118264457366557"><ele>257.0</ele><time>2026-03-29T14:13:40.922Z</time></trkpt><trkpt lat="42.394464872311495" lon="11.118428377896374"><ele>257.0</ele><time>2026-03-29T14:13:42.922Z</time></trkpt><trkpt lat="42.39450529147336" lon="11.118509328950752"><ele>257.0</ele><time>2026-03-29T14:13:43.922Z</time></trkpt><trkpt lat="42.39454988201258" lon="11.118596134637395"><ele>257.0</ele><time>2026-03-29T14:13:44.922Z</time></trkpt><trkpt lat="42.39460537742531" lon="11.118676534558347"><ele>257.0</ele><time>2026-03-29T14:13:45.922Z</time></trkpt><trkpt lat="42.394667442977784" lon="11.118741088218949"><ele>257.0</ele><time>2026-03-29T14:13:46.922Z</time></trkpt><trkpt lat="42.394737088487666" lon="11.11880868092094"><ele>257.0</ele><time>2026-03-29T14:13:47.922Z</time></trkpt><trkpt lat="42.394815173291555" lon="11.118865704490943"><ele>255.8</ele><time>2026-03-29T14:13:48.921Z</time></trkpt><trkpt lat="42.39490238193155" lon="11.118920312491051"><ele>254.6</ele><time>2026-03-29T14:13:49.923Z</time></trkpt><trkpt lat="42.39499006241371" lon="11.11896448297613"><ele>253.40000000000003</ele><time>2026-03-29T14:13:50.924Z</time></trkpt><trkpt lat="42.395083632638546" lon="11.119007866375009"><ele>252.20000000000002</ele><time>2026-03-29T14:13:51.924Z</time></trkpt><trkpt lat="42.39517694699341" lon="11.119049511522588"><ele>251.0</ele><time>2026-03-29T14:13:52.924Z</time></trkpt><trkpt lat="42.39527542404" lon="11.119092657398209"><ele>251.0</ele><time>2026-03-29T14:13:53.923Z</time></trkpt><trkpt lat="42.395378781972695" lon="11.119136243877161"><ele>251.00000000000003</ele><time>2026-03-29T14:13:54.923Z</time></trkpt><trkpt lat="42.3954827548635" lon="11.119173086008253"><ele>251.00000000000003</ele><time>2026-03-29T14:13:55.924Z</time></trkpt><trkpt lat="42.39558659492799" lon="11.119201067976844"><ele>251.0</ele><time>2026-03-29T14:13:56.923Z</time></trkpt><trkpt lat="42.395691248234215" lon="11.119226401572396"><ele>251.0</ele><time>2026-03-29T14:13:57.923Z</time></trkpt><trkpt lat="42.395793533299255" lon="11.119252269500034"><ele>251.20000000000002</ele><time>2026-03-29T14:13:58.923Z</time></trkpt><trkpt lat="42.39589505711557" lon="11.11927147981585"><ele>251.40000000000003</ele><time>2026-03-29T14:13:59.923Z</time></trkpt><trkpt lat="42.39599596904187" lon="11.11928101203141"><ele>251.6</ele><time>2026-03-29T14:14:00.923Z</time></trkpt><trkpt lat="42.39609496980265" lon="11.119276631543958"><ele>251.8</ele><time>2026-03-29T14:14:01.924Z</time></trkpt><trkpt lat="42.39618974285193" lon="11.119252978821272"><ele>252.0</ele><time>2026-03-29T14:14:02.923Z</time></trkpt><trkpt lat="42.39627673503076" lon="11.119210983069873"><ele>252.6</ele><time>2026-03-29T14:14:03.923Z</time></trkpt><trkpt lat="42.39636598313519" lon="11.11916736675615"><ele>253.2</ele><time>2026-03-29T14:14:04.923Z</time></trkpt><trkpt lat="42.39645874466748" lon="11.119130042810093"><ele>253.8</ele><time>2026-03-29T14:14:05.923Z</time></trkpt><trkpt lat="42.39654657718894" lon="11.119090379113649"><ele>254.4</ele><time>2026-03-29T14:14:06.923Z</time></trkpt><trkpt lat="42.39661959478116" lon="11.11907402777444"><ele>255.0</ele><time>2026-03-29T14:14:07.923Z</time></trkpt><trkpt lat="42.39671204830913" lon="11.119053047296186"><ele>255.0</ele><time>2026-03-29T14:14:09.923Z</time></trkpt><trkpt lat="42.39677222500405" lon="11.119143599713677"><ele>255.0</ele><time>2026-03-29T14:14:11.923Z</time></trkpt><trkpt lat="42.396764026381646" lon="11.119232997360923"><ele>255.0</ele><time>2026-03-29T14:14:12.923Z</time></trkpt><trkpt lat="42.39671574307161" lon="11.11932596110363"><ele>255.0</ele><time>2026-03-29T14:14:13.923Z</time></trkpt><trkpt lat="42.39667693314102" lon="11.119445447768522"><ele>255.0</ele><time>2026-03-29T14:14:14.923Z</time></trkpt><trkpt lat="42.3966340083668" lon="11.119586470822734"><ele>255.0</ele><time>2026-03-29T14:14:15.923Z</time></trkpt><trkpt lat="42.396588770360815" lon="11.11973706208083"><ele>255.0</ele><time>2026-03-29T14:14:16.923Z</time></trkpt><trkpt lat="42.39656001430555" lon="11.119888326543595"><ele>255.0</ele><time>2026-03-29T14:14:17.923Z</time></trkpt><trkpt lat="42.39651280871347" lon="11.120017498483056"><ele>255.0</ele><time>2026-03-29T14:14:18.923Z</time></trkpt><trkpt lat="42.39646156224568" lon="11.12013470584739"><ele>255.0</ele><time>2026-03-29T14:14:19.923Z</time></trkpt><trkpt lat="42.396418025264154" lon="11.12023800597502"><ele>255.0</ele><time>2026-03-29T14:14:20.923Z</time></trkpt><trkpt lat="42.39639246374755" lon="11.12034866491009"><ele>256.4</ele><time>2026-03-29T14:14:21.923Z</time></trkpt><trkpt lat="42.396374588988564" lon="11.120469805075798"><ele>257.8</ele><time>2026-03-29T14:14:22.923Z</time></trkpt><trkpt lat="42.39636643895975" lon="11.120589807986674"><ele>259.2</ele><time>2026-03-29T14:14:23.923Z</time></trkpt><trkpt lat="42.39635661343357" lon="11.1206964756461"><ele>260.6</ele><time>2026-03-29T14:14:24.923Z</time></trkpt><trkpt lat="42.39630216802334" lon="11.120811000821242"><ele>262.0</ele><time>2026-03-29T14:14:26.923Z</time></trkpt><trkpt lat="42.39617337920268" lon="11.120826317144866"><ele>259.16666666666663</ele><time>2026-03-29T14:14:28.923Z</time></trkpt><trkpt lat="42.396102759726354" lon="11.12085392993237"><ele>256.3333333333333</ele><time>2026-03-29T14:14:29.923Z</time></trkpt><trkpt lat="42.396024211129806" lon="11.120884851702508"><ele>253.5</ele><time>2026-03-29T14:14:30.923Z</time></trkpt><trkpt lat="42.39595133001091" lon="11.120942783220036"><ele>250.66666666666669</ele><time>2026-03-29T14:14:31.922Z</time></trkpt><trkpt lat="42.395872782735914" lon="11.120984504050275"><ele>247.83333333333334</ele><time>2026-03-29T14:14:32.922Z</time></trkpt><trkpt lat="42.3957919152068" lon="11.12103543593349"><ele>245.0</ele><time>2026-03-29T14:14:33.922Z</time></trkpt><trkpt lat="42.39570952677238" lon="11.121072599079929"><ele>245.00000000000003</ele><time>2026-03-29T14:14:34.922Z</time></trkpt><trkpt lat="42.39564342848904" lon="11.121147977822854"><ele>245.0</ele><time>2026-03-29T14:14:35.922Z</time></trkpt><trkpt lat="42.39556712464757" lon="11.121181385483876"><ele>245.0</ele><time>2026-03-29T14:14:36.922Z</time></trkpt><trkpt lat="42.39550151014622" lon="11.121235814857634"><ele>245.0</ele><time>2026-03-29T14:14:37.922Z</time></trkpt><trkpt lat="42.395445729528646" lon="11.12129063205812"><ele>245.00000000000003</ele><time>2026-03-29T14:14:38.922Z</time></trkpt><trkpt lat="42.395390757325806" lon="11.121361507860291"><ele>245.0</ele><time>2026-03-29T14:14:39.922Z</time></trkpt><trkpt lat="42.39534331481155" lon="11.121455360259178"><ele>245.6</ele><time>2026-03-29T14:14:40.922Z</time></trkpt><trkpt lat="42.395316545305306" lon="11.121553459834866"><ele>246.2</ele><time>2026-03-29T14:14:41.922Z</time></trkpt><trkpt lat="42.395257748078805" lon="11.121687996217904"><ele>246.8</ele><time>2026-03-29T14:14:43.922Z</time></trkpt><trkpt lat="42.39520629767704" lon="11.121861109797093"><ele>247.4</ele><time>2026-03-29T14:14:45.922Z</time></trkpt><trkpt lat="42.39517805050946" lon="11.121961893620353"><ele>248.0</ele><time>2026-03-29T14:14:46.922Z</time></trkpt><trkpt lat="42.39515791250114" lon="11.122047316813548"><ele>248.00000000000003</ele><time>2026-03-29T14:14:47.922Z</time></trkpt><trkpt lat="42.395089616019014" lon="11.122140569651998"><ele>248.0</ele><time>2026-03-29T14:14:49.922Z</time></trkpt><trkpt lat="42.39502756244417" lon="11.122164175164453"><ele>248.0</ele><time>2026-03-29T14:14:50.922Z</time></trkpt><trkpt lat="42.39494855826956" lon="11.122138695366452"><ele>248.0</ele><time>2026-03-29T14:14:51.922Z</time></trkpt><trkpt lat="42.39486802967341" lon="11.12214788410467"><ele>248.00000000000003</ele><time>2026-03-29T14:14:52.922Z</time></trkpt><trkpt lat="42.39479271878794" lon="11.122142684139774"><ele>248.0</ele><time>2026-03-29T14:14:53.922Z</time></trkpt><trkpt lat="42.39471711463819" lon="11.122158309986402"><ele>244.71428571428572</ele><time>2026-03-29T14:14:54.922Z</time></trkpt><trkpt lat="42.394651757888354" lon="11.1222083365704"><ele>241.42857142857144</ele><time>2026-03-29T14:14:55.922Z</time></trkpt><trkpt lat="42.394602398826414" lon="11.122284604153638"><ele>238.14285714285717</ele><time>2026-03-29T14:14:56.922Z</time></trkpt><trkpt lat="42.394551450715355" lon="11.122352097206413"><ele>234.8571428571429</ele><time>2026-03-29T14:14:57.922Z</time></trkpt><trkpt lat="42.39448645280714" lon="11.122364076916432"><ele>231.57142857142858</ele><time>2026-03-29T14:14:58.922Z</time></trkpt><trkpt lat="42.39441933579283" lon="11.12236975940985"><ele>228.28571428571433</ele><time>2026-03-29T14:14:59.922Z</time></trkpt><trkpt lat="42.39434947549356" lon="11.122383578923559"><ele>225.00000000000003</ele><time>2026-03-29T14:15:00.922Z</time></trkpt><trkpt lat="42.39427915229088" lon="11.122358119868679"><ele>225.0</ele><time>2026-03-29T14:15:01.922Z</time></trkpt><trkpt lat="42.39420707294949" lon="11.122353895768276"><ele>225.0</ele><time>2026-03-29T14:15:02.922Z</time></trkpt><trkpt lat="42.39413757726571" lon="11.122355091280536"><ele>225.0</ele><time>2026-03-29T14:15:03.922Z</time></trkpt><trkpt lat="42.39406976378938" lon="11.122368110486173"><ele>225.0</ele><time>2026-03-29T14:15:04.922Z</time></trkpt><trkpt lat="42.39399239392455" lon="11.122456142364479"><ele>225.0</ele><time>2026-03-29T14:15:06.922Z</time></trkpt><trkpt lat="42.3939305187095" lon="11.12257961655763"><ele>225.0</ele><time>2026-03-29T14:15:08.922Z</time></trkpt><trkpt lat="42.393920455368786" lon="11.122682563497557"><ele>229.16666666666666</ele><time>2026-03-29T14:15:09.922Z</time></trkpt><trkpt lat="42.393915511635754" lon="11.122788764918987"><ele>233.33333333333331</ele><time>2026-03-29T14:15:10.922Z</time></trkpt><trkpt lat="42.39395062244201" lon="11.122907839930635"><ele>237.5</ele><time>2026-03-29T14:15:11.922Z</time></trkpt><trkpt lat="42.39394050180801" lon="11.123022809022524"><ele>241.66666666666666</ele><time>2026-03-29T14:15:12.922Z</time></trkpt><trkpt lat="42.39392308260434" lon="11.123137144894716"><ele>245.83333333333331</ele><time>2026-03-29T14:15:13.922Z</time></trkpt><trkpt lat="42.39390011709423" lon="11.123240602110123"><ele>250.0</ele><time>2026-03-29T14:15:14.922Z</time></trkpt><trkpt lat="42.393849894288415" lon="11.12332472156082"><ele>248.14285714285714</ele><time>2026-03-29T14:15:15.922Z</time></trkpt><trkpt lat="42.393813780361164" lon="11.12339933999526"><ele>246.28571428571428</ele><time>2026-03-29T14:15:16.922Z</time></trkpt><trkpt lat="42.3937370473448" lon="11.123497395754411"><ele>244.42857142857142</ele><time>2026-03-29T14:15:18.922Z</time></trkpt><trkpt lat="42.39367272684082" lon="11.123507646990065"><ele>242.57142857142856</ele><time>2026-03-29T14:15:19.922Z</time></trkpt><trkpt lat="42.393603459359525" lon="11.123521224548467"><ele>240.71428571428572</ele><time>2026-03-29T14:15:20.922Z</time></trkpt><trkpt lat="42.39353619758147" lon="11.123554987090872"><ele>238.85714285714283</ele><time>2026-03-29T14:15:21.922Z</time></trkpt><trkpt lat="42.39346985130926" lon="11.123590997562298"><ele>236.99999999999997</ele><time>2026-03-29T14:15:22.921Z</time></trkpt><trkpt lat="42.39340811655116" lon="11.12362100543911"><ele>237.0</ele><time>2026-03-29T14:15:23.921Z</time></trkpt><trkpt lat="42.3933369810034" lon="11.123637424569436"><ele>237.0</ele><time>2026-03-29T14:15:24.921Z</time></trkpt><trkpt lat="42.39327114436384" lon="11.1236585931215"><ele>237.0</ele><time>2026-03-29T14:15:25.921Z</time></trkpt><trkpt lat="42.39314802801744" lon="11.123697409995899"><ele>237.0</ele><time>2026-03-29T14:15:27.921Z</time></trkpt><trkpt lat="42.39303128945087" lon="11.12373361398647"><ele>237.0</ele><time>2026-03-29T14:15:29.921Z</time></trkpt><trkpt lat="42.39296925422" lon="11.123760430916498"><ele>235.83333333333334</ele><time>2026-03-29T14:15:30.921Z</time></trkpt><trkpt lat="42.39290117702192" lon="11.123799776891156"><ele>234.66666666666669</ele><time>2026-03-29T14:15:31.921Z</time></trkpt><trkpt lat="42.39283594091169" lon="11.123843053048535"><ele>233.5</ele><time>2026-03-29T14:15:32.921Z</time></trkpt><trkpt lat="42.39277071346218" lon="11.12389419180133"><ele>232.33333333333334</ele><time>2026-03-29T14:15:33.921Z</time></trkpt><trkpt lat="42.39271858543089" lon="11.123955860737954"><ele>231.16666666666669</ele><time>2026-03-29T14:15:34.921Z</time></trkpt><trkpt lat="42.39267042728748" lon="11.124018034886406"><ele>230.0</ele><time>2026-03-29T14:15:35.921Z</time></trkpt><trkpt lat="42.392612422911405" lon="11.124119106670891"><ele>230.00000000000003</ele><time>2026-03-29T14:15:37.921Z</time></trkpt><trkpt lat="42.3925563847109" lon="11.124171361204867"><ele>230.0</ele><time>2026-03-29T14:15:39.921Z</time></trkpt><trkpt lat="42.39250288407982" lon="11.124068864496936"><ele>230.0</ele><time>2026-03-29T14:15:42.921Z</time></trkpt><trkpt lat="42.3924589453454" lon="11.12392174028169"><ele>230.0</ele><time>2026-03-29T14:15:44.921Z</time></trkpt><trkpt lat="42.39243291921402" lon="11.123819248729657"><ele>230.00000000000003</ele><time>2026-03-29T14:15:45.921Z</time></trkpt><trkpt lat="42.39240586211405" lon="11.123710741499393"><ele>230.0</ele><time>2026-03-29T14:15:46.921Z</time></trkpt><trkpt lat="42.39237418404964" lon="11.12359909322859"><ele>229.16666666666669</ele><time>2026-03-29T14:15:47.921Z</time></trkpt><trkpt lat="42.39234264349419" lon="11.123487779095164"><ele>228.33333333333334</ele><time>2026-03-29T14:15:48.921Z</time></trkpt><trkpt lat="42.39231709249149" lon="11.1233762425551"><ele>227.5</ele><time>2026-03-29T14:15:49.921Z</time></trkpt><trkpt lat="42.39231128995035" lon="11.123288718722554"><ele>226.66666666666669</ele><time>2026-03-29T14:15:50.921Z</time></trkpt><trkpt lat="42.392307010225466" lon="11.12312965651574"><ele>225.83333333333334</ele><time>2026-03-29T14:15:52.921Z</time></trkpt><trkpt lat="42.39225730829116" lon="11.123069503848033"><ele>225.0</ele><time>2026-03-29T14:15:53.921Z</time></trkpt><trkpt lat="42.39217378773995" lon="11.12304790106737"><ele>222.42857142857147</ele><time>2026-03-29T14:15:55.923Z</time></trkpt><trkpt lat="42.392137773417424" lon="11.123122796948472"><ele>219.85714285714286</ele><time>2026-03-29T14:15:56.923Z</time></trkpt><trkpt lat="42.39210708737886" lon="11.123197724542333"><ele>217.2857142857143</ele><time>2026-03-29T14:15:57.923Z</time></trkpt><trkpt lat="42.392058384708655" lon="11.123270777426358"><ele>214.71428571428572</ele><time>2026-03-29T14:15:58.922Z</time></trkpt><trkpt lat="42.39200673730793" lon="11.1233569161707"><ele>212.14285714285717</ele><time>2026-03-29T14:15:59.922Z</time></trkpt><trkpt lat="42.39195034717908" lon="11.12343296351444"><ele>209.57142857142858</ele><time>2026-03-29T14:16:00.922Z</time></trkpt><trkpt lat="42.39189256767886" lon="11.123510146811041"><ele>207.0</ele><time>2026-03-29T14:16:01.922Z</time></trkpt><trkpt lat="42.39183004803413" lon="11.123586741104283"><ele>207.0</ele><time>2026-03-29T14:16:02.923Z</time></trkpt><trkpt lat="42.391768859347735" lon="11.12366720853185"><ele>207.0</ele><time>2026-03-29T14:16:03.923Z</time></trkpt><trkpt lat="42.391709118026824" lon="11.123750547623692"><ele>207.0</ele><time>2026-03-29T14:16:04.922Z</time></trkpt><trkpt lat="42.39165080963762" lon="11.123817369353352"><ele>207.0</ele><time>2026-03-29T14:16:05.922Z</time></trkpt><trkpt lat="42.39159767037364" lon="11.12387780086154"><ele>207.0</ele><time>2026-03-29T14:16:06.922Z</time></trkpt><trkpt lat="42.39156326952642" lon="11.123955361910712"><ele>207.0</ele><time>2026-03-29T14:16:07.922Z</time></trkpt><trkpt lat="42.39153861029729" lon="11.124045473782585"><ele>206.66666666666666</ele><time>2026-03-29T14:16:08.922Z</time></trkpt><trkpt lat="42.39152670780605" lon="11.1241416446002"><ele>206.33333333333331</ele><time>2026-03-29T14:16:09.922Z</time></trkpt><trkpt lat="42.39151749527096" lon="11.124253728628426"><ele>206.0</ele><time>2026-03-29T14:16:10.922Z</time></trkpt><trkpt lat="42.391507041625566" lon="11.124371829410904"><ele>205.66666666666666</ele><time>2026-03-29T14:16:11.922Z</time></trkpt><trkpt lat="42.39149961230018" lon="11.124498082824163"><ele>205.33333333333331</ele><time>2026-03-29T14:16:12.922Z</time></trkpt><trkpt lat="42.391479004354544" lon="11.124627824315636"><ele>205.0</ele><time>2026-03-29T14:16:13.922Z</time></trkpt><trkpt lat="42.39142661152413" lon="11.124743767784048"><ele>205.0</ele><time>2026-03-29T14:16:14.922Z</time></trkpt><trkpt lat="42.391393020402305" lon="11.124880245092733"><ele>205.0</ele><time>2026-03-29T14:16:15.922Z</time></trkpt><trkpt lat="42.39135646174318" lon="11.124996704459681"><ele>205.0</ele><time>2026-03-29T14:16:16.922Z</time></trkpt><trkpt lat="42.39132961140866" lon="11.125101302116287"><ele>205.0</ele><time>2026-03-29T14:16:17.922Z</time></trkpt><trkpt lat="42.391306635557754" lon="11.12519068879136"><ele>205.0</ele><time>2026-03-29T14:16:18.922Z</time></trkpt><trkpt lat="42.3912541654879" lon="11.125343741654731"><ele>201.16666666666666</ele><time>2026-03-29T14:16:20.922Z</time></trkpt><trkpt lat="42.3912154146532" lon="11.125433783788619"><ele>197.33333333333331</ele><time>2026-03-29T14:16:21.922Z</time></trkpt><trkpt lat="42.39116074143253" lon="11.12550557639325"><ele>193.5</ele><time>2026-03-29T14:16:22.922Z</time></trkpt><trkpt lat="42.391113302488215" lon="11.12559067808385"><ele>189.66666666666666</ele><time>2026-03-29T14:16:23.922Z</time></trkpt><trkpt lat="42.391063218304545" lon="11.125680525093738"><ele>185.83333333333331</ele><time>2026-03-29T14:16:24.921Z</time></trkpt><trkpt lat="42.39102224435417" lon="11.125778776264925"><ele>182.0</ele><time>2026-03-29T14:16:25.921Z</time></trkpt><trkpt lat="42.39094749619707" lon="11.125839935091545"><ele>182.0</ele><time>2026-03-29T14:16:26.921Z</time></trkpt><trkpt lat="42.39087375172633" lon="11.12588715602076"><ele>182.0</ele><time>2026-03-29T14:16:27.921Z</time></trkpt><trkpt lat="42.39080217304256" lon="11.125891048508308"><ele>182.0</ele><time>2026-03-29T14:16:28.921Z</time></trkpt><trkpt lat="42.39070675502674" lon="11.125921272061287"><ele>182.0</ele><time>2026-03-29T14:16:29.921Z</time></trkpt><trkpt lat="42.39062774811638" lon="11.12595139577214"><ele>182.0</ele><time>2026-03-29T14:16:30.921Z</time></trkpt><trkpt lat="42.390556705168486" lon="11.126003840473269"><ele>182.0</ele><time>2026-03-29T14:16:31.921Z</time></trkpt><trkpt lat="42.390488785297656" lon="11.126017653672138"><ele>179.0</ele><time>2026-03-29T14:16:32.921Z</time></trkpt><trkpt lat="42.390366834020355" lon="11.126090930611383"><ele>176.0</ele><time>2026-03-29T14:16:34.921Z</time></trkpt><trkpt lat="42.39033397446876" lon="11.126202928421925"><ele>173.0</ele><time>2026-03-29T14:16:35.921Z</time></trkpt><trkpt lat="42.390311393463975" lon="11.126340389816546"><ele>170.0</ele><time>2026-03-29T14:16:37.921Z</time></trkpt><trkpt lat="42.39029055707978" lon="11.126490215384495"><ele>167.0</ele><time>2026-03-29T14:16:39.921Z</time></trkpt><trkpt lat="42.390303418721096" lon="11.126656912584668"><ele>167.0</ele><time>2026-03-29T14:16:41.921Z</time></trkpt><trkpt lat="42.39027449391079" lon="11.126815798331927"><ele>167.0</ele><time>2026-03-29T14:16:43.921Z</time></trkpt><trkpt lat="42.39025699691794" lon="11.126898050875276"><ele>167.0</ele><time>2026-03-29T14:16:44.921Z</time></trkpt><trkpt lat="42.390237938747624" lon="11.12698820562395"><ele>167.0</ele><time>2026-03-29T14:16:45.921Z</time></trkpt><trkpt lat="42.39020422277816" lon="11.12706985345028"><ele>167.0</ele><time>2026-03-29T14:16:46.921Z</time></trkpt><trkpt lat="42.39020324579207" lon="11.127156714237284"><ele>167.0</ele><time>2026-03-29T14:16:47.921Z</time></trkpt><trkpt lat="42.39017193733045" lon="11.1273107289579"><ele>169.0</ele><time>2026-03-29T14:16:49.921Z</time></trkpt><trkpt lat="42.390127919249124" lon="11.127445055663944"><ele>171.0</ele><time>2026-03-29T14:16:51.921Z</time></trkpt><trkpt lat="42.39001725215363" lon="11.127500753651816"><ele>173.0</ele><time>2026-03-29T14:16:53.921Z</time></trkpt><trkpt lat="42.389967144045606" lon="11.127564774585796"><ele>175.0</ele><time>2026-03-29T14:16:54.921Z</time></trkpt><trkpt lat="42.38990528544107" lon="11.127614490790332"><ele>177.0</ele><time>2026-03-29T14:16:55.921Z</time></trkpt><trkpt lat="42.38978624613624" lon="11.127636759288816"><ele>177.0</ele><time>2026-03-29T14:16:57.921Z</time></trkpt><trkpt lat="42.38972478798279" lon="11.127680955866996"><ele>177.0</ele><time>2026-03-29T14:16:58.921Z</time></trkpt><trkpt lat="42.3896620078856" lon="11.127708403430448"><ele>177.0</ele><time>2026-03-29T14:16:59.921Z</time></trkpt><trkpt lat="42.38959892528765" lon="11.127735014581187"><ele>177.0</ele><time>2026-03-29T14:17:00.921Z</time></trkpt><trkpt lat="42.38952938037509" lon="11.12776224216648"><ele>177.0</ele><time>2026-03-29T14:17:01.921Z</time></trkpt><trkpt lat="42.38945689168973" lon="11.12778340341684"><ele>177.0</ele><time>2026-03-29T14:17:02.921Z</time></trkpt><trkpt lat="42.38937983692541" lon="11.127777173579828"><ele>177.0</ele><time>2026-03-29T14:17:03.921Z</time></trkpt><trkpt lat="42.389306100156524" lon="11.127777220577242"><ele>174.42857142857144</ele><time>2026-03-29T14:17:04.921Z</time></trkpt><trkpt lat="42.38923707030922" lon="11.127760467918998"><ele>171.85714285714283</ele><time>2026-03-29T14:17:05.921Z</time></trkpt><trkpt lat="42.38917114516091" lon="11.12774831790738"><ele>169.28571428571428</ele><time>2026-03-29T14:17:06.921Z</time></trkpt><trkpt lat="42.389101280350786" lon="11.127712553831591"><ele>166.71428571428572</ele><time>2026-03-29T14:17:07.921Z</time></trkpt><trkpt lat="42.38903218344941" lon="11.12767461827047"><ele>164.14285714285717</ele><time>2026-03-29T14:17:08.921Z</time></trkpt><trkpt lat="42.3889580442045" lon="11.127639131924143"><ele>161.57142857142856</ele><time>2026-03-29T14:17:09.921Z</time></trkpt><trkpt lat="42.388886869915304" lon="11.127613273848574"><ele>159.0</ele><time>2026-03-29T14:17:10.921Z</time></trkpt><trkpt lat="42.38881103230468" lon="11.127599072980393"><ele>156.5</ele><time>2026-03-29T14:17:11.921Z</time></trkpt><trkpt lat="42.38873737013366" lon="11.127601468182599"><ele>154.0</ele><time>2026-03-29T14:17:12.921Z</time></trkpt><trkpt lat="42.38866273230123" lon="11.127612244973685"><ele>151.5</ele><time>2026-03-29T14:17:13.921Z</time></trkpt><trkpt lat="42.38858481931055" lon="11.127622045002886"><ele>149.0</ele><time>2026-03-29T14:17:14.921Z</time></trkpt><trkpt lat="42.38850894109777" lon="11.127589544162564"><ele>146.5</ele><time>2026-03-29T14:17:15.92Z</time></trkpt><trkpt lat="42.38842800109234" lon="11.127577572178163"><ele>144.0</ele><time>2026-03-29T14:17:16.92Z</time></trkpt><trkpt lat="42.388348846671704" lon="11.12756563252552"><ele>144.0</ele><time>2026-03-29T14:17:17.92Z</time></trkpt><trkpt lat="42.38827707764083" lon="11.127553954712454"><ele>144.0</ele><time>2026-03-29T14:17:18.92Z</time></trkpt><trkpt lat="42.388211370610875" lon="11.127543263275191"><ele>144.0</ele><time>2026-03-29T14:17:19.92Z</time></trkpt><trkpt lat="42.388131127472356" lon="11.127509692390078"><ele>144.0</ele><time>2026-03-29T14:17:21.92Z</time></trkpt><trkpt lat="42.38813587074767" lon="11.127395229235633"><ele>144.0</ele><time>2026-03-29T14:17:24.92Z</time></trkpt><trkpt lat="42.38826008960433" lon="11.127377656259874"><ele>144.0</ele><time>2026-03-29T14:17:26.92Z</time></trkpt><trkpt lat="42.38832693069553" lon="11.12738153016614"><ele>144.0</ele><time>2026-03-29T14:17:27.92Z</time></trkpt><trkpt lat="42.38839422864759" lon="11.1273884792081"><ele>144.0</ele><time>2026-03-29T14:17:28.92Z</time></trkpt><trkpt lat="42.38847050471584" lon="11.127400136404377"><ele>144.0</ele><time>2026-03-29T14:17:29.92Z</time></trkpt><trkpt lat="42.388550164246645" lon="11.127401216801623"><ele>144.0</ele><time>2026-03-29T14:17:30.92Z</time></trkpt><trkpt lat="42.38862903151227" lon="11.127396924836603"><ele>144.0</ele><time>2026-03-29T14:17:31.92Z</time></trkpt><trkpt lat="42.3887109348243" lon="11.127388025239805"><ele>144.0</ele><time>2026-03-29T14:17:32.92Z</time></trkpt><trkpt lat="42.38878514979013" lon="11.127382416285366"><ele>142.66666666666666</ele><time>2026-03-29T14:17:33.92Z</time></trkpt><trkpt lat="42.388858625986366" lon="11.127362510178154"><ele>141.33333333333334</ele><time>2026-03-29T14:17:34.92Z</time></trkpt><trkpt lat="42.38892306016563" lon="11.127260804831105"><ele>140.0</ele><time>2026-03-29T14:17:36.92Z</time></trkpt><trkpt lat="42.388851397652715" lon="11.127140205971179"><ele>138.66666666666669</ele><time>2026-03-29T14:17:38.92Z</time></trkpt><trkpt lat="42.388773974260374" lon="11.127165123193867"><ele>137.33333333333334</ele><time>2026-03-29T14:17:39.92Z</time></trkpt><trkpt lat="42.38870398090099" lon="11.12716270794454"><ele>136.0</ele><time>2026-03-29T14:17:40.92Z</time></trkpt><trkpt lat="42.38863066358226" lon="11.12713530407786"><ele>133.5</ele><time>2026-03-29T14:17:41.92Z</time></trkpt><trkpt lat="42.3885593534459" lon="11.127082852922797"><ele>131.0</ele><time>2026-03-29T14:17:42.92Z</time></trkpt><trkpt lat="42.38849877939676" lon="11.127015756774828"><ele>128.5</ele><time>2026-03-29T14:17:43.92Z</time></trkpt><trkpt lat="42.38844393659864" lon="11.126948558780063"><ele>126.0</ele><time>2026-03-29T14:17:44.92Z</time></trkpt><trkpt lat="42.38839449954296" lon="11.126886431867364"><ele>123.50000000000001</ele><time>2026-03-29T14:17:45.92Z</time></trkpt><trkpt lat="42.38832603800342" lon="11.126783574582518"><ele>121.0</ele><time>2026-03-29T14:17:47.92Z</time></trkpt><trkpt lat="42.38833937199489" lon="11.126683419897535"><ele>121.00000000000001</ele><time>2026-03-29T14:17:49.92Z</time></trkpt><trkpt lat="42.38846344410988" lon="11.126678089802688"><ele>121.0</ele><time>2026-03-29T14:17:51.92Z</time></trkpt><trkpt lat="42.388532266103404" lon="11.12667974463775"><ele>121.0</ele><time>2026-03-29T14:17:52.92Z</time></trkpt><trkpt lat="42.38860821546894" lon="11.126665390238964"><ele>121.0</ele><time>2026-03-29T14:17:53.92Z</time></trkpt><trkpt lat="42.38868104333589" lon="11.126649189609692"><ele>121.00000000000001</ele><time>2026-03-29T14:17:54.92Z</time></trkpt><trkpt lat="42.38876349247968" lon="11.126568532102658"><ele>121.0</ele><time>2026-03-29T14:17:56.92Z</time></trkpt><trkpt lat="42.38870706988114" lon="11.126461464027788"><ele>116.16666666666667</ele><time>2026-03-29T14:17:58.92Z</time></trkpt><trkpt lat="42.388652111005996" lon="11.126397999691461"><ele>111.33333333333334</ele><time>2026-03-29T14:17:59.92Z</time></trkpt><trkpt lat="42.388564678546935" lon="11.126379712208882"><ele>106.5</ele><time>2026-03-29T14:18:00.92Z</time></trkpt><trkpt lat="42.38848596506843" lon="11.126356253721656"><ele>101.66666666666667</ele><time>2026-03-29T14:18:01.921Z</time></trkpt><trkpt lat="42.38841253097814" lon="11.12634038814902"><ele>96.83333333333334</ele><time>2026-03-29T14:18:02.921Z</time></trkpt><trkpt lat="42.388321657346815" lon="11.126261390942007"><ele>92.0</ele><time>2026-03-29T14:18:04.921Z</time></trkpt><trkpt lat="42.38825590667354" lon="11.126201655320765"><ele>92.0</ele><time>2026-03-29T14:18:06.921Z</time></trkpt><trkpt lat="42.38818500496206" lon="11.126196460529766"><ele>92.0</ele><time>2026-03-29T14:18:09.92Z</time></trkpt><trkpt lat="42.38810218684497" lon="11.1262994577892"><ele>92.0</ele><time>2026-03-29T14:18:12.921Z</time></trkpt><trkpt lat="42.388062991329846" lon="11.126453201218276"><ele>92.0</ele><time>2026-03-29T14:18:14.921Z</time></trkpt><trkpt lat="42.38800703180466" lon="11.126591684943094"><ele>92.0</ele><time>2026-03-29T14:18:16.921Z</time></trkpt><trkpt lat="42.38796814073565" lon="11.12665890038758"><ele>92.0</ele><time>2026-03-29T14:18:17.921Z</time></trkpt><trkpt lat="42.387906345349386" lon="11.126700593319127"><ele>92.0</ele><time>2026-03-29T14:18:18.921Z</time></trkpt><trkpt lat="42.38783789891551" lon="11.126738266911145"><ele>92.0</ele><time>2026-03-29T14:18:19.92Z</time></trkpt><trkpt lat="42.38776565328216" lon="11.12678170036067"><ele>92.0</ele><time>2026-03-29T14:18:20.92Z</time></trkpt><trkpt lat="42.38770336677277" lon="11.126831705550737"><ele>92.0</ele><time>2026-03-29T14:18:21.92Z</time></trkpt><trkpt lat="42.3876437471886" lon="11.126896441397111"><ele>92.0</ele><time>2026-03-29T14:18:22.92Z</time></trkpt><trkpt lat="42.387593236775565" lon="11.12698087657108"><ele>92.0</ele><time>2026-03-29T14:18:23.92Z</time></trkpt><trkpt lat="42.38755671760102" lon="11.127082220163697"><ele>92.0</ele><time>2026-03-29T14:18:24.92Z</time></trkpt><trkpt lat="42.387537440616086" lon="11.127201944068927"><ele>92.0</ele><time>2026-03-29T14:18:25.92Z</time></trkpt><trkpt lat="42.3875216221831" lon="11.127322136855994"><ele>92.0</ele><time>2026-03-29T14:18:26.92Z</time></trkpt><trkpt lat="42.387508374459046" lon="11.127442835295003"><ele>92.0</ele><time>2026-03-29T14:18:27.92Z</time></trkpt><trkpt lat="42.38749792738843" lon="11.127558737003133"><ele>92.0</ele><time>2026-03-29T14:18:28.92Z</time></trkpt><trkpt lat="42.38748423552801" lon="11.12767553861902"><ele>94.14285714285715</ele><time>2026-03-29T14:18:29.92Z</time></trkpt><trkpt lat="42.38747796115807" lon="11.127784612793581"><ele>96.28571428571428</ele><time>2026-03-29T14:18:30.92Z</time></trkpt><trkpt lat="42.38748960743306" lon="11.127886755636643"><ele>98.42857142857143</ele><time>2026-03-29T14:18:31.919Z</time></trkpt><trkpt lat="42.38750696787912" lon="11.127982904616786"><ele>100.57142857142858</ele><time>2026-03-29T14:18:32.919Z</time></trkpt><trkpt lat="42.3875174902158" lon="11.128077512517663"><ele>102.71428571428572</ele><time>2026-03-29T14:18:33.919Z</time></trkpt><trkpt lat="42.38751123289539" lon="11.12816718075584"><ele>104.85714285714286</ele><time>2026-03-29T14:18:34.919Z</time></trkpt><trkpt lat="42.38747917493112" lon="11.12825822399175"><ele>107.0</ele><time>2026-03-29T14:18:35.919Z</time></trkpt><trkpt lat="42.38744030672414" lon="11.128354793566661"><ele>107.99999999999999</ele><time>2026-03-29T14:18:36.919Z</time></trkpt><trkpt lat="42.38739683474817" lon="11.128460064806774"><ele>109.0</ele><time>2026-03-29T14:18:37.919Z</time></trkpt><trkpt lat="42.38736964684914" lon="11.128577458760736"><ele>110.0</ele><time>2026-03-29T14:18:38.919Z</time></trkpt><trkpt lat="42.38734715460383" lon="11.128691565949456"><ele>111.0</ele><time>2026-03-29T14:18:39.919Z</time></trkpt><trkpt lat="42.387326407791626" lon="11.128806831418684"><ele>111.99999999999999</ele><time>2026-03-29T14:18:40.919Z</time></trkpt><trkpt lat="42.3872843437636" lon="11.128911572295777"><ele>113.0</ele><time>2026-03-29T14:18:41.919Z</time></trkpt><trkpt lat="42.38723145911981" lon="11.128999932389208"><ele>107.66666666666666</ele><time>2026-03-29T14:18:42.919Z</time></trkpt><trkpt lat="42.38717324382306" lon="11.12908376550735"><ele>102.33333333333333</ele><time>2026-03-29T14:18:43.919Z</time></trkpt><trkpt lat="42.3871226558326" lon="11.129178821924782"><ele>97.0</ele><time>2026-03-29T14:18:44.919Z</time></trkpt><trkpt lat="42.38708294237309" lon="11.129277107751317"><ele>91.66666666666666</ele><time>2026-03-29T14:18:45.919Z</time></trkpt><trkpt lat="42.38705308145468" lon="11.129377969711795"><ele>86.33333333333333</ele><time>2026-03-29T14:18:46.919Z</time></trkpt><trkpt lat="42.38703443615786" lon="11.129482384012295"><ele>81.0</ele><time>2026-03-29T14:18:47.919Z</time></trkpt><trkpt lat="42.38701626909367" lon="11.129584033546188"><ele>81.0</ele><time>2026-03-29T14:18:48.919Z</time></trkpt><trkpt lat="42.38699835407158" lon="11.12967811936764"><ele>81.0</ele><time>2026-03-29T14:18:49.919Z</time></trkpt><trkpt lat="42.38698512523944" lon="11.129772691613473"><ele>81.0</ele><time>2026-03-29T14:18:50.919Z</time></trkpt><trkpt lat="42.38698093143946" lon="11.1298585426024"><ele>81.0</ele><time>2026-03-29T14:18:51.919Z</time></trkpt><trkpt lat="42.38697715667712" lon="11.129950582598509"><ele>81.0</ele><time>2026-03-29T14:18:52.919Z</time></trkpt><trkpt lat="42.38696982306482" lon="11.130044039689574"><ele>81.0</ele><time>2026-03-29T14:18:53.919Z</time></trkpt><trkpt lat="42.38694456504895" lon="11.130132546347646"><ele>81.0</ele><time>2026-03-29T14:18:54.919Z</time></trkpt><trkpt lat="42.38688780947309" lon="11.130194022938104"><ele>81.66666666666667</ele><time>2026-03-29T14:18:55.919Z</time></trkpt><trkpt lat="42.3868359208115" lon="11.13026704820214"><ele>82.33333333333333</ele><time>2026-03-29T14:18:56.919Z</time></trkpt><trkpt lat="42.386800663674634" lon="11.130364968476888"><ele>83.0</ele><time>2026-03-29T14:18:57.919Z</time></trkpt><trkpt lat="42.386743289637735" lon="11.130448810882632"><ele>83.66666666666666</ele><time>2026-03-29T14:18:58.919Z</time></trkpt><trkpt lat="42.38671109615583" lon="11.130565126871629"><ele>84.33333333333333</ele><time>2026-03-29T14:18:59.919Z</time></trkpt><trkpt lat="42.386688287195504" lon="11.130688348735097"><ele>85.0</ele><time>2026-03-29T14:19:00.919Z</time></trkpt><trkpt lat="42.38666651156042" lon="11.130814966713976"><ele>86.6</ele><time>2026-03-29T14:19:01.919Z</time></trkpt><trkpt lat="42.38665260909194" lon="11.130944085352844"><ele>88.2</ele><time>2026-03-29T14:19:02.919Z</time></trkpt><trkpt lat="42.38661805524832" lon="11.13106462070882"><ele>89.80000000000001</ele><time>2026-03-29T14:19:03.919Z</time></trkpt><trkpt lat="42.38657923858895" lon="11.131182928168919"><ele>91.4</ele><time>2026-03-29T14:19:04.919Z</time></trkpt><trkpt lat="42.3865397875541" lon="11.131297180601276"><ele>93.0</ele><time>2026-03-29T14:19:05.919Z</time></trkpt><trkpt lat="42.38648796446017" lon="11.131394123392646"><ele>93.0</ele><time>2026-03-29T14:19:06.919Z</time></trkpt><trkpt lat="42.38643793913358" lon="11.131487743221589"><ele>93.0</ele><time>2026-03-29T14:19:07.919Z</time></trkpt><trkpt lat="42.38637288373303" lon="11.131560117532082"><ele>93.0</ele><time>2026-03-29T14:19:08.919Z</time></trkpt><trkpt lat="42.386293462350196" lon="11.131634019647967"><ele>93.0</ele><time>2026-03-29T14:19:09.919Z</time></trkpt><trkpt lat="42.38621463678126" lon="11.131708218735836"><ele>93.0</ele><time>2026-03-29T14:19:10.919Z</time></trkpt><trkpt lat="42.38615650048916" lon="11.131810281571337"><ele>90.0</ele><time>2026-03-29T14:19:11.919Z</time></trkpt><trkpt lat="42.38609758361531" lon="11.131896391343655"><ele>87.0</ele><time>2026-03-29T14:19:12.919Z</time></trkpt><trkpt lat="42.38603567490066" lon="11.13198878732049"><ele>84.0</ele><time>2026-03-29T14:19:13.919Z</time></trkpt><trkpt lat="42.38597099116973" lon="11.132080513630903"><ele>81.0</ele><time>2026-03-29T14:19:14.919Z</time></trkpt><trkpt lat="42.38589598160108" lon="11.132155671705863"><ele>78.0</ele><time>2026-03-29T14:19:15.919Z</time></trkpt><trkpt lat="42.385816324467214" lon="11.132209503877542"><ele>78.0</ele><time>2026-03-29T14:19:16.919Z</time></trkpt><trkpt lat="42.385726710565436" lon="11.132204082255887"><ele>78.0</ele><time>2026-03-29T14:19:17.919Z</time></trkpt><trkpt lat="42.38564787447786" lon="11.132201405887722"><ele>78.0</ele><time>2026-03-29T14:19:18.919Z</time></trkpt><trkpt lat="42.385564596695495" lon="11.132197390348997"><ele>78.0</ele><time>2026-03-29T14:19:19.919Z</time></trkpt><trkpt lat="42.38548193179896" lon="11.132221499302881"><ele>78.0</ele><time>2026-03-29T14:19:20.919Z</time></trkpt><trkpt lat="42.38542656528235" lon="11.132295358803882"><ele>78.0</ele><time>2026-03-29T14:19:21.919Z</time></trkpt><trkpt lat="42.3853777974695" lon="11.132363318506053"><ele>78.0</ele><time>2026-03-29T14:19:22.918Z</time></trkpt><trkpt lat="42.38533734773357" lon="11.132455664606141"><ele>78.0</ele><time>2026-03-29T14:19:23.918Z</time></trkpt><trkpt lat="42.38528999854286" lon="11.132552372217669"><ele>78.0</ele><time>2026-03-29T14:19:24.918Z</time></trkpt><trkpt lat="42.38522821510127" lon="11.132639022854582"><ele>78.0</ele><time>2026-03-29T14:19:25.918Z</time></trkpt><trkpt lat="42.385163606273444" lon="11.13271079134073"><ele>78.0</ele><time>2026-03-29T14:19:26.918Z</time></trkpt><trkpt lat="42.38510329035664" lon="11.132777220802126"><ele>78.0</ele><time>2026-03-29T14:19:27.918Z</time></trkpt><trkpt lat="42.38505190092622" lon="11.132849161143811"><ele>78.0</ele><time>2026-03-29T14:19:28.918Z</time></trkpt><trkpt lat="42.385008718953856" lon="11.1329242368702"><ele>78.0</ele><time>2026-03-29T14:19:29.918Z</time></trkpt><trkpt lat="42.38497533534612" lon="11.133015562352982"><ele>78.0</ele><time>2026-03-29T14:19:30.918Z</time></trkpt><trkpt lat="42.3849233670378" lon="11.133094499040842"><ele>78.0</ele><time>2026-03-29T14:19:31.918Z</time></trkpt><trkpt lat="42.384883842399326" lon="11.133178989574985"><ele>78.0</ele><time>2026-03-29T14:19:32.918Z</time></trkpt><trkpt lat="42.38484720971102" lon="11.133266120711136"><ele>78.0</ele><time>2026-03-29T14:19:33.918Z</time></trkpt><trkpt lat="42.384778337587605" lon="11.133321551726217"><ele>78.42857142857143</ele><time>2026-03-29T14:19:34.918Z</time></trkpt><trkpt lat="42.38470807196716" lon="11.133378947291996"><ele>78.85714285714285</ele><time>2026-03-29T14:19:35.918Z</time></trkpt><trkpt lat="42.38463915233597" lon="11.133421639194154"><ele>79.28571428571428</ele><time>2026-03-29T14:19:36.918Z</time></trkpt><trkpt lat="42.3845712503615" lon="11.133455949254012"><ele>79.71428571428572</ele><time>2026-03-29T14:19:37.918Z</time></trkpt><trkpt lat="42.38450677580268" lon="11.133485893494175"><ele>80.14285714285714</ele><time>2026-03-29T14:19:38.918Z</time></trkpt><trkpt lat="42.38444577933433" lon="11.13354105842609"><ele>80.57142857142857</ele><time>2026-03-29T14:19:39.918Z</time></trkpt><trkpt lat="42.384373826231226" lon="11.133559483940031"><ele>81.0</ele><time>2026-03-29T14:19:40.918Z</time></trkpt><trkpt lat="42.38430079134455" lon="11.133578434587182"><ele>81.0</ele><time>2026-03-29T14:19:41.918Z</time></trkpt><trkpt lat="42.38422440283305" lon="11.13359619171316"><ele>81.0</ele><time>2026-03-29T14:19:42.918Z</time></trkpt><trkpt lat="42.38414104874424" lon="11.133614263149362"><ele>81.0</ele><time>2026-03-29T14:19:43.918Z</time></trkpt><trkpt lat="42.3840519895275" lon="11.133633947731223"><ele>81.0</ele><time>2026-03-29T14:19:44.918Z</time></trkpt><trkpt lat="42.38396638981425" lon="11.133661828683591"><ele>81.0</ele><time>2026-03-29T14:19:45.918Z</time></trkpt><trkpt lat="42.38387907279388" lon="11.13366467780032"><ele>81.0</ele><time>2026-03-29T14:19:46.918Z</time></trkpt><trkpt lat="42.38379718030496" lon="11.133649003621878"><ele>82.33333333333333</ele><time>2026-03-29T14:19:47.918Z</time></trkpt><trkpt lat="42.38371387203917" lon="11.133600841299085"><ele>83.66666666666667</ele><time>2026-03-29T14:19:48.918Z</time></trkpt><trkpt lat="42.383646099821085" lon="11.133525842210458"><ele>85.0</ele><time>2026-03-29T14:19:49.918Z</time></trkpt><trkpt lat="42.38360780761921" lon="11.133427927766327"><ele>86.33333333333334</ele><time>2026-03-29T14:19:50.918Z</time></trkpt><trkpt lat="42.38355875045567" lon="11.133367065697424"><ele>87.66666666666667</ele><time>2026-03-29T14:19:51.918Z</time></trkpt><trkpt lat="42.3835152962491" lon="11.133292177899914"><ele>89.0</ele><time>2026-03-29T14:19:52.918Z</time></trkpt><trkpt lat="42.383474532094" lon="11.133212291453518"><ele>84.16666666666667</ele><time>2026-03-29T14:19:53.918Z</time></trkpt><trkpt lat="42.38342800421733" lon="11.133130276851004"><ele>79.33333333333334</ele><time>2026-03-29T14:19:54.918Z</time></trkpt><trkpt lat="42.383382142519444" lon="11.133047797380984"><ele>74.5</ele><time>2026-03-29T14:19:55.918Z</time></trkpt><trkpt lat="42.38333194692962" lon="11.132972814026624"><ele>69.66666666666667</ele><time>2026-03-29T14:19:56.918Z</time></trkpt><trkpt lat="42.383279021078174" lon="11.132921851868758"><ele>64.83333333333333</ele><time>2026-03-29T14:19:57.918Z</time></trkpt><trkpt lat="42.38316327333566" lon="11.132879298723084"><ele>60.0</ele><time>2026-03-29T14:19:59.918Z</time></trkpt><trkpt lat="42.38304305377125" lon="11.132945686619802"><ele>59.2</ele><time>2026-03-29T14:20:01.918Z</time></trkpt><trkpt lat="42.382943659856025" lon="11.133032791882105"><ele>58.4</ele><time>2026-03-29T14:20:03.918Z</time></trkpt><trkpt lat="42.38285142627422" lon="11.133112020566365"><ele>57.599999999999994</ele><time>2026-03-29T14:20:05.918Z</time></trkpt><trkpt lat="42.382770380169106" lon="11.13319991795776"><ele>56.8</ele><time>2026-03-29T14:20:07.918Z</time></trkpt><trkpt lat="42.382707756612355" lon="11.133222692331568"><ele>56.0</ele><time>2026-03-29T14:20:08.919Z</time></trkpt><trkpt lat="42.38264284497346" lon="11.133264109300159"><ele>61.16666666666667</ele><time>2026-03-29T14:20:09.919Z</time></trkpt><trkpt lat="42.38256857015006" lon="11.13330754969308"><ele>66.33333333333334</ele><time>2026-03-29T14:20:10.918Z</time></trkpt><trkpt lat="42.38249259117097" lon="11.133362765685726"><ele>71.5</ele><time>2026-03-29T14:20:11.918Z</time></trkpt><trkpt lat="42.382413997907754" lon="11.133422405221722"><ele>76.66666666666667</ele><time>2026-03-29T14:20:12.918Z</time></trkpt><trkpt lat="42.3823353527727" lon="11.133486394426122"><ele>81.83333333333333</ele><time>2026-03-29T14:20:13.918Z</time></trkpt><trkpt lat="42.38226293742204" lon="11.133554704868272"><ele>87.0</ele><time>2026-03-29T14:20:14.918Z</time></trkpt><trkpt lat="42.382193922128884" lon="11.133627942083132"><ele>87.5</ele><time>2026-03-29T14:20:15.918Z</time></trkpt><trkpt lat="42.38212813143605" lon="11.133703410040207"><ele>88.0</ele><time>2026-03-29T14:20:16.918Z</time></trkpt><trkpt lat="42.382063857751106" lon="11.133781987394473"><ele>88.5</ele><time>2026-03-29T14:20:17.918Z</time></trkpt><trkpt lat="42.38200023433546" lon="11.133862703042258"><ele>89.0</ele><time>2026-03-29T14:20:18.918Z</time></trkpt><trkpt lat="42.38193901826965" lon="11.133934592604744"><ele>89.5</ele><time>2026-03-29T14:20:19.918Z</time></trkpt><trkpt lat="42.38188040747085" lon="11.134007612808588"><ele>90.0</ele><time>2026-03-29T14:20:20.918Z</time></trkpt><trkpt lat="42.38182044510936" lon="11.134082205464605"><ele>90.0</ele><time>2026-03-29T14:20:21.918Z</time></trkpt><trkpt lat="42.381765481207836" lon="11.134156065105136"><ele>90.0</ele><time>2026-03-29T14:20:22.918Z</time></trkpt><trkpt lat="42.38170599594794" lon="11.134237635407958"><ele>90.0</ele><time>2026-03-29T14:20:23.918Z</time></trkpt><trkpt lat="42.38164673210783" lon="11.134325962764208"><ele>90.0</ele><time>2026-03-29T14:20:24.918Z</time></trkpt><trkpt lat="42.38158679330163" lon="11.134412717629829"><ele>90.0</ele><time>2026-03-29T14:20:25.918Z</time></trkpt><trkpt lat="42.381529398261506" lon="11.13449287699106"><ele>90.0</ele><time>2026-03-29T14:20:26.918Z</time></trkpt><trkpt lat="42.381486125553195" lon="11.134557798241747"><ele>90.0</ele><time>2026-03-29T14:20:27.918Z</time></trkpt><trkpt lat="42.38141881954094" lon="11.134682809334155"><ele>90.0</ele><time>2026-03-29T14:20:29.918Z</time></trkpt><trkpt lat="42.38136028899602" lon="11.134727806691723"><ele>90.0</ele><time>2026-03-29T14:20:30.918Z</time></trkpt><trkpt lat="42.38131026488534" lon="11.134798007590964"><ele>90.0</ele><time>2026-03-29T14:20:31.918Z</time></trkpt><trkpt lat="42.38125789966061" lon="11.134873593788098"><ele>90.0</ele><time>2026-03-29T14:20:32.918Z</time></trkpt><trkpt lat="42.38120719010316" lon="11.134961944150621"><ele>90.0</ele><time>2026-03-29T14:20:33.918Z</time></trkpt><trkpt lat="42.3811572845364" lon="11.135044398187382"><ele>87.5</ele><time>2026-03-29T14:20:34.918Z</time></trkpt><trkpt lat="42.38110949812058" lon="11.135139797870634"><ele>85.0</ele><time>2026-03-29T14:20:35.918Z</time></trkpt><trkpt lat="42.38105136246778" lon="11.135227273012779"><ele>82.5</ele><time>2026-03-29T14:20:36.918Z</time></trkpt><trkpt lat="42.380989408431724" lon="11.135308479912958"><ele>80.0</ele><time>2026-03-29T14:20:37.918Z</time></trkpt><trkpt lat="42.380931621112694" lon="11.135379005482147"><ele>77.5</ele><time>2026-03-29T14:20:38.918Z</time></trkpt><trkpt lat="42.38086918315066" lon="11.135442788818244"><ele>75.0</ele><time>2026-03-29T14:20:39.918Z</time></trkpt><trkpt lat="42.380804581545924" lon="11.135520971295323"><ele>75.0</ele><time>2026-03-29T14:20:40.918Z</time></trkpt><trkpt lat="42.38073188239566" lon="11.135589133343036"><ele>75.0</ele><time>2026-03-29T14:20:41.918Z</time></trkpt><trkpt lat="42.38065862817178" lon="11.135653168184827"><ele>75.0</ele><time>2026-03-29T14:20:42.918Z</time></trkpt><trkpt lat="42.38059154773156" lon="11.13571612910381"><ele>75.0</ele><time>2026-03-29T14:20:43.918Z</time></trkpt><trkpt lat="42.38052188170979" lon="11.135784528977847"><ele>75.0</ele><time>2026-03-29T14:20:44.918Z</time></trkpt><trkpt lat="42.380452237007574" lon="11.135846866726693"><ele>75.0</ele><time>2026-03-29T14:20:45.918Z</time></trkpt><trkpt lat="42.38038641981341" lon="11.135916050000144"><ele>71.16666666666667</ele><time>2026-03-29T14:20:46.918Z</time></trkpt><trkpt lat="42.38032569958375" lon="11.13598104929336"><ele>67.33333333333333</ele><time>2026-03-29T14:20:47.918Z</time></trkpt><trkpt lat="42.38026209993988" lon="11.136046381414031"><ele>63.5</ele><time>2026-03-29T14:20:48.918Z</time></trkpt><trkpt lat="42.380207777199004" lon="11.136132532162742"><ele>59.666666666666664</ele><time>2026-03-29T14:20:49.918Z</time></trkpt><trkpt lat="42.38016770557235" lon="11.13622090475692"><ele>55.83333333333333</ele><time>2026-03-29T14:20:50.918Z</time></trkpt><trkpt lat="42.380139619598836" lon="11.136317063286315"><ele>52.0</ele><time>2026-03-29T14:20:51.918Z</time></trkpt><trkpt lat="42.38012574641033" lon="11.136409365045262"><ele>51.99999999999999</ele><time>2026-03-29T14:20:52.918Z</time></trkpt><trkpt lat="42.380130838261586" lon="11.136504449612122"><ele>52.0</ele><time>2026-03-29T14:20:53.918Z</time></trkpt><trkpt lat="42.38017144552482" lon="11.136589949807654"><ele>52.0</ele><time>2026-03-29T14:20:54.918Z</time></trkpt><trkpt lat="42.38023118114479" lon="11.136653650196468"><ele>52.0</ele><time>2026-03-29T14:20:55.918Z</time></trkpt><trkpt lat="42.38030112782886" lon="11.136690032150632"><ele>51.99999999999999</ele><time>2026-03-29T14:20:56.918Z</time></trkpt><trkpt lat="42.38038606425176" lon="11.136709913902859"><ele>52.0</ele><time>2026-03-29T14:20:57.918Z</time></trkpt><trkpt lat="42.38047256642074" lon="11.136718096478194"><ele>55.666666666666664</ele><time>2026-03-29T14:20:58.917Z</time></trkpt><trkpt lat="42.38057011171249" lon="11.136725371900967"><ele>59.33333333333333</ele><time>2026-03-29T14:20:59.917Z</time></trkpt><trkpt lat="42.3806632239871" lon="11.136751445532528"><ele>63.0</ele><time>2026-03-29T14:21:00.917Z</time></trkpt><trkpt lat="42.3807507737307" lon="11.136784233149944"><ele>66.66666666666667</ele><time>2026-03-29T14:21:01.917Z</time></trkpt><trkpt lat="42.380833798016106" lon="11.13680602498741"><ele>70.33333333333334</ele><time>2026-03-29T14:21:02.917Z</time></trkpt><trkpt lat="42.380913414234634" lon="11.136820277039133"><ele>74.0</ele><time>2026-03-29T14:21:03.917Z</time></trkpt><trkpt lat="42.38098381248354" lon="11.136821439111891"><ele>74.0</ele><time>2026-03-29T14:21:04.917Z</time></trkpt><trkpt lat="42.38109630724887" lon="11.136813747849802"><ele>74.0</ele><time>2026-03-29T14:21:06.917Z</time></trkpt><trkpt lat="42.381223497890716" lon="11.136808285386936"><ele>74.0</ele><time>2026-03-29T14:21:08.917Z</time></trkpt><trkpt lat="42.381296976706594" lon="11.136813539460176"><ele>74.0</ele><time>2026-03-29T14:21:09.917Z</time></trkpt><trkpt lat="42.38137347753268" lon="11.136814074078659"><ele>74.0</ele><time>2026-03-29T14:21:10.917Z</time></trkpt><trkpt lat="42.38145413179142" lon="11.13681090163355"><ele>73.66666666666667</ele><time>2026-03-29T14:21:11.917Z</time></trkpt><trkpt lat="42.381531576849746" lon="11.136810579476752"><ele>73.33333333333334</ele><time>2026-03-29T14:21:12.917Z</time></trkpt><trkpt lat="42.381612162809326" lon="11.136800347787126"><ele>73.0</ele><time>2026-03-29T14:21:13.917Z</time></trkpt><trkpt lat="42.38169241552862" lon="11.136796532433367"><ele>72.66666666666667</ele><time>2026-03-29T14:21:14.917Z</time></trkpt><trkpt lat="42.38177000286765" lon="11.136822507196634"><ele>72.33333333333333</ele><time>2026-03-29T14:21:15.917Z</time></trkpt><trkpt lat="42.38184252931921" lon="11.13686134354671"><ele>72.0</ele><time>2026-03-29T14:21:16.917Z</time></trkpt><trkpt lat="42.38191153238584" lon="11.13690884026025"><ele>72.0</ele><time>2026-03-29T14:21:17.917Z</time></trkpt><trkpt lat="42.38198095173483" lon="11.13696313526164"><ele>72.0</ele><time>2026-03-29T14:21:18.917Z</time></trkpt><trkpt lat="42.382053805993245" lon="11.137020012323553"><ele>72.0</ele><time>2026-03-29T14:21:19.917Z</time></trkpt><trkpt lat="42.38211986078262" lon="11.137080023951945"><ele>72.0</ele><time>2026-03-29T14:21:20.917Z</time></trkpt><trkpt lat="42.38218360449974" lon="11.137149056005047"><ele>72.0</ele><time>2026-03-29T14:21:21.917Z</time></trkpt><trkpt lat="42.382245545281215" lon="11.13722332730933"><ele>72.0</ele><time>2026-03-29T14:21:22.917Z</time></trkpt><trkpt lat="42.382308525504534" lon="11.1372957440929"><ele>72.4</ele><time>2026-03-29T14:21:23.917Z</time></trkpt><trkpt lat="42.38236256059863" lon="11.137366360861902"><ele>72.80000000000001</ele><time>2026-03-29T14:21:24.917Z</time></trkpt><trkpt lat="42.382412071933906" lon="11.13742804228786"><ele>73.2</ele><time>2026-03-29T14:21:25.917Z</time></trkpt><trkpt lat="42.3824714048082" lon="11.137562048845243"><ele>73.60000000000001</ele><time>2026-03-29T14:21:27.917Z</time></trkpt><trkpt lat="42.38246348369428" lon="11.137682865367918"><ele>74.0</ele><time>2026-03-29T14:21:29.917Z</time></trkpt><trkpt lat="42.38236933858881" lon="11.13776210831465"><ele>72.28571428571429</ele><time>2026-03-29T14:21:31.917Z</time></trkpt><trkpt lat="42.38231050118379" lon="11.137807690068296"><ele>70.57142857142857</ele><time>2026-03-29T14:21:32.917Z</time></trkpt><trkpt lat="42.382242552916715" lon="11.13782088882614"><ele>68.85714285714286</ele><time>2026-03-29T14:21:33.917Z</time></trkpt><trkpt lat="42.382163179738804" lon="11.137827159207083"><ele>67.14285714285714</ele><time>2026-03-29T14:21:34.917Z</time></trkpt><trkpt lat="42.382081315250986" lon="11.137836705294424"><ele>65.42857142857143</ele><time>2026-03-29T14:21:35.917Z</time></trkpt><trkpt lat="42.38200310032692" lon="11.13783076828626"><ele>63.714285714285715</ele><time>2026-03-29T14:21:36.917Z</time></trkpt><trkpt lat="42.38193107636106" lon="11.13783599455293"><ele>62.0</ele><time>2026-03-29T14:21:37.917Z</time></trkpt><trkpt lat="42.38185782362856" lon="11.137853714610928"><ele>60.833333333333336</ele><time>2026-03-29T14:21:38.917Z</time></trkpt><trkpt lat="42.381785608446194" lon="11.13787310054286"><ele>59.66666666666667</ele><time>2026-03-29T14:21:39.917Z</time></trkpt><trkpt lat="42.38171471816648" lon="11.137897283564504"><ele>58.5</ele><time>2026-03-29T14:21:40.917Z</time></trkpt><trkpt lat="42.38164739141752" lon="11.137914876686269"><ele>57.33333333333333</ele><time>2026-03-29T14:21:41.917Z</time></trkpt><trkpt lat="42.38158468385641" lon="11.137939142530481"><ele>56.166666666666664</ele><time>2026-03-29T14:21:42.917Z</time></trkpt><trkpt lat="42.38147839573896" lon="11.137992925323761"><ele>55.0</ele><time>2026-03-29T14:21:44.917Z</time></trkpt><trkpt lat="42.3813739739903" lon="11.138033556663741"><ele>54.0</ele><time>2026-03-29T14:21:46.917Z</time></trkpt><trkpt lat="42.381278819762734" lon="11.138083109697416"><ele>53.0</ele><time>2026-03-29T14:21:48.917Z</time></trkpt><trkpt lat="42.3811768738037" lon="11.138159091771854"><ele>52.0</ele><time>2026-03-29T14:21:50.916Z</time></trkpt><trkpt lat="42.38104225063162" lon="11.138171336509165"><ele>51.0</ele><time>2026-03-29T14:21:52.916Z</time></trkpt><trkpt lat="42.380972909285084" lon="11.138173942086512"><ele>50.0</ele><time>2026-03-29T14:21:53.916Z</time></trkpt><trkpt lat="42.38090490225606" lon="11.138190754447926"><ele>50.00000000000001</ele><time>2026-03-29T14:21:54.916Z</time></trkpt><trkpt lat="42.38083241622351" lon="11.1382125544986"><ele>50.0</ele><time>2026-03-29T14:21:55.916Z</time></trkpt><trkpt lat="42.38075386804969" lon="11.138239464951011"><ele>50.0</ele><time>2026-03-29T14:21:56.916Z</time></trkpt><trkpt lat="42.3806700706115" lon="11.138286575786223"><ele>50.0</ele><time>2026-03-29T14:21:57.916Z</time></trkpt><trkpt lat="42.38058984101924" lon="11.13832249939475"><ele>50.00000000000001</ele><time>2026-03-29T14:21:58.916Z</time></trkpt><trkpt lat="42.380514228723904" lon="11.138342643987547"><ele>50.0</ele><time>2026-03-29T14:21:59.916Z</time></trkpt><trkpt lat="42.38044392338231" lon="11.138404094827646"><ele>48.833333333333336</ele><time>2026-03-29T14:22:00.916Z</time></trkpt><trkpt lat="42.38036201728268" lon="11.138418528617976"><ele>47.66666666666667</ele><time>2026-03-29T14:22:01.916Z</time></trkpt><trkpt lat="42.380270322710736" lon="11.138431482146352"><ele>46.5</ele><time>2026-03-29T14:22:02.916Z</time></trkpt><trkpt lat="42.38017869934595" lon="11.13843232243983"><ele>45.333333333333336</ele><time>2026-03-29T14:22:03.916Z</time></trkpt><trkpt lat="42.38009992597689" lon="11.138426330405348"><ele>44.16666666666667</ele><time>2026-03-29T14:22:04.916Z</time></trkpt><trkpt lat="42.38001665518837" lon="11.138432120476102"><ele>43.0</ele><time>2026-03-29T14:22:05.916Z</time></trkpt><trkpt lat="42.37994288465964" lon="11.138453820705596"><ele>43.0</ele><time>2026-03-29T14:22:06.916Z</time></trkpt><trkpt lat="42.37987323200278" lon="11.13848734211233"><ele>43.0</ele><time>2026-03-29T14:22:07.916Z</time></trkpt><trkpt lat="42.37979388158952" lon="11.138513721958539"><ele>43.0</ele><time>2026-03-29T14:22:08.916Z</time></trkpt><trkpt lat="42.37972456890443" lon="11.138572811288974"><ele>43.0</ele><time>2026-03-29T14:22:09.916Z</time></trkpt><trkpt lat="42.37964956538728" lon="11.138630439548082"><ele>43.0</ele><time>2026-03-29T14:22:10.916Z</time></trkpt><trkpt lat="42.379570883367116" lon="11.13869067240129"><ele>43.0</ele><time>2026-03-29T14:22:11.916Z</time></trkpt><trkpt lat="42.379490345517524" lon="11.138753378683726"><ele>43.599999999999994</ele><time>2026-03-29T14:22:12.916Z</time></trkpt><trkpt lat="42.37941581626685" lon="11.138821355705177"><ele>44.199999999999996</ele><time>2026-03-29T14:22:13.917Z</time></trkpt><trkpt lat="42.379339796207205" lon="11.138898226265628"><ele>44.8</ele><time>2026-03-29T14:22:14.917Z</time></trkpt><trkpt lat="42.379260761045906" lon="11.138974548745539"><ele>45.4</ele><time>2026-03-29T14:22:15.917Z</time></trkpt><trkpt lat="42.37918331610791" lon="11.13905147585547"><ele>46.0</ele><time>2026-03-29T14:22:16.917Z</time></trkpt><trkpt lat="42.37910627782887" lon="11.139128697408497"><ele>46.0</ele><time>2026-03-29T14:22:17.917Z</time></trkpt><trkpt lat="42.37902792586967" lon="11.139206932380608"><ele>46.0</ele><time>2026-03-29T14:22:18.917Z</time></trkpt><trkpt lat="42.37895206626741" lon="11.139291997015818"><ele>46.0</ele><time>2026-03-29T14:22:19.916Z</time></trkpt><trkpt lat="42.37888675613571" lon="11.139369464576653"><ele>46.0</ele><time>2026-03-29T14:22:20.916Z</time></trkpt><trkpt lat="42.37882302266859" lon="11.139447713978024"><ele>46.0</ele><time>2026-03-29T14:22:21.916Z</time></trkpt><trkpt lat="42.3787727317892" lon="11.139525529772266"><ele>46.0</ele><time>2026-03-29T14:22:22.917Z</time></trkpt><trkpt lat="42.37873209033955" lon="11.139591265569862"><ele>43.5</ele><time>2026-03-29T14:22:23.917Z</time></trkpt><trkpt lat="42.378703763719834" lon="11.13968854677688"><ele>41.0</ele><time>2026-03-29T14:22:24.917Z</time></trkpt><trkpt lat="42.378690748951" lon="11.139780682157474"><ele>38.5</ele><time>2026-03-29T14:22:25.917Z</time></trkpt><trkpt lat="42.3786912171457" lon="11.139870499276485"><ele>36.0</ele><time>2026-03-29T14:22:26.916Z</time></trkpt><trkpt lat="42.37868461283461" lon="11.140039100460708"><ele>33.5</ele><time>2026-03-29T14:22:28.916Z</time></trkpt><trkpt lat="42.378721479111185" lon="11.14012829456405"><ele>31.0</ele><time>2026-03-29T14:22:29.916Z</time></trkpt><trkpt lat="42.37879105068447" lon="11.140188360444803"><ele>34.66666666666667</ele><time>2026-03-29T14:22:30.916Z</time></trkpt><trkpt lat="42.37887175938119" lon="11.140200490817456"><ele>38.333333333333336</ele><time>2026-03-29T14:22:31.916Z</time></trkpt><trkpt lat="42.378957606933106" lon="11.140221589962573"><ele>42.0</ele><time>2026-03-29T14:22:32.916Z</time></trkpt><trkpt lat="42.379044076367144" lon="11.140217876920591"><ele>45.66666666666667</ele><time>2026-03-29T14:22:33.916Z</time></trkpt><trkpt lat="42.37914132012671" lon="11.140228432467042"><ele>49.333333333333336</ele><time>2026-03-29T14:22:34.916Z</time></trkpt><trkpt lat="42.37923504937761" lon="11.140253370020865"><ele>53.0</ele><time>2026-03-29T14:22:35.916Z</time></trkpt><trkpt lat="42.37932329700067" lon="11.140291331388667"><ele>53.0</ele><time>2026-03-29T14:22:36.916Z</time></trkpt><trkpt lat="42.37942393159889" lon="11.140350333372062"><ele>53.0</ele><time>2026-03-29T14:22:37.916Z</time></trkpt><trkpt lat="42.37951142002462" lon="11.140416311072851"><ele>53.0</ele><time>2026-03-29T14:22:38.916Z</time></trkpt><trkpt lat="42.37959462772219" lon="11.140491219688393"><ele>53.0</ele><time>2026-03-29T14:22:39.916Z</time></trkpt><trkpt lat="42.37968116330663" lon="11.140548303582609"><ele>53.0</ele><time>2026-03-29T14:22:40.916Z</time></trkpt><trkpt lat="42.3797633850548" lon="11.140608487417337"><ele>52.00000000000001</ele><time>2026-03-29T14:22:41.916Z</time></trkpt><trkpt lat="42.379845882906395" lon="11.140661393812866"><ele>51.0</ele><time>2026-03-29T14:22:42.916Z</time></trkpt><trkpt lat="42.379916314049545" lon="11.14071889310374"><ele>50.0</ele><time>2026-03-29T14:22:43.916Z</time></trkpt><trkpt lat="42.379985126605874" lon="11.140762364258224"><ele>49.0</ele><time>2026-03-29T14:22:44.916Z</time></trkpt><trkpt lat="42.38006824317717" lon="11.140799513449844"><ele>48.0</ele><time>2026-03-29T14:22:45.916Z</time></trkpt><trkpt lat="42.380156079667394" lon="11.140825624260513"><ele>47.0</ele><time>2026-03-29T14:22:46.916Z</time></trkpt><trkpt lat="42.38025188709893" lon="11.140848146195585"><ele>47.0</ele><time>2026-03-29T14:22:47.916Z</time></trkpt><trkpt lat="42.380351996044844" lon="11.140853172312077"><ele>47.0</ele><time>2026-03-29T14:22:48.916Z</time></trkpt><trkpt lat="42.380451606840886" lon="11.140848636213077"><ele>47.0</ele><time>2026-03-29T14:22:49.916Z</time></trkpt><trkpt lat="42.38054684102854" lon="11.14083267263622"><ele>47.0</ele><time>2026-03-29T14:22:50.916Z</time></trkpt><trkpt lat="42.380640672155856" lon="11.140822346773472"><ele>47.0</ele><time>2026-03-29T14:22:51.916Z</time></trkpt><trkpt lat="42.38073280733191" lon="11.14082429604125"><ele>47.0</ele><time>2026-03-29T14:22:52.916Z</time></trkpt><trkpt lat="42.38080586600425" lon="11.140826526320692"><ele>47.0</ele><time>2026-03-29T14:22:53.916Z</time></trkpt><trkpt lat="42.38087620386789" lon="11.140846768099772"><ele>47.0</ele><time>2026-03-29T14:22:54.916Z</time></trkpt><trkpt lat="42.38094347639289" lon="11.14087485939603"><ele>47.0</ele><time>2026-03-29T14:22:55.916Z</time></trkpt><trkpt lat="42.38100590193696" lon="11.140916144274293"><ele>47.0</ele><time>2026-03-29T14:22:56.916Z</time></trkpt><trkpt lat="42.38107334831281" lon="11.140966835725655"><ele>47.0</ele><time>2026-03-29T14:22:57.916Z</time></trkpt><trkpt lat="42.38114194801745" lon="11.141023980987296"><ele>47.0</ele><time>2026-03-29T14:22:58.916Z</time></trkpt><trkpt lat="42.381200805537325" lon="11.141060941599484"><ele>47.0</ele><time>2026-03-29T14:22:59.916Z</time></trkpt><trkpt lat="42.38133491104208" lon="11.141120748414403"><ele>47.0</ele><time>2026-03-29T14:23:01.916Z</time></trkpt><trkpt lat="42.381410895578526" lon="11.141136324685478"><ele>47.0</ele><time>2026-03-29T14:23:02.916Z</time></trkpt><trkpt lat="42.38149775430906" lon="11.14114270213022"><ele>47.0</ele><time>2026-03-29T14:23:03.916Z</time></trkpt><trkpt lat="42.38159216117541" lon="11.14115952097799"><ele>47.0</ele><time>2026-03-29T14:23:04.916Z</time></trkpt><trkpt lat="42.381672483939354" lon="11.141172803988535"><ele>49.0</ele><time>2026-03-29T14:23:05.916Z</time></trkpt><trkpt lat="42.38175350845986" lon="11.141192586394778"><ele>51.0</ele><time>2026-03-29T14:23:06.916Z</time></trkpt><trkpt lat="42.3818359823154" lon="11.141228433076249"><ele>53.0</ele><time>2026-03-29T14:23:07.916Z</time></trkpt><trkpt lat="42.3819116434081" lon="11.141280207265307"><ele>55.0</ele><time>2026-03-29T14:23:08.916Z</time></trkpt><trkpt lat="42.38199114115491" lon="11.141358016248082"><ele>57.0</ele><time>2026-03-29T14:23:09.916Z</time></trkpt><trkpt lat="42.38206915870955" lon="11.141442542537058"><ele>57.0</ele><time>2026-03-29T14:23:10.916Z</time></trkpt><trkpt lat="42.38213789202795" lon="11.141526092254587"><ele>57.0</ele><time>2026-03-29T14:23:11.916Z</time></trkpt><trkpt lat="42.3822093690291" lon="11.141614500294432"><ele>57.0</ele><time>2026-03-29T14:23:12.916Z</time></trkpt><trkpt lat="42.38227899235357" lon="11.141719043782102"><ele>57.0</ele><time>2026-03-29T14:23:13.916Z</time></trkpt><trkpt lat="42.38234797934372" lon="11.141819318651915"><ele>57.0</ele><time>2026-03-29T14:23:14.916Z</time></trkpt><trkpt lat="42.38240524370964" lon="11.141922445388605"><ele>57.666666666666664</ele><time>2026-03-29T14:23:15.915Z</time></trkpt><trkpt lat="42.38245821558101" lon="11.142026757047894"><ele>58.33333333333333</ele><time>2026-03-29T14:23:16.915Z</time></trkpt><trkpt lat="42.382524186077625" lon="11.142125508168334"><ele>59.0</ele><time>2026-03-29T14:23:17.915Z</time></trkpt><trkpt lat="42.38259560387033" lon="11.142200912214394"><ele>59.666666666666664</ele><time>2026-03-29T14:23:18.915Z</time></trkpt><trkpt lat="42.382659235439526" lon="11.142255321470667"><ele>60.33333333333333</ele><time>2026-03-29T14:23:19.915Z</time></trkpt><trkpt lat="42.38272999194462" lon="11.142292636589048"><ele>61.0</ele><time>2026-03-29T14:23:20.915Z</time></trkpt><trkpt lat="42.382804668484816" lon="11.142319717363016"><ele>61.0</ele><time>2026-03-29T14:23:21.915Z</time></trkpt><trkpt lat="42.382891602876406" lon="11.14234548112143"><ele>60.99999999999999</ele><time>2026-03-29T14:23:22.915Z</time></trkpt><trkpt lat="42.38297708880688" lon="11.142333000262992"><ele>60.99999999999999</ele><time>2026-03-29T14:23:23.915Z</time></trkpt><trkpt lat="42.383066313519876" lon="11.14229738878105"><ele>61.0</ele><time>2026-03-29T14:23:24.915Z</time></trkpt><trkpt lat="42.38315256974155" lon="11.142260240778285"><ele>61.0</ele><time>2026-03-29T14:23:25.915Z</time></trkpt><trkpt lat="42.38325294689053" lon="11.142229340049555"><ele>63.199999999999996</ele><time>2026-03-29T14:23:26.915Z</time></trkpt><trkpt lat="42.38334490728019" lon="11.142180745552583"><ele>65.39999999999999</ele><time>2026-03-29T14:23:27.915Z</time></trkpt><trkpt lat="42.38343312814718" lon="11.142128523726061"><ele>67.6</ele><time>2026-03-29T14:23:28.915Z</time></trkpt><trkpt lat="42.383524129546075" lon="11.142067713641417"><ele>69.8</ele><time>2026-03-29T14:23:29.915Z</time></trkpt><trkpt lat="42.3836118607394" lon="11.142021901544592"><ele>72.0</ele><time>2026-03-29T14:23:30.915Z</time></trkpt><trkpt lat="42.383708486858595" lon="11.141991620711929"><ele>72.0</ele><time>2026-03-29T14:23:31.915Z</time></trkpt><trkpt lat="42.383803985619444" lon="11.141968983247649"><ele>72.0</ele><time>2026-03-29T14:23:32.915Z</time></trkpt><trkpt lat="42.38391480540642" lon="11.141964466668778"><ele>72.0</ele><time>2026-03-29T14:23:33.915Z</time></trkpt><trkpt lat="42.384029234417" lon="11.141961576629477"><ele>72.0</ele><time>2026-03-29T14:23:34.915Z</time></trkpt><trkpt lat="42.38413585789687" lon="11.141970012878751"><ele>72.0</ele><time>2026-03-29T14:23:35.915Z</time></trkpt><trkpt lat="42.38423685682553" lon="11.141955766041978"><ele>70.0</ele><time>2026-03-29T14:23:36.915Z</time></trkpt><trkpt lat="42.38434394127636" lon="11.141923006894995"><ele>68.0</ele><time>2026-03-29T14:23:37.915Z</time></trkpt><trkpt lat="42.38445331927245" lon="11.141876021959998"><ele>66.0</ele><time>2026-03-29T14:23:38.915Z</time></trkpt><trkpt lat="42.384568833091265" lon="11.141828992475839"><ele>64.0</ele><time>2026-03-29T14:23:39.915Z</time></trkpt><trkpt lat="42.384672345485875" lon="11.141790577239355"><ele>63.83333333333333</ele><time>2026-03-29T14:23:40.915Z</time></trkpt><trkpt lat="42.38476857825384" lon="11.141767183635885"><ele>63.666666666666664</ele><time>2026-03-29T14:23:41.915Z</time></trkpt><trkpt lat="42.38485802387206" lon="11.141750170630091"><ele>63.5</ele><time>2026-03-29T14:23:42.915Z</time></trkpt><trkpt lat="42.384947703295296" lon="11.141745583667541"><ele>63.33333333333333</ele><time>2026-03-29T14:23:43.915Z</time></trkpt><trkpt lat="42.38502857582349" lon="11.141747167439977"><ele>63.166666666666664</ele><time>2026-03-29T14:23:44.915Z</time></trkpt><trkpt lat="42.38510723655885" lon="11.141769140665936"><ele>63.0</ele><time>2026-03-29T14:23:45.915Z</time></trkpt><trkpt lat="42.38518817408962" lon="11.141811162519767"><ele>63.0</ele><time>2026-03-29T14:23:46.915Z</time></trkpt><trkpt lat="42.3852754241951" lon="11.141846586588057"><ele>63.0</ele><time>2026-03-29T14:23:47.915Z</time></trkpt><trkpt lat="42.38536845505633" lon="11.141880329062266"><ele>63.0</ele><time>2026-03-29T14:23:48.915Z</time></trkpt><trkpt lat="42.38546495517204" lon="11.141923872565192"><ele>63.0</ele><time>2026-03-29T14:23:49.915Z</time></trkpt><trkpt lat="42.38556462851106" lon="11.141963405615567"><ele>63.0</ele><time>2026-03-29T14:23:50.915Z</time></trkpt><trkpt lat="42.3856520196831" lon="11.142014666599588"><ele>62.0</ele><time>2026-03-29T14:23:51.915Z</time></trkpt><trkpt lat="42.38572874583788" lon="11.142068486968181"><ele>61.0</ele><time>2026-03-29T14:23:52.915Z</time></trkpt><trkpt lat="42.38579254139574" lon="11.142112882646225"><ele>60.0</ele><time>2026-03-29T14:23:53.915Z</time></trkpt><trkpt lat="42.38585704004995" lon="11.142198734318441"><ele>59.0</ele><time>2026-03-29T14:23:55.915Z</time></trkpt><trkpt lat="42.385889855329786" lon="11.142331058675754"><ele>58.0</ele><time>2026-03-29T14:23:57.915Z</time></trkpt><trkpt lat="42.38589146360081" lon="11.142424254987441"><ele>57.0</ele><time>2026-03-29T14:23:58.915Z</time></trkpt><trkpt lat="42.38586654869437" lon="11.142523121608987"><ele>57.0</ele><time>2026-03-29T14:23:59.915Z</time></trkpt><trkpt lat="42.38587117461219" lon="11.142635443144167"><ele>57.0</ele><time>2026-03-29T14:24:00.915Z</time></trkpt><trkpt lat="42.385861117044044" lon="11.142758037469115"><ele>57.0</ele><time>2026-03-29T14:24:01.915Z</time></trkpt><trkpt lat="42.385851546495765" lon="11.142882725914756"><ele>57.0</ele><time>2026-03-29T14:24:02.915Z</time></trkpt><trkpt lat="42.385854798869254" lon="11.143006389266546"><ele>57.0</ele><time>2026-03-29T14:24:03.915Z</time></trkpt><trkpt lat="42.385878472477096" lon="11.143128934193552"><ele>60.0</ele><time>2026-03-29T14:24:04.915Z</time></trkpt><trkpt lat="42.385916496802274" lon="11.143242712856473"><ele>63.0</ele><time>2026-03-29T14:24:05.914Z</time></trkpt><trkpt lat="42.385953678220304" lon="11.143354512935886"><ele>66.0</ele><time>2026-03-29T14:24:06.914Z</time></trkpt><trkpt lat="42.3860009147701" lon="11.143467849445521"><ele>69.0</ele><time>2026-03-29T14:24:07.914Z</time></trkpt><trkpt lat="42.38605088544482" lon="11.143566535239763"><ele>72.0</ele><time>2026-03-29T14:24:08.914Z</time></trkpt><trkpt lat="42.38610657181568" lon="11.143671977233641"><ele>72.0</ele><time>2026-03-29T14:24:09.914Z</time></trkpt><trkpt lat="42.38616422212132" lon="11.143781878438904"><ele>72.0</ele><time>2026-03-29T14:24:10.914Z</time></trkpt><trkpt lat="42.38621501858085" lon="11.143902784463098"><ele>72.0</ele><time>2026-03-29T14:24:11.914Z</time></trkpt><trkpt lat="42.386267758997576" lon="11.144026985389827"><ele>72.0</ele><time>2026-03-29T14:24:12.914Z</time></trkpt><trkpt lat="42.38631903944656" lon="11.144146105607915"><ele>72.0</ele><time>2026-03-29T14:24:13.914Z</time></trkpt><trkpt lat="42.38637488645671" lon="11.144263956958405"><ele>73.16666666666667</ele><time>2026-03-29T14:24:14.914Z</time></trkpt><trkpt lat="42.38643247230458" lon="11.144377313518353"><ele>74.33333333333333</ele><time>2026-03-29T14:24:15.914Z</time></trkpt><trkpt lat="42.38645020217134" lon="11.144496000162276"><ele>75.5</ele><time>2026-03-29T14:24:16.914Z</time></trkpt><trkpt lat="42.386443801339645" lon="11.144609356714348"><ele>76.66666666666666</ele><time>2026-03-29T14:24:17.914Z</time></trkpt><trkpt lat="42.38642948261592" lon="11.144714687193222"><ele>77.83333333333333</ele><time>2026-03-29T14:24:18.914Z</time></trkpt><trkpt lat="42.38640184620558" lon="11.144826222327467"><ele>79.0</ele><time>2026-03-29T14:24:19.915Z</time></trkpt><trkpt lat="42.38637360113297" lon="11.144931300039596"><ele>80.0</ele><time>2026-03-29T14:24:20.915Z</time></trkpt><trkpt lat="42.38635568222714" lon="11.145017388125265"><ele>81.0</ele><time>2026-03-29T14:24:21.915Z</time></trkpt><trkpt lat="42.386324979993226" lon="11.14515023565484"><ele>82.0</ele><time>2026-03-29T14:24:23.915Z</time></trkpt><trkpt lat="42.3862423460409" lon="11.145133445423609"><ele>83.0</ele><time>2026-03-29T14:24:25.916Z</time></trkpt><trkpt lat="42.38618453861194" lon="11.14509227558238"><ele>84.0</ele><time>2026-03-29T14:24:26.915Z</time></trkpt><trkpt lat="42.38611553524223" lon="11.145029983561395"><ele>85.0</ele><time>2026-03-29T14:24:27.915Z</time></trkpt><trkpt lat="42.386046955387364" lon="11.144944909125442"><ele>86.6</ele><time>2026-03-29T14:24:28.916Z</time></trkpt><trkpt lat="42.38597908871947" lon="11.144837947684774"><ele>88.2</ele><time>2026-03-29T14:24:29.915Z</time></trkpt><trkpt lat="42.38591067318544" lon="11.144722023211262"><ele>89.80000000000001</ele><time>2026-03-29T14:24:30.915Z</time></trkpt><trkpt lat="42.38584021203487" lon="11.14460286337287"><ele>91.4</ele><time>2026-03-29T14:24:31.915Z</time></trkpt><trkpt lat="42.3858026559443" lon="11.144461006644436"><ele>93.0</ele><time>2026-03-29T14:24:32.916Z</time></trkpt><trkpt lat="42.385793298592645" lon="11.144320942902072"><ele>93.0</ele><time>2026-03-29T14:24:33.916Z</time></trkpt><trkpt lat="42.385753901774365" lon="11.144201842260337"><ele>93.0</ele><time>2026-03-29T14:24:34.916Z</time></trkpt><trkpt lat="42.38569040170489" lon="11.144101825556385"><ele>93.0</ele><time>2026-03-29T14:24:35.916Z</time></trkpt><trkpt lat="42.385618651131985" lon="11.14400568054694"><ele>93.0</ele><time>2026-03-29T14:24:36.916Z</time></trkpt><trkpt lat="42.38553919378963" lon="11.143910736285497"><ele>93.0</ele><time>2026-03-29T14:24:37.915Z</time></trkpt><trkpt lat="42.38545662482602" lon="11.143818353046981"><ele>91.4</ele><time>2026-03-29T14:24:38.915Z</time></trkpt><trkpt lat="42.38538265299155" lon="11.143751317840456"><ele>89.80000000000001</ele><time>2026-03-29T14:24:39.915Z</time></trkpt><trkpt lat="42.38528836544433" lon="11.14371096760143"><ele>88.2</ele><time>2026-03-29T14:24:40.915Z</time></trkpt><trkpt lat="42.38519361236245" lon="11.143711534731194"><ele>86.6</ele><time>2026-03-29T14:24:41.915Z</time></trkpt><trkpt lat="42.38508940083653" lon="11.143737664295934"><ele>85.0</ele><time>2026-03-29T14:24:42.915Z</time></trkpt><trkpt lat="42.38498969140977" lon="11.143773581135926"><ele>85.0</ele><time>2026-03-29T14:24:43.915Z</time></trkpt><trkpt lat="42.384891138014616" lon="11.143809950334482"><ele>85.0</ele><time>2026-03-29T14:24:44.915Z</time></trkpt><trkpt lat="42.38478794871437" lon="11.143869184094262"><ele>85.0</ele><time>2026-03-29T14:24:45.915Z</time></trkpt><trkpt lat="42.38467502471763" lon="11.14389897897084"><ele>85.0</ele><time>2026-03-29T14:24:46.915Z</time></trkpt><trkpt lat="42.38455984623765" lon="11.143937902430697"><ele>85.0</ele><time>2026-03-29T14:24:47.915Z</time></trkpt><trkpt lat="42.38444339792738" lon="11.143983557966678"><ele>83.2</ele><time>2026-03-29T14:24:48.915Z</time></trkpt><trkpt lat="42.384328665889804" lon="11.144034225529794"><ele>81.4</ele><time>2026-03-29T14:24:49.915Z</time></trkpt><trkpt lat="42.38421679256178" lon="11.144084092303876"><ele>79.6</ele><time>2026-03-29T14:24:50.915Z</time></trkpt><trkpt lat="42.384118983809365" lon="11.144134965549611"><ele>77.8</ele><time>2026-03-29T14:24:51.915Z</time></trkpt><trkpt lat="42.38402099084633" lon="11.144182577085404"><ele>76.0</ele><time>2026-03-29T14:24:52.915Z</time></trkpt><trkpt lat="42.38391370795827" lon="11.144189754949505"><ele>81.6</ele><time>2026-03-29T14:24:53.915Z</time></trkpt><trkpt lat="42.383804632902354" lon="11.144206002371531"><ele>87.19999999999999</ele><time>2026-03-29T14:24:54.915Z</time></trkpt><trkpt lat="42.3837082367971" lon="11.144232027832464"><ele>92.80000000000001</ele><time>2026-03-29T14:24:55.915Z</time></trkpt><trkpt lat="42.38362010931393" lon="11.14427405345089"><ele>98.4</ele><time>2026-03-29T14:24:56.915Z</time></trkpt><trkpt lat="42.38354141451869" lon="11.144308354403023"><ele>104.0</ele><time>2026-03-29T14:24:57.915Z</time></trkpt><trkpt lat="42.3834636410745" lon="11.14432453716683"><ele>103.99999999999999</ele><time>2026-03-29T14:24:58.915Z</time></trkpt><trkpt lat="42.38337803881302" lon="11.144309380610874"><ele>104.0</ele><time>2026-03-29T14:24:59.915Z</time></trkpt><trkpt lat="42.38329128594805" lon="11.144292193147251"><ele>104.0</ele><time>2026-03-29T14:25:00.915Z</time></trkpt><trkpt lat="42.38320530176869" lon="11.144278888527158"><ele>104.0</ele><time>2026-03-29T14:25:01.915Z</time></trkpt><trkpt lat="42.38312089502146" lon="11.144265827988297"><ele>103.99999999999999</ele><time>2026-03-29T14:25:02.915Z</time></trkpt><trkpt lat="42.383032942462165" lon="11.144249188568022"><ele>104.0</ele><time>2026-03-29T14:25:03.915Z</time></trkpt><trkpt lat="42.38294968001494" lon="11.14425227498563"><ele>102.66666666666666</ele><time>2026-03-29T14:25:04.915Z</time></trkpt><trkpt lat="42.382878716961365" lon="11.144228581299174"><ele>101.33333333333333</ele><time>2026-03-29T14:25:05.915Z</time></trkpt><trkpt lat="42.382804921922535" lon="11.144206587415423"><ele>100.0</ele><time>2026-03-29T14:25:06.915Z</time></trkpt><trkpt lat="42.38272624526264" lon="11.14419320748615"><ele>98.66666666666666</ele><time>2026-03-29T14:25:07.915Z</time></trkpt><trkpt lat="42.382643192065856" lon="11.144173742142574"><ele>97.33333333333333</ele><time>2026-03-29T14:25:08.915Z</time></trkpt><trkpt lat="42.38256596759754" lon="11.144154660823391"><ele>96.0</ele><time>2026-03-29T14:25:09.915Z</time></trkpt><trkpt lat="42.3825012417613" lon="11.1441420274868"><ele>96.0</ele><time>2026-03-29T14:25:10.915Z</time></trkpt><trkpt lat="42.38238065831371" lon="11.144159605575314"><ele>96.0</ele><time>2026-03-29T14:25:12.915Z</time></trkpt><trkpt lat="42.38228964201935" lon="11.14425411525769"><ele>96.0</ele><time>2026-03-29T14:25:14.915Z</time></trkpt><trkpt lat="42.38220020555398" lon="11.14436926079976"><ele>96.0</ele><time>2026-03-29T14:25:16.915Z</time></trkpt><trkpt lat="42.382142299437554" lon="11.14440445394699"><ele>96.0</ele><time>2026-03-29T14:25:17.915Z</time></trkpt><trkpt lat="42.38205163348921" lon="11.14447173111672"><ele>95.66666666666667</ele><time>2026-03-29T14:25:19.915Z</time></trkpt><trkpt lat="42.3819740339575" lon="11.144415553079755"><ele>95.33333333333333</ele><time>2026-03-29T14:25:20.915Z</time></trkpt><trkpt lat="42.38190549859621" lon="11.144379258755329"><ele>95.0</ele><time>2026-03-29T14:25:22.915Z</time></trkpt><trkpt lat="42.38180930218041" lon="11.14433209521725"><ele>94.66666666666666</ele><time>2026-03-29T14:25:25.915Z</time></trkpt><trkpt lat="42.381723717156575" lon="11.144304019849622"><ele>94.33333333333333</ele><time>2026-03-29T14:25:27.915Z</time></trkpt><trkpt lat="42.38164208609086" lon="11.144288491060616"><ele>94.0</ele><time>2026-03-29T14:25:29.914Z</time></trkpt><trkpt lat="42.381549129917616" lon="11.144288465695977"><ele>94.0</ele><time>2026-03-29T14:25:31.914Z</time></trkpt><trkpt lat="42.381448607687275" lon="11.144313774665775"><ele>94.0</ele><time>2026-03-29T14:25:33.914Z</time></trkpt><trkpt lat="42.38133904094844" lon="11.14436832670341"><ele>94.0</ele><time>2026-03-29T14:25:35.914Z</time></trkpt><trkpt lat="42.38121743624819" lon="11.144366858540554"><ele>94.0</ele><time>2026-03-29T14:25:37.914Z</time></trkpt><trkpt lat="42.381093514658204" lon="11.144390988657758"><ele>92.83333333333333</ele><time>2026-03-29T14:25:39.914Z</time></trkpt><trkpt lat="42.38102872060467" lon="11.14438750258052"><ele>91.66666666666666</ele><time>2026-03-29T14:25:40.914Z</time></trkpt><trkpt lat="42.38096083935266" lon="11.144363889382724"><ele>90.5</ele><time>2026-03-29T14:25:41.914Z</time></trkpt><trkpt lat="42.38089652171805" lon="11.144387680817422"><ele>89.33333333333333</ele><time>2026-03-29T14:25:42.914Z</time></trkpt><trkpt lat="42.380779523718566" lon="11.144405679634055"><ele>88.16666666666667</ele><time>2026-03-29T14:25:44.914Z</time></trkpt><trkpt lat="42.380678567650776" lon="11.144442753990038"><ele>87.0</ele><time>2026-03-29T14:25:46.914Z</time></trkpt><trkpt lat="42.380562359761605" lon="11.144490096454245"><ele>85.42857142857143</ele><time>2026-03-29T14:25:48.914Z</time></trkpt><trkpt lat="42.380487265774775" lon="11.144528202667768"><ele>83.85714285714286</ele><time>2026-03-29T14:25:49.914Z</time></trkpt><trkpt lat="42.38041929105834" lon="11.14456515133125"><ele>82.28571428571428</ele><time>2026-03-29T14:25:50.914Z</time></trkpt><trkpt lat="42.3803567602923" lon="11.14460360068064"><ele>80.71428571428572</ele><time>2026-03-29T14:25:51.914Z</time></trkpt><trkpt lat="42.38029797814794" lon="11.144641075802253"><ele>79.14285714285715</ele><time>2026-03-29T14:25:52.914Z</time></trkpt><trkpt lat="42.38023810043231" lon="11.144671143558838"><ele>77.57142857142857</ele><time>2026-03-29T14:25:53.914Z</time></trkpt><trkpt lat="42.380177995478725" lon="11.144706072043084"><ele>76.0</ele><time>2026-03-29T14:25:54.914Z</time></trkpt><trkpt lat="42.38012154370358" lon="11.144751504092163"><ele>76.0</ele><time>2026-03-29T14:25:55.914Z</time></trkpt><trkpt lat="42.38007332800664" lon="11.14481139596062"><ele>76.0</ele><time>2026-03-29T14:25:56.914Z</time></trkpt><trkpt lat="42.38003357678444" lon="11.144877699736188"><ele>76.0</ele><time>2026-03-29T14:25:57.914Z</time></trkpt><trkpt lat="42.379981601869865" lon="11.144968675558836"><ele>76.0</ele><time>2026-03-29T14:25:58.914Z</time></trkpt><trkpt lat="42.379948615545025" lon="11.145072659927589"><ele>76.0</ele><time>2026-03-29T14:25:59.914Z</time></trkpt><trkpt lat="42.37991724078498" lon="11.14517710630511"><ele>76.0</ele><time>2026-03-29T14:26:00.914Z</time></trkpt><trkpt lat="42.37990398899078" lon="11.1452926760915"><ele>79.0</ele><time>2026-03-29T14:26:01.914Z</time></trkpt><trkpt lat="42.37989777933265" lon="11.14540183811289"><ele>82.0</ele><time>2026-03-29T14:26:02.914Z</time></trkpt><trkpt lat="42.37989918715522" lon="11.145505410695169"><ele>85.0</ele><time>2026-03-29T14:26:03.914Z</time></trkpt><trkpt lat="42.379901190762276" lon="11.145642194252845"><ele>88.0</ele><time>2026-03-29T14:26:05.914Z</time></trkpt><trkpt lat="42.37988678878765" lon="11.145777784064084"><ele>91.0</ele><time>2026-03-29T14:26:07.914Z</time></trkpt><trkpt lat="42.37986438185501" lon="11.145865721561046"><ele>94.0</ele><time>2026-03-29T14:26:08.914Z</time></trkpt><trkpt lat="42.37983256464898" lon="11.145956314870354"><ele>95.0</ele><time>2026-03-29T14:26:09.914Z</time></trkpt><trkpt lat="42.37978716863184" lon="11.14604861732108"><ele>96.0</ele><time>2026-03-29T14:26:10.914Z</time></trkpt><trkpt lat="42.37972102986484" lon="11.146138372613311"><ele>97.0</ele><time>2026-03-29T14:26:11.914Z</time></trkpt><trkpt lat="42.37966125220846" lon="11.146221388504792"><ele>98.0</ele><time>2026-03-29T14:26:12.914Z</time></trkpt><trkpt lat="42.37959950484068" lon="11.146293399395569"><ele>99.00000000000001</ele><time>2026-03-29T14:26:13.914Z</time></trkpt><trkpt lat="42.379534021338976" lon="11.146364733936098"><ele>100.0</ele><time>2026-03-29T14:26:14.914Z</time></trkpt><trkpt lat="42.37946488349795" lon="11.14643911153898"><ele>97.2</ele><time>2026-03-29T14:26:15.914Z</time></trkpt><trkpt lat="42.379399170698676" lon="11.146522452486728"><ele>94.4</ele><time>2026-03-29T14:26:16.914Z</time></trkpt><trkpt lat="42.379340403267506" lon="11.146647302273337"><ele>91.6</ele><time>2026-03-29T14:26:17.914Z</time></trkpt><trkpt lat="42.37927457127587" lon="11.146757242066428"><ele>88.8</ele><time>2026-03-29T14:26:18.914Z</time></trkpt><trkpt lat="42.37921187387425" lon="11.146859433003698"><ele>86.0</ele><time>2026-03-29T14:26:19.913Z</time></trkpt><trkpt lat="42.379159626072536" lon="11.146958861376472"><ele>86.0</ele><time>2026-03-29T14:26:20.913Z</time></trkpt><trkpt lat="42.379121916199296" lon="11.14706370171782"><ele>86.0</ele><time>2026-03-29T14:26:21.913Z</time></trkpt><trkpt lat="42.37909881030367" lon="11.147170328557616"><ele>86.0</ele><time>2026-03-29T14:26:22.913Z</time></trkpt><trkpt lat="42.37908272323936" lon="11.147279240317602"><ele>86.0</ele><time>2026-03-29T14:26:23.913Z</time></trkpt><trkpt lat="42.37906554307124" lon="11.147403498553382"><ele>86.0</ele><time>2026-03-29T14:26:24.913Z</time></trkpt><trkpt lat="42.37904456395696" lon="11.147515226271606"><ele>86.0</ele><time>2026-03-29T14:26:25.914Z</time></trkpt><trkpt lat="42.3790382913182" lon="11.147631232209955"><ele>85.66666666666667</ele><time>2026-03-29T14:26:26.914Z</time></trkpt><trkpt lat="42.37905514356259" lon="11.147735903600308"><ele>85.33333333333334</ele><time>2026-03-29T14:26:27.914Z</time></trkpt><trkpt lat="42.37908463672979" lon="11.147839659705483"><ele>85.0</ele><time>2026-03-29T14:26:28.914Z</time></trkpt><trkpt lat="42.379112236214176" lon="11.147991069150892"><ele>84.66666666666667</ele><time>2026-03-29T14:26:29.914Z</time></trkpt><trkpt lat="42.37910756122834" lon="11.148114418770637"><ele>84.33333333333333</ele><time>2026-03-29T14:26:30.914Z</time></trkpt><trkpt lat="42.37909394435435" lon="11.14822297329714"><ele>84.0</ele><time>2026-03-29T14:26:31.914Z</time></trkpt><trkpt lat="42.37908831434413" lon="11.148318374799894"><ele>84.0</ele><time>2026-03-29T14:26:32.914Z</time></trkpt><trkpt lat="42.37909837037808" lon="11.14841930899576"><ele>84.0</ele><time>2026-03-29T14:26:33.914Z</time></trkpt><trkpt lat="42.379122111405465" lon="11.148523270103556"><ele>84.0</ele><time>2026-03-29T14:26:34.915Z</time></trkpt><trkpt lat="42.37915041806713" lon="11.148627880322389"><ele>84.0</ele><time>2026-03-29T14:26:35.915Z</time></trkpt><trkpt lat="42.3791813589085" lon="11.148728989827204"><ele>84.0</ele><time>2026-03-29T14:26:36.915Z</time></trkpt><trkpt lat="42.379198995139184" lon="11.148834218012594"><ele>84.0</ele><time>2026-03-29T14:26:37.914Z</time></trkpt><trkpt lat="42.3792293863149" lon="11.148922789123493"><ele>84.0</ele><time>2026-03-29T14:26:38.914Z</time></trkpt><trkpt lat="42.37925766599183" lon="11.149009980379352"><ele>84.0</ele><time>2026-03-29T14:26:39.914Z</time></trkpt><trkpt lat="42.37928597961298" lon="11.149100253188378"><ele>84.0</ele><time>2026-03-29T14:26:40.914Z</time></trkpt><trkpt lat="42.37931684644354" lon="11.149196241569106"><ele>84.0</ele><time>2026-03-29T14:26:41.914Z</time></trkpt><trkpt lat="42.379345796912816" lon="11.149287978900876"><ele>84.0</ele><time>2026-03-29T14:26:42.914Z</time></trkpt><trkpt lat="42.37938320137478" lon="11.149378165076925"><ele>84.0</ele><time>2026-03-29T14:26:43.914Z</time></trkpt><trkpt lat="42.379416558424126" lon="11.149464871468183"><ele>84.0</ele><time>2026-03-29T14:26:44.914Z</time></trkpt><trkpt lat="42.37945699750685" lon="11.14954991730307"><ele>83.0</ele><time>2026-03-29T14:26:45.914Z</time></trkpt><trkpt lat="42.379511728006484" lon="11.149633644930699"><ele>82.0</ele><time>2026-03-29T14:26:46.914Z</time></trkpt><trkpt lat="42.37957131372288" lon="11.149722053090743"><ele>81.0</ele><time>2026-03-29T14:26:47.914Z</time></trkpt><trkpt lat="42.37963312094099" lon="11.149814326645494"><ele>80.0</ele><time>2026-03-29T14:26:48.914Z</time></trkpt><trkpt lat="42.37969547859" lon="11.149916865860687"><ele>79.0</ele><time>2026-03-29T14:26:49.914Z</time></trkpt><trkpt lat="42.37976603402205" lon="11.150016977511372"><ele>81.83333333333333</ele><time>2026-03-29T14:26:50.914Z</time></trkpt><trkpt lat="42.379817725064136" lon="11.15010541460578"><ele>84.66666666666666</ele><time>2026-03-29T14:26:51.914Z</time></trkpt><trkpt lat="42.379850938700535" lon="11.150189205152437"><ele>87.5</ele><time>2026-03-29T14:26:52.914Z</time></trkpt><trkpt lat="42.379880507734626" lon="11.150283822889827"><ele>90.33333333333333</ele><time>2026-03-29T14:26:53.914Z</time></trkpt><trkpt lat="42.37998026975554" lon="11.150408622824727"><ele>93.16666666666667</ele><time>2026-03-29T14:26:55.914Z</time></trkpt><trkpt lat="42.38004195720592" lon="11.150453351894171"><ele>96.0</ele><time>2026-03-29T14:26:56.914Z</time></trkpt><trkpt lat="42.38009508835329" lon="11.150501452492806"><ele>96.0</ele><time>2026-03-29T14:26:57.914Z</time></trkpt><trkpt lat="42.38014568726732" lon="11.150614026651892"><ele>96.0</ele><time>2026-03-29T14:26:59.914Z</time></trkpt><trkpt lat="42.38012344296071" lon="11.150779783501628"><ele>96.0</ele><time>2026-03-29T14:27:01.914Z</time></trkpt><trkpt lat="42.380085907819996" lon="11.15088264522811"><ele>96.0</ele><time>2026-03-29T14:27:02.914Z</time></trkpt><trkpt lat="42.380058873400074" lon="11.151003672871589"><ele>96.0</ele><time>2026-03-29T14:27:03.914Z</time></trkpt><trkpt lat="42.38004050943633" lon="11.151124619177581"><ele>95.66666666666667</ele><time>2026-03-29T14:27:04.914Z</time></trkpt><trkpt lat="42.380033687598605" lon="11.151241475857002"><ele>95.33333333333333</ele><time>2026-03-29T14:27:05.914Z</time></trkpt><trkpt lat="42.380035854155246" lon="11.151364896405184"><ele>95.0</ele><time>2026-03-29T14:27:06.914Z</time></trkpt><trkpt lat="42.380047265784356" lon="11.151487988951942"><ele>94.66666666666666</ele><time>2026-03-29T14:27:07.913Z</time></trkpt><trkpt lat="42.38007310495927" lon="11.151607815612044"><ele>94.33333333333333</ele><time>2026-03-29T14:27:08.913Z</time></trkpt><trkpt lat="42.38009440727744" lon="11.151716985512985"><ele>94.0</ele><time>2026-03-29T14:27:09.913Z</time></trkpt><trkpt lat="42.38012150471681" lon="11.151813759669611"><ele>94.0</ele><time>2026-03-29T14:27:10.913Z</time></trkpt><trkpt lat="42.380134486537564" lon="11.151908128011224"><ele>94.0</ele><time>2026-03-29T14:27:11.913Z</time></trkpt><trkpt lat="42.38015892399567" lon="11.152008559089769"><ele>94.0</ele><time>2026-03-29T14:27:12.913Z</time></trkpt><trkpt lat="42.38019014428564" lon="11.152116024086617"><ele>94.0</ele><time>2026-03-29T14:27:13.913Z</time></trkpt><trkpt lat="42.380229002247056" lon="11.152218960014547"><ele>94.0</ele><time>2026-03-29T14:27:14.913Z</time></trkpt><trkpt lat="42.38027267295131" lon="11.15232975538149"><ele>94.0</ele><time>2026-03-29T14:27:15.913Z</time></trkpt><trkpt lat="42.380315468898196" lon="11.152430312155563"><ele>95.2</ele><time>2026-03-29T14:27:16.913Z</time></trkpt><trkpt lat="42.380358778581176" lon="11.1525406703052"><ele>96.4</ele><time>2026-03-29T14:27:17.913Z</time></trkpt><trkpt lat="42.38040951746704" lon="11.152649913467357"><ele>97.6</ele><time>2026-03-29T14:27:18.913Z</time></trkpt><trkpt lat="42.38047095604567" lon="11.152749520088886"><ele>98.8</ele><time>2026-03-29T14:27:19.913Z</time></trkpt><trkpt lat="42.380539108909566" lon="11.152845488136371"><ele>100.0</ele><time>2026-03-29T14:27:20.913Z</time></trkpt><trkpt lat="42.380598888124275" lon="11.152928800153534"><ele>100.0</ele><time>2026-03-29T14:27:21.913Z</time></trkpt><trkpt lat="42.380644167837715" lon="11.153003102508375"><ele>100.0</ele><time>2026-03-29T14:27:22.913Z</time></trkpt><trkpt lat="42.38068944530505" lon="11.153132991094983"><ele>100.0</ele><time>2026-03-29T14:27:24.913Z</time></trkpt><trkpt lat="42.38063570353109" lon="11.153194061605419"><ele>100.0</ele><time>2026-03-29T14:27:26.913Z</time></trkpt><trkpt lat="42.380511815871856" lon="11.15313192534895"><ele>100.0</ele><time>2026-03-29T14:27:29.913Z</time></trkpt><trkpt lat="42.380448039308455" lon="11.15305117440275"><ele>100.00000000000001</ele><time>2026-03-29T14:27:30.913Z</time></trkpt><trkpt lat="42.380372666553946" lon="11.152972491552953"><ele>100.0</ele><time>2026-03-29T14:27:31.913Z</time></trkpt><trkpt lat="42.38029173240864" lon="11.15291519604394"><ele>100.0</ele><time>2026-03-29T14:27:32.913Z</time></trkpt><trkpt lat="42.38022989350938" lon="11.15282691329326"><ele>100.0</ele><time>2026-03-29T14:27:33.913Z</time></trkpt><trkpt lat="42.38017070909231" lon="11.152748742780874"><ele>100.00000000000001</ele><time>2026-03-29T14:27:34.913Z</time></trkpt><trkpt lat="42.380100411837525" lon="11.152678728655285"><ele>100.0</ele><time>2026-03-29T14:27:35.913Z</time></trkpt><trkpt lat="42.380013618001556" lon="11.152634729300562"><ele>100.0</ele><time>2026-03-29T14:27:36.913Z</time></trkpt><trkpt lat="42.379939577617435" lon="11.15255101433994"><ele>100.0</ele><time>2026-03-29T14:27:37.913Z</time></trkpt><trkpt lat="42.379885625210164" lon="11.152446842960783"><ele>100.0</ele><time>2026-03-29T14:27:38.913Z</time></trkpt><trkpt lat="42.37982617772981" lon="11.152355240423535"><ele>100.0</ele><time>2026-03-29T14:27:39.913Z</time></trkpt><trkpt lat="42.379769618843966" lon="11.152263282975854"><ele>100.0</ele><time>2026-03-29T14:27:40.913Z</time></trkpt><trkpt lat="42.37970988483417" lon="11.152176516487634"><ele>99.33333333333334</ele><time>2026-03-29T14:27:41.913Z</time></trkpt><trkpt lat="42.379653263019094" lon="11.152090596375343"><ele>98.66666666666667</ele><time>2026-03-29T14:27:42.913Z</time></trkpt><trkpt lat="42.379603682785444" lon="11.151999674625522"><ele>98.0</ele><time>2026-03-29T14:27:43.913Z</time></trkpt><trkpt lat="42.379566221349954" lon="11.151897592009037"><ele>97.33333333333334</ele><time>2026-03-29T14:27:44.913Z</time></trkpt><trkpt lat="42.379521264579445" lon="11.151791411684036"><ele>96.66666666666667</ele><time>2026-03-29T14:27:45.913Z</time></trkpt><trkpt lat="42.37948534628239" lon="11.151680609741737"><ele>96.0</ele><time>2026-03-29T14:27:46.913Z</time></trkpt><trkpt lat="42.37944494781038" lon="11.151576265303106"><ele>93.5</ele><time>2026-03-29T14:27:47.913Z</time></trkpt><trkpt lat="42.3794012838716" lon="11.15147479610307"><ele>91.0</ele><time>2026-03-29T14:27:48.913Z</time></trkpt><trkpt lat="42.37934757250984" lon="11.15137933536598"><ele>88.5</ele><time>2026-03-29T14:27:49.913Z</time></trkpt><trkpt lat="42.37928276458887" lon="11.15129793149621"><ele>86.0</ele><time>2026-03-29T14:27:50.913Z</time></trkpt><trkpt lat="42.37921519358192" lon="11.151238311786773"><ele>83.5</ele><time>2026-03-29T14:27:51.913Z</time></trkpt><trkpt lat="42.37914603807383" lon="11.151190717519514"><ele>81.0</ele><time>2026-03-29T14:27:52.913Z</time></trkpt><trkpt lat="42.379075291450015" lon="11.151143826614202"><ele>81.0</ele><time>2026-03-29T14:27:53.913Z</time></trkpt><trkpt lat="42.37900043129866" lon="11.151076931025512"><ele>81.0</ele><time>2026-03-29T14:27:54.913Z</time></trkpt><trkpt lat="42.378916137323166" lon="11.15103894258956"><ele>81.0</ele><time>2026-03-29T14:27:55.913Z</time></trkpt><trkpt lat="42.37884496172572" lon="11.151005365466796"><ele>81.0</ele><time>2026-03-29T14:27:56.913Z</time></trkpt><trkpt lat="42.378782359968866" lon="11.150966358814953"><ele>81.0</ele><time>2026-03-29T14:27:57.912Z</time></trkpt><trkpt lat="42.37870493486721" lon="11.15086693181909"><ele>81.0</ele><time>2026-03-29T14:27:59.912Z</time></trkpt><trkpt lat="42.37865988835375" lon="11.150708660286462"><ele>81.0</ele><time>2026-03-29T14:28:01.912Z</time></trkpt><trkpt lat="42.37862582324438" lon="11.150611887924137"><ele>81.0</ele><time>2026-03-29T14:28:02.912Z</time></trkpt><trkpt lat="42.37857818690991" lon="11.150509462525305"><ele>81.0</ele><time>2026-03-29T14:28:03.912Z</time></trkpt><trkpt lat="42.37852013022709" lon="11.150400162144969"><ele>81.0</ele><time>2026-03-29T14:28:04.912Z</time></trkpt><trkpt lat="42.37845584399774" lon="11.150296727694112"><ele>81.0</ele><time>2026-03-29T14:28:05.912Z</time></trkpt><trkpt lat="42.37838146642346" lon="11.150193291648945"><ele>81.0</ele><time>2026-03-29T14:28:06.912Z</time></trkpt><trkpt lat="42.37829924278493" lon="11.150077957453924"><ele>81.0</ele><time>2026-03-29T14:28:07.912Z</time></trkpt><trkpt lat="42.37821657644932" lon="11.149975142166817"><ele>81.0</ele><time>2026-03-29T14:28:08.912Z</time></trkpt><trkpt lat="42.37812347898508" lon="11.149883464116918"><ele>81.0</ele><time>2026-03-29T14:28:09.912Z</time></trkpt><trkpt lat="42.37802959295029" lon="11.149774053620035"><ele>82.75</ele><time>2026-03-29T14:28:10.912Z</time></trkpt><trkpt lat="42.37792669862405" lon="11.149684162759266"><ele>84.5</ele><time>2026-03-29T14:28:11.912Z</time></trkpt><trkpt lat="42.37783054785767" lon="11.149601206059552"><ele>86.25</ele><time>2026-03-29T14:28:12.912Z</time></trkpt><trkpt lat="42.37773452919193" lon="11.149517806221654"><ele>88.0</ele><time>2026-03-29T14:28:13.912Z</time></trkpt><trkpt lat="42.3776487862842" lon="11.149441296314837"><ele>88.0</ele><time>2026-03-29T14:28:14.912Z</time></trkpt><trkpt lat="42.37757731403149" lon="11.149361566235306"><ele>88.0</ele><time>2026-03-29T14:28:15.912Z</time></trkpt><trkpt lat="42.37753022742776" lon="11.149291950404054"><ele>88.0</ele><time>2026-03-29T14:28:16.912Z</time></trkpt><trkpt lat="42.37748736618929" lon="11.149217166956094"><ele>88.0</ele><time>2026-03-29T14:28:18.912Z</time></trkpt><trkpt lat="42.37739808343551" lon="11.149162515472751"><ele>88.0</ele><time>2026-03-29T14:28:20.912Z</time></trkpt><trkpt lat="42.37731350726055" lon="11.149115837751964"><ele>88.0</ele><time>2026-03-29T14:28:21.912Z</time></trkpt><trkpt lat="42.377221470045285" lon="11.14907057355962"><ele>88.5</ele><time>2026-03-29T14:28:22.912Z</time></trkpt><trkpt lat="42.37712655321176" lon="11.149031763567743"><ele>89.0</ele><time>2026-03-29T14:28:23.912Z</time></trkpt><trkpt lat="42.37705042014146" lon="11.148965059123228"><ele>89.5</ele><time>2026-03-29T14:28:24.912Z</time></trkpt><trkpt lat="42.3769938039795" lon="11.148901334707684"><ele>90.0</ele><time>2026-03-29T14:28:25.912Z</time></trkpt><trkpt lat="42.37695705413433" lon="11.14882227867262"><ele>90.5</ele><time>2026-03-29T14:28:26.912Z</time></trkpt><trkpt lat="42.376909319071885" lon="11.148743141971204"><ele>91.0</ele><time>2026-03-29T14:28:27.912Z</time></trkpt><trkpt lat="42.37686568065216" lon="11.148676919018397"><ele>91.0</ele><time>2026-03-29T14:28:28.912Z</time></trkpt><trkpt lat="42.37680496287033" lon="11.148627623663202"><ele>91.0</ele><time>2026-03-29T14:28:29.912Z</time></trkpt><trkpt lat="42.37671929582313" lon="11.14860107970002"><ele>91.0</ele><time>2026-03-29T14:28:30.912Z</time></trkpt><trkpt lat="42.37663258072356" lon="11.148571651699502"><ele>91.0</ele><time>2026-03-29T14:28:31.913Z</time></trkpt><trkpt lat="42.37654448319591" lon="11.148544137393731"><ele>91.0</ele><time>2026-03-29T14:28:32.913Z</time></trkpt><trkpt lat="42.376476018384245" lon="11.148515160641047"><ele>91.0</ele><time>2026-03-29T14:28:33.913Z</time></trkpt><trkpt lat="42.376383563145" lon="11.148442438764814"><ele>93.6</ele><time>2026-03-29T14:28:35.913Z</time></trkpt><trkpt lat="42.37631581045746" lon="11.148296012841941"><ele>96.19999999999999</ele><time>2026-03-29T14:28:37.913Z</time></trkpt><trkpt lat="42.376281678927725" lon="11.148205698863634"><ele>98.80000000000001</ele><time>2026-03-29T14:28:38.913Z</time></trkpt><trkpt lat="42.37625863283756" lon="11.14810551221868"><ele>101.4</ele><time>2026-03-29T14:28:39.913Z</time></trkpt><trkpt lat="42.37622020887242" lon="11.14799196943312"><ele>104.0</ele><time>2026-03-29T14:28:40.913Z</time></trkpt><trkpt lat="42.376180712561535" lon="11.147886498755074"><ele>103.99999999999999</ele><time>2026-03-29T14:28:41.913Z</time></trkpt><trkpt lat="42.37613612041768" lon="11.147785540231732"><ele>104.0</ele><time>2026-03-29T14:28:42.913Z</time></trkpt><trkpt lat="42.376088708356114" lon="11.147701201576607"><ele>104.0</ele><time>2026-03-29T14:28:43.913Z</time></trkpt><trkpt lat="42.37600981404576" lon="11.147588165220398"><ele>104.0</ele><time>2026-03-29T14:28:45.913Z</time></trkpt><trkpt lat="42.37593610249601" lon="11.147525049239999"><ele>103.99999999999999</ele><time>2026-03-29T14:28:46.913Z</time></trkpt><trkpt lat="42.37586876749362" lon="11.147467769490605"><ele>104.0</ele><time>2026-03-29T14:28:47.913Z</time></trkpt><trkpt lat="42.375790938702316" lon="11.147420163629201"><ele>103.99999999999999</ele><time>2026-03-29T14:28:48.913Z</time></trkpt><trkpt lat="42.37571660638209" lon="11.147401264197859"><ele>104.0</ele><time>2026-03-29T14:28:49.913Z</time></trkpt><trkpt lat="42.375644559964734" lon="11.147397128794573"><ele>104.0</ele><time>2026-03-29T14:28:50.913Z</time></trkpt><trkpt lat="42.37557338248037" lon="11.147422315008757"><ele>104.0</ele><time>2026-03-29T14:28:51.913Z</time></trkpt><trkpt lat="42.3754744647481" lon="11.147518625853019"><ele>103.99999999999999</ele><time>2026-03-29T14:28:53.913Z</time></trkpt><trkpt lat="42.37543107063008" lon="11.14758113553116"><ele>104.0</ele><time>2026-03-29T14:28:54.913Z</time></trkpt><trkpt lat="42.37538988078545" lon="11.147660591028139"><ele>100.66666666666666</ele><time>2026-03-29T14:28:55.913Z</time></trkpt><trkpt lat="42.375355203183936" lon="11.14773835073211"><ele>97.33333333333333</ele><time>2026-03-29T14:28:56.913Z</time></trkpt><trkpt lat="42.375323900356435" lon="11.147837672488247"><ele>94.0</ele><time>2026-03-29T14:28:57.913Z</time></trkpt><trkpt lat="42.37530426218258" lon="11.14792804821555"><ele>90.66666666666666</ele><time>2026-03-29T14:28:58.913Z</time></trkpt><trkpt lat="42.37526502096832" lon="11.148013341944202"><ele>87.33333333333333</ele><time>2026-03-29T14:28:59.913Z</time></trkpt><trkpt lat="42.37521646514832" lon="11.148096067277377"><ele>84.0</ele><time>2026-03-29T14:29:00.913Z</time></trkpt><trkpt lat="42.375165108758026" lon="11.148186225308923"><ele>87.83333333333333</ele><time>2026-03-29T14:29:01.913Z</time></trkpt><trkpt lat="42.375128931502516" lon="11.148271814990325"><ele>91.66666666666666</ele><time>2026-03-29T14:29:02.913Z</time></trkpt><trkpt lat="42.37508979554135" lon="11.148417874774884"><ele>95.5</ele><time>2026-03-29T14:29:04.913Z</time></trkpt><trkpt lat="42.37506602838075" lon="11.148503228980537"><ele>99.33333333333333</ele><time>2026-03-29T14:29:05.913Z</time></trkpt><trkpt lat="42.37502817192735" lon="11.148595525934972"><ele>103.16666666666666</ele><time>2026-03-29T14:29:06.913Z</time></trkpt><trkpt lat="42.374989952472795" lon="11.148696650347768"><ele>107.0</ele><time>2026-03-29T14:29:07.913Z</time></trkpt><trkpt lat="42.37495237597251" lon="11.148791333334476"><ele>107.0</ele><time>2026-03-29T14:29:08.913Z</time></trkpt><trkpt lat="42.37491733086054" lon="11.148866694134197"><ele>106.99999999999999</ele><time>2026-03-29T14:29:09.913Z</time></trkpt><trkpt lat="42.37484099813082" lon="11.14898381488729"><ele>106.99999999999999</ele><time>2026-03-29T14:29:11.912Z</time></trkpt><trkpt lat="42.37477066456888" lon="11.149117923100048"><ele>107.0</ele><time>2026-03-29T14:29:13.912Z</time></trkpt><trkpt lat="42.374703902752486" lon="11.149251019362522"><ele>107.0</ele><time>2026-03-29T14:29:15.912Z</time></trkpt><trkpt lat="42.37466485004349" lon="11.149327418792446"><ele>105.49999999999999</ele><time>2026-03-29T14:29:16.912Z</time></trkpt><trkpt lat="42.37462222403437" lon="11.149412565355432"><ele>104.0</ele><time>2026-03-29T14:29:17.912Z</time></trkpt><trkpt lat="42.37458061716689" lon="11.14948976609466"><ele>102.5</ele><time>2026-03-29T14:29:18.912Z</time></trkpt><trkpt lat="42.37453948073587" lon="11.149555011346523"><ele>101.0</ele><time>2026-03-29T14:29:19.912Z</time></trkpt><trkpt lat="42.37449155329735" lon="11.149626901828153"><ele>99.49999999999999</ele><time>2026-03-29T14:29:20.912Z</time></trkpt><trkpt lat="42.37444999661378" lon="11.149701821388357"><ele>98.0</ele><time>2026-03-29T14:29:21.912Z</time></trkpt><trkpt lat="42.37439206742389" lon="11.149820173278076"><ele>102.2</ele><time>2026-03-29T14:29:23.912Z</time></trkpt><trkpt lat="42.37432472267634" lon="11.149964248653806"><ele>106.4</ele><time>2026-03-29T14:29:25.912Z</time></trkpt><trkpt lat="42.37427767474627" lon="11.150039389141362"><ele>110.60000000000001</ele><time>2026-03-29T14:29:26.912Z</time></trkpt><trkpt lat="42.37424174067904" lon="11.150112959141387"><ele>114.80000000000001</ele><time>2026-03-29T14:29:27.912Z</time></trkpt><trkpt lat="42.374180070558815" lon="11.150257541521743"><ele>119.0</ele><time>2026-03-29T14:29:29.912Z</time></trkpt><trkpt lat="42.37412795522894" lon="11.150413255568338"><ele>118.99999999999999</ele><time>2026-03-29T14:29:31.912Z</time></trkpt><trkpt lat="42.374087275460894" lon="11.150564229088817"><ele>119.0</ele><time>2026-03-29T14:29:33.912Z</time></trkpt><trkpt lat="42.37406078808862" lon="11.150644370512092"><ele>119.0</ele><time>2026-03-29T14:29:34.912Z</time></trkpt><trkpt lat="42.37402484343555" lon="11.150724316639133"><ele>119.0</ele><time>2026-03-29T14:29:35.912Z</time></trkpt><trkpt lat="42.37399627041836" lon="11.150801747562896"><ele>118.99999999999999</ele><time>2026-03-29T14:29:36.912Z</time></trkpt><trkpt lat="42.37396793743889" lon="11.150890894509544"><ele>119.0</ele><time>2026-03-29T14:29:37.912Z</time></trkpt><trkpt lat="42.37392352623353" lon="11.150982214073862"><ele>117.33333333333333</ele><time>2026-03-29T14:29:38.912Z</time></trkpt><trkpt lat="42.373887528251885" lon="11.151074047967247"><ele>115.66666666666666</ele><time>2026-03-29T14:29:39.912Z</time></trkpt><trkpt lat="42.37384435126932" lon="11.151166175398531"><ele>114.0</ele><time>2026-03-29T14:29:40.912Z</time></trkpt><trkpt lat="42.37378382829714" lon="11.151235490909862"><ele>112.33333333333334</ele><time>2026-03-29T14:29:41.912Z</time></trkpt><trkpt lat="42.37374614337737" lon="11.151322365305811"><ele>110.66666666666667</ele><time>2026-03-29T14:29:42.912Z</time></trkpt><trkpt lat="42.373682309329105" lon="11.151376724491184"><ele>109.0</ele><time>2026-03-29T14:29:43.912Z</time></trkpt><trkpt lat="42.37362299773195" lon="11.151444428910843"><ele>109.00000000000001</ele><time>2026-03-29T14:29:44.912Z</time></trkpt><trkpt lat="42.37356898036938" lon="11.151523389318873"><ele>109.0</ele><time>2026-03-29T14:29:45.912Z</time></trkpt><trkpt lat="42.37349550108398" lon="11.151581100510667"><ele>109.0</ele><time>2026-03-29T14:29:46.912Z</time></trkpt><trkpt lat="42.37342953254884" lon="11.151643039096225"><ele>109.0</ele><time>2026-03-29T14:29:47.912Z</time></trkpt><trkpt lat="42.37337021254755" lon="11.151713813405298"><ele>109.00000000000001</ele><time>2026-03-29T14:29:48.912Z</time></trkpt><trkpt lat="42.373313839357216" lon="11.151789530318686"><ele>109.0</ele><time>2026-03-29T14:29:49.912Z</time></trkpt><trkpt lat="42.37325788808117" lon="11.15187060833564"><ele>108.50000000000001</ele><time>2026-03-29T14:29:50.912Z</time></trkpt><trkpt lat="42.373191131614355" lon="11.151929095144874"><ele>108.0</ele><time>2026-03-29T14:29:51.912Z</time></trkpt><trkpt lat="42.373120154514055" lon="11.151990123279944"><ele>107.5</ele><time>2026-03-29T14:29:52.912Z</time></trkpt><trkpt lat="42.373043277061115" lon="11.152051487748764"><ele>107.0</ele><time>2026-03-29T14:29:53.912Z</time></trkpt><trkpt lat="42.37299335133948" lon="11.152118313299567"><ele>106.50000000000001</ele><time>2026-03-29T14:29:54.912Z</time></trkpt><trkpt lat="42.372933093362825" lon="11.152185001184819"><ele>106.0</ele><time>2026-03-29T14:29:55.912Z</time></trkpt><trkpt lat="42.372882280874414" lon="11.152248205040053"><ele>106.00000000000001</ele><time>2026-03-29T14:29:56.912Z</time></trkpt><trkpt lat="42.37283436020537" lon="11.152332747872986"><ele>106.0</ele><time>2026-03-29T14:29:57.912Z</time></trkpt><trkpt lat="42.372733477743594" lon="11.152399987268792"><ele>106.0</ele><time>2026-03-29T14:29:59.912Z</time></trkpt><trkpt lat="42.372662149213184" lon="11.15243560080281"><ele>106.0</ele><time>2026-03-29T14:30:00.912Z</time></trkpt><trkpt lat="42.372588956347954" lon="11.152493430805778"><ele>106.00000000000001</ele><time>2026-03-29T14:30:01.912Z</time></trkpt><trkpt lat="42.37251763824992" lon="11.152560188610005"><ele>106.0</ele><time>2026-03-29T14:30:02.911Z</time></trkpt><trkpt lat="42.37244627551303" lon="11.152634418674587"><ele>104.8</ele><time>2026-03-29T14:30:03.911Z</time></trkpt><trkpt lat="42.37237650584213" lon="11.152708993992754"><ele>103.6</ele><time>2026-03-29T14:30:04.911Z</time></trkpt><trkpt lat="42.37229933289441" lon="11.152765317646962"><ele>102.4</ele><time>2026-03-29T14:30:05.911Z</time></trkpt><trkpt lat="42.372236234559125" lon="11.152825147112322"><ele>101.2</ele><time>2026-03-29T14:30:06.911Z</time></trkpt><trkpt lat="42.372183075392705" lon="11.152879979346132"><ele>100.0</ele><time>2026-03-29T14:30:07.911Z</time></trkpt><trkpt lat="42.37208857410296" lon="11.153001112987774"><ele>100.00000000000001</ele><time>2026-03-29T14:30:09.911Z</time></trkpt><trkpt lat="42.37203977018635" lon="11.153077939467996"><ele>100.0</ele><time>2026-03-29T14:30:10.911Z</time></trkpt><trkpt lat="42.37200302736109" lon="11.153179170311331"><ele>100.0</ele><time>2026-03-29T14:30:11.911Z</time></trkpt><trkpt lat="42.37195759254262" lon="11.153273933308526"><ele>100.0</ele><time>2026-03-29T14:30:12.911Z</time></trkpt><trkpt lat="42.37192562075578" lon="11.153366357649901"><ele>100.00000000000001</ele><time>2026-03-29T14:30:13.911Z</time></trkpt><trkpt lat="42.37188173242881" lon="11.153442803424443"><ele>100.0</ele><time>2026-03-29T14:30:14.911Z</time></trkpt><trkpt lat="42.37184944223347" lon="11.153534970693137"><ele>105.33333333333334</ele><time>2026-03-29T14:30:15.911Z</time></trkpt><trkpt lat="42.371817879916726" lon="11.15363305297537"><ele>110.66666666666667</ele><time>2026-03-29T14:30:16.911Z</time></trkpt><trkpt lat="42.37180894073783" lon="11.153725220859773"><ele>116.0</ele><time>2026-03-29T14:30:17.911Z</time></trkpt><trkpt lat="42.3717962558379" lon="11.153850843152524"><ele>121.33333333333334</ele><time>2026-03-29T14:30:19.911Z</time></trkpt><trkpt lat="42.3718219981512" lon="11.153948174265635"><ele>126.66666666666667</ele><time>2026-03-29T14:30:21.911Z</time></trkpt><trkpt lat="42.37187614342344" lon="11.15408858044571"><ele>132.0</ele><time>2026-03-29T14:30:23.911Z</time></trkpt><trkpt lat="42.37192314916751" lon="11.154159702792388"><ele>132.83333333333334</ele><time>2026-03-29T14:30:24.911Z</time></trkpt><trkpt lat="42.37197321057503" lon="11.154231002801957"><ele>133.66666666666666</ele><time>2026-03-29T14:30:25.911Z</time></trkpt><trkpt lat="42.37203099680778" lon="11.154309339622143"><ele>134.5</ele><time>2026-03-29T14:30:26.911Z</time></trkpt><trkpt lat="42.37208743703749" lon="11.154389049279528"><ele>135.33333333333331</ele><time>2026-03-29T14:30:27.911Z</time></trkpt><trkpt lat="42.372149878035884" lon="11.154469391427373"><ele>136.16666666666666</ele><time>2026-03-29T14:30:28.911Z</time></trkpt><trkpt lat="42.37220598169606" lon="11.154544237477461"><ele>137.0</ele><time>2026-03-29T14:30:29.911Z</time></trkpt><trkpt lat="42.372258285158516" lon="11.154609082656926"><ele>142.0</ele><time>2026-03-29T14:30:30.911Z</time></trkpt><trkpt lat="42.37232494543738" lon="11.15474863115413"><ele>147.0</ele><time>2026-03-29T14:30:32.911Z</time></trkpt><trkpt lat="42.372387853180314" lon="11.154896881074638"><ele>152.0</ele><time>2026-03-29T14:30:34.911Z</time></trkpt><trkpt lat="42.37241837794684" lon="11.154982223898822"><ele>157.0</ele><time>2026-03-29T14:30:35.911Z</time></trkpt><trkpt lat="42.372451935952874" lon="11.15506634857817"><ele>162.0</ele><time>2026-03-29T14:30:36.911Z</time></trkpt><trkpt lat="42.372490152014066" lon="11.155154921982653"><ele>162.0</ele><time>2026-03-29T14:30:37.912Z</time></trkpt><trkpt lat="42.37253037511142" lon="11.155244641834472"><ele>162.0</ele><time>2026-03-29T14:30:38.912Z</time></trkpt><trkpt lat="42.372576315493006" lon="11.155331739776276"><ele>162.0</ele><time>2026-03-29T14:30:39.912Z</time></trkpt><trkpt lat="42.372628261255535" lon="11.155410934161287"><ele>162.0</ele><time>2026-03-29T14:30:40.911Z</time></trkpt><trkpt lat="42.372679298770386" lon="11.155487093695994"><ele>162.0</ele><time>2026-03-29T14:30:41.912Z</time></trkpt><trkpt lat="42.37274940644859" lon="11.155621334968437"><ele>162.0</ele><time>2026-03-29T14:30:43.912Z</time></trkpt><trkpt lat="42.372744663112755" lon="11.155777783873456"><ele>162.8</ele><time>2026-03-29T14:30:45.911Z</time></trkpt><trkpt lat="42.3726762253334" lon="11.155930372415492"><ele>163.6</ele><time>2026-03-29T14:30:47.911Z</time></trkpt><trkpt lat="42.372638814677714" lon="11.156026805955307"><ele>164.4</ele><time>2026-03-29T14:30:48.911Z</time></trkpt><trkpt lat="42.372608051737444" lon="11.156138519689064"><ele>165.20000000000002</ele><time>2026-03-29T14:30:49.912Z</time></trkpt><trkpt lat="42.37258456011627" lon="11.156252677754766"><ele>166.0</ele><time>2026-03-29T14:30:50.912Z</time></trkpt><trkpt lat="42.372563637131314" lon="11.156354498772263"><ele>166.0</ele><time>2026-03-29T14:30:51.912Z</time></trkpt><trkpt lat="42.372523669014925" lon="11.156421353690112"><ele>166.0</ele><time>2026-03-29T14:30:52.912Z</time></trkpt><trkpt lat="42.37245446521614" lon="11.1565154665004"><ele>166.0</ele><time>2026-03-29T14:30:54.912Z</time></trkpt><trkpt lat="42.37235471724272" lon="11.156544800545044"><ele>166.0</ele><time>2026-03-29T14:30:56.911Z</time></trkpt><trkpt lat="42.372286889018014" lon="11.156586696130162"><ele>166.0</ele><time>2026-03-29T14:30:57.911Z</time></trkpt><trkpt lat="42.372213955202014" lon="11.156639232794323"><ele>166.0</ele><time>2026-03-29T14:30:58.911Z</time></trkpt><trkpt lat="42.37214702130126" lon="11.15670489203493"><ele>166.66666666666669</ele><time>2026-03-29T14:30:59.911Z</time></trkpt><trkpt lat="42.37208484983433" lon="11.156779953431087"><ele>167.33333333333334</ele><time>2026-03-29T14:31:00.911Z</time></trkpt><trkpt lat="42.37202316784663" lon="11.156869969732258"><ele>168.0</ele><time>2026-03-29T14:31:01.911Z</time></trkpt><trkpt lat="42.371979709147354" lon="11.15698517645532"><ele>168.66666666666666</ele><time>2026-03-29T14:31:02.911Z</time></trkpt><trkpt lat="42.37191535340546" lon="11.15705365494496"><ele>169.33333333333331</ele><time>2026-03-29T14:31:03.911Z</time></trkpt><trkpt lat="42.37187373153341" lon="11.157129568124374"><ele>170.0</ele><time>2026-03-29T14:31:04.911Z</time></trkpt><trkpt lat="42.37179596943907" lon="11.157142962508196"><ele>170.0</ele><time>2026-03-29T14:31:05.911Z</time></trkpt><trkpt lat="42.37171630495998" lon="11.15715337842658"><ele>170.0</ele><time>2026-03-29T14:31:06.911Z</time></trkpt><trkpt lat="42.371632022510205" lon="11.157169175757288"><ele>170.0</ele><time>2026-03-29T14:31:07.911Z</time></trkpt><trkpt lat="42.371554120656874" lon="11.157234144812941"><ele>170.0</ele><time>2026-03-29T14:31:08.911Z</time></trkpt><trkpt lat="42.37148662428933" lon="11.157292835802668"><ele>170.0</ele><time>2026-03-29T14:31:09.911Z</time></trkpt><trkpt lat="42.371404057136935" lon="11.15734145671399"><ele>170.0</ele><time>2026-03-29T14:31:10.911Z</time></trkpt><trkpt lat="42.37132979997644" lon="11.157417502846968"><ele>174.5</ele><time>2026-03-29T14:31:11.911Z</time></trkpt><trkpt lat="42.3712496527259" lon="11.157477361792141"><ele>179.0</ele><time>2026-03-29T14:31:12.911Z</time></trkpt><trkpt lat="42.37117689963794" lon="11.157512942886118"><ele>183.5</ele><time>2026-03-29T14:31:13.911Z</time></trkpt><trkpt lat="42.37110709883443" lon="11.157538957554927"><ele>188.0</ele><time>2026-03-29T14:31:14.911Z</time></trkpt><trkpt lat="42.3710308079117" lon="11.15755886073152"><ele>192.50000000000003</ele><time>2026-03-29T14:31:15.911Z</time></trkpt><trkpt lat="42.37095054138938" lon="11.157572751085167"><ele>197.0</ele><time>2026-03-29T14:31:16.911Z</time></trkpt><trkpt lat="42.37087090889335" lon="11.157591439167808"><ele>197.00000000000003</ele><time>2026-03-29T14:31:17.911Z</time></trkpt><trkpt lat="42.3708065036466" lon="11.157629243920567"><ele>197.0</ele><time>2026-03-29T14:31:18.911Z</time></trkpt><trkpt lat="42.370691447129374" lon="11.157675794415558"><ele>197.0</ele><time>2026-03-29T14:31:20.911Z</time></trkpt><trkpt lat="42.37064095960064" lon="11.157750910535553"><ele>197.0</ele><time>2026-03-29T14:31:21.911Z</time></trkpt><trkpt lat="42.370628216557726" lon="11.157859068318828"><ele>197.00000000000003</ele><time>2026-03-29T14:31:22.911Z</time></trkpt><trkpt lat="42.37062603386888" lon="11.157949695107758"><ele>197.0</ele><time>2026-03-29T14:31:23.911Z</time></trkpt><trkpt lat="42.37064339495154" lon="11.158036203345011"><ele>197.00000000000003</ele><time>2026-03-29T14:31:24.911Z</time></trkpt><trkpt lat="42.370697375127655" lon="11.158197909078417"><ele>197.0</ele><time>2026-03-29T14:31:26.911Z</time></trkpt><trkpt lat="42.37072311268003" lon="11.15827791963845"><ele>197.0</ele><time>2026-03-29T14:31:27.911Z</time></trkpt><trkpt lat="42.37075350617392" lon="11.158354589109807"><ele>197.0</ele><time>2026-03-29T14:31:29.911Z</time></trkpt><trkpt lat="42.37080396176122" lon="11.158417419658786"><ele>197.00000000000003</ele><time>2026-03-29T14:31:57.91Z</time></trkpt><trkpt lat="42.37084582454225" lon="11.158500867641635"><ele>197.0</ele><time>2026-03-29T14:31:59.91Z</time></trkpt><trkpt lat="42.37085500887337" lon="11.158632240600316"><ele>199.50000000000003</ele><time>2026-03-29T14:33:11.911Z</time></trkpt><trkpt lat="42.37083729162669" lon="11.158722854108232"><ele>202.0</ele><time>2026-03-29T14:33:13.911Z</time></trkpt><trkpt lat="42.37081122079032" lon="11.15883066684714"><ele>204.5</ele><time>2026-03-29T14:33:15.911Z</time></trkpt><trkpt lat="42.370754369886825" lon="11.158932663764853"><ele>207.0</ele><time>2026-03-29T14:33:17.911Z</time></trkpt><trkpt lat="42.37071387053813" lon="11.159056589194412"><ele>209.50000000000003</ele><time>2026-03-29T14:33:19.91Z</time></trkpt><trkpt lat="42.37064984385213" lon="11.159133024391382"><ele>212.0</ele><time>2026-03-29T14:33:21.91Z</time></trkpt><trkpt lat="42.37057280305488" lon="11.159221371557022"><ele>210.0</ele><time>2026-03-29T14:33:23.91Z</time></trkpt><trkpt lat="42.370493220594305" lon="11.159307060477182"><ele>208.0</ele><time>2026-03-29T14:33:25.91Z</time></trkpt><trkpt lat="42.37041712361345" lon="11.159409277300316"><ele>206.0</ele><time>2026-03-29T14:33:27.91Z</time></trkpt><trkpt lat="42.37034098822375" lon="11.15951581861463"><ele>204.0</ele><time>2026-03-29T14:33:29.91Z</time></trkpt><trkpt lat="42.370320759188516" lon="11.159609875328567"><ele>202.0</ele><time>2026-03-29T14:33:31.91Z</time></trkpt><trkpt lat="42.37030501112237" lon="11.159741760740946"><ele>202.0</ele><time>2026-03-29T14:33:33.91Z</time></trkpt><trkpt lat="42.37029043328466" lon="11.159853431911177"><ele>202.0</ele><time>2026-03-29T14:33:35.91Z</time></trkpt><trkpt lat="42.37029183324072" lon="11.15996631820856"><ele>202.0</ele><time>2026-03-29T14:33:37.91Z</time></trkpt><trkpt lat="42.37034031572908" lon="11.160091964408872"><ele>202.0</ele><time>2026-03-29T14:33:39.91Z</time></trkpt><trkpt lat="42.37039434962979" lon="11.160256666582825"><ele>202.0</ele><time>2026-03-29T14:33:41.91Z</time></trkpt><trkpt lat="42.37044771467986" lon="11.160412518737644"><ele>204.16666666666666</ele><time>2026-03-29T14:33:43.91Z</time></trkpt><trkpt lat="42.37049549572601" lon="11.160554057948376"><ele>206.33333333333331</ele><time>2026-03-29T14:33:45.91Z</time></trkpt><trkpt lat="42.370536160399915" lon="11.160634801870417"><ele>208.5</ele><time>2026-03-29T14:33:46.91Z</time></trkpt><trkpt lat="42.37058225941019" lon="11.160706527412898"><ele>210.66666666666669</ele><time>2026-03-29T14:33:47.91Z</time></trkpt><trkpt lat="42.37062283039181" lon="11.1607769027718"><ele>212.83333333333334</ele><time>2026-03-29T14:33:48.91Z</time></trkpt><trkpt lat="42.37065903021858" lon="11.160859196254298"><ele>215.0</ele><time>2026-03-29T14:33:49.91Z</time></trkpt><trkpt lat="42.370689468668665" lon="11.160940121904472"><ele>216.66666666666669</ele><time>2026-03-29T14:33:50.91Z</time></trkpt><trkpt lat="42.37073298663008" lon="11.161077265898896"><ele>218.33333333333334</ele><time>2026-03-29T14:33:52.91Z</time></trkpt><trkpt lat="42.37074564568293" lon="11.16116640656408"><ele>220.0</ele><time>2026-03-29T14:33:54.91Z</time></trkpt><trkpt lat="42.370715271719014" lon="11.161283111711532"><ele>221.66666666666669</ele><time>2026-03-29T14:33:57.91Z</time></trkpt><trkpt lat="42.37069976714862" lon="11.161367179124428"><ele>223.33333333333334</ele><time>2026-03-29T14:33:59.91Z</time></trkpt><trkpt lat="42.37070211747942" lon="11.161469083944736"><ele>225.0</ele><time>2026-03-29T14:34:01.91Z</time></trkpt><trkpt lat="42.370721318145435" lon="11.16158955458211"><ele>225.0</ele><time>2026-03-29T14:34:03.91Z</time></trkpt><trkpt lat="42.37075372993691" lon="11.161736399991439"><ele>225.0</ele><time>2026-03-29T14:34:05.91Z</time></trkpt><trkpt lat="42.37077191697656" lon="11.1618827377371"><ele>225.0</ele><time>2026-03-29T14:34:07.91Z</time></trkpt><trkpt lat="42.37078404104179" lon="11.162025790285956"><ele>225.0</ele><time>2026-03-29T14:34:09.91Z</time></trkpt><trkpt lat="42.370805408042855" lon="11.162159193780566"><ele>225.0</ele><time>2026-03-29T14:34:11.909Z</time></trkpt><trkpt lat="42.37082478840884" lon="11.162256864337078"><ele>225.0</ele><time>2026-03-29T14:34:14.909Z</time></trkpt><trkpt lat="42.370875095744395" lon="11.162332453301385"><ele>225.0</ele><time>2026-03-29T14:43:19.905Z</time></trkpt><trkpt lat="42.370915348406236" lon="11.162457392854048"><ele>225.0</ele><time>2026-03-29T14:43:22.904Z</time></trkpt><trkpt lat="42.370904831413434" lon="11.162605913672262"><ele>225.0</ele><time>2026-03-29T14:43:24.904Z</time></trkpt><trkpt lat="42.37093943096627" lon="11.162700331415586"><ele>225.0</ele><time>2026-03-29T14:43:26.904Z</time></trkpt><trkpt lat="42.370946509212715" lon="11.162820463592569"><ele>223.5</ele><time>2026-03-29T14:43:28.904Z</time></trkpt><trkpt lat="42.370989347641064" lon="11.162938859001127"><ele>222.0</ele><time>2026-03-29T14:43:30.904Z</time></trkpt><trkpt lat="42.37101727270943" lon="11.16309424048878"><ele>220.5</ele><time>2026-03-29T14:43:32.904Z</time></trkpt><trkpt lat="42.37102732860016" lon="11.163185717142692"><ele>219.0</ele><time>2026-03-29T14:43:33.904Z</time></trkpt><trkpt lat="42.37103688297918" lon="11.163288067933925"><ele>217.5</ele><time>2026-03-29T14:43:34.903Z</time></trkpt><trkpt lat="42.37104493337614" lon="11.163401433384104"><ele>216.0</ele><time>2026-03-29T14:43:35.903Z</time></trkpt><trkpt lat="42.37105367669375" lon="11.163503174159802"><ele>214.8</ele><time>2026-03-29T14:43:36.903Z</time></trkpt><trkpt lat="42.371059859948765" lon="11.163593212486507"><ele>213.60000000000002</ele><time>2026-03-29T14:43:37.903Z</time></trkpt><trkpt lat="42.37104816073723" lon="11.163750807794074"><ele>212.4</ele><time>2026-03-29T14:43:39.903Z</time></trkpt><trkpt lat="42.3710268068038" lon="11.163875873389532"><ele>211.2</ele><time>2026-03-29T14:43:41.903Z</time></trkpt><trkpt lat="42.37099238748628" lon="11.1639876149059"><ele>210.0</ele><time>2026-03-29T14:43:43.903Z</time></trkpt><trkpt lat="42.370988734349545" lon="11.16410236534512"><ele>209.0</ele><time>2026-03-29T14:43:45.903Z</time></trkpt><trkpt lat="42.370975848631545" lon="11.164226553238013"><ele>208.0</ele><time>2026-03-29T14:43:47.903Z</time></trkpt><trkpt lat="42.370985021885275" lon="11.164382136656153"><ele>207.0</ele><time>2026-03-29T14:43:49.903Z</time></trkpt><trkpt lat="42.370990551207235" lon="11.164467786795461"><ele>206.0</ele><time>2026-03-29T14:43:50.903Z</time></trkpt><trkpt lat="42.37099286983016" lon="11.16461547193455"><ele>205.0</ele><time>2026-03-29T14:43:52.903Z</time></trkpt><trkpt lat="42.37099382404724" lon="11.164776286392161"><ele>204.0</ele><time>2026-03-29T14:43:54.903Z</time></trkpt><trkpt lat="42.371000131133506" lon="11.164933450279133"><ele>203.0</ele><time>2026-03-29T14:43:56.903Z</time></trkpt><trkpt lat="42.371002519700575" lon="11.165074772319114"><ele>202.0</ele><time>2026-03-29T14:43:58.903Z</time></trkpt><trkpt lat="42.37100782550853" lon="11.165213925234326"><ele>201.0</ele><time>2026-03-29T14:44:00.903Z</time></trkpt><trkpt lat="42.37100814302567" lon="11.165350048136633"><ele>200.0</ele><time>2026-03-29T14:44:02.903Z</time></trkpt><trkpt lat="42.370996625240124" lon="11.165491195680142"><ele>200.00000000000003</ele><time>2026-03-29T14:44:04.903Z</time></trkpt><trkpt lat="42.37098839345897" lon="11.16562259508615"><ele>200.0</ele><time>2026-03-29T14:44:06.903Z</time></trkpt><trkpt lat="42.37097411480056" lon="11.165748893548676"><ele>200.0</ele><time>2026-03-29T14:44:08.903Z</time></trkpt><trkpt lat="42.37096451334432" lon="11.16586834287211"><ele>200.0</ele><time>2026-03-29T14:44:10.903Z</time></trkpt><trkpt lat="42.370988373299475" lon="11.165960199067248"><ele>200.00000000000003</ele><time>2026-03-29T14:44:13.903Z</time></trkpt><trkpt lat="42.371025439555005" lon="11.166032377853622"><ele>200.0</ele><time>2026-03-29T14:44:16.903Z</time></trkpt><trkpt lat="42.371105212051866" lon="11.16608738597661"><ele>198.83333333333334</ele><time>2026-03-29T14:44:19.903Z</time></trkpt><trkpt lat="42.371181515400224" lon="11.166097472453613"><ele>197.66666666666669</ele><time>2026-03-29T14:44:21.903Z</time></trkpt><trkpt lat="42.371260392693586" lon="11.166099430504216"><ele>196.5</ele><time>2026-03-29T14:44:23.903Z</time></trkpt><trkpt lat="42.37133913071603" lon="11.166081686060743"><ele>195.33333333333331</ele><time>2026-03-29T14:44:25.902Z</time></trkpt><trkpt lat="42.37142541479765" lon="11.16609665985826"><ele>194.16666666666666</ele><time>2026-03-29T14:44:28.902Z</time></trkpt><trkpt lat="42.37148485458455" lon="11.166142320279759"><ele>193.0</ele><time>2026-03-29T14:44:31.902Z</time></trkpt><trkpt lat="42.37148712965289" lon="11.166266236854518"><ele>192.00000000000003</ele><time>2026-03-29T14:44:34.902Z</time></trkpt><trkpt lat="42.371434420114255" lon="11.16632622706403"><ele>191.0</ele><time>2026-03-29T14:44:36.902Z</time></trkpt><trkpt lat="42.37141202996086" lon="11.16641648967968"><ele>190.0</ele><time>2026-03-29T14:44:38.902Z</time></trkpt><trkpt lat="42.37138274593473" lon="11.166511982234441"><ele>189.0</ele><time>2026-03-29T14:44:40.902Z</time></trkpt><trkpt lat="42.37138982944056" lon="11.166608090016547"><ele>188.0</ele><time>2026-03-29T14:44:42.902Z</time></trkpt><trkpt lat="42.371398544369455" lon="11.166702200305567"><ele>187.00000000000003</ele><time>2026-03-29T14:44:44.902Z</time></trkpt><trkpt lat="42.37136569036753" lon="11.166812156227502"><ele>186.0</ele><time>2026-03-29T14:44:47.902Z</time></trkpt><trkpt lat="42.37132839810331" lon="11.166891404190453"><ele>186.00000000000003</ele><time>2026-03-29T14:44:49.902Z</time></trkpt><trkpt lat="42.37128164501956" lon="11.166987142394568"><ele>186.0</ele><time>2026-03-29T14:44:51.902Z</time></trkpt><trkpt lat="42.3712604235058" lon="11.167076570424303"><ele>186.0</ele><time>2026-03-29T14:44:53.902Z</time></trkpt><trkpt lat="42.371209323782494" lon="11.16713700785106"><ele>186.0</ele><time>2026-03-29T14:44:55.902Z</time></trkpt><trkpt lat="42.37117127712664" lon="11.167208654190354"><ele>186.0</ele><time>2026-03-29T14:44:57.902Z</time></trkpt><trkpt lat="42.37112999178381" lon="11.167286260759667"><ele>186.00000000000003</ele><time>2026-03-29T14:44:59.902Z</time></trkpt><trkpt lat="42.37111351304378" lon="11.167398275155673"><ele>186.0</ele><time>2026-03-29T14:45:01.902Z</time></trkpt><trkpt lat="42.37108218264013" lon="11.167522072525077"><ele>185.16666666666666</ele><time>2026-03-29T14:45:03.902Z</time></trkpt><trkpt lat="42.37102653297086" lon="11.16764419811306"><ele>184.33333333333334</ele><time>2026-03-29T14:45:05.902Z</time></trkpt><trkpt lat="42.37097563312071" lon="11.167777152883186"><ele>183.5</ele><time>2026-03-29T14:45:07.902Z</time></trkpt><trkpt lat="42.37094582165382" lon="11.16786409758236"><ele>182.66666666666669</ele><time>2026-03-29T14:45:09.902Z</time></trkpt><trkpt lat="42.37093070308781" lon="11.167956726156314"><ele>181.83333333333334</ele><time>2026-03-29T14:45:24.904Z</time></trkpt><trkpt lat="42.370901982809364" lon="11.168053281324264"><ele>181.0</ele><time>2026-03-29T14:47:49.901Z</time></trkpt><trkpt lat="42.370869622145136" lon="11.168142931187555"><ele>182.16666666666669</ele><time>2026-03-29T14:47:51.901Z</time></trkpt><trkpt lat="42.37083695281117" lon="11.16822344801829"><ele>183.33333333333334</ele><time>2026-03-29T14:47:53.901Z</time></trkpt><trkpt lat="42.37078962651073" lon="11.168328124021253"><ele>184.5</ele><time>2026-03-29T14:47:55.901Z</time></trkpt><trkpt lat="42.37076401786012" lon="11.168449577914759"><ele>185.66666666666666</ele><time>2026-03-29T14:47:57.901Z</time></trkpt><trkpt lat="42.37073857352621" lon="11.168555586893799"><ele>186.83333333333331</ele><time>2026-03-29T14:47:59.901Z</time></trkpt><trkpt lat="42.370724438101995" lon="11.168659232206785"><ele>188.0</ele><time>2026-03-29T14:48:01.901Z</time></trkpt><trkpt lat="42.370730538037385" lon="11.168775759192721"><ele>188.0</ele><time>2026-03-29T14:48:03.901Z</time></trkpt><trkpt lat="42.37074088841763" lon="11.168912189004912"><ele>188.0</ele><time>2026-03-29T14:48:05.901Z</time></trkpt><trkpt lat="42.37077772898381" lon="11.169046500065424"><ele>188.0</ele><time>2026-03-29T14:48:07.901Z</time></trkpt><trkpt lat="42.37079770447543" lon="11.169182818021667"><ele>188.0</ele><time>2026-03-29T14:48:09.901Z</time></trkpt><trkpt lat="42.37079286488383" lon="11.16928522646177"><ele>188.0</ele><time>2026-03-29T14:48:11.901Z</time></trkpt><trkpt lat="42.37080495386728" lon="11.169372002190013"><ele>187.5</ele><time>2026-03-29T14:48:13.901Z</time></trkpt><trkpt lat="42.370801613285856" lon="11.169491647283321"><ele>187.0</ele><time>2026-03-29T14:48:16.901Z</time></trkpt><trkpt lat="42.37077357420835" lon="11.169596687225772"><ele>186.5</ele><time>2026-03-29T14:48:19.9Z</time></trkpt><trkpt lat="42.370742284858444" lon="11.169704884427071"><ele>186.0</ele><time>2026-03-29T14:48:21.9Z</time></trkpt><trkpt lat="42.37069579571281" lon="11.169806334627822"><ele>185.5</ele><time>2026-03-29T14:48:23.9Z</time></trkpt><trkpt lat="42.370649291411105" lon="11.169891587482775"><ele>185.0</ele><time>2026-03-29T14:48:25.9Z</time></trkpt><trkpt lat="42.37060457540165" lon="11.169974453764889"><ele>184.0</ele><time>2026-03-29T14:48:27.9Z</time></trkpt><trkpt lat="42.37058302539337" lon="11.170054847999857"><ele>183.0</ele><time>2026-03-29T14:48:31.9Z</time></trkpt><trkpt lat="42.370595945877724" lon="11.170159016963167"><ele>182.0</ele><time>2026-03-29T14:48:36.9Z</time></trkpt><trkpt lat="42.370694545333755" lon="11.17018949580916"><ele>181.0</ele><time>2026-03-29T14:48:37.9Z</time></trkpt><trkpt lat="42.37075581976156" lon="11.170248091119381"><ele>180.0</ele><time>2026-03-29T14:48:38.9Z</time></trkpt><trkpt lat="42.37081589560416" lon="11.17028825216318"><ele>179.0</ele><time>2026-03-29T14:48:39.9Z</time></trkpt><trkpt lat="42.37091610693577" lon="11.170343953740293"><ele>179.0</ele><time>2026-03-29T14:48:41.9Z</time></trkpt><trkpt lat="42.37103147663555" lon="11.170403887368298"><ele>179.0</ele><time>2026-03-29T14:48:43.9Z</time></trkpt><trkpt lat="42.371094752670686" lon="11.170408420912914"><ele>179.0</ele><time>2026-03-29T14:48:44.9Z</time></trkpt><trkpt lat="42.37120079040199" lon="11.170454320862154"><ele>179.0</ele><time>2026-03-29T14:48:46.9Z</time></trkpt><trkpt lat="42.37129832312218" lon="11.170501332401212"><ele>179.0</ele><time>2026-03-29T14:48:48.9Z</time></trkpt><trkpt lat="42.371392481659285" lon="11.170504553734848"><ele>177.5</ele><time>2026-03-29T14:48:50.9Z</time></trkpt><trkpt lat="42.37149041331466" lon="11.170576762566379"><ele>176.0</ele><time>2026-03-29T14:48:52.9Z</time></trkpt><trkpt lat="42.37158679008613" lon="11.170619894046405"><ele>174.5</ele><time>2026-03-29T14:48:54.9Z</time></trkpt><trkpt lat="42.371695336980636" lon="11.17068250383765"><ele>173.0</ele><time>2026-03-29T14:48:56.9Z</time></trkpt><trkpt lat="42.37180360500118" lon="11.170747769907855"><ele>173.0</ele><time>2026-03-29T14:48:58.9Z</time></trkpt><trkpt lat="42.37188305576091" lon="11.170844306040914"><ele>173.0</ele><time>2026-03-29T14:49:00.9Z</time></trkpt><trkpt lat="42.371938770793804" lon="11.170947718616247"><ele>173.0</ele><time>2026-03-29T14:49:02.9Z</time></trkpt><trkpt lat="42.371983690822724" lon="11.171059078753023"><ele>173.0</ele><time>2026-03-29T14:49:04.9Z</time></trkpt><trkpt lat="42.372033420691466" lon="11.171189680452056"><ele>173.0</ele><time>2026-03-29T14:49:06.9Z</time></trkpt><trkpt lat="42.372074743270204" lon="11.171338034032496"><ele>173.0</ele><time>2026-03-29T14:49:08.899Z</time></trkpt><trkpt lat="42.372118443034324" lon="11.17150207472862"><ele>173.0</ele><time>2026-03-29T14:49:10.899Z</time></trkpt><trkpt lat="42.37214632506857" lon="11.171642784412757"><ele>173.0</ele><time>2026-03-29T14:49:12.899Z</time></trkpt><trkpt lat="42.37217010879084" lon="11.171786953912253"><ele>173.0</ele><time>2026-03-29T14:49:14.899Z</time></trkpt><trkpt lat="42.37218947898498" lon="11.171909298906408"><ele>173.0</ele><time>2026-03-29T14:49:16.899Z</time></trkpt><trkpt lat="42.372217554637864" lon="11.172014101757592"><ele>172.85714285714286</ele><time>2026-03-29T14:49:18.899Z</time></trkpt><trkpt lat="42.372235815561574" lon="11.172110946330603"><ele>172.71428571428572</ele><time>2026-03-29T14:49:20.899Z</time></trkpt><trkpt lat="42.37225619045989" lon="11.172211129632318"><ele>172.57142857142858</ele><time>2026-03-29T14:49:22.899Z</time></trkpt><trkpt lat="42.372284455039484" lon="11.172303869408294"><ele>172.42857142857144</ele><time>2026-03-29T14:49:24.899Z</time></trkpt><trkpt lat="42.37231471430224" lon="11.172397336862387"><ele>172.28571428571428</ele><time>2026-03-29T14:49:26.899Z</time></trkpt><trkpt lat="42.372351087498835" lon="11.172482664719062"><ele>172.14285714285717</ele><time>2026-03-29T14:49:28.899Z</time></trkpt><trkpt lat="42.372388037772474" lon="11.17256774304501"><ele>172.0</ele><time>2026-03-29T14:49:30.9Z</time></trkpt><trkpt lat="42.37241467611832" lon="11.172666542182528"><ele>172.0</ele><time>2026-03-29T14:49:32.9Z</time></trkpt><trkpt lat="42.37244540907213" lon="11.172781803153601"><ele>172.0</ele><time>2026-03-29T14:49:34.899Z</time></trkpt><trkpt lat="42.372483580535025" lon="11.172900377398319"><ele>172.0</ele><time>2026-03-29T14:49:36.9Z</time></trkpt><trkpt lat="42.372520826948225" lon="11.1730064387896"><ele>172.0</ele><time>2026-03-29T14:49:38.9Z</time></trkpt><trkpt lat="42.37257759537813" lon="11.173071183511041"><ele>172.0</ele><time>2026-03-29T14:49:40.9Z</time></trkpt><trkpt lat="42.37264021222231" lon="11.173126924347141"><ele>172.0</ele><time>2026-03-29T14:49:42.9Z</time></trkpt><trkpt lat="42.37271359757345" lon="11.173183650324571"><ele>174.2</ele><time>2026-03-29T14:49:44.9Z</time></trkpt><trkpt lat="42.37278698720943" lon="11.173254916445885"><ele>176.39999999999998</ele><time>2026-03-29T14:49:46.9Z</time></trkpt><trkpt lat="42.37286030357134" lon="11.173350543165785"><ele>178.60000000000002</ele><time>2026-03-29T14:49:48.9Z</time></trkpt><trkpt lat="42.3729285596443" lon="11.17344629929253"><ele>180.8</ele><time>2026-03-29T14:49:50.899Z</time></trkpt><trkpt lat="42.37298909544053" lon="11.173538512742379"><ele>183.0</ele><time>2026-03-29T14:49:52.899Z</time></trkpt><trkpt lat="42.37305388707057" lon="11.173620452667471"><ele>183.0</ele><time>2026-03-29T14:49:54.899Z</time></trkpt><trkpt lat="42.37311962458138" lon="11.17371584429437"><ele>183.0</ele><time>2026-03-29T14:49:56.899Z</time></trkpt><trkpt lat="42.37318167186674" lon="11.173792728455698"><ele>183.0</ele><time>2026-03-29T14:49:58.899Z</time></trkpt><trkpt lat="42.37321832525231" lon="11.17387647715759"><ele>183.0</ele><time>2026-03-29T14:50:00.899Z</time></trkpt><trkpt lat="42.37325071138913" lon="11.173993406392539"><ele>183.0</ele><time>2026-03-29T14:50:02.899Z</time></trkpt><trkpt lat="42.37329046859499" lon="11.174150781369674"><ele>180.16666666666666</ele><time>2026-03-29T14:50:04.899Z</time></trkpt><trkpt lat="42.37333167906314" lon="11.174299388349832"><ele>177.33333333333334</ele><time>2026-03-29T14:50:06.899Z</time></trkpt><trkpt lat="42.37337212165951" lon="11.174449275640672"><ele>174.5</ele><time>2026-03-29T14:50:08.899Z</time></trkpt><trkpt lat="42.37339711712311" lon="11.17452940115063"><ele>171.66666666666669</ele><time>2026-03-29T14:50:09.899Z</time></trkpt><trkpt lat="42.37341180100747" lon="11.174614761051103"><ele>168.83333333333334</ele><time>2026-03-29T14:50:10.899Z</time></trkpt><trkpt lat="42.37343368572915" lon="11.174702650810072"><ele>166.0</ele><time>2026-03-29T14:50:11.899Z</time></trkpt><trkpt lat="42.37345803293768" lon="11.17478132474954"><ele>163.8</ele><time>2026-03-29T14:50:12.899Z</time></trkpt><trkpt lat="42.37348710137056" lon="11.174911760918116"><ele>161.60000000000002</ele><time>2026-03-29T14:50:14.899Z</time></trkpt><trkpt lat="42.3735279305657" lon="11.175041974403731"><ele>159.4</ele><time>2026-03-29T14:50:16.899Z</time></trkpt><trkpt lat="42.37358040037604" lon="11.175144466543596"><ele>157.2</ele><time>2026-03-29T14:50:18.899Z</time></trkpt><trkpt lat="42.37360387807875" lon="11.175236012736999"><ele>155.0</ele><time>2026-03-29T14:50:20.899Z</time></trkpt><trkpt lat="42.373677941867456" lon="11.17532232552303"><ele>155.0</ele><time>2026-03-29T14:50:22.899Z</time></trkpt><trkpt lat="42.37374595283402" lon="11.17542051403657"><ele>155.0</ele><time>2026-03-29T14:50:24.899Z</time></trkpt><trkpt lat="42.37378697410967" lon="11.175500363325437"><ele>155.0</ele><time>2026-03-29T14:50:26.899Z</time></trkpt><trkpt lat="42.37380878414111" lon="11.175624658666342"><ele>155.0</ele><time>2026-03-29T14:50:28.899Z</time></trkpt><trkpt lat="42.37377665638474" lon="11.175789245806719"><ele>155.0</ele><time>2026-03-29T14:50:30.899Z</time></trkpt><trkpt lat="42.37374481670888" lon="11.175878806235593"><ele>154.85714285714286</ele><time>2026-03-29T14:50:31.899Z</time></trkpt><trkpt lat="42.373697379606995" lon="11.175960976009135"><ele>154.71428571428572</ele><time>2026-03-29T14:50:32.899Z</time></trkpt><trkpt lat="42.373649729069925" lon="11.176030670254711"><ele>154.57142857142856</ele><time>2026-03-29T14:50:33.899Z</time></trkpt><trkpt lat="42.373616760007906" lon="11.176119070344308"><ele>154.42857142857144</ele><time>2026-03-29T14:50:34.899Z</time></trkpt><trkpt lat="42.3735765848506" lon="11.17619992588909"><ele>154.28571428571428</ele><time>2026-03-29T14:50:35.899Z</time></trkpt><trkpt lat="42.37353287613358" lon="11.176275890945382"><ele>154.14285714285714</ele><time>2026-03-29T14:50:36.899Z</time></trkpt><trkpt lat="42.37348170741573" lon="11.176351222094796"><ele>154.0</ele><time>2026-03-29T14:50:37.899Z</time></trkpt><trkpt lat="42.373432748080425" lon="11.17641795493213"><ele>159.25</ele><time>2026-03-29T14:50:38.899Z</time></trkpt><trkpt lat="42.37333690241016" lon="11.176529458884142"><ele>164.5</ele><time>2026-03-29T14:50:40.899Z</time></trkpt><trkpt lat="42.373246299615865" lon="11.176623505411845"><ele>169.75</ele><time>2026-03-29T14:50:42.898Z</time></trkpt><trkpt lat="42.373171542207366" lon="11.176731254942888"><ele>175.0</ele><time>2026-03-29T14:50:44.898Z</time></trkpt><trkpt lat="42.37307395558161" lon="11.176796232446232"><ele>170.83333333333334</ele><time>2026-03-29T14:50:46.898Z</time></trkpt><trkpt lat="42.373014206120864" lon="11.176833800146522"><ele>166.66666666666669</ele><time>2026-03-29T14:50:47.898Z</time></trkpt><trkpt lat="42.37295471561581" lon="11.176876148004744"><ele>162.5</ele><time>2026-03-29T14:50:48.898Z</time></trkpt><trkpt lat="42.37289855121732" lon="11.176916492272161"><ele>158.33333333333334</ele><time>2026-03-29T14:50:49.898Z</time></trkpt><trkpt lat="42.372790842945605" lon="11.176963511800688"><ele>154.16666666666666</ele><time>2026-03-29T14:50:51.898Z</time></trkpt><trkpt lat="42.37270059832707" lon="11.176984361804337"><ele>150.0</ele><time>2026-03-29T14:50:53.898Z</time></trkpt><trkpt lat="42.37261859688273" lon="11.176998593478555"><ele>150.0</ele><time>2026-03-29T14:50:55.898Z</time></trkpt><trkpt lat="42.37251167453413" lon="11.177025369514965"><ele>150.0</ele><time>2026-03-29T14:50:57.898Z</time></trkpt><trkpt lat="42.37244951571538" lon="11.17704851654526"><ele>150.0</ele><time>2026-03-29T14:50:58.898Z</time></trkpt><trkpt lat="42.372378901208364" lon="11.177077291130654"><ele>150.0</ele><time>2026-03-29T14:50:59.898Z</time></trkpt><trkpt lat="42.37231331596739" lon="11.177110606622131"><ele>150.0</ele><time>2026-03-29T14:51:00.898Z</time></trkpt><trkpt lat="42.37225111171827" lon="11.177133032058398"><ele>150.0</ele><time>2026-03-29T14:51:01.898Z</time></trkpt><trkpt lat="42.37213258897642" lon="11.177174660620166"><ele>152.5</ele><time>2026-03-29T14:51:03.898Z</time></trkpt><trkpt lat="42.372029919942655" lon="11.177240557060957"><ele>155.0</ele><time>2026-03-29T14:51:05.898Z</time></trkpt><trkpt lat="42.37194490190744" lon="11.17734383335777"><ele>157.5</ele><time>2026-03-29T14:51:07.898Z</time></trkpt><trkpt lat="42.371873597562946" lon="11.177470681158542"><ele>160.0</ele><time>2026-03-29T14:51:09.898Z</time></trkpt><trkpt lat="42.37178758941072" lon="11.177574755051825"><ele>160.0</ele><time>2026-03-29T14:51:11.898Z</time></trkpt><trkpt lat="42.37172128809104" lon="11.177707871043939"><ele>160.0</ele><time>2026-03-29T14:51:13.898Z</time></trkpt><trkpt lat="42.37163086017142" lon="11.177818417459381"><ele>160.0</ele><time>2026-03-29T14:51:15.898Z</time></trkpt><trkpt lat="42.371573562430974" lon="11.17792551883057"><ele>160.0</ele><time>2026-03-29T14:51:17.898Z</time></trkpt><trkpt lat="42.371529439520984" lon="11.17802767165903"><ele>160.0</ele><time>2026-03-29T14:51:19.898Z</time></trkpt><trkpt lat="42.37153173995919" lon="11.178135369821367"><ele>162.6</ele><time>2026-03-29T14:51:21.898Z</time></trkpt><trkpt lat="42.37158183599457" lon="11.178285342636165"><ele>165.2</ele><time>2026-03-29T14:51:23.898Z</time></trkpt><trkpt lat="42.37161834481836" lon="11.178365458193785"><ele>167.8</ele><time>2026-03-29T14:51:24.898Z</time></trkpt><trkpt lat="42.37167437505832" lon="11.17850002845419"><ele>170.4</ele><time>2026-03-29T14:51:26.898Z</time></trkpt><trkpt lat="42.371718940914384" lon="11.178625123562856"><ele>173.0</ele><time>2026-03-29T14:51:28.898Z</time></trkpt><trkpt lat="42.371755046497306" lon="11.178742367007384"><ele>173.0</ele><time>2026-03-29T14:51:30.898Z</time></trkpt><trkpt lat="42.37174966357037" lon="11.178848468613795"><ele>173.0</ele><time>2026-03-29T14:51:32.897Z</time></trkpt><trkpt lat="42.37172149987293" lon="11.17895808469991"><ele>173.0</ele><time>2026-03-29T14:51:34.897Z</time></trkpt><trkpt lat="42.371684680248" lon="11.179072651763994"><ele>173.0</ele><time>2026-03-29T14:51:36.899Z</time></trkpt><trkpt lat="42.371631748999754" lon="11.179166487371736"><ele>173.0</ele><time>2026-03-29T14:51:38.899Z</time></trkpt><trkpt lat="42.37157962883041" lon="11.179240385123745"><ele>173.0</ele><time>2026-03-29T14:51:40.899Z</time></trkpt><trkpt lat="42.37153463868824" lon="11.179320926096485"><ele>173.83333333333331</ele><time>2026-03-29T14:51:42.899Z</time></trkpt><trkpt lat="42.371473333536066" lon="11.179408095002689"><ele>174.66666666666666</ele><time>2026-03-29T14:51:44.899Z</time></trkpt><trkpt lat="42.37142160255657" lon="11.179482456613705"><ele>175.5</ele><time>2026-03-29T14:51:46.899Z</time></trkpt><trkpt lat="42.37137040661289" lon="11.1795796321365"><ele>176.33333333333334</ele><time>2026-03-29T14:51:48.899Z</time></trkpt><trkpt lat="42.37131827765559" lon="11.179694176900066"><ele>177.16666666666669</ele><time>2026-03-29T14:51:50.899Z</time></trkpt><trkpt lat="42.37126614068838" lon="11.179791983448416"><ele>178.0</ele><time>2026-03-29T14:51:52.899Z</time></trkpt><trkpt lat="42.371216708372025" lon="11.179893395925708"><ele>174.16666666666669</ele><time>2026-03-29T14:51:54.899Z</time></trkpt><trkpt lat="42.371165616649904" lon="11.180007723815768"><ele>170.33333333333334</ele><time>2026-03-29T14:51:56.899Z</time></trkpt><trkpt lat="42.37112508459015" lon="11.180073698298491"><ele>166.5</ele><time>2026-03-29T14:51:57.899Z</time></trkpt><trkpt lat="42.37107605523975" lon="11.18012777225845"><ele>162.66666666666666</ele><time>2026-03-29T14:51:58.899Z</time></trkpt><trkpt lat="42.37098460352833" lon="11.180226251910447"><ele>158.83333333333331</ele><time>2026-03-29T14:52:00.899Z</time></trkpt><trkpt lat="42.37093215500404" lon="11.180279880207229"><ele>155.0</ele><time>2026-03-29T14:52:01.899Z</time></trkpt><trkpt lat="42.37087581404275" lon="11.180326200406638"><ele>155.0</ele><time>2026-03-29T14:52:02.899Z</time></trkpt><trkpt lat="42.37079016389078" lon="11.180423208209092"><ele>155.0</ele><time>2026-03-29T14:52:04.899Z</time></trkpt><trkpt lat="42.37074422296851" lon="11.180534668722165"><ele>155.0</ele><time>2026-03-29T14:52:06.899Z</time></trkpt><trkpt lat="42.370728807511526" lon="11.180639154417081"><ele>155.0</ele><time>2026-03-29T14:52:08.899Z</time></trkpt><trkpt lat="42.370665396580556" lon="11.180732142177904"><ele>155.0</ele><time>2026-03-29T14:52:10.899Z</time></trkpt><trkpt lat="42.37059390774483" lon="11.180829908243393"><ele>153.0</ele><time>2026-03-29T14:52:12.899Z</time></trkpt><trkpt lat="42.37050838186687" lon="11.18090164926124"><ele>151.0</ele><time>2026-03-29T14:52:14.899Z</time></trkpt><trkpt lat="42.3704090933585" lon="11.18097843224925"><ele>149.0</ele><time>2026-03-29T14:52:16.899Z</time></trkpt><trkpt lat="42.370328412426616" lon="11.18106772025363"><ele>147.0</ele><time>2026-03-29T14:52:18.899Z</time></trkpt><trkpt lat="42.370280841410214" lon="11.181182397187632"><ele>145.0</ele><time>2026-03-29T14:52:20.899Z</time></trkpt><trkpt lat="42.37025397953088" lon="11.181306640083141"><ele>145.0</ele><time>2026-03-29T14:52:22.899Z</time></trkpt><trkpt lat="42.37026243222791" lon="11.181433108636833"><ele>145.0</ele><time>2026-03-29T14:52:24.899Z</time></trkpt><trkpt lat="42.37028973424937" lon="11.18154304129734"><ele>145.0</ele><time>2026-03-29T14:52:26.899Z</time></trkpt><trkpt lat="42.37032735276079" lon="11.181646679670791"><ele>145.0</ele><time>2026-03-29T14:52:28.898Z</time></trkpt><trkpt lat="42.37037404442015" lon="11.181740089515769"><ele>145.0</ele><time>2026-03-29T14:52:30.898Z</time></trkpt><trkpt lat="42.37042788900041" lon="11.18180739306949"><ele>145.0</ele><time>2026-03-29T14:52:32.898Z</time></trkpt><trkpt lat="42.37051756480129" lon="11.181857459684885"><ele>150.33333333333334</ele><time>2026-03-29T14:52:35.901Z</time></trkpt><trkpt lat="42.3705905741107" lon="11.18187472361887"><ele>155.66666666666669</ele><time>2026-03-29T14:52:37.906Z</time></trkpt><trkpt lat="42.370667795470474" lon="11.181868593409991"><ele>161.0</ele><time>2026-03-29T14:52:39.91Z</time></trkpt><trkpt lat="42.37075273335261" lon="11.181866274923632"><ele>166.33333333333334</ele><time>2026-03-29T14:52:41.913Z</time></trkpt><trkpt lat="42.37084689501381" lon="11.1818635817113"><ele>171.66666666666666</ele><time>2026-03-29T14:52:43.917Z</time></trkpt><trkpt lat="42.370948368348884" lon="11.181851496774689"><ele>177.0</ele><time>2026-03-29T14:52:45.919Z</time></trkpt><trkpt lat="42.371062449686896" lon="11.181852899700763"><ele>177.0</ele><time>2026-03-29T14:52:47.922Z</time></trkpt><trkpt lat="42.371192325113874" lon="11.181858099291327"><ele>177.0</ele><time>2026-03-29T14:52:49.924Z</time></trkpt><trkpt lat="42.37125889710132" lon="11.18187013578897"><ele>177.0</ele><time>2026-03-29T14:52:50.925Z</time></trkpt><trkpt lat="42.37132442752168" lon="11.181876728427028"><ele>177.0</ele><time>2026-03-29T14:52:51.926Z</time></trkpt><trkpt lat="42.371392218327266" lon="11.18188679018301"><ele>177.0</ele><time>2026-03-29T14:52:52.927Z</time></trkpt><trkpt lat="42.37145660777859" lon="11.181896023245818"><ele>177.0</ele><time>2026-03-29T14:52:53.928Z</time></trkpt><trkpt lat="42.37152392838259" lon="11.181895485345102"><ele>176.39999999999998</ele><time>2026-03-29T14:52:54.928Z</time></trkpt><trkpt lat="42.371596840969985" lon="11.18188740814274"><ele>175.79999999999998</ele><time>2026-03-29T14:52:55.929Z</time></trkpt><trkpt lat="42.371663806318516" lon="11.18188206838755"><ele>175.2</ele><time>2026-03-29T14:52:56.93Z</time></trkpt><trkpt lat="42.37177948205745" lon="11.181910647767754"><ele>174.6</ele><time>2026-03-29T14:52:58.931Z</time></trkpt><trkpt lat="42.37189914179182" lon="11.181942467756052"><ele>174.0</ele><time>2026-03-29T14:53:00.932Z</time></trkpt><trkpt lat="42.372005966746535" lon="11.18197499202826"><ele>174.0</ele><time>2026-03-29T14:53:02.933Z</time></trkpt><trkpt lat="42.372105041489036" lon="11.181994644502238"><ele>174.0</ele><time>2026-03-29T14:53:04.934Z</time></trkpt><trkpt lat="42.37219392825199" lon="11.182009659321434"><ele>174.0</ele><time>2026-03-29T14:53:06.934Z</time></trkpt><trkpt lat="42.37228196889209" lon="11.182048249121868"><ele>174.0</ele><time>2026-03-29T14:53:08.935Z</time></trkpt><trkpt lat="42.372368276751715" lon="11.182105490585363"><ele>174.0</ele><time>2026-03-29T14:53:10.936Z</time></trkpt><trkpt lat="42.37245958439346" lon="11.182144050391202"><ele>172.6</ele><time>2026-03-29T14:53:12.936Z</time></trkpt><trkpt lat="42.372543198576885" lon="11.182185805982023"><ele>171.2</ele><time>2026-03-29T14:53:14.937Z</time></trkpt><trkpt lat="42.37263900812411" lon="11.182235864079354"><ele>169.79999999999998</ele><time>2026-03-29T14:53:16.937Z</time></trkpt><trkpt lat="42.372729979954556" lon="11.18226979464123"><ele>168.39999999999998</ele><time>2026-03-29T14:53:18.937Z</time></trkpt><trkpt lat="42.3728239659263" lon="11.182267976867193"><ele>167.0</ele><time>2026-03-29T14:53:20.937Z</time></trkpt><trkpt lat="42.3729132102103" lon="11.182299035030917"><ele>167.0</ele><time>2026-03-29T14:53:22.938Z</time></trkpt><trkpt lat="42.37301038525264" lon="11.182296226047548"><ele>167.0</ele><time>2026-03-29T14:53:24.938Z</time></trkpt><trkpt lat="42.373118094290284" lon="11.182222039899315"><ele>167.0</ele><time>2026-03-29T14:53:26.938Z</time></trkpt><trkpt lat="42.373203520031836" lon="11.182135758503673"><ele>167.0</ele><time>2026-03-29T14:53:28.938Z</time></trkpt><trkpt lat="42.37330058871438" lon="11.18205274080545"><ele>167.0</ele><time>2026-03-29T14:53:30.938Z</time></trkpt><trkpt lat="42.37338308767748" lon="11.181997146308957"><ele>167.83333333333331</ele><time>2026-03-29T14:53:32.939Z</time></trkpt><trkpt lat="42.37347337728997" lon="11.181950990451133"><ele>168.66666666666666</ele><time>2026-03-29T14:53:34.939Z</time></trkpt><trkpt lat="42.37356844106567" lon="11.181912089593474"><ele>169.5</ele><time>2026-03-29T14:53:36.939Z</time></trkpt><trkpt lat="42.373647675778116" lon="11.181884846287868"><ele>170.33333333333334</ele><time>2026-03-29T14:53:38.939Z</time></trkpt><trkpt lat="42.37371216673418" lon="11.181870502798404"><ele>171.16666666666669</ele><time>2026-03-29T14:53:42Z</time></trkpt><trkpt lat="42.37379571867071" lon="11.181877426745514"><ele>172.0</ele><time>2026-03-29T14:53:45Z</time></trkpt><trkpt lat="42.37386306003748" lon="11.181910902113362"><ele>172.0</ele><time>2026-03-29T14:53:48Z</time></trkpt><trkpt lat="42.37391558167937" lon="11.181983230989864"><ele>172.0</ele><time>2026-03-29T14:53:51Z</time></trkpt><trkpt lat="42.37394058758765" lon="11.182095298380549"><ele>172.0</ele><time>2026-03-29T14:53:53Z</time></trkpt><trkpt lat="42.37383914516303" lon="11.182213312951506"><ele>172.0</ele><time>2026-03-29T14:53:54Z</time></trkpt><trkpt lat="42.3738000088763" lon="11.182332655310478"><ele>172.0</ele><time>2026-03-29T14:53:57Z</time></trkpt><trkpt lat="42.37371153051269" lon="11.182365903694214"><ele>165.2</ele><time>2026-03-29T14:53:59Z</time></trkpt><trkpt lat="42.37361808427509" lon="11.182373498710092"><ele>158.39999999999998</ele><time>2026-03-29T14:54:02Z</time></trkpt><trkpt lat="42.373527908317335" lon="11.182421234490919"><ele>151.60000000000002</ele><time>2026-03-29T14:54:05Z</time></trkpt><trkpt lat="42.37346220317607" lon="11.182471020318607"><ele>144.8</ele><time>2026-03-29T14:54:08Z</time></trkpt><trkpt lat="42.37347463126611" lon="11.182704060177183"><ele>138.0</ele><time>2026-03-29T14:54:10Z</time></trkpt><trkpt lat="42.373505782774245" lon="11.182825344725432"><ele>138.0</ele><time>2026-03-29T14:54:12Z</time></trkpt><trkpt lat="42.37355846414472" lon="11.1829119115761"><ele>138.0</ele><time>2026-03-29T14:54:14Z</time></trkpt><trkpt lat="42.373630472670634" lon="11.182941672683384"><ele>138.0</ele><time>2026-03-29T14:54:16Z</time></trkpt><trkpt lat="42.37370341340516" lon="11.18290365056913"><ele>138.0</ele><time>2026-03-29T14:54:18Z</time></trkpt><trkpt lat="42.37377632427483" lon="11.182921109796155"><ele>138.0</ele><time>2026-03-29T14:54:20Z</time></trkpt><trkpt lat="42.37385542645343" lon="11.182945341590717"><ele>138.0</ele><time>2026-03-29T14:54:23Z</time></trkpt><trkpt lat="42.37394983453199" lon="11.18299989665922"><ele>139.5</ele><time>2026-03-29T14:54:26Z</time></trkpt><trkpt lat="42.37403283742783" lon="11.183092278648731"><ele>141.0</ele><time>2026-03-29T14:54:28.001Z</time></trkpt><trkpt lat="42.37407006991426" lon="11.183167618155737"><ele>142.5</ele><time>2026-03-29T14:54:29.001Z</time></trkpt><trkpt lat="42.37415694097708" lon="11.18326359887863"><ele>144.0</ele><time>2026-03-29T14:54:31.001Z</time></trkpt><trkpt lat="42.37420528758667" lon="11.183353738633812"><ele>145.5</ele><time>2026-03-29T14:54:33.001Z</time></trkpt><trkpt lat="42.37418909936564" lon="11.183459343621617"><ele>147.0</ele><time>2026-03-29T14:54:35.001Z</time></trkpt><trkpt lat="42.37409885415839" lon="11.183518729307309"><ele>142.4</ele><time>2026-03-29T14:54:37.001Z</time></trkpt><trkpt lat="42.37398385065824" lon="11.18355857229488"><ele>137.79999999999998</ele><time>2026-03-29T14:54:39.001Z</time></trkpt><trkpt lat="42.37390602990325" lon="11.183659603979837"><ele>133.2</ele><time>2026-03-29T14:54:41.001Z</time></trkpt><trkpt lat="42.37383024765874" lon="11.183755647500918"><ele>128.6</ele><time>2026-03-29T14:54:43.001Z</time></trkpt><trkpt lat="42.37376841607594" lon="11.183866306291927"><ele>124.0</ele><time>2026-03-29T14:54:45.001Z</time></trkpt><trkpt lat="42.37372048119265" lon="11.18397346112109"><ele>121.00000000000001</ele><time>2026-03-29T14:54:47.001Z</time></trkpt><trkpt lat="42.37373762313147" lon="11.184099822402954"><ele>118.0</ele><time>2026-03-29T14:54:49.001Z</time></trkpt><trkpt lat="42.37380381624916" lon="11.184109263287867"><ele>115.0</ele><time>2026-03-29T14:54:50.001Z</time></trkpt><trkpt lat="42.37388306381561" lon="11.184149479922686"><ele>112.0</ele><time>2026-03-29T14:54:52Z</time></trkpt><trkpt lat="42.3739932673938" lon="11.184224861930684"><ele>109.00000000000001</ele><time>2026-03-29T14:54:54Z</time></trkpt><trkpt lat="42.37405700135739" lon="11.18426742989131"><ele>106.0</ele><time>2026-03-29T14:54:55Z</time></trkpt><trkpt lat="42.37410958173451" lon="11.184325746887971"><ele>104.66666666666667</ele><time>2026-03-29T14:54:56Z</time></trkpt><trkpt lat="42.37419421621451" lon="11.184418127361697"><ele>103.33333333333334</ele><time>2026-03-29T14:54:58Z</time></trkpt><trkpt lat="42.374224916228314" lon="11.184504535854886"><ele>102.0</ele><time>2026-03-29T14:55:00Z</time></trkpt><trkpt lat="42.37424423536435" lon="11.184590932916043"><ele>100.66666666666666</ele><time>2026-03-29T14:55:02Z</time></trkpt><trkpt lat="42.37425012517681" lon="11.184679993375239"><ele>99.33333333333333</ele><time>2026-03-29T14:55:04Z</time></trkpt><trkpt lat="42.374246362834114" lon="11.18477664637291"><ele>98.0</ele><time>2026-03-29T14:55:06Z</time></trkpt><trkpt lat="42.37423219209218" lon="11.18487154883745"><ele>94.49999999999999</ele><time>2026-03-29T14:55:08Z</time></trkpt><trkpt lat="42.37423568398227" lon="11.184989142271077"><ele>91.0</ele><time>2026-03-29T14:55:10Z</time></trkpt><trkpt lat="42.37425007588441" lon="11.185085201303965"><ele>87.5</ele><time>2026-03-29T14:55:12Z</time></trkpt><trkpt lat="42.374273751699796" lon="11.185165824382654"><ele>84.0</ele><time>2026-03-29T14:55:14Z</time></trkpt><trkpt lat="42.374318952112944" lon="11.185272275996297"><ele>80.5</ele><time>2026-03-29T14:55:17Z</time></trkpt><trkpt lat="42.37435570635697" lon="11.185343196100233"><ele>77.0</ele><time>2026-03-29T14:55:19Z</time></trkpt><trkpt lat="42.37441138020096" lon="11.185440160158617"><ele>77.0</ele><time>2026-03-29T14:55:22Z</time></trkpt><trkpt lat="42.37446475962989" lon="11.18553894552094"><ele>77.0</ele><time>2026-03-29T14:55:25Z</time></trkpt><trkpt lat="42.37450339929121" lon="11.185607168414666"><ele>77.0</ele><time>2026-03-29T14:55:27Z</time></trkpt><trkpt lat="42.37455107455954" lon="11.18568522407497"><ele>77.0</ele><time>2026-03-29T14:55:29Z</time></trkpt><trkpt lat="42.37460276557751" lon="11.18576046245661"><ele>77.0</ele><time>2026-03-29T14:55:31Z</time></trkpt><trkpt lat="42.374650234414375" lon="11.18582132842014"><ele>77.0</ele><time>2026-03-29T14:55:33Z</time></trkpt><trkpt lat="42.37470980357781" lon="11.185888230062595"><ele>77.0</ele><time>2026-03-29T14:55:35Z</time></trkpt><trkpt lat="42.374770973460734" lon="11.185971411322614"><ele>76.0</ele><time>2026-03-29T14:55:37Z</time></trkpt><trkpt lat="42.37483040335031" lon="11.186087157370997"><ele>75.0</ele><time>2026-03-29T14:55:39Z</time></trkpt><trkpt lat="42.37487011844049" lon="11.186189193311645"><ele>74.0</ele><time>2026-03-29T14:55:41Z</time></trkpt><trkpt lat="42.3748927153665" lon="11.186304108010283"><ele>73.0</ele><time>2026-03-29T14:55:43Z</time></trkpt><trkpt lat="42.37489178874557" lon="11.186401964114498"><ele>72.0</ele><time>2026-03-29T14:55:45Z</time></trkpt><trkpt lat="42.37490380451579" lon="11.186523594873398"><ele>71.0</ele><time>2026-03-29T14:55:48Z</time></trkpt><trkpt lat="42.374931444723856" lon="11.18663105398858"><ele>69.66666666666667</ele><time>2026-03-29T14:55:50Z</time></trkpt><trkpt lat="42.374997914788736" lon="11.1867623606726"><ele>68.33333333333334</ele><time>2026-03-29T14:55:52Z</time></trkpt><trkpt lat="42.37503274165093" lon="11.186835208116259"><ele>67.0</ele><time>2026-03-29T14:55:53Z</time></trkpt><trkpt lat="42.37506675464172" lon="11.186913809776822"><ele>65.66666666666667</ele><time>2026-03-29T14:55:54Z</time></trkpt><trkpt lat="42.37511154559475" lon="11.186991191407191"><ele>64.33333333333333</ele><time>2026-03-29T14:55:55Z</time></trkpt><trkpt lat="42.37521103096683" lon="11.187054066103833"><ele>63.0</ele><time>2026-03-29T14:55:57Z</time></trkpt><trkpt lat="42.37528964493809" lon="11.187076368790589"><ele>63.0</ele><time>2026-03-29T14:56:00Z</time></trkpt><trkpt lat="42.375402945352086" lon="11.186975950141056"><ele>63.0</ele><time>2026-03-29T14:56:02Z</time></trkpt><trkpt lat="42.37552158178591" lon="11.186902792106883"><ele>63.0</ele><time>2026-03-29T14:56:04Z</time></trkpt><trkpt lat="42.37560117300577" lon="11.186875255853279"><ele>63.0</ele><time>2026-03-29T14:56:05Z</time></trkpt><trkpt lat="42.375690897305155" lon="11.186849593931543"><ele>63.0</ele><time>2026-03-29T14:56:06Z</time></trkpt><trkpt lat="42.37577686054419" lon="11.186807805797937"><ele>66.33333333333333</ele><time>2026-03-29T14:56:07Z</time></trkpt><trkpt lat="42.37587679829913" lon="11.186812299606709"><ele>69.66666666666667</ele><time>2026-03-29T14:56:08Z</time></trkpt><trkpt lat="42.375967397871655" lon="11.186795637740493"><ele>73.0</ele><time>2026-03-29T14:56:09Z</time></trkpt><trkpt lat="42.37605249822595" lon="11.186776068340453"><ele>76.33333333333334</ele><time>2026-03-29T14:56:10Z</time></trkpt><trkpt lat="42.376126226676824" lon="11.186733726509038"><ele>79.66666666666667</ele><time>2026-03-29T14:56:11Z</time></trkpt><trkpt lat="42.37620020623291" lon="11.186683380769674"><ele>83.0</ele><time>2026-03-29T14:56:12Z</time></trkpt><trkpt lat="42.37625686212033" lon="11.186615274767224"><ele>83.0</ele><time>2026-03-29T14:56:13Z</time></trkpt><trkpt lat="42.37630050906699" lon="11.186524237036199"><ele>83.0</ele><time>2026-03-29T14:56:14Z</time></trkpt><trkpt lat="42.37634635970277" lon="11.186439410858199"><ele>83.0</ele><time>2026-03-29T14:56:15Z</time></trkpt><trkpt lat="42.37635495862146" lon="11.186318486132418"><ele>83.0</ele><time>2026-03-29T14:56:16Z</time></trkpt><trkpt lat="42.37635555095769" lon="11.186182193998238"><ele>83.0</ele><time>2026-03-29T14:56:17Z</time></trkpt><trkpt lat="42.37634475430122" lon="11.186032615302688"><ele>89.80000000000001</ele><time>2026-03-29T14:56:19Z</time></trkpt><trkpt lat="42.37639909826799" lon="11.185976819652572"><ele>96.6</ele><time>2026-03-29T14:56:22Z</time></trkpt><trkpt lat="42.376481258148864" lon="11.186116931794338"><ele>103.39999999999999</ele><time>2026-03-29T14:56:24Z</time></trkpt><trkpt lat="42.3765146801578" lon="11.186220801666158"><ele>110.19999999999999</ele><time>2026-03-29T14:56:25Z</time></trkpt><trkpt lat="42.37655356525868" lon="11.186350347391636"><ele>117.0</ele><time>2026-03-29T14:56:26Z</time></trkpt><trkpt lat="42.37659470846343" lon="11.186421128959736"><ele>117.0</ele><time>2026-03-29T14:56:27Z</time></trkpt><trkpt lat="42.37662920771971" lon="11.18651540264069"><ele>117.0</ele><time>2026-03-29T14:56:28Z</time></trkpt><trkpt lat="42.37670931225361" lon="11.186561599503642"><ele>117.0</ele><time>2026-03-29T14:56:29Z</time></trkpt><trkpt lat="42.376792030790966" lon="11.186540455100706"><ele>117.0</ele><time>2026-03-29T14:56:30Z</time></trkpt><trkpt lat="42.37684568380807" lon="11.18642234296956"><ele>117.0</ele><time>2026-03-29T14:56:31Z</time></trkpt><trkpt lat="42.37687468199115" lon="11.186317188421075"><ele>117.0</ele><time>2026-03-29T14:56:32Z</time></trkpt><trkpt lat="42.376913668293824" lon="11.186185725975838"><ele>117.0</ele><time>2026-03-29T14:56:33Z</time></trkpt><trkpt lat="42.3769592214679" lon="11.186053296064978"><ele>116.99999999999999</ele><time>2026-03-29T14:56:34Z</time></trkpt><trkpt lat="42.37701330237762" lon="11.1859377095592"><ele>116.99999999999999</ele><time>2026-03-29T14:56:35Z</time></trkpt><trkpt lat="42.37706821224381" lon="11.185866330101987"><ele>117.0</ele><time>2026-03-29T14:56:36Z</time></trkpt><trkpt lat="42.37714149181616" lon="11.185838006860516"><ele>117.0</ele><time>2026-03-29T14:56:37Z</time></trkpt><trkpt lat="42.377229020921966" lon="11.18581674673187"><ele>120.0</ele><time>2026-03-29T14:56:38Z</time></trkpt><trkpt lat="42.37733236951988" lon="11.1857992854108"><ele>123.0</ele><time>2026-03-29T14:56:39Z</time></trkpt><trkpt lat="42.377453502853115" lon="11.185778536025527"><ele>126.0</ele><time>2026-03-29T14:56:40Z</time></trkpt><trkpt lat="42.37757549280452" lon="11.185757044797466"><ele>129.0</ele><time>2026-03-29T14:56:41Z</time></trkpt><trkpt lat="42.37768508701167" lon="11.185738514265507"><ele>129.0</ele><time>2026-03-29T14:56:42Z</time></trkpt><trkpt lat="42.377787839719645" lon="11.185731600951433"><ele>129.0</ele><time>2026-03-29T14:56:43Z</time></trkpt><trkpt lat="42.37788606277939" lon="11.18572925059576"><ele>129.0</ele><time>2026-03-29T14:56:44Z</time></trkpt><trkpt lat="42.37799215523569" lon="11.185733000860985"><ele>129.0</ele><time>2026-03-29T14:56:45Z</time></trkpt><trkpt lat="42.37810727332288" lon="11.185718821078378"><ele>129.0</ele><time>2026-03-29T14:56:46Z</time></trkpt><trkpt lat="42.378222813451" lon="11.185725589099722"><ele>130.2</ele><time>2026-03-29T14:56:47Z</time></trkpt><trkpt lat="42.378329346466394" lon="11.185742549771815"><ele>131.4</ele><time>2026-03-29T14:56:48Z</time></trkpt><trkpt lat="42.378420641800666" lon="11.185761003192738"><ele>132.6</ele><time>2026-03-29T14:56:49Z</time></trkpt><trkpt lat="42.37851042529911" lon="11.185777251291576"><ele>133.8</ele><time>2026-03-29T14:56:50Z</time></trkpt><trkpt lat="42.37860612558888" lon="11.18579269822217"><ele>135.0</ele><time>2026-03-29T14:56:51Z</time></trkpt><trkpt lat="42.37871082203558" lon="11.185794593728994"><ele>135.0</ele><time>2026-03-29T14:56:52Z</time></trkpt><trkpt lat="42.37882573882467" lon="11.185817313497667"><ele>135.0</ele><time>2026-03-29T14:56:53Z</time></trkpt><trkpt lat="42.37893679896033" lon="11.185835972525645"><ele>135.0</ele><time>2026-03-29T14:56:54Z</time></trkpt><trkpt lat="42.37904604940607" lon="11.185850466871972"><ele>135.0</ele><time>2026-03-29T14:56:55Z</time></trkpt><trkpt lat="42.37916051639151" lon="11.185861530049639"><ele>134.8</ele><time>2026-03-29T14:56:56Z</time></trkpt><trkpt lat="42.37927058533451" lon="11.185881850461188"><ele>134.6</ele><time>2026-03-29T14:56:57Z</time></trkpt><trkpt lat="42.37938086443674" lon="11.18591335171259"><ele>134.4</ele><time>2026-03-29T14:56:58Z</time></trkpt><trkpt lat="42.3794801974773" lon="11.185946220628542"><ele>134.2</ele><time>2026-03-29T14:56:59Z</time></trkpt><trkpt lat="42.37958088982707" lon="11.185984977699102"><ele>134.0</ele><time>2026-03-29T14:57:00Z</time></trkpt><trkpt lat="42.37968863456416" lon="11.186015706833649"><ele>133.25</ele><time>2026-03-29T14:57:01Z</time></trkpt><trkpt lat="42.37980538044497" lon="11.186006800941193"><ele>132.5</ele><time>2026-03-29T14:57:02Z</time></trkpt><trkpt lat="42.37992988875127" lon="11.185981588429005"><ele>131.75</ele><time>2026-03-29T14:57:03Z</time></trkpt><trkpt lat="42.380064144361064" lon="11.185953460557455"><ele>131.0</ele><time>2026-03-29T14:57:04Z</time></trkpt><trkpt lat="42.380192551346745" lon="11.185931814661041"><ele>131.0</ele><time>2026-03-29T14:57:05Z</time></trkpt><trkpt lat="42.38032067853237" lon="11.185911308761009"><ele>131.0</ele><time>2026-03-29T14:57:06Z</time></trkpt><trkpt lat="42.38043707686233" lon="11.185940162152075"><ele>131.0</ele><time>2026-03-29T14:57:07Z</time></trkpt><trkpt lat="42.380540514211816" lon="11.186000510107474"><ele>131.0</ele><time>2026-03-29T14:57:08Z</time></trkpt><trkpt lat="42.38064937064165" lon="11.186090112187818"><ele>132.25</ele><time>2026-03-29T14:57:09Z</time></trkpt><trkpt lat="42.38075621926972" lon="11.186196455230343"><ele>133.5</ele><time>2026-03-29T14:57:10Z</time></trkpt><trkpt lat="42.380868093451205" lon="11.186290307766344"><ele>134.75</ele><time>2026-03-29T14:57:11Z</time></trkpt><trkpt lat="42.38098151358647" lon="11.186383050009953"><ele>136.0</ele><time>2026-03-29T14:57:12Z</time></trkpt><trkpt lat="42.381091703399726" lon="11.186472350311211"><ele>133.0</ele><time>2026-03-29T14:57:13Z</time></trkpt><trkpt lat="42.381197830005156" lon="11.186560279051612"><ele>130.0</ele><time>2026-03-29T14:57:14Z</time></trkpt><trkpt lat="42.38130151166851" lon="11.186658620900323"><ele>127.0</ele><time>2026-03-29T14:57:15Z</time></trkpt><trkpt lat="42.38140669402875" lon="11.186754345498215"><ele>124.0</ele><time>2026-03-29T14:57:16Z</time></trkpt><trkpt lat="42.381506982187105" lon="11.186849106035012"><ele>124.0</ele><time>2026-03-29T14:57:17Z</time></trkpt><trkpt lat="42.38159445446649" lon="11.186963641209477"><ele>124.0</ele><time>2026-03-29T14:57:18Z</time></trkpt><trkpt lat="42.3816793793027" lon="11.187078097080159"><ele>124.0</ele><time>2026-03-29T14:57:19Z</time></trkpt><trkpt lat="42.3817583531435" lon="11.187192361934281"><ele>124.0</ele><time>2026-03-29T14:57:20Z</time></trkpt><trkpt lat="42.381823043773664" lon="11.187301175060133"><ele>121.80000000000001</ele><time>2026-03-29T14:57:21Z</time></trkpt><trkpt lat="42.38187089418314" lon="11.187407276725475"><ele>119.60000000000001</ele><time>2026-03-29T14:57:22Z</time></trkpt><trkpt lat="42.38188892023857" lon="11.187530673667217"><ele>117.4</ele><time>2026-03-29T14:57:23Z</time></trkpt><trkpt lat="42.381879713381856" lon="11.187671416863767"><ele>115.2</ele><time>2026-03-29T14:57:24Z</time></trkpt><trkpt lat="42.38184475917045" lon="11.187820471160771"><ele>113.0</ele><time>2026-03-29T14:57:25Z</time></trkpt><trkpt lat="42.38176594650505" lon="11.187932843288342"><ele>113.0</ele><time>2026-03-29T14:57:26Z</time></trkpt><trkpt lat="42.38168389548721" lon="11.188062200002461"><ele>113.0</ele><time>2026-03-29T14:57:27Z</time></trkpt><trkpt lat="42.381606190462584" lon="11.188214784504028"><ele>113.0</ele><time>2026-03-29T14:57:28Z</time></trkpt><trkpt lat="42.38151218765873" lon="11.188342201813239"><ele>113.0</ele><time>2026-03-29T14:57:29Z</time></trkpt><trkpt lat="42.381433035934364" lon="11.188466193122803"><ele>113.0</ele><time>2026-03-29T14:57:30Z</time></trkpt><trkpt lat="42.38135330622317" lon="11.188585478022649"><ele>113.00000000000001</ele><time>2026-03-29T14:57:31Z</time></trkpt><trkpt lat="42.38126904594556" lon="11.188695860002696"><ele>113.00000000000001</ele><time>2026-03-29T14:57:32Z</time></trkpt><trkpt lat="42.38120307159204" lon="11.188804024818339"><ele>113.0</ele><time>2026-03-29T14:57:33Z</time></trkpt><trkpt lat="42.38116479627034" lon="11.188911966691522"><ele>113.0</ele><time>2026-03-29T14:57:34Z</time></trkpt><trkpt lat="42.38115816026404" lon="11.189028782383728"><ele>112.60000000000001</ele><time>2026-03-29T14:57:35Z</time></trkpt><trkpt lat="42.381200199056046" lon="11.189136749558342"><ele>112.20000000000002</ele><time>2026-03-29T14:57:36Z</time></trkpt><trkpt lat="42.38124202140591" lon="11.18924699271718"><ele>111.8</ele><time>2026-03-29T14:57:37Z</time></trkpt><trkpt lat="42.38131875375322" lon="11.189340963125549"><ele>111.4</ele><time>2026-03-29T14:57:38Z</time></trkpt><trkpt lat="42.381421051316785" lon="11.18943325873939"><ele>111.0</ele><time>2026-03-29T14:57:39Z</time></trkpt><trkpt lat="42.38150955743477" lon="11.189515855185494"><ele>111.0</ele><time>2026-03-29T14:57:40Z</time></trkpt><trkpt lat="42.38156627837981" lon="11.189638564099996"><ele>111.0</ele><time>2026-03-29T14:57:41Z</time></trkpt><trkpt lat="42.38157752717826" lon="11.189763426619818"><ele>111.0</ele><time>2026-03-29T14:57:42Z</time></trkpt><trkpt lat="42.38159279188559" lon="11.189869120564596"><ele>111.0</ele><time>2026-03-29T14:57:43Z</time></trkpt><trkpt lat="42.38160651643509" lon="11.189957221857085"><ele>111.0</ele><time>2026-03-29T14:57:44Z</time></trkpt><trkpt lat="42.38167807558354" lon="11.190066668669868"><ele>107.19999999999999</ele><time>2026-03-29T14:57:46Z</time></trkpt><trkpt lat="42.38173694229889" lon="11.190111055376043"><ele>103.39999999999999</ele><time>2026-03-29T14:57:47Z</time></trkpt><trkpt lat="42.381824304094145" lon="11.190116213018687"><ele>99.6</ele><time>2026-03-29T14:57:48Z</time></trkpt><trkpt lat="42.381918453764875" lon="11.190056527299054"><ele>95.8</ele><time>2026-03-29T14:57:49Z</time></trkpt><trkpt lat="42.38202290406615" lon="11.190003344931096"><ele>92.0</ele><time>2026-03-29T14:57:50Z</time></trkpt><trkpt lat="42.38211474369339" lon="11.189940300058081"><ele>95.83333333333334</ele><time>2026-03-29T14:57:51Z</time></trkpt><trkpt lat="42.38219859278833" lon="11.189911225524904"><ele>99.66666666666667</ele><time>2026-03-29T14:57:52Z</time></trkpt><trkpt lat="42.38229042647139" lon="11.18990390256666"><ele>103.5</ele><time>2026-03-29T14:57:53Z</time></trkpt><trkpt lat="42.38237532744487" lon="11.189928581550552"><ele>107.33333333333334</ele><time>2026-03-29T14:57:54Z</time></trkpt><trkpt lat="42.38244369843597" lon="11.189970112728194"><ele>111.16666666666667</ele><time>2026-03-29T14:57:55Z</time></trkpt><trkpt lat="42.382469401137605" lon="11.190062585556648"><ele>115.0</ele><time>2026-03-29T14:57:56Z</time></trkpt><trkpt lat="42.38246679204505" lon="11.190238965368813"><ele>115.0</ele><time>2026-03-29T14:57:58Z</time></trkpt><trkpt lat="42.382453989208436" lon="11.190385279381081"><ele>115.0</ele><time>2026-03-29T14:57:59Z</time></trkpt><trkpt lat="42.38243885709099" lon="11.190556660447152"><ele>115.0</ele><time>2026-03-29T14:58:00Z</time></trkpt><trkpt lat="42.38242593566417" lon="11.19075531694738"><ele>115.0</ele><time>2026-03-29T14:58:01Z</time></trkpt><trkpt lat="42.382425045498564" lon="11.190953358920646"><ele>112.0</ele><time>2026-03-29T14:58:02Z</time></trkpt><trkpt lat="42.38243800504423" lon="11.19115317742954"><ele>109.0</ele><time>2026-03-29T14:58:03Z</time></trkpt><trkpt lat="42.382456018742815" lon="11.191346004533383"><ele>106.0</ele><time>2026-03-29T14:58:04Z</time></trkpt><trkpt lat="42.38248018058484" lon="11.191529439684334"><ele>103.0</ele><time>2026-03-29T14:58:05Z</time></trkpt><trkpt lat="42.38250581700579" lon="11.191707850373865"><ele>101.0</ele><time>2026-03-29T14:58:06Z</time></trkpt><trkpt lat="42.38253417745017" lon="11.191892297283005"><ele>99.0</ele><time>2026-03-29T14:58:07Z</time></trkpt><trkpt lat="42.38257182959986" lon="11.192070807427346"><ele>97.0</ele><time>2026-03-29T14:58:08Z</time></trkpt><trkpt lat="42.38262222968987" lon="11.192246244692972"><ele>95.0</ele><time>2026-03-29T14:58:09Z</time></trkpt><trkpt lat="42.38268542916508" lon="11.192417404731284"><ele>92.25</ele><time>2026-03-29T14:58:10Z</time></trkpt><trkpt lat="42.382769602358515" lon="11.192578306581064"><ele>89.5</ele><time>2026-03-29T14:58:11Z</time></trkpt><trkpt lat="42.382864391631976" lon="11.192728689325572"><ele>86.75</ele><time>2026-03-29T14:58:12Z</time></trkpt><trkpt lat="42.382964096338135" lon="11.192859810496374"><ele>84.0</ele><time>2026-03-29T14:58:13Z</time></trkpt><trkpt lat="42.38307167661087" lon="11.193002606920414"><ele>87.5</ele><time>2026-03-29T14:58:14Z</time></trkpt><trkpt lat="42.38316537986755" lon="11.193156802678113"><ele>91.0</ele><time>2026-03-29T14:58:15Z</time></trkpt><trkpt lat="42.38328779529437" lon="11.19327918323617"><ele>94.5</ele><time>2026-03-29T14:58:16Z</time></trkpt><trkpt lat="42.3834087566193" lon="11.193375791301607"><ele>98.0</ele><time>2026-03-29T14:58:17Z</time></trkpt><trkpt lat="42.38353604297461" lon="11.193450363574268"><ele>98.0</ele><time>2026-03-29T14:58:18Z</time></trkpt><trkpt lat="42.38364934396195" lon="11.193517100554072"><ele>98.0</ele><time>2026-03-29T14:58:19Z</time></trkpt><trkpt lat="42.3837478663433" lon="11.193599805507304"><ele>98.0</ele><time>2026-03-29T14:58:20Z</time></trkpt><trkpt lat="42.383815743908414" lon="11.193702462796308"><ele>98.0</ele><time>2026-03-29T14:58:21Z</time></trkpt><trkpt lat="42.38386515464721" lon="11.19381201575847"><ele>98.0</ele><time>2026-03-29T14:58:22Z</time></trkpt><trkpt lat="42.38389441535521" lon="11.193944114438652"><ele>98.5</ele><time>2026-03-29T14:58:23Z</time></trkpt><trkpt lat="42.38390561740003" lon="11.194093492522333"><ele>99.0</ele><time>2026-03-29T14:58:24Z</time></trkpt><trkpt lat="42.38392152951306" lon="11.194260068845619"><ele>99.5</ele><time>2026-03-29T14:58:25Z</time></trkpt><trkpt lat="42.38393655115691" lon="11.19441835279511"><ele>100.0</ele><time>2026-03-29T14:58:26Z</time></trkpt><trkpt lat="42.3839571319234" lon="11.194585294380426"><ele>100.0</ele><time>2026-03-29T14:58:27Z</time></trkpt><trkpt lat="42.38399216725835" lon="11.1947401008083"><ele>100.0</ele><time>2026-03-29T14:58:28Z</time></trkpt><trkpt lat="42.38404756639038" lon="11.194888574622498"><ele>100.0</ele><time>2026-03-29T14:58:29Z</time></trkpt><trkpt lat="42.38411321787041" lon="11.195017428762268"><ele>100.0</ele><time>2026-03-29T14:58:30Z</time></trkpt><trkpt lat="42.38417832565454" lon="11.195150039279806"><ele>98.8</ele><time>2026-03-29T14:58:31Z</time></trkpt><trkpt lat="42.38424557200882" lon="11.195278295465034"><ele>97.6</ele><time>2026-03-29T14:58:32Z</time></trkpt><trkpt lat="42.38430070124332" lon="11.195400109877836"><ele>96.4</ele><time>2026-03-29T14:58:33Z</time></trkpt><trkpt lat="42.384341814825035" lon="11.195514730848213"><ele>95.2</ele><time>2026-03-29T14:58:34Z</time></trkpt><trkpt lat="42.38438596140192" lon="11.1956274691142"><ele>94.0</ele><time>2026-03-29T14:58:35Z</time></trkpt><trkpt lat="42.3844242483462" lon="11.19574082138074"><ele>92.83333333333333</ele><time>2026-03-29T14:58:36Z</time></trkpt><trkpt lat="42.3844633191388" lon="11.195855759103484"><ele>91.66666666666666</ele><time>2026-03-29T14:58:37Z</time></trkpt><trkpt lat="42.384482994648565" lon="11.19596562040954"><ele>90.5</ele><time>2026-03-29T14:58:38Z</time></trkpt><trkpt lat="42.384471500317645" lon="11.196060980127013"><ele>89.33333333333333</ele><time>2026-03-29T14:58:39Z</time></trkpt><trkpt lat="42.38443463248105" lon="11.196196454654018"><ele>88.16666666666667</ele><time>2026-03-29T14:58:41Z</time></trkpt><trkpt lat="42.38440834391939" lon="11.196285235425878"><ele>87.0</ele><time>2026-03-29T14:58:42Z</time></trkpt><trkpt lat="42.384372711314576" lon="11.19638815125096"><ele>87.0</ele><time>2026-03-29T14:58:43Z</time></trkpt><trkpt lat="42.3843034082816" lon="11.19649618428064"><ele>87.0</ele><time>2026-03-29T14:58:44Z</time></trkpt><trkpt lat="42.384208384857274" lon="11.19664062499681"><ele>87.0</ele><time>2026-03-29T14:58:45Z</time></trkpt><trkpt lat="42.38413777466397" lon="11.19678597151607"><ele>87.0</ele><time>2026-03-29T14:58:46Z</time></trkpt><trkpt lat="42.384065688689" lon="11.196943920018493"><ele>87.25</ele><time>2026-03-29T14:58:47Z</time></trkpt><trkpt lat="42.383994743604745" lon="11.197104770296656"><ele>87.5</ele><time>2026-03-29T14:58:48Z</time></trkpt><trkpt lat="42.38393806827318" lon="11.197269913191018"><ele>87.75</ele><time>2026-03-29T14:58:49Z</time></trkpt><trkpt lat="42.383893421351786" lon="11.197444150222864"><ele>88.0</ele><time>2026-03-29T14:58:50Z</time></trkpt><trkpt lat="42.3838439300284" lon="11.197615789164223"><ele>84.0</ele><time>2026-03-29T14:58:51Z</time></trkpt><trkpt lat="42.383797414832884" lon="11.197783293699006"><ele>80.0</ele><time>2026-03-29T14:58:52Z</time></trkpt><trkpt lat="42.38373730259826" lon="11.197952067142218"><ele>76.0</ele><time>2026-03-29T14:58:53Z</time></trkpt><trkpt lat="42.38366701022117" lon="11.198113733033228"><ele>72.0</ele><time>2026-03-29T14:58:54Z</time></trkpt><trkpt lat="42.38358303257579" lon="11.198265424579114"><ele>72.0</ele><time>2026-03-29T14:58:55Z</time></trkpt><trkpt lat="42.38346685482469" lon="11.198383857552908"><ele>72.0</ele><time>2026-03-29T14:58:56Z</time></trkpt><trkpt lat="42.383360022754694" lon="11.198485455410355"><ele>72.0</ele><time>2026-03-29T14:58:57Z</time></trkpt><trkpt lat="42.383261148285484" lon="11.198568651945171"><ele>72.0</ele><time>2026-03-29T14:58:58Z</time></trkpt><trkpt lat="42.383166611685425" lon="11.198651735510305"><ele>72.0</ele><time>2026-03-29T14:58:59Z</time></trkpt><trkpt lat="42.38308738558753" lon="11.198740683220842"><ele>72.0</ele><time>2026-03-29T14:59:00Z</time></trkpt><trkpt lat="42.38302063520868" lon="11.198838464560891"><ele>72.0</ele><time>2026-03-29T14:59:01Z</time></trkpt><trkpt lat="42.382975755179736" lon="11.198957547571059"><ele>72.0</ele><time>2026-03-29T14:59:02Z</time></trkpt><trkpt lat="42.382934577586475" lon="11.199082657174458"><ele>72.0</ele><time>2026-03-29T14:59:03Z</time></trkpt><trkpt lat="42.3829196498411" lon="11.199209442093004"><ele>73.83333333333333</ele><time>2026-03-29T14:59:04Z</time></trkpt><trkpt lat="42.38290974068455" lon="11.199317864321495"><ele>75.66666666666667</ele><time>2026-03-29T14:59:05Z</time></trkpt><trkpt lat="42.38294148248162" lon="11.199405638433472"><ele>77.5</ele><time>2026-03-29T14:59:06Z</time></trkpt><trkpt lat="42.38298899962119" lon="11.199474577293234"><ele>79.33333333333334</ele><time>2026-03-29T14:59:07Z</time></trkpt><trkpt lat="42.38306980825363" lon="11.199552228552855"><ele>81.16666666666667</ele><time>2026-03-29T14:59:08Z</time></trkpt><trkpt lat="42.383161385912054" lon="11.19961211325222"><ele>83.0</ele><time>2026-03-29T14:59:09Z</time></trkpt><trkpt lat="42.38325111165576" lon="11.199666420940153"><ele>83.0</ele><time>2026-03-29T14:59:10Z</time></trkpt><trkpt lat="42.38333780824292" lon="11.199724244363827"><ele>83.0</ele><time>2026-03-29T14:59:11Z</time></trkpt><trkpt lat="42.38340883522467" lon="11.199800115713602"><ele>83.0</ele><time>2026-03-29T14:59:12Z</time></trkpt><trkpt lat="42.383451935269726" lon="11.199898178098858"><ele>83.0</ele><time>2026-03-29T14:59:13Z</time></trkpt><trkpt lat="42.383493917279765" lon="11.20002394867511"><ele>83.0</ele><time>2026-03-29T14:59:14Z</time></trkpt><trkpt lat="42.38353795167379" lon="11.200156808303571"><ele>78.75</ele><time>2026-03-29T14:59:15Z</time></trkpt><trkpt lat="42.383588797876016" lon="11.200306081564312"><ele>74.5</ele><time>2026-03-29T14:59:16Z</time></trkpt><trkpt lat="42.38364069509655" lon="11.200453092729218"><ele>70.25</ele><time>2026-03-29T14:59:17Z</time></trkpt><trkpt lat="42.38370280624303" lon="11.200593488260465"><ele>66.0</ele><time>2026-03-29T14:59:18Z</time></trkpt><trkpt lat="42.38378074348624" lon="11.20071961025805"><ele>70.4</ele><time>2026-03-29T14:59:19Z</time></trkpt><trkpt lat="42.38385949761337" lon="11.200827102762268"><ele>74.8</ele><time>2026-03-29T14:59:20Z</time></trkpt><trkpt lat="42.38393666690462" lon="11.200924775681512"><ele>79.2</ele><time>2026-03-29T14:59:21Z</time></trkpt><trkpt lat="42.38401675841522" lon="11.201021913683688"><ele>83.60000000000001</ele><time>2026-03-29T14:59:22Z</time></trkpt><trkpt lat="42.38405879479384" lon="11.201152644924827"><ele>88.0</ele><time>2026-03-29T14:59:23Z</time></trkpt><trkpt lat="42.38407592254136" lon="11.201293153637712"><ele>88.0</ele><time>2026-03-29T14:59:24Z</time></trkpt><trkpt lat="42.3840635260767" lon="11.201436794634843"><ele>88.0</ele><time>2026-03-29T14:59:25Z</time></trkpt><trkpt lat="42.38405310523099" lon="11.201596601087566"><ele>88.0</ele><time>2026-03-29T14:59:26Z</time></trkpt><trkpt lat="42.384042791080866" lon="11.201761627472933"><ele>88.0</ele><time>2026-03-29T14:59:27Z</time></trkpt><trkpt lat="42.38403322685629" lon="11.201925447635663"><ele>84.4</ele><time>2026-03-29T14:59:28Z</time></trkpt><trkpt lat="42.384033070403454" lon="11.202065650420161"><ele>80.80000000000001</ele><time>2026-03-29T14:59:29Z</time></trkpt><trkpt lat="42.384054633303904" lon="11.202193968892992"><ele>77.2</ele><time>2026-03-29T14:59:30Z</time></trkpt><trkpt lat="42.38411090956722" lon="11.202306057669084"><ele>73.6</ele><time>2026-03-29T14:59:31Z</time></trkpt><trkpt lat="42.384204772767724" lon="11.202380652735007"><ele>70.0</ele><time>2026-03-29T14:59:32Z</time></trkpt><trkpt lat="42.384301567311404" lon="11.202434611773908"><ele>68.5</ele><time>2026-03-29T14:59:33Z</time></trkpt><trkpt lat="42.38440697161458" lon="11.202468745129313"><ele>67.0</ele><time>2026-03-29T14:59:34Z</time></trkpt><trkpt lat="42.38450670853966" lon="11.202553195700023"><ele>65.5</ele><time>2026-03-29T14:59:35Z</time></trkpt><trkpt lat="42.38462776054869" lon="11.202623053066212"><ele>64.0</ele><time>2026-03-29T14:59:36Z</time></trkpt><trkpt lat="42.38475766723368" lon="11.20270333209259"><ele>64.0</ele><time>2026-03-29T14:59:37Z</time></trkpt><trkpt lat="42.384882870873994" lon="11.202766747944626"><ele>64.0</ele><time>2026-03-29T14:59:38Z</time></trkpt><trkpt lat="42.38500639674721" lon="11.20279916118704"><ele>64.0</ele><time>2026-03-29T14:59:39Z</time></trkpt><trkpt lat="42.38512201884388" lon="11.202791003607603"><ele>64.0</ele><time>2026-03-29T14:59:40Z</time></trkpt><trkpt lat="42.38522910791701" lon="11.202750002006502"><ele>64.0</ele><time>2026-03-29T14:59:41Z</time></trkpt><trkpt lat="42.3853368933402" lon="11.202689481130173"><ele>64.0</ele><time>2026-03-29T14:59:42Z</time></trkpt><trkpt lat="42.38544761947785" lon="11.202634550183413"><ele>64.0</ele><time>2026-03-29T14:59:43Z</time></trkpt><trkpt lat="42.385563991133445" lon="11.20258454233763"><ele>64.0</ele><time>2026-03-29T14:59:44Z</time></trkpt><trkpt lat="42.38568703819164" lon="11.202561229380878"><ele>63.75</ele><time>2026-03-29T14:59:45Z</time></trkpt><trkpt lat="42.38581998307934" lon="11.20255876354997"><ele>63.5</ele><time>2026-03-29T14:59:46Z</time></trkpt><trkpt lat="42.38594923548601" lon="11.202553656505799"><ele>63.25</ele><time>2026-03-29T14:59:47Z</time></trkpt><trkpt lat="42.3860867891764" lon="11.202562363223308"><ele>63.0</ele><time>2026-03-29T14:59:48Z</time></trkpt><trkpt lat="42.38624644529858" lon="11.202589481719832"><ele>64.25</ele><time>2026-03-29T14:59:49Z</time></trkpt><trkpt lat="42.38640123755245" lon="11.202594122286863"><ele>65.5</ele><time>2026-03-29T14:59:50Z</time></trkpt><trkpt lat="42.38653819343845" lon="11.202597558306199"><ele>66.75</ele><time>2026-03-29T14:59:51Z</time></trkpt><trkpt lat="42.386674485269864" lon="11.202615153249978"><ele>68.0</ele><time>2026-03-29T14:59:52Z</time></trkpt><trkpt lat="42.38680907596794" lon="11.202644710798673"><ele>68.0</ele><time>2026-03-29T14:59:53Z</time></trkpt><trkpt lat="42.38693376911132" lon="11.20266962908863"><ele>68.0</ele><time>2026-03-29T14:59:54Z</time></trkpt><trkpt lat="42.38704250869699" lon="11.202709618625075"><ele>68.0</ele><time>2026-03-29T14:59:55Z</time></trkpt><trkpt lat="42.387129992764095" lon="11.202755295146789"><ele>68.0</ele><time>2026-03-29T14:59:56Z</time></trkpt><trkpt lat="42.38718928192805" lon="11.20282436148772"><ele>68.0</ele><time>2026-03-29T14:59:57Z</time></trkpt><trkpt lat="42.38719902738833" lon="11.202983495639284"><ele>68.0</ele><time>2026-03-29T14:59:59Z</time></trkpt><trkpt lat="42.387165648717364" lon="11.203063245887218"><ele>68.0</ele><time>2026-03-29T15:00:00Z</time></trkpt><trkpt lat="42.38711658717371" lon="11.203130651147301"><ele>68.0</ele><time>2026-03-29T15:00:01Z</time></trkpt><trkpt lat="42.387042656207434" lon="11.203224647446309"><ele>68.0</ele><time>2026-03-29T15:00:02Z</time></trkpt><trkpt lat="42.386961492541595" lon="11.203327777877126"><ele>68.0</ele><time>2026-03-29T15:00:03Z</time></trkpt><trkpt lat="42.38686330084903" lon="11.203447480555274"><ele>65.0</ele><time>2026-03-29T15:00:04Z</time></trkpt><trkpt lat="42.38676837300824" lon="11.20356084454707"><ele>62.0</ele><time>2026-03-29T15:00:05Z</time></trkpt><trkpt lat="42.38668380226089" lon="11.203671077137688"><ele>59.0</ele><time>2026-03-29T15:00:06Z</time></trkpt><trkpt lat="42.38660054332891" lon="11.20378852157542"><ele>56.0</ele><time>2026-03-29T15:00:07Z</time></trkpt><trkpt lat="42.38652435847658" lon="11.203906127030002"><ele>57.199999999999996</ele><time>2026-03-29T15:00:08Z</time></trkpt><trkpt lat="42.38646714266763" lon="11.204030857943625"><ele>58.39999999999999</ele><time>2026-03-29T15:00:09Z</time></trkpt><trkpt lat="42.386420361276585" lon="11.204160625014884"><ele>59.6</ele><time>2026-03-29T15:00:10Z</time></trkpt><trkpt lat="42.38637599801304" lon="11.204291220511939"><ele>60.8</ele><time>2026-03-29T15:00:11Z</time></trkpt><trkpt lat="42.38633032039081" lon="11.204414265116569"><ele>62.0</ele><time>2026-03-29T15:00:12Z</time></trkpt><trkpt lat="42.386279360333184" lon="11.204528780608"><ele>58.6</ele><time>2026-03-29T15:00:13Z</time></trkpt><trkpt lat="42.38623114894957" lon="11.204646948748241"><ele>55.2</ele><time>2026-03-29T15:00:14Z</time></trkpt><trkpt lat="42.386180146662745" lon="11.204761515414768"><ele>51.8</ele><time>2026-03-29T15:00:15Z</time></trkpt><trkpt lat="42.386137321905956" lon="11.204874366698736"><ele>48.4</ele><time>2026-03-29T15:00:16Z</time></trkpt><trkpt lat="42.38611000715348" lon="11.205000911044412"><ele>45.0</ele><time>2026-03-29T15:00:17Z</time></trkpt><trkpt lat="42.386111150364734" lon="11.205126043949251"><ele>45.0</ele><time>2026-03-29T15:00:18Z</time></trkpt><trkpt lat="42.38613618778759" lon="11.205248242522396"><ele>45.0</ele><time>2026-03-29T15:00:19Z</time></trkpt><trkpt lat="42.386170397499896" lon="11.205368140407876"><ele>45.0</ele><time>2026-03-29T15:00:20Z</time></trkpt><trkpt lat="42.38621502609661" lon="11.205495797674983"><ele>45.0</ele><time>2026-03-29T15:00:21Z</time></trkpt><trkpt lat="42.38627206145524" lon="11.20563277622485"><ele>45.0</ele><time>2026-03-29T15:00:22Z</time></trkpt><trkpt lat="42.38632132215756" lon="11.205756387364309"><ele>47.4</ele><time>2026-03-29T15:00:23Z</time></trkpt><trkpt lat="42.38637072551071" lon="11.205877815931224"><ele>49.8</ele><time>2026-03-29T15:00:24Z</time></trkpt><trkpt lat="42.38640816150746" lon="11.206004019713475"><ele>52.2</ele><time>2026-03-29T15:00:25Z</time></trkpt><trkpt lat="42.38647338420457" lon="11.20610941430475"><ele>54.6</ele><time>2026-03-29T15:00:26Z</time></trkpt><trkpt lat="42.38655607193157" lon="11.206203948024662"><ele>57.0</ele><time>2026-03-29T15:00:27Z</time></trkpt><trkpt lat="42.3866466588402" lon="11.20627128768954"><ele>57.0</ele><time>2026-03-29T15:00:28Z</time></trkpt><trkpt lat="42.386722918057565" lon="11.20632728115069"><ele>57.0</ele><time>2026-03-29T15:00:29Z</time></trkpt><trkpt lat="42.386805853721015" lon="11.206387458738806"><ele>57.0</ele><time>2026-03-29T15:00:30Z</time></trkpt><trkpt lat="42.386882863705836" lon="11.2064458177984"><ele>57.0</ele><time>2026-03-29T15:00:31Z</time></trkpt><trkpt lat="42.3869461624478" lon="11.206494769985857"><ele>57.0</ele><time>2026-03-29T15:00:32Z</time></trkpt><trkpt lat="42.38705600380013" lon="11.206583404456051"><ele>56.857142857142854</ele><time>2026-03-29T15:00:34Z</time></trkpt><trkpt lat="42.387116229216346" lon="11.206634516558069"><ele>56.71428571428571</ele><time>2026-03-29T15:00:35Z</time></trkpt><trkpt lat="42.387177628261284" lon="11.206683105447688"><ele>56.57142857142857</ele><time>2026-03-29T15:00:36Z</time></trkpt><trkpt lat="42.38724055377581" lon="11.20673896910996"><ele>56.42857142857143</ele><time>2026-03-29T15:00:37Z</time></trkpt><trkpt lat="42.387305020914695" lon="11.206786152979404"><ele>56.285714285714285</ele><time>2026-03-29T15:00:38Z</time></trkpt><trkpt lat="42.38737953742577" lon="11.206831001028076"><ele>56.14285714285714</ele><time>2026-03-29T15:00:39Z</time></trkpt><trkpt lat="42.38743433940885" lon="11.206896465998678"><ele>56.0</ele><time>2026-03-29T15:00:40Z</time></trkpt><trkpt lat="42.38749606649413" lon="11.206946600903896"><ele>56.00000000000001</ele><time>2026-03-29T15:00:41Z</time></trkpt><trkpt lat="42.38755344783847" lon="11.206992297412395"><ele>56.0</ele><time>2026-03-29T15:00:42Z</time></trkpt><trkpt lat="42.387616347670566" lon="11.207042904910264"><ele>56.0</ele><time>2026-03-29T15:00:43Z</time></trkpt><trkpt lat="42.387685649053964" lon="11.207098662577808"><ele>56.0</ele><time>2026-03-29T15:00:44Z</time></trkpt><trkpt lat="42.387772930633076" lon="11.207126837100166"><ele>56.00000000000001</ele><time>2026-03-29T15:00:45Z</time></trkpt><trkpt lat="42.38784946125084" lon="11.207169721774042"><ele>56.0</ele><time>2026-03-29T15:00:46Z</time></trkpt><trkpt lat="42.3879142014485" lon="11.207229946385716"><ele>56.00000000000001</ele><time>2026-03-29T15:00:47Z</time></trkpt><trkpt lat="42.38797636858418" lon="11.20729962785408"><ele>56.0</ele><time>2026-03-29T15:00:48Z</time></trkpt><trkpt lat="42.38803664248329" lon="11.207363725296636"><ele>56.0</ele><time>2026-03-29T15:00:49Z</time></trkpt><trkpt lat="42.38809792980905" lon="11.207412679703046"><ele>56.0</ele><time>2026-03-29T15:00:50Z</time></trkpt><trkpt lat="42.38813031235184" lon="11.207497120171006"><ele>56.00000000000001</ele><time>2026-03-29T15:00:52Z</time></trkpt><trkpt lat="42.38819275326721" lon="11.207562641567728"><ele>56.0</ele><time>2026-03-29T15:00:55Z</time></trkpt><trkpt lat="42.38825514562937" lon="11.207627111117091"><ele>55.0</ele><time>2026-03-29T15:00:57Z</time></trkpt><trkpt lat="42.38830689353548" lon="11.207676018774311"><ele>53.99999999999999</ele><time>2026-03-29T15:00:58Z</time></trkpt><trkpt lat="42.38840888756504" lon="11.207777130389404"><ele>53.0</ele><time>2026-03-29T15:01:00Z</time></trkpt><trkpt lat="42.38847405235373" lon="11.207841687112657"><ele>52.0</ele><time>2026-03-29T15:01:01Z</time></trkpt><trkpt lat="42.38855350745159" lon="11.207898139085358"><ele>51.0</ele><time>2026-03-29T15:01:02Z</time></trkpt><trkpt lat="42.38860695995218" lon="11.208000131144944"><ele>51.0</ele><time>2026-03-29T15:01:03Z</time></trkpt><trkpt lat="42.388677033011035" lon="11.208077085281195"><ele>51.0</ele><time>2026-03-29T15:01:04Z</time></trkpt><trkpt lat="42.3887547834" lon="11.208155740719791"><ele>51.0</ele><time>2026-03-29T15:01:05Z</time></trkpt><trkpt lat="42.388846944414354" lon="11.208234171583133"><ele>51.0</ele><time>2026-03-29T15:01:06Z</time></trkpt><trkpt lat="42.388954465642364" lon="11.208307605325581"><ele>51.0</ele><time>2026-03-29T15:01:07Z</time></trkpt><trkpt lat="42.389062287809594" lon="11.208377563295963"><ele>49.4</ele><time>2026-03-29T15:01:08Z</time></trkpt><trkpt lat="42.389167353370645" lon="11.2084409717539"><ele>47.8</ele><time>2026-03-29T15:01:09Z</time></trkpt><trkpt lat="42.38927653284931" lon="11.208503802453098"><ele>46.199999999999996</ele><time>2026-03-29T15:01:10Z</time></trkpt><trkpt lat="42.389375255520186" lon="11.208549820152992"><ele>44.599999999999994</ele><time>2026-03-29T15:01:11Z</time></trkpt><trkpt lat="42.38946516928978" lon="11.208588389552101"><ele>43.0</ele><time>2026-03-29T15:01:12Z</time></trkpt><trkpt lat="42.38954984121219" lon="11.208642918667705"><ele>43.0</ele><time>2026-03-29T15:01:13Z</time></trkpt><trkpt lat="42.38961087156925" lon="11.20868308296497"><ele>43.0</ele><time>2026-03-29T15:01:14Z</time></trkpt><trkpt lat="42.389670320396846" lon="11.208730148084214"><ele>43.0</ele><time>2026-03-29T15:01:15Z</time></trkpt><trkpt lat="42.389737532940266" lon="11.208792493121472"><ele>43.0</ele><time>2026-03-29T15:01:16Z</time></trkpt><trkpt lat="42.389790195166974" lon="11.208871873060417"><ele>43.0</ele><time>2026-03-29T15:01:17Z</time></trkpt><trkpt lat="42.38983787032233" lon="11.208948075869104"><ele>43.0</ele><time>2026-03-29T15:01:18Z</time></trkpt><trkpt lat="42.389905086195604" lon="11.209005839806796"><ele>41.333333333333336</ele><time>2026-03-29T15:01:19Z</time></trkpt><trkpt lat="42.38997730740203" lon="11.209048147905976"><ele>39.66666666666667</ele><time>2026-03-29T15:01:20Z</time></trkpt><trkpt lat="42.39003895950152" lon="11.209092051433398"><ele>38.0</ele><time>2026-03-29T15:01:21Z</time></trkpt><trkpt lat="42.39009306910072" lon="11.209159768847629"><ele>36.333333333333336</ele><time>2026-03-29T15:01:22Z</time></trkpt><trkpt lat="42.390158393426866" lon="11.209239788253743"><ele>34.666666666666664</ele><time>2026-03-29T15:01:23Z</time></trkpt><trkpt lat="42.39021411609758" lon="11.20930752807187"><ele>33.0</ele><time>2026-03-29T15:01:24Z</time></trkpt><trkpt lat="42.390285173924" lon="11.209393985523635"><ele>33.0</ele><time>2026-03-29T15:01:26Z</time></trkpt><trkpt lat="42.390355066975005" lon="11.209443893899698"><ele>33.0</ele><time>2026-03-29T15:01:29Z</time></trkpt><trkpt lat="42.3904155521673" lon="11.209486107282217"><ele>33.0</ele><time>2026-03-29T15:01:33Z</time></trkpt><trkpt lat="42.39032397968544" lon="11.20944738643991"><ele>33.0</ele><time>2026-03-29T15:01:44Z</time></trkpt><trkpt lat="42.390246632202114" lon="11.20935223233844"><ele>33.0</ele><time>2026-03-29T15:01:46Z</time></trkpt><trkpt lat="42.390192890290216" lon="11.209281725009665"><ele>33.0</ele><time>2026-03-29T15:01:47Z</time></trkpt><trkpt lat="42.3901368947128" lon="11.209213653650997"><ele>30.25</ele><time>2026-03-29T15:01:48Z</time></trkpt><trkpt lat="42.39012918595932" lon="11.208988836299074"><ele>27.5</ele><time>2026-03-29T15:01:49Z</time></trkpt><trkpt lat="42.390053259538206" lon="11.208852484181188"><ele>24.75</ele><time>2026-03-29T15:01:51Z</time></trkpt><trkpt lat="42.38998515758297" lon="11.208753768009997"><ele>22.0</ele><time>2026-03-29T15:01:52Z</time></trkpt><trkpt lat="42.389930010215025" lon="11.20867383000862"><ele>22.0</ele><time>2026-03-29T15:01:53Z</time></trkpt><trkpt lat="42.38989007471699" lon="11.208607084360862"><ele>22.0</ele><time>2026-03-29T15:01:54Z</time></trkpt><trkpt lat="42.38985562005975" lon="11.208493807081952"><ele>22.0</ele><time>2026-03-29T15:01:56Z</time></trkpt><trkpt lat="42.38984977335653" lon="11.208394652714212"><ele>22.0</ele><time>2026-03-29T15:01:57Z</time></trkpt><trkpt lat="42.38985448621473" lon="11.208305613199666"><ele>22.0</ele><time>2026-03-29T15:01:58Z</time></trkpt><trkpt lat="42.38987160549758" lon="11.208209389137256"><ele>22.0</ele><time>2026-03-29T15:01:59Z</time></trkpt><trkpt lat="42.38993781432893" lon="11.208068100852701"><ele>24.6</ele><time>2026-03-29T15:02:01Z</time></trkpt><trkpt lat="42.39001237615549" lon="11.208009806376102"><ele>27.200000000000003</ele><time>2026-03-29T15:02:02Z</time></trkpt><trkpt lat="42.39010410077717" lon="11.207917309229913"><ele>29.8</ele><time>2026-03-29T15:02:03Z</time></trkpt><trkpt lat="42.39018615346578" lon="11.207820603352815"><ele>32.4</ele><time>2026-03-29T15:02:04Z</time></trkpt><trkpt lat="42.39027028917158" lon="11.207713898621337"><ele>35.0</ele><time>2026-03-29T15:02:05Z</time></trkpt><trkpt lat="42.39035261048041" lon="11.207602467687915"><ele>35.0</ele><time>2026-03-29T15:02:06.001Z</time></trkpt><trkpt lat="42.39043987125617" lon="11.207489013013246"><ele>35.0</ele><time>2026-03-29T15:02:07.001Z</time></trkpt><trkpt lat="42.39051418083411" lon="11.207375811256277"><ele>35.0</ele><time>2026-03-29T15:02:08.001Z</time></trkpt><trkpt lat="42.39060101707379" lon="11.20730982668547"><ele>35.0</ele><time>2026-03-29T15:02:09.001Z</time></trkpt><trkpt lat="42.390684263470895" lon="11.207224882452637"><ele>35.0</ele><time>2026-03-29T15:02:10.001Z</time></trkpt><trkpt lat="42.39076186035106" lon="11.207134872815988"><ele>33.5</ele><time>2026-03-29T15:02:11.001Z</time></trkpt><trkpt lat="42.39083853520541" lon="11.207030637352448"><ele>32.0</ele><time>2026-03-29T15:02:12.001Z</time></trkpt><trkpt lat="42.39094078439424" lon="11.206938995533937"><ele>30.5</ele><time>2026-03-29T15:02:13.001Z</time></trkpt><trkpt lat="42.391024153250854" lon="11.206837681643966"><ele>29.0</ele><time>2026-03-29T15:02:14.001Z</time></trkpt><trkpt lat="42.39111578470614" lon="11.206733162343061"><ele>29.0</ele><time>2026-03-29T15:02:15Z</time></trkpt><trkpt lat="42.391192538459585" lon="11.206617132727887"><ele>29.0</ele><time>2026-03-29T15:02:16Z</time></trkpt><trkpt lat="42.39125902254228" lon="11.206489292706033"><ele>29.0</ele><time>2026-03-29T15:02:17Z</time></trkpt><trkpt lat="42.39132370731651" lon="11.206370475921277"><ele>29.0</ele><time>2026-03-29T15:02:18Z</time></trkpt><trkpt lat="42.39140372170155" lon="11.206261334307479"><ele>28.2</ele><time>2026-03-29T15:02:19Z</time></trkpt><trkpt lat="42.39149822742806" lon="11.206186256135462"><ele>27.4</ele><time>2026-03-29T15:02:20Z</time></trkpt><trkpt lat="42.3915693888119" lon="11.206094647916034"><ele>26.6</ele><time>2026-03-29T15:02:21Z</time></trkpt><trkpt lat="42.39164176395524" lon="11.206015247161421"><ele>25.8</ele><time>2026-03-29T15:02:22Z</time></trkpt><trkpt lat="42.391712395120926" lon="11.205954605209866"><ele>25.0</ele><time>2026-03-29T15:02:23Z</time></trkpt><trkpt lat="42.39180030762656" lon="11.205939163586047"><ele>25.000000000000004</ele><time>2026-03-29T15:02:24Z</time></trkpt><trkpt lat="42.39188764166363" lon="11.205918954121326"><ele>25.0</ele><time>2026-03-29T15:02:25Z</time></trkpt><trkpt lat="42.39196881033363" lon="11.205884346387268"><ele>25.0</ele><time>2026-03-29T15:02:26Z</time></trkpt><trkpt lat="42.39205316297012" lon="11.205848319624275"><ele>25.0</ele><time>2026-03-29T15:02:27Z</time></trkpt><trkpt lat="42.39214024570137" lon="11.205786781511074"><ele>25.000000000000004</ele><time>2026-03-29T15:02:28Z</time></trkpt><trkpt lat="42.39221801123353" lon="11.205738789608084"><ele>25.0</ele><time>2026-03-29T15:02:29Z</time></trkpt><trkpt lat="42.392288915896486" lon="11.205689099321301"><ele>23.8</ele><time>2026-03-29T15:02:30Z</time></trkpt><trkpt lat="42.39235931356277" lon="11.20564506337479"><ele>22.6</ele><time>2026-03-29T15:02:31Z</time></trkpt><trkpt lat="42.39242625846037" lon="11.20560137349942"><ele>21.4</ele><time>2026-03-29T15:02:32Z</time></trkpt><trkpt lat="42.39250732117779" lon="11.205528785918844"><ele>20.2</ele><time>2026-03-29T15:02:33Z</time></trkpt><trkpt lat="42.392580629685206" lon="11.205428145189833"><ele>19.0</ele><time>2026-03-29T15:02:34Z</time></trkpt><trkpt lat="42.39261617720282" lon="11.2052937855343"><ele>19.0</ele><time>2026-03-29T15:02:35Z</time></trkpt><trkpt lat="42.3926650874786" lon="11.205177587469677"><ele>19.0</ele><time>2026-03-29T15:02:36Z</time></trkpt><trkpt lat="42.39274402911355" lon="11.205078907589403"><ele>19.0</ele><time>2026-03-29T15:02:37Z</time></trkpt><trkpt lat="42.392801592227926" lon="11.204963157880881"><ele>19.0</ele><time>2026-03-29T15:02:38Z</time></trkpt><trkpt lat="42.39286160546411" lon="11.204854329204466"><ele>19.0</ele><time>2026-03-29T15:02:39Z</time></trkpt><trkpt lat="42.39292492692293" lon="11.204748208847592"><ele>18.5</ele><time>2026-03-29T15:02:40Z</time></trkpt><trkpt lat="42.39298742429963" lon="11.204651303174774"><ele>18.0</ele><time>2026-03-29T15:02:41Z</time></trkpt><trkpt lat="42.39304457261532" lon="11.204562761943443"><ele>17.5</ele><time>2026-03-29T15:02:42Z</time></trkpt><trkpt lat="42.39309403105293" lon="11.204490668492385"><ele>17.0</ele><time>2026-03-29T15:02:43Z</time></trkpt><trkpt lat="42.39318930025453" lon="11.204403784715442"><ele>16.5</ele><time>2026-03-29T15:02:45Z</time></trkpt><trkpt lat="42.39324599853138" lon="11.204338276878712"><ele>16.0</ele><time>2026-03-29T15:02:47Z</time></trkpt><trkpt lat="42.39331870244704" lon="11.20425489317947"><ele>15.333333333333332</ele><time>2026-03-29T15:02:50Z</time></trkpt><trkpt lat="42.393394789613026" lon="11.204176550106045"><ele>14.666666666666666</ele><time>2026-03-29T15:02:53Z</time></trkpt><trkpt lat="42.39345871412245" lon="11.204121170564612"><ele>14.0</ele><time>2026-03-29T15:02:56Z</time></trkpt><trkpt lat="42.39352224000296" lon="11.204070628650364"><ele>13.333333333333332</ele><time>2026-03-29T15:02:59Z</time></trkpt><trkpt lat="42.39362294474381" lon="11.20402220204218"><ele>12.666666666666666</ele><time>2026-03-29T15:03:01Z</time></trkpt><trkpt lat="42.3936799585" lon="11.203985169998086"><ele>12.0</ele><time>2026-03-29T15:03:02Z</time></trkpt><trkpt lat="42.393749236308174" lon="11.20399202188122"><ele>12.6</ele><time>2026-03-29T15:03:03Z</time></trkpt><trkpt lat="42.3938696807997" lon="11.20396731641804"><ele>13.2</ele><time>2026-03-29T15:03:05Z</time></trkpt><trkpt lat="42.39399950388509" lon="11.20393976119533"><ele>13.8</ele><time>2026-03-29T15:03:07Z</time></trkpt><trkpt lat="42.39411352378169" lon="11.203913762374365"><ele>14.4</ele><time>2026-03-29T15:03:09Z</time></trkpt><trkpt lat="42.39417787659495" lon="11.2038987523936"><ele>15.0</ele><time>2026-03-29T15:03:10Z</time></trkpt><trkpt lat="42.39426364216041" lon="11.20387777491954"><ele>15.0</ele><time>2026-03-29T15:03:11Z</time></trkpt><trkpt lat="42.394339973434256" lon="11.203858455713512"><ele>15.0</ele><time>2026-03-29T15:03:12Z</time></trkpt><trkpt lat="42.39441374177564" lon="11.20383959812791"><ele>15.0</ele><time>2026-03-29T15:03:13Z</time></trkpt><trkpt lat="42.39454268850389" lon="11.203806635149562"><ele>15.0</ele><time>2026-03-29T15:03:15Z</time></trkpt><trkpt lat="42.39461077650729" lon="11.203789229623"><ele>15.0</ele><time>2026-03-29T15:03:16Z</time></trkpt><trkpt lat="42.39469113837485" lon="11.20376868651123"><ele>15.0</ele><time>2026-03-29T15:03:17Z</time></trkpt><trkpt lat="42.3947525741033" lon="11.203731504864649"><ele>15.857142857142858</ele><time>2026-03-29T15:03:18Z</time></trkpt><trkpt lat="42.39481987944868" lon="11.203742918571452"><ele>16.714285714285715</ele><time>2026-03-29T15:03:19Z</time></trkpt><trkpt lat="42.39489168969932" lon="11.203724123047134"><ele>17.57142857142857</ele><time>2026-03-29T15:03:20Z</time></trkpt><trkpt lat="42.39497127479873" lon="11.203705966635821"><ele>18.42857142857143</ele><time>2026-03-29T15:03:21Z</time></trkpt><trkpt lat="42.395041210787475" lon="11.203671216125093"><ele>19.285714285714285</ele><time>2026-03-29T15:03:22Z</time></trkpt><trkpt lat="42.39511178189226" lon="11.203636407232757"><ele>20.142857142857142</ele><time>2026-03-29T15:03:23Z</time></trkpt><trkpt lat="42.39517559180843" lon="11.20360661133704"><ele>21.0</ele><time>2026-03-29T15:03:24Z</time></trkpt><trkpt lat="42.3952445465211" lon="11.203567536297149"><ele>21.0</ele><time>2026-03-29T15:03:25Z</time></trkpt><trkpt lat="42.39532918374504" lon="11.203519385635573"><ele>21.0</ele><time>2026-03-29T15:03:26Z</time></trkpt><trkpt lat="42.39540779223663" lon="11.203466093559522"><ele>21.0</ele><time>2026-03-29T15:03:27Z</time></trkpt><trkpt lat="42.39547113525755" lon="11.203388341102578"><ele>21.0</ele><time>2026-03-29T15:03:28Z</time></trkpt><trkpt lat="42.39552720044849" lon="11.203310131369884"><ele>21.0</ele><time>2026-03-29T15:03:29Z</time></trkpt><trkpt lat="42.395556394410015" lon="11.20320595740652"><ele>21.0</ele><time>2026-03-29T15:03:30Z</time></trkpt><trkpt lat="42.39562340248937" lon="11.203128091440796"><ele>22.8</ele><time>2026-03-29T15:03:31Z</time></trkpt><trkpt lat="42.39568510733695" lon="11.203028296564561"><ele>24.6</ele><time>2026-03-29T15:03:32Z</time></trkpt><trkpt lat="42.39574518264134" lon="11.202922139817257"><ele>26.4</ele><time>2026-03-29T15:03:33Z</time></trkpt><trkpt lat="42.39580826541723" lon="11.202807104639476"><ele>28.2</ele><time>2026-03-29T15:03:34Z</time></trkpt><trkpt lat="42.3958679343244" lon="11.202695691343765"><ele>30.0</ele><time>2026-03-29T15:03:35Z</time></trkpt><trkpt lat="42.395912963224426" lon="11.202578940046239"><ele>30.0</ele><time>2026-03-29T15:03:36Z</time></trkpt><trkpt lat="42.395971243001135" lon="11.202495555751923"><ele>30.0</ele><time>2026-03-29T15:03:37Z</time></trkpt><trkpt lat="42.39601586833478" lon="11.202396170480142"><ele>30.0</ele><time>2026-03-29T15:03:38Z</time></trkpt><trkpt lat="42.396098626239244" lon="11.20232624597412"><ele>30.0</ele><time>2026-03-29T15:03:39Z</time></trkpt><trkpt lat="42.39617075581718" lon="11.20226679204906"><ele>30.0</ele><time>2026-03-29T15:03:40Z</time></trkpt><trkpt lat="42.39624030076331" lon="11.202206099021486"><ele>30.0</ele><time>2026-03-29T15:03:41Z</time></trkpt><trkpt lat="42.39631954810701" lon="11.202168386901391"><ele>28.666666666666668</ele><time>2026-03-29T15:03:42Z</time></trkpt><trkpt lat="42.39639076763053" lon="11.2021217376684"><ele>27.333333333333332</ele><time>2026-03-29T15:03:43Z</time></trkpt><trkpt lat="42.39647265369414" lon="11.202068249141814"><ele>26.0</ele><time>2026-03-29T15:03:44Z</time></trkpt><trkpt lat="42.39654213491029" lon="11.202021655518068"><ele>24.666666666666664</ele><time>2026-03-29T15:03:45Z</time></trkpt><trkpt lat="42.3966105320097" lon="11.201975366576244"><ele>23.333333333333332</ele><time>2026-03-29T15:03:46Z</time></trkpt><trkpt lat="42.396685681487526" lon="11.201926436892844"><ele>22.0</ele><time>2026-03-29T15:03:47Z</time></trkpt><trkpt lat="42.39675773048494" lon="11.201886656888865"><ele>22.0</ele><time>2026-03-29T15:03:48Z</time></trkpt><trkpt lat="42.396824557706914" lon="11.201858632571286"><ele>22.0</ele><time>2026-03-29T15:03:49Z</time></trkpt><trkpt lat="42.396890931988366" lon="11.201843023481116"><ele>22.0</ele><time>2026-03-29T15:03:50Z</time></trkpt><trkpt lat="42.39695754821696" lon="11.20183513315498"><ele>22.0</ele><time>2026-03-29T15:03:51Z</time></trkpt><trkpt lat="42.39702731152614" lon="11.201831929925657"><ele>22.0</ele><time>2026-03-29T15:03:52Z</time></trkpt><trkpt lat="42.397112408433856" lon="11.201829146061502"><ele>22.0</ele><time>2026-03-29T15:03:53Z</time></trkpt><trkpt lat="42.39721673610628" lon="11.201828452429199"><ele>21.200000000000003</ele><time>2026-03-29T15:03:54Z</time></trkpt><trkpt lat="42.39732698620842" lon="11.201827719420082"><ele>20.400000000000002</ele><time>2026-03-29T15:03:55Z</time></trkpt><trkpt lat="42.39743590567194" lon="11.201826995258761"><ele>19.6</ele><time>2026-03-29T15:03:56Z</time></trkpt><trkpt lat="42.39753877011763" lon="11.201827561073138"><ele>18.8</ele><time>2026-03-29T15:03:57Z</time></trkpt><trkpt lat="42.39764362901629" lon="11.201829293750889"><ele>18.0</ele><time>2026-03-29T15:03:58Z</time></trkpt><trkpt lat="42.39774275259318" lon="11.201819595464654"><ele>18.0</ele><time>2026-03-29T15:03:59Z</time></trkpt><trkpt lat="42.39783434597312" lon="11.201776084367333"><ele>18.0</ele><time>2026-03-29T15:04:00Z</time></trkpt><trkpt lat="42.39792092628351" lon="11.201745504716527"><ele>18.0</ele><time>2026-03-29T15:04:01Z</time></trkpt><trkpt lat="42.39800681524252" lon="11.201695187658462"><ele>18.0</ele><time>2026-03-29T15:04:02Z</time></trkpt><trkpt lat="42.39809509646171" lon="11.201634547026543"><ele>18.0</ele><time>2026-03-29T15:04:03Z</time></trkpt><trkpt lat="42.398182017962554" lon="11.201571070898023"><ele>17.2</ele><time>2026-03-29T15:04:04Z</time></trkpt><trkpt lat="42.39826680381261" lon="11.201521892371334"><ele>16.4</ele><time>2026-03-29T15:04:05Z</time></trkpt><trkpt lat="42.398352131825035" lon="11.201468454258764"><ele>15.599999999999998</ele><time>2026-03-29T15:04:06Z</time></trkpt><trkpt lat="42.39843867340366" lon="11.201409526191739"><ele>14.799999999999999</ele><time>2026-03-29T15:04:07Z</time></trkpt><trkpt lat="42.39852626863657" lon="11.201349445378808"><ele>14.0</ele><time>2026-03-29T15:04:08Z</time></trkpt><trkpt lat="42.398620816453175" lon="11.201280442189704"><ele>14.0</ele><time>2026-03-29T15:04:09Z</time></trkpt><trkpt lat="42.39872089398877" lon="11.201206581891707"><ele>14.0</ele><time>2026-03-29T15:04:10Z</time></trkpt><trkpt lat="42.39883069337993" lon="11.201158879641383"><ele>14.0</ele><time>2026-03-29T15:04:11Z</time></trkpt><trkpt lat="42.39893146064142" lon="11.201092517167712"><ele>14.0</ele><time>2026-03-29T15:04:12.001Z</time></trkpt><trkpt lat="42.399036079511404" lon="11.201020851520598"><ele>13.25</ele><time>2026-03-29T15:04:13.001Z</time></trkpt><trkpt lat="42.39913737632841" lon="11.200925992609942"><ele>12.5</ele><time>2026-03-29T15:04:14.001Z</time></trkpt><trkpt lat="42.39925325609397" lon="11.200870489457257"><ele>11.75</ele><time>2026-03-29T15:04:15.001Z</time></trkpt><trkpt lat="42.39935013760129" lon="11.200785882489866"><ele>11.0</ele><time>2026-03-29T15:04:16.001Z</time></trkpt><trkpt lat="42.39943537372812" lon="11.200724105892265"><ele>11.0</ele><time>2026-03-29T15:04:17.001Z</time></trkpt><trkpt lat="42.399524679001914" lon="11.200662252499649"><ele>11.0</ele><time>2026-03-29T15:04:18.001Z</time></trkpt><trkpt lat="42.399616098349085" lon="11.200594357422446"><ele>11.0</ele><time>2026-03-29T15:04:19.001Z</time></trkpt><trkpt lat="42.399700572808015" lon="11.200533269630267"><ele>11.0</ele><time>2026-03-29T15:04:20.001Z</time></trkpt><trkpt lat="42.39979484576576" lon="11.200460288635938"><ele>11.0</ele><time>2026-03-29T15:04:21.001Z</time></trkpt><trkpt lat="42.399888491904846" lon="11.20038817366315"><ele>11.0</ele><time>2026-03-29T15:04:22.001Z</time></trkpt><trkpt lat="42.39999019007169" lon="11.200310983526915"><ele>11.0</ele><time>2026-03-29T15:04:23.001Z</time></trkpt><trkpt lat="42.400096254995354" lon="11.200256788017827"><ele>11.0</ele><time>2026-03-29T15:04:24.001Z</time></trkpt><trkpt lat="42.400185790004805" lon="11.200191032616651"><ele>11.0</ele><time>2026-03-29T15:04:25.001Z</time></trkpt><trkpt lat="42.400267129128736" lon="11.200131296370712"><ele>11.0</ele><time>2026-03-29T15:04:26.001Z</time></trkpt><trkpt lat="42.400350950246015" lon="11.200069737328748"><ele>11.0</ele><time>2026-03-29T15:04:27.001Z</time></trkpt><trkpt lat="42.40044117218138" lon="11.200011926622453"><ele>11.0</ele><time>2026-03-29T15:04:28.001Z</time></trkpt><trkpt lat="42.400526540559724" lon="11.19995615362876"><ele>11.0</ele><time>2026-03-29T15:04:29.001Z</time></trkpt><trkpt lat="42.400606321200094" lon="11.19989548324543"><ele>11.0</ele><time>2026-03-29T15:04:30.001Z</time></trkpt><trkpt lat="42.4006858803023" lon="11.199838593329977"><ele>11.0</ele><time>2026-03-29T15:04:31.001Z</time></trkpt><trkpt lat="42.400764199802246" lon="11.19978395606202"><ele>10.833333333333332</ele><time>2026-03-29T15:04:32.001Z</time></trkpt><trkpt lat="42.400841372245566" lon="11.199729475670473"><ele>10.666666666666666</ele><time>2026-03-29T15:04:33.001Z</time></trkpt><trkpt lat="42.40091888700986" lon="11.199675030604485"><ele>10.5</ele><time>2026-03-29T15:04:34.001Z</time></trkpt><trkpt lat="42.40098390045153" lon="11.19961392482277"><ele>10.333333333333334</ele><time>2026-03-29T15:04:35.001Z</time></trkpt><trkpt lat="42.40104472394587" lon="11.199556679983328"><ele>10.166666666666668</ele><time>2026-03-29T15:04:36.001Z</time></trkpt><trkpt lat="42.40109530690486" lon="11.199493672897058"><ele>10.0</ele><time>2026-03-29T15:04:37Z</time></trkpt><trkpt lat="42.40116157918188" lon="11.199447918832846"><ele>10.0</ele><time>2026-03-29T15:04:38Z</time></trkpt><trkpt lat="42.40123168112406" lon="11.199424897525954"><ele>10.0</ele><time>2026-03-29T15:04:39Z</time></trkpt><trkpt lat="42.40135621842493" lon="11.19944539886962"><ele>10.0</ele><time>2026-03-29T15:04:41Z</time></trkpt><trkpt lat="42.40142384415772" lon="11.1994095614146"><ele>10.0</ele><time>2026-03-29T15:04:42Z</time></trkpt><trkpt lat="42.401465193965734" lon="11.199323272397125"><ele>10.0</ele><time>2026-03-29T15:04:43Z</time></trkpt><trkpt lat="42.40159047868394" lon="11.199286930409007"><ele>9.6</ele><time>2026-03-29T15:04:45Z</time></trkpt><trkpt lat="42.40167442500623" lon="11.199304565260775"><ele>9.2</ele><time>2026-03-29T15:04:46Z</time></trkpt><trkpt lat="42.401767884290045" lon="11.199362334710107"><ele>8.8</ele><time>2026-03-29T15:04:47Z</time></trkpt><trkpt lat="42.401874105349194" lon="11.199386386521866"><ele>8.4</ele><time>2026-03-29T15:04:48Z</time></trkpt><trkpt lat="42.4019910346507" lon="11.199427956577784"><ele>8.0</ele><time>2026-03-29T15:04:49Z</time></trkpt><trkpt lat="42.40211551828411" lon="11.199505019111989"><ele>7.75</ele><time>2026-03-29T15:04:50Z</time></trkpt><trkpt lat="42.40226160671466" lon="11.19955899192582"><ele>7.5</ele><time>2026-03-29T15:04:51Z</time></trkpt><trkpt lat="42.40239504653943" lon="11.199628124696313"><ele>7.25</ele><time>2026-03-29T15:04:52Z</time></trkpt><trkpt lat="42.40252039242075" lon="11.199695976705748"><ele>7.0</ele><time>2026-03-29T15:04:53Z</time></trkpt><trkpt lat="42.40264397184935" lon="11.199743233434372"><ele>7.0</ele><time>2026-03-29T15:04:54Z</time></trkpt><trkpt lat="42.4027576095095" lon="11.199845687876078"><ele>7.0</ele><time>2026-03-29T15:04:55Z</time></trkpt><trkpt lat="42.40287511231938" lon="11.199915197931249"><ele>7.0</ele><time>2026-03-29T15:04:56Z</time></trkpt><trkpt lat="42.40300238268071" lon="11.1999812899262"><ele>7.0</ele><time>2026-03-29T15:04:57Z</time></trkpt><trkpt lat="42.40312976561528" lon="11.200044374786973"><ele>7.0</ele><time>2026-03-29T15:04:58Z</time></trkpt><trkpt lat="42.40325311986115" lon="11.200104065716134"><ele>7.0</ele><time>2026-03-29T15:04:59Z</time></trkpt><trkpt lat="42.403378973589376" lon="11.200172747583142"><ele>7.0</ele><time>2026-03-29T15:05:00Z</time></trkpt><trkpt lat="42.40350290261722" lon="11.200233933079614"><ele>7.0</ele><time>2026-03-29T15:05:01Z</time></trkpt><trkpt lat="42.403626274521564" lon="11.200291645953893"><ele>7.0</ele><time>2026-03-29T15:05:02Z</time></trkpt><trkpt lat="42.40375612614849" lon="11.200355190470619"><ele>7.0</ele><time>2026-03-29T15:05:03Z</time></trkpt><trkpt lat="42.403885181917" lon="11.200402641276293"><ele>7.0</ele><time>2026-03-29T15:05:04Z</time></trkpt><trkpt lat="42.40401622109876" lon="11.20043154683083"><ele>7.0</ele><time>2026-03-29T15:05:05Z</time></trkpt><trkpt lat="42.4041578543568" lon="11.200460912878176"><ele>7.25</ele><time>2026-03-29T15:05:06Z</time></trkpt><trkpt lat="42.40429791131605" lon="11.200479955917876"><ele>7.5</ele><time>2026-03-29T15:05:07Z</time></trkpt><trkpt lat="42.40444117116664" lon="11.200488882830475"><ele>7.75</ele><time>2026-03-29T15:05:08Z</time></trkpt><trkpt lat="42.404589692492394" lon="11.200480052809757"><ele>8.0</ele><time>2026-03-29T15:05:09Z</time></trkpt><trkpt lat="42.40473914207387" lon="11.200467322564338"><ele>9.5</ele><time>2026-03-29T15:05:10Z</time></trkpt><trkpt lat="42.40489030948048" lon="11.200458749267298"><ele>11.0</ele><time>2026-03-29T15:05:11Z</time></trkpt><trkpt lat="42.405034952229315" lon="11.20045497828279"><ele>12.5</ele><time>2026-03-29T15:05:12Z</time></trkpt><trkpt lat="42.405173903792125" lon="11.200451051233687"><ele>14.0</ele><time>2026-03-29T15:05:13Z</time></trkpt><trkpt lat="42.40530824293256" lon="11.200445695005078"><ele>14.0</ele><time>2026-03-29T15:05:14Z</time></trkpt><trkpt lat="42.405444233445465" lon="11.20044339719876"><ele>14.0</ele><time>2026-03-29T15:05:15Z</time></trkpt><trkpt lat="42.405579170099486" lon="11.200447467652985"><ele>14.0</ele><time>2026-03-29T15:05:16Z</time></trkpt><trkpt lat="42.40571351241054" lon="11.200452873989605"><ele>14.0</ele><time>2026-03-29T15:05:17Z</time></trkpt><trkpt lat="42.40584362266666" lon="11.200441810026112"><ele>14.75</ele><time>2026-03-29T15:05:18Z</time></trkpt><trkpt lat="42.40597588294571" lon="11.200438317177975"><ele>15.5</ele><time>2026-03-29T15:05:19Z</time></trkpt><trkpt lat="42.40610623706558" lon="11.200433085486333"><ele>16.25</ele><time>2026-03-29T15:05:20Z</time></trkpt><trkpt lat="42.40623811861248" lon="11.20042846991231"><ele>17.0</ele><time>2026-03-29T15:05:21Z</time></trkpt><trkpt lat="42.40636782774952" lon="11.200447808110912"><ele>18.75</ele><time>2026-03-29T15:05:22Z</time></trkpt><trkpt lat="42.406502600167904" lon="11.200426268193244"><ele>20.5</ele><time>2026-03-29T15:05:23Z</time></trkpt><trkpt lat="42.40663519292708" lon="11.200423888435653"><ele>22.25</ele><time>2026-03-29T15:05:24Z</time></trkpt><trkpt lat="42.40676914853205" lon="11.200428965881432"><ele>24.0</ele><time>2026-03-29T15:05:25Z</time></trkpt><trkpt lat="42.40689692396154" lon="11.200430475242891"><ele>24.0</ele><time>2026-03-29T15:05:26Z</time></trkpt><trkpt lat="42.4070301823683" lon="11.200435033472381"><ele>24.0</ele><time>2026-03-29T15:05:27Z</time></trkpt><trkpt lat="42.407159612164584" lon="11.200431561562606"><ele>24.0</ele><time>2026-03-29T15:05:28Z</time></trkpt><trkpt lat="42.407287270521515" lon="11.200422760002345"><ele>24.0</ele><time>2026-03-29T15:05:29Z</time></trkpt><trkpt lat="42.407415342828635" lon="11.200418020550485"><ele>26.0</ele><time>2026-03-29T15:05:30Z</time></trkpt><trkpt lat="42.40754524768619" lon="11.20042786134894"><ele>28.0</ele><time>2026-03-29T15:05:31Z</time></trkpt><trkpt lat="42.40767497877723" lon="11.200433295425137"><ele>30.0</ele><time>2026-03-29T15:05:32Z</time></trkpt><trkpt lat="42.40780395372567" lon="11.200431498967621"><ele>32.0</ele><time>2026-03-29T15:05:33Z</time></trkpt><trkpt lat="42.40793011944614" lon="11.200434671154266"><ele>31.0</ele><time>2026-03-29T15:05:34Z</time></trkpt><trkpt lat="42.40806085140747" lon="11.200429105608654"><ele>30.0</ele><time>2026-03-29T15:05:35Z</time></trkpt><trkpt lat="42.408193700566486" lon="11.200439726280985"><ele>29.0</ele><time>2026-03-29T15:05:36Z</time></trkpt><trkpt lat="42.40832998084981" lon="11.200461082905028"><ele>28.0</ele><time>2026-03-29T15:05:37Z</time></trkpt><trkpt lat="42.40847265950255" lon="11.2004741191263"><ele>28.0</ele><time>2026-03-29T15:05:38Z</time></trkpt><trkpt lat="42.408632919517046" lon="11.200540170579128"><ele>28.0</ele><time>2026-03-29T15:05:39Z</time></trkpt><trkpt lat="42.40878612671666" lon="11.200618214913392"><ele>28.0</ele><time>2026-03-29T15:05:40Z</time></trkpt><trkpt lat="42.408943141803675" lon="11.20074189029881"><ele>26.333333333333336</ele><time>2026-03-29T15:05:41Z</time></trkpt><trkpt lat="42.40909211456166" lon="11.20089374617096"><ele>24.666666666666668</ele><time>2026-03-29T15:05:42Z</time></trkpt><trkpt lat="42.40923709676157" lon="11.2010443441209"><ele>23.0</ele><time>2026-03-29T15:05:43Z</time></trkpt><trkpt lat="42.40937448537622" lon="11.201193712849756"><ele>23.0</ele><time>2026-03-29T15:05:44Z</time></trkpt><trkpt lat="42.4095022063067" lon="11.201343728213896"><ele>23.0</ele><time>2026-03-29T15:05:45Z</time></trkpt><trkpt lat="42.40963698765916" lon="11.201494042541542"><ele>23.0</ele><time>2026-03-29T15:05:46Z</time></trkpt><trkpt lat="42.40977482457551" lon="11.201645065105316"><ele>21.666666666666668</ele><time>2026-03-29T15:05:47Z</time></trkpt><trkpt lat="42.409911272588666" lon="11.201787898304614"><ele>20.333333333333332</ele><time>2026-03-29T15:05:48Z</time></trkpt><trkpt lat="42.41004099123716" lon="11.201943403477257"><ele>19.0</ele><time>2026-03-29T15:05:49Z</time></trkpt><trkpt lat="42.4101668123492" lon="11.202095585554506"><ele>19.0</ele><time>2026-03-29T15:05:50Z</time></trkpt><trkpt lat="42.41029957815422" lon="11.202241684288408"><ele>19.0</ele><time>2026-03-29T15:05:51Z</time></trkpt><trkpt lat="42.41042833419838" lon="11.202388970348162"><ele>19.0</ele><time>2026-03-29T15:05:52Z</time></trkpt><trkpt lat="42.410558790398795" lon="11.202539885073078"><ele>18.666666666666664</ele><time>2026-03-29T15:05:53Z</time></trkpt><trkpt lat="42.41069170642322" lon="11.202690368963692"><ele>18.333333333333332</ele><time>2026-03-29T15:05:54Z</time></trkpt><trkpt lat="42.41082373610087" lon="11.202831530364847"><ele>18.0</ele><time>2026-03-29T15:05:55Z</time></trkpt><trkpt lat="42.410961088036395" lon="11.20296329203186"><ele>18.0</ele><time>2026-03-29T15:05:56Z</time></trkpt><trkpt lat="42.41111289362852" lon="11.203080614428307"><ele>18.0</ele><time>2026-03-29T15:05:57Z</time></trkpt><trkpt lat="42.4112651806116" lon="11.20320123246746"><ele>18.0</ele><time>2026-03-29T15:05:58Z</time></trkpt><trkpt lat="42.411422845969284" lon="11.20332455552586"><ele>17.0</ele><time>2026-03-29T15:05:59Z</time></trkpt><trkpt lat="42.41157676515667" lon="11.203439338616281"><ele>16.0</ele><time>2026-03-29T15:06:00Z</time></trkpt><trkpt lat="42.411733971095735" lon="11.203564737887726"><ele>15.0</ele><time>2026-03-29T15:06:01Z</time></trkpt><trkpt lat="42.41189812874338" lon="11.203683369905166"><ele>15.0</ele><time>2026-03-29T15:06:02Z</time></trkpt><trkpt lat="42.412057495871856" lon="11.203801165998843"><ele>15.0</ele><time>2026-03-29T15:06:03Z</time></trkpt><trkpt lat="42.412214125815254" lon="11.203910826919843"><ele>15.0</ele><time>2026-03-29T15:06:04Z</time></trkpt><trkpt lat="42.41235605179686" lon="11.204042408470043"><ele>13.333333333333334</ele><time>2026-03-29T15:06:05Z</time></trkpt><trkpt lat="42.41251318717486" lon="11.204140112145643"><ele>11.666666666666668</ele><time>2026-03-29T15:06:06Z</time></trkpt><trkpt lat="42.412667843655576" lon="11.204265267607664"><ele>10.0</ele><time>2026-03-29T15:06:07Z</time></trkpt><trkpt lat="42.41281716337192" lon="11.20437528899705"><ele>10.0</ele><time>2026-03-29T15:06:08Z</time></trkpt><trkpt lat="42.41297218806318" lon="11.204476273704069"><ele>10.0</ele><time>2026-03-29T15:06:09Z</time></trkpt><trkpt lat="42.41313170000678" lon="11.204564147470698"><ele>10.0</ele><time>2026-03-29T15:06:10Z</time></trkpt><trkpt lat="42.413301020504484" lon="11.204633009073685"><ele>11.666666666666668</ele><time>2026-03-29T15:06:11Z</time></trkpt><trkpt lat="42.413467515756864" lon="11.204695117793598"><ele>13.333333333333334</ele><time>2026-03-29T15:06:12Z</time></trkpt><trkpt lat="42.41363320578669" lon="11.204736581414158"><ele>15.0</ele><time>2026-03-29T15:06:13Z</time></trkpt><trkpt lat="42.41380403398879" lon="11.204765205759248"><ele>16.333333333333332</ele><time>2026-03-29T15:06:14Z</time></trkpt><trkpt lat="42.41397550581741" lon="11.204773667601955"><ele>17.666666666666664</ele><time>2026-03-29T15:06:15Z</time></trkpt><trkpt lat="42.41414862381018" lon="11.204770399567495"><ele>19.0</ele><time>2026-03-29T15:06:16Z</time></trkpt><trkpt lat="42.41432334997746" lon="11.204762783964643"><ele>19.0</ele><time>2026-03-29T15:06:17Z</time></trkpt><trkpt lat="42.41449937614773" lon="11.20476172132511"><ele>19.0</ele><time>2026-03-29T15:06:18.001Z</time></trkpt><trkpt lat="42.41467607718323" lon="11.204766846697328"><ele>19.0</ele><time>2026-03-29T15:06:19.001Z</time></trkpt><trkpt lat="42.41485073611565" lon="11.204771242053312"><ele>19.666666666666664</ele><time>2026-03-29T15:06:20.001Z</time></trkpt><trkpt lat="42.41502707104346" lon="11.204778057408378"><ele>20.333333333333332</ele><time>2026-03-29T15:06:21.001Z</time></trkpt><trkpt lat="42.41520097414033" lon="11.20477495884058"><ele>21.0</ele><time>2026-03-29T15:06:22.001Z</time></trkpt><trkpt lat="42.41537461181185" lon="11.204770137395476"><ele>19.0</ele><time>2026-03-29T15:06:23.001Z</time></trkpt><trkpt lat="42.41554455567204" lon="11.204747121788259"><ele>17.0</ele><time>2026-03-29T15:06:24.001Z</time></trkpt><trkpt lat="42.41571135669125" lon="11.204711622667514"><ele>15.0</ele><time>2026-03-29T15:06:25.001Z</time></trkpt><trkpt lat="42.41587511142699" lon="11.204656258490816"><ele>15.0</ele><time>2026-03-29T15:06:26.001Z</time></trkpt><trkpt lat="42.416036351850074" lon="11.204583593944626"><ele>15.0</ele><time>2026-03-29T15:06:27.001Z</time></trkpt><trkpt lat="42.41619637786196" lon="11.204502925057815"><ele>15.0</ele><time>2026-03-29T15:06:28.001Z</time></trkpt><trkpt lat="42.41635943809012" lon="11.204418605286477"><ele>11.666666666666666</ele><time>2026-03-29T15:06:29.001Z</time></trkpt><trkpt lat="42.416526600899736" lon="11.20433644561318"><ele>8.333333333333334</ele><time>2026-03-29T15:06:30.001Z</time></trkpt><trkpt lat="42.416694082629114" lon="11.204255153668564"><ele>5.0</ele><time>2026-03-29T15:06:31.001Z</time></trkpt><trkpt lat="42.416853545483214" lon="11.204159551023858"><ele>5.0</ele><time>2026-03-29T15:06:32.001Z</time></trkpt><trkpt lat="42.41701009634213" lon="11.20406361208151"><ele>5.0</ele><time>2026-03-29T15:06:33.001Z</time></trkpt><trkpt lat="42.417166330326495" lon="11.203972913022156"><ele>5.0</ele><time>2026-03-29T15:06:34.001Z</time></trkpt><trkpt lat="42.41732280958056" lon="11.203885935403058"><ele>3.3333333333333335</ele><time>2026-03-29T15:06:35.001Z</time></trkpt><trkpt lat="42.417483132628476" lon="11.203805124694338"><ele>1.6666666666666667</ele><time>2026-03-29T15:06:36.001Z</time></trkpt><trkpt lat="42.417651993179916" lon="11.203733579702526"><ele>0.0</ele><time>2026-03-29T15:06:37.001Z</time></trkpt><trkpt lat="42.41782024374602" lon="11.203669098935702"><ele>0.0</ele><time>2026-03-29T15:06:38.001Z</time></trkpt><trkpt lat="42.417994177910664" lon="11.203610530621525"><ele>0.0</ele><time>2026-03-29T15:06:39.001Z</time></trkpt><trkpt lat="42.418165075661314" lon="11.203549173290615"><ele>0.0</ele><time>2026-03-29T15:06:40.001Z</time></trkpt><trkpt lat="42.41833581444972" lon="11.203480862388027"><ele>0.0</ele><time>2026-03-29T15:06:41.001Z</time></trkpt><trkpt lat="42.41849987576748" lon="11.2034331183391"><ele>0.0</ele><time>2026-03-29T15:06:42.001Z</time></trkpt><trkpt lat="42.41866166617276" lon="11.203385449971938"><ele>0.0</ele><time>2026-03-29T15:06:43.001Z</time></trkpt><trkpt lat="42.41881112850245" lon="11.203325362336813"><ele>-0.3333333333333333</ele><time>2026-03-29T15:06:44.001Z</time></trkpt><trkpt lat="42.41896199446991" lon="11.203265119172453"><ele>-0.6666666666666666</ele><time>2026-03-29T15:06:45.001Z</time></trkpt><trkpt lat="42.41911188585418" lon="11.203207746474785"><ele>-1.0</ele><time>2026-03-29T15:06:46.001Z</time></trkpt><trkpt lat="42.41925870113221" lon="11.203165663265747"><ele>-1.0</ele><time>2026-03-29T15:06:47.001Z</time></trkpt><trkpt lat="42.41939613451215" lon="11.203123139427802"><ele>-1.0</ele><time>2026-03-29T15:06:48Z</time></trkpt><trkpt lat="42.41954499717174" lon="11.203085428943963"><ele>-1.0</ele><time>2026-03-29T15:06:49Z</time></trkpt><trkpt lat="42.419697261168146" lon="11.203050327598195"><ele>-1.0</ele><time>2026-03-29T15:06:50Z</time></trkpt><trkpt lat="42.41983243692054" lon="11.203005619748284"><ele>-1.0</ele><time>2026-03-29T15:06:51Z</time></trkpt><trkpt lat="42.41998219950734" lon="11.202987754936679"><ele>-1.0</ele><time>2026-03-29T15:06:52Z</time></trkpt><trkpt lat="42.42024765019763" lon="11.20294835965569"><ele>-1.0</ele><time>2026-03-29T15:06:54Z</time></trkpt><trkpt lat="42.42038748646183" lon="11.202926296785481"><ele>-0.5</ele><time>2026-03-29T15:06:55Z</time></trkpt><trkpt lat="42.42051829662702" lon="11.202901642142919"><ele>0.0</ele><time>2026-03-29T15:06:56Z</time></trkpt><trkpt lat="42.42065180061658" lon="11.202878992264548"><ele>0.5</ele><time>2026-03-29T15:06:57Z</time></trkpt><trkpt lat="42.420779989363766" lon="11.202860041726403"><ele>1.0</ele><time>2026-03-29T15:06:58Z</time></trkpt><trkpt lat="42.42091446391469" lon="11.202832345126462"><ele>1.0</ele><time>2026-03-29T15:06:59Z</time></trkpt><trkpt lat="42.421044000116346" lon="11.202813583339536"><ele>1.0</ele><time>2026-03-29T15:07:00Z</time></trkpt><trkpt lat="42.4211831972064" lon="11.202793353749636"><ele>1.0</ele><time>2026-03-29T15:07:01Z</time></trkpt><trkpt lat="42.42132546481367" lon="11.20277556338193"><ele>1.0</ele><time>2026-03-29T15:07:02Z</time></trkpt><trkpt lat="42.421473408475904" lon="11.202751075987367"><ele>1.75</ele><time>2026-03-29T15:07:03Z</time></trkpt><trkpt lat="42.42161019105892" lon="11.202714174593916"><ele>2.5</ele><time>2026-03-29T15:07:04Z</time></trkpt><trkpt lat="42.42176200787948" lon="11.202690281499704"><ele>3.25</ele><time>2026-03-29T15:07:05Z</time></trkpt><trkpt lat="42.421915744898044" lon="11.202649041393135"><ele>4.0</ele><time>2026-03-29T15:07:06Z</time></trkpt><trkpt lat="42.422072745359145" lon="11.202608465699017"><ele>2.333333333333333</ele><time>2026-03-29T15:07:07Z</time></trkpt><trkpt lat="42.422224720716336" lon="11.202546168937527"><ele>0.6666666666666666</ele><time>2026-03-29T15:07:08Z</time></trkpt><trkpt lat="42.422381634198544" lon="11.202472079938467"><ele>-1.0</ele><time>2026-03-29T15:07:09Z</time></trkpt><trkpt lat="42.42254440643637" lon="11.202387245878084"><ele>1.0</ele><time>2026-03-29T15:07:10Z</time></trkpt><trkpt lat="42.42270193554558" lon="11.202296666318402"><ele>3.0</ele><time>2026-03-29T15:07:11Z</time></trkpt><trkpt lat="42.42286585208957" lon="11.202213930274933"><ele>5.0</ele><time>2026-03-29T15:07:12Z</time></trkpt><trkpt lat="42.4230322068235" lon="11.202123906427781"><ele>5.0</ele><time>2026-03-29T15:07:13Z</time></trkpt><trkpt lat="42.4232063970544" lon="11.202048546752199"><ele>5.0</ele><time>2026-03-29T15:07:14Z</time></trkpt><trkpt lat="42.42336402175794" lon="11.201956296034885"><ele>5.0</ele><time>2026-03-29T15:07:15Z</time></trkpt><trkpt lat="42.42351772232396" lon="11.201858493153129"><ele>5.0</ele><time>2026-03-29T15:07:16Z</time></trkpt><trkpt lat="42.423662046862624" lon="11.20174834345962"><ele>5.0</ele><time>2026-03-29T15:07:17Z</time></trkpt><trkpt lat="42.42379622923391" lon="11.201619372350434"><ele>5.0</ele><time>2026-03-29T15:07:18Z</time></trkpt><trkpt lat="42.423916187355346" lon="11.201454484162301"><ele>4.333333333333334</ele><time>2026-03-29T15:07:19Z</time></trkpt><trkpt lat="42.42402812457757" lon="11.201274751550223"><ele>3.666666666666667</ele><time>2026-03-29T15:07:20Z</time></trkpt><trkpt lat="42.424135902181206" lon="11.20108118141687"><ele>3.0</ele><time>2026-03-29T15:07:21Z</time></trkpt><trkpt lat="42.42423487382468" lon="11.200865284768037"><ele>3.0</ele><time>2026-03-29T15:07:22Z</time></trkpt><trkpt lat="42.42432054508727" lon="11.200632554495744"><ele>3.0</ele><time>2026-03-29T15:07:23Z</time></trkpt><trkpt lat="42.42442272867141" lon="11.200393755785946"><ele>3.0</ele><time>2026-03-29T15:07:24Z</time></trkpt><trkpt lat="42.42450699364104" lon="11.200173610059093"><ele>3.0</ele><time>2026-03-29T15:07:25Z</time></trkpt><trkpt lat="42.42459441438269" lon="11.199962703181521"><ele>3.0</ele><time>2026-03-29T15:07:26Z</time></trkpt><trkpt lat="42.42467910826638" lon="11.199752425040826"><ele>3.0</ele><time>2026-03-29T15:07:27Z</time></trkpt><trkpt lat="42.42477053746435" lon="11.199543655768647"><ele>2.0</ele><time>2026-03-29T15:07:28Z</time></trkpt><trkpt lat="42.42486797684742" lon="11.199335590150232"><ele>1.0</ele><time>2026-03-29T15:07:29Z</time></trkpt><trkpt lat="42.42497964957073" lon="11.199132743941263"><ele>0.0</ele><time>2026-03-29T15:07:30Z</time></trkpt><trkpt lat="42.42509133335478" lon="11.198938432459483"><ele>0.0</ele><time>2026-03-29T15:07:31Z</time></trkpt><trkpt lat="42.42519587748095" lon="11.198744579448114"><ele>0.0</ele><time>2026-03-29T15:07:32Z</time></trkpt><trkpt lat="42.42530474575124" lon="11.19855931232805"><ele>0.0</ele><time>2026-03-29T15:07:33Z</time></trkpt><trkpt lat="42.425408318022846" lon="11.19838734867885"><ele>0.3333333333333333</ele><time>2026-03-29T15:07:34Z</time></trkpt><trkpt lat="42.42550939682186" lon="11.198220875255524"><ele>0.6666666666666666</ele><time>2026-03-29T15:07:35Z</time></trkpt><trkpt lat="42.42560473924571" lon="11.198058785871739"><ele>1.0</ele><time>2026-03-29T15:07:36Z</time></trkpt><trkpt lat="42.42569416737566" lon="11.19790307404692"><ele>1.0</ele><time>2026-03-29T15:07:37Z</time></trkpt><trkpt lat="42.425773525917585" lon="11.197751774801993"><ele>1.0</ele><time>2026-03-29T15:07:38Z</time></trkpt><trkpt lat="42.425858060150375" lon="11.19761328617892"><ele>1.0</ele><time>2026-03-29T15:07:39Z</time></trkpt><trkpt lat="42.425969746810274" lon="11.197520810553948"><ele>1.0</ele><time>2026-03-29T15:07:40Z</time></trkpt><trkpt lat="42.42606125780942" lon="11.197407144242684"><ele>1.0</ele><time>2026-03-29T15:07:41Z</time></trkpt><trkpt lat="42.426162952352165" lon="11.197303306780602"><ele>1.0</ele><time>2026-03-29T15:07:42Z</time></trkpt><trkpt lat="42.42626046946253" lon="11.19719407010259"><ele>1.0</ele><time>2026-03-29T15:07:43Z</time></trkpt><trkpt lat="42.42637049930143" lon="11.19711634095002"><ele>1.0</ele><time>2026-03-29T15:07:44Z</time></trkpt><trkpt lat="42.42648547192542" lon="11.197046069320406"><ele>1.0</ele><time>2026-03-29T15:07:45Z</time></trkpt><trkpt lat="42.4266086093215" lon="11.19701151778022"><ele>1.0</ele><time>2026-03-29T15:07:46Z</time></trkpt><trkpt lat="42.426728233142356" lon="11.196945863598916"><ele>1.0</ele><time>2026-03-29T15:07:47Z</time></trkpt><trkpt lat="42.42684855155321" lon="11.196917640031709"><ele>1.0</ele><time>2026-03-29T15:07:48Z</time></trkpt><trkpt lat="42.426961387167985" lon="11.196882782233285"><ele>1.0</ele><time>2026-03-29T15:07:49Z</time></trkpt><trkpt lat="42.42706913631638" lon="11.196847984021034"><ele>1.0</ele><time>2026-03-29T15:07:50Z</time></trkpt><trkpt lat="42.42717246986374" lon="11.196841219527698"><ele>1.0</ele><time>2026-03-29T15:07:51Z</time></trkpt><trkpt lat="42.427265843652954" lon="11.196819131337051"><ele>1.0</ele><time>2026-03-29T15:07:52Z</time></trkpt><trkpt lat="42.427360461453475" lon="11.196809344028518"><ele>1.0</ele><time>2026-03-29T15:07:53Z</time></trkpt><trkpt lat="42.42746053852008" lon="11.196835024193607"><ele>0.6000000000000001</ele><time>2026-03-29T15:07:54Z</time></trkpt><trkpt lat="42.42755702786851" lon="11.196830457911648"><ele>0.20000000000000007</ele><time>2026-03-29T15:07:55Z</time></trkpt><trkpt lat="42.42763904735625" lon="11.196939814090932"><ele>-0.20000000000000007</ele><time>2026-03-29T15:07:56Z</time></trkpt><trkpt lat="42.42771207259359" lon="11.197010460770661"><ele>-0.6000000000000001</ele><time>2026-03-29T15:07:57Z</time></trkpt><trkpt lat="42.42777001799285" lon="11.197087456624427"><ele>-1.0</ele><time>2026-03-29T15:07:58Z</time></trkpt><trkpt lat="42.42782642672237" lon="11.197182010733076"><ele>-1.0</ele><time>2026-03-29T15:07:59Z</time></trkpt><trkpt lat="42.42788365880212" lon="11.19730153063286"><ele>-1.0</ele><time>2026-03-29T15:08:00Z</time></trkpt><trkpt lat="42.4279734465499" lon="11.197401949286713"><ele>-1.0</ele><time>2026-03-29T15:08:01Z</time></trkpt><trkpt lat="42.42800243911622" lon="11.197602273086197"><ele>-1.0</ele><time>2026-03-29T15:08:02Z</time></trkpt><trkpt lat="42.42805987990225" lon="11.197758674492848"><ele>-1.0</ele><time>2026-03-29T15:08:03Z</time></trkpt><trkpt lat="42.42811945663738" lon="11.197922869173533"><ele>-1.0</ele><time>2026-03-29T15:08:04Z</time></trkpt><trkpt lat="42.42818369855543" lon="11.198094363692434"><ele>-1.0</ele><time>2026-03-29T15:08:05Z</time></trkpt><trkpt lat="42.428247965989016" lon="11.19825901543421"><ele>-1.0</ele><time>2026-03-29T15:08:06Z</time></trkpt><trkpt lat="42.42831755853307" lon="11.19842822054017"><ele>-1.0</ele><time>2026-03-29T15:08:07Z</time></trkpt><trkpt lat="42.42839618504548" lon="11.198595337226534"><ele>-1.0</ele><time>2026-03-29T15:08:08Z</time></trkpt><trkpt lat="42.428484541624705" lon="11.1987520173947"><ele>-1.0</ele><time>2026-03-29T15:08:09Z</time></trkpt><trkpt lat="42.42857963960184" lon="11.198895694561422"><ele>-1.0</ele><time>2026-03-29T15:08:10Z</time></trkpt><trkpt lat="42.42868087102905" lon="11.19902740479072"><ele>-1.0</ele><time>2026-03-29T15:08:11Z</time></trkpt><trkpt lat="42.42878342974389" lon="11.199151982334586"><ele>-1.0</ele><time>2026-03-29T15:08:12Z</time></trkpt><trkpt lat="42.42888932360703" lon="11.199272860115137"><ele>-1.0</ele><time>2026-03-29T15:08:13Z</time></trkpt><trkpt lat="42.429002089061505" lon="11.199385573543005"><ele>-1.0</ele><time>2026-03-29T15:08:14Z</time></trkpt><trkpt lat="42.429119619390676" lon="11.19949922265127"><ele>-1.5</ele><time>2026-03-29T15:08:15Z</time></trkpt><trkpt lat="42.42923674983968" lon="11.19962017223354"><ele>-2.0</ele><time>2026-03-29T15:08:16Z</time></trkpt><trkpt lat="42.429357294115114" lon="11.199737345837761"><ele>-2.5</ele><time>2026-03-29T15:08:17Z</time></trkpt><trkpt lat="42.429475476020464" lon="11.199856826732457"><ele>-3.0</ele><time>2026-03-29T15:08:18Z</time></trkpt><trkpt lat="42.42959300335149" lon="11.199981141335982"><ele>-3.666666666666667</ele><time>2026-03-29T15:08:19Z</time></trkpt><trkpt lat="42.429713048717126" lon="11.20010382148101"><ele>-4.333333333333334</ele><time>2026-03-29T15:08:20Z</time></trkpt><trkpt lat="42.42983616419549" lon="11.20023025056812"><ele>-5.0</ele><time>2026-03-29T15:08:21Z</time></trkpt><trkpt lat="42.42996008616893" lon="11.2003591551558"><ele>-5.0</ele><time>2026-03-29T15:08:22Z</time></trkpt><trkpt lat="42.43008704282275" lon="11.200483701331242"><ele>-5.0</ele><time>2026-03-29T15:08:23Z</time></trkpt><trkpt lat="42.43021656895799" lon="11.200613822754034"><ele>-5.0</ele><time>2026-03-29T15:08:24.001Z</time></trkpt><trkpt lat="42.43034483044487" lon="11.200741523839612"><ele>-5.0</ele><time>2026-03-29T15:08:25.001Z</time></trkpt><trkpt lat="42.43047993513614" lon="11.200871150588624"><ele>-5.0</ele><time>2026-03-29T15:08:26.001Z</time></trkpt><trkpt lat="42.430615001347626" lon="11.20100464531837"><ele>-5.0</ele><time>2026-03-29T15:08:27.001Z</time></trkpt><trkpt lat="42.43074869469264" lon="11.201150669856206"><ele>-5.0</ele><time>2026-03-29T15:08:28.001Z</time></trkpt><trkpt lat="42.43088446839159" lon="11.20128907708653"><ele>-5.0</ele><time>2026-03-29T15:08:29.001Z</time></trkpt><trkpt lat="42.43102464963157" lon="11.201423468214479"><ele>-5.0</ele><time>2026-03-29T15:08:30.001Z</time></trkpt><trkpt lat="42.43116547205077" lon="11.20156421034816"><ele>-5.0</ele><time>2026-03-29T15:08:31.001Z</time></trkpt><trkpt lat="42.431307062312555" lon="11.201705922828681"><ele>-5.0</ele><time>2026-03-29T15:08:32.001Z</time></trkpt><trkpt lat="42.43144783347877" lon="11.201852073490098"><ele>-5.0</ele><time>2026-03-29T15:08:33.001Z</time></trkpt><trkpt lat="42.43158871747746" lon="11.201993746764394"><ele>-5.0</ele><time>2026-03-29T15:08:34.001Z</time></trkpt><trkpt lat="42.431732399932336" lon="11.202131831704085"><ele>-5.0</ele><time>2026-03-29T15:08:35.001Z</time></trkpt><trkpt lat="42.431874224139825" lon="11.202273910463619"><ele>-5.0</ele><time>2026-03-29T15:08:36.001Z</time></trkpt><trkpt lat="42.43201220086986" lon="11.202410160266103"><ele>-5.0</ele><time>2026-03-29T15:08:37.001Z</time></trkpt><trkpt lat="42.43214354428806" lon="11.202550109305033"><ele>-5.0</ele><time>2026-03-29T15:08:38.001Z</time></trkpt><trkpt lat="42.43227272887722" lon="11.202682945389364"><ele>-5.0</ele><time>2026-03-29T15:08:39.001Z</time></trkpt><trkpt lat="42.43239680734224" lon="11.20281165001433"><ele>-5.0</ele><time>2026-03-29T15:08:40.001Z</time></trkpt><trkpt lat="42.432522053932786" lon="11.202935489304195"><ele>-5.0</ele><time>2026-03-29T15:08:41.001Z</time></trkpt><trkpt lat="42.43264262104057" lon="11.203064339809085"><ele>-5.0</ele><time>2026-03-29T15:08:42.001Z</time></trkpt><trkpt lat="42.4327588474957" lon="11.203191408783448"><ele>-5.0</ele><time>2026-03-29T15:08:43.001Z</time></trkpt><trkpt lat="42.43287694048231" lon="11.203311913776735"><ele>-5.0</ele><time>2026-03-29T15:08:44.001Z</time></trkpt><trkpt lat="42.432994101008816" lon="11.203432617117604"><ele>-5.0</ele><time>2026-03-29T15:08:45.001Z</time></trkpt><trkpt lat="42.43310586543174" lon="11.203550013550736"><ele>-5.0</ele><time>2026-03-29T15:08:46.001Z</time></trkpt><trkpt lat="42.43322238416596" lon="11.203666232211228"><ele>-5.0</ele><time>2026-03-29T15:08:47.001Z</time></trkpt><trkpt lat="42.43333393939443" lon="11.203785364799014"><ele>-5.0</ele><time>2026-03-29T15:08:48.001Z</time></trkpt><trkpt lat="42.43344801955405" lon="11.203901237877451"><ele>-5.0</ele><time>2026-03-29T15:08:49.001Z</time></trkpt><trkpt lat="42.43356274509279" lon="11.204017393929632"><ele>-5.0</ele><time>2026-03-29T15:08:50Z</time></trkpt><trkpt lat="42.43368000236652" lon="11.204135090947728"><ele>-5.0</ele><time>2026-03-29T15:08:51Z</time></trkpt><trkpt lat="42.43379706147801" lon="11.204255705423797"><ele>-5.0</ele><time>2026-03-29T15:08:52Z</time></trkpt><trkpt lat="42.43391809391056" lon="11.204372537644456"><ele>-5.0</ele><time>2026-03-29T15:08:53Z</time></trkpt><trkpt lat="42.43404058700413" lon="11.204493664988329"><ele>-5.0</ele><time>2026-03-29T15:08:54Z</time></trkpt><trkpt lat="42.43416236376738" lon="11.204616394999151"><ele>-5.0</ele><time>2026-03-29T15:08:55Z</time></trkpt><trkpt lat="42.434285464180455" lon="11.204745832255353"><ele>-5.0</ele><time>2026-03-29T15:08:56Z</time></trkpt><trkpt lat="42.434407952232" lon="11.204868536205042"><ele>-5.0</ele><time>2026-03-29T15:08:57Z</time></trkpt><trkpt lat="42.43453075373081" lon="11.204996576845323"><ele>-5.0</ele><time>2026-03-29T15:08:58Z</time></trkpt><trkpt lat="42.43465703554429" lon="11.205129580905286"><ele>-5.0</ele><time>2026-03-29T15:08:59Z</time></trkpt><trkpt lat="42.43477963723504" lon="11.20524828692582"><ele>-5.0</ele><time>2026-03-29T15:09:00Z</time></trkpt><trkpt lat="42.43490247530776" lon="11.205373771986306"><ele>-5.0</ele><time>2026-03-29T15:09:01Z</time></trkpt><trkpt lat="42.43502386604835" lon="11.205494001991527"><ele>-5.0</ele><time>2026-03-29T15:09:02Z</time></trkpt><trkpt lat="42.43513398536759" lon="11.205612293362154"><ele>-5.0</ele><time>2026-03-29T15:09:03Z</time></trkpt><trkpt lat="42.43524243706257" lon="11.205721284525568"><ele>-5.0</ele><time>2026-03-29T15:09:04Z</time></trkpt><trkpt lat="42.43534387170171" lon="11.205820642334999"><ele>-5.0</ele><time>2026-03-29T15:09:05Z</time></trkpt><trkpt lat="42.435439451145996" lon="11.205920147572781"><ele>-5.0</ele><time>2026-03-29T15:09:06Z</time></trkpt><trkpt lat="42.43552988116831" lon="11.206017540137333"><ele>-5.0</ele><time>2026-03-29T15:09:07Z</time></trkpt><trkpt lat="42.43561643119731" lon="11.206103976255214"><ele>-5.0</ele><time>2026-03-29T15:09:08Z</time></trkpt><trkpt lat="42.435699082963865" lon="11.20619267907404"><ele>-5.0</ele><time>2026-03-29T15:09:09Z</time></trkpt><trkpt lat="42.43577570019224" lon="11.206278444078778"><ele>-4.666666666666667</ele><time>2026-03-29T15:09:10Z</time></trkpt><trkpt lat="42.43584765640239" lon="11.206360903824315"><ele>-4.333333333333334</ele><time>2026-03-29T15:09:11Z</time></trkpt><trkpt lat="42.435914374006366" lon="11.20643866626446"><ele>-4.0</ele><time>2026-03-29T15:09:12Z</time></trkpt><trkpt lat="42.43597973389588" lon="11.206506182782366"><ele>-3.666666666666667</ele><time>2026-03-29T15:09:13Z</time></trkpt><trkpt lat="42.43604068150461" lon="11.206569932051622"><ele>-3.3333333333333335</ele><time>2026-03-29T15:09:14Z</time></trkpt><trkpt lat="42.43609702800315" lon="11.206630173373606"><ele>-3.0</ele><time>2026-03-29T15:09:15Z</time></trkpt><trkpt lat="42.436150457689564" lon="11.206684070018618"><ele>-2.8</ele><time>2026-03-29T15:09:16Z</time></trkpt><trkpt lat="42.436254372989175" lon="11.206775892900968"><ele>-2.5999999999999996</ele><time>2026-03-29T15:09:18Z</time></trkpt><trkpt lat="42.43633990704472" lon="11.206857632895701"><ele>-2.4000000000000004</ele><time>2026-03-29T15:09:20Z</time></trkpt><trkpt lat="42.43641071565163" lon="11.206936487207614"><ele>-2.2</ele><time>2026-03-29T15:09:22Z</time></trkpt><trkpt lat="42.43648185513987" lon="11.207035248901331"><ele>-2.0</ele><time>2026-03-29T15:09:24Z</time></trkpt><trkpt lat="42.43651000245785" lon="11.207116756589205"><ele>-1.857142857142857</ele><time>2026-03-29T15:09:25Z</time></trkpt><trkpt lat="42.43651378441982" lon="11.207204912906978"><ele>-1.714285714285714</ele><time>2026-03-29T15:09:26Z</time></trkpt><trkpt lat="42.436497105427954" lon="11.207288352255091"><ele>-1.5714285714285714</ele><time>2026-03-29T15:09:27Z</time></trkpt><trkpt lat="42.43647336867965" lon="11.207378183330196"><ele>-1.4285714285714284</ele><time>2026-03-29T15:09:28Z</time></trkpt><trkpt lat="42.436446419305604" lon="11.207472741309898"><ele>-1.2857142857142856</ele><time>2026-03-29T15:09:29Z</time></trkpt><trkpt lat="42.436421582905176" lon="11.207561372654732"><ele>-1.1428571428571428</ele><time>2026-03-29T15:09:30Z</time></trkpt><trkpt lat="42.43639192838462" lon="11.207650366215077"><ele>-1.0</ele><time>2026-03-29T15:09:31Z</time></trkpt><trkpt lat="42.43635733693603" lon="11.207728597342452"><ele>-0.9999999999999999</ele><time>2026-03-29T15:09:32Z</time></trkpt><trkpt lat="42.43630129143246" lon="11.207794389858694"><ele>-1.0</ele><time>2026-03-29T15:09:33Z</time></trkpt><trkpt lat="42.43626141109102" lon="11.207882911852673"><ele>-1.0</ele><time>2026-03-29T15:09:34Z</time></trkpt><trkpt lat="42.43622757246005" lon="11.207983054547379"><ele>-1.0</ele><time>2026-03-29T15:09:35Z</time></trkpt><trkpt lat="42.436205035761894" lon="11.208074514543094"><ele>-0.9999999999999999</ele><time>2026-03-29T15:09:36Z</time></trkpt><trkpt lat="42.43618071364509" lon="11.208245316428"><ele>-1.0</ele><time>2026-03-29T15:09:38Z</time></trkpt><trkpt lat="42.43619649909272" lon="11.208363439696814"><ele>-1.0</ele><time>2026-03-29T15:09:40Z</time></trkpt><trkpt lat="42.4362137872104" lon="11.208472092079855"><ele>-1.0</ele><time>2026-03-29T15:09:42Z</time></trkpt><trkpt lat="42.436230920507064" lon="11.208583951205231"><ele>-1.0</ele><time>2026-03-29T15:09:44Z</time></trkpt><trkpt lat="42.436248488921166" lon="11.208723855429154"><ele>-1.0</ele><time>2026-03-29T15:09:46Z</time></trkpt><trkpt lat="42.43626612668128" lon="11.20886706234242"><ele>-1.0</ele><time>2026-03-29T15:09:48Z</time></trkpt><trkpt lat="42.43629200708118" lon="11.209019352848888"><ele>-0.9999999999999999</ele><time>2026-03-29T15:09:50Z</time></trkpt><trkpt lat="42.436315809610484" lon="11.209106704484725"><ele>-1.0</ele><time>2026-03-29T15:09:51Z</time></trkpt><trkpt lat="42.436289664559524" lon="11.209216236583988"><ele>-1.0</ele><time>2026-03-29T15:09:52Z</time></trkpt><trkpt lat="42.43630287733877" lon="11.20930731178586"><ele>-1.0</ele><time>2026-03-29T15:09:53Z</time></trkpt><trkpt lat="42.43631872101294" lon="11.209409934795621"><ele>-0.9999999999999999</ele><time>2026-03-29T15:09:54Z</time></trkpt><trkpt lat="42.436333841990425" lon="11.209496498167402"><ele>-1.0</ele><time>2026-03-29T15:09:55Z</time></trkpt><trkpt lat="42.43636254126996" lon="11.209651682392291"><ele>-0.16666666666666663</ele><time>2026-03-29T15:09:57Z</time></trkpt><trkpt lat="42.43639220717029" lon="11.209802185361742"><ele>0.6666666666666666</ele><time>2026-03-29T15:09:59Z</time></trkpt><trkpt lat="42.436410064179775" lon="11.209891181076138"><ele>1.5</ele><time>2026-03-29T15:10:00Z</time></trkpt><trkpt lat="42.436428768277985" lon="11.209983375895275"><ele>2.333333333333333</ele><time>2026-03-29T15:10:01Z</time></trkpt><trkpt lat="42.43644602727136" lon="11.210068447857887"><ele>3.1666666666666665</ele><time>2026-03-29T15:10:02Z</time></trkpt><trkpt lat="42.43647445966885" lon="11.210229173781254"><ele>4.0</ele><time>2026-03-29T15:10:04Z</time></trkpt><trkpt lat="42.43648673220176" lon="11.210322210876681"><ele>4.0</ele><time>2026-03-29T15:10:05Z</time></trkpt><trkpt lat="42.43650185098722" lon="11.210410785194911"><ele>4.0</ele><time>2026-03-29T15:10:06Z</time></trkpt><trkpt lat="42.43653275188373" lon="11.210578602039154"><ele>4.0</ele><time>2026-03-29T15:10:08Z</time></trkpt><trkpt lat="42.43654918143342" lon="11.21066127034591"><ele>4.0</ele><time>2026-03-29T15:10:09Z</time></trkpt><trkpt lat="42.43658443695969" lon="11.210826398114312"><ele>4.0</ele><time>2026-03-29T15:10:11Z</time></trkpt><trkpt lat="42.43659968817736" lon="11.21091607158028"><ele>3.833333333333333</ele><time>2026-03-29T15:10:12Z</time></trkpt><trkpt lat="42.436628060047774" lon="11.211007752222422"><ele>3.6666666666666665</ele><time>2026-03-29T15:10:13Z</time></trkpt><trkpt lat="42.43665318509456" lon="11.211103898506382"><ele>3.5</ele><time>2026-03-29T15:10:14Z</time></trkpt><trkpt lat="42.43667510169816" lon="11.211203655843871"><ele>3.333333333333333</ele><time>2026-03-29T15:10:15Z</time></trkpt><trkpt lat="42.436698007222226" lon="11.211311540157618"><ele>3.1666666666666665</ele><time>2026-03-29T15:10:16Z</time></trkpt><trkpt lat="42.436723981895184" lon="11.211418122866048"><ele>3.0</ele><time>2026-03-29T15:10:17Z</time></trkpt><trkpt lat="42.436752628405735" lon="11.211519765378432"><ele>2.6666666666666665</ele><time>2026-03-29T15:10:18Z</time></trkpt><trkpt lat="42.436785192905255" lon="11.21162084504392"><ele>2.3333333333333335</ele><time>2026-03-29T15:10:19Z</time></trkpt><trkpt lat="42.436819699439006" lon="11.211725130923027"><ele>2.0</ele><time>2026-03-29T15:10:20Z</time></trkpt><trkpt lat="42.43684139319992" lon="11.21184213494471"><ele>1.6666666666666665</ele><time>2026-03-29T15:10:21Z</time></trkpt><trkpt lat="42.436872868347926" lon="11.211957275069262"><ele>1.3333333333333333</ele><time>2026-03-29T15:10:22Z</time></trkpt><trkpt lat="42.436905650852964" lon="11.212069761187777"><ele>1.0</ele><time>2026-03-29T15:10:23Z</time></trkpt><trkpt lat="42.43694184319048" lon="11.212186470238073"><ele>0.4</ele><time>2026-03-29T15:10:24Z</time></trkpt><trkpt lat="42.4369538203587" lon="11.212335241408747"><ele>-0.19999999999999996</ele><time>2026-03-29T15:10:25Z</time></trkpt><trkpt lat="42.43699152799682" lon="11.212457514230357"><ele>-0.8000000000000002</ele><time>2026-03-29T15:10:26Z</time></trkpt><trkpt lat="42.43702788742352" lon="11.212583053520735"><ele>-1.4000000000000001</ele><time>2026-03-29T15:10:27Z</time></trkpt><trkpt lat="42.437061936000255" lon="11.212703061135464"><ele>-2.0</ele><time>2026-03-29T15:10:28Z</time></trkpt><trkpt lat="42.43709773518015" lon="11.212822009697645"><ele>-2.0</ele><time>2026-03-29T15:10:28.999Z</time></trkpt><trkpt lat="42.437134252149164" lon="11.212945449005872"><ele>-2.0</ele><time>2026-03-29T15:10:30.001Z</time></trkpt><trkpt lat="42.43714097009936" lon="11.21308883162302"><ele>-2.0</ele><time>2026-03-29T15:10:31.001Z</time></trkpt><trkpt lat="42.4371766442376" lon="11.213219481591372"><ele>-2.0</ele><time>2026-03-29T15:10:32.001Z</time></trkpt><trkpt lat="42.43721196722532" lon="11.213347150681486"><ele>-2.0</ele><time>2026-03-29T15:10:33.001Z</time></trkpt><trkpt lat="42.437247793219186" lon="11.213482523571468"><ele>-1.4000000000000001</ele><time>2026-03-29T15:10:34.001Z</time></trkpt><trkpt lat="42.43728528479432" lon="11.213612481845654"><ele>-0.8000000000000002</ele><time>2026-03-29T15:10:35.001Z</time></trkpt><trkpt lat="42.43732790083522" lon="11.21373144186269"><ele>-0.19999999999999996</ele><time>2026-03-29T15:10:36.001Z</time></trkpt><trkpt lat="42.43737802754402" lon="11.213852253960622"><ele>0.4</ele><time>2026-03-29T15:10:37.001Z</time></trkpt><trkpt lat="42.43743218649344" lon="11.213964546870077"><ele>1.0</ele><time>2026-03-29T15:10:38.001Z</time></trkpt><trkpt lat="42.43749136724775" lon="11.214062980563675"><ele>0.9999999999999999</ele><time>2026-03-29T15:10:39.001Z</time></trkpt><trkpt lat="42.43756670290737" lon="11.214131450327642"><ele>1.0</ele><time>2026-03-29T15:10:40.001Z</time></trkpt><trkpt lat="42.43764557733166" lon="11.214171267279456"><ele>1.0</ele><time>2026-03-29T15:10:41.001Z</time></trkpt><trkpt lat="42.43773106009872" lon="11.214201272183887"><ele>1.0</ele><time>2026-03-29T15:10:42.001Z</time></trkpt><trkpt lat="42.437822592722426" lon="11.214217197167251"><ele>0.9999999999999999</ele><time>2026-03-29T15:10:43.001Z</time></trkpt><trkpt lat="42.437915129511055" lon="11.214233445974072"><ele>1.0</ele><time>2026-03-29T15:10:44.001Z</time></trkpt><trkpt lat="42.4379983318601" lon="11.21424476721522"><ele>1.4</ele><time>2026-03-29T15:10:45.001Z</time></trkpt><trkpt lat="42.438072792029566" lon="11.214243782137643"><ele>1.8</ele><time>2026-03-29T15:10:46.001Z</time></trkpt><trkpt lat="42.43819692699529" lon="11.21427300536281"><ele>2.1999999999999997</ele><time>2026-03-29T15:10:48.001Z</time></trkpt><trkpt lat="42.43827008809323" lon="11.21428169051339"><ele>2.6</ele><time>2026-03-29T15:10:49.001Z</time></trkpt><trkpt lat="42.438393152856996" lon="11.214285171336883"><ele>3.0</ele><time>2026-03-29T15:10:51.001Z</time></trkpt><trkpt lat="42.438505920946916" lon="11.214279923272894"><ele>3.0</ele><time>2026-03-29T15:10:53.001Z</time></trkpt><trkpt lat="42.43856990852565" lon="11.214271713634453"><ele>3.0</ele><time>2026-03-29T15:10:54Z</time></trkpt><trkpt lat="42.4386340164653" lon="11.214261367424497"><ele>3.0</ele><time>2026-03-29T15:10:55Z</time></trkpt><trkpt lat="42.43874636417104" lon="11.21423656049639"><ele>3.0</ele><time>2026-03-29T15:10:57Z</time></trkpt><trkpt lat="42.438839701925644" lon="11.214209233194742"><ele>3.0</ele><time>2026-03-29T15:10:59Z</time></trkpt><trkpt lat="42.43894433197277" lon="11.214172402885467"><ele>3.0</ele><time>2026-03-29T15:11:01Z</time></trkpt><trkpt lat="42.43900776318229" lon="11.214145984989104"><ele>3.0</ele><time>2026-03-29T15:11:02Z</time></trkpt><trkpt lat="42.43906880208149" lon="11.214106769685726"><ele>3.0</ele><time>2026-03-29T15:11:03Z</time></trkpt><trkpt lat="42.43913227432562" lon="11.21405987823635"><ele>3.0</ele><time>2026-03-29T15:11:04Z</time></trkpt><trkpt lat="42.43919541633806" lon="11.214010784432928"><ele>3.0</ele><time>2026-03-29T15:11:05Z</time></trkpt><trkpt lat="42.43925908543231" lon="11.213955452724514"><ele>3.0</ele><time>2026-03-29T15:11:06Z</time></trkpt><trkpt lat="42.43932324408428" lon="11.213887716196483"><ele>3.0</ele><time>2026-03-29T15:11:07Z</time></trkpt><trkpt lat="42.439388525134866" lon="11.213819402190833"><ele>3.1666666666666665</ele><time>2026-03-29T15:11:08Z</time></trkpt><trkpt lat="42.439452435949704" lon="11.213763267332224"><ele>3.333333333333333</ele><time>2026-03-29T15:11:09Z</time></trkpt><trkpt lat="42.43952517010875" lon="11.213719421450369"><ele>3.5</ele><time>2026-03-29T15:11:10Z</time></trkpt><trkpt lat="42.43959768698641" lon="11.213675770640403"><ele>3.6666666666666665</ele><time>2026-03-29T15:11:11Z</time></trkpt><trkpt lat="42.43966606124178" lon="11.213632738906378"><ele>3.833333333333333</ele><time>2026-03-29T15:11:12Z</time></trkpt><trkpt lat="42.439736927232914" lon="11.213587723656131"><ele>4.0</ele><time>2026-03-29T15:11:13Z</time></trkpt><trkpt lat="42.43981558681269" lon="11.213556969897187"><ele>3.6</ele><time>2026-03-29T15:11:14Z</time></trkpt><trkpt lat="42.43988882823179" lon="11.213547647979428"><ele>3.2</ele><time>2026-03-29T15:11:15Z</time></trkpt><trkpt lat="42.439962114233616" lon="11.21350553428139"><ele>2.8000000000000003</ele><time>2026-03-29T15:11:17Z</time></trkpt><trkpt lat="42.44004976141382" lon="11.21363464717118"><ele>2.4000000000000004</ele><time>2026-03-29T15:11:19Z</time></trkpt><trkpt lat="42.44012086398161" lon="11.2137349507687"><ele>2.0</ele><time>2026-03-29T15:11:21Z</time></trkpt><trkpt lat="42.44020722644119" lon="11.21384514815267"><ele>1.9999999999999998</ele><time>2026-03-29T15:11:23Z</time></trkpt><trkpt lat="42.44025419341393" lon="11.21390661545414"><ele>2.0</ele><time>2026-03-29T15:11:24Z</time></trkpt><trkpt lat="42.44030711908648" lon="11.213964934687144"><ele>2.0</ele><time>2026-03-29T15:11:25Z</time></trkpt><trkpt lat="42.44035722806282" lon="11.214027334274224"><ele>2.0</ele><time>2026-03-29T15:11:26Z</time></trkpt><trkpt lat="42.440419589480555" lon="11.214099616650788"><ele>1.9999999999999998</ele><time>2026-03-29T15:11:27Z</time></trkpt><trkpt lat="42.440475660526374" lon="11.214195190318021"><ele>2.0</ele><time>2026-03-29T15:11:28Z</time></trkpt><trkpt lat="42.44052966391504" lon="11.214307309170046"><ele>2.2</ele><time>2026-03-29T15:11:29Z</time></trkpt><trkpt lat="42.44055324664422" lon="11.21444529093953"><ele>2.4000000000000004</ele><time>2026-03-29T15:11:30Z</time></trkpt><trkpt lat="42.440584229408486" lon="11.214557182936677"><ele>2.5999999999999996</ele><time>2026-03-29T15:11:31Z</time></trkpt><trkpt lat="42.440615126413576" lon="11.214674552503956"><ele>2.8</ele><time>2026-03-29T15:11:32Z</time></trkpt><trkpt lat="42.440651177387224" lon="11.214805328391714"><ele>3.0</ele><time>2026-03-29T15:11:33Z</time></trkpt><trkpt lat="42.440689120385315" lon="11.214942967597922"><ele>3.2</ele><time>2026-03-29T15:11:34Z</time></trkpt><trkpt lat="42.44072930970959" lon="11.21508875769664"><ele>3.4</ele><time>2026-03-29T15:11:35Z</time></trkpt><trkpt lat="42.440799530246274" lon="11.21520752692042"><ele>3.6000000000000005</ele><time>2026-03-29T15:11:36Z</time></trkpt><trkpt lat="42.44085489799626" lon="11.215329452834736"><ele>3.8000000000000003</ele><time>2026-03-29T15:11:37Z</time></trkpt><trkpt lat="42.440904529925405" lon="11.21546246279693"><ele>4.0</ele><time>2026-03-29T15:11:38Z</time></trkpt><trkpt lat="42.44095437211677" lon="11.215586502217668"><ele>4.2</ele><time>2026-03-29T15:11:39Z</time></trkpt><trkpt lat="42.44100118651472" lon="11.215704773783665"><ele>4.4</ele><time>2026-03-29T15:11:40Z</time></trkpt><trkpt lat="42.4410427668126" lon="11.215831247507001"><ele>4.6</ele><time>2026-03-29T15:11:41Z</time></trkpt><trkpt lat="42.441086901026196" lon="11.21595438198823"><ele>4.8</ele><time>2026-03-29T15:11:42Z</time></trkpt><trkpt lat="42.44112802681901" lon="11.216075192155591"><ele>5.0</ele><time>2026-03-29T15:11:43Z</time></trkpt><trkpt lat="42.44117135072531" lon="11.216188291376008"><ele>5.0</ele><time>2026-03-29T15:11:44Z</time></trkpt><trkpt lat="42.44120241175204" lon="11.216306784052524"><ele>5.0</ele><time>2026-03-29T15:11:45Z</time></trkpt><trkpt lat="42.44124610056665" lon="11.216415728589183"><ele>5.0</ele><time>2026-03-29T15:11:46Z</time></trkpt><trkpt lat="42.44129063198386" lon="11.216526775755758"><ele>5.0</ele><time>2026-03-29T15:11:47Z</time></trkpt><trkpt lat="42.441336086180556" lon="11.216638701956748"><ele>5.0</ele><time>2026-03-29T15:11:48Z</time></trkpt><trkpt lat="42.44138197809522" lon="11.216752140085028"><ele>4.5</ele><time>2026-03-29T15:11:49Z</time></trkpt><trkpt lat="42.441421323543466" lon="11.216849396232245"><ele>4.0</ele><time>2026-03-29T15:11:50Z</time></trkpt><trkpt lat="42.44145926066647" lon="11.216944294874352"><ele>3.5</ele><time>2026-03-29T15:11:51Z</time></trkpt><trkpt lat="42.44149236737922" lon="11.21703052987454"><ele>3.0</ele><time>2026-03-29T15:11:52Z</time></trkpt><trkpt lat="42.441544525002655" lon="11.217105705655555"><ele>2.5</ele><time>2026-03-29T15:11:53Z</time></trkpt><trkpt lat="42.441562507396675" lon="11.217205840237478"><ele>2.0</ele><time>2026-03-29T15:11:54Z</time></trkpt><trkpt lat="42.44158157648626" lon="11.217318822751562"><ele>2.0</ele><time>2026-03-29T15:11:55Z</time></trkpt><trkpt lat="42.441605252180544" lon="11.217437078688201"><ele>2.0</ele><time>2026-03-29T15:11:56Z</time></trkpt><trkpt lat="42.44163443852802" lon="11.217557605511628"><ele>2.0</ele><time>2026-03-29T15:11:57Z</time></trkpt><trkpt lat="42.44165835615576" lon="11.217678342238951"><ele>2.0</ele><time>2026-03-29T15:11:58Z</time></trkpt><trkpt lat="42.44168184990808" lon="11.21780454905182"><ele>2.0</ele><time>2026-03-29T15:11:59Z</time></trkpt><trkpt lat="42.4417074388453" lon="11.217923321543902"><ele>2.0</ele><time>2026-03-29T15:12:00Z</time></trkpt><trkpt lat="42.44173175296444" lon="11.218040636330493"><ele>2.0</ele><time>2026-03-29T15:12:01Z</time></trkpt><trkpt lat="42.4417571594335" lon="11.218157778948301"><ele>2.0</ele><time>2026-03-29T15:12:02Z</time></trkpt><trkpt lat="42.4417864079791" lon="11.218280683905054"><ele>2.0</ele><time>2026-03-29T15:12:03Z</time></trkpt><trkpt lat="42.44181337066752" lon="11.218397309303013"><ele>2.0</ele><time>2026-03-29T15:12:04Z</time></trkpt><trkpt lat="42.441839846889714" lon="11.218508566619557"><ele>1.9999999999999998</ele><time>2026-03-29T15:12:05Z</time></trkpt><trkpt lat="42.44185462560384" lon="11.218620024154923"><ele>2.0</ele><time>2026-03-29T15:12:06Z</time></trkpt><trkpt lat="42.44187416288876" lon="11.218728538579148"><ele>2.0</ele><time>2026-03-29T15:12:07Z</time></trkpt><trkpt lat="42.441902794781385" lon="11.218838996369461"><ele>2.0</ele><time>2026-03-29T15:12:08Z</time></trkpt><trkpt lat="42.4419304924841" lon="11.218956104510358"><ele>1.9999999999999998</ele><time>2026-03-29T15:12:09Z</time></trkpt><trkpt lat="42.44195905512393" lon="11.219079313127656"><ele>2.0</ele><time>2026-03-29T15:12:10Z</time></trkpt><trkpt lat="42.44198279039392" lon="11.21919378103623"><ele>1.9999999999999998</ele><time>2026-03-29T15:12:11Z</time></trkpt><trkpt lat="42.44195980822968" lon="11.219327545825493"><ele>2.0</ele><time>2026-03-29T15:12:12Z</time></trkpt><trkpt lat="42.442024818844736" lon="11.219421037418698"><ele>2.0</ele><time>2026-03-29T15:12:13Z</time></trkpt><trkpt lat="42.442045060983176" lon="11.219529313180928"><ele>2.0</ele><time>2026-03-29T15:12:14Z</time></trkpt><trkpt lat="42.44206433261804" lon="11.219639864954912"><ele>1.9999999999999998</ele><time>2026-03-29T15:12:15Z</time></trkpt><trkpt lat="42.44208693586814" lon="11.219748125714283"><ele>2.0</ele><time>2026-03-29T15:12:16Z</time></trkpt><trkpt lat="42.44210469286164" lon="11.219862394833084"><ele>1.8333333333333333</ele><time>2026-03-29T15:12:17Z</time></trkpt><trkpt lat="42.44212411963769" lon="11.2199791064648"><ele>1.6666666666666665</ele><time>2026-03-29T15:12:18Z</time></trkpt><trkpt lat="42.44214403806814" lon="11.220097111700625"><ele>1.5</ele><time>2026-03-29T15:12:19Z</time></trkpt><trkpt lat="42.442163418130654" lon="11.22021866030891"><ele>1.3333333333333333</ele><time>2026-03-29T15:12:20Z</time></trkpt><trkpt lat="42.442182733745796" lon="11.220331884795034"><ele>1.1666666666666665</ele><time>2026-03-29T15:12:21Z</time></trkpt><trkpt lat="42.44220321905574" lon="11.220445580822686"><ele>1.0</ele><time>2026-03-29T15:12:22Z</time></trkpt><trkpt lat="42.44222082716543" lon="11.220563354164645"><ele>1.3333333333333333</ele><time>2026-03-29T15:12:23Z</time></trkpt><trkpt lat="42.44223865604014" lon="11.220677469792545"><ele>1.6666666666666665</ele><time>2026-03-29T15:12:24Z</time></trkpt><trkpt lat="42.442255388065796" lon="11.220785215941534"><ele>2.0</ele><time>2026-03-29T15:12:25Z</time></trkpt><trkpt lat="42.44227795832905" lon="11.22089493973123"><ele>2.3333333333333335</ele><time>2026-03-29T15:12:26Z</time></trkpt><trkpt lat="42.44230384838281" lon="11.221007468365004"><ele>2.6666666666666665</ele><time>2026-03-29T15:12:27Z</time></trkpt><trkpt lat="42.44232471317467" lon="11.221125810776822"><ele>3.0</ele><time>2026-03-29T15:12:28Z</time></trkpt><trkpt lat="42.44235021642815" lon="11.22124424328103"><ele>3.0</ele><time>2026-03-29T15:12:28.999Z</time></trkpt><trkpt lat="42.44237263309944" lon="11.221368571668577"><ele>3.0</ele><time>2026-03-29T15:12:29.999Z</time></trkpt><trkpt lat="42.44239642535452" lon="11.221501423889611"><ele>3.0</ele><time>2026-03-29T15:12:30.999Z</time></trkpt><trkpt lat="42.44242149810615" lon="11.221644738339137"><ele>3.0</ele><time>2026-03-29T15:12:31.999Z</time></trkpt><trkpt lat="42.44242508607864" lon="11.221785225176086"><ele>3.0</ele><time>2026-03-29T15:12:32.999Z</time></trkpt><trkpt lat="42.44245175750604" lon="11.22192320699076"><ele>2.8</ele><time>2026-03-29T15:12:33.999Z</time></trkpt><trkpt lat="42.4424909111387" lon="11.222053649520197"><ele>2.5999999999999996</ele><time>2026-03-29T15:12:34.999Z</time></trkpt><trkpt lat="42.44251052635706" lon="11.222185475585839"><ele>2.4000000000000004</ele><time>2026-03-29T15:12:36Z</time></trkpt><trkpt lat="42.44253330701594" lon="11.222311722132929"><ele>2.2</ele><time>2026-03-29T15:12:37Z</time></trkpt><trkpt lat="42.44255111751252" lon="11.222431183743659"><ele>2.0</ele><time>2026-03-29T15:12:38Z</time></trkpt><trkpt lat="42.44257620497739" lon="11.222541752489716"><ele>1.8</ele><time>2026-03-29T15:12:39Z</time></trkpt><trkpt lat="42.44259997073618" lon="11.222645598377223"><ele>1.6</ele><time>2026-03-29T15:12:40Z</time></trkpt><trkpt lat="42.44262121053334" lon="11.2227497522577"><ele>1.4000000000000001</ele><time>2026-03-29T15:12:41Z</time></trkpt><trkpt lat="42.44265365275106" lon="11.222938575969067"><ele>1.2000000000000002</ele><time>2026-03-29T15:12:43Z</time></trkpt><trkpt lat="42.44268907121225" lon="11.223053713196526"><ele>1.0</ele><time>2026-03-29T15:12:44Z</time></trkpt><trkpt lat="42.44270764216299" lon="11.22317505104369"><ele>0.8</ele><time>2026-03-29T15:12:45Z</time></trkpt><trkpt lat="42.44272897627362" lon="11.223298201686692"><ele>0.6000000000000001</ele><time>2026-03-29T15:12:46Z</time></trkpt><trkpt lat="42.44274841199872" lon="11.223430200315207"><ele>0.4</ele><time>2026-03-29T15:12:47Z</time></trkpt><trkpt lat="42.44276758307807" lon="11.223566760863168"><ele>0.2</ele><time>2026-03-29T15:12:48Z</time></trkpt><trkpt lat="42.44279473681278" lon="11.22369903389425"><ele>0.0</ele><time>2026-03-29T15:12:49Z</time></trkpt><trkpt lat="42.44282698809885" lon="11.223833079153394"><ele>0.0</ele><time>2026-03-29T15:12:50Z</time></trkpt><trkpt lat="42.44286044903458" lon="11.223974835306043"><ele>0.0</ele><time>2026-03-29T15:12:51Z</time></trkpt><trkpt lat="42.44288782169608" lon="11.224122098674862"><ele>0.0</ele><time>2026-03-29T15:12:52Z</time></trkpt><trkpt lat="42.44291581655323" lon="11.224270345535174"><ele>0.0</ele><time>2026-03-29T15:12:53Z</time></trkpt><trkpt lat="42.44294296916258" lon="11.224403403962524"><ele>0.0</ele><time>2026-03-29T15:12:54Z</time></trkpt><trkpt lat="42.442974797004815" lon="11.224537078720651"><ele>0.8</ele><time>2026-03-29T15:12:55Z</time></trkpt><trkpt lat="42.44300840058172" lon="11.224678533404594"><ele>1.6</ele><time>2026-03-29T15:12:56Z</time></trkpt><trkpt lat="42.443038908724034" lon="11.224819037961451"><ele>2.4000000000000004</ele><time>2026-03-29T15:12:57Z</time></trkpt><trkpt lat="42.44306695283638" lon="11.22495906617653"><ele>3.2</ele><time>2026-03-29T15:12:58Z</time></trkpt><trkpt lat="42.443091504521924" lon="11.22509989303515"><ele>4.0</ele><time>2026-03-29T15:12:59Z</time></trkpt><trkpt lat="42.44312077197201" lon="11.22522590179943"><ele>4.333333333333333</ele><time>2026-03-29T15:13:00Z</time></trkpt><trkpt lat="42.44314331676691" lon="11.225357674201224"><ele>4.666666666666666</ele><time>2026-03-29T15:13:01Z</time></trkpt><trkpt lat="42.44316625314232" lon="11.225486761951517"><ele>5.0</ele><time>2026-03-29T15:13:02Z</time></trkpt><trkpt lat="42.44318565728369" lon="11.22560795964024"><ele>5.333333333333333</ele><time>2026-03-29T15:13:03Z</time></trkpt><trkpt lat="42.44320316525887" lon="11.22571534429587"><ele>5.666666666666667</ele><time>2026-03-29T15:13:04Z</time></trkpt><trkpt lat="42.44321781664258" lon="11.225813503282627"><ele>6.0</ele><time>2026-03-29T15:13:05Z</time></trkpt><trkpt lat="42.44326190987749" lon="11.2259554897672"><ele>6.0</ele><time>2026-03-29T15:13:06.999Z</time></trkpt><trkpt lat="42.4432756670623" lon="11.226044926723514"><ele>6.0</ele><time>2026-03-29T15:13:07.999Z</time></trkpt><trkpt lat="42.4432742739861" lon="11.226144958169263"><ele>6.0</ele><time>2026-03-29T15:13:08.999Z</time></trkpt><trkpt lat="42.443285646998966" lon="11.226250076955179"><ele>6.0</ele><time>2026-03-29T15:13:09.999Z</time></trkpt><trkpt lat="42.443296000883514" lon="11.226379266503862"><ele>6.0</ele><time>2026-03-29T15:13:10.999Z</time></trkpt><trkpt lat="42.44333140006486" lon="11.226495259663597"><ele>6.0</ele><time>2026-03-29T15:13:11.999Z</time></trkpt><trkpt lat="42.44336502543902" lon="11.22662194005881"><ele>4.75</ele><time>2026-03-29T15:13:12.999Z</time></trkpt><trkpt lat="42.4434227407002" lon="11.226742781722484"><ele>3.5</ele><time>2026-03-29T15:13:13.999Z</time></trkpt><trkpt lat="42.443462877430335" lon="11.226909267577465"><ele>2.25</ele><time>2026-03-29T15:13:14.999Z</time></trkpt><trkpt lat="42.443496583007224" lon="11.227054164688749"><ele>1.0</ele><time>2026-03-29T15:13:15.999Z</time></trkpt><trkpt lat="42.443516661018116" lon="11.227191746034821"><ele>1.0</ele><time>2026-03-29T15:13:16.999Z</time></trkpt><trkpt lat="42.443543820672716" lon="11.227330728938563"><ele>1.0</ele><time>2026-03-29T15:13:17.999Z</time></trkpt><trkpt lat="42.443576770715765" lon="11.227459323989995"><ele>1.0</ele><time>2026-03-29T15:13:18.999Z</time></trkpt><trkpt lat="42.44356871068324" lon="11.227593639347972"><ele>1.0</ele><time>2026-03-29T15:13:19.999Z</time></trkpt><trkpt lat="42.443598364898506" lon="11.227725763900496"><ele>1.0</ele><time>2026-03-29T15:13:20.999Z</time></trkpt><trkpt lat="42.44362388749182" lon="11.227873105995798"><ele>1.0</ele><time>2026-03-29T15:13:21.999Z</time></trkpt><trkpt lat="42.44364706482286" lon="11.228016019162835"><ele>1.0</ele><time>2026-03-29T15:13:22.999Z</time></trkpt><trkpt lat="42.44367035313638" lon="11.228145257711992"><ele>1.0</ele><time>2026-03-29T15:13:23.999Z</time></trkpt><trkpt lat="42.44369700822681" lon="11.228265669058066"><ele>1.0</ele><time>2026-03-29T15:13:24.999Z</time></trkpt><trkpt lat="42.44372081149402" lon="11.228372596405837"><ele>1.0</ele><time>2026-03-29T15:13:25.999Z</time></trkpt><trkpt lat="42.44374758172119" lon="11.228481534032868"><ele>0.8</ele><time>2026-03-29T15:13:26.999Z</time></trkpt><trkpt lat="42.443775330449824" lon="11.228597743593488"><ele>0.6000000000000001</ele><time>2026-03-29T15:13:27.999Z</time></trkpt><trkpt lat="42.443802523733105" lon="11.228723311623858"><ele>0.4</ele><time>2026-03-29T15:13:28.999Z</time></trkpt><trkpt lat="42.44382373460032" lon="11.228860669335205"><ele>0.2</ele><time>2026-03-29T15:13:29.999Z</time></trkpt><trkpt lat="42.44384449726864" lon="11.229006402258094"><ele>0.0</ele><time>2026-03-29T15:13:30.999Z</time></trkpt><trkpt lat="42.44387555721433" lon="11.229139434830303"><ele>1.5</ele><time>2026-03-29T15:13:31.999Z</time></trkpt><trkpt lat="42.443900536426156" lon="11.229295118277758"><ele>3.0</ele><time>2026-03-29T15:13:32.999Z</time></trkpt><trkpt lat="42.44392445733796" lon="11.22946141669689"><ele>4.5</ele><time>2026-03-29T15:13:33.999Z</time></trkpt><trkpt lat="42.44395488010104" lon="11.22961434343548"><ele>6.0</ele><time>2026-03-29T15:13:34.999Z</time></trkpt><trkpt lat="42.44398217493327" lon="11.229757582773525"><ele>5.666666666666667</ele><time>2026-03-29T15:13:35.999Z</time></trkpt><trkpt lat="42.444017203477785" lon="11.229890338813775"><ele>5.333333333333333</ele><time>2026-03-29T15:13:36.999Z</time></trkpt><trkpt lat="42.44404818573825" lon="11.230021524491535"><ele>5.0</ele><time>2026-03-29T15:13:37.999Z</time></trkpt><trkpt lat="42.44407800623075" lon="11.23014448970595"><ele>4.666666666666666</ele><time>2026-03-29T15:13:38.999Z</time></trkpt><trkpt lat="42.4441020612741" lon="11.23025208744663"><ele>4.333333333333333</ele><time>2026-03-29T15:13:39.999Z</time></trkpt><trkpt lat="42.44411769693729" lon="11.230337125537895"><ele>4.0</ele><time>2026-03-29T15:13:40.999Z</time></trkpt><trkpt lat="42.44416628298621" lon="11.23047727152225"><ele>4.0</ele><time>2026-03-29T15:13:42.999Z</time></trkpt><trkpt lat="42.44415119577706" lon="11.230577363209633"><ele>3.9999999999999996</ele><time>2026-03-29T15:13:43.999Z</time></trkpt><trkpt lat="42.44416870607357" lon="11.23066171431461"><ele>4.0</ele><time>2026-03-29T15:13:44.999Z</time></trkpt><trkpt lat="42.44418416384791" lon="11.230746465371974"><ele>4.0</ele><time>2026-03-29T15:13:45.999Z</time></trkpt><trkpt lat="42.44420273605647" lon="11.230839392848429"><ele>3.9999999999999996</ele><time>2026-03-29T15:13:46.999Z</time></trkpt><trkpt lat="42.444223358013154" lon="11.23094119131902"><ele>4.0</ele><time>2026-03-29T15:13:47.999Z</time></trkpt><trkpt lat="42.44423583916007" lon="11.23105405931097"><ele>4.0</ele><time>2026-03-29T15:13:48.999Z</time></trkpt><trkpt lat="42.444262074487746" lon="11.231166122627743"><ele>4.0</ele><time>2026-03-29T15:13:49.999Z</time></trkpt><trkpt lat="42.44428887549822" lon="11.23128513490681"><ele>4.0</ele><time>2026-03-29T15:13:50.999Z</time></trkpt><trkpt lat="42.44431583631443" lon="11.23141354680486"><ele>4.0</ele><time>2026-03-29T15:13:51.999Z</time></trkpt><trkpt lat="42.44434802587109" lon="11.231542774576841"><ele>4.0</ele><time>2026-03-29T15:13:52.999Z</time></trkpt><trkpt lat="42.44438293376489" lon="11.23166162608534"><ele>4.0</ele><time>2026-03-29T15:13:53.999Z</time></trkpt><trkpt lat="42.44441026849815" lon="11.23178048571809"><ele>3.9999999999999996</ele><time>2026-03-29T15:13:54.999Z</time></trkpt><trkpt lat="42.44443240523907" lon="11.231905647552388"><ele>4.0</ele><time>2026-03-29T15:13:55.999Z</time></trkpt><trkpt lat="42.44445436825688" lon="11.232030779092414"><ele>4.0</ele><time>2026-03-29T15:13:56.999Z</time></trkpt><trkpt lat="42.44447297661761" lon="11.23215068558603"><ele>4.0</ele><time>2026-03-29T15:13:57.999Z</time></trkpt><trkpt lat="42.444478356487174" lon="11.232257732919912"><ele>3.9999999999999996</ele><time>2026-03-29T15:13:58.999Z</time></trkpt><trkpt lat="42.444465323310176" lon="11.232350755364708"><ele>4.0</ele><time>2026-03-29T15:13:59.999Z</time></trkpt><trkpt lat="42.44444105848626" lon="11.232438203365309"><ele>3.833333333333333</ele><time>2026-03-29T15:14:00.999Z</time></trkpt><trkpt lat="42.44444046347636" lon="11.232594361753414"><ele>3.6666666666666665</ele><time>2026-03-29T15:14:02.999Z</time></trkpt><trkpt lat="42.44446236765147" lon="11.23267573436474"><ele>3.5</ele><time>2026-03-29T15:14:03.999Z</time></trkpt><trkpt lat="42.44451496587895" lon="11.232753801874708"><ele>3.333333333333333</ele><time>2026-03-29T15:14:04.999Z</time></trkpt><trkpt lat="42.44458167277453" lon="11.232814071449896"><ele>3.1666666666666665</ele><time>2026-03-29T15:14:05.999Z</time></trkpt><trkpt lat="42.444589333216406" lon="11.232956226158214"><ele>3.0</ele><time>2026-03-29T15:14:06.999Z</time></trkpt><trkpt lat="42.444611913600724" lon="11.23306557908351"><ele>2.8</ele><time>2026-03-29T15:14:07.999Z</time></trkpt><trkpt lat="42.44462327916066" lon="11.2331939223964"><ele>2.5999999999999996</ele><time>2026-03-29T15:14:08.999Z</time></trkpt><trkpt lat="42.4446381525468" lon="11.233324231797702"><ele>2.4000000000000004</ele><time>2026-03-29T15:14:09.999Z</time></trkpt><trkpt lat="42.44465658533022" lon="11.233458542894445"><ele>2.2</ele><time>2026-03-29T15:14:10.999Z</time></trkpt><trkpt lat="42.44467337341727" lon="11.233600768165683"><ele>2.0</ele><time>2026-03-29T15:14:11.999Z</time></trkpt><trkpt lat="42.444692871157656" lon="11.233748624787262"><ele>3.0</ele><time>2026-03-29T15:14:12.999Z</time></trkpt><trkpt lat="42.44471570757778" lon="11.23390087763141"><ele>4.0</ele><time>2026-03-29T15:14:13.999Z</time></trkpt><trkpt lat="42.444735316226534" lon="11.234051517309945"><ele>4.999999999999999</ele><time>2026-03-29T15:14:14.999Z</time></trkpt><trkpt lat="42.44475785592004" lon="11.234197675796864"><ele>6.0</ele><time>2026-03-29T15:14:15.999Z</time></trkpt><trkpt lat="42.44477946826688" lon="11.234336940733133"><ele>7.0</ele><time>2026-03-29T15:14:16.999Z</time></trkpt><trkpt lat="42.44479537465725" lon="11.23447908670773"><ele>7.0</ele><time>2026-03-29T15:14:17.999Z</time></trkpt><trkpt lat="42.444799338041214" lon="11.234622210265403"><ele>6.999999999999999</ele><time>2026-03-29T15:14:18.999Z</time></trkpt><trkpt lat="42.444813534448286" lon="11.234753444786893"><ele>6.999999999999999</ele><time>2026-03-29T15:14:19.999Z</time></trkpt><trkpt lat="42.444828508221796" lon="11.234879532337338"><ele>7.0</ele><time>2026-03-29T15:14:20.999Z</time></trkpt><trkpt lat="42.44484383944661" lon="11.235000462032485"><ele>7.0</ele><time>2026-03-29T15:14:21.999Z</time></trkpt><trkpt lat="42.444860181467966" lon="11.235129907871391"><ele>6.6</ele><time>2026-03-29T15:14:22.999Z</time></trkpt><trkpt lat="42.444865650260766" lon="11.235265792315193"><ele>6.199999999999999</ele><time>2026-03-29T15:14:23.999Z</time></trkpt><trkpt lat="42.444877372049966" lon="11.235406494373592"><ele>5.8</ele><time>2026-03-29T15:14:24.998Z</time></trkpt><trkpt lat="42.44489340566948" lon="11.235546530892604"><ele>5.4</ele><time>2026-03-29T15:14:25.998Z</time></trkpt><trkpt lat="42.44491019666103" lon="11.235692067006694"><ele>5.0</ele><time>2026-03-29T15:14:26.998Z</time></trkpt><trkpt lat="42.44492595354767" lon="11.23584074180327"><ele>4.75</ele><time>2026-03-29T15:14:27.998Z</time></trkpt><trkpt lat="42.44494444287315" lon="11.23598982918419"><ele>4.5</ele><time>2026-03-29T15:14:28.998Z</time></trkpt><trkpt lat="42.44496553754359" lon="11.236146787469414"><ele>4.25</ele><time>2026-03-29T15:14:29.998Z</time></trkpt><trkpt lat="42.44498351763661" lon="11.23629925829933"><ele>4.0</ele><time>2026-03-29T15:14:30.998Z</time></trkpt><trkpt lat="42.44500455566722" lon="11.236451798040171"><ele>4.0</ele><time>2026-03-29T15:14:31.998Z</time></trkpt><trkpt lat="42.44502720022386" lon="11.236606850956827"><ele>4.0</ele><time>2026-03-29T15:14:32.998Z</time></trkpt><trkpt lat="42.445043408484665" lon="11.236756868745998"><ele>4.0</ele><time>2026-03-29T15:14:33.998Z</time></trkpt><trkpt lat="42.44505660468127" lon="11.236897067686067"><ele>4.0</ele><time>2026-03-29T15:14:34.998Z</time></trkpt><trkpt lat="42.44507518971317" lon="11.237028017319652"><ele>4.0</ele><time>2026-03-29T15:14:35.998Z</time></trkpt><trkpt lat="42.44509111034974" lon="11.237148772246456"><ele>4.0</ele><time>2026-03-29T15:14:36.998Z</time></trkpt><trkpt lat="42.445108565455115" lon="11.2372694497593"><ele>4.0</ele><time>2026-03-29T15:14:37.998Z</time></trkpt><trkpt lat="42.44512362694703" lon="11.2374012012815"><ele>4.0</ele><time>2026-03-29T15:14:38.998Z</time></trkpt><trkpt lat="42.44514380498064" lon="11.237532615061259"><ele>4.0</ele><time>2026-03-29T15:14:39.998Z</time></trkpt><trkpt lat="42.4451625509029" lon="11.237672099691128"><ele>4.0</ele><time>2026-03-29T15:14:40.998Z</time></trkpt><trkpt lat="42.44518009577527" lon="11.237815346597147"><ele>4.0</ele><time>2026-03-29T15:14:41.998Z</time></trkpt><trkpt lat="42.445164756784216" lon="11.237970630449226"><ele>4.0</ele><time>2026-03-29T15:14:42.998Z</time></trkpt><trkpt lat="42.44518716535112" lon="11.238125416190663"><ele>4.0</ele><time>2026-03-29T15:14:43.998Z</time></trkpt><trkpt lat="42.445211301085294" lon="11.2382901447742"><ele>4.0</ele><time>2026-03-29T15:14:44.998Z</time></trkpt><trkpt lat="42.44523986046361" lon="11.238458305986343"><ele>3.5</ele><time>2026-03-29T15:14:45.998Z</time></trkpt><trkpt lat="42.44527647748766" lon="11.238616614869908"><ele>3.0</ele><time>2026-03-29T15:14:46.998Z</time></trkpt><trkpt lat="42.44531639177325" lon="11.238778599211562"><ele>2.5</ele><time>2026-03-29T15:14:47.998Z</time></trkpt><trkpt lat="42.445355527139974" lon="11.238935327400595"><ele>2.0</ele><time>2026-03-29T15:14:48.998Z</time></trkpt><trkpt lat="42.44539970773402" lon="11.23908152431267"><ele>1.5</ele><time>2026-03-29T15:14:49.998Z</time></trkpt><trkpt lat="42.445448874872454" lon="11.239234535498246"><ele>1.0</ele><time>2026-03-29T15:14:50.998Z</time></trkpt><trkpt lat="42.4454933058169" lon="11.239390769898195"><ele>0.5</ele><time>2026-03-29T15:14:51.998Z</time></trkpt><trkpt lat="42.44553642705013" lon="11.239545818245531"><ele>0.0</ele><time>2026-03-29T15:14:52.999Z</time></trkpt><trkpt lat="42.44558442227815" lon="11.239684633727428"><ele>1.25</ele><time>2026-03-29T15:14:53.998Z</time></trkpt><trkpt lat="42.44563390214191" lon="11.239824302857373"><ele>2.5</ele><time>2026-03-29T15:14:54.998Z</time></trkpt><trkpt lat="42.4456775554793" lon="11.239966733615535"><ele>3.75</ele><time>2026-03-29T15:14:55.998Z</time></trkpt><trkpt lat="42.44572379753698" lon="11.240103816863039"><ele>5.0</ele><time>2026-03-29T15:14:56.998Z</time></trkpt><trkpt lat="42.4457747269149" lon="11.240236668167002"><ele>5.0</ele><time>2026-03-29T15:14:57.998Z</time></trkpt><trkpt lat="42.445827697431994" lon="11.240362601703968"><ele>5.0</ele><time>2026-03-29T15:14:58.998Z</time></trkpt><trkpt lat="42.44588687881966" lon="11.240493591047626"><ele>5.0</ele><time>2026-03-29T15:14:59.998Z</time></trkpt><trkpt lat="42.44594909027634" lon="11.240626684021244"><ele>5.0</ele><time>2026-03-29T15:15:00.998Z</time></trkpt><trkpt lat="42.44600680956498" lon="11.24075758818444"><ele>5.0</ele><time>2026-03-29T15:15:01.998Z</time></trkpt><trkpt lat="42.44606894015556" lon="11.240881339370196"><ele>5.0</ele><time>2026-03-29T15:15:02.998Z</time></trkpt><trkpt lat="42.44612092871274" lon="11.241000081188506"><ele>5.0</ele><time>2026-03-29T15:15:03.998Z</time></trkpt><trkpt lat="42.44617534793346" lon="11.241123581215005"><ele>5.0</ele><time>2026-03-29T15:15:04.998Z</time></trkpt><trkpt lat="42.44623214330897" lon="11.241251170317035"><ele>5.0</ele><time>2026-03-29T15:15:05.998Z</time></trkpt><trkpt lat="42.446289200813716" lon="11.24137818520979"><ele>5.0</ele><time>2026-03-29T15:15:06.998Z</time></trkpt><trkpt lat="42.44634163112249" lon="11.24150453442616"><ele>5.0</ele><time>2026-03-29T15:15:07.998Z</time></trkpt><trkpt lat="42.44639542445288" lon="11.241633602309816"><ele>5.0</ele><time>2026-03-29T15:15:08.998Z</time></trkpt><trkpt lat="42.446451382929105" lon="11.241772935512437"><ele>5.0</ele><time>2026-03-29T15:15:09.998Z</time></trkpt><trkpt lat="42.44650923747609" lon="11.241915882259313"><ele>5.0</ele><time>2026-03-29T15:15:10.998Z</time></trkpt><trkpt lat="42.44657115925453" lon="11.242060046099766"><ele>5.0</ele><time>2026-03-29T15:15:11.998Z</time></trkpt><trkpt lat="42.44663416899036" lon="11.242204050297763"><ele>5.0</ele><time>2026-03-29T15:15:12.998Z</time></trkpt><trkpt lat="42.446698548927294" lon="11.24234959779058"><ele>5.0</ele><time>2026-03-29T15:15:13.998Z</time></trkpt><trkpt lat="42.446765936183" lon="11.242489610094097"><ele>5.0</ele><time>2026-03-29T15:15:14.998Z</time></trkpt><trkpt lat="42.446823510858785" lon="11.242624938588207"><ele>5.0</ele><time>2026-03-29T15:15:15.998Z</time></trkpt><trkpt lat="42.446880261628465" lon="11.242755495921744"><ele>5.0</ele><time>2026-03-29T15:15:16.998Z</time></trkpt><trkpt lat="42.446936016416785" lon="11.242892263681513"><ele>5.0</ele><time>2026-03-29T15:15:17.998Z</time></trkpt><trkpt lat="42.446992105881826" lon="11.243026693413706"><ele>5.0</ele><time>2026-03-29T15:15:18.998Z</time></trkpt><trkpt lat="42.447041923306486" lon="11.24315963647999"><ele>5.0</ele><time>2026-03-29T15:15:19.998Z</time></trkpt><trkpt lat="42.44709028660383" lon="11.243311664103564"><ele>5.0</ele><time>2026-03-29T15:15:20.998Z</time></trkpt><trkpt lat="42.44712829242554" lon="11.24346966364983"><ele>5.0</ele><time>2026-03-29T15:15:21.998Z</time></trkpt><trkpt lat="42.447156441864415" lon="11.243642708716397"><ele>5.0</ele><time>2026-03-29T15:15:22.998Z</time></trkpt><trkpt lat="42.44718445573954" lon="11.243814677736891"><ele>4.5</ele><time>2026-03-29T15:15:23.998Z</time></trkpt><trkpt lat="42.44719884007531" lon="11.244000059044842"><ele>4.0</ele><time>2026-03-29T15:15:24.998Z</time></trkpt><trkpt lat="42.447206118591524" lon="11.244178999719509"><ele>3.5</ele><time>2026-03-29T15:15:25.998Z</time></trkpt><trkpt lat="42.44720194152126" lon="11.24435523291556"><ele>3.0</ele><time>2026-03-29T15:15:26.998Z</time></trkpt><trkpt lat="42.447181501480316" lon="11.24453003435708"><ele>3.0</ele><time>2026-03-29T15:15:27.998Z</time></trkpt><trkpt lat="42.447147527206575" lon="11.244709372382163"><ele>3.0</ele><time>2026-03-29T15:15:28.998Z</time></trkpt><trkpt lat="42.44708059253843" lon="11.244862318807783"><ele>3.0</ele><time>2026-03-29T15:15:29.998Z</time></trkpt><trkpt lat="42.447042859186645" lon="11.245021343993157"><ele>3.0</ele><time>2026-03-29T15:15:30.998Z</time></trkpt><trkpt lat="42.4469985644524" lon="11.245186298207011"><ele>3.25</ele><time>2026-03-29T15:15:31.998Z</time></trkpt><trkpt lat="42.446951575182744" lon="11.245350798860668"><ele>3.5</ele><time>2026-03-29T15:15:32.998Z</time></trkpt><trkpt lat="42.4469078240022" lon="11.245517340981014"><ele>3.75</ele><time>2026-03-29T15:15:33.998Z</time></trkpt><trkpt lat="42.446869728873814" lon="11.245668378467434"><ele>4.0</ele><time>2026-03-29T15:15:34.998Z</time></trkpt><trkpt lat="42.44683073896911" lon="11.245820511358355"><ele>4.25</ele><time>2026-03-29T15:15:35.998Z</time></trkpt><trkpt lat="42.446789200817285" lon="11.245978504336916"><ele>4.5</ele><time>2026-03-29T15:15:36.998Z</time></trkpt><trkpt lat="42.4467502063732" lon="11.2461362050438"><ele>4.75</ele><time>2026-03-29T15:15:37.998Z</time></trkpt><trkpt lat="42.44671586729796" lon="11.246291525210546"><ele>5.0</ele><time>2026-03-29T15:15:38.998Z</time></trkpt><trkpt lat="42.446685066178496" lon="11.246445139205186"><ele>5.25</ele><time>2026-03-29T15:15:39.998Z</time></trkpt><trkpt lat="42.446662553963215" lon="11.246598479282673"><ele>5.5</ele><time>2026-03-29T15:15:40.998Z</time></trkpt><trkpt lat="42.446650192522696" lon="11.246766116848804"><ele>5.75</ele><time>2026-03-29T15:15:41.998Z</time></trkpt><trkpt lat="42.44664153548496" lon="11.246939273864049"><ele>6.0</ele><time>2026-03-29T15:15:42.998Z</time></trkpt><trkpt lat="42.44663642469181" lon="11.247121553854322"><ele>6.25</ele><time>2026-03-29T15:15:43.998Z</time></trkpt><trkpt lat="42.44663845121896" lon="11.247299917826346"><ele>6.5</ele><time>2026-03-29T15:15:44.998Z</time></trkpt><trkpt lat="42.44664674746274" lon="11.247476691554192"><ele>6.75</ele><time>2026-03-29T15:15:45.998Z</time></trkpt><trkpt lat="42.44665745223261" lon="11.247655316665966"><ele>7.0</ele><time>2026-03-29T15:15:46.998Z</time></trkpt><trkpt lat="42.44667015173186" lon="11.247829450471011"><ele>7.0</ele><time>2026-03-29T15:15:47.998Z</time></trkpt><trkpt lat="42.44667912829147" lon="11.24800347375017"><ele>7.0</ele><time>2026-03-29T15:15:48.998Z</time></trkpt><trkpt lat="42.44668385078188" lon="11.24817335013082"><ele>7.0</ele><time>2026-03-29T15:15:49.998Z</time></trkpt><trkpt lat="42.44668896278996" lon="11.248347223880758"><ele>7.0</ele><time>2026-03-29T15:15:50.998Z</time></trkpt><trkpt lat="42.4466936859688" lon="11.24852445608614"><ele>6.75</ele><time>2026-03-29T15:15:51.998Z</time></trkpt><trkpt lat="42.44670171038813" lon="11.248701174226852"><ele>6.5</ele><time>2026-03-29T15:15:52.998Z</time></trkpt><trkpt lat="42.44670615984731" lon="11.248873448449336"><ele>6.25</ele><time>2026-03-29T15:15:53.998Z</time></trkpt><trkpt lat="42.4467148161147" lon="11.24903660858435"><ele>6.0</ele><time>2026-03-29T15:15:54.998Z</time></trkpt><trkpt lat="42.446717814647954" lon="11.249207573548503"><ele>6.0</ele><time>2026-03-29T15:15:55.998Z</time></trkpt><trkpt lat="42.44672309298657" lon="11.24938373013942"><ele>6.0</ele><time>2026-03-29T15:15:56.998Z</time></trkpt><trkpt lat="42.4467298660151" lon="11.24955922189827"><ele>6.0</ele><time>2026-03-29T15:15:57.998Z</time></trkpt><trkpt lat="42.44673771550428" lon="11.249735056606127"><ele>6.0</ele><time>2026-03-29T15:15:58.998Z</time></trkpt><trkpt lat="42.44674532090911" lon="11.249903849295377"><ele>6.25</ele><time>2026-03-29T15:15:59.998Z</time></trkpt><trkpt lat="42.446746967680376" lon="11.250067594645703"><ele>6.5</ele><time>2026-03-29T15:16:00.998Z</time></trkpt><trkpt lat="42.44674137746515" lon="11.250227440870765"><ele>6.75</ele><time>2026-03-29T15:16:01.998Z</time></trkpt><trkpt lat="42.44673471401234" lon="11.25038097984366"><ele>7.0</ele><time>2026-03-29T15:16:02.998Z</time></trkpt><trkpt lat="42.44671999236356" lon="11.250538920165214"><ele>6.75</ele><time>2026-03-29T15:16:03.998Z</time></trkpt><trkpt lat="42.446707005229165" lon="11.250699307998616"><ele>6.5</ele><time>2026-03-29T15:16:04.998Z</time></trkpt><trkpt lat="42.44668640874912" lon="11.25085453396864"><ele>6.25</ele><time>2026-03-29T15:16:05.998Z</time></trkpt><trkpt lat="42.446662934620704" lon="11.251002754645754"><ele>6.0</ele><time>2026-03-29T15:16:06.998Z</time></trkpt><trkpt lat="42.4466434046461" lon="11.251144320588317"><ele>6.0</ele><time>2026-03-29T15:16:07.998Z</time></trkpt><trkpt lat="42.44662247103474" lon="11.251281266442895"><ele>6.0</ele><time>2026-03-29T15:16:08.998Z</time></trkpt><trkpt lat="42.446596474888786" lon="11.251416898281787"><ele>6.0</ele><time>2026-03-29T15:16:09.997Z</time></trkpt><trkpt lat="42.44657198826387" lon="11.2515505551465"><ele>6.0</ele><time>2026-03-29T15:16:10.997Z</time></trkpt><trkpt lat="42.44654684667008" lon="11.251687153650172"><ele>6.0</ele><time>2026-03-29T15:16:11.997Z</time></trkpt><trkpt lat="42.44651607213999" lon="11.251825699666583"><ele>6.0</ele><time>2026-03-29T15:16:12.997Z</time></trkpt><trkpt lat="42.44648507002596" lon="11.251973071326509"><ele>6.0</ele><time>2026-03-29T15:16:13.997Z</time></trkpt><trkpt lat="42.446447177197" lon="11.252126684754824"><ele>6.0</ele><time>2026-03-29T15:16:14.997Z</time></trkpt><trkpt lat="42.446411360110595" lon="11.25228748635662"><ele>6.0</ele><time>2026-03-29T15:16:15.997Z</time></trkpt><trkpt lat="42.44636754583947" lon="11.25245676095565"><ele>6.0</ele><time>2026-03-29T15:16:16.997Z</time></trkpt><trkpt lat="42.446331584667654" lon="11.252634349360555"><ele>6.0</ele><time>2026-03-29T15:16:17.997Z</time></trkpt><trkpt lat="42.44629901903468" lon="11.252799336949703"><ele>6.0</ele><time>2026-03-29T15:16:18.997Z</time></trkpt><trkpt lat="42.44626516879816" lon="11.252956506180114"><ele>6.0</ele><time>2026-03-29T15:16:19.997Z</time></trkpt><trkpt lat="42.446231694382334" lon="11.253114015538793"><ele>6.0</ele><time>2026-03-29T15:16:20.997Z</time></trkpt><trkpt lat="42.44621001331374" lon="11.253278327572824"><ele>6.0</ele><time>2026-03-29T15:16:21.997Z</time></trkpt><trkpt lat="42.44619502070894" lon="11.253441354689343"><ele>6.0</ele><time>2026-03-29T15:16:22.997Z</time></trkpt><trkpt lat="42.4461862314346" lon="11.253599829940944"><ele>6.0</ele><time>2026-03-29T15:16:23.997Z</time></trkpt><trkpt lat="42.44617826733041" lon="11.253753709176385"><ele>6.0</ele><time>2026-03-29T15:16:24.997Z</time></trkpt><trkpt lat="42.44617556383941" lon="11.253906794201997"><ele>6.0</ele><time>2026-03-29T15:16:25.997Z</time></trkpt><trkpt lat="42.44618081645811" lon="11.254054858159952"><ele>6.0</ele><time>2026-03-29T15:16:26.997Z</time></trkpt><trkpt lat="42.44618574591629" lon="11.254197057506943"><ele>6.0</ele><time>2026-03-29T15:16:27.997Z</time></trkpt><trkpt lat="42.44619413479875" lon="11.254332539915445"><ele>6.0</ele><time>2026-03-29T15:16:28.997Z</time></trkpt><trkpt lat="42.446205173370785" lon="11.254473860454365"><ele>6.199999999999999</ele><time>2026-03-29T15:16:29.997Z</time></trkpt><trkpt lat="42.446216123888576" lon="11.254612313515558"><ele>6.3999999999999995</ele><time>2026-03-29T15:16:30.997Z</time></trkpt><trkpt lat="42.446230824339516" lon="11.254749306850995"><ele>6.6</ele><time>2026-03-29T15:16:31.997Z</time></trkpt><trkpt lat="42.446243410250865" lon="11.254886387226346"><ele>6.8</ele><time>2026-03-29T15:16:32.997Z</time></trkpt><trkpt lat="42.446256159063076" lon="11.255031730186769"><ele>7.0</ele><time>2026-03-29T15:16:33.997Z</time></trkpt><trkpt lat="42.446273190127435" lon="11.255181399801108"><ele>7.0</ele><time>2026-03-29T15:16:34.997Z</time></trkpt><trkpt lat="42.44628944779124" lon="11.255343024328223"><ele>7.0</ele><time>2026-03-29T15:16:35.997Z</time></trkpt><trkpt lat="42.446305274273534" lon="11.255509974106854"><ele>7.0</ele><time>2026-03-29T15:16:36.997Z</time></trkpt><trkpt lat="42.446316093103945" lon="11.25567706341924"><ele>7.0</ele><time>2026-03-29T15:16:37.997Z</time></trkpt><trkpt lat="42.4463365872451" lon="11.255849020645812"><ele>7.25</ele><time>2026-03-29T15:16:38.997Z</time></trkpt><trkpt lat="42.44635317168582" lon="11.256030030821417"><ele>7.5</ele><time>2026-03-29T15:16:39.997Z</time></trkpt><trkpt lat="42.4463719670101" lon="11.256219683742513"><ele>7.75</ele><time>2026-03-29T15:16:40.997Z</time></trkpt><trkpt lat="42.44638785121436" lon="11.256411315036303"><ele>8.0</ele><time>2026-03-29T15:16:41.997Z</time></trkpt><trkpt lat="42.44641820846116" lon="11.256594452738812"><ele>8.0</ele><time>2026-03-29T15:16:42.997Z</time></trkpt><trkpt lat="42.44644699214653" lon="11.2567718597877"><ele>8.0</ele><time>2026-03-29T15:16:43.997Z</time></trkpt><trkpt lat="42.446480022130025" lon="11.256941303363712"><ele>8.0</ele><time>2026-03-29T15:16:44.997Z</time></trkpt><trkpt lat="42.44651889726286" lon="11.257107501454602"><ele>8.0</ele><time>2026-03-29T15:16:45.997Z</time></trkpt><trkpt lat="42.446553561404706" lon="11.257266229286166"><ele>8.75</ele><time>2026-03-29T15:16:46.997Z</time></trkpt><trkpt lat="42.446582649393775" lon="11.257431075868876"><ele>9.5</ele><time>2026-03-29T15:16:47.997Z</time></trkpt><trkpt lat="42.44659855734899" lon="11.25760000942294"><ele>10.25</ele><time>2026-03-29T15:16:48.997Z</time></trkpt><trkpt lat="42.446592023314984" lon="11.257775474905198"><ele>11.0</ele><time>2026-03-29T15:16:49.997Z</time></trkpt><trkpt lat="42.44656561440498" lon="11.257943798180415"><ele>11.0</ele><time>2026-03-29T15:16:50.997Z</time></trkpt><trkpt lat="42.44652049660074" lon="11.25811272271553"><ele>11.0</ele><time>2026-03-29T15:16:51.997Z</time></trkpt><trkpt lat="42.44645309829751" lon="11.258278365014723"><ele>11.0</ele><time>2026-03-29T15:16:52.997Z</time></trkpt><trkpt lat="42.44636782500819" lon="11.258426546465154"><ele>11.0</ele><time>2026-03-29T15:16:53.997Z</time></trkpt><trkpt lat="42.446264507328515" lon="11.258564988813452"><ele>10.666666666666666</ele><time>2026-03-29T15:16:54.997Z</time></trkpt><trkpt lat="42.44614643274482" lon="11.258691762085117"><ele>10.333333333333334</ele><time>2026-03-29T15:16:55.997Z</time></trkpt><trkpt lat="42.44602105632829" lon="11.25882270801482"><ele>10.0</ele><time>2026-03-29T15:16:56.997Z</time></trkpt><trkpt lat="42.44588900108469" lon="11.258963856372404"><ele>10.0</ele><time>2026-03-29T15:16:57.997Z</time></trkpt><trkpt lat="42.445751696740196" lon="11.259117688643876"><ele>10.0</ele><time>2026-03-29T15:16:58.997Z</time></trkpt><trkpt lat="42.44560325261575" lon="11.2592764323199"><ele>10.0</ele><time>2026-03-29T15:16:59.997Z</time></trkpt><trkpt lat="42.445434672887956" lon="11.25942572056491"><ele>10.0</ele><time>2026-03-29T15:17:00.997Z</time></trkpt><trkpt lat="42.44526802745851" lon="11.259584742202993"><ele>10.0</ele><time>2026-03-29T15:17:01.997Z</time></trkpt><trkpt lat="42.44509529223137" lon="11.259750959143549"><ele>10.0</ele><time>2026-03-29T15:17:02.997Z</time></trkpt><trkpt lat="42.444920992671385" lon="11.259919105119849"><ele>10.0</ele><time>2026-03-29T15:17:03.997Z</time></trkpt><trkpt lat="42.44474430802209" lon="11.260093975541784"><ele>10.0</ele><time>2026-03-29T15:17:04.997Z</time></trkpt><trkpt lat="42.44455943734872" lon="11.260273422663504"><ele>10.0</ele><time>2026-03-29T15:17:05.997Z</time></trkpt><trkpt lat="42.444378187237135" lon="11.260462168612113"><ele>9.0</ele><time>2026-03-29T15:17:06.997Z</time></trkpt><trkpt lat="42.444177584560244" lon="11.26064503738947"><ele>8.0</ele><time>2026-03-29T15:17:07.997Z</time></trkpt><trkpt lat="42.44398057839582" lon="11.260828003335646"><ele>6.5</ele><time>2026-03-29T15:17:08.997Z</time></trkpt><trkpt lat="42.44377652031148" lon="11.261009074762462"><ele>5.0</ele><time>2026-03-29T15:17:09.997Z</time></trkpt><trkpt lat="42.44357012801196" lon="11.261196188308796"><ele>5.0</ele><time>2026-03-29T15:17:10.997Z</time></trkpt><trkpt lat="42.443371380868975" lon="11.261384479997227"><ele>5.0</ele><time>2026-03-29T15:17:11.997Z</time></trkpt><trkpt lat="42.44316454363507" lon="11.261574929309967"><ele>4.0</ele><time>2026-03-29T15:17:12.997Z</time></trkpt><trkpt lat="42.44295802978566" lon="11.261763947065901"><ele>3.0</ele><time>2026-03-29T15:17:13.997Z</time></trkpt><trkpt lat="42.44275775635495" lon="11.261959664561845"><ele>3.0</ele><time>2026-03-29T15:17:14.997Z</time></trkpt><trkpt lat="42.44255303580214" lon="11.262151625740886"><ele>3.0</ele><time>2026-03-29T15:17:15.997Z</time></trkpt><trkpt lat="42.44235115036399" lon="11.262347789128764"><ele>3.5</ele><time>2026-03-29T15:17:16.997Z</time></trkpt><trkpt lat="42.44215926615597" lon="11.262557645429494"><ele>4.0</ele><time>2026-03-29T15:17:17.997Z</time></trkpt><trkpt lat="42.4419793128684" lon="11.262782888069856"><ele>3.0</ele><time>2026-03-29T15:17:18.997Z</time></trkpt><trkpt lat="42.441806964302806" lon="11.263018027730036"><ele>2.0</ele><time>2026-03-29T15:17:19.997Z</time></trkpt><trkpt lat="42.44164272190765" lon="11.263259555901257"><ele>2.0</ele><time>2026-03-29T15:17:20.997Z</time></trkpt><trkpt lat="42.441490072218116" lon="11.26351145723485"><ele>2.0</ele><time>2026-03-29T15:17:21.997Z</time></trkpt><trkpt lat="42.441342827480085" lon="11.263780202785599"><ele>1.0</ele><time>2026-03-29T15:17:22.997Z</time></trkpt><trkpt lat="42.44119452710817" lon="11.2640499686266"><ele>0.0</ele><time>2026-03-29T15:17:23.997Z</time></trkpt><trkpt lat="42.44106486126163" lon="11.264322813657646"><ele>0.0</ele><time>2026-03-29T15:17:24.997Z</time></trkpt><trkpt lat="42.44095664163947" lon="11.26461218699936"><ele>0.0</ele><time>2026-03-29T15:17:25.997Z</time></trkpt><trkpt lat="42.440855875782226" lon="11.264909629876016"><ele>0.0</ele><time>2026-03-29T15:17:26.997Z</time></trkpt><trkpt lat="42.44075894465308" lon="11.265206539529622"><ele>0.0</ele><time>2026-03-29T15:17:27.997Z</time></trkpt><trkpt lat="42.440669811373496" lon="11.265518353354558"><ele>0.0</ele><time>2026-03-29T15:17:28.997Z</time></trkpt><trkpt lat="42.44058236958063" lon="11.265826414833889"><ele>0.0</ele><time>2026-03-29T15:17:29.997Z</time></trkpt><trkpt lat="42.44049359102966" lon="11.266132133387963"><ele>0.0</ele><time>2026-03-29T15:17:30.997Z</time></trkpt><trkpt lat="42.44041088770306" lon="11.266429450219968"><ele>0.0</ele><time>2026-03-29T15:17:31.997Z</time></trkpt><trkpt lat="42.4403335849655" lon="11.266720124232648"><ele>0.0</ele><time>2026-03-29T15:17:32.997Z</time></trkpt><trkpt lat="42.44025335264752" lon="11.267009801165555"><ele>0.0</ele><time>2026-03-29T15:17:33.997Z</time></trkpt><trkpt lat="42.4401669077097" lon="11.267294220194985"><ele>0.0</ele><time>2026-03-29T15:17:34.997Z</time></trkpt><trkpt lat="42.44009215278612" lon="11.267589153420152"><ele>0.0</ele><time>2026-03-29T15:17:35.997Z</time></trkpt><trkpt lat="42.440017753088554" lon="11.267872895564226"><ele>-0.3333333333333333</ele><time>2026-03-29T15:17:36.997Z</time></trkpt><trkpt lat="42.439945876120326" lon="11.26815903328211"><ele>-0.6666666666666666</ele><time>2026-03-29T15:17:37.997Z</time></trkpt><trkpt lat="42.4398693049062" lon="11.268446389817994"><ele>-1.0</ele><time>2026-03-29T15:17:38.997Z</time></trkpt><trkpt lat="42.4397906345022" lon="11.268743278192352"><ele>-0.5</ele><time>2026-03-29T15:17:39.997Z</time></trkpt><trkpt lat="42.43971154245863" lon="11.269054581431115"><ele>0.0</ele><time>2026-03-29T15:17:40.997Z</time></trkpt><trkpt lat="42.439636866553705" lon="11.269369115192218"><ele>-0.5</ele><time>2026-03-29T15:17:41.997Z</time></trkpt><trkpt lat="42.43956096811958" lon="11.269678666211997"><ele>-1.0</ele><time>2026-03-29T15:17:42.997Z</time></trkpt><trkpt lat="42.43947712158723" lon="11.269989694772903"><ele>-1.0</ele><time>2026-03-29T15:17:43.997Z</time></trkpt><trkpt lat="42.43939264510482" lon="11.27029673966863"><ele>-1.0</ele><time>2026-03-29T15:17:44.997Z</time></trkpt><trkpt lat="42.4393161276696" lon="11.270606738407672"><ele>-0.5</ele><time>2026-03-29T15:17:45.997Z</time></trkpt><trkpt lat="42.43923342374954" lon="11.27091946585745"><ele>0.0</ele><time>2026-03-29T15:17:46.997Z</time></trkpt><trkpt lat="42.43915314272347" lon="11.271232190005106"><ele>0.5</ele><time>2026-03-29T15:17:47.997Z</time></trkpt><trkpt lat="42.439071827383216" lon="11.271542229738303"><ele>1.0</ele><time>2026-03-29T15:17:48.997Z</time></trkpt><trkpt lat="42.43899159304965" lon="11.271855055860085"><ele>1.0</ele><time>2026-03-29T15:17:49.997Z</time></trkpt><trkpt lat="42.43891264083482" lon="11.272166753527852"><ele>1.0</ele><time>2026-03-29T15:17:50.997Z</time></trkpt><trkpt lat="42.438829209412056" lon="11.272477176010433"><ele>1.0</ele><time>2026-03-29T15:17:51.997Z</time></trkpt><trkpt lat="42.43874630944478" lon="11.272784621066801"><ele>1.0</ele><time>2026-03-29T15:17:52.997Z</time></trkpt><trkpt lat="42.43865986955252" lon="11.273095443217178"><ele>0.5</ele><time>2026-03-29T15:17:53.997Z</time></trkpt><trkpt lat="42.43857643341071" lon="11.273407364746381"><ele>0.0</ele><time>2026-03-29T15:17:54.996Z</time></trkpt><trkpt lat="42.43849294486357" lon="11.273718611331505"><ele>-0.5</ele><time>2026-03-29T15:17:55.996Z</time></trkpt><trkpt lat="42.43841073603402" lon="11.274026808860572"><ele>-1.0</ele><time>2026-03-29T15:17:56.996Z</time></trkpt><trkpt lat="42.43832782612786" lon="11.274336638917822"><ele>-1.0</ele><time>2026-03-29T15:17:57.996Z</time></trkpt><trkpt lat="42.43824352907699" lon="11.274647062407093"><ele>-1.0</ele><time>2026-03-29T15:17:58.996Z</time></trkpt><trkpt lat="42.438158325907516" lon="11.274958567654565"><ele>0.0</ele><time>2026-03-29T15:17:59.996Z</time></trkpt><trkpt lat="42.438070206006444" lon="11.275271294274956"><ele>1.0</ele><time>2026-03-29T15:18:00.996Z</time></trkpt><trkpt lat="42.437989255077454" lon="11.275585009493522"><ele>-0.5</ele><time>2026-03-29T15:18:01.996Z</time></trkpt><trkpt lat="42.4379062944361" lon="11.275894578926383"><ele>-2.0</ele><time>2026-03-29T15:18:02.996Z</time></trkpt><trkpt lat="42.43782509317027" lon="11.276205631276309"><ele>-1.5</ele><time>2026-03-29T15:18:03.996Z</time></trkpt><trkpt lat="42.43773521605588" lon="11.276514732220054"><ele>-1.0</ele><time>2026-03-29T15:18:04.996Z</time></trkpt><trkpt lat="42.43763558968357" lon="11.27681619148962"><ele>-1.0</ele><time>2026-03-29T15:18:05.996Z</time></trkpt><trkpt lat="42.437525235883236" lon="11.277110101008963"><ele>-1.0</ele><time>2026-03-29T15:18:06.996Z</time></trkpt><trkpt lat="42.437401892468436" lon="11.277393666456106"><ele>-0.5</ele><time>2026-03-29T15:18:07.996Z</time></trkpt><trkpt lat="42.43726832399992" lon="11.277668954926366"><ele>0.0</ele><time>2026-03-29T15:18:08.996Z</time></trkpt><trkpt lat="42.4371261308159" lon="11.277939872888556"><ele>1.0</ele><time>2026-03-29T15:18:09.996Z</time></trkpt><trkpt lat="42.436984260451375" lon="11.278208413454593"><ele>2.0</ele><time>2026-03-29T15:18:10.996Z</time></trkpt><trkpt lat="42.43683874761647" lon="11.27847103433956"><ele>2.0</ele><time>2026-03-29T15:18:11.996Z</time></trkpt><trkpt lat="42.436684063711" lon="11.278727486150315"><ele>2.0</ele><time>2026-03-29T15:18:12.996Z</time></trkpt><trkpt lat="42.436531601064885" lon="11.278970734183504"><ele>2.5</ele><time>2026-03-29T15:18:13.996Z</time></trkpt><trkpt lat="42.4363624348471" lon="11.279209063706213"><ele>3.0</ele><time>2026-03-29T15:18:14.996Z</time></trkpt><trkpt lat="42.43618428347469" lon="11.279437085791608"><ele>2.0</ele><time>2026-03-29T15:18:15.996Z</time></trkpt><trkpt lat="42.43600370854266" lon="11.279658475326357"><ele>1.0</ele><time>2026-03-29T15:18:16.996Z</time></trkpt><trkpt lat="42.43582529092093" lon="11.27987578485631"><ele>1.0</ele><time>2026-03-29T15:18:17.996Z</time></trkpt><trkpt lat="42.435637214098584" lon="11.28008438382806"><ele>1.0</ele><time>2026-03-29T15:18:18.996Z</time></trkpt><trkpt lat="42.435446333341254" lon="11.280286876835072"><ele>1.5</ele><time>2026-03-29T15:18:19.996Z</time></trkpt><trkpt lat="42.435251639506106" lon="11.280484734215674"><ele>2.0</ele><time>2026-03-29T15:18:20.996Z</time></trkpt><trkpt lat="42.43505199622671" lon="11.280677757000326"><ele>2.5</ele><time>2026-03-29T15:18:21.996Z</time></trkpt><trkpt lat="42.43484848830113" lon="11.280869908524764"><ele>3.0</ele><time>2026-03-29T15:18:22.996Z</time></trkpt><trkpt lat="42.43465861345207" lon="11.28106772720108"><ele>2.0</ele><time>2026-03-29T15:18:23.996Z</time></trkpt><trkpt lat="42.4344678953478" lon="11.281265509227705"><ele>1.0</ele><time>2026-03-29T15:18:24.996Z</time></trkpt><trkpt lat="42.434273779189425" lon="11.281464036600656"><ele>0.5</ele><time>2026-03-29T15:18:25.996Z</time></trkpt><trkpt lat="42.43407615891209" lon="11.28165888493627"><ele>0.0</ele><time>2026-03-29T15:18:26.996Z</time></trkpt><trkpt lat="42.43387526805366" lon="11.281852673384561"><ele>0.0</ele><time>2026-03-29T15:18:27.996Z</time></trkpt><trkpt lat="42.43366791950569" lon="11.28203730769715"><ele>0.0</ele><time>2026-03-29T15:18:28.996Z</time></trkpt><trkpt lat="42.433471365092686" lon="11.282229496168972"><ele>1.0</ele><time>2026-03-29T15:18:29.996Z</time></trkpt><trkpt lat="42.43327849979071" lon="11.282435871986266"><ele>2.0</ele><time>2026-03-29T15:18:30.996Z</time></trkpt><trkpt lat="42.433081620631896" lon="11.282642739744189"><ele>1.5</ele><time>2026-03-29T15:18:31.996Z</time></trkpt><trkpt lat="42.43287491264315" lon="11.282832595862185"><ele>1.0</ele><time>2026-03-29T15:18:32.996Z</time></trkpt><trkpt lat="42.43267328246063" lon="11.283029092418536"><ele>2.0</ele><time>2026-03-29T15:18:33.996Z</time></trkpt><trkpt lat="42.43247838798603" lon="11.28322478034478"><ele>3.0</ele><time>2026-03-29T15:18:34.996Z</time></trkpt><trkpt lat="42.43228337825514" lon="11.283419012695465"><ele>2.0</ele><time>2026-03-29T15:18:35.996Z</time></trkpt><trkpt lat="42.432087019190995" lon="11.28361241244151"><ele>1.0</ele><time>2026-03-29T15:18:36.996Z</time></trkpt><trkpt lat="42.43188906672137" lon="11.283802394876083"><ele>2.0</ele><time>2026-03-29T15:18:37.996Z</time></trkpt><trkpt lat="42.43168639075096" lon="11.283987166067696"><ele>3.0</ele><time>2026-03-29T15:18:38.996Z</time></trkpt><trkpt lat="42.43148462789119" lon="11.284172929854753"><ele>3.0</ele><time>2026-03-29T15:18:39.996Z</time></trkpt><trkpt lat="42.43128573137451" lon="11.284366065980775"><ele>3.0</ele><time>2026-03-29T15:18:40.996Z</time></trkpt><trkpt lat="42.43109386461032" lon="11.284564559987501"><ele>3.0</ele><time>2026-03-29T15:18:41.996Z</time></trkpt><trkpt lat="42.43089641641245" lon="11.284758522947612"><ele>3.0</ele><time>2026-03-29T15:18:42.996Z</time></trkpt><trkpt lat="42.43069763584825" lon="11.284945719294116"><ele>3.0</ele><time>2026-03-29T15:18:43.996Z</time></trkpt><trkpt lat="42.430492670879616" lon="11.285127223866265"><ele>3.0</ele><time>2026-03-29T15:18:44.996Z</time></trkpt><trkpt lat="42.43027950828573" lon="11.285293084151286"><ele>3.5</ele><time>2026-03-29T15:18:45.996Z</time></trkpt><trkpt lat="42.43006399013452" lon="11.285446725787523"><ele>4.0</ele><time>2026-03-29T15:18:46.996Z</time></trkpt><trkpt lat="42.42984305187234" lon="11.285592446655961"><ele>7.5</ele><time>2026-03-29T15:18:47.996Z</time></trkpt><trkpt lat="42.429616262068755" lon="11.28572361880365"><ele>11.0</ele><time>2026-03-29T15:18:48.996Z</time></trkpt><trkpt lat="42.42938449951068" lon="11.285851096686864"><ele>11.0</ele><time>2026-03-29T15:18:49.996Z</time></trkpt><trkpt lat="42.429148762461175" lon="11.285962344187388"><ele>11.0</ele><time>2026-03-29T15:18:50.996Z</time></trkpt><trkpt lat="42.428913912336334" lon="11.286058838325383"><ele>12.0</ele><time>2026-03-29T15:18:51.996Z</time></trkpt><trkpt lat="42.42868481626561" lon="11.286162401991252"><ele>13.0</ele><time>2026-03-29T15:18:52.996Z</time></trkpt><trkpt lat="42.42845145818379" lon="11.286265006556553"><ele>13.0</ele><time>2026-03-29T15:18:53.996Z</time></trkpt><trkpt lat="42.42822593322868" lon="11.286372168351896"><ele>13.0</ele><time>2026-03-29T15:18:54.996Z</time></trkpt><trkpt lat="42.42799744529336" lon="11.286479199379004"><ele>16.0</ele><time>2026-03-29T15:18:55.996Z</time></trkpt><trkpt lat="42.42776309153705" lon="11.286577965881719"><ele>19.0</ele><time>2026-03-29T15:18:56.996Z</time></trkpt><trkpt lat="42.42752781459593" lon="11.286675855194705"><ele>19.0</ele><time>2026-03-29T15:18:57.996Z</time></trkpt><trkpt lat="42.42728716807905" lon="11.28677553677358"><ele>19.0</ele><time>2026-03-29T15:18:58.996Z</time></trkpt><trkpt lat="42.427050940758654" lon="11.286884298165315"><ele>22.5</ele><time>2026-03-29T15:18:59.996Z</time></trkpt><trkpt lat="42.42682043329667" lon="11.286993862077587"><ele>26.0</ele><time>2026-03-29T15:19:00.996Z</time></trkpt><trkpt lat="42.42658776296878" lon="11.287106045903212"><ele>26.0</ele><time>2026-03-29T15:19:01.996Z</time></trkpt><trkpt lat="42.42635242066785" lon="11.287214225334786"><ele>26.0</ele><time>2026-03-29T15:19:02.996Z</time></trkpt><trkpt lat="42.426120843575504" lon="11.287323184352683"><ele>28.5</ele><time>2026-03-29T15:19:03.996Z</time></trkpt><trkpt lat="42.425891153537556" lon="11.287420648351306"><ele>31.0</ele><time>2026-03-29T15:19:04.996Z</time></trkpt><trkpt lat="42.4256582326822" lon="11.287519267879318"><ele>29.5</ele><time>2026-03-29T15:19:05.996Z</time></trkpt><trkpt lat="42.42542289538381" lon="11.287614905798772"><ele>28.0</ele><time>2026-03-29T15:19:06.996Z</time></trkpt><trkpt lat="42.42519014856268" lon="11.287710137375809"><ele>28.0</ele><time>2026-03-29T15:19:07.996Z</time></trkpt><trkpt lat="42.42495875798797" lon="11.28780676304038"><ele>28.0</ele><time>2026-03-29T15:19:08.996Z</time></trkpt><trkpt lat="42.424725952985966" lon="11.287911419861208"><ele>28.0</ele><time>2026-03-29T15:19:09.996Z</time></trkpt><trkpt lat="42.42449089289742" lon="11.288014814442441"><ele>28.0</ele><time>2026-03-29T15:19:10.996Z</time></trkpt><trkpt lat="42.424256077599" lon="11.288116479035189"><ele>27.5</ele><time>2026-03-29T15:19:11.996Z</time></trkpt><trkpt lat="42.42402590094776" lon="11.28822058960211"><ele>27.0</ele><time>2026-03-29T15:19:12.996Z</time></trkpt><trkpt lat="42.423798484534224" lon="11.28833183007152"><ele>27.0</ele><time>2026-03-29T15:19:13.996Z</time></trkpt><trkpt lat="42.42357056076306" lon="11.288444965812763"><ele>27.0</ele><time>2026-03-29T15:19:14.996Z</time></trkpt><trkpt lat="42.423338318245385" lon="11.288559949703815"><ele>27.0</ele><time>2026-03-29T15:19:15.996Z</time></trkpt><trkpt lat="42.4231064084368" lon="11.288665839415708"><ele>27.0</ele><time>2026-03-29T15:19:16.996Z</time></trkpt><trkpt lat="42.42287123018241" lon="11.288766394050109"><ele>25.0</ele><time>2026-03-29T15:19:17.996Z</time></trkpt><trkpt lat="42.42264140797016" lon="11.288879283945056"><ele>23.0</ele><time>2026-03-29T15:19:18.996Z</time></trkpt><trkpt lat="42.42241375630667" lon="11.288997669199473"><ele>23.0</ele><time>2026-03-29T15:19:19.996Z</time></trkpt><trkpt lat="42.422189135223135" lon="11.289127181983556"><ele>23.0</ele><time>2026-03-29T15:19:20.996Z</time></trkpt><trkpt lat="42.421967567921584" lon="11.289266496736534"><ele>20.0</ele><time>2026-03-29T15:19:21.996Z</time></trkpt><trkpt lat="42.42175732243094" lon="11.289427322784256"><ele>17.0</ele><time>2026-03-29T15:19:22.996Z</time></trkpt><trkpt lat="42.421552559369445" lon="11.289601686959305"><ele>16.0</ele><time>2026-03-29T15:19:23.996Z</time></trkpt><trkpt lat="42.42135312239156" lon="11.289790869834132"><ele>15.0</ele><time>2026-03-29T15:19:24.996Z</time></trkpt><trkpt lat="42.42115465233422" lon="11.289994755598181"><ele>15.0</ele><time>2026-03-29T15:19:25.996Z</time></trkpt><trkpt lat="42.42096434313206" lon="11.290202558076578"><ele>15.0</ele><time>2026-03-29T15:19:26.996Z</time></trkpt><trkpt lat="42.42077622065177" lon="11.290413752235063"><ele>13.5</ele><time>2026-03-29T15:19:27.996Z</time></trkpt><trkpt lat="42.4205994548394" lon="11.290637974758539"><ele>12.0</ele><time>2026-03-29T15:19:28.996Z</time></trkpt><trkpt lat="42.42043217714337" lon="11.290872039788407"><ele>12.0</ele><time>2026-03-29T15:19:29.996Z</time></trkpt><trkpt lat="42.42027318906467" lon="11.291123115790358"><ele>12.0</ele><time>2026-03-29T15:19:30.996Z</time></trkpt><trkpt lat="42.42012336261774" lon="11.29138610821012"><ele>12.5</ele><time>2026-03-29T15:19:31.996Z</time></trkpt><trkpt lat="42.419977659450076" lon="11.29165494481853"><ele>13.0</ele><time>2026-03-29T15:19:32.996Z</time></trkpt><trkpt lat="42.41984266557986" lon="11.29193174614697"><ele>13.0</ele><time>2026-03-29T15:19:33.996Z</time></trkpt><trkpt lat="42.41971753497679" lon="11.292216151590809"><ele>13.0</ele><time>2026-03-29T15:19:34.996Z</time></trkpt><trkpt lat="42.41960401999488" lon="11.292506784897414"><ele>12.0</ele><time>2026-03-29T15:19:35.996Z</time></trkpt><trkpt lat="42.419492812621115" lon="11.292803469987948"><ele>11.0</ele><time>2026-03-29T15:19:36.996Z</time></trkpt><trkpt lat="42.41938984113238" lon="11.293107187501851"><ele>11.0</ele><time>2026-03-29T15:19:37.996Z</time></trkpt><trkpt lat="42.41929883899096" lon="11.29341209039855"><ele>11.0</ele><time>2026-03-29T15:19:38.996Z</time></trkpt><trkpt lat="42.41921693339204" lon="11.293725138562007"><ele>13.0</ele><time>2026-03-29T15:19:39.995Z</time></trkpt><trkpt lat="42.41914906537747" lon="11.294042533470204"><ele>15.0</ele><time>2026-03-29T15:19:40.995Z</time></trkpt><trkpt lat="42.41909337665458" lon="11.294359820383919"><ele>15.0</ele><time>2026-03-29T15:19:41.995Z</time></trkpt><trkpt lat="42.419047134945245" lon="11.29468276183638"><ele>15.0</ele><time>2026-03-29T15:19:42.995Z</time></trkpt><trkpt lat="42.41900588145775" lon="11.29500678519222"><ele>16.5</ele><time>2026-03-29T15:19:43.995Z</time></trkpt><trkpt lat="42.418972947246154" lon="11.2953314810115"><ele>18.0</ele><time>2026-03-29T15:19:44.995Z</time></trkpt><trkpt lat="42.418945619191824" lon="11.295659472673778"><ele>19.0</ele><time>2026-03-29T15:19:45.995Z</time></trkpt><trkpt lat="42.41892547293742" lon="11.295990876719143"><ele>20.0</ele><time>2026-03-29T15:19:46.995Z</time></trkpt><trkpt lat="42.41890196992782" lon="11.296317274113362"><ele>21.0</ele><time>2026-03-29T15:19:47.995Z</time></trkpt><trkpt lat="42.41888031445205" lon="11.296647621860211"><ele>22.0</ele><time>2026-03-29T15:19:48.995Z</time></trkpt><trkpt lat="42.41886240576772" lon="11.296976730453013"><ele>21.5</ele><time>2026-03-29T15:19:49.995Z</time></trkpt><trkpt lat="42.41883357777531" lon="11.29730201970889"><ele>21.0</ele><time>2026-03-29T15:19:50.995Z</time></trkpt><trkpt lat="42.418810942774314" lon="11.297629596023361"><ele>20.0</ele><time>2026-03-29T15:19:51.995Z</time></trkpt><trkpt lat="42.41879021968635" lon="11.297957393247193"><ele>19.0</ele><time>2026-03-29T15:19:52.995Z</time></trkpt><trkpt lat="42.41876730712536" lon="11.298283922321868"><ele>19.0</ele><time>2026-03-29T15:19:53.995Z</time></trkpt><trkpt lat="42.41874477194641" lon="11.298610198012762"><ele>19.0</ele><time>2026-03-29T15:19:54.995Z</time></trkpt><trkpt lat="42.418717947550306" lon="11.298936194651308"><ele>20.5</ele><time>2026-03-29T15:19:55.995Z</time></trkpt><trkpt lat="42.41869302739695" lon="11.299261107107046"><ele>22.0</ele><time>2026-03-29T15:19:56.995Z</time></trkpt><trkpt lat="42.418667873054346" lon="11.299587675702858"><ele>21.0</ele><time>2026-03-29T15:19:57.995Z</time></trkpt><trkpt lat="42.41864605219502" lon="11.299912090619662"><ele>20.0</ele><time>2026-03-29T15:19:58.995Z</time></trkpt><trkpt lat="42.418622666944714" lon="11.300239440496926"><ele>20.0</ele><time>2026-03-29T15:19:59.995Z</time></trkpt><trkpt lat="42.41859775049438" lon="11.300572109220235"><ele>20.0</ele><time>2026-03-29T15:20:00.995Z</time></trkpt><trkpt lat="42.41857204168251" lon="11.300905309388455"><ele>18.0</ele><time>2026-03-29T15:20:01.995Z</time></trkpt><trkpt lat="42.41852987998987" lon="11.30123776371507"><ele>16.0</ele><time>2026-03-29T15:20:02.995Z</time></trkpt><trkpt lat="42.41850365241157" lon="11.301561812722134"><ele>14.0</ele><time>2026-03-29T15:20:03.995Z</time></trkpt><trkpt lat="42.418472217425645" lon="11.301891204626733"><ele>12.0</ele><time>2026-03-29T15:20:04.995Z</time></trkpt><trkpt lat="42.41844497141599" lon="11.302216806110751"><ele>10.5</ele><time>2026-03-29T15:20:05.995Z</time></trkpt><trkpt lat="42.418408542932895" lon="11.302542556553314"><ele>9.0</ele><time>2026-03-29T15:20:06.995Z</time></trkpt><trkpt lat="42.41836035133017" lon="11.302868179330138"><ele>8.0</ele><time>2026-03-29T15:20:07.995Z</time></trkpt><trkpt lat="42.418304886666185" lon="11.303189605191445"><ele>7.0</ele><time>2026-03-29T15:20:08.995Z</time></trkpt><trkpt lat="42.418243609382515" lon="11.303503846727795"><ele>7.0</ele><time>2026-03-29T15:20:09.995Z</time></trkpt><trkpt lat="42.41818323970948" lon="11.303817938559655"><ele>7.0</ele><time>2026-03-29T15:20:10.995Z</time></trkpt><trkpt lat="42.41812271076314" lon="11.304135966603509"><ele>6.5</ele><time>2026-03-29T15:20:11.995Z</time></trkpt><trkpt lat="42.418066391758984" lon="11.304453981335346"><ele>6.0</ele><time>2026-03-29T15:20:12.995Z</time></trkpt><trkpt lat="42.41800312699433" lon="11.30477287104424"><ele>6.5</ele><time>2026-03-29T15:20:13.995Z</time></trkpt><trkpt lat="42.417933181924916" lon="11.305092469421195"><ele>7.0</ele><time>2026-03-29T15:20:14.995Z</time></trkpt><trkpt lat="42.41787054511949" lon="11.30541458009893"><ele>7.0</ele><time>2026-03-29T15:20:15.995Z</time></trkpt><trkpt lat="42.41781092004587" lon="11.30573693437636"><ele>7.0</ele><time>2026-03-29T15:20:16.995Z</time></trkpt><trkpt lat="42.41774416357416" lon="11.306057713596239"><ele>7.0</ele><time>2026-03-29T15:20:17.995Z</time></trkpt><trkpt lat="42.41767566599157" lon="11.306376738078505"><ele>7.0</ele><time>2026-03-29T15:20:18.995Z</time></trkpt><trkpt lat="42.41760862796968" lon="11.306696172564138"><ele>8.5</ele><time>2026-03-29T15:20:19.995Z</time></trkpt><trkpt lat="42.417539840934545" lon="11.307015828172547"><ele>10.0</ele><time>2026-03-29T15:20:20.995Z</time></trkpt><trkpt lat="42.41747378380683" lon="11.307332208049505"><ele>10.5</ele><time>2026-03-29T15:20:21.995Z</time></trkpt><trkpt lat="42.417405114950455" lon="11.307647537855996"><ele>11.0</ele><time>2026-03-29T15:20:22.995Z</time></trkpt><trkpt lat="42.417332481082774" lon="11.307962510940403"><ele>10.5</ele><time>2026-03-29T15:20:23.995Z</time></trkpt><trkpt lat="42.417267776057706" lon="11.308279309497744"><ele>10.0</ele><time>2026-03-29T15:20:24.995Z</time></trkpt><trkpt lat="42.417202504854956" lon="11.308594876124305"><ele>11.0</ele><time>2026-03-29T15:20:25.995Z</time></trkpt><trkpt lat="42.41714221162219" lon="11.308911615307519"><ele>12.0</ele><time>2026-03-29T15:20:26.995Z</time></trkpt><trkpt lat="42.41707418874391" lon="11.309230661238848"><ele>12.0</ele><time>2026-03-29T15:20:27.995Z</time></trkpt><trkpt lat="42.41700682041734" lon="11.309549759472954"><ele>12.0</ele><time>2026-03-29T15:20:28.995Z</time></trkpt><trkpt lat="42.41694012288958" lon="11.309868990407574"><ele>11.0</ele><time>2026-03-29T15:20:29.995Z</time></trkpt><trkpt lat="42.416879094982924" lon="11.310184109354957"><ele>10.0</ele><time>2026-03-29T15:20:30.995Z</time></trkpt><trkpt lat="42.416816670420616" lon="11.310502039834615"><ele>10.5</ele><time>2026-03-29T15:20:31.995Z</time></trkpt><trkpt lat="42.416753471732946" lon="11.310823621319768"><ele>11.0</ele><time>2026-03-29T15:20:32.995Z</time></trkpt><trkpt lat="42.416691962172294" lon="11.311142540310366"><ele>11.0</ele><time>2026-03-29T15:20:33.995Z</time></trkpt><trkpt lat="42.41662929090087" lon="11.31146284792777"><ele>11.0</ele><time>2026-03-29T15:20:34.995Z</time></trkpt><trkpt lat="42.4165703591112" lon="11.311783708881045"><ele>11.0</ele><time>2026-03-29T15:20:35.995Z</time></trkpt><trkpt lat="42.41650693561223" lon="11.312105430503491"><ele>11.0</ele><time>2026-03-29T15:20:36.995Z</time></trkpt><trkpt lat="42.4164453428318" lon="11.312430196934727"><ele>11.0</ele><time>2026-03-29T15:20:37.995Z</time></trkpt><trkpt lat="42.41638731312202" lon="11.312752464836928"><ele>11.0</ele><time>2026-03-29T15:20:38.995Z</time></trkpt><trkpt lat="42.41632764158331" lon="11.313076252634536"><ele>10.0</ele><time>2026-03-29T15:20:39.995Z</time></trkpt><trkpt lat="42.41627502795896" lon="11.313396000920504"><ele>9.0</ele><time>2026-03-29T15:20:40.995Z</time></trkpt><trkpt lat="42.41623126460356" lon="11.31372307159062"><ele>7.5</ele><time>2026-03-29T15:20:41.995Z</time></trkpt><trkpt lat="42.416188495891234" lon="11.31404670191663"><ele>6.0</ele><time>2026-03-29T15:20:42.995Z</time></trkpt><trkpt lat="42.416150093004916" lon="11.31437444109591"><ele>6.0</ele><time>2026-03-29T15:20:43.995Z</time></trkpt><trkpt lat="42.41611700357424" lon="11.314701045611505"><ele>6.0</ele><time>2026-03-29T15:20:44.995Z</time></trkpt><trkpt lat="42.4160854683194" lon="11.315030584974071"><ele>5.5</ele><time>2026-03-29T15:20:45.995Z</time></trkpt><trkpt lat="42.416057552845885" lon="11.31535879667354"><ele>5.0</ele><time>2026-03-29T15:20:46.995Z</time></trkpt><trkpt lat="42.4160184524812" lon="11.315685733341304"><ele>4.5</ele><time>2026-03-29T15:20:47.995Z</time></trkpt><trkpt lat="42.41597948238307" lon="11.316013381355626"><ele>4.0</ele><time>2026-03-29T15:20:48.995Z</time></trkpt><trkpt lat="42.415937073456526" lon="11.316337884394693"><ele>3.5</ele><time>2026-03-29T15:20:49.995Z</time></trkpt><trkpt lat="42.41589517317295" lon="11.316657913120254"><ele>3.0</ele><time>2026-03-29T15:20:50.995Z</time></trkpt><trkpt lat="42.41585910034428" lon="11.316982424321768"><ele>3.5</ele><time>2026-03-29T15:20:51.995Z</time></trkpt><trkpt lat="42.415817716686746" lon="11.317308708733043"><ele>4.0</ele><time>2026-03-29T15:20:52.995Z</time></trkpt><trkpt lat="42.415776606460575" lon="11.3176311877629"><ele>4.0</ele><time>2026-03-29T15:20:53.995Z</time></trkpt><trkpt lat="42.4157344432819" lon="11.31795832636342"><ele>4.0</ele><time>2026-03-29T15:20:54.995Z</time></trkpt><trkpt lat="42.41569584362228" lon="11.318288167014035"><ele>5.0</ele><time>2026-03-29T15:20:55.995Z</time></trkpt><trkpt lat="42.415658875259815" lon="11.31860973288614"><ele>6.0</ele><time>2026-03-29T15:20:56.995Z</time></trkpt><trkpt lat="42.415621357825266" lon="11.318933289300258"><ele>6.0</ele><time>2026-03-29T15:20:57.995Z</time></trkpt><trkpt lat="42.415585289159196" lon="11.319260185217418"><ele>6.0</ele><time>2026-03-29T15:20:58.995Z</time></trkpt><trkpt lat="42.41554512364067" lon="11.319584418620583"><ele>6.0</ele><time>2026-03-29T15:20:59.995Z</time></trkpt><trkpt lat="42.41550730480541" lon="11.319905883611204"><ele>6.0</ele><time>2026-03-29T15:21:00.995Z</time></trkpt><trkpt lat="42.41546786503009" lon="11.320228623479942"><ele>6.0</ele><time>2026-03-29T15:21:01.995Z</time></trkpt><trkpt lat="42.41542960117341" lon="11.320532367747687"><ele>6.0</ele><time>2026-03-29T15:21:02.995Z</time></trkpt><trkpt lat="42.41538816347473" lon="11.320819485036578"><ele>6.0</ele><time>2026-03-29T15:21:03.995Z</time></trkpt><trkpt lat="42.41534979174687" lon="11.321092242373277"><ele>6.0</ele><time>2026-03-29T15:21:04.995Z</time></trkpt><trkpt lat="42.415319128843514" lon="11.321350796120749"><ele>6.0</ele><time>2026-03-29T15:21:05.995Z</time></trkpt><trkpt lat="42.415286190210644" lon="11.321598993708811"><ele>6.0</ele><time>2026-03-29T15:21:06.995Z</time></trkpt><trkpt lat="42.41525767875259" lon="11.321846879466984"><ele>6.666666666666666</ele><time>2026-03-29T15:21:07.995Z</time></trkpt><trkpt lat="42.41522523566046" lon="11.322088382510982"><ele>7.333333333333333</ele><time>2026-03-29T15:21:08.995Z</time></trkpt><trkpt lat="42.415200804675415" lon="11.322330829495774"><ele>8.0</ele><time>2026-03-29T15:21:09.995Z</time></trkpt><trkpt lat="42.41517623953685" lon="11.322573387265239"><ele>8.0</ele><time>2026-03-29T15:21:10.995Z</time></trkpt><trkpt lat="42.41515072946824" lon="11.322818220560864"><ele>8.0</ele><time>2026-03-29T15:21:11.995Z</time></trkpt><trkpt lat="42.41512273041349" lon="11.323058857932956"><ele>8.0</ele><time>2026-03-29T15:21:12.995Z</time></trkpt><trkpt lat="42.41509706979317" lon="11.32329715039898"><ele>8.0</ele><time>2026-03-29T15:21:13.995Z</time></trkpt><trkpt lat="42.41507234304655" lon="11.323535273457518"><ele>8.0</ele><time>2026-03-29T15:21:14.995Z</time></trkpt><trkpt lat="42.41504645999639" lon="11.323774224536487"><ele>8.0</ele><time>2026-03-29T15:21:15.995Z</time></trkpt><trkpt lat="42.41501836126346" lon="11.324008190879628"><ele>7.666666666666666</ele><time>2026-03-29T15:21:16.995Z</time></trkpt><trkpt lat="42.414997348043215" lon="11.324244855540307"><ele>7.333333333333334</ele><time>2026-03-29T15:21:17.995Z</time></trkpt><trkpt lat="42.414970644175646" lon="11.324484006408733"><ele>7.0</ele><time>2026-03-29T15:21:18.995Z</time></trkpt><trkpt lat="42.414941224832766" lon="11.324732276613636"><ele>7.0</ele><time>2026-03-29T15:21:19.995Z</time></trkpt><trkpt lat="42.4149194400246" lon="11.324986202940297"><ele>7.0</ele><time>2026-03-29T15:21:20.995Z</time></trkpt><trkpt lat="42.41489639222845" lon="11.325242288122933"><ele>7.0</ele><time>2026-03-29T15:21:21.995Z</time></trkpt><trkpt lat="42.414869284416746" lon="11.325500850475805"><ele>7.333333333333334</ele><time>2026-03-29T15:21:22.995Z</time></trkpt><trkpt lat="42.41484467440396" lon="11.325760168888268"><ele>7.666666666666666</ele><time>2026-03-29T15:21:23.994Z</time></trkpt><trkpt lat="42.41482262531949" lon="11.326018538678444"><ele>8.0</ele><time>2026-03-29T15:21:24.994Z</time></trkpt><trkpt lat="42.414798653068985" lon="11.32627434874576"><ele>8.0</ele><time>2026-03-29T15:21:25.994Z</time></trkpt><trkpt lat="42.41477966452615" lon="11.326528888468207"><ele>8.0</ele><time>2026-03-29T15:21:26.994Z</time></trkpt><trkpt lat="42.414756814893174" lon="11.326775774212955"><ele>8.0</ele><time>2026-03-29T15:21:27.994Z</time></trkpt><trkpt lat="42.41474296494968" lon="11.327020962735705"><ele>8.0</ele><time>2026-03-29T15:21:28.994Z</time></trkpt><trkpt lat="42.41472581613219" lon="11.327267124690113"><ele>8.0</ele><time>2026-03-29T15:21:29.994Z</time></trkpt><trkpt lat="42.41470989451571" lon="11.327509421830168"><ele>8.0</ele><time>2026-03-29T15:21:30.994Z</time></trkpt><trkpt lat="42.41469079350623" lon="11.327749843316289"><ele>8.0</ele><time>2026-03-29T15:21:31.994Z</time></trkpt><trkpt lat="42.41468002842434" lon="11.327991713736887"><ele>8.0</ele><time>2026-03-29T15:21:32.994Z</time></trkpt><trkpt lat="42.41466519813627" lon="11.328237743699571"><ele>8.0</ele><time>2026-03-29T15:21:33.994Z</time></trkpt><trkpt lat="42.41464907346809" lon="11.32848523361215"><ele>7.333333333333333</ele><time>2026-03-29T15:21:34.994Z</time></trkpt><trkpt lat="42.41463195340386" lon="11.328733784893117"><ele>6.666666666666666</ele><time>2026-03-29T15:21:35.994Z</time></trkpt><trkpt lat="42.41462003417399" lon="11.32898275084494"><ele>6.0</ele><time>2026-03-29T15:21:36.994Z</time></trkpt><trkpt lat="42.414605183107476" lon="11.329234372526459"><ele>6.0</ele><time>2026-03-29T15:21:37.994Z</time></trkpt><trkpt lat="42.41459593820943" lon="11.329485882653152"><ele>6.0</ele><time>2026-03-29T15:21:38.994Z</time></trkpt><trkpt lat="42.4145851937394" lon="11.329735127630912"><ele>6.0</ele><time>2026-03-29T15:21:39.994Z</time></trkpt><trkpt lat="42.414572201515234" lon="11.32998886558631"><ele>5.666666666666667</ele><time>2026-03-29T15:21:40.994Z</time></trkpt><trkpt lat="42.41456342820951" lon="11.330240453448607"><ele>5.333333333333334</ele><time>2026-03-29T15:21:41.994Z</time></trkpt><trkpt lat="42.41455073682733" lon="11.33049285925312"><ele>5.0</ele><time>2026-03-29T15:21:42.994Z</time></trkpt><trkpt lat="42.41453236344366" lon="11.330742263604307"><ele>4.666666666666667</ele><time>2026-03-29T15:21:43.994Z</time></trkpt><trkpt lat="42.41451380674634" lon="11.330993296120088"><ele>4.333333333333333</ele><time>2026-03-29T15:21:44.994Z</time></trkpt><trkpt lat="42.4145010452164" lon="11.331241525894514"><ele>4.0</ele><time>2026-03-29T15:21:45.994Z</time></trkpt><trkpt lat="42.41449190699764" lon="11.33149584050834"><ele>4.0</ele><time>2026-03-29T15:21:46.994Z</time></trkpt><trkpt lat="42.41448412079151" lon="11.33175111926288"><ele>4.0</ele><time>2026-03-29T15:21:47.994Z</time></trkpt><trkpt lat="42.414475315571714" lon="11.332009378217487"><ele>4.0</ele><time>2026-03-29T15:21:48.994Z</time></trkpt><trkpt lat="42.41446711557154" lon="11.332276124257936"><ele>4.0</ele><time>2026-03-29T15:21:49.994Z</time></trkpt><trkpt lat="42.414457976971015" lon="11.332545298859785"><ele>4.0</ele><time>2026-03-29T15:21:50.994Z</time></trkpt><trkpt lat="42.41444027071782" lon="11.332815967246255"><ele>4.0</ele><time>2026-03-29T15:21:51.994Z</time></trkpt><trkpt lat="42.4144259184385" lon="11.333089215019315"><ele>4.333333333333333</ele><time>2026-03-29T15:21:52.994Z</time></trkpt><trkpt lat="42.41441427748262" lon="11.333369526432346"><ele>4.666666666666667</ele><time>2026-03-29T15:21:53.994Z</time></trkpt><trkpt lat="42.41440027779473" lon="11.33364730097934"><ele>5.0</ele><time>2026-03-29T15:21:54.994Z</time></trkpt><trkpt lat="42.414381827808725" lon="11.333931503608433"><ele>5.0</ele><time>2026-03-29T15:21:55.994Z</time></trkpt><trkpt lat="42.41436803373399" lon="11.334215573910095"><ele>5.0</ele><time>2026-03-29T15:21:56.994Z</time></trkpt><trkpt lat="42.41435100710732" lon="11.334502895430001"><ele>5.0</ele><time>2026-03-29T15:21:57.994Z</time></trkpt><trkpt lat="42.41433337396593" lon="11.334792201859178"><ele>5.333333333333334</ele><time>2026-03-29T15:21:58.994Z</time></trkpt><trkpt lat="42.41431923115418" lon="11.335081224169222"><ele>5.666666666666667</ele><time>2026-03-29T15:21:59.994Z</time></trkpt><trkpt lat="42.41430922132035" lon="11.335374562979151"><ele>6.0</ele><time>2026-03-29T15:22:00.994Z</time></trkpt><trkpt lat="42.41429674768029" lon="11.335673211884322"><ele>6.0</ele><time>2026-03-29T15:22:01.994Z</time></trkpt><trkpt lat="42.41428749131195" lon="11.335971573820872"><ele>6.0</ele><time>2026-03-29T15:22:02.994Z</time></trkpt><trkpt lat="42.41429014045963" lon="11.336266919667798"><ele>6.0</ele><time>2026-03-29T15:22:03.994Z</time></trkpt><trkpt lat="42.414305698654225" lon="11.33656508693604"><ele>6.0</ele><time>2026-03-29T15:22:04.994Z</time></trkpt><trkpt lat="42.41433002882626" lon="11.336870849100753"><ele>6.0</ele><time>2026-03-29T15:22:05.994Z</time></trkpt><trkpt lat="42.41436712784181" lon="11.337178202451328"><ele>6.0</ele><time>2026-03-29T15:22:06.994Z</time></trkpt><trkpt lat="42.414409170191405" lon="11.33748061773218"><ele>6.0</ele><time>2026-03-29T15:22:07.994Z</time></trkpt><trkpt lat="42.414467568574274" lon="11.337770197805645"><ele>6.0</ele><time>2026-03-29T15:22:08.994Z</time></trkpt><trkpt lat="42.4145405694264" lon="11.338042339801875"><ele>6.666666666666666</ele><time>2026-03-29T15:22:09.994Z</time></trkpt><trkpt lat="42.41460878413215" lon="11.33831260260668"><ele>7.333333333333333</ele><time>2026-03-29T15:22:10.994Z</time></trkpt><trkpt lat="42.41468179436044" lon="11.3385866340841"><ele>8.0</ele><time>2026-03-29T15:22:11.994Z</time></trkpt><trkpt lat="42.414755025528976" lon="11.338851376776674"><ele>9.333333333333332</ele><time>2026-03-29T15:22:12.994Z</time></trkpt><trkpt lat="42.41483424292902" lon="11.339116168644997"><ele>10.666666666666666</ele><time>2026-03-29T15:22:13.994Z</time></trkpt><trkpt lat="42.414912002823264" lon="11.339372293020404"><ele>12.0</ele><time>2026-03-29T15:22:14.994Z</time></trkpt><trkpt lat="42.414986548934806" lon="11.339641292195308"><ele>12.333333333333332</ele><time>2026-03-29T15:22:15.994Z</time></trkpt><trkpt lat="42.41506055323504" lon="11.339921330449839"><ele>12.666666666666666</ele><time>2026-03-29T15:22:16.994Z</time></trkpt><trkpt lat="42.41512270562874" lon="11.340209417305163"><ele>13.0</ele><time>2026-03-29T15:22:17.994Z</time></trkpt><trkpt lat="42.41517405505189" lon="11.340504582910103"><ele>13.0</ele><time>2026-03-29T15:22:18.994Z</time></trkpt><trkpt lat="42.41521843524867" lon="11.340805410904006"><ele>13.0</ele><time>2026-03-29T15:22:19.994Z</time></trkpt><trkpt lat="42.41524692573858" lon="11.341113396058537"><ele>12.666666666666666</ele><time>2026-03-29T15:22:20.994Z</time></trkpt><trkpt lat="42.41526984245567" lon="11.341411731877546"><ele>12.333333333333332</ele><time>2026-03-29T15:22:21.994Z</time></trkpt><trkpt lat="42.41527458480016" lon="11.341715284450261"><ele>12.0</ele><time>2026-03-29T15:22:22.994Z</time></trkpt><trkpt lat="42.41527711419688" lon="11.342013120530334"><ele>12.0</ele><time>2026-03-29T15:22:23.994Z</time></trkpt><trkpt lat="42.41526966121089" lon="11.342308643323403"><ele>12.0</ele><time>2026-03-29T15:22:24.994Z</time></trkpt><trkpt lat="42.41527272896425" lon="11.342600791851526"><ele>12.0</ele><time>2026-03-29T15:22:25.994Z</time></trkpt><trkpt lat="42.41527797282165" lon="11.342893231498499"><ele>11.666666666666666</ele><time>2026-03-29T15:22:26.994Z</time></trkpt><trkpt lat="42.41527827560166" lon="11.343192580726006"><ele>11.333333333333332</ele><time>2026-03-29T15:22:27.994Z</time></trkpt><trkpt lat="42.41528013180079" lon="11.34349350429125"><ele>11.0</ele><time>2026-03-29T15:22:28.994Z</time></trkpt><trkpt lat="42.41526783819901" lon="11.343793077747584"><ele>10.666666666666666</ele><time>2026-03-29T15:22:29.994Z</time></trkpt><trkpt lat="42.415261002951794" lon="11.344088788802413"><ele>10.333333333333334</ele><time>2026-03-29T15:22:30.994Z</time></trkpt><trkpt lat="42.41525680948081" lon="11.344385370771535"><ele>10.0</ele><time>2026-03-29T15:22:31.994Z</time></trkpt><trkpt lat="42.4152482973251" lon="11.344682351270173"><ele>9.333333333333334</ele><time>2026-03-29T15:22:32.994Z</time></trkpt><trkpt lat="42.41524298032885" lon="11.344978061457082"><ele>8.666666666666666</ele><time>2026-03-29T15:22:33.994Z</time></trkpt><trkpt lat="42.41523159817955" lon="11.34527813383758"><ele>8.0</ele><time>2026-03-29T15:22:34.994Z</time></trkpt><trkpt lat="42.415229282860174" lon="11.34557589411907"><ele>7.666666666666666</ele><time>2026-03-29T15:22:35.994Z</time></trkpt><trkpt lat="42.415226650365405" lon="11.345873145895219"><ele>7.333333333333334</ele><time>2026-03-29T15:22:36.994Z</time></trkpt><trkpt lat="42.41521966487101" lon="11.346170052193635"><ele>7.0</ele><time>2026-03-29T15:22:37.994Z</time></trkpt><trkpt lat="42.41521306199293" lon="11.346460599556526"><ele>7.0</ele><time>2026-03-29T15:22:38.994Z</time></trkpt><trkpt lat="42.41521224947951" lon="11.346745138145856"><ele>7.0</ele><time>2026-03-29T15:22:39.994Z</time></trkpt><trkpt lat="42.41520921158152" lon="11.347035741406517"><ele>7.0</ele><time>2026-03-29T15:22:40.994Z</time></trkpt><trkpt lat="42.415210300384594" lon="11.34730960096456"><ele>8.666666666666668</ele><time>2026-03-29T15:22:41.994Z</time></trkpt><trkpt lat="42.4152081442398" lon="11.347590543023681"><ele>10.333333333333334</ele><time>2026-03-29T15:22:42.994Z</time></trkpt><trkpt lat="42.41520706837424" lon="11.347862625972548"><ele>12.0</ele><time>2026-03-29T15:22:43.994Z</time></trkpt><trkpt lat="42.41520510431434" lon="11.348133131334553"><ele>12.333333333333332</ele><time>2026-03-29T15:22:44.994Z</time></trkpt><trkpt lat="42.415197297539635" lon="11.348392534096995"><ele>12.666666666666666</ele><time>2026-03-29T15:22:45.994Z</time></trkpt><trkpt lat="42.415192704464545" lon="11.34865457134794"><ele>13.0</ele><time>2026-03-29T15:22:46.994Z</time></trkpt><trkpt lat="42.41518989476548" lon="11.348921672208158"><ele>13.0</ele><time>2026-03-29T15:22:47.994Z</time></trkpt><trkpt lat="42.41518549163832" lon="11.349194631411716"><ele>13.0</ele><time>2026-03-29T15:22:48.994Z</time></trkpt><trkpt lat="42.41517906032896" lon="11.349468252860062"><ele>13.0</ele><time>2026-03-29T15:22:49.994Z</time></trkpt><trkpt lat="42.415172608549604" lon="11.349741925842226"><ele>12.0</ele><time>2026-03-29T15:22:50.994Z</time></trkpt><trkpt lat="42.41517879709186" lon="11.350018020395822"><ele>11.0</ele><time>2026-03-29T15:22:51.994Z</time></trkpt><trkpt lat="42.4151918328427" lon="11.350290847480306"><ele>10.0</ele><time>2026-03-29T15:22:52.994Z</time></trkpt><trkpt lat="42.41518862303269" lon="11.350564952414686"><ele>9.333333333333334</ele><time>2026-03-29T15:22:53.994Z</time></trkpt><trkpt lat="42.41518641596838" lon="11.350842787593235"><ele>8.666666666666666</ele><time>2026-03-29T15:22:54.994Z</time></trkpt><trkpt lat="42.415187421104804" lon="11.351118073662786"><ele>8.0</ele><time>2026-03-29T15:22:55.994Z</time></trkpt><trkpt lat="42.41518271070749" lon="11.35139350514861"><ele>8.0</ele><time>2026-03-29T15:22:56.994Z</time></trkpt><trkpt lat="42.4151749096185" lon="11.35166858036162"><ele>8.0</ele><time>2026-03-29T15:22:57.994Z</time></trkpt><trkpt lat="42.415172492466795" lon="11.351939925786263"><ele>8.0</ele><time>2026-03-29T15:22:58.994Z</time></trkpt><trkpt lat="42.415176371237564" lon="11.352212738973114"><ele>8.0</ele><time>2026-03-29T15:22:59.994Z</time></trkpt><trkpt lat="42.41517661993773" lon="11.35248951729792"><ele>8.0</ele><time>2026-03-29T15:23:00.994Z</time></trkpt><trkpt lat="42.41517258657281" lon="11.35276823178351"><ele>8.0</ele><time>2026-03-29T15:23:01.994Z</time></trkpt><trkpt lat="42.41517187334199" lon="11.353046899506134"><ele>7.333333333333333</ele><time>2026-03-29T15:23:02.994Z</time></trkpt><trkpt lat="42.41516925793656" lon="11.353331379839236"><ele>6.666666666666666</ele><time>2026-03-29T15:23:03.994Z</time></trkpt><trkpt lat="42.41516379447054" lon="11.353619035906048"><ele>6.0</ele><time>2026-03-29T15:23:04.994Z</time></trkpt><trkpt lat="42.4151625829774" lon="11.353905610335234"><ele>6.0</ele><time>2026-03-29T15:23:05.994Z</time></trkpt><trkpt lat="42.4151578348388" lon="11.35419925044255"><ele>6.0</ele><time>2026-03-29T15:23:06.994Z</time></trkpt><trkpt lat="42.415155534340165" lon="11.354497600491387"><ele>6.0</ele><time>2026-03-29T15:23:07.994Z</time></trkpt><trkpt lat="42.41515816307791" lon="11.354793253658528"><ele>6.333333333333334</ele><time>2026-03-29T15:23:08.993Z</time></trkpt><trkpt lat="42.415155670833684" lon="11.355094423973812"><ele>6.666666666666667</ele><time>2026-03-29T15:23:09.993Z</time></trkpt><trkpt lat="42.41514795826797" lon="11.35540150834839"><ele>7.0</ele><time>2026-03-29T15:23:10.993Z</time></trkpt><trkpt lat="42.41514801953737" lon="11.355723807636146"><ele>7.5</ele><time>2026-03-29T15:23:11.993Z</time></trkpt><trkpt lat="42.41515268695876" lon="11.356070871880474"><ele>8.0</ele><time>2026-03-29T15:23:12.993Z</time></trkpt><trkpt lat="42.415153753174344" lon="11.356444117547005"><ele>8.0</ele><time>2026-03-29T15:23:13.993Z</time></trkpt><trkpt lat="42.415156726800376" lon="11.35683950845564"><ele>8.0</ele><time>2026-03-29T15:23:14.993Z</time></trkpt><trkpt lat="42.415159608900176" lon="11.35725772715026"><ele>7.5</ele><time>2026-03-29T15:23:15.993Z</time></trkpt><trkpt lat="42.41514633935522" lon="11.357683319732711"><ele>7.0</ele><time>2026-03-29T15:23:16.993Z</time></trkpt><trkpt lat="42.41513494593993" lon="11.358091029179148"><ele>7.0</ele><time>2026-03-29T15:23:17.993Z</time></trkpt><trkpt lat="42.41512677495584" lon="11.358491811975666"><ele>7.0</ele><time>2026-03-29T15:23:18.993Z</time></trkpt><trkpt lat="42.415120211237245" lon="11.358890788941231"><ele>7.5</ele><time>2026-03-29T15:23:19.993Z</time></trkpt><trkpt lat="42.415112314032775" lon="11.359285084932374"><ele>8.0</ele><time>2026-03-29T15:23:20.993Z</time></trkpt><trkpt lat="42.41510696304393" lon="11.359677735412342"><ele>8.5</ele><time>2026-03-29T15:23:21.993Z</time></trkpt><trkpt lat="42.415101887388865" lon="11.36006784170741"><ele>9.0</ele><time>2026-03-29T15:23:22.993Z</time></trkpt><trkpt lat="42.41510031497686" lon="11.36044230899132"><ele>9.5</ele><time>2026-03-29T15:23:23.993Z</time></trkpt><trkpt lat="42.415091901470994" lon="11.360810139053369"><ele>10.0</ele><time>2026-03-29T15:23:24.993Z</time></trkpt><trkpt lat="42.41509263110589" lon="11.361169686319808"><ele>9.5</ele><time>2026-03-29T15:23:25.993Z</time></trkpt><trkpt lat="42.41508837073958" lon="11.361518541939832"><ele>9.0</ele><time>2026-03-29T15:23:26.993Z</time></trkpt><trkpt lat="42.41508358688507" lon="11.361857863203003"><ele>9.0</ele><time>2026-03-29T15:23:27.993Z</time></trkpt><trkpt lat="42.41507764775754" lon="11.362186509973101"><ele>9.0</ele><time>2026-03-29T15:23:28.993Z</time></trkpt><trkpt lat="42.415070791385396" lon="11.362503529653065"><ele>9.0</ele><time>2026-03-29T15:23:29.993Z</time></trkpt><trkpt lat="42.415066051324175" lon="11.362818895606678"><ele>9.0</ele><time>2026-03-29T15:23:30.993Z</time></trkpt><trkpt lat="42.41506352553808" lon="11.363126086238925"><ele>9.0</ele><time>2026-03-29T15:23:31.993Z</time></trkpt><trkpt lat="42.41506571848945" lon="11.363432335319303"><ele>9.0</ele><time>2026-03-29T15:23:32.993Z</time></trkpt><trkpt lat="42.415066993654484" lon="11.363731948336168"><ele>9.0</ele><time>2026-03-29T15:23:33.993Z</time></trkpt><trkpt lat="42.41506846410358" lon="11.364032024024352"><ele>8.666666666666666</ele><time>2026-03-29T15:23:34.993Z</time></trkpt><trkpt lat="42.415069213821724" lon="11.364330779026165"><ele>8.333333333333332</ele><time>2026-03-29T15:23:35.993Z</time></trkpt><trkpt lat="42.41507071589364" lon="11.36462949384657"><ele>8.0</ele><time>2026-03-29T15:23:36.993Z</time></trkpt><trkpt lat="42.41506541893005" lon="11.364917198706053"><ele>8.333333333333332</ele><time>2026-03-29T15:23:37.993Z</time></trkpt><trkpt lat="42.41506401306445" lon="11.365203098904367"><ele>8.666666666666666</ele><time>2026-03-29T15:23:38.993Z</time></trkpt><trkpt lat="42.41506394149539" lon="11.365484697807831"><ele>9.0</ele><time>2026-03-29T15:23:39.993Z</time></trkpt><trkpt lat="42.41506185088222" lon="11.365765996555416"><ele>9.0</ele><time>2026-03-29T15:23:40.993Z</time></trkpt><trkpt lat="42.41505640131982" lon="11.366026706082794"><ele>9.0</ele><time>2026-03-29T15:23:41.993Z</time></trkpt><trkpt lat="42.4150547236679" lon="11.366282249700145"><ele>9.0</ele><time>2026-03-29T15:23:42.993Z</time></trkpt><trkpt lat="42.41505235302832" lon="11.366528518132503"><ele>9.0</ele><time>2026-03-29T15:23:43.993Z</time></trkpt><trkpt lat="42.41505396663127" lon="11.366776777433637"><ele>9.0</ele><time>2026-03-29T15:23:44.993Z</time></trkpt><trkpt lat="42.41505151808921" lon="11.367032293136594"><ele>9.0</ele><time>2026-03-29T15:23:45.993Z</time></trkpt><trkpt lat="42.41504426530722" lon="11.367293835283236"><ele>9.0</ele><time>2026-03-29T15:23:46.993Z</time></trkpt><trkpt lat="42.415033533970245" lon="11.36755974718582"><ele>9.0</ele><time>2026-03-29T15:23:47.993Z</time></trkpt><trkpt lat="42.415032039934864" lon="11.367825830917752"><ele>9.0</ele><time>2026-03-29T15:23:48.993Z</time></trkpt><trkpt lat="42.41502869613747" lon="11.36809630861451"><ele>9.0</ele><time>2026-03-29T15:23:49.993Z</time></trkpt><trkpt lat="42.41502926317272" lon="11.368367944941932"><ele>9.0</ele><time>2026-03-29T15:23:50.993Z</time></trkpt><trkpt lat="42.41502541465479" lon="11.368634004963162"><ele>9.0</ele><time>2026-03-29T15:23:51.993Z</time></trkpt><trkpt lat="42.41502448210564" lon="11.368903932289818"><ele>9.0</ele><time>2026-03-29T15:23:52.993Z</time></trkpt><trkpt lat="42.415022202723385" lon="11.369168374388915"><ele>9.0</ele><time>2026-03-29T15:23:53.993Z</time></trkpt><trkpt lat="42.4150251818417" lon="11.36942364979897"><ele>9.0</ele><time>2026-03-29T15:23:54.993Z</time></trkpt><trkpt lat="42.415021102280726" lon="11.36966643585673"><ele>8.666666666666666</ele><time>2026-03-29T15:23:55.993Z</time></trkpt><trkpt lat="42.415016137629635" lon="11.369898779572958"><ele>8.333333333333332</ele><time>2026-03-29T15:23:56.993Z</time></trkpt><trkpt lat="42.41500945037867" lon="11.370124757669615"><ele>8.0</ele><time>2026-03-29T15:23:57.993Z</time></trkpt><trkpt lat="42.415003930624536" lon="11.370345548946748"><ele>8.666666666666666</ele><time>2026-03-29T15:23:58.993Z</time></trkpt><trkpt lat="42.41500468943999" lon="11.370564248259845"><ele>9.333333333333334</ele><time>2026-03-29T15:23:59.993Z</time></trkpt><trkpt lat="42.41501070109296" lon="11.370783844413632"><ele>10.0</ele><time>2026-03-29T15:24:00.993Z</time></trkpt><trkpt lat="42.415013372019295" lon="11.37100527843077"><ele>10.0</ele><time>2026-03-29T15:24:01.993Z</time></trkpt><trkpt lat="42.41501483361757" lon="11.37123704017798"><ele>10.0</ele><time>2026-03-29T15:24:02.993Z</time></trkpt><trkpt lat="42.41501313584745" lon="11.3714747444631"><ele>10.0</ele><time>2026-03-29T15:24:03.993Z</time></trkpt><trkpt lat="42.41501500842251" lon="11.371725019430018"><ele>10.333333333333334</ele><time>2026-03-29T15:24:04.993Z</time></trkpt><trkpt lat="42.41501299314529" lon="11.371976727577163"><ele>10.666666666666666</ele><time>2026-03-29T15:24:05.993Z</time></trkpt><trkpt lat="42.41500603904771" lon="11.372221636403406"><ele>11.0</ele><time>2026-03-29T15:24:06.993Z</time></trkpt><trkpt lat="42.415004273334944" lon="11.372460775476192"><ele>11.0</ele><time>2026-03-29T15:24:07.993Z</time></trkpt><trkpt lat="42.414997608893145" lon="11.372696858524831"><ele>11.0</ele><time>2026-03-29T15:24:08.993Z</time></trkpt><trkpt lat="42.414991598977046" lon="11.372924566226214"><ele>11.0</ele><time>2026-03-29T15:24:09.993Z</time></trkpt><trkpt lat="42.414994952805124" lon="11.373142381155908"><ele>10.666666666666666</ele><time>2026-03-29T15:24:10.993Z</time></trkpt><trkpt lat="42.414992249786394" lon="11.373372724581941"><ele>10.333333333333334</ele><time>2026-03-29T15:24:11.993Z</time></trkpt><trkpt lat="42.414992910210294" lon="11.373606694426687"><ele>10.0</ele><time>2026-03-29T15:24:12.993Z</time></trkpt><trkpt lat="42.41499279209747" lon="11.3738496679476"><ele>10.0</ele><time>2026-03-29T15:24:13.993Z</time></trkpt><trkpt lat="42.41499377893784" lon="11.374097670858703"><ele>10.0</ele><time>2026-03-29T15:24:14.993Z</time></trkpt><trkpt lat="42.41500291587136" lon="11.37435728294213"><ele>10.0</ele><time>2026-03-29T15:24:15.993Z</time></trkpt><trkpt lat="42.41500072864562" lon="11.374624690069666"><ele>8.666666666666668</ele><time>2026-03-29T15:24:16.993Z</time></trkpt><trkpt lat="42.41498698551888" lon="11.374897308833663"><ele>7.333333333333334</ele><time>2026-03-29T15:24:17.993Z</time></trkpt><trkpt lat="42.41498711085214" lon="11.375167144548014"><ele>6.0</ele><time>2026-03-29T15:24:18.993Z</time></trkpt><trkpt lat="42.4149801434911" lon="11.375437753403414"><ele>5.666666666666667</ele><time>2026-03-29T15:24:19.993Z</time></trkpt><trkpt lat="42.41497834744901" lon="11.375706860129522"><ele>5.333333333333334</ele><time>2026-03-29T15:24:20.993Z</time></trkpt><trkpt lat="42.4149792668992" lon="11.375980814742382"><ele>5.0</ele><time>2026-03-29T15:24:21.993Z</time></trkpt><trkpt lat="42.41498382293389" lon="11.376252440829125"><ele>6.0</ele><time>2026-03-29T15:24:22.993Z</time></trkpt><trkpt lat="42.414980690791054" lon="11.37651707426843"><ele>7.0</ele><time>2026-03-29T15:24:23.993Z</time></trkpt><trkpt lat="42.41497459596713" lon="11.376787097875056"><ele>8.0</ele><time>2026-03-29T15:24:24.993Z</time></trkpt><trkpt lat="42.41496718245923" lon="11.377051305253893"><ele>7.0</ele><time>2026-03-29T15:24:25.993Z</time></trkpt><trkpt lat="42.414964923344385" lon="11.377315611417687"><ele>6.0</ele><time>2026-03-29T15:24:26.993Z</time></trkpt><trkpt lat="42.414964408075576" lon="11.377581602235463"><ele>5.0</ele><time>2026-03-29T15:24:27.993Z</time></trkpt><trkpt lat="42.41496517154098" lon="11.377852578641757"><ele>5.0</ele><time>2026-03-29T15:24:28.993Z</time></trkpt><trkpt lat="42.41497004080973" lon="11.378135262241765"><ele>5.0</ele><time>2026-03-29T15:24:29.993Z</time></trkpt><trkpt lat="42.41497681693487" lon="11.378431609562378"><ele>5.0</ele><time>2026-03-29T15:24:30.993Z</time></trkpt><trkpt lat="42.4149798158634" lon="11.378744299469888"><ele>4.5</ele><time>2026-03-29T15:24:31.993Z</time></trkpt><trkpt lat="42.414983675458934" lon="11.379065635565663"><ele>4.0</ele><time>2026-03-29T15:24:32.993Z</time></trkpt><trkpt lat="42.41498324692239" lon="11.37939318534491"><ele>4.0</ele><time>2026-03-29T15:24:33.993Z</time></trkpt><trkpt lat="42.414981842505526" lon="11.379711173146479"><ele>4.0</ele><time>2026-03-29T15:24:34.993Z</time></trkpt><trkpt lat="42.41498022944467" lon="11.380042946135216"><ele>4.0</ele><time>2026-03-29T15:24:35.993Z</time></trkpt><trkpt lat="42.4149740930937" lon="11.380372801413893"><ele>4.0</ele><time>2026-03-29T15:24:36.993Z</time></trkpt><trkpt lat="42.414962024915354" lon="11.380711245844514"><ele>5.0</ele><time>2026-03-29T15:24:37.993Z</time></trkpt><trkpt lat="42.41496279101395" lon="11.381042703123681"><ele>6.0</ele><time>2026-03-29T15:24:38.993Z</time></trkpt><trkpt lat="42.414960477331654" lon="11.381380343192886"><ele>6.0</ele><time>2026-03-29T15:24:39.993Z</time></trkpt><trkpt lat="42.41495308966453" lon="11.381715977665458"><ele>6.0</ele><time>2026-03-29T15:24:40.993Z</time></trkpt><trkpt lat="42.41494351801251" lon="11.382049775091183"><ele>5.5</ele><time>2026-03-29T15:24:41.993Z</time></trkpt><trkpt lat="42.414933639974514" lon="11.382380622653585"><ele>5.0</ele><time>2026-03-29T15:24:42.993Z</time></trkpt><trkpt lat="42.41493059722243" lon="11.382708214257097"><ele>4.5</ele><time>2026-03-29T15:24:43.993Z</time></trkpt><trkpt lat="42.41492982144257" lon="11.383035594463903"><ele>4.0</ele><time>2026-03-29T15:24:44.993Z</time></trkpt><trkpt lat="42.414921410749216" lon="11.383360627575852"><ele>4.0</ele><time>2026-03-29T15:24:45.993Z</time></trkpt><trkpt lat="42.41491757206223" lon="11.383685366959796"><ele>4.0</ele><time>2026-03-29T15:24:46.993Z</time></trkpt><trkpt lat="42.41491722134234" lon="11.38400840066983"><ele>4.0</ele><time>2026-03-29T15:24:47.993Z</time></trkpt><trkpt lat="42.4149197773599" lon="11.384331137103846"><ele>4.0</ele><time>2026-03-29T15:24:48.993Z</time></trkpt><trkpt lat="42.41491585126463" lon="11.384647480455234"><ele>4.5</ele><time>2026-03-29T15:24:49.993Z</time></trkpt><trkpt lat="42.41491046580186" lon="11.384959459641207"><ele>5.0</ele><time>2026-03-29T15:24:50.993Z</time></trkpt><trkpt lat="42.414910426886514" lon="11.385273132310733"><ele>5.0</ele><time>2026-03-29T15:24:51.993Z</time></trkpt><trkpt lat="42.41491146488225" lon="11.385591389706997"><ele>5.0</ele><time>2026-03-29T15:24:52.992Z</time></trkpt><trkpt lat="42.414904672672094" lon="11.38591512205106"><ele>5.0</ele><time>2026-03-29T15:24:53.992Z</time></trkpt><trkpt lat="42.41490112791797" lon="11.386239639426076"><ele>5.0</ele><time>2026-03-29T15:24:54.992Z</time></trkpt><trkpt lat="42.414898378699974" lon="11.386568665013387"><ele>4.5</ele><time>2026-03-29T15:24:55.992Z</time></trkpt><trkpt lat="42.414893534485124" lon="11.386899825114053"><ele>4.0</ele><time>2026-03-29T15:24:56.992Z</time></trkpt><trkpt lat="42.41488824416961" lon="11.387234136532792"><ele>4.0</ele><time>2026-03-29T15:24:57.992Z</time></trkpt><trkpt lat="42.41488462148077" lon="11.387572096094269"><ele>4.0</ele><time>2026-03-29T15:24:58.992Z</time></trkpt><trkpt lat="42.41488126241478" lon="11.387913625892068"><ele>4.5</ele><time>2026-03-29T15:24:59.992Z</time></trkpt><trkpt lat="42.414878644245896" lon="11.388251613166108"><ele>5.0</ele><time>2026-03-29T15:25:00.992Z</time></trkpt><trkpt lat="42.414876457685" lon="11.388600086519366"><ele>4.5</ele><time>2026-03-29T15:25:01.992Z</time></trkpt><trkpt lat="42.4148718293833" lon="11.38895004221865"><ele>4.0</ele><time>2026-03-29T15:25:02.992Z</time></trkpt><trkpt lat="42.41486740767901" lon="11.389306543296614"><ele>4.0</ele><time>2026-03-29T15:25:03.992Z</time></trkpt><trkpt lat="42.41486693146522" lon="11.389661214388795"><ele>4.0</ele><time>2026-03-29T15:25:04.992Z</time></trkpt><trkpt lat="42.414862513624804" lon="11.390014854408275"><ele>4.0</ele><time>2026-03-29T15:25:05.992Z</time></trkpt><trkpt lat="42.414854980993134" lon="11.39037298391325"><ele>4.0</ele><time>2026-03-29T15:25:06.992Z</time></trkpt><trkpt lat="42.4148488750777" lon="11.39073126659617"><ele>3.5</ele><time>2026-03-29T15:25:07.992Z</time></trkpt><trkpt lat="42.41484317140505" lon="11.391091219473076"><ele>3.0</ele><time>2026-03-29T15:25:08.992Z</time></trkpt><trkpt lat="42.414840222758826" lon="11.391453423624334"><ele>3.0</ele><time>2026-03-29T15:25:09.992Z</time></trkpt><trkpt lat="42.41483578957284" lon="11.391807218069673"><ele>3.0</ele><time>2026-03-29T15:25:10.992Z</time></trkpt><trkpt lat="42.41482911262002" lon="11.39215806683445"><ele>3.5</ele><time>2026-03-29T15:25:11.992Z</time></trkpt><trkpt lat="42.41482770018353" lon="11.392509411308545"><ele>4.0</ele><time>2026-03-29T15:25:12.992Z</time></trkpt><trkpt lat="42.41482622114338" lon="11.392863601238169"><ele>4.0</ele><time>2026-03-29T15:25:13.992Z</time></trkpt><trkpt lat="42.41482218094954" lon="11.39321665251892"><ele>4.0</ele><time>2026-03-29T15:25:14.992Z</time></trkpt><trkpt lat="42.41481954224608" lon="11.393571904258039"><ele>4.0</ele><time>2026-03-29T15:25:15.992Z</time></trkpt><trkpt lat="42.414818468617206" lon="11.393933011601"><ele>4.0</ele><time>2026-03-29T15:25:16.992Z</time></trkpt><trkpt lat="42.414814681383085" lon="11.394290483700749"><ele>4.0</ele><time>2026-03-29T15:25:17.992Z</time></trkpt><trkpt lat="42.4148086953591" lon="11.394649843291477"><ele>4.0</ele><time>2026-03-29T15:25:18.992Z</time></trkpt><trkpt lat="42.41480422052554" lon="11.395009013541904"><ele>4.0</ele><time>2026-03-29T15:25:19.992Z</time></trkpt><trkpt lat="42.41480561762342" lon="11.39536650355303"><ele>4.0</ele><time>2026-03-29T15:25:20.992Z</time></trkpt><trkpt lat="42.414802278253454" lon="11.395728718250231"><ele>3.5</ele><time>2026-03-29T15:25:21.992Z</time></trkpt><trkpt lat="42.414797530180905" lon="11.396087926835257"><ele>3.0</ele><time>2026-03-29T15:25:22.992Z</time></trkpt><trkpt lat="42.41479297014982" lon="11.39644748428452"><ele>3.0</ele><time>2026-03-29T15:25:23.992Z</time></trkpt><trkpt lat="42.41479248036891" lon="11.3968019080498"><ele>3.0</ele><time>2026-03-29T15:25:24.992Z</time></trkpt><trkpt lat="42.41479125284549" lon="11.39715957292093"><ele>2.5</ele><time>2026-03-29T15:25:25.992Z</time></trkpt><trkpt lat="42.41478685884647" lon="11.397519647501674"><ele>2.0</ele><time>2026-03-29T15:25:26.992Z</time></trkpt><trkpt lat="42.4147858623635" lon="11.397880710942852"><ele>2.5</ele><time>2026-03-29T15:25:27.992Z</time></trkpt><trkpt lat="42.41478710983874" lon="11.398236547682494"><ele>3.0</ele><time>2026-03-29T15:25:28.992Z</time></trkpt><trkpt lat="42.414780797897386" lon="11.398591495542767"><ele>3.0</ele><time>2026-03-29T15:25:29.992Z</time></trkpt><trkpt lat="42.414774460303015" lon="11.39894499268248"><ele>3.0</ele><time>2026-03-29T15:25:30.992Z</time></trkpt><trkpt lat="42.4147731108748" lon="11.399291810653898"><ele>3.0</ele><time>2026-03-29T15:25:31.992Z</time></trkpt><trkpt lat="42.41476903305729" lon="11.399642660108697"><ele>3.0</ele><time>2026-03-29T15:25:32.992Z</time></trkpt><trkpt lat="42.41476253160229" lon="11.399982791150311"><ele>3.0</ele><time>2026-03-29T15:25:33.992Z</time></trkpt><trkpt lat="42.414758446771074" lon="11.400319894510762"><ele>3.0</ele><time>2026-03-29T15:25:34.992Z</time></trkpt><trkpt lat="42.414755503321" lon="11.400657119154841"><ele>3.0</ele><time>2026-03-29T15:25:35.992Z</time></trkpt><trkpt lat="42.41475983966496" lon="11.400985331378067"><ele>3.0</ele><time>2026-03-29T15:25:36.992Z</time></trkpt><trkpt lat="42.41475682361125" lon="11.401317508012871"><ele>3.0</ele><time>2026-03-29T15:25:37.992Z</time></trkpt><trkpt lat="42.414752309698756" lon="11.401647328422825"><ele>3.0</ele><time>2026-03-29T15:25:38.992Z</time></trkpt><trkpt lat="42.41475485811069" lon="11.40196764993908"><ele>3.5</ele><time>2026-03-29T15:25:39.992Z</time></trkpt><trkpt lat="42.414753306178" lon="11.402290867249956"><ele>4.0</ele><time>2026-03-29T15:25:40.992Z</time></trkpt><trkpt lat="42.41475031582422" lon="11.402613259616102"><ele>4.0</ele><time>2026-03-29T15:25:41.992Z</time></trkpt><trkpt lat="42.41474566552002" lon="11.402930625721392"><ele>4.0</ele><time>2026-03-29T15:25:42.992Z</time></trkpt><trkpt lat="42.41474297293553" lon="11.403244642357686"><ele>4.5</ele><time>2026-03-29T15:25:43.992Z</time></trkpt><trkpt lat="42.41474338833914" lon="11.403560154566591"><ele>5.0</ele><time>2026-03-29T15:25:44.992Z</time></trkpt><trkpt lat="42.414745690115325" lon="11.403870171384037"><ele>4.0</ele><time>2026-03-29T15:25:45.992Z</time></trkpt><trkpt lat="42.414739198919136" lon="11.404176737114156"><ele>3.0</ele><time>2026-03-29T15:25:46.992Z</time></trkpt><trkpt lat="42.41473093292131" lon="11.40448490074645"><ele>3.0</ele><time>2026-03-29T15:25:47.992Z</time></trkpt><trkpt lat="42.414729072691436" lon="11.404792550615854"><ele>3.0</ele><time>2026-03-29T15:25:48.992Z</time></trkpt><trkpt lat="42.41472404074208" lon="11.405100648002048"><ele>3.0</ele><time>2026-03-29T15:25:49.992Z</time></trkpt><trkpt lat="42.41472293898955" lon="11.40540999085532"><ele>3.0</ele><time>2026-03-29T15:25:50.992Z</time></trkpt><trkpt lat="42.41472109776467" lon="11.405718257989111"><ele>3.5</ele><time>2026-03-29T15:25:51.992Z</time></trkpt><trkpt lat="42.41472158296881" lon="11.406023217819865"><ele>4.0</ele><time>2026-03-29T15:25:52.992Z</time></trkpt><trkpt lat="42.41471716017216" lon="11.406327729966357"><ele>4.333333333333333</ele><time>2026-03-29T15:25:53.992Z</time></trkpt><trkpt lat="42.41470972022948" lon="11.406613881044226"><ele>4.666666666666667</ele><time>2026-03-29T15:25:54.992Z</time></trkpt><trkpt lat="42.41469577082994" lon="11.406890652935065"><ele>5.0</ele><time>2026-03-29T15:25:55.992Z</time></trkpt><trkpt lat="42.414683261044736" lon="11.407161017817023"><ele>5.0</ele><time>2026-03-29T15:25:56.992Z</time></trkpt><trkpt lat="42.4146644194405" lon="11.407427041291607"><ele>5.0</ele><time>2026-03-29T15:25:57.992Z</time></trkpt><trkpt lat="42.414640124345226" lon="11.407688664628287"><ele>5.0</ele><time>2026-03-29T15:25:58.992Z</time></trkpt><trkpt lat="42.41462097252709" lon="11.407950810615498"><ele>6.0</ele><time>2026-03-29T15:25:59.992Z</time></trkpt><trkpt lat="42.414607009798374" lon="11.408214865744398"><ele>7.0</ele><time>2026-03-29T15:26:00.992Z</time></trkpt><trkpt lat="42.4146010389991" lon="11.408474046056172"><ele>8.0</ele><time>2026-03-29T15:26:01.992Z</time></trkpt><trkpt lat="42.414598816490525" lon="11.408729856709005"><ele>9.0</ele><time>2026-03-29T15:26:02.992Z</time></trkpt><trkpt lat="42.41459980800433" lon="11.408992053573838"><ele>10.0</ele><time>2026-03-29T15:26:03.992Z</time></trkpt><trkpt lat="42.41460003279811" lon="11.409248226573162"><ele>11.0</ele><time>2026-03-29T15:26:04.992Z</time></trkpt><trkpt lat="42.41459320041362" lon="11.40949882582128"><ele>10.333333333333332</ele><time>2026-03-29T15:26:05.992Z</time></trkpt><trkpt lat="42.41458655319461" lon="11.4097500690365"><ele>9.666666666666666</ele><time>2026-03-29T15:26:06.992Z</time></trkpt><trkpt lat="42.414593122542" lon="11.409992064425943"><ele>9.0</ele><time>2026-03-29T15:26:07.992Z</time></trkpt><trkpt lat="42.41458680872102" lon="11.410249529185219"><ele>8.333333333333334</ele><time>2026-03-29T15:26:08.992Z</time></trkpt><trkpt lat="42.41458710530213" lon="11.410502957607335"><ele>7.666666666666667</ele><time>2026-03-29T15:26:09.992Z</time></trkpt><trkpt lat="42.414588612823884" lon="11.410748968870152"><ele>7.0</ele><time>2026-03-29T15:26:10.992Z</time></trkpt><trkpt lat="42.41458387795257" lon="11.41100285371829"><ele>7.0</ele><time>2026-03-29T15:26:11.992Z</time></trkpt><trkpt lat="42.414578219798706" lon="11.411255941096806"><ele>7.0</ele><time>2026-03-29T15:26:12.992Z</time></trkpt><trkpt lat="42.41457867600181" lon="11.411517361332987"><ele>7.0</ele><time>2026-03-29T15:26:13.992Z</time></trkpt><trkpt lat="42.41457922762839" lon="11.411773891328103"><ele>6.0</ele><time>2026-03-29T15:26:14.992Z</time></trkpt><trkpt lat="42.41458309871027" lon="11.41203123121629"><ele>5.0</ele><time>2026-03-29T15:26:15.992Z</time></trkpt><trkpt lat="42.41458478850162" lon="11.412288721410512"><ele>4.0</ele><time>2026-03-29T15:26:16.992Z</time></trkpt><trkpt lat="42.41458885054709" lon="11.412544704493211"><ele>4.0</ele><time>2026-03-29T15:26:17.992Z</time></trkpt><trkpt lat="42.414596533815704" lon="11.412799317937756"><ele>4.0</ele><time>2026-03-29T15:26:18.992Z</time></trkpt><trkpt lat="42.414612005286486" lon="11.413062500355165"><ele>4.0</ele><time>2026-03-29T15:26:19.992Z</time></trkpt><trkpt lat="42.41462530990587" lon="11.413331735738952"><ele>5.0</ele><time>2026-03-29T15:26:20.992Z</time></trkpt><trkpt lat="42.41463641477758" lon="11.413603036997145"><ele>6.0</ele><time>2026-03-29T15:26:21.992Z</time></trkpt><trkpt lat="42.414649771388966" lon="11.413880984175323"><ele>7.0</ele><time>2026-03-29T15:26:22.992Z</time></trkpt><trkpt lat="42.4146507556059" lon="11.414165217548556"><ele>7.0</ele><time>2026-03-29T15:26:23.992Z</time></trkpt><trkpt lat="42.41465007024567" lon="11.414449271372979"><ele>7.0</ele><time>2026-03-29T15:26:24.992Z</time></trkpt><trkpt lat="42.41464906928563" lon="11.414729801149786"><ele>7.0</ele><time>2026-03-29T15:26:25.992Z</time></trkpt><trkpt lat="42.414652594458204" lon="11.415009942747671"><ele>8.0</ele><time>2026-03-29T15:26:26.992Z</time></trkpt><trkpt lat="42.414651395223444" lon="11.415290978237081"><ele>9.0</ele><time>2026-03-29T15:26:27.992Z</time></trkpt><trkpt lat="42.41465070692498" lon="11.415578761600942"><ele>10.0</ele><time>2026-03-29T15:26:28.992Z</time></trkpt><trkpt lat="42.41464907918194" lon="11.41586470165276"><ele>10.333333333333334</ele><time>2026-03-29T15:26:29.992Z</time></trkpt><trkpt lat="42.414645527462504" lon="11.416149524850246"><ele>10.666666666666666</ele><time>2026-03-29T15:26:30.992Z</time></trkpt><trkpt lat="42.414635815840064" lon="11.416447924624656"><ele>11.0</ele><time>2026-03-29T15:26:31.992Z</time></trkpt><trkpt lat="42.41463350924244" lon="11.416727330494778"><ele>11.0</ele><time>2026-03-29T15:26:32.992Z</time></trkpt><trkpt lat="42.41463488226683" lon="11.417015197888494"><ele>11.0</ele><time>2026-03-29T15:26:33.992Z</time></trkpt><trkpt lat="42.414629375624756" lon="11.417310280473396"><ele>11.0</ele><time>2026-03-29T15:26:34.992Z</time></trkpt><trkpt lat="42.41462210243257" lon="11.417604189101137"><ele>10.666666666666666</ele><time>2026-03-29T15:26:35.992Z</time></trkpt><trkpt lat="42.41461761191503" lon="11.417898998717805"><ele>10.333333333333334</ele><time>2026-03-29T15:26:36.992Z</time></trkpt><trkpt lat="42.414614148407644" lon="11.418189115352956"><ele>10.0</ele><time>2026-03-29T15:26:37.991Z</time></trkpt><trkpt lat="42.41460354448653" lon="11.41847938635774"><ele>10.0</ele><time>2026-03-29T15:26:38.991Z</time></trkpt><trkpt lat="42.41459791351173" lon="11.418770617032468"><ele>10.0</ele><time>2026-03-29T15:26:39.991Z</time></trkpt><trkpt lat="42.414598649305155" lon="11.41906543047551"><ele>10.0</ele><time>2026-03-29T15:26:40.991Z</time></trkpt><trkpt lat="42.414593128705924" lon="11.419360184010694"><ele>10.0</ele><time>2026-03-29T15:26:41.991Z</time></trkpt><trkpt lat="42.41458830540541" lon="11.419648908001646"><ele>10.0</ele><time>2026-03-29T15:26:42.991Z</time></trkpt><trkpt lat="42.414585709449575" lon="11.419949190160118"><ele>10.0</ele><time>2026-03-29T15:26:43.991Z</time></trkpt><trkpt lat="42.41457157427819" lon="11.420254500807028"><ele>10.333333333333334</ele><time>2026-03-29T15:26:44.991Z</time></trkpt><trkpt lat="42.414568633811626" lon="11.420560809520387"><ele>10.666666666666666</ele><time>2026-03-29T15:26:45.991Z</time></trkpt><trkpt lat="42.414578343974355" lon="11.420858973066583"><ele>11.0</ele><time>2026-03-29T15:26:46.991Z</time></trkpt><trkpt lat="42.414586051495654" lon="11.421165465577797"><ele>10.0</ele><time>2026-03-29T15:26:47.991Z</time></trkpt><trkpt lat="42.414583715536736" lon="11.42147829214842"><ele>9.0</ele><time>2026-03-29T15:26:48.991Z</time></trkpt><trkpt lat="42.41458466225059" lon="11.421783089295397"><ele>9.0</ele><time>2026-03-29T15:26:49.991Z</time></trkpt><trkpt lat="42.41457498567062" lon="11.42209684411083"><ele>9.0</ele><time>2026-03-29T15:26:50.991Z</time></trkpt><trkpt lat="42.41457464812162" lon="11.422408777964385"><ele>9.0</ele><time>2026-03-29T15:26:51.991Z</time></trkpt><trkpt lat="42.414572987433594" lon="11.422721025994333"><ele>9.0</ele><time>2026-03-29T15:26:52.991Z</time></trkpt><trkpt lat="42.41457144727169" lon="11.423023821656802"><ele>9.333333333333334</ele><time>2026-03-29T15:26:53.991Z</time></trkpt><trkpt lat="42.414566804837825" lon="11.42332702623254"><ele>9.666666666666668</ele><time>2026-03-29T15:26:54.991Z</time></trkpt><trkpt lat="42.4145625233709" lon="11.423629292026902"><ele>10.0</ele><time>2026-03-29T15:26:55.991Z</time></trkpt><trkpt lat="42.41455873576336" lon="11.42392747606714"><ele>10.333333333333334</ele><time>2026-03-29T15:26:56.991Z</time></trkpt><trkpt lat="42.414561828970264" lon="11.424225026731154"><ele>10.666666666666666</ele><time>2026-03-29T15:26:57.991Z</time></trkpt><trkpt lat="42.41455640743228" lon="11.424525096311081"><ele>11.0</ele><time>2026-03-29T15:26:58.991Z</time></trkpt><trkpt lat="42.41455214476472" lon="11.424829983540809"><ele>11.0</ele><time>2026-03-29T15:26:59.991Z</time></trkpt><trkpt lat="42.414555899624325" lon="11.425130419880073"><ele>11.0</ele><time>2026-03-29T15:27:00.991Z</time></trkpt><trkpt lat="42.414556079947666" lon="11.425426288315698"><ele>11.0</ele><time>2026-03-29T15:27:01.991Z</time></trkpt><trkpt lat="42.41455320118547" lon="11.425724697213862"><ele>10.5</ele><time>2026-03-29T15:27:02.991Z</time></trkpt><trkpt lat="42.414545738768126" lon="11.426028483692383"><ele>10.0</ele><time>2026-03-29T15:27:03.991Z</time></trkpt><trkpt lat="42.4145433395509" lon="11.426337617930114"><ele>10.0</ele><time>2026-03-29T15:27:04.991Z</time></trkpt><trkpt lat="42.414542519500785" lon="11.426646457059107"><ele>10.0</ele><time>2026-03-29T15:27:05.991Z</time></trkpt><trkpt lat="42.414539337902994" lon="11.426961124695085"><ele>11.5</ele><time>2026-03-29T15:27:06.991Z</time></trkpt><trkpt lat="42.414537540287306" lon="11.427272402842817"><ele>13.0</ele><time>2026-03-29T15:27:07.991Z</time></trkpt><trkpt lat="42.41453169636874" lon="11.427579260377906"><ele>13.0</ele><time>2026-03-29T15:27:08.991Z</time></trkpt><trkpt lat="42.414525324472805" lon="11.4278889976656"><ele>13.0</ele><time>2026-03-29T15:27:09.991Z</time></trkpt><trkpt lat="42.41452296766899" lon="11.42820569596032"><ele>13.0</ele><time>2026-03-29T15:27:10.991Z</time></trkpt><trkpt lat="42.4145302219757" lon="11.428508121517373"><ele>13.0</ele><time>2026-03-29T15:27:11.991Z</time></trkpt><trkpt lat="42.4145278086324" lon="11.428823105667803"><ele>13.0</ele><time>2026-03-29T15:27:12.991Z</time></trkpt><trkpt lat="42.41451779156753" lon="11.429137155106401"><ele>13.0</ele><time>2026-03-29T15:27:13.991Z</time></trkpt><trkpt lat="42.41450963895623" lon="11.429449405868237"><ele>13.333333333333332</ele><time>2026-03-29T15:27:14.991Z</time></trkpt><trkpt lat="42.41450807150183" lon="11.429739224980517"><ele>13.666666666666668</ele><time>2026-03-29T15:27:15.991Z</time></trkpt><trkpt lat="42.41450808908365" lon="11.43001100298667"><ele>14.0</ele><time>2026-03-29T15:27:16.991Z</time></trkpt><trkpt lat="42.414509269948944" lon="11.430265439469181"><ele>13.333333333333334</ele><time>2026-03-29T15:27:17.991Z</time></trkpt><trkpt lat="42.41450489362114" lon="11.430513710536305"><ele>12.666666666666668</ele><time>2026-03-29T15:27:18.991Z</time></trkpt><trkpt lat="42.41449961640147" lon="11.430754552858533"><ele>12.0</ele><time>2026-03-29T15:27:19.991Z</time></trkpt><trkpt lat="42.414495783048814" lon="11.430998430948513"><ele>12.0</ele><time>2026-03-29T15:27:20.991Z</time></trkpt><trkpt lat="42.414495234413515" lon="11.431235538625025"><ele>12.0</ele><time>2026-03-29T15:27:21.991Z</time></trkpt><trkpt lat="42.41448820701101" lon="11.431472538834766"><ele>12.0</ele><time>2026-03-29T15:27:22.991Z</time></trkpt><trkpt lat="42.41448317365268" lon="11.431713949739676"><ele>12.666666666666668</ele><time>2026-03-29T15:27:23.991Z</time></trkpt><trkpt lat="42.41447914566462" lon="11.431954125526577"><ele>13.333333333333334</ele><time>2026-03-29T15:27:24.991Z</time></trkpt><trkpt lat="42.41447994407852" lon="11.432202413647758"><ele>14.0</ele><time>2026-03-29T15:27:25.991Z</time></trkpt><trkpt lat="42.414476706431934" lon="11.432450998753458"><ele>14.0</ele><time>2026-03-29T15:27:26.991Z</time></trkpt><trkpt lat="42.41447859655348" lon="11.43270158364976"><ele>14.0</ele><time>2026-03-29T15:27:27.991Z</time></trkpt><trkpt lat="42.414475635921534" lon="11.432959907404046"><ele>14.0</ele><time>2026-03-29T15:27:28.991Z</time></trkpt><trkpt lat="42.41447225220983" lon="11.433217143904697"><ele>14.0</ele><time>2026-03-29T15:27:29.991Z</time></trkpt><trkpt lat="42.41447330522908" lon="11.43347987768158"><ele>14.0</ele><time>2026-03-29T15:27:30.991Z</time></trkpt><trkpt lat="42.41447483642919" lon="11.433746254175983"><ele>14.0</ele><time>2026-03-29T15:27:31.991Z</time></trkpt><trkpt lat="42.4144680354725" lon="11.434021149107991"><ele>13.333333333333334</ele><time>2026-03-29T15:27:32.991Z</time></trkpt><trkpt lat="42.41446211215204" lon="11.434305738609678"><ele>12.666666666666668</ele><time>2026-03-29T15:27:33.991Z</time></trkpt><trkpt lat="42.414456603041664" lon="11.434603759413122"><ele>12.0</ele><time>2026-03-29T15:27:34.991Z</time></trkpt><trkpt lat="42.414453497673286" lon="11.434915141992416"><ele>10.5</ele><time>2026-03-29T15:27:35.991Z</time></trkpt><trkpt lat="42.41444812333531" lon="11.435235803988787"><ele>9.0</ele><time>2026-03-29T15:27:36.991Z</time></trkpt><trkpt lat="42.414447241837415" lon="11.435561009538548"><ele>7.5</ele><time>2026-03-29T15:27:37.991Z</time></trkpt><trkpt lat="42.41445162864988" lon="11.435886126770253"><ele>6.0</ele><time>2026-03-29T15:27:38.991Z</time></trkpt><trkpt lat="42.41445306261627" lon="11.43621559334672"><ele>7.0</ele><time>2026-03-29T15:27:39.991Z</time></trkpt><trkpt lat="42.41445011868319" lon="11.436547192472103"><ele>8.0</ele><time>2026-03-29T15:27:40.991Z</time></trkpt><trkpt lat="42.41444822030401" lon="11.436879731245742"><ele>10.5</ele><time>2026-03-29T15:27:41.991Z</time></trkpt><trkpt lat="42.41444433994759" lon="11.437212633246617"><ele>13.0</ele><time>2026-03-29T15:27:42.991Z</time></trkpt><trkpt lat="42.41444227772644" lon="11.43754299713727"><ele>13.0</ele><time>2026-03-29T15:27:43.991Z</time></trkpt><trkpt lat="42.41444047961614" lon="11.437876433287848"><ele>13.0</ele><time>2026-03-29T15:27:44.991Z</time></trkpt><trkpt lat="42.41443998028899" lon="11.438203279189562"><ele>13.666666666666666</ele><time>2026-03-29T15:27:45.991Z</time></trkpt><trkpt lat="42.41443552321771" lon="11.438518154682713"><ele>14.333333333333332</ele><time>2026-03-29T15:27:46.991Z</time></trkpt><trkpt lat="42.41443495813473" lon="11.438811794350118"><ele>15.0</ele><time>2026-03-29T15:27:47.991Z</time></trkpt><trkpt lat="42.41443104079365" lon="11.439097226174152"><ele>15.666666666666668</ele><time>2026-03-29T15:27:48.991Z</time></trkpt><trkpt lat="42.4144283701043" lon="11.439378301575902"><ele>16.333333333333336</ele><time>2026-03-29T15:27:49.991Z</time></trkpt><trkpt lat="42.414423779662016" lon="11.43964997603279"><ele>17.0</ele><time>2026-03-29T15:27:50.991Z</time></trkpt><trkpt lat="42.41441179349457" lon="11.439914396313247"><ele>17.333333333333336</ele><time>2026-03-29T15:27:51.991Z</time></trkpt><trkpt lat="42.41440673006784" lon="11.44017219288573"><ele>17.666666666666668</ele><time>2026-03-29T15:27:52.991Z</time></trkpt><trkpt lat="42.4144046870873" lon="11.440423501308906"><ele>18.0</ele><time>2026-03-29T15:27:53.991Z</time></trkpt><trkpt lat="42.41440606485996" lon="11.44066915483225"><ele>18.333333333333332</ele><time>2026-03-29T15:27:54.991Z</time></trkpt><trkpt lat="42.41440679964419" lon="11.440911063782934"><ele>18.666666666666664</ele><time>2026-03-29T15:27:55.991Z</time></trkpt><trkpt lat="42.414405624278615" lon="11.44116016048007"><ele>19.0</ele><time>2026-03-29T15:27:56.991Z</time></trkpt><trkpt lat="42.41440418130684" lon="11.441419292589693"><ele>19.0</ele><time>2026-03-29T15:27:57.991Z</time></trkpt><trkpt lat="42.414397436287665" lon="11.441678152571145"><ele>19.0</ele><time>2026-03-29T15:27:58.991Z</time></trkpt><trkpt lat="42.41439590490176" lon="11.441933994410665"><ele>19.0</ele><time>2026-03-29T15:27:59.991Z</time></trkpt><trkpt lat="42.41439257141554" lon="11.442179075417222"><ele>19.0</ele><time>2026-03-29T15:28:00.991Z</time></trkpt><trkpt lat="42.41440269256709" lon="11.44242615630062"><ele>19.0</ele><time>2026-03-29T15:28:01.991Z</time></trkpt><trkpt lat="42.414403819441866" lon="11.442672825154023"><ele>19.0</ele><time>2026-03-29T15:28:02.991Z</time></trkpt><trkpt lat="42.41439766591316" lon="11.442911681164473"><ele>19.333333333333332</ele><time>2026-03-29T15:28:03.991Z</time></trkpt><trkpt lat="42.41439784937581" lon="11.443161339739467"><ele>19.666666666666668</ele><time>2026-03-29T15:28:04.991Z</time></trkpt><trkpt lat="42.414394238994696" lon="11.44340667068575"><ele>20.0</ele><time>2026-03-29T15:28:05.991Z</time></trkpt><trkpt lat="42.414398808704" lon="11.44365156532167"><ele>19.666666666666668</ele><time>2026-03-29T15:28:06.991Z</time></trkpt><trkpt lat="42.41439240720137" lon="11.44389309048419"><ele>19.333333333333332</ele><time>2026-03-29T15:28:07.991Z</time></trkpt><trkpt lat="42.414394458283205" lon="11.444133796425"><ele>19.0</ele><time>2026-03-29T15:28:08.991Z</time></trkpt><trkpt lat="42.41439237798271" lon="11.444380271869967"><ele>19.0</ele><time>2026-03-29T15:28:09.991Z</time></trkpt><trkpt lat="42.41439595535988" lon="11.444627768801212"><ele>19.0</ele><time>2026-03-29T15:28:10.991Z</time></trkpt><trkpt lat="42.4143910414075" lon="11.444877340078188"><ele>19.0</ele><time>2026-03-29T15:28:11.991Z</time></trkpt><trkpt lat="42.41438627588806" lon="11.445132801168045"><ele>19.666666666666664</ele><time>2026-03-29T15:28:12.991Z</time></trkpt><trkpt lat="42.41438831023204" lon="11.445382409808225"><ele>20.333333333333332</ele><time>2026-03-29T15:28:13.991Z</time></trkpt><trkpt lat="42.41438703110549" lon="11.445628413246148"><ele>21.0</ele><time>2026-03-29T15:28:14.991Z</time></trkpt><trkpt lat="42.41438284131029" lon="11.445876431855437"><ele>22.0</ele><time>2026-03-29T15:28:15.991Z</time></trkpt><trkpt lat="42.41438495257905" lon="11.446123541471733"><ele>23.0</ele><time>2026-03-29T15:28:16.991Z</time></trkpt><trkpt lat="42.41438120144786" lon="11.446372388510788"><ele>24.0</ele><time>2026-03-29T15:28:17.991Z</time></trkpt><trkpt lat="42.41437754698872" lon="11.446620649926409"><ele>24.0</ele><time>2026-03-29T15:28:18.991Z</time></trkpt><trkpt lat="42.414374539656734" lon="11.446870146951383"><ele>24.0</ele><time>2026-03-29T15:28:19.991Z</time></trkpt><trkpt lat="42.414368371966056" lon="11.447122884667158"><ele>24.0</ele><time>2026-03-29T15:28:20.991Z</time></trkpt><trkpt lat="42.41436425039539" lon="11.447372024046922"><ele>22.666666666666668</ele><time>2026-03-29T15:28:21.991Z</time></trkpt><trkpt lat="42.4143583352199" lon="11.447626259925453"><ele>21.333333333333336</ele><time>2026-03-29T15:28:22.99Z</time></trkpt><trkpt lat="42.414359001805146" lon="11.44787462194208"><ele>20.0</ele><time>2026-03-29T15:28:23.99Z</time></trkpt><trkpt lat="42.414357577600825" lon="11.448119461790256"><ele>20.0</ele><time>2026-03-29T15:28:24.99Z</time></trkpt><trkpt lat="42.414358436065854" lon="11.448375404347527"><ele>20.0</ele><time>2026-03-29T15:28:25.99Z</time></trkpt><trkpt lat="42.41436001892028" lon="11.44863980591381"><ele>20.0</ele><time>2026-03-29T15:28:26.99Z</time></trkpt><trkpt lat="42.414362670387014" lon="11.448902438319267"><ele>19.333333333333336</ele><time>2026-03-29T15:28:27.99Z</time></trkpt><trkpt lat="42.41435976929696" lon="11.449175847086766"><ele>18.666666666666668</ele><time>2026-03-29T15:28:28.99Z</time></trkpt><trkpt lat="42.414358437210225" lon="11.449439307410882"><ele>18.0</ele><time>2026-03-29T15:28:29.99Z</time></trkpt><trkpt lat="42.414356154639506" lon="11.449717607967992"><ele>17.333333333333332</ele><time>2026-03-29T15:28:30.99Z</time></trkpt><trkpt lat="42.4143556062308" lon="11.449997357829307"><ele>16.666666666666664</ele><time>2026-03-29T15:28:31.99Z</time></trkpt><trkpt lat="42.41435472026159" lon="11.45028011081958"><ele>16.0</ele><time>2026-03-29T15:28:32.99Z</time></trkpt><trkpt lat="42.41433559694993" lon="11.450564472034385"><ele>15.666666666666666</ele><time>2026-03-29T15:28:33.99Z</time></trkpt><trkpt lat="42.41433276642622" lon="11.450853164698268"><ele>15.333333333333332</ele><time>2026-03-29T15:28:34.99Z</time></trkpt><trkpt lat="42.41433000537496" lon="11.451134772247595"><ele>15.0</ele><time>2026-03-29T15:28:35.99Z</time></trkpt><trkpt lat="42.41432724483504" lon="11.45141536017441"><ele>15.0</ele><time>2026-03-29T15:28:36.99Z</time></trkpt><trkpt lat="42.41432414698118" lon="11.4517020354455"><ele>15.0</ele><time>2026-03-29T15:28:37.99Z</time></trkpt><trkpt lat="42.414336104057284" lon="11.451984811088998"><ele>15.0</ele><time>2026-03-29T15:28:38.99Z</time></trkpt><trkpt lat="42.41433037017927" lon="11.452269509503415"><ele>16.333333333333332</ele><time>2026-03-29T15:28:39.99Z</time></trkpt><trkpt lat="42.41432912451319" lon="11.45255507672809"><ele>17.666666666666664</ele><time>2026-03-29T15:28:40.99Z</time></trkpt><trkpt lat="42.41431209852971" lon="11.452836071614511"><ele>19.0</ele><time>2026-03-29T15:28:41.99Z</time></trkpt><trkpt lat="42.414309439394046" lon="11.453124348100681"><ele>20.0</ele><time>2026-03-29T15:28:42.99Z</time></trkpt><trkpt lat="42.41430794613733" lon="11.453408754698652"><ele>21.0</ele><time>2026-03-29T15:28:43.99Z</time></trkpt><trkpt lat="42.414318356222594" lon="11.453698669559229"><ele>22.0</ele><time>2026-03-29T15:28:44.99Z</time></trkpt><trkpt lat="42.41430803074199" lon="11.453994712014289"><ele>22.333333333333332</ele><time>2026-03-29T15:28:45.99Z</time></trkpt><trkpt lat="42.41431137980555" lon="11.454290188052077"><ele>22.666666666666668</ele><time>2026-03-29T15:28:46.99Z</time></trkpt><trkpt lat="42.41429980176653" lon="11.454575412385214"><ele>23.0</ele><time>2026-03-29T15:28:47.99Z</time></trkpt><trkpt lat="42.4143123248745" lon="11.45487175252487"><ele>23.333333333333336</ele><time>2026-03-29T15:28:48.99Z</time></trkpt><trkpt lat="42.414302704493956" lon="11.45515905946842"><ele>23.666666666666668</ele><time>2026-03-29T15:28:49.99Z</time></trkpt><trkpt lat="42.41430051005406" lon="11.455441921145288"><ele>24.0</ele><time>2026-03-29T15:28:50.99Z</time></trkpt><trkpt lat="42.414288207613836" lon="11.45572417033589"><ele>24.0</ele><time>2026-03-29T15:28:51.99Z</time></trkpt><trkpt lat="42.41429038641668" lon="11.45600307000978"><ele>24.0</ele><time>2026-03-29T15:28:52.99Z</time></trkpt><trkpt lat="42.41429130616628" lon="11.45628125850011"><ele>24.0</ele><time>2026-03-29T15:28:53.99Z</time></trkpt><trkpt lat="42.41429320606882" lon="11.456553668415747"><ele>24.0</ele><time>2026-03-29T15:28:54.99Z</time></trkpt><trkpt lat="42.41429156528212" lon="11.456826368421497"><ele>24.0</ele><time>2026-03-29T15:28:55.99Z</time></trkpt><trkpt lat="42.414281892138284" lon="11.457092052089573"><ele>24.0</ele><time>2026-03-29T15:28:56.99Z</time></trkpt><trkpt lat="42.41426307286448" lon="11.457357066203457"><ele>23.0</ele><time>2026-03-29T15:28:57.99Z</time></trkpt><trkpt lat="42.41426405068193" lon="11.457599957277662"><ele>22.0</ele><time>2026-03-29T15:28:58.99Z</time></trkpt><trkpt lat="42.414271529450396" lon="11.457845265601044"><ele>21.0</ele><time>2026-03-29T15:28:59.99Z</time></trkpt><trkpt lat="42.414270089764265" lon="11.45808113597684"><ele>20.666666666666668</ele><time>2026-03-29T15:29:00.99Z</time></trkpt><trkpt lat="42.41427092530818" lon="11.458318481700251"><ele>20.333333333333336</ele><time>2026-03-29T15:29:01.99Z</time></trkpt><trkpt lat="42.414265381159396" lon="11.458558548167334"><ele>20.0</ele><time>2026-03-29T15:29:02.99Z</time></trkpt><trkpt lat="42.414265612853995" lon="11.458794074991344"><ele>20.666666666666668</ele><time>2026-03-29T15:29:03.99Z</time></trkpt><trkpt lat="42.41425334644923" lon="11.459038283468713"><ele>21.333333333333332</ele><time>2026-03-29T15:29:04.99Z</time></trkpt><trkpt lat="42.41424341428885" lon="11.459281408897274"><ele>22.0</ele><time>2026-03-29T15:29:05.99Z</time></trkpt><trkpt lat="42.41424241690969" lon="11.459524753954884"><ele>22.666666666666664</ele><time>2026-03-29T15:29:06.99Z</time></trkpt><trkpt lat="42.414235181123914" lon="11.45977441615867"><ele>23.333333333333332</ele><time>2026-03-29T15:29:07.99Z</time></trkpt><trkpt lat="42.414227301071925" lon="11.460032411727987"><ele>24.0</ele><time>2026-03-29T15:29:08.99Z</time></trkpt><trkpt lat="42.41421915888097" lon="11.460291657490574"><ele>23.333333333333332</ele><time>2026-03-29T15:29:09.99Z</time></trkpt><trkpt lat="42.41420461011693" lon="11.460556663035643"><ele>22.666666666666664</ele><time>2026-03-29T15:29:10.99Z</time></trkpt><trkpt lat="42.41420473383494" lon="11.460808469425064"><ele>22.0</ele><time>2026-03-29T15:29:11.99Z</time></trkpt><trkpt lat="42.41419987640264" lon="11.461064969587076"><ele>21.666666666666664</ele><time>2026-03-29T15:29:12.99Z</time></trkpt><trkpt lat="42.41419501835299" lon="11.46131745120105"><ele>21.333333333333332</ele><time>2026-03-29T15:29:13.99Z</time></trkpt><trkpt lat="42.41418780058247" lon="11.46157372893617"><ele>21.0</ele><time>2026-03-29T15:29:14.99Z</time></trkpt><trkpt lat="42.41418496087422" lon="11.461834632560652"><ele>21.0</ele><time>2026-03-29T15:29:15.99Z</time></trkpt><trkpt lat="42.41418576154235" lon="11.462084561402728"><ele>21.0</ele><time>2026-03-29T15:29:16.99Z</time></trkpt><trkpt lat="42.414181102473464" lon="11.462342801642308"><ele>21.0</ele><time>2026-03-29T15:29:17.99Z</time></trkpt><trkpt lat="42.41417489178793" lon="11.462604215895185"><ele>21.0</ele><time>2026-03-29T15:29:18.99Z</time></trkpt><trkpt lat="42.41417162263008" lon="11.46286775111658"><ele>21.0</ele><time>2026-03-29T15:29:19.99Z</time></trkpt><trkpt lat="42.41417371321525" lon="11.46312916614687"><ele>21.0</ele><time>2026-03-29T15:29:20.99Z</time></trkpt><trkpt lat="42.41417503363678" lon="11.463386647556971"><ele>21.666666666666668</ele><time>2026-03-29T15:29:21.99Z</time></trkpt><trkpt lat="42.41417155985793" lon="11.463654821501612"><ele>22.333333333333336</ele><time>2026-03-29T15:29:22.99Z</time></trkpt><trkpt lat="42.414167990223135" lon="11.463922861399057"><ele>23.0</ele><time>2026-03-29T15:29:23.99Z</time></trkpt><trkpt lat="42.41416622853667" lon="11.464191895247925"><ele>24.333333333333336</ele><time>2026-03-29T15:29:24.99Z</time></trkpt><trkpt lat="42.414173734455545" lon="11.464455471350682"><ele>25.666666666666668</ele><time>2026-03-29T15:29:25.99Z</time></trkpt><trkpt lat="42.414171221999474" lon="11.464732615377049"><ele>27.0</ele><time>2026-03-29T15:29:26.99Z</time></trkpt><trkpt lat="42.414169395672445" lon="11.46500492281565"><ele>28.0</ele><time>2026-03-29T15:29:27.99Z</time></trkpt><trkpt lat="42.41416024519489" lon="11.46528052870908"><ele>29.0</ele><time>2026-03-29T15:29:28.99Z</time></trkpt><trkpt lat="42.41414685321185" lon="11.465562139423666"><ele>30.0</ele><time>2026-03-29T15:29:29.99Z</time></trkpt><trkpt lat="42.41413511260756" lon="11.465845402395232"><ele>30.0</ele><time>2026-03-29T15:29:30.99Z</time></trkpt><trkpt lat="42.41412393181715" lon="11.46613379623064"><ele>30.0</ele><time>2026-03-29T15:29:31.99Z</time></trkpt><trkpt lat="42.414118627850165" lon="11.466409473281459"><ele>30.0</ele><time>2026-03-29T15:29:32.99Z</time></trkpt><trkpt lat="42.41411520739407" lon="11.4666842926276"><ele>30.333333333333336</ele><time>2026-03-29T15:29:33.99Z</time></trkpt><trkpt lat="42.414113627687186" lon="11.466964592275428"><ele>30.666666666666668</ele><time>2026-03-29T15:29:34.99Z</time></trkpt><trkpt lat="42.4141106362156" lon="11.467246963902054"><ele>31.0</ele><time>2026-03-29T15:29:35.99Z</time></trkpt><trkpt lat="42.414124021085016" lon="11.467525366216854"><ele>31.0</ele><time>2026-03-29T15:29:36.99Z</time></trkpt><trkpt lat="42.414115328882275" lon="11.467803582086185"><ele>31.0</ele><time>2026-03-29T15:29:37.99Z</time></trkpt><trkpt lat="42.41410921554491" lon="11.468086938167241"><ele>31.0</ele><time>2026-03-29T15:29:38.99Z</time></trkpt><trkpt lat="42.41410879838308" lon="11.468370928667458"><ele>31.0</ele><time>2026-03-29T15:29:39.99Z</time></trkpt><trkpt lat="42.41410656874306" lon="11.468653141562111"><ele>31.0</ele><time>2026-03-29T15:29:40.99Z</time></trkpt><trkpt lat="42.41410104370159" lon="11.468939989986055"><ele>31.0</ele><time>2026-03-29T15:29:41.99Z</time></trkpt><trkpt lat="42.41409249351478" lon="11.469223440967893"><ele>31.333333333333336</ele><time>2026-03-29T15:29:42.99Z</time></trkpt><trkpt lat="42.4140884930022" lon="11.469510834856205"><ele>31.666666666666664</ele><time>2026-03-29T15:29:43.99Z</time></trkpt><trkpt lat="42.41407504885099" lon="11.469803282596656"><ele>32.0</ele><time>2026-03-29T15:29:44.99Z</time></trkpt><trkpt lat="42.41407584774247" lon="11.470092925873022"><ele>32.0</ele><time>2026-03-29T15:29:45.99Z</time></trkpt><trkpt lat="42.41407646100344" lon="11.47038714449453"><ele>32.0</ele><time>2026-03-29T15:29:46.99Z</time></trkpt><trkpt lat="42.41407948866173" lon="11.47068511381389"><ele>32.0</ele><time>2026-03-29T15:29:47.99Z</time></trkpt><trkpt lat="42.414080338815594" lon="11.470987471372377"><ele>30.0</ele><time>2026-03-29T15:29:48.99Z</time></trkpt><trkpt lat="42.41407851239769" lon="11.471293920079994"><ele>28.0</ele><time>2026-03-29T15:29:49.99Z</time></trkpt><trkpt lat="42.41406909719827" lon="11.471605697887442"><ele>28.0</ele><time>2026-03-29T15:29:50.99Z</time></trkpt><trkpt lat="42.41404769097366" lon="11.47191889356547"><ele>28.0</ele><time>2026-03-29T15:29:51.99Z</time></trkpt><trkpt lat="42.41401617296317" lon="11.472236167043267"><ele>26.5</ele><time>2026-03-29T15:29:52.99Z</time></trkpt><trkpt lat="42.41396957554585" lon="11.47254979170088"><ele>25.0</ele><time>2026-03-29T15:29:53.99Z</time></trkpt><trkpt lat="42.41391108216646" lon="11.472861320216548"><ele>24.5</ele><time>2026-03-29T15:29:54.99Z</time></trkpt><trkpt lat="42.41383034453056" lon="11.473177177879617"><ele>24.0</ele><time>2026-03-29T15:29:55.99Z</time></trkpt><trkpt lat="42.4137387074241" lon="11.473486720931168"><ele>24.0</ele><time>2026-03-29T15:29:56.99Z</time></trkpt><trkpt lat="42.413622178477304" lon="11.473794676106477"><ele>24.0</ele><time>2026-03-29T15:29:57.99Z</time></trkpt><trkpt lat="42.4135006104439" lon="11.474090596696728"><ele>24.0</ele><time>2026-03-29T15:29:58.99Z</time></trkpt><trkpt lat="42.413377245324476" lon="11.474375368005727"><ele>24.0</ele><time>2026-03-29T15:29:59.99Z</time></trkpt><trkpt lat="42.41324378219072" lon="11.474654031503562"><ele>25.0</ele><time>2026-03-29T15:30:00.99Z</time></trkpt><trkpt lat="42.413106653445865" lon="11.474913649761689"><ele>26.0</ele><time>2026-03-29T15:30:01.99Z</time></trkpt><trkpt lat="42.41295330380501" lon="11.47515332505513"><ele>24.0</ele><time>2026-03-29T15:30:02.99Z</time></trkpt><trkpt lat="42.412787761403614" lon="11.475379071254912"><ele>22.0</ele><time>2026-03-29T15:30:03.99Z</time></trkpt><trkpt lat="42.412608148792295" lon="11.47559997380736"><ele>22.0</ele><time>2026-03-29T15:30:04.99Z</time></trkpt><trkpt lat="42.41242888443956" lon="11.475813960494884"><ele>22.0</ele><time>2026-03-29T15:30:05.99Z</time></trkpt><trkpt lat="42.412239252411545" lon="11.47602164941009"><ele>22.0</ele><time>2026-03-29T15:30:06.989Z</time></trkpt><trkpt lat="42.41204110313731" lon="11.476211551467724"><ele>22.0</ele><time>2026-03-29T15:30:07.989Z</time></trkpt><trkpt lat="42.411826448156546" lon="11.476380380756165"><ele>22.0</ele><time>2026-03-29T15:30:08.989Z</time></trkpt><trkpt lat="42.411601224473095" lon="11.476532812997663"><ele>22.0</ele><time>2026-03-29T15:30:09.989Z</time></trkpt><trkpt lat="42.41137410972205" lon="11.476689494355002"><ele>22.0</ele><time>2026-03-29T15:30:10.989Z</time></trkpt><trkpt lat="42.41114476702871" lon="11.476857911566198"><ele>22.0</ele><time>2026-03-29T15:30:11.989Z</time></trkpt><trkpt lat="42.41091576610876" lon="11.477024396668345"><ele>22.5</ele><time>2026-03-29T15:30:12.989Z</time></trkpt><trkpt lat="42.410685130590146" lon="11.477189555000695"><ele>23.0</ele><time>2026-03-29T15:30:13.989Z</time></trkpt><trkpt lat="42.41046458970331" lon="11.477367626851455"><ele>23.0</ele><time>2026-03-29T15:30:14.989Z</time></trkpt><trkpt lat="42.41023752426917" lon="11.477549721116741"><ele>23.0</ele><time>2026-03-29T15:30:15.989Z</time></trkpt><trkpt lat="42.41001120325985" lon="11.477731296984084"><ele>23.0</ele><time>2026-03-29T15:30:16.989Z</time></trkpt><trkpt lat="42.40977572754836" lon="11.47791911343473"><ele>23.0</ele><time>2026-03-29T15:30:17.989Z</time></trkpt><trkpt lat="42.40954564436587" lon="11.478116917810794"><ele>24.5</ele><time>2026-03-29T15:30:18.989Z</time></trkpt><trkpt lat="42.40933092091681" lon="11.478329019438528"><ele>26.0</ele><time>2026-03-29T15:30:19.989Z</time></trkpt><trkpt lat="42.409120791237775" lon="11.478553315808472"><ele>26.5</ele><time>2026-03-29T15:30:20.989Z</time></trkpt><trkpt lat="42.40892362940914" lon="11.478793412183174"><ele>27.0</ele><time>2026-03-29T15:30:21.989Z</time></trkpt><trkpt lat="42.40872945510256" lon="11.479040034846603"><ele>27.0</ele><time>2026-03-29T15:30:22.989Z</time></trkpt><trkpt lat="42.40853958237308" lon="11.479295823046758"><ele>27.0</ele><time>2026-03-29T15:30:23.989Z</time></trkpt><trkpt lat="42.408357442502336" lon="11.47956476837374"><ele>26.5</ele><time>2026-03-29T15:30:24.989Z</time></trkpt><trkpt lat="42.40818923657989" lon="11.479835902579637"><ele>26.0</ele><time>2026-03-29T15:30:25.989Z</time></trkpt><trkpt lat="42.40803304813953" lon="11.480128618996154"><ele>26.0</ele><time>2026-03-29T15:30:26.989Z</time></trkpt><trkpt lat="42.40788601056031" lon="11.480426063282438"><ele>26.0</ele><time>2026-03-29T15:30:27.989Z</time></trkpt><trkpt lat="42.40775562396932" lon="11.480724768658844"><ele>26.0</ele><time>2026-03-29T15:30:28.989Z</time></trkpt><trkpt lat="42.407631842736805" lon="11.481025768673696"><ele>26.0</ele><time>2026-03-29T15:30:29.989Z</time></trkpt><trkpt lat="42.40751237844185" lon="11.481341723190877"><ele>26.5</ele><time>2026-03-29T15:30:30.989Z</time></trkpt><trkpt lat="42.40741136756683" lon="11.481657470649276"><ele>27.0</ele><time>2026-03-29T15:30:31.989Z</time></trkpt><trkpt lat="42.40731976022073" lon="11.481976516359605"><ele>26.0</ele><time>2026-03-29T15:30:32.989Z</time></trkpt><trkpt lat="42.407230021226404" lon="11.482300020065376"><ele>25.0</ele><time>2026-03-29T15:30:33.989Z</time></trkpt><trkpt lat="42.40714116342722" lon="11.482622731122623"><ele>23.5</ele><time>2026-03-29T15:30:34.989Z</time></trkpt><trkpt lat="42.40704812995171" lon="11.482944072313614"><ele>22.0</ele><time>2026-03-29T15:30:35.989Z</time></trkpt><trkpt lat="42.40696860832582" lon="11.483261263021179"><ele>22.0</ele><time>2026-03-29T15:30:36.989Z</time></trkpt><trkpt lat="42.406882549185475" lon="11.483574202430042"><ele>22.0</ele><time>2026-03-29T15:30:37.989Z</time></trkpt><trkpt lat="42.40679125032456" lon="11.48387778831679"><ele>21.5</ele><time>2026-03-29T15:30:38.989Z</time></trkpt><trkpt lat="42.406698563820306" lon="11.48418177271461"><ele>21.0</ele><time>2026-03-29T15:30:39.989Z</time></trkpt><trkpt lat="42.4066122003787" lon="11.484486748525713"><ele>20.5</ele><time>2026-03-29T15:30:40.989Z</time></trkpt><trkpt lat="42.406528869539144" lon="11.484791194993168"><ele>20.0</ele><time>2026-03-29T15:30:41.989Z</time></trkpt><trkpt lat="42.406438810629915" lon="11.485093495771697"><ele>20.0</ele><time>2026-03-29T15:30:42.989Z</time></trkpt><trkpt lat="42.40635155052442" lon="11.48539611542649"><ele>20.0</ele><time>2026-03-29T15:30:43.989Z</time></trkpt><trkpt lat="42.40626595367217" lon="11.485695578242934"><ele>17.5</ele><time>2026-03-29T15:30:44.989Z</time></trkpt><trkpt lat="42.40618106756083" lon="11.485996237927823"><ele>15.0</ele><time>2026-03-29T15:30:45.989Z</time></trkpt><trkpt lat="42.406095672430695" lon="11.486294074718625"><ele>15.0</ele><time>2026-03-29T15:30:46.989Z</time></trkpt><trkpt lat="42.40601324204111" lon="11.486597731225151"><ele>15.0</ele><time>2026-03-29T15:30:47.989Z</time></trkpt><trkpt lat="42.40591467898557" lon="11.486904464477723"><ele>17.0</ele><time>2026-03-29T15:30:48.989Z</time></trkpt><trkpt lat="42.40582425183898" lon="11.487207700918516"><ele>19.0</ele><time>2026-03-29T15:30:49.989Z</time></trkpt><trkpt lat="42.405730900485395" lon="11.487519856187017"><ele>19.0</ele><time>2026-03-29T15:30:50.989Z</time></trkpt><trkpt lat="42.40563374281472" lon="11.487826137488517"><ele>19.0</ele><time>2026-03-29T15:30:51.989Z</time></trkpt><trkpt lat="42.405536966920174" lon="11.488131748560876"><ele>18.5</ele><time>2026-03-29T15:30:52.989Z</time></trkpt><trkpt lat="42.40545157949228" lon="11.488437274116167"><ele>18.0</ele><time>2026-03-29T15:30:53.989Z</time></trkpt><trkpt lat="42.40536031260587" lon="11.488740634142534"><ele>19.0</ele><time>2026-03-29T15:30:54.989Z</time></trkpt><trkpt lat="42.40527184995316" lon="11.489043511434412"><ele>20.0</ele><time>2026-03-29T15:30:55.989Z</time></trkpt><trkpt lat="42.40518789110487" lon="11.489342467123343"><ele>20.5</ele><time>2026-03-29T15:30:56.989Z</time></trkpt><trkpt lat="42.40510723178814" lon="11.489638709554308"><ele>21.0</ele><time>2026-03-29T15:30:57.989Z</time></trkpt><trkpt lat="42.40503327730231" lon="11.489942483778881"><ele>21.0</ele><time>2026-03-29T15:30:58.989Z</time></trkpt><trkpt lat="42.404950325247455" lon="11.49024343180769"><ele>21.0</ele><time>2026-03-29T15:30:59.989Z</time></trkpt><trkpt lat="42.404866159775985" lon="11.490545142570195"><ele>19.5</ele><time>2026-03-29T15:31:00.989Z</time></trkpt><trkpt lat="42.40478054176067" lon="11.490843314880502"><ele>18.0</ele><time>2026-03-29T15:31:01.989Z</time></trkpt><trkpt lat="42.4046932022361" lon="11.491141412414544"><ele>18.0</ele><time>2026-03-29T15:31:02.989Z</time></trkpt><trkpt lat="42.40460411169916" lon="11.49144118495287"><ele>18.0</ele><time>2026-03-29T15:31:03.989Z</time></trkpt><trkpt lat="42.40452167185732" lon="11.491736012184012"><ele>18.0</ele><time>2026-03-29T15:31:04.989Z</time></trkpt><trkpt lat="42.404444814539076" lon="11.492030571277764"><ele>18.0</ele><time>2026-03-29T15:31:05.989Z</time></trkpt><trkpt lat="42.40436346642286" lon="11.49232340520632"><ele>15.5</ele><time>2026-03-29T15:31:06.989Z</time></trkpt><trkpt lat="42.40428023100244" lon="11.49261075328949"><ele>13.0</ele><time>2026-03-29T15:31:07.989Z</time></trkpt><trkpt lat="42.40420098989974" lon="11.492902056008699"><ele>12.0</ele><time>2026-03-29T15:31:08.989Z</time></trkpt><trkpt lat="42.40412356282866" lon="11.493191094784905"><ele>11.0</ele><time>2026-03-29T15:31:09.989Z</time></trkpt><trkpt lat="42.4040469118587" lon="11.493477427504159"><ele>11.333333333333332</ele><time>2026-03-29T15:31:10.989Z</time></trkpt><trkpt lat="42.40396607020071" lon="11.49376001453095"><ele>11.666666666666666</ele><time>2026-03-29T15:31:11.989Z</time></trkpt><trkpt lat="42.40388611437973" lon="11.49404243369382"><ele>12.0</ele><time>2026-03-29T15:31:12.989Z</time></trkpt><trkpt lat="42.403804687092794" lon="11.494325020622146"><ele>12.666666666666668</ele><time>2026-03-29T15:31:13.989Z</time></trkpt><trkpt lat="42.40372521184197" lon="11.494603601713207"><ele>13.333333333333334</ele><time>2026-03-29T15:31:14.989Z</time></trkpt><trkpt lat="42.40364830928503" lon="11.49488448458006"><ele>14.0</ele><time>2026-03-29T15:31:15.989Z</time></trkpt><trkpt lat="42.40356421760966" lon="11.495168471699882"><ele>14.666666666666668</ele><time>2026-03-29T15:31:16.989Z</time></trkpt><trkpt lat="42.40348372181471" lon="11.49544597291006"><ele>15.333333333333332</ele><time>2026-03-29T15:31:17.989Z</time></trkpt><trkpt lat="42.40340558572798" lon="11.495725691983099"><ele>16.0</ele><time>2026-03-29T15:31:18.989Z</time></trkpt><trkpt lat="42.4033292879878" lon="11.496000330367256"><ele>17.0</ele><time>2026-03-29T15:31:19.989Z</time></trkpt><trkpt lat="42.40325149241665" lon="11.49628123258986"><ele>18.0</ele><time>2026-03-29T15:31:20.989Z</time></trkpt><trkpt lat="42.40317352398716" lon="11.496560834613907"><ele>19.0</ele><time>2026-03-29T15:31:21.988Z</time></trkpt><trkpt lat="42.40309015849777" lon="11.496845710124468"><ele>20.5</ele><time>2026-03-29T15:31:22.988Z</time></trkpt><trkpt lat="42.40301200325593" lon="11.497129063313068"><ele>22.0</ele><time>2026-03-29T15:31:23.988Z</time></trkpt><trkpt lat="42.40292516981213" lon="11.49743159738973"><ele>22.0</ele><time>2026-03-29T15:31:24.988Z</time></trkpt><trkpt lat="42.40284554898071" lon="11.497717532574873"><ele>22.0</ele><time>2026-03-29T15:31:25.988Z</time></trkpt><trkpt lat="42.402763092250844" lon="11.49800922011837"><ele>21.0</ele><time>2026-03-29T15:31:26.988Z</time></trkpt><trkpt lat="42.402673502408874" lon="11.498308314027382"><ele>20.0</ele><time>2026-03-29T15:31:27.988Z</time></trkpt><trkpt lat="42.40259018113111" lon="11.498608739272377"><ele>20.0</ele><time>2026-03-29T15:31:28.988Z</time></trkpt><trkpt lat="42.40250522736542" lon="11.498895532664458"><ele>20.0</ele><time>2026-03-29T15:31:29.988Z</time></trkpt><trkpt lat="42.402431547697574" lon="11.499163605913001"><ele>20.0</ele><time>2026-03-29T15:31:30.988Z</time></trkpt><trkpt lat="42.40235449616156" lon="11.499414400273182"><ele>19.333333333333336</ele><time>2026-03-29T15:31:31.988Z</time></trkpt><trkpt lat="42.40228609144851" lon="11.499657633843691"><ele>18.666666666666668</ele><time>2026-03-29T15:31:32.988Z</time></trkpt><trkpt lat="42.402216328461094" lon="11.499901737191214"><ele>18.0</ele><time>2026-03-29T15:31:33.988Z</time></trkpt><trkpt lat="42.402145417753374" lon="11.500149030729645"><ele>17.666666666666668</ele><time>2026-03-29T15:31:34.988Z</time></trkpt><trkpt lat="42.402078615123244" lon="11.500395164284617"><ele>17.333333333333336</ele><time>2026-03-29T15:31:35.988Z</time></trkpt><trkpt lat="42.402012188983754" lon="11.50064151215333"><ele>17.0</ele><time>2026-03-29T15:31:36.988Z</time></trkpt><trkpt lat="42.40194101235269" lon="11.500893564524981"><ele>17.0</ele><time>2026-03-29T15:31:37.988Z</time></trkpt><trkpt lat="42.40186411799341" lon="11.501140922148053"><ele>17.0</ele><time>2026-03-29T15:31:38.988Z</time></trkpt><trkpt lat="42.40178947683879" lon="11.501397202140575"><ele>17.0</ele><time>2026-03-29T15:31:39.988Z</time></trkpt><trkpt lat="42.40171523068524" lon="11.501655598009282"><ele>16.0</ele><time>2026-03-29T15:31:40.988Z</time></trkpt><trkpt lat="42.40164209607431" lon="11.501915014348272"><ele>15.0</ele><time>2026-03-29T15:31:41.988Z</time></trkpt><trkpt lat="42.40156202838937" lon="11.502179310256814"><ele>14.0</ele><time>2026-03-29T15:31:42.988Z</time></trkpt><trkpt lat="42.401486717913095" lon="11.50244412583087"><ele>13.666666666666668</ele><time>2026-03-29T15:31:43.988Z</time></trkpt><trkpt lat="42.40140834842597" lon="11.502711289025894"><ele>13.333333333333332</ele><time>2026-03-29T15:31:44.988Z</time></trkpt><trkpt lat="42.40133625782666" lon="11.50298332769911"><ele>13.0</ele><time>2026-03-29T15:31:45.988Z</time></trkpt><trkpt lat="42.40125595229882" lon="11.503257178147996"><ele>13.0</ele><time>2026-03-29T15:31:46.988Z</time></trkpt><trkpt lat="42.40117328688759" lon="11.503533472331975"><ele>13.0</ele><time>2026-03-29T15:31:47.988Z</time></trkpt><trkpt lat="42.401087238496316" lon="11.503819038494761"><ele>13.0</ele><time>2026-03-29T15:31:48.988Z</time></trkpt><trkpt lat="42.40099994838837" lon="11.504114207567655"><ele>13.5</ele><time>2026-03-29T15:31:49.988Z</time></trkpt><trkpt lat="42.40091812868692" lon="11.504414655419158"><ele>14.0</ele><time>2026-03-29T15:31:50.988Z</time></trkpt><trkpt lat="42.40083815699308" lon="11.504715650489247"><ele>15.0</ele><time>2026-03-29T15:31:51.987Z</time></trkpt><trkpt lat="42.400751778745146" lon="11.50502168839207"><ele>16.0</ele><time>2026-03-29T15:31:52.987Z</time></trkpt><trkpt lat="42.40066644624533" lon="11.505325601774702"><ele>18.0</ele><time>2026-03-29T15:31:53.987Z</time></trkpt><trkpt lat="42.40057829041199" lon="11.505635432044292"><ele>20.0</ele><time>2026-03-29T15:31:54.987Z</time></trkpt><trkpt lat="42.40049066101141" lon="11.505948681047938"><ele>20.0</ele><time>2026-03-29T15:31:55.987Z</time></trkpt><trkpt lat="42.40040419494939" lon="11.50626907644873"><ele>20.0</ele><time>2026-03-29T15:31:56.987Z</time></trkpt><trkpt lat="42.40032069521832" lon="11.506594940065247"><ele>20.0</ele><time>2026-03-29T15:31:57.987Z</time></trkpt><trkpt lat="42.400231494084586" lon="11.506923642683757"><ele>20.0</ele><time>2026-03-29T15:31:58.987Z</time></trkpt><trkpt lat="42.40014111987079" lon="11.507257215603323"><ele>20.0</ele><time>2026-03-29T15:31:59.987Z</time></trkpt><trkpt lat="42.40004682844795" lon="11.507594863100572"><ele>20.0</ele><time>2026-03-29T15:32:00.987Z</time></trkpt><trkpt lat="42.399954549954366" lon="11.507932894224407"><ele>20.0</ele><time>2026-03-29T15:32:01.987Z</time></trkpt><trkpt lat="42.39985761963407" lon="11.508267063783718"><ele>20.0</ele><time>2026-03-29T15:32:02.987Z</time></trkpt><trkpt lat="42.39976002813846" lon="11.508609026955575"><ele>19.5</ele><time>2026-03-29T15:32:03.987Z</time></trkpt><trkpt lat="42.399658966209095" lon="11.508951593580788"><ele>19.0</ele><time>2026-03-29T15:32:04.987Z</time></trkpt><trkpt lat="42.39956003924134" lon="11.509296244830406"><ele>19.5</ele><time>2026-03-29T15:32:05.987Z</time></trkpt><trkpt lat="42.39945599927424" lon="11.509643333558982"><ele>20.0</ele><time>2026-03-29T15:32:06.987Z</time></trkpt><trkpt lat="42.39935400657398" lon="11.50999442160201"><ele>20.0</ele><time>2026-03-29T15:32:07.987Z</time></trkpt><trkpt lat="42.399252366711245" lon="11.510345843795053"><ele>20.0</ele><time>2026-03-29T15:32:08.987Z</time></trkpt><trkpt lat="42.39914856127981" lon="11.510700909006959"><ele>21.0</ele><time>2026-03-29T15:32:09.987Z</time></trkpt><trkpt lat="42.399046969922196" lon="11.511053716295175"><ele>22.0</ele><time>2026-03-29T15:32:10.987Z</time></trkpt><trkpt lat="42.398947099751176" lon="11.511405356288925"><ele>22.5</ele><time>2026-03-29T15:32:11.987Z</time></trkpt><trkpt lat="42.39884722993796" lon="11.511758174128012"><ele>23.0</ele><time>2026-03-29T15:32:12.987Z</time></trkpt><trkpt lat="42.39874288319219" lon="11.512104931464377"><ele>21.5</ele><time>2026-03-29T15:32:13.987Z</time></trkpt><trkpt lat="42.39864676498326" lon="11.512454194544214"><ele>20.0</ele><time>2026-03-29T15:32:14.987Z</time></trkpt><trkpt lat="42.3985503010776" lon="11.512802990092078"><ele>19.5</ele><time>2026-03-29T15:32:15.987Z</time></trkpt><trkpt lat="42.39845165929506" lon="11.513151067333014"><ele>19.0</ele><time>2026-03-29T15:32:16.987Z</time></trkpt><trkpt lat="42.39834832480593" lon="11.513494402562616"><ele>19.0</ele><time>2026-03-29T15:32:17.987Z</time></trkpt><trkpt lat="42.39825430057467" lon="11.513835595392981"><ele>19.0</ele><time>2026-03-29T15:32:18.987Z</time></trkpt><trkpt lat="42.39815999955632" lon="11.514174728617547"><ele>19.0</ele><time>2026-03-29T15:32:19.987Z</time></trkpt><trkpt lat="42.39806145564753" lon="11.514511364476093"><ele>19.0</ele><time>2026-03-29T15:32:20.987Z</time></trkpt><trkpt lat="42.39796408636117" lon="11.51484679176419"><ele>16.0</ele><time>2026-03-29T15:32:21.987Z</time></trkpt><trkpt lat="42.39787205037198" lon="11.515179049976535"><ele>13.0</ele><time>2026-03-29T15:32:22.987Z</time></trkpt><trkpt lat="42.39777564754712" lon="11.515512249979075"><ele>12.5</ele><time>2026-03-29T15:32:23.987Z</time></trkpt><trkpt lat="42.39767566286831" lon="11.515844644454022"><ele>12.0</ele><time>2026-03-29T15:32:24.987Z</time></trkpt><trkpt lat="42.39757929394749" lon="11.5161713979257"><ele>12.5</ele><time>2026-03-29T15:32:25.987Z</time></trkpt><trkpt lat="42.39748442038169" lon="11.516500297049959"><ele>13.0</ele><time>2026-03-29T15:32:26.987Z</time></trkpt><trkpt lat="42.39739513419794" lon="11.516827200509793"><ele>13.5</ele><time>2026-03-29T15:32:27.987Z</time></trkpt><trkpt lat="42.39730284837295" lon="11.517155125857295"><ele>14.0</ele><time>2026-03-29T15:32:28.987Z</time></trkpt><trkpt lat="42.39721479046637" lon="11.517477113012996"><ele>13.0</ele><time>2026-03-29T15:32:29.987Z</time></trkpt><trkpt lat="42.39711879566965" lon="11.517800444554835"><ele>12.0</ele><time>2026-03-29T15:32:30.987Z</time></trkpt><trkpt lat="42.3970265697935" lon="11.518117845397947"><ele>12.0</ele><time>2026-03-29T15:32:31.987Z</time></trkpt><trkpt lat="42.396933964022224" lon="11.518437798595697"><ele>12.0</ele><time>2026-03-29T15:32:32.987Z</time></trkpt><trkpt lat="42.39684484937397" lon="11.518754068211722"><ele>13.5</ele><time>2026-03-29T15:32:33.987Z</time></trkpt><trkpt lat="42.396756014461054" lon="11.51906967736886"><ele>15.0</ele><time>2026-03-29T15:32:34.987Z</time></trkpt><trkpt lat="42.39666874237054" lon="11.519387215774838"><ele>16.5</ele><time>2026-03-29T15:32:35.987Z</time></trkpt><trkpt lat="42.396580062277906" lon="11.519702724323697"><ele>18.0</ele><time>2026-03-29T15:32:36.987Z</time></trkpt><trkpt lat="42.39649134863636" lon="11.520013763642073"><ele>18.0</ele><time>2026-03-29T15:32:37.987Z</time></trkpt><trkpt lat="42.39640225155499" lon="11.52033082205344"><ele>18.0</ele><time>2026-03-29T15:32:38.987Z</time></trkpt><trkpt lat="42.396318740123675" lon="11.520640505132077"><ele>18.0</ele><time>2026-03-29T15:32:39.987Z</time></trkpt><trkpt lat="42.39622876869909" lon="11.5209557470835"><ele>18.0</ele><time>2026-03-29T15:32:40.987Z</time></trkpt><trkpt lat="42.39613887846966" lon="11.521272038950764"><ele>18.0</ele><time>2026-03-29T15:32:41.987Z</time></trkpt><trkpt lat="42.39605555603179" lon="11.521579146623711"><ele>18.0</ele><time>2026-03-29T15:32:42.987Z</time></trkpt><trkpt lat="42.39596725126518" lon="11.521885730749934"><ele>19.0</ele><time>2026-03-29T15:32:43.987Z</time></trkpt><trkpt lat="42.395879645482694" lon="11.522187059703201"><ele>20.0</ele><time>2026-03-29T15:32:44.987Z</time></trkpt><trkpt lat="42.39579192796954" lon="11.522491787341552"><ele>20.0</ele><time>2026-03-29T15:32:45.987Z</time></trkpt><trkpt lat="42.39570317130705" lon="11.522797213676453"><ele>20.0</ele><time>2026-03-29T15:32:46.987Z</time></trkpt><trkpt lat="42.39561385331232" lon="11.52309884450227"><ele>21.0</ele><time>2026-03-29T15:32:47.987Z</time></trkpt><trkpt lat="42.395529449154196" lon="11.523407113469345"><ele>22.0</ele><time>2026-03-29T15:32:49.001Z</time></trkpt><trkpt lat="42.39544297480057" lon="11.523708515972093"><ele>22.0</ele><time>2026-03-29T15:32:50.001Z</time></trkpt><trkpt lat="42.39535781733995" lon="11.524011618052908"><ele>22.0</ele><time>2026-03-29T15:32:51.001Z</time></trkpt><trkpt lat="42.39526769820235" lon="11.5243186360146"><ele>22.0</ele><time>2026-03-29T15:32:52.001Z</time></trkpt><trkpt lat="42.395175560123526" lon="11.524623721353407"><ele>22.0</ele><time>2026-03-29T15:32:53.001Z</time></trkpt><trkpt lat="42.39509795336319" lon="11.524923677561873"><ele>22.0</ele><time>2026-03-29T15:32:54.001Z</time></trkpt><trkpt lat="42.39500812132968" lon="11.525234901925877"><ele>22.0</ele><time>2026-03-29T15:32:55.001Z</time></trkpt><trkpt lat="42.39492447577046" lon="11.525536834636531"><ele>22.0</ele><time>2026-03-29T15:32:56.001Z</time></trkpt><trkpt lat="42.394836210137015" lon="11.525845808592468"><ele>22.0</ele><time>2026-03-29T15:32:57.001Z</time></trkpt><trkpt lat="42.3947411785197" lon="11.526158755635322"><ele>20.5</ele><time>2026-03-29T15:32:58.001Z</time></trkpt><trkpt lat="42.39466349546067" lon="11.526461938057354"><ele>19.0</ele><time>2026-03-29T15:32:59.001Z</time></trkpt><trkpt lat="42.39457746021481" lon="11.52677322659866"><ele>19.0</ele><time>2026-03-29T15:33:00.001Z</time></trkpt><trkpt lat="42.39449427655901" lon="11.527077869476539"><ele>19.0</ele><time>2026-03-29T15:33:01.001Z</time></trkpt><trkpt lat="42.39440466773608" lon="11.527383478005593"><ele>19.0</ele><time>2026-03-29T15:33:02Z</time></trkpt><trkpt lat="42.394314628172516" lon="11.527692762455004"><ele>19.0</ele><time>2026-03-29T15:33:03Z</time></trkpt><trkpt lat="42.39422688494636" lon="11.5280066188713"><ele>20.0</ele><time>2026-03-29T15:33:04Z</time></trkpt><trkpt lat="42.39413646135127" lon="11.52831355755815"><ele>21.0</ele><time>2026-03-29T15:33:05Z</time></trkpt><trkpt lat="42.394044758881975" lon="11.528623700265749"><ele>20.0</ele><time>2026-03-29T15:33:06Z</time></trkpt><trkpt lat="42.393957918016504" lon="11.52893142188853"><ele>19.0</ele><time>2026-03-29T15:33:07Z</time></trkpt><trkpt lat="42.39387015730904" lon="11.52923564854982"><ele>18.0</ele><time>2026-03-29T15:33:08Z</time></trkpt><trkpt lat="42.393779216317284" lon="11.529540646698978"><ele>17.0</ele><time>2026-03-29T15:33:09Z</time></trkpt><trkpt lat="42.39368770974084" lon="11.529844404586356"><ele>17.0</ele><time>2026-03-29T15:33:10Z</time></trkpt><trkpt lat="42.3936012202742" lon="11.53014903536429"><ele>17.0</ele><time>2026-03-29T15:33:11Z</time></trkpt><trkpt lat="42.39351747197831" lon="11.530452012937262"><ele>17.0</ele><time>2026-03-29T15:33:12Z</time></trkpt><trkpt lat="42.393429657730856" lon="11.530756918866842"><ele>17.0</ele><time>2026-03-29T15:33:13Z</time></trkpt><trkpt lat="42.39334292361478" lon="11.531058450655458"><ele>18.0</ele><time>2026-03-29T15:33:14Z</time></trkpt><trkpt lat="42.393256472592306" lon="11.531360141603809"><ele>19.0</ele><time>2026-03-29T15:33:15Z</time></trkpt><trkpt lat="42.39317010897517" lon="11.531658435637413"><ele>19.0</ele><time>2026-03-29T15:33:16Z</time></trkpt><trkpt lat="42.393089895514514" lon="11.531959058966248"><ele>19.0</ele><time>2026-03-29T15:33:17Z</time></trkpt><trkpt lat="42.39300631139855" lon="11.532253409967565"><ele>20.5</ele><time>2026-03-29T15:33:18Z</time></trkpt><trkpt lat="42.3929223997635" lon="11.532547727494128"><ele>22.0</ele><time>2026-03-29T15:33:19Z</time></trkpt><trkpt lat="42.392843596545525" lon="11.53284208487095"><ele>24.0</ele><time>2026-03-29T15:33:20Z</time></trkpt><trkpt lat="42.39276582583089" lon="11.533135513031793"><ele>26.0</ele><time>2026-03-29T15:33:21Z</time></trkpt><trkpt lat="42.392676712590976" lon="11.533438732770664"><ele>25.5</ele><time>2026-03-29T15:33:22Z</time></trkpt><trkpt lat="42.39258172679097" lon="11.53374715399381"><ele>25.0</ele><time>2026-03-29T15:33:23Z</time></trkpt><trkpt lat="42.392496262176095" lon="11.534056390717291"><ele>25.0</ele><time>2026-03-29T15:33:24Z</time></trkpt><trkpt lat="42.392413197672305" lon="11.534366710769586"><ele>25.0</ele><time>2026-03-29T15:33:25Z</time></trkpt><trkpt lat="42.392324690010156" lon="11.534679258514055"><ele>25.5</ele><time>2026-03-29T15:33:26Z</time></trkpt><trkpt lat="42.39223136890463" lon="11.535001866305857"><ele>26.0</ele><time>2026-03-29T15:33:27Z</time></trkpt><trkpt lat="42.39213662031599" lon="11.535322401371605"><ele>26.5</ele><time>2026-03-29T15:33:28Z</time></trkpt><trkpt lat="42.392046114679815" lon="11.535646303668745"><ele>27.0</ele><time>2026-03-29T15:33:29Z</time></trkpt><trkpt lat="42.391955446204804" lon="11.535971442103596"><ele>27.5</ele><time>2026-03-29T15:33:30Z</time></trkpt><trkpt lat="42.391864991264235" lon="11.53629628936679"><ele>28.0</ele><time>2026-03-29T15:33:31Z</time></trkpt><trkpt lat="42.39177283880706" lon="11.536618554980498"><ele>28.0</ele><time>2026-03-29T15:33:32Z</time></trkpt><trkpt lat="42.39168039912679" lon="11.536943584035264"><ele>28.0</ele><time>2026-03-29T15:33:33Z</time></trkpt><trkpt lat="42.391589546848465" lon="11.537265009938787"><ele>28.0</ele><time>2026-03-29T15:33:34.002Z</time></trkpt><trkpt lat="42.39149985001584" lon="11.537583468642108"><ele>28.0</ele><time>2026-03-29T15:33:35.002Z</time></trkpt><trkpt lat="42.39141198866272" lon="11.537901230732286"><ele>29.0</ele><time>2026-03-29T15:33:36.002Z</time></trkpt><trkpt lat="42.391319285629336" lon="11.538220861635724"><ele>30.0</ele><time>2026-03-29T15:33:37.002Z</time></trkpt><trkpt lat="42.391228560925285" lon="11.538535806081933"><ele>30.0</ele><time>2026-03-29T15:33:38.002Z</time></trkpt><trkpt lat="42.39113478574542" lon="11.538848669080217"><ele>30.0</ele><time>2026-03-29T15:33:39.002Z</time></trkpt><trkpt lat="42.3910437662585" lon="11.539161222397354"><ele>30.0</ele><time>2026-03-29T15:33:40.002Z</time></trkpt><trkpt lat="42.390953284821016" lon="11.539473822672585"><ele>30.0</ele><time>2026-03-29T15:33:41.002Z</time></trkpt><trkpt lat="42.390840775961045" lon="11.539773249647132"><ele>30.5</ele><time>2026-03-29T15:33:42.002Z</time></trkpt><trkpt lat="42.39072101911653" lon="11.540069429793864"><ele>31.0</ele><time>2026-03-29T15:33:43.002Z</time></trkpt><trkpt lat="42.390589664389424" lon="11.540359822950862"><ele>28.0</ele><time>2026-03-29T15:33:44.003Z</time></trkpt><trkpt lat="42.390446012954925" lon="11.54063941814463"><ele>25.0</ele><time>2026-03-29T15:33:45.003Z</time></trkpt><trkpt lat="42.39029418002528" lon="11.54091681320956"><ele>25.0</ele><time>2026-03-29T15:33:46.003Z</time></trkpt><trkpt lat="42.39013824479572" lon="11.54118843863412"><ele>25.0</ele><time>2026-03-29T15:33:47.002Z</time></trkpt><trkpt lat="42.38998388413534" lon="11.54144485702426"><ele>25.5</ele><time>2026-03-29T15:33:48.002Z</time></trkpt><trkpt lat="42.389809983791224" lon="11.54170349958278"><ele>26.0</ele><time>2026-03-29T15:33:49.002Z</time></trkpt><trkpt lat="42.389640276259634" lon="11.541952301106164"><ele>25.0</ele><time>2026-03-29T15:33:50.002Z</time></trkpt><trkpt lat="42.38945787911183" lon="11.542189421324728"><ele>24.0</ele><time>2026-03-29T15:33:51.002Z</time></trkpt><trkpt lat="42.38926699662103" lon="11.542414988930792"><ele>24.0</ele><time>2026-03-29T15:33:52.002Z</time></trkpt><trkpt lat="42.38906337674955" lon="11.54262723424739"><ele>24.0</ele><time>2026-03-29T15:33:53.002Z</time></trkpt><trkpt lat="42.38885910691287" lon="11.5428379142582"><ele>22.5</ele><time>2026-03-29T15:33:54.002Z</time></trkpt><trkpt lat="42.38865330696674" lon="11.543056950307301"><ele>21.0</ele><time>2026-03-29T15:33:55.002Z</time></trkpt><trkpt lat="42.388448783308675" lon="11.543272656877262"><ele>21.0</ele><time>2026-03-29T15:33:56.002Z</time></trkpt><trkpt lat="42.388242597256905" lon="11.543486452593452"><ele>21.0</ele><time>2026-03-29T15:33:57.002Z</time></trkpt><trkpt lat="42.38804216066209" lon="11.543696228482574"><ele>18.5</ele><time>2026-03-29T15:33:58.002Z</time></trkpt><trkpt lat="42.387836592669466" lon="11.543913766739122"><ele>16.0</ele><time>2026-03-29T15:33:59.002Z</time></trkpt><trkpt lat="42.38763390064326" lon="11.544129321071201"><ele>16.0</ele><time>2026-03-29T15:34:00.002Z</time></trkpt><trkpt lat="42.3874292053065" lon="11.544342575314285"><ele>16.0</ele><time>2026-03-29T15:34:01.002Z</time></trkpt><trkpt lat="42.38724003727673" lon="11.544548915257705"><ele>15.5</ele><time>2026-03-29T15:34:02.002Z</time></trkpt><trkpt lat="42.38705237012621" lon="11.54475178598688"><ele>15.0</ele><time>2026-03-29T15:34:03.002Z</time></trkpt><trkpt lat="42.38686590655162" lon="11.544956380391591"><ele>15.0</ele><time>2026-03-29T15:34:04.002Z</time></trkpt><trkpt lat="42.38667362768124" lon="11.545155310287042"><ele>15.0</ele><time>2026-03-29T15:34:05.002Z</time></trkpt><trkpt lat="42.38649547781777" lon="11.54535702097749"><ele>15.0</ele><time>2026-03-29T15:34:06.002Z</time></trkpt><trkpt lat="42.38630917341231" lon="11.54556042737606"><ele>15.0</ele><time>2026-03-29T15:34:07.002Z</time></trkpt><trkpt lat="42.386126898689355" lon="11.545764892515187"><ele>15.0</ele><time>2026-03-29T15:34:08.002Z</time></trkpt><trkpt lat="42.385950079527426" lon="11.545970618850417"><ele>15.0</ele><time>2026-03-29T15:34:09.002Z</time></trkpt><trkpt lat="42.38578127166653" lon="11.546170908759322"><ele>14.5</ele><time>2026-03-29T15:34:10.002Z</time></trkpt><trkpt lat="42.385585451006605" lon="11.546392392384009"><ele>14.0</ele><time>2026-03-29T15:34:11.002Z</time></trkpt><trkpt lat="42.38541576183774" lon="11.546584605996497"><ele>13.5</ele><time>2026-03-29T15:34:12.002Z</time></trkpt><trkpt lat="42.385235857223314" lon="11.54679492342963"><ele>13.0</ele><time>2026-03-29T15:34:13.002Z</time></trkpt><trkpt lat="42.385050264959176" lon="11.54700330407034"><ele>13.5</ele><time>2026-03-29T15:34:14.002Z</time></trkpt><trkpt lat="42.38486784828478" lon="11.547214133812584"><ele>14.0</ele><time>2026-03-29T15:34:15.002Z</time></trkpt><trkpt lat="42.38468525636017" lon="11.547421204958912"><ele>14.5</ele><time>2026-03-29T15:34:16.002Z</time></trkpt><trkpt lat="42.384494352746614" lon="11.547633272026351"><ele>15.0</ele><time>2026-03-29T15:34:17.002Z</time></trkpt><trkpt lat="42.38430222642203" lon="11.54784440383222"><ele>16.5</ele><time>2026-03-29T15:34:18.002Z</time></trkpt><trkpt lat="42.38411476070025" lon="11.548053355275817"><ele>18.0</ele><time>2026-03-29T15:34:19.002Z</time></trkpt><trkpt lat="42.383927214884864" lon="11.54826695625966"><ele>18.5</ele><time>2026-03-29T15:34:20.002Z</time></trkpt><trkpt lat="42.38374345480541" lon="11.548486414045012"><ele>19.0</ele><time>2026-03-29T15:34:21.002Z</time></trkpt><trkpt lat="42.38355323653737" lon="11.548707053142271"><ele>20.0</ele><time>2026-03-29T15:34:22.002Z</time></trkpt><trkpt lat="42.38336976956133" lon="11.54892042202981"><ele>21.0</ele><time>2026-03-29T15:34:23.002Z</time></trkpt><trkpt lat="42.38317987906427" lon="11.54913953772824"><ele>20.5</ele><time>2026-03-29T15:34:24.002Z</time></trkpt><trkpt lat="42.38298280721993" lon="11.549356332608335"><ele>20.0</ele><time>2026-03-29T15:34:25.002Z</time></trkpt><trkpt lat="42.3827879207326" lon="11.549569732679482"><ele>19.5</ele><time>2026-03-29T15:34:26.002Z</time></trkpt><trkpt lat="42.38258825506882" lon="11.549793359659526"><ele>19.0</ele><time>2026-03-29T15:34:27.002Z</time></trkpt><trkpt lat="42.38238799521632" lon="11.550018072643814"><ele>19.0</ele><time>2026-03-29T15:34:28.002Z</time></trkpt><trkpt lat="42.3821905902081" lon="11.550248814329652"><ele>19.0</ele><time>2026-03-29T15:34:29.002Z</time></trkpt><trkpt lat="42.38198589423888" lon="11.550477804851255"><ele>20.0</ele><time>2026-03-29T15:34:30.002Z</time></trkpt><trkpt lat="42.381778799085346" lon="11.550711643234576"><ele>21.0</ele><time>2026-03-29T15:34:31.002Z</time></trkpt><trkpt lat="42.38157247369769" lon="11.550944855064193"><ele>21.0</ele><time>2026-03-29T15:34:32.002Z</time></trkpt><trkpt lat="42.381364219649136" lon="11.551184410261088"><ele>21.0</ele><time>2026-03-29T15:34:33.002Z</time></trkpt><trkpt lat="42.381157596756005" lon="11.551415125425697"><ele>21.5</ele><time>2026-03-29T15:34:34.002Z</time></trkpt><trkpt lat="42.380955988255266" lon="11.55164276907778"><ele>22.0</ele><time>2026-03-29T15:34:35.002Z</time></trkpt><trkpt lat="42.380743296183475" lon="11.551872556298198"><ele>22.0</ele><time>2026-03-29T15:34:36.002Z</time></trkpt><trkpt lat="42.38053872460708" lon="11.552098553795188"><ele>22.0</ele><time>2026-03-29T15:34:37.002Z</time></trkpt><trkpt lat="42.38034097512888" lon="11.552321414499183"><ele>19.5</ele><time>2026-03-29T15:34:38.002Z</time></trkpt><trkpt lat="42.38014525831944" lon="11.55254516040063"><ele>17.0</ele><time>2026-03-29T15:34:39.001Z</time></trkpt><trkpt lat="42.37994106478332" lon="11.552764060016214"><ele>18.5</ele><time>2026-03-29T15:34:40.001Z</time></trkpt><trkpt lat="42.37974051297404" lon="11.55298179484831"><ele>20.0</ele><time>2026-03-29T15:34:41.001Z</time></trkpt><trkpt lat="42.37953712856226" lon="11.553205674147545"><ele>20.5</ele><time>2026-03-29T15:34:42.001Z</time></trkpt><trkpt lat="42.37934912499564" lon="11.55342445873339"><ele>21.0</ele><time>2026-03-29T15:34:43.001Z</time></trkpt><trkpt lat="42.37916062538909" lon="11.553645515600723"><ele>20.5</ele><time>2026-03-29T15:34:44.001Z</time></trkpt><trkpt lat="42.37896717869267" lon="11.553859721022848"><ele>20.0</ele><time>2026-03-29T15:34:45.001Z</time></trkpt><trkpt lat="42.37877548563752" lon="11.554077335138867"><ele>19.0</ele><time>2026-03-29T15:34:46.001Z</time></trkpt><trkpt lat="42.37858184418458" lon="11.554296357810285"><ele>18.0</ele><time>2026-03-29T15:34:47.001Z</time></trkpt><trkpt lat="42.37839179260415" lon="11.55450930529043"><ele>16.0</ele><time>2026-03-29T15:34:48.001Z</time></trkpt><trkpt lat="42.37819648705892" lon="11.554719726341073"><ele>14.0</ele><time>2026-03-29T15:34:49.001Z</time></trkpt><trkpt lat="42.37799949615358" lon="11.554927623762156"><ele>13.0</ele><time>2026-03-29T15:34:50.001Z</time></trkpt><trkpt lat="42.37781036775303" lon="11.555132192109015"><ele>12.0</ele><time>2026-03-29T15:34:51.001Z</time></trkpt><trkpt lat="42.37761902550819" lon="11.55533891577195"><ele>11.5</ele><time>2026-03-29T15:34:52.001Z</time></trkpt><trkpt lat="42.377427939273545" lon="11.55554302653577"><ele>11.0</ele><time>2026-03-29T15:34:53.001Z</time></trkpt><trkpt lat="42.377244740392335" lon="11.555749905203466"><ele>9.5</ele><time>2026-03-29T15:34:54.001Z</time></trkpt><trkpt lat="42.37706342738863" lon="11.555959291012352"><ele>8.0</ele><time>2026-03-29T15:34:55.001Z</time></trkpt><trkpt lat="42.37688038949571" lon="11.556168829747207"><ele>8.5</ele><time>2026-03-29T15:34:56.001Z</time></trkpt><trkpt lat="42.376691480116946" lon="11.556376790509596"><ele>9.0</ele><time>2026-03-29T15:34:57.001Z</time></trkpt><trkpt lat="42.3765003349544" lon="11.556582018687715"><ele>8.0</ele><time>2026-03-29T15:34:58.001Z</time></trkpt><trkpt lat="42.37631758721049" lon="11.556786610066313"><ele>7.0</ele><time>2026-03-29T15:34:59.001Z</time></trkpt><trkpt lat="42.37612904689306" lon="11.55699417053744"><ele>9.0</ele><time>2026-03-29T15:35:00.001Z</time></trkpt><trkpt lat="42.37593700614578" lon="11.557196589081103"><ele>11.0</ele><time>2026-03-29T15:35:01.001Z</time></trkpt><trkpt lat="42.37574941277997" lon="11.557402380114619"><ele>11.0</ele><time>2026-03-29T15:35:02.001Z</time></trkpt><trkpt lat="42.37555853776493" lon="11.557609726791366"><ele>11.0</ele><time>2026-03-29T15:35:03.001Z</time></trkpt><trkpt lat="42.37535975667076" lon="11.557814082654295"><ele>10.0</ele><time>2026-03-29T15:35:04.001Z</time></trkpt><trkpt lat="42.375152831275315" lon="11.558023363317016"><ele>9.0</ele><time>2026-03-29T15:35:05.001Z</time></trkpt><trkpt lat="42.37494128873278" lon="11.55823750154635"><ele>9.0</ele><time>2026-03-29T15:35:06.001Z</time></trkpt><trkpt lat="42.37472729231965" lon="11.558435205265056"><ele>9.0</ele><time>2026-03-29T15:35:07.001Z</time></trkpt><trkpt lat="42.37451493139091" lon="11.558626660457602"><ele>12.0</ele><time>2026-03-29T15:35:08.001Z</time></trkpt><trkpt lat="42.37430228736773" lon="11.558821365958973"><ele>15.0</ele><time>2026-03-29T15:35:09.001Z</time></trkpt><trkpt lat="42.37408359233419" lon="11.559016464500965"><ele>15.0</ele><time>2026-03-29T15:35:10.001Z</time></trkpt><trkpt lat="42.37387151628771" lon="11.559202712890956"><ele>15.0</ele><time>2026-03-29T15:35:11.001Z</time></trkpt><trkpt lat="42.373648845425684" lon="11.55940157957233"><ele>13.5</ele><time>2026-03-29T15:35:12.001Z</time></trkpt><trkpt lat="42.37343411887647" lon="11.55959849742628"><ele>12.0</ele><time>2026-03-29T15:35:13.001Z</time></trkpt><trkpt lat="42.37321914010887" lon="11.559806553296355"><ele>10.5</ele><time>2026-03-29T15:35:14.001Z</time></trkpt><trkpt lat="42.373003784507404" lon="11.560005509774317"><ele>9.0</ele><time>2026-03-29T15:35:15.001Z</time></trkpt><trkpt lat="42.372787606462325" lon="11.560205492490898"><ele>9.5</ele><time>2026-03-29T15:35:16.001Z</time></trkpt><trkpt lat="42.37257266993111" lon="11.560400223134664"><ele>10.0</ele><time>2026-03-29T15:35:17.001Z</time></trkpt><trkpt lat="42.37234652819223" lon="11.560586677232735"><ele>12.5</ele><time>2026-03-29T15:35:18.001Z</time></trkpt><trkpt lat="42.37212414505715" lon="11.560774156709755"><ele>15.0</ele><time>2026-03-29T15:35:19.001Z</time></trkpt><trkpt lat="42.371898104948535" lon="11.56097350398157"><ele>15.0</ele><time>2026-03-29T15:35:20.001Z</time></trkpt><trkpt lat="42.37166481071069" lon="11.56117467090926"><ele>15.0</ele><time>2026-03-29T15:35:21.001Z</time></trkpt><trkpt lat="42.37143787262566" lon="11.561368515410031"><ele>18.0</ele><time>2026-03-29T15:35:22.001Z</time></trkpt><trkpt lat="42.371215658287" lon="11.561564532716448"><ele>21.0</ele><time>2026-03-29T15:35:23.001Z</time></trkpt><trkpt lat="42.371001208610785" lon="11.561772615245374"><ele>21.0</ele><time>2026-03-29T15:35:24.001Z</time></trkpt><trkpt lat="42.37080021243111" lon="11.561982427867713"><ele>21.0</ele><time>2026-03-29T15:35:25.001Z</time></trkpt><trkpt lat="42.37061016763888" lon="11.562197304414688"><ele>23.0</ele><time>2026-03-29T15:35:26.001Z</time></trkpt><trkpt lat="42.37043386960848" lon="11.562419316229036"><ele>25.0</ele><time>2026-03-29T15:35:27.001Z</time></trkpt><trkpt lat="42.370258729445204" lon="11.562656247573358"><ele>25.5</ele><time>2026-03-29T15:35:28.001Z</time></trkpt><trkpt lat="42.370091503493754" lon="11.562895195836491"><ele>26.0</ele><time>2026-03-29T15:35:29.001Z</time></trkpt><trkpt lat="42.36992049227449" lon="11.563142630429077"><ele>26.0</ele><time>2026-03-29T15:35:30.001Z</time></trkpt><trkpt lat="42.369756030442254" lon="11.56338830492173"><ele>26.0</ele><time>2026-03-29T15:35:31.001Z</time></trkpt><trkpt lat="42.369601768742754" lon="11.563644386462396"><ele>26.5</ele><time>2026-03-29T15:35:32.001Z</time></trkpt><trkpt lat="42.36945080670268" lon="11.563907992736736"><ele>27.0</ele><time>2026-03-29T15:35:33.001Z</time></trkpt><trkpt lat="42.36931464918511" lon="11.564171405533894"><ele>27.0</ele><time>2026-03-29T15:35:34.001Z</time></trkpt><trkpt lat="42.369178773877884" lon="11.564444517050974"><ele>27.0</ele><time>2026-03-29T15:35:35.001Z</time></trkpt><trkpt lat="42.369053263736156" lon="11.564724467326712"><ele>26.5</ele><time>2026-03-29T15:35:36.001Z</time></trkpt><trkpt lat="42.368938545018835" lon="11.565009642887828"><ele>26.0</ele><time>2026-03-29T15:35:37.001Z</time></trkpt><trkpt lat="42.368831127054385" lon="11.565300822753699"><ele>26.5</ele><time>2026-03-29T15:35:38.001Z</time></trkpt><trkpt lat="42.36872884724728" lon="11.565591736505189"><ele>27.0</ele><time>2026-03-29T15:35:39.001Z</time></trkpt><trkpt lat="42.36863521224225" lon="11.565888012618668"><ele>27.0</ele><time>2026-03-29T15:35:40.003Z</time></trkpt><trkpt lat="42.368539825801534" lon="11.566184920859248"><ele>27.0</ele><time>2026-03-29T15:35:41.003Z</time></trkpt><trkpt lat="42.36844734045227" lon="11.566484006570498"><ele>26.5</ele><time>2026-03-29T15:35:42.003Z</time></trkpt><trkpt lat="42.36836939487373" lon="11.56677959837822"><ele>26.0</ele><time>2026-03-29T15:35:43.003Z</time></trkpt><trkpt lat="42.36829010107841" lon="11.567080491831167"><ele>26.0</ele><time>2026-03-29T15:35:44.004Z</time></trkpt><trkpt lat="42.368217118925244" lon="11.567380869408947"><ele>26.0</ele><time>2026-03-29T15:35:45.004Z</time></trkpt><trkpt lat="42.36814369445563" lon="11.567686178297052"><ele>25.5</ele><time>2026-03-29T15:35:46.003Z</time></trkpt><trkpt lat="42.36806860662001" lon="11.567993221673648"><ele>25.0</ele><time>2026-03-29T15:35:47.004Z</time></trkpt><trkpt lat="42.36799256442248" lon="11.568299100566755"><ele>25.0</ele><time>2026-03-29T15:35:48.004Z</time></trkpt><trkpt lat="42.367914124265425" lon="11.568607436040038"><ele>25.0</ele><time>2026-03-29T15:35:49.003Z</time></trkpt><trkpt lat="42.367836147751575" lon="11.568916889007589"><ele>24.0</ele><time>2026-03-29T15:35:50.003Z</time></trkpt><trkpt lat="42.36775737120026" lon="11.56922990999967"><ele>23.0</ele><time>2026-03-29T15:35:51.003Z</time></trkpt><trkpt lat="42.36767861193061" lon="11.56953909309224"><ele>22.5</ele><time>2026-03-29T15:35:52.004Z</time></trkpt><trkpt lat="42.36759872844882" lon="11.569842810696713"><ele>22.0</ele><time>2026-03-29T15:35:53.003Z</time></trkpt><trkpt lat="42.367518218260635" lon="11.570143327161698"><ele>22.5</ele><time>2026-03-29T15:35:54.003Z</time></trkpt><trkpt lat="42.3674361776591" lon="11.570450305949741"><ele>23.0</ele><time>2026-03-29T15:35:55.003Z</time></trkpt><trkpt lat="42.36735767097941" lon="11.570755871098585"><ele>23.0</ele><time>2026-03-29T15:35:56.003Z</time></trkpt><trkpt lat="42.36727668339859" lon="11.571063639021475"><ele>23.0</ele><time>2026-03-29T15:35:57.003Z</time></trkpt><trkpt lat="42.367196208347366" lon="11.571362266983343"><ele>23.5</ele><time>2026-03-29T15:35:58.003Z</time></trkpt><trkpt lat="42.36711634257011" lon="11.571666756702138"><ele>24.0</ele><time>2026-03-29T15:35:59.003Z</time></trkpt><trkpt lat="42.36704002923582" lon="11.571970078577177"><ele>25.5</ele><time>2026-03-29T15:36:00.003Z</time></trkpt><trkpt lat="42.36696563176923" lon="11.572275064034521"><ele>27.0</ele><time>2026-03-29T15:36:01.003Z</time></trkpt><trkpt lat="42.36689621989911" lon="11.572576713042606"><ele>28.0</ele><time>2026-03-29T15:36:02.003Z</time></trkpt><trkpt lat="42.36681925590999" lon="11.572878189605403"><ele>29.0</ele><time>2026-03-29T15:36:03.003Z</time></trkpt><trkpt lat="42.36674099085626" lon="11.573178874054973"><ele>29.0</ele><time>2026-03-29T15:36:04.003Z</time></trkpt><trkpt lat="42.366668551154596" lon="11.573477053898149"><ele>29.0</ele><time>2026-03-29T15:36:05.003Z</time></trkpt><trkpt lat="42.36659760399525" lon="11.57377896343197"><ele>29.5</ele><time>2026-03-29T15:36:06.003Z</time></trkpt><trkpt lat="42.36652164755961" lon="11.574082082213376"><ele>30.0</ele><time>2026-03-29T15:36:07.003Z</time></trkpt><trkpt lat="42.366447817440026" lon="11.574383957910843"><ele>29.5</ele><time>2026-03-29T15:36:08.003Z</time></trkpt><trkpt lat="42.366370155746274" lon="11.574682923961609"><ele>29.0</ele><time>2026-03-29T15:36:09.003Z</time></trkpt><trkpt lat="42.36628136969812" lon="11.574977494944516"><ele>29.0</ele><time>2026-03-29T15:36:10.003Z</time></trkpt><trkpt lat="42.36619053426478" lon="11.57527411521323"><ele>29.0</ele><time>2026-03-29T15:36:11.003Z</time></trkpt><trkpt lat="42.3660910754014" lon="11.575568845112638"><ele>29.0</ele><time>2026-03-29T15:36:12.003Z</time></trkpt><trkpt lat="42.36598499489099" lon="11.575854581364178"><ele>29.0</ele><time>2026-03-29T15:36:13.003Z</time></trkpt><trkpt lat="42.36587381129632" lon="11.57613361484349"><ele>28.5</ele><time>2026-03-29T15:36:14.003Z</time></trkpt><trkpt lat="42.36575819813499" lon="11.57640357185992"><ele>28.0</ele><time>2026-03-29T15:36:15.003Z</time></trkpt><trkpt lat="42.36563254619118" lon="11.576671694385961"><ele>28.0</ele><time>2026-03-29T15:36:16.003Z</time></trkpt><trkpt lat="42.365504409808274" lon="11.57693489019737"><ele>28.0</ele><time>2026-03-29T15:36:17.003Z</time></trkpt><trkpt lat="42.36537648498583" lon="11.577199902893243"><ele>28.5</ele><time>2026-03-29T15:36:18.003Z</time></trkpt><trkpt lat="42.36525036414421" lon="11.577464657498815"><ele>29.0</ele><time>2026-03-29T15:36:19.003Z</time></trkpt><trkpt lat="42.36511320467256" lon="11.577730363047849"><ele>28.5</ele><time>2026-03-29T15:36:20.003Z</time></trkpt><trkpt lat="42.36497873107312" lon="11.578001596986478"><ele>28.0</ele><time>2026-03-29T15:36:21.003Z</time></trkpt><trkpt lat="42.364849938950925" lon="11.57827635570877"><ele>28.0</ele><time>2026-03-29T15:36:22.003Z</time></trkpt><trkpt lat="42.364716899204424" lon="11.578557303857403"><ele>28.0</ele><time>2026-03-29T15:36:23.003Z</time></trkpt><trkpt lat="42.364579780666375" lon="11.578839517027726"><ele>30.0</ele><time>2026-03-29T15:36:24.003Z</time></trkpt><trkpt lat="42.3644428517313" lon="11.579119926215354"><ele>32.0</ele><time>2026-03-29T15:36:25.003Z</time></trkpt><trkpt lat="42.36429365380031" lon="11.579396349081811"><ele>31.5</ele><time>2026-03-29T15:36:26.003Z</time></trkpt><trkpt lat="42.36415511566054" lon="11.5796723952475"><ele>31.0</ele><time>2026-03-29T15:36:27.003Z</time></trkpt><trkpt lat="42.36401403256686" lon="11.579945606219452"><ele>31.0</ele><time>2026-03-29T15:36:28.003Z</time></trkpt><trkpt lat="42.363876796671086" lon="11.580222399179311"><ele>31.0</ele><time>2026-03-29T15:36:29.003Z</time></trkpt><trkpt lat="42.36374158342911" lon="11.580498959973884"><ele>30.0</ele><time>2026-03-29T15:36:30.003Z</time></trkpt><trkpt lat="42.36360940549582" lon="11.580779496420215"><ele>29.0</ele><time>2026-03-29T15:36:31.003Z</time></trkpt><trkpt lat="42.36347256138533" lon="11.58105406168273"><ele>29.0</ele><time>2026-03-29T15:36:32.003Z</time></trkpt><trkpt lat="42.36333716079173" lon="11.581334435097228"><ele>29.0</ele><time>2026-03-29T15:36:33.003Z</time></trkpt><trkpt lat="42.363196878750685" lon="11.581596913261807"><ele>29.0</ele><time>2026-03-29T15:36:34.003Z</time></trkpt><trkpt lat="42.36306028765673" lon="11.581866008731998"><ele>29.0</ele><time>2026-03-29T15:36:35.003Z</time></trkpt><trkpt lat="42.36292434020162" lon="11.582131464709834"><ele>29.0</ele><time>2026-03-29T15:36:36.003Z</time></trkpt><trkpt lat="42.36277912582936" lon="11.582392311559218"><ele>29.0</ele><time>2026-03-29T15:36:37.003Z</time></trkpt><trkpt lat="42.36262770940297" lon="11.582640046415444"><ele>29.5</ele><time>2026-03-29T15:36:38.003Z</time></trkpt><trkpt lat="42.36246930898348" lon="11.58287508278236"><ele>30.0</ele><time>2026-03-29T15:36:39.003Z</time></trkpt><trkpt lat="42.362307345481724" lon="11.58310619723456"><ele>30.5</ele><time>2026-03-29T15:36:40.003Z</time></trkpt><trkpt lat="42.36213603525712" lon="11.583325069285456"><ele>31.0</ele><time>2026-03-29T15:36:41.003Z</time></trkpt><trkpt lat="42.361957609902184" lon="11.58353223455844"><ele>31.0</ele><time>2026-03-29T15:36:42.003Z</time></trkpt><trkpt lat="42.3617730820098" lon="11.583726491614385"><ele>31.0</ele><time>2026-03-29T15:36:43.003Z</time></trkpt><trkpt lat="42.36158144374067" lon="11.58390708202025"><ele>31.0</ele><time>2026-03-29T15:36:44.002Z</time></trkpt><trkpt lat="42.36138519296047" lon="11.584086150172979"><ele>31.0</ele><time>2026-03-29T15:36:45.002Z</time></trkpt><trkpt lat="42.3611882008173" lon="11.584267461533654"><ele>30.5</ele><time>2026-03-29T15:36:46.002Z</time></trkpt><trkpt lat="42.36099593376921" lon="11.584451442235121"><ele>30.0</ele><time>2026-03-29T15:36:47.002Z</time></trkpt><trkpt lat="42.36079013569434" lon="11.584632947526668"><ele>30.0</ele><time>2026-03-29T15:36:48.002Z</time></trkpt><trkpt lat="42.360592321547095" lon="11.584809891993334"><ele>30.0</ele><time>2026-03-29T15:36:49.002Z</time></trkpt><trkpt lat="42.36039621721513" lon="11.584988243090939"><ele>28.5</ele><time>2026-03-29T15:36:50.002Z</time></trkpt><trkpt lat="42.360192800910596" lon="11.585172955094722"><ele>27.0</ele><time>2026-03-29T15:36:51.002Z</time></trkpt><trkpt lat="42.359993473391135" lon="11.585358675097112"><ele>27.0</ele><time>2026-03-29T15:36:52.002Z</time></trkpt><trkpt lat="42.35979911299389" lon="11.585545643373049"><ele>27.0</ele><time>2026-03-29T15:36:53.002Z</time></trkpt><trkpt lat="42.359611161289926" lon="11.585747609200999"><ele>25.5</ele><time>2026-03-29T15:36:54.002Z</time></trkpt><trkpt lat="42.359419151179786" lon="11.585947783224267"><ele>24.0</ele><time>2026-03-29T15:36:55.002Z</time></trkpt><trkpt lat="42.359228640987325" lon="11.586160150027728"><ele>23.5</ele><time>2026-03-29T15:36:56.002Z</time></trkpt><trkpt lat="42.35904381577893" lon="11.5863759066553"><ele>23.0</ele><time>2026-03-29T15:36:57.002Z</time></trkpt><trkpt lat="42.35886925694752" lon="11.586589564432757"><ele>21.0</ele><time>2026-03-29T15:36:58.002Z</time></trkpt><trkpt lat="42.35869617675162" lon="11.586811011965464"><ele>19.0</ele><time>2026-03-29T15:36:59.002Z</time></trkpt><trkpt lat="42.35853068415694" lon="11.587032305255994"><ele>17.5</ele><time>2026-03-29T15:37:00.002Z</time></trkpt><trkpt lat="42.35836079521234" lon="11.587256911248904"><ele>16.0</ele><time>2026-03-29T15:37:01.002Z</time></trkpt><trkpt lat="42.358194657878315" lon="11.587485296379386"><ele>16.5</ele><time>2026-03-29T15:37:02.002Z</time></trkpt><trkpt lat="42.35803342226137" lon="11.587720703378103"><ele>17.0</ele><time>2026-03-29T15:37:03.002Z</time></trkpt><trkpt lat="42.35787633189881" lon="11.587963340441153"><ele>17.0</ele><time>2026-03-29T15:37:04.002Z</time></trkpt><trkpt lat="42.357721603252685" lon="11.588205307535324"><ele>17.0</ele><time>2026-03-29T15:37:05.002Z</time></trkpt><trkpt lat="42.357566907392254" lon="11.588440229408276"><ele>17.0</ele><time>2026-03-29T15:37:06.002Z</time></trkpt><trkpt lat="42.35740610445625" lon="11.588669525900606"><ele>17.0</ele><time>2026-03-29T15:37:07.002Z</time></trkpt><trkpt lat="42.35725891676786" lon="11.588913033547762"><ele>16.0</ele><time>2026-03-29T15:37:08.002Z</time></trkpt><trkpt lat="42.35713117814944" lon="11.58916198101081"><ele>15.0</ele><time>2026-03-29T15:37:09.002Z</time></trkpt><trkpt lat="42.35700991278089" lon="11.589412871559098"><ele>14.0</ele><time>2026-03-29T15:37:10.002Z</time></trkpt><trkpt lat="42.3568984652282" lon="11.58967032667886"><ele>14.0</ele><time>2026-03-29T15:37:11.002Z</time></trkpt><trkpt lat="42.356779820248775" lon="11.589930496838338"><ele>14.0</ele><time>2026-03-29T15:37:12.002Z</time></trkpt><trkpt lat="42.35666514067168" lon="11.5901899818743"><ele>14.0</ele><time>2026-03-29T15:37:13.002Z</time></trkpt><trkpt lat="42.35655232951247" lon="11.590450023643973"><ele>12.0</ele><time>2026-03-29T15:37:14.002Z</time></trkpt><trkpt lat="42.35644303702614" lon="11.590712996504434"><ele>10.0</ele><time>2026-03-29T15:37:15.002Z</time></trkpt><trkpt lat="42.35633364655472" lon="11.590971940181177"><ele>8.0</ele><time>2026-03-29T15:37:16.002Z</time></trkpt><trkpt lat="42.356224944409504" lon="11.591238987845564"><ele>8.0</ele><time>2026-03-29T15:37:17.002Z</time></trkpt><trkpt lat="42.35611957601295" lon="11.591513093395813"><ele>8.0</ele><time>2026-03-29T15:37:18.002Z</time></trkpt><trkpt lat="42.35600794867424" lon="11.59178559958632"><ele>9.5</ele><time>2026-03-29T15:37:19.002Z</time></trkpt><trkpt lat="42.355893037810546" lon="11.592053176758677"><ele>11.0</ele><time>2026-03-29T15:37:20.002Z</time></trkpt><trkpt lat="42.355773235508096" lon="11.592322691664727"><ele>11.0</ele><time>2026-03-29T15:37:21.002Z</time></trkpt><trkpt lat="42.35565554495883" lon="11.592590416703047"><ele>11.0</ele><time>2026-03-29T15:37:22.002Z</time></trkpt><trkpt lat="42.355543274073355" lon="11.592866292184706"><ele>8.5</ele><time>2026-03-29T15:37:23.002Z</time></trkpt><trkpt lat="42.35543447477218" lon="11.593141233514801"><ele>6.0</ele><time>2026-03-29T15:37:24.002Z</time></trkpt><trkpt lat="42.355321170786155" lon="11.593410823739331"><ele>6.5</ele><time>2026-03-29T15:37:25.002Z</time></trkpt><trkpt lat="42.35520034984378" lon="11.593680371033306"><ele>7.0</ele><time>2026-03-29T15:37:26.002Z</time></trkpt><trkpt lat="42.35508293621562" lon="11.593954187017669"><ele>7.0</ele><time>2026-03-29T15:37:27.002Z</time></trkpt><trkpt lat="42.35497491290254" lon="11.594221029995426"><ele>7.0</ele><time>2026-03-29T15:37:28.002Z</time></trkpt><trkpt lat="42.35485393133684" lon="11.594495267869243"><ele>7.0</ele><time>2026-03-29T15:37:29.002Z</time></trkpt><trkpt lat="42.35473600182555" lon="11.594767469661624"><ele>7.0</ele><time>2026-03-29T15:37:30.002Z</time></trkpt><trkpt lat="42.35462176325074" lon="11.595038616158424"><ele>7.0</ele><time>2026-03-29T15:37:31.002Z</time></trkpt><trkpt lat="42.35450329923346" lon="11.595308206037185"><ele>7.0</ele><time>2026-03-29T15:37:32.002Z</time></trkpt><trkpt lat="42.3543737555934" lon="11.595586250911909"><ele>7.5</ele><time>2026-03-29T15:37:33.002Z</time></trkpt><trkpt lat="42.35425487137341" lon="11.595846553399282"><ele>8.0</ele><time>2026-03-29T15:37:34.002Z</time></trkpt><trkpt lat="42.354118138585534" lon="11.596099121871578"><ele>7.666666666666666</ele><time>2026-03-29T15:37:35.002Z</time></trkpt><trkpt lat="42.35397563521988" lon="11.596335891237803"><ele>7.333333333333334</ele><time>2026-03-29T15:37:36.002Z</time></trkpt><trkpt lat="42.353821096294496" lon="11.596551408925261"><ele>7.0</ele><time>2026-03-29T15:37:37.002Z</time></trkpt><trkpt lat="42.353675337329015" lon="11.596770845637081"><ele>6.666666666666667</ele><time>2026-03-29T15:37:38.002Z</time></trkpt><trkpt lat="42.353525865199984" lon="11.596982965492428"><ele>6.333333333333334</ele><time>2026-03-29T15:37:39.002Z</time></trkpt><trkpt lat="42.35336664643205" lon="11.59719599637729"><ele>6.0</ele><time>2026-03-29T15:37:40.002Z</time></trkpt><trkpt lat="42.353197676385726" lon="11.597385541198472"><ele>6.333333333333334</ele><time>2026-03-29T15:37:41.002Z</time></trkpt><trkpt lat="42.353022198709" lon="11.597567033998232"><ele>6.666666666666667</ele><time>2026-03-29T15:37:42.002Z</time></trkpt><trkpt lat="42.352847468299586" lon="11.597741071152718"><ele>7.0</ele><time>2026-03-29T15:37:43.002Z</time></trkpt><trkpt lat="42.35267031927775" lon="11.597915637044595"><ele>7.0</ele><time>2026-03-29T15:37:44.002Z</time></trkpt><trkpt lat="42.352478281846416" lon="11.59808937159805"><ele>7.0</ele><time>2026-03-29T15:37:45.002Z</time></trkpt><trkpt lat="42.352273400978085" lon="11.598254709346188"><ele>7.5</ele><time>2026-03-29T15:37:46.004Z</time></trkpt><trkpt lat="42.35207488470875" lon="11.598417481338531"><ele>8.0</ele><time>2026-03-29T15:37:47.004Z</time></trkpt><trkpt lat="42.35187410724961" lon="11.598590980160642"><ele>10.5</ele><time>2026-03-29T15:37:48.004Z</time></trkpt><trkpt lat="42.351673571066506" lon="11.598762570092479"><ele>13.0</ele><time>2026-03-29T15:37:49.004Z</time></trkpt><trkpt lat="42.351472368222595" lon="11.598929213565802"><ele>16.0</ele><time>2026-03-29T15:37:50.004Z</time></trkpt><trkpt lat="42.351271958403196" lon="11.599097198450222"><ele>19.0</ele><time>2026-03-29T15:37:51.004Z</time></trkpt><trkpt lat="42.351083749302255" lon="11.599267672628873"><ele>19.0</ele><time>2026-03-29T15:37:52.004Z</time></trkpt><trkpt lat="42.35088809916453" lon="11.599438613759917"><ele>19.0</ele><time>2026-03-29T15:37:53.004Z</time></trkpt><trkpt lat="42.35069940441535" lon="11.599607354524723"><ele>20.333333333333332</ele><time>2026-03-29T15:37:54.004Z</time></trkpt><trkpt lat="42.35052485384634" lon="11.599777252607952"><ele>21.666666666666668</ele><time>2026-03-29T15:37:55.005Z</time></trkpt><trkpt lat="42.35034651518976" lon="11.599947063969264"><ele>23.0</ele><time>2026-03-29T15:37:56.004Z</time></trkpt><trkpt lat="42.350168858255635" lon="11.600128398339313"><ele>23.0</ele><time>2026-03-29T15:37:57.004Z</time></trkpt><trkpt lat="42.34999817682636" lon="11.60031195853678"><ele>23.0</ele><time>2026-03-29T15:37:58.004Z</time></trkpt><trkpt lat="42.3498280444569" lon="11.600501263414507"><ele>23.0</ele><time>2026-03-29T15:37:59.004Z</time></trkpt><trkpt lat="42.3496662053375" lon="11.600688194470678"><ele>24.666666666666668</ele><time>2026-03-29T15:38:00.004Z</time></trkpt><trkpt lat="42.34950365260641" lon="11.60087359572964"><ele>26.333333333333336</ele><time>2026-03-29T15:38:01.004Z</time></trkpt><trkpt lat="42.349360536598226" lon="11.60106642899381"><ele>28.0</ele><time>2026-03-29T15:38:02.004Z</time></trkpt><trkpt lat="42.34922292035012" lon="11.601260314306135"><ele>28.333333333333336</ele><time>2026-03-29T15:38:03.004Z</time></trkpt><trkpt lat="42.349091977429886" lon="11.60145725293818"><ele>28.666666666666664</ele><time>2026-03-29T15:38:04.004Z</time></trkpt><trkpt lat="42.34896653811121" lon="11.601651374566119"><ele>29.0</ele><time>2026-03-29T15:38:05.004Z</time></trkpt><trkpt lat="42.34884230330587" lon="11.601842990033418"><ele>29.333333333333332</ele><time>2026-03-29T15:38:06.004Z</time></trkpt><trkpt lat="42.348725213859495" lon="11.602032100760814"><ele>29.666666666666664</ele><time>2026-03-29T15:38:07.004Z</time></trkpt><trkpt lat="42.34862149030491" lon="11.602210084205973"><ele>30.0</ele><time>2026-03-29T15:38:08.004Z</time></trkpt><trkpt lat="42.34852402499491" lon="11.60237924051908"><ele>30.0</ele><time>2026-03-29T15:38:09.004Z</time></trkpt><trkpt lat="42.34842828996556" lon="11.602540439233568"><ele>30.0</ele><time>2026-03-29T15:38:10.004Z</time></trkpt><trkpt lat="42.34833881468905" lon="11.602694185586294"><ele>30.0</ele><time>2026-03-29T15:38:11.004Z</time></trkpt><trkpt lat="42.34824867653858" lon="11.602841298362469"><ele>30.0</ele><time>2026-03-29T15:38:12.004Z</time></trkpt><trkpt lat="42.3481667400177" lon="11.602962257962822"><ele>29.8</ele><time>2026-03-29T15:38:13.004Z</time></trkpt><trkpt lat="42.34807559603809" lon="11.60304050014764"><ele>29.6</ele><time>2026-03-29T15:38:14.004Z</time></trkpt><trkpt lat="42.34797018653236" lon="11.603090001948996"><ele>29.4</ele><time>2026-03-29T15:38:15.004Z</time></trkpt><trkpt lat="42.347865959747516" lon="11.603115085521031"><ele>29.2</ele><time>2026-03-29T15:38:16.004Z</time></trkpt><trkpt lat="42.34776790415151" lon="11.603109704729558"><ele>29.0</ele><time>2026-03-29T15:38:17.004Z</time></trkpt><trkpt lat="42.34767403847273" lon="11.603082905719761"><ele>29.6</ele><time>2026-03-29T15:38:18.004Z</time></trkpt><trkpt lat="42.34759360877563" lon="11.602970447959562"><ele>30.2</ele><time>2026-03-29T15:38:19.004Z</time></trkpt><trkpt lat="42.34749678327178" lon="11.602916973505305"><ele>30.800000000000004</ele><time>2026-03-29T15:38:20.004Z</time></trkpt><trkpt lat="42.34738743742559" lon="11.602898747530025"><ele>31.400000000000002</ele><time>2026-03-29T15:38:21.004Z</time></trkpt><trkpt lat="42.34728773901911" lon="11.602912851496246"><ele>32.0</ele><time>2026-03-29T15:38:22.004Z</time></trkpt><trkpt lat="42.34719602172005" lon="11.602954342400087"><ele>32.4</ele><time>2026-03-29T15:38:23.004Z</time></trkpt><trkpt lat="42.347116805975986" lon="11.602982026232215"><ele>32.800000000000004</ele><time>2026-03-29T15:38:24.004Z</time></trkpt><trkpt lat="42.3470195747497" lon="11.603023211697462"><ele>33.2</ele><time>2026-03-29T15:38:25.004Z</time></trkpt><trkpt lat="42.34693006385176" lon="11.602983894618838"><ele>33.6</ele><time>2026-03-29T15:38:26.004Z</time></trkpt><trkpt lat="42.346873538195474" lon="11.60292812291033"><ele>34.0</ele><time>2026-03-29T15:38:27.004Z</time></trkpt><trkpt lat="42.34678017514675" lon="11.602804730809813"><ele>34.25</ele><time>2026-03-29T15:38:29.004Z</time></trkpt><trkpt lat="42.34673316839665" lon="11.602687453247968"><ele>34.5</ele><time>2026-03-29T15:38:30.004Z</time></trkpt><trkpt lat="42.346675995753195" lon="11.602538363807602"><ele>34.75</ele><time>2026-03-29T15:38:31.004Z</time></trkpt><trkpt lat="42.34663581059948" lon="11.602342462009894"><ele>35.0</ele><time>2026-03-29T15:38:32.004Z</time></trkpt><trkpt lat="42.34652122686126" lon="11.602165502173316"><ele>35.33333333333333</ele><time>2026-03-29T15:38:33.004Z</time></trkpt><trkpt lat="42.34645058930743" lon="11.601922447957735"><ele>35.666666666666664</ele><time>2026-03-29T15:38:34.004Z</time></trkpt><trkpt lat="42.34638139414048" lon="11.601672585120035"><ele>36.0</ele><time>2026-03-29T15:38:35.004Z</time></trkpt><trkpt lat="42.34632117508546" lon="11.601436109587157"><ele>34.333333333333336</ele><time>2026-03-29T15:38:36.004Z</time></trkpt><trkpt lat="42.34628604306626" lon="11.601200446517508"><ele>32.66666666666667</ele><time>2026-03-29T15:38:37.004Z</time></trkpt><trkpt lat="42.346221197765594" lon="11.600966004560691"><ele>31.0</ele><time>2026-03-29T15:38:38.004Z</time></trkpt><trkpt lat="42.34615680753337" lon="11.600733207979163"><ele>31.0</ele><time>2026-03-29T15:38:39.004Z</time></trkpt><trkpt lat="42.346089587153116" lon="11.600490179211594"><ele>31.0</ele><time>2026-03-29T15:38:40.004Z</time></trkpt><trkpt lat="42.34600873314732" lon="11.60025254368451"><ele>31.0</ele><time>2026-03-29T15:38:41.004Z</time></trkpt><trkpt lat="42.34594541373046" lon="11.600003417048258"><ele>31.666666666666668</ele><time>2026-03-29T15:38:42.003Z</time></trkpt><trkpt lat="42.34587934259605" lon="11.599762121867064"><ele>32.333333333333336</ele><time>2026-03-29T15:38:43.003Z</time></trkpt><trkpt lat="42.34581900054642" lon="11.599526172672858"><ele>33.0</ele><time>2026-03-29T15:38:44.003Z</time></trkpt><trkpt lat="42.34576643769125" lon="11.599297860153383"><ele>33.25</ele><time>2026-03-29T15:38:45.003Z</time></trkpt><trkpt lat="42.34571260494101" lon="11.599086714917664"><ele>33.5</ele><time>2026-03-29T15:38:46.003Z</time></trkpt><trkpt lat="42.345661666051484" lon="11.598905407888056"><ele>33.75</ele><time>2026-03-29T15:38:47.003Z</time></trkpt><trkpt lat="42.34562210489498" lon="11.598765391442813"><ele>34.0</ele><time>2026-03-29T15:38:48.003Z</time></trkpt><trkpt lat="42.3456019646731" lon="11.59865545315793"><ele>33.99999999999999</ele><time>2026-03-29T15:38:49.003Z</time></trkpt><trkpt lat="42.345595739826614" lon="11.59856098131952"><ele>34.0</ele><time>2026-03-29T15:38:50.003Z</time></trkpt><trkpt lat="42.34561603631522" lon="11.59847623424145"><ele>34.0</ele><time>2026-03-29T15:38:51.003Z</time></trkpt><trkpt lat="42.34564604500364" lon="11.598382901577187"><ele>34.0</ele><time>2026-03-29T15:38:52.003Z</time></trkpt><trkpt lat="42.345647434842626" lon="11.598284564537908"><ele>34.0</ele><time>2026-03-29T15:38:53.003Z</time></trkpt><trkpt lat="42.34562442632844" lon="11.598197495527346"><ele>33.99999999999999</ele><time>2026-03-29T15:38:54.003Z</time></trkpt><trkpt lat="42.34557084373076" lon="11.59813263646892"><ele>34.0</ele><time>2026-03-29T15:38:55.003Z</time></trkpt><trkpt lat="42.34549974126607" lon="11.598070750075568"><ele>33.0</ele><time>2026-03-29T15:38:56.003Z</time></trkpt><trkpt lat="42.345420816119784" lon="11.597976747241818"><ele>32.0</ele><time>2026-03-29T15:38:57.003Z</time></trkpt><trkpt lat="42.34532426981646" lon="11.597857194549794"><ele>31.0</ele><time>2026-03-29T15:38:58.003Z</time></trkpt><trkpt lat="42.34521119356852" lon="11.597728620881837"><ele>30.0</ele><time>2026-03-29T15:38:59.003Z</time></trkpt><trkpt lat="42.345083214724774" lon="11.597602674452542"><ele>30.0</ele><time>2026-03-29T15:39:00.003Z</time></trkpt><trkpt lat="42.34496458830541" lon="11.59744469534724"><ele>30.0</ele><time>2026-03-29T15:39:01.003Z</time></trkpt><trkpt lat="42.344827979740536" lon="11.597293463902211"><ele>30.0</ele><time>2026-03-29T15:39:02.003Z</time></trkpt><trkpt lat="42.34468622439856" lon="11.597143360995181"><ele>30.0</ele><time>2026-03-29T15:39:03.003Z</time></trkpt><trkpt lat="42.344526768201966" lon="11.597002325178808"><ele>30.0</ele><time>2026-03-29T15:39:04.003Z</time></trkpt><trkpt lat="42.34438027129687" lon="11.596829140093703"><ele>30.0</ele><time>2026-03-29T15:39:05.003Z</time></trkpt><trkpt lat="42.3442307107235" lon="11.59668077974152"><ele>30.0</ele><time>2026-03-29T15:39:06.003Z</time></trkpt><trkpt lat="42.34409664646538" lon="11.59655040808289"><ele>30.0</ele><time>2026-03-29T15:39:07.003Z</time></trkpt><trkpt lat="42.34398148493994" lon="11.596440550000995"><ele>30.0</ele><time>2026-03-29T15:39:08.003Z</time></trkpt><trkpt lat="42.34386726130139" lon="11.596333235516969"><ele>30.0</ele><time>2026-03-29T15:39:09.003Z</time></trkpt><trkpt lat="42.34375813734824" lon="11.596230712292071"><ele>30.0</ele><time>2026-03-29T15:39:10.003Z</time></trkpt><trkpt lat="42.34364730817509" lon="11.59612658679283"><ele>30.0</ele><time>2026-03-29T15:39:11.003Z</time></trkpt><trkpt lat="42.34353959544692" lon="11.59602538940237"><ele>30.0</ele><time>2026-03-29T15:39:12.003Z</time></trkpt><trkpt lat="42.34342926362884" lon="11.595921030198403"><ele>30.0</ele><time>2026-03-29T15:39:13.003Z</time></trkpt><trkpt lat="42.34331579805501" lon="11.595813016697331"><ele>30.0</ele><time>2026-03-29T15:39:14.003Z</time></trkpt><trkpt lat="42.343197693931124" lon="11.59569839125857"><ele>30.0</ele><time>2026-03-29T15:39:15.003Z</time></trkpt><trkpt lat="42.34307476294006" lon="11.59557779070943"><ele>30.0</ele><time>2026-03-29T15:39:16.003Z</time></trkpt><trkpt lat="42.34294490851138" lon="11.595448973916504"><ele>30.333333333333336</ele><time>2026-03-29T15:39:17.003Z</time></trkpt><trkpt lat="42.34281633592434" lon="11.595316887094464"><ele>30.666666666666668</ele><time>2026-03-29T15:39:18.003Z</time></trkpt><trkpt lat="42.34268781368005" lon="11.595183752549573"><ele>31.0</ele><time>2026-03-29T15:39:19.003Z</time></trkpt><trkpt lat="42.34255893205415" lon="11.59504931489391"><ele>31.0</ele><time>2026-03-29T15:39:20.003Z</time></trkpt><trkpt lat="42.34243009810821" lon="11.594915394925698"><ele>31.0</ele><time>2026-03-29T15:39:21.003Z</time></trkpt><trkpt lat="42.342304976217044" lon="11.594786062085202"><ele>31.0</ele><time>2026-03-29T15:39:22.003Z</time></trkpt><trkpt lat="42.34218435490649" lon="11.594662398345928"><ele>30.333333333333336</ele><time>2026-03-29T15:39:23.003Z</time></trkpt><trkpt lat="42.3420625615411" lon="11.594540941480075"><ele>29.666666666666664</ele><time>2026-03-29T15:39:24.003Z</time></trkpt><trkpt lat="42.34193381452203" lon="11.59441589140478"><ele>29.0</ele><time>2026-03-29T15:39:25.003Z</time></trkpt><trkpt lat="42.34179973416579" lon="11.5942939602021"><ele>28.666666666666664</ele><time>2026-03-29T15:39:26.003Z</time></trkpt><trkpt lat="42.341662169404565" lon="11.594176761878185"><ele>28.333333333333336</ele><time>2026-03-29T15:39:27.003Z</time></trkpt><trkpt lat="42.341520893567925" lon="11.594065686676826"><ele>28.0</ele><time>2026-03-29T15:39:28.003Z</time></trkpt><trkpt lat="42.34138432706933" lon="11.593964169420692"><ele>28.0</ele><time>2026-03-29T15:39:29.003Z</time></trkpt><trkpt lat="42.3412589064979" lon="11.593872691656617"><ele>28.0</ele><time>2026-03-29T15:39:30.003Z</time></trkpt><trkpt lat="42.34114079074849" lon="11.593787322834544"><ele>28.0</ele><time>2026-03-29T15:39:31.003Z</time></trkpt><trkpt lat="42.341027480640385" lon="11.593708379608316"><ele>28.0</ele><time>2026-03-29T15:39:32.003Z</time></trkpt><trkpt lat="42.34091780170726" lon="11.593654605255368"><ele>28.0</ele><time>2026-03-29T15:39:33.003Z</time></trkpt><trkpt lat="42.34082560003142" lon="11.593551049031829"><ele>27.999999999999996</ele><time>2026-03-29T15:39:34.003Z</time></trkpt><trkpt lat="42.34073111985941" lon="11.593476507771072"><ele>27.999999999999996</ele><time>2026-03-29T15:39:35.003Z</time></trkpt><trkpt lat="42.34064071547383" lon="11.593408607766591"><ele>28.0</ele><time>2026-03-29T15:39:36.003Z</time></trkpt><trkpt lat="42.3405505616284" lon="11.593344432493842"><ele>28.0</ele><time>2026-03-29T15:39:37.003Z</time></trkpt><trkpt lat="42.34046197951387" lon="11.59328626019502"><ele>27.75</ele><time>2026-03-29T15:39:38.003Z</time></trkpt><trkpt lat="42.3403671430959" lon="11.593217571563724"><ele>27.5</ele><time>2026-03-29T15:39:39.003Z</time></trkpt><trkpt lat="42.34026557548445" lon="11.593148441598897"><ele>27.25</ele><time>2026-03-29T15:39:40.003Z</time></trkpt><trkpt lat="42.3401569440302" lon="11.593073853897073"><ele>27.0</ele><time>2026-03-29T15:39:41.003Z</time></trkpt><trkpt lat="42.34004264131501" lon="11.593002034114573"><ele>27.0</ele><time>2026-03-29T15:39:42.003Z</time></trkpt><trkpt lat="42.3399190502642" lon="11.592929496184876"><ele>27.0</ele><time>2026-03-29T15:39:43.003Z</time></trkpt><trkpt lat="42.33978774551656" lon="11.59284392460045"><ele>27.0</ele><time>2026-03-29T15:39:44.003Z</time></trkpt><trkpt lat="42.339651563846175" lon="11.592757796939589"><ele>27.0</ele><time>2026-03-29T15:39:45.003Z</time></trkpt><trkpt lat="42.33950914261402" lon="11.592668833762515"><ele>26.0</ele><time>2026-03-29T15:39:46.003Z</time></trkpt><trkpt lat="42.3393581590353" lon="11.592571913158144"><ele>25.0</ele><time>2026-03-29T15:39:47.003Z</time></trkpt><trkpt lat="42.33920312865404" lon="11.592471025849889"><ele>24.0</ele><time>2026-03-29T15:39:48.003Z</time></trkpt><trkpt lat="42.33904451896548" lon="11.592352838163091"><ele>23.333333333333332</ele><time>2026-03-29T15:39:49.003Z</time></trkpt><trkpt lat="42.33887857524357" lon="11.592255249249172"><ele>22.666666666666664</ele><time>2026-03-29T15:39:50.003Z</time></trkpt><trkpt lat="42.338716064780364" lon="11.592140980996197"><ele>22.0</ele><time>2026-03-29T15:39:51.003Z</time></trkpt><trkpt lat="42.33855860010551" lon="11.592046011644205"><ele>22.666666666666664</ele><time>2026-03-29T15:39:52.005Z</time></trkpt><trkpt lat="42.33840252246077" lon="11.591947969016738"><ele>23.333333333333332</ele><time>2026-03-29T15:39:53.004Z</time></trkpt><trkpt lat="42.33824817609264" lon="11.591845141378062"><ele>24.0</ele><time>2026-03-29T15:39:54.004Z</time></trkpt><trkpt lat="42.33809665705256" lon="11.591743889639822"><ele>22.666666666666668</ele><time>2026-03-29T15:39:55.005Z</time></trkpt><trkpt lat="42.33796262933964" lon="11.591610795138877"><ele>21.333333333333336</ele><time>2026-03-29T15:39:56.005Z</time></trkpt><trkpt lat="42.3378217191343" lon="11.591486574981401"><ele>20.0</ele><time>2026-03-29T15:39:57.005Z</time></trkpt><trkpt lat="42.337680319228454" lon="11.591353716008863"><ele>20.0</ele><time>2026-03-29T15:39:58.004Z</time></trkpt><trkpt lat="42.337539590039" lon="11.591213435889793"><ele>20.0</ele><time>2026-03-29T15:39:59.005Z</time></trkpt><trkpt lat="42.33739587385278" lon="11.591062288911449"><ele>20.0</ele><time>2026-03-29T15:40:00.005Z</time></trkpt><trkpt lat="42.33725189189387" lon="11.590904432503242"><ele>18.666666666666668</ele><time>2026-03-29T15:40:01.005Z</time></trkpt><trkpt lat="42.337113992659745" lon="11.590742221999887"><ele>17.333333333333332</ele><time>2026-03-29T15:40:02.005Z</time></trkpt><trkpt lat="42.33698567476364" lon="11.59052900378154"><ele>16.0</ele><time>2026-03-29T15:40:03.005Z</time></trkpt><trkpt lat="42.33686156408096" lon="11.590353335417943"><ele>16.333333333333332</ele><time>2026-03-29T15:40:04.005Z</time></trkpt><trkpt lat="42.33674102243864" lon="11.590182346402708"><ele>16.666666666666668</ele><time>2026-03-29T15:40:05.004Z</time></trkpt><trkpt lat="42.33661375228242" lon="11.590005302035097"><ele>17.0</ele><time>2026-03-29T15:40:06.004Z</time></trkpt><trkpt lat="42.33648797060929" lon="11.589837103786866"><ele>16.333333333333336</ele><time>2026-03-29T15:40:07.004Z</time></trkpt><trkpt lat="42.33636770571974" lon="11.589668267207143"><ele>15.666666666666668</ele><time>2026-03-29T15:40:08.004Z</time></trkpt><trkpt lat="42.33625088782314" lon="11.58950926312976"><ele>15.0</ele><time>2026-03-29T15:40:09.004Z</time></trkpt><trkpt lat="42.33613762365861" lon="11.589357336514855"><ele>15.0</ele><time>2026-03-29T15:40:10.004Z</time></trkpt><trkpt lat="42.33603301099512" lon="11.589214306390454"><ele>15.0</ele><time>2026-03-29T15:40:11.004Z</time></trkpt><trkpt lat="42.33592822416439" lon="11.589064537871389"><ele>15.0</ele><time>2026-03-29T15:40:12.004Z</time></trkpt><trkpt lat="42.33582827416243" lon="11.588930191315137"><ele>15.0</ele><time>2026-03-29T15:40:13.004Z</time></trkpt><trkpt lat="42.33572393060128" lon="11.588797050498764"><ele>15.0</ele><time>2026-03-29T15:40:14.004Z</time></trkpt><trkpt lat="42.33562666104636" lon="11.588676723078837"><ele>15.0</ele><time>2026-03-29T15:40:15.004Z</time></trkpt><trkpt lat="42.33553017367242" lon="11.588576044532976"><ele>15.0</ele><time>2026-03-29T15:40:16.004Z</time></trkpt><trkpt lat="42.335429515398474" lon="11.588462497084691"><ele>15.0</ele><time>2026-03-29T15:40:17.004Z</time></trkpt><trkpt lat="42.33533013689367" lon="11.588339118758068"><ele>13.5</ele><time>2026-03-29T15:40:18.004Z</time></trkpt><trkpt lat="42.335245070459266" lon="11.588202839016164"><ele>12.0</ele><time>2026-03-29T15:40:19.004Z</time></trkpt><trkpt lat="42.33516731878558" lon="11.58806241764622"><ele>10.5</ele><time>2026-03-29T15:40:20.004Z</time></trkpt><trkpt lat="42.3350977549162" lon="11.587907747607595"><ele>9.0</ele><time>2026-03-29T15:40:21.004Z</time></trkpt><trkpt lat="42.33503425612752" lon="11.58775887289227"><ele>7.75</ele><time>2026-03-29T15:40:22.004Z</time></trkpt><trkpt lat="42.334971549049534" lon="11.58761564369696"><ele>6.5</ele><time>2026-03-29T15:40:23.004Z</time></trkpt><trkpt lat="42.33491530548018" lon="11.587469969787866"><ele>5.25</ele><time>2026-03-29T15:40:24.004Z</time></trkpt><trkpt lat="42.33485740662613" lon="11.587329973142444"><ele>4.0</ele><time>2026-03-29T15:40:25.004Z</time></trkpt><trkpt lat="42.33480184050106" lon="11.587197501787053"><ele>4.0</ele><time>2026-03-29T15:40:26.004Z</time></trkpt><trkpt lat="42.334753896121214" lon="11.587075453572597"><ele>4.0</ele><time>2026-03-29T15:40:27.004Z</time></trkpt><trkpt lat="42.334720136150395" lon="11.586969936258148"><ele>4.0</ele><time>2026-03-29T15:40:28.004Z</time></trkpt><trkpt lat="42.334694937169694" lon="11.58688291504316"><ele>4.0</ele><time>2026-03-29T15:40:29.004Z</time></trkpt><trkpt lat="42.3346649704211" lon="11.586729936452034"><ele>4.0</ele><time>2026-03-29T15:40:31.004Z</time></trkpt><trkpt lat="42.33467501021319" lon="11.586551192569189"><ele>3.714285714285714</ele><time>2026-03-29T15:40:33.004Z</time></trkpt><trkpt lat="42.33467187068854" lon="11.586456581419345"><ele>3.428571428571428</ele><time>2026-03-29T15:40:34.004Z</time></trkpt><trkpt lat="42.334650264491195" lon="11.586369566047496"><ele>3.142857142857143</ele><time>2026-03-29T15:40:35.004Z</time></trkpt><trkpt lat="42.33460943769104" lon="11.586302406256877"><ele>2.8571428571428568</ele><time>2026-03-29T15:40:36.004Z</time></trkpt><trkpt lat="42.3345535814266" lon="11.58624748230471"><ele>2.571428571428571</ele><time>2026-03-29T15:40:37.004Z</time></trkpt><trkpt lat="42.334490736117274" lon="11.586207836784869"><ele>2.2857142857142856</ele><time>2026-03-29T15:40:38.004Z</time></trkpt><trkpt lat="42.33442840225652" lon="11.58614680630684"><ele>2.0</ele><time>2026-03-29T15:40:39.004Z</time></trkpt><trkpt lat="42.33438125121449" lon="11.586045405582325"><ele>1.8</ele><time>2026-03-29T15:40:40.004Z</time></trkpt><trkpt lat="42.33433991841838" lon="11.585932326562267"><ele>1.6</ele><time>2026-03-29T15:40:41.004Z</time></trkpt><trkpt lat="42.33431452507275" lon="11.585800581469938"><ele>1.4000000000000001</ele><time>2026-03-29T15:40:42.004Z</time></trkpt><trkpt lat="42.33427005778103" lon="11.585664439347031"><ele>1.2000000000000002</ele><time>2026-03-29T15:40:43.004Z</time></trkpt><trkpt lat="42.33422203992304" lon="11.585517426738514"><ele>1.0</ele><time>2026-03-29T15:40:44.004Z</time></trkpt><trkpt lat="42.334161513198254" lon="11.585380784413688"><ele>1.25</ele><time>2026-03-29T15:40:45.004Z</time></trkpt><trkpt lat="42.33412243737501" lon="11.58521696704824"><ele>1.5</ele><time>2026-03-29T15:40:46.004Z</time></trkpt><trkpt lat="42.33407622777575" lon="11.585067133094654"><ele>1.75</ele><time>2026-03-29T15:40:47.004Z</time></trkpt><trkpt lat="42.334024637685" lon="11.584917327963355"><ele>2.0</ele><time>2026-03-29T15:40:48.004Z</time></trkpt><trkpt lat="42.33397341088955" lon="11.584759682582037"><ele>2.0</ele><time>2026-03-29T15:40:49.004Z</time></trkpt><trkpt lat="42.33392673465368" lon="11.584610780401412"><ele>2.0</ele><time>2026-03-29T15:40:50.004Z</time></trkpt><trkpt lat="42.33387312191398" lon="11.58445384876469"><ele>2.0</ele><time>2026-03-29T15:40:51.004Z</time></trkpt><trkpt lat="42.33380481174518" lon="11.584280780305104"><ele>2.0</ele><time>2026-03-29T15:40:52.004Z</time></trkpt><trkpt lat="42.33373219984987" lon="11.584069681488653"><ele>2.0</ele><time>2026-03-29T15:40:53.004Z</time></trkpt><trkpt lat="42.33365254126522" lon="11.583826464823868"><ele>2.0</ele><time>2026-03-29T15:40:54.004Z</time></trkpt><trkpt lat="42.333574939303844" lon="11.58355010776978"><ele>2.0</ele><time>2026-03-29T15:40:55.004Z</time></trkpt><trkpt lat="42.3334664311058" lon="11.583268473945257"><ele>1.3333333333333333</ele><time>2026-03-29T15:40:56.004Z</time></trkpt><trkpt lat="42.33337668266061" lon="11.58299419818645"><ele>0.6666666666666666</ele><time>2026-03-29T15:40:57.004Z</time></trkpt><trkpt lat="42.33329207926799" lon="11.582720095339804"><ele>0.0</ele><time>2026-03-29T15:40:58.004Z</time></trkpt><trkpt lat="42.333212499907106" lon="11.582443515092924"><ele>0.0</ele><time>2026-03-29T15:40:59.004Z</time></trkpt><trkpt lat="42.33313626794511" lon="11.58217620718599"><ele>0.0</ele><time>2026-03-29T15:41:00.004Z</time></trkpt><trkpt lat="42.33305319293509" lon="11.581918580037915"><ele>0.0</ele><time>2026-03-29T15:41:01.004Z</time></trkpt><trkpt lat="42.332970112124436" lon="11.581660224768344"><ele>0.0</ele><time>2026-03-29T15:41:02.004Z</time></trkpt><trkpt lat="42.33288619849512" lon="11.581403027104304"><ele>0.0</ele><time>2026-03-29T15:41:03.004Z</time></trkpt><trkpt lat="42.3328049225278" lon="11.581161259577584"><ele>0.0</ele><time>2026-03-29T15:41:04.004Z</time></trkpt><trkpt lat="42.332726247724295" lon="11.580930125766253"><ele>0.0</ele><time>2026-03-29T15:41:05.004Z</time></trkpt><trkpt lat="42.332649441104266" lon="11.580716143512529"><ele>0.0</ele><time>2026-03-29T15:41:06.004Z</time></trkpt><trkpt lat="42.332576214769006" lon="11.580506085219529"><ele>0.0</ele><time>2026-03-29T15:41:07.004Z</time></trkpt><trkpt lat="42.33250493060553" lon="11.580296196138638"><ele>0.6666666666666666</ele><time>2026-03-29T15:41:08.004Z</time></trkpt><trkpt lat="42.332432280591185" lon="11.58009209352398"><ele>1.3333333333333333</ele><time>2026-03-29T15:41:09.004Z</time></trkpt><trkpt lat="42.33235860268611" lon="11.579874218839686"><ele>2.0</ele><time>2026-03-29T15:41:10.004Z</time></trkpt><trkpt lat="42.33228654676921" lon="11.57965700875891"><ele>1.3333333333333333</ele><time>2026-03-29T15:41:11.004Z</time></trkpt><trkpt lat="42.33221568843044" lon="11.57943394290018"><ele>0.6666666666666666</ele><time>2026-03-29T15:41:12.004Z</time></trkpt><trkpt lat="42.33215127950731" lon="11.579215926514802"><ele>0.0</ele><time>2026-03-29T15:41:13.004Z</time></trkpt><trkpt lat="42.332085537202914" lon="11.579013837266174"><ele>0.0</ele><time>2026-03-29T15:41:14.004Z</time></trkpt><trkpt lat="42.33201909508542" lon="11.578824831972446"><ele>0.0</ele><time>2026-03-29T15:41:15.004Z</time></trkpt><trkpt lat="42.33195448707837" lon="11.57863247281582"><ele>0.0</ele><time>2026-03-29T15:41:16.004Z</time></trkpt><trkpt lat="42.33189715010448" lon="11.578451589921436"><ele>0.0</ele><time>2026-03-29T15:41:17.003Z</time></trkpt><trkpt lat="42.331843299306236" lon="11.57827100722204"><ele>0.0</ele><time>2026-03-29T15:41:18.003Z</time></trkpt><trkpt lat="42.331784812597355" lon="11.578109845089221"><ele>0.0</ele><time>2026-03-29T15:41:19.003Z</time></trkpt><trkpt lat="42.33172631913001" lon="11.577960856681877"><ele>0.0</ele><time>2026-03-29T15:41:20.003Z</time></trkpt><trkpt lat="42.33165892436264" lon="11.577831871572585"><ele>0.0</ele><time>2026-03-29T15:41:21.003Z</time></trkpt><trkpt lat="42.33158143630732" lon="11.577720446190126"><ele>0.0</ele><time>2026-03-29T15:41:22.003Z</time></trkpt><trkpt lat="42.33148960028592" lon="11.577648477608896"><ele>0.0</ele><time>2026-03-29T15:41:23.003Z</time></trkpt><trkpt lat="42.33139344481896" lon="11.57757234089813"><ele>0.0</ele><time>2026-03-29T15:41:24.003Z</time></trkpt><trkpt lat="42.3312833717869" lon="11.577517876471024"><ele>0.0</ele><time>2026-03-29T15:41:25.003Z</time></trkpt><trkpt lat="42.33118450703305" lon="11.577454182599407"><ele>0.0</ele><time>2026-03-29T15:41:26.003Z</time></trkpt><trkpt lat="42.331087495173676" lon="11.577388131529887"><ele>0.0</ele><time>2026-03-29T15:41:27.003Z</time></trkpt><trkpt lat="42.330996928495864" lon="11.577333967037566"><ele>0.0</ele><time>2026-03-29T15:41:28.003Z</time></trkpt><trkpt lat="42.3309028203782" lon="11.577287645401936"><ele>0.0</ele><time>2026-03-29T15:41:29.003Z</time></trkpt><trkpt lat="42.33081796300817" lon="11.577236509122288"><ele>0.0</ele><time>2026-03-29T15:41:30.003Z</time></trkpt><trkpt lat="42.33074821616321" lon="11.57716312618637"><ele>0.0</ele><time>2026-03-29T15:41:31.003Z</time></trkpt><trkpt lat="42.33068405711293" lon="11.577088417793114"><ele>0.0</ele><time>2026-03-29T15:41:32.003Z</time></trkpt><trkpt lat="42.330634105648926" lon="11.576992517149263"><ele>0.0</ele><time>2026-03-29T15:41:33.003Z</time></trkpt><trkpt lat="42.33056450349075" lon="11.576916545119726"><ele>0.0</ele><time>2026-03-29T15:41:34.003Z</time></trkpt><trkpt lat="42.33048953349261" lon="11.576850080924272"><ele>0.0</ele><time>2026-03-29T15:41:35.003Z</time></trkpt><trkpt lat="42.33041803930766" lon="11.576792266258035"><ele>0.0</ele><time>2026-03-29T15:41:36.003Z</time></trkpt><trkpt lat="42.330343871100105" lon="11.576734371058409"><ele>0.6</ele><time>2026-03-29T15:41:37.003Z</time></trkpt><trkpt lat="42.33026769908554" lon="11.576675424018745"><ele>1.2</ele><time>2026-03-29T15:41:38.003Z</time></trkpt><trkpt lat="42.330198385506705" lon="11.576586477662424"><ele>1.7999999999999998</ele><time>2026-03-29T15:41:39.003Z</time></trkpt><trkpt lat="42.33011258573627" lon="11.576527843148307"><ele>2.4</ele><time>2026-03-29T15:41:40.003Z</time></trkpt><trkpt lat="42.33002812282535" lon="11.576476073214378"><ele>3.0</ele><time>2026-03-29T15:41:41.003Z</time></trkpt><trkpt lat="42.32994292071736" lon="11.576423850184682"><ele>3.0</ele><time>2026-03-29T15:41:42.003Z</time></trkpt><trkpt lat="42.32985541236556" lon="11.576369600565831"><ele>3.0</ele><time>2026-03-29T15:41:43.003Z</time></trkpt><trkpt lat="42.32977370748443" lon="11.576317651270829"><ele>3.0</ele><time>2026-03-29T15:41:44.003Z</time></trkpt><trkpt lat="42.329681151729496" lon="11.576283064660839"><ele>3.0</ele><time>2026-03-29T15:41:45.003Z</time></trkpt><trkpt lat="42.32959686591164" lon="11.576213494784666"><ele>3.0</ele><time>2026-03-29T15:41:46.003Z</time></trkpt><trkpt lat="42.32951124159443" lon="11.576167131469326"><ele>2.1999999999999997</ele><time>2026-03-29T15:41:47.003Z</time></trkpt><trkpt lat="42.32942216652809" lon="11.57613651367118"><ele>1.4</ele><time>2026-03-29T15:41:48.003Z</time></trkpt><trkpt lat="42.3293299292231" lon="11.576104385921084"><ele>0.5999999999999999</ele><time>2026-03-29T15:41:49.003Z</time></trkpt><trkpt lat="42.329240425559" lon="11.576073792021205"><ele>-0.20000000000000007</ele><time>2026-03-29T15:41:50.003Z</time></trkpt><trkpt lat="42.32914532084847" lon="11.576069139914809"><ele>-1.0</ele><time>2026-03-29T15:41:51.003Z</time></trkpt><trkpt lat="42.32905671766564" lon="11.576077062854884"><ele>-0.9999999999999999</ele><time>2026-03-29T15:41:52.003Z</time></trkpt><trkpt lat="42.32897292394688" lon="11.576108537439474"><ele>-1.0</ele><time>2026-03-29T15:41:53.003Z</time></trkpt><trkpt lat="42.32889865647605" lon="11.576161535823486"><ele>-1.0</ele><time>2026-03-29T15:41:54.003Z</time></trkpt><trkpt lat="42.32882688212153" lon="11.576219342972513"><ele>-1.0</ele><time>2026-03-29T15:41:55.003Z</time></trkpt><trkpt lat="42.32875313353729" lon="11.576297506803481"><ele>-0.9999999999999999</ele><time>2026-03-29T15:41:56.003Z</time></trkpt><trkpt lat="42.32869739275902" lon="11.57637426393121"><ele>-1.0</ele><time>2026-03-29T15:41:57.003Z</time></trkpt><trkpt lat="42.32863649939473" lon="11.576463238440068"><ele>-0.6666666666666666</ele><time>2026-03-29T15:41:58.006Z</time></trkpt><trkpt lat="42.32857788679546" lon="11.576556410631737"><ele>-0.3333333333333333</ele><time>2026-03-29T15:41:59.005Z</time></trkpt><trkpt lat="42.32852601007782" lon="11.57664534625394"><ele>0.0</ele><time>2026-03-29T15:42:00.005Z</time></trkpt><trkpt lat="42.328470895121875" lon="11.576728544918788"><ele>0.3333333333333333</ele><time>2026-03-29T15:42:01.005Z</time></trkpt><trkpt lat="42.32841944286164" lon="11.576815605409765"><ele>0.6666666666666666</ele><time>2026-03-29T15:42:02.005Z</time></trkpt><trkpt lat="42.328363476911626" lon="11.576890816133428"><ele>1.0</ele><time>2026-03-29T15:42:03.005Z</time></trkpt><trkpt lat="42.328305417228144" lon="11.576969993545674"><ele>1.1666666666666665</ele><time>2026-03-29T15:42:04.005Z</time></trkpt><trkpt lat="42.328246223067374" lon="11.577050954177093"><ele>1.3333333333333333</ele><time>2026-03-29T15:42:05.005Z</time></trkpt><trkpt lat="42.32819106844925" lon="11.57713265654306"><ele>1.5</ele><time>2026-03-29T15:42:06.005Z</time></trkpt><trkpt lat="42.328136699581385" lon="11.577216716972655"><ele>1.6666666666666665</ele><time>2026-03-29T15:42:07.005Z</time></trkpt><trkpt lat="42.32808011754691" lon="11.577304932835826"><ele>1.8333333333333333</ele><time>2026-03-29T15:42:08.005Z</time></trkpt><trkpt lat="42.32802511692465" lon="11.577388665418264"><ele>2.0</ele><time>2026-03-29T15:42:09.005Z</time></trkpt><trkpt lat="42.32796914546152" lon="11.577471560072004"><ele>1.9999999999999998</ele><time>2026-03-29T15:42:10.005Z</time></trkpt><trkpt lat="42.327905426712206" lon="11.577543297720073"><ele>2.0</ele><time>2026-03-29T15:42:11.005Z</time></trkpt><trkpt lat="42.32784970354097" lon="11.577623811721715"><ele>2.0</ele><time>2026-03-29T15:42:12.005Z</time></trkpt><trkpt lat="42.327787614365384" lon="11.577713224403869"><ele>2.0</ele><time>2026-03-29T15:42:13.005Z</time></trkpt><trkpt lat="42.3277292709194" lon="11.577797306464301"><ele>1.9999999999999998</ele><time>2026-03-29T15:42:14.005Z</time></trkpt><trkpt lat="42.327671644621546" lon="11.577880354936244"><ele>2.0</ele><time>2026-03-29T15:42:15.005Z</time></trkpt><trkpt lat="42.32762018071768" lon="11.577954522486683"><ele>2.333333333333333</ele><time>2026-03-29T15:42:16.005Z</time></trkpt><trkpt lat="42.327574124013616" lon="11.578020897405068"><ele>2.6666666666666665</ele><time>2026-03-29T15:42:17.005Z</time></trkpt><trkpt lat="42.32751968109504" lon="11.578099491264254"><ele>3.0</ele><time>2026-03-29T15:42:19.005Z</time></trkpt><trkpt lat="42.327469774547254" lon="11.578168337638614"><ele>3.333333333333333</ele><time>2026-03-29T15:42:22.005Z</time></trkpt><trkpt lat="42.32743064921624" lon="11.578246705836975"><ele>3.6666666666666665</ele><time>2026-03-29T15:42:25.005Z</time></trkpt><trkpt lat="42.32736878059511" lon="11.578321490240542"><ele>4.0</ele><time>2026-03-29T15:42:27.005Z</time></trkpt><trkpt lat="42.32728944025172" lon="11.578448360024531"><ele>3.9999999999999996</ele><time>2026-03-29T15:42:29.005Z</time></trkpt><trkpt lat="42.32723313069805" lon="11.578513861512166"><ele>4.0</ele><time>2026-03-29T15:42:30.005Z</time></trkpt><trkpt lat="42.3271805588803" lon="11.578590039596184"><ele>4.0</ele><time>2026-03-29T15:42:31.005Z</time></trkpt><trkpt lat="42.32712765046725" lon="11.578666707270894"><ele>4.0</ele><time>2026-03-29T15:42:32.005Z</time></trkpt><trkpt lat="42.32707470065193" lon="11.578742876807828"><ele>3.9999999999999996</ele><time>2026-03-29T15:42:33.005Z</time></trkpt><trkpt lat="42.32701855355433" lon="11.578823975905076"><ele>4.0</ele><time>2026-03-29T15:42:34.005Z</time></trkpt><trkpt lat="42.32696022786537" lon="11.578908844736326"><ele>3.4999999999999996</ele><time>2026-03-29T15:42:35.005Z</time></trkpt><trkpt lat="42.32690099105738" lon="11.578995039302157"><ele>3.0</ele><time>2026-03-29T15:42:36.005Z</time></trkpt><trkpt lat="42.32684287362565" lon="11.579079605102708"><ele>2.5</ele><time>2026-03-29T15:42:37.005Z</time></trkpt><trkpt lat="42.326784920422135" lon="11.579163932687516"><ele>2.0</ele><time>2026-03-29T15:42:38.005Z</time></trkpt><trkpt lat="42.3267291568732" lon="11.579244638758848"><ele>1.5</ele><time>2026-03-29T15:42:39.005Z</time></trkpt><trkpt lat="42.32667197524782" lon="11.579327460270468"><ele>1.0</ele><time>2026-03-29T15:42:40.005Z</time></trkpt><trkpt lat="42.326618803366564" lon="11.579404474004559"><ele>0.9999999999999999</ele><time>2026-03-29T15:42:41.005Z</time></trkpt><trkpt lat="42.32656506628974" lon="11.57948230652011"><ele>1.0</ele><time>2026-03-29T15:42:42.005Z</time></trkpt><trkpt lat="42.32650512013057" lon="11.579569132284414"><ele>1.0</ele><time>2026-03-29T15:42:43.005Z</time></trkpt><trkpt lat="42.32645151844624" lon="11.579646691891792"><ele>1.0</ele><time>2026-03-29T15:42:44.005Z</time></trkpt><trkpt lat="42.326397099222554" lon="11.579728331520943"><ele>0.9999999999999999</ele><time>2026-03-29T15:42:45.005Z</time></trkpt><trkpt lat="42.32633882605638" lon="11.579802455663023"><ele>1.0</ele><time>2026-03-29T15:42:46.005Z</time></trkpt><trkpt lat="42.326286346177916" lon="11.579872081237946"><ele>1.0</ele><time>2026-03-29T15:42:47.005Z</time></trkpt><trkpt lat="42.326236286615774" lon="11.579942353655875"><ele>0.9999999999999999</ele><time>2026-03-29T15:42:48.005Z</time></trkpt><trkpt lat="42.326189192163326" lon="11.580016541080372"><ele>1.0</ele><time>2026-03-29T15:42:49.005Z</time></trkpt><trkpt lat="42.32613974231951" lon="11.580082423430113"><ele>1.0</ele><time>2026-03-29T15:42:50.005Z</time></trkpt><trkpt lat="42.326110234636964" lon="11.580166826611341"><ele>0.9999999999999999</ele><time>2026-03-29T15:42:51.004Z</time></trkpt><trkpt lat="42.32606529651535" lon="11.580237332007249"><ele>1.0</ele><time>2026-03-29T15:42:52.004Z</time></trkpt><trkpt lat="42.326007170012545" lon="11.580297089145208"><ele>1.0</ele><time>2026-03-29T15:42:53.004Z</time></trkpt><trkpt lat="42.32596340248182" lon="11.580367398246874"><ele>1.1666666666666665</ele><time>2026-03-29T15:42:54.004Z</time></trkpt><trkpt lat="42.32591756136453" lon="11.580440215123815"><ele>1.3333333333333333</ele><time>2026-03-29T15:42:55.004Z</time></trkpt><trkpt lat="42.32587607541476" lon="11.58050646975815"><ele>1.5</ele><time>2026-03-29T15:42:56.004Z</time></trkpt><trkpt lat="42.32579514230571" lon="11.580633709687138"><ele>1.6666666666666665</ele><time>2026-03-29T15:42:58.004Z</time></trkpt><trkpt lat="42.32575356007342" lon="11.580704424554389"><ele>1.8333333333333333</ele><time>2026-03-29T15:42:59.004Z</time></trkpt><trkpt lat="42.32571096637547" lon="11.580770321262946"><ele>2.0</ele><time>2026-03-29T15:43:00.004Z</time></trkpt><trkpt lat="42.325664738362896" lon="11.580845375104374"><ele>1.9999999999999998</ele><time>2026-03-29T15:43:01.004Z</time></trkpt><trkpt lat="42.32561846282886" lon="11.580918970860576"><ele>2.0</ele><time>2026-03-29T15:43:02.004Z</time></trkpt><trkpt lat="42.32557129367469" lon="11.580992805301513"><ele>2.0</ele><time>2026-03-29T15:43:03.004Z</time></trkpt><trkpt lat="42.32549117384993" lon="11.581118000679465"><ele>2.0</ele><time>2026-03-29T15:43:05.004Z</time></trkpt><trkpt lat="42.32544876545913" lon="11.581183872753018"><ele>1.9999999999999998</ele><time>2026-03-29T15:43:06.004Z</time></trkpt><trkpt lat="42.32538746611979" lon="11.581233638724846"><ele>2.0</ele><time>2026-03-29T15:43:07.004Z</time></trkpt><trkpt lat="42.32529849566502" lon="11.581355730018446"><ele>2.0</ele><time>2026-03-29T15:43:09.004Z</time></trkpt><trkpt lat="42.32525051207108" lon="11.58142190547371"><ele>1.9999999999999998</ele><time>2026-03-29T15:43:10.004Z</time></trkpt><trkpt lat="42.325203294143115" lon="11.581498387930132"><ele>2.0</ele><time>2026-03-29T15:43:11.004Z</time></trkpt><trkpt lat="42.32515777938809" lon="11.581570041952684"><ele>2.0</ele><time>2026-03-29T15:43:12.004Z</time></trkpt><trkpt lat="42.32510863975551" lon="11.581643991088422"><ele>1.9999999999999998</ele><time>2026-03-29T15:43:13.004Z</time></trkpt><trkpt lat="42.325056439228405" lon="11.581719937743923"><ele>2.0</ele><time>2026-03-29T15:43:14.004Z</time></trkpt><trkpt lat="42.325004166701625" lon="11.581788520449749"><ele>2.0</ele><time>2026-03-29T15:43:15.004Z</time></trkpt><trkpt lat="42.3249533782237" lon="11.581854680056523"><ele>2.0</ele><time>2026-03-29T15:43:16.004Z</time></trkpt><trkpt lat="42.32490671057001" lon="11.581929170180613"><ele>1.9999999999999998</ele><time>2026-03-29T15:43:17.004Z</time></trkpt><trkpt lat="42.32485660359939" lon="11.582005481163723"><ele>2.0</ele><time>2026-03-29T15:43:18.004Z</time></trkpt><trkpt lat="42.324808663735936" lon="11.582080927890143"><ele>2.0</ele><time>2026-03-29T15:43:19.004Z</time></trkpt><trkpt lat="42.3247651001086" lon="11.582152835800324"><ele>1.9999999999999998</ele><time>2026-03-29T15:43:20.004Z</time></trkpt><trkpt lat="42.3247170938314" lon="11.582225488549309"><ele>2.0</ele><time>2026-03-29T15:43:21.004Z</time></trkpt><trkpt lat="42.324673523885515" lon="11.58230169271476"><ele>2.0</ele><time>2026-03-29T15:43:22.004Z</time></trkpt><trkpt lat="42.32462349508048" lon="11.582365196217001"><ele>1.5</ele><time>2026-03-29T15:43:23.004Z</time></trkpt><trkpt lat="42.32454173285292" lon="11.582483584848548"><ele>1.0</ele><time>2026-03-29T15:43:25.004Z</time></trkpt><trkpt lat="42.324460576816065" lon="11.582608905277596"><ele>0.5</ele><time>2026-03-29T15:43:27.004Z</time></trkpt><trkpt lat="42.324375663114324" lon="11.58272722102268"><ele>0.0</ele><time>2026-03-29T15:43:29.004Z</time></trkpt><trkpt lat="42.32428593992798" lon="11.582837257922154"><ele>0.0</ele><time>2026-03-29T15:43:31.004Z</time></trkpt><trkpt lat="42.32421409244281" lon="11.58294091151406"><ele>0.0</ele><time>2026-03-29T15:43:33.004Z</time></trkpt><trkpt lat="42.32416343927641" lon="11.583013988355818"><ele>0.0</ele><time>2026-03-29T15:43:35.004Z</time></trkpt><trkpt lat="42.324098214112745" lon="11.583108087913027"><ele>0.0</ele><time>2026-03-29T15:43:38.004Z</time></trkpt><trkpt lat="42.32403890806666" lon="11.58319364815551"><ele>0.0</ele><time>2026-03-29T15:43:41.004Z</time></trkpt><trkpt lat="42.323997496781885" lon="11.583260770362584"><ele>0.0</ele><time>2026-03-29T15:43:43.004Z</time></trkpt><trkpt lat="42.323946567920125" lon="11.58331948710211"><ele>0.0</ele><time>2026-03-29T15:43:45.004Z</time></trkpt><trkpt lat="42.32388686572527" lon="11.583417950018182"><ele>0.0</ele><time>2026-03-29T15:43:48.004Z</time></trkpt><trkpt lat="42.3238303466814" lon="11.583483234956304"><ele>0.0</ele><time>2026-03-29T15:43:50.004Z</time></trkpt><trkpt lat="42.323780003151754" lon="11.583548472104553"><ele>0.0</ele><time>2026-03-29T15:43:52.004Z</time></trkpt><trkpt lat="42.3237307753463" lon="11.583615542656089"><ele>0.0</ele><time>2026-03-29T15:43:54.004Z</time></trkpt><trkpt lat="42.32368091667773" lon="11.583699694380915"><ele>0.0</ele><time>2026-03-29T15:43:56.004Z</time></trkpt><trkpt lat="42.32363360905575" lon="11.583791834685258"><ele>0.0</ele><time>2026-03-29T15:43:58.004Z</time></trkpt><trkpt lat="42.32356521999293" lon="11.583867865639238"><ele>0.0</ele><time>2026-03-29T15:44:00.004Z</time></trkpt><trkpt lat="42.323501431698425" lon="11.583960829899617"><ele>0.0</ele><time>2026-03-29T15:44:02.004Z</time></trkpt><trkpt lat="42.32344046814909" lon="11.584057465378415"><ele>0.0</ele><time>2026-03-29T15:44:04.005Z</time></trkpt><trkpt lat="42.32338920466741" lon="11.584147789877774"><ele>0.0</ele><time>2026-03-29T15:44:06.006Z</time></trkpt><trkpt lat="42.32331876344" lon="11.584213747218941"><ele>0.0</ele><time>2026-03-29T15:44:08.006Z</time></trkpt><trkpt lat="42.32327127289491" lon="11.584279722709157"><ele>0.0</ele><time>2026-03-29T15:44:10.006Z</time></trkpt><trkpt lat="42.323231544422036" lon="11.584350128524031"><ele>0.0</ele><time>2026-03-29T15:44:12.006Z</time></trkpt><trkpt lat="42.32318239527631" lon="11.584412906255613"><ele>0.0</ele><time>2026-03-29T15:44:21.005Z</time></trkpt><trkpt lat="42.32313601988711" lon="11.58450160857976"><ele>0.0</ele><time>2026-03-29T15:44:24.005Z</time></trkpt><trkpt lat="42.32308888682247" lon="11.584559010173926"><ele>0.0</ele><time>2026-03-29T15:44:26.005Z</time></trkpt><trkpt lat="42.32302528533293" lon="11.584635389058922"><ele>0.0</ele><time>2026-03-29T15:44:29.005Z</time></trkpt><trkpt lat="42.32296746677989" lon="11.584719067371353"><ele>0.0</ele><time>2026-03-29T15:44:33.005Z</time></trkpt><trkpt lat="42.32292079826663" lon="11.58480189693872"><ele>0.14285714285714285</ele><time>2026-03-29T15:44:37.005Z</time></trkpt><trkpt lat="42.32286427521748" lon="11.5848941710782"><ele>0.2857142857142857</ele><time>2026-03-29T15:44:41.005Z</time></trkpt><trkpt lat="42.322823148593415" lon="11.584967128716723"><ele>0.42857142857142855</ele><time>2026-03-29T15:44:43.005Z</time></trkpt><trkpt lat="42.32277150179588" lon="11.58504365378078"><ele>0.5714285714285714</ele><time>2026-03-29T15:44:46.005Z</time></trkpt><trkpt lat="42.32271700583424" lon="11.585093852759808"><ele>0.7142857142857142</ele><time>2026-03-29T15:44:49.005Z</time></trkpt><trkpt lat="42.32268134093016" lon="11.585176741565506"><ele>0.8571428571428571</ele><time>2026-03-29T15:44:52.005Z</time></trkpt><trkpt lat="42.322621145188094" lon="11.585232006479227"><ele>1.0</ele><time>2026-03-29T15:44:56.005Z</time></trkpt><trkpt lat="42.322577517905046" lon="11.585298883838375"><ele>0.9999999999999999</ele><time>2026-03-29T15:47:37.005Z</time></trkpt><trkpt lat="42.32251064176027" lon="11.585291741548962"><ele>1.0</ele><time>2026-03-29T15:47:43.005Z</time></trkpt><trkpt lat="42.32251309201106" lon="11.585204348222842"><ele>1.0</ele><time>2026-03-29T15:47:55.004Z</time></trkpt><trkpt lat="42.322577082897055" lon="11.585261292412119"><ele>1.0</ele><time>2026-03-29T15:50:33.003Z</time></trkpt><trkpt lat="42.32255872920137" lon="11.585351237359783"><ele>0.9999999999999999</ele><time>2026-03-29T15:53:55.991Z</time></trkpt><trkpt lat="42.322500078482626" lon="11.585417252024305"><ele>1.0</ele><time>2026-03-29T15:53:57.991Z</time></trkpt><trkpt lat="42.322434074784425" lon="11.585517329186233"><ele>1.0</ele><time>2026-03-29T15:53:59.991Z</time></trkpt><trkpt lat="42.322373409771664" lon="11.585633718338853"><ele>1.0</ele><time>2026-03-29T15:54:02.991Z</time></trkpt><trkpt lat="42.32230329946786" lon="11.585735415807953"><ele>1.0</ele><time>2026-03-29T15:54:04.991Z</time></trkpt><trkpt lat="42.322236186457445" lon="11.585835127114484"><ele>1.0</ele><time>2026-03-29T15:54:06.991Z</time></trkpt><trkpt lat="42.322166889867965" lon="11.585922966013614"><ele>1.0</ele><time>2026-03-29T15:54:08.991Z</time></trkpt><trkpt lat="42.32212394197187" lon="11.586020380497487"><ele>0.9999999999999999</ele><time>2026-03-29T15:54:10.991Z</time></trkpt><trkpt lat="42.3220499235641" lon="11.586109447166425"><ele>1.0</ele><time>2026-03-29T15:54:12.991Z</time></trkpt><trkpt lat="42.32198776287783" lon="11.586185077363458"><ele>1.0</ele><time>2026-03-29T15:54:14.991Z</time></trkpt><trkpt lat="42.321930528429895" lon="11.586244879982456"><ele>1.0</ele><time>2026-03-29T15:54:16.991Z</time></trkpt><trkpt lat="42.321926658581134" lon="11.586352341585792"><ele>0.9999999999999999</ele><time>2026-03-29T15:54:18.991Z</time></trkpt><trkpt lat="42.321980780978066" lon="11.586428929958236"><ele>1.0</ele><time>2026-03-29T15:54:20.991Z</time></trkpt><trkpt lat="42.322032338104385" lon="11.586479707723262"><ele>1.1666666666666665</ele><time>2026-03-29T15:54:22.991Z</time></trkpt><trkpt lat="42.322079704169724" lon="11.586541966676299"><ele>1.3333333333333333</ele><time>2026-03-29T15:54:24.991Z</time></trkpt><trkpt lat="42.322139446855104" lon="11.586595027946753"><ele>1.5</ele><time>2026-03-29T15:54:26.99Z</time></trkpt><trkpt lat="42.32220640924281" lon="11.58668255250171"><ele>1.6666666666666665</ele><time>2026-03-29T15:54:29.99Z</time></trkpt><trkpt lat="42.322259997681435" lon="11.586775229036204"><ele>1.8333333333333333</ele><time>2026-03-29T15:54:31.99Z</time></trkpt><trkpt lat="42.322316874545095" lon="11.58683347070606"><ele>2.0</ele><time>2026-03-29T15:54:33.991Z</time></trkpt><trkpt lat="42.32234659733512" lon="11.586939482182949"><ele>2.333333333333333</ele><time>2026-03-29T15:54:35.992Z</time></trkpt><trkpt lat="42.322407397516955" lon="11.587019189551377"><ele>2.6666666666666665</ele><time>2026-03-29T15:54:37.991Z</time></trkpt><trkpt lat="42.32245573248908" lon="11.587083682571748"><ele>3.0</ele><time>2026-03-29T15:54:39.991Z</time></trkpt><trkpt lat="42.32250308741566" lon="11.587147749446645"><ele>3.333333333333333</ele><time>2026-03-29T15:54:41.992Z</time></trkpt><trkpt lat="42.32257413402421" lon="11.587243869136813"><ele>3.6666666666666665</ele><time>2026-03-29T15:54:43.991Z</time></trkpt><trkpt lat="42.322657521748965" lon="11.58735668296903"><ele>4.0</ele><time>2026-03-29T15:54:45.992Z</time></trkpt><trkpt lat="42.322755012222316" lon="11.587456763891929"><ele>4.0</ele><time>2026-03-29T15:54:47.992Z</time></trkpt><trkpt lat="42.322800803296786" lon="11.587518281865561"><ele>3.9999999999999996</ele><time>2026-03-29T15:54:48.992Z</time></trkpt><trkpt lat="42.32285098670599" lon="11.587581189661378"><ele>4.0</ele><time>2026-03-29T15:54:49.992Z</time></trkpt><trkpt lat="42.3229065295467" lon="11.587643627658311"><ele>4.0</ele><time>2026-03-29T15:54:50.992Z</time></trkpt><trkpt lat="42.32296211287301" lon="11.58771117018021"><ele>3.9999999999999996</ele><time>2026-03-29T15:54:51.992Z</time></trkpt><trkpt lat="42.32301486252619" lon="11.587787366407927"><ele>4.0</ele><time>2026-03-29T15:54:52.992Z</time></trkpt><trkpt lat="42.323063584420204" lon="11.587861966448031"><ele>4.0</ele><time>2026-03-29T15:54:53.992Z</time></trkpt><trkpt lat="42.32311337618115" lon="11.587947351491408"><ele>3.9999999999999996</ele><time>2026-03-29T15:54:54.992Z</time></trkpt><trkpt lat="42.32317425402797" lon="11.588024479528139"><ele>4.0</ele><time>2026-03-29T15:54:55.992Z</time></trkpt><trkpt lat="42.323230084873366" lon="11.588100107510316"><ele>4.0</ele><time>2026-03-29T15:54:56.992Z</time></trkpt><trkpt lat="42.32329356675101" lon="11.588185379405854"><ele>4.0</ele><time>2026-03-29T15:54:57.992Z</time></trkpt><trkpt lat="42.32334884917849" lon="11.58828764467831"><ele>3.9999999999999996</ele><time>2026-03-29T15:54:58.992Z</time></trkpt><trkpt lat="42.323417796217505" lon="11.588380060476617"><ele>4.0</ele><time>2026-03-29T15:54:59.991Z</time></trkpt><trkpt lat="42.32348396330841" lon="11.588467975176016"><ele>3.9999999999999996</ele><time>2026-03-29T15:55:00.991Z</time></trkpt><trkpt lat="42.323544716495554" lon="11.588547744898058"><ele>4.0</ele><time>2026-03-29T15:55:01.991Z</time></trkpt><trkpt lat="42.32360793493387" lon="11.588609575907467"><ele>4.0</ele><time>2026-03-29T15:55:02.991Z</time></trkpt><trkpt lat="42.32366089409713" lon="11.588689626862163"><ele>4.0</ele><time>2026-03-29T15:55:03.991Z</time></trkpt><trkpt lat="42.32371411656871" lon="11.588753258295242"><ele>3.9999999999999996</ele><time>2026-03-29T15:55:04.991Z</time></trkpt><trkpt lat="42.323769909761054" lon="11.588817968369982"><ele>4.0</ele><time>2026-03-29T15:55:05.991Z</time></trkpt><trkpt lat="42.323804901403484" lon="11.588905104946296"><ele>4.0</ele><time>2026-03-29T15:55:06.991Z</time></trkpt><trkpt lat="42.32388328989529" lon="11.589024449488749"><ele>4.0</ele><time>2026-03-29T15:55:08.991Z</time></trkpt><trkpt lat="42.32395794238903" lon="11.589111974567393"><ele>4.0</ele><time>2026-03-29T15:55:10.991Z</time></trkpt><trkpt lat="42.32403627916912" lon="11.589202982343146"><ele>4.0</ele><time>2026-03-29T15:55:12.991Z</time></trkpt><trkpt lat="42.32410848811053" lon="11.589295092743226"><ele>4.0</ele><time>2026-03-29T15:55:14.991Z</time></trkpt><trkpt lat="42.32417405239522" lon="11.589398623762213"><ele>4.0</ele><time>2026-03-29T15:55:16.991Z</time></trkpt><trkpt lat="42.3242655331621" lon="11.589495760568488"><ele>4.0</ele><time>2026-03-29T15:55:18.991Z</time></trkpt><trkpt lat="42.32433693239123" lon="11.589585168736578"><ele>4.0</ele><time>2026-03-29T15:55:20.991Z</time></trkpt><trkpt lat="42.32442271627061" lon="11.589521999225282"><ele>4.0</ele><time>2026-03-29T15:55:22.991Z</time></trkpt><trkpt lat="42.32449924083904" lon="11.589427288581755"><ele>4.0</ele><time>2026-03-29T15:55:24.991Z</time></trkpt><trkpt lat="42.32456013731668" lon="11.589325540516542"><ele>3.9999999999999996</ele><time>2026-03-29T15:55:26.991Z</time></trkpt><trkpt lat="42.32463526976124" lon="11.58920629178141"><ele>4.0</ele><time>2026-03-29T15:55:28.991Z</time></trkpt><trkpt lat="42.324714831616284" lon="11.589080012744546"><ele>4.0</ele><time>2026-03-29T15:55:30.991Z</time></trkpt><trkpt lat="42.32475773903407" lon="11.589011910908432"><ele>4.0</ele><time>2026-03-29T15:55:31.991Z</time></trkpt><trkpt lat="42.324804423177206" lon="11.588937816694779"><ele>3.9999999999999996</ele><time>2026-03-29T15:55:32.991Z</time></trkpt><trkpt lat="42.32484780912771" lon="11.588867155622761"><ele>4.0</ele><time>2026-03-29T15:55:33.991Z</time></trkpt><trkpt lat="42.324881602046275" lon="11.588783206713725"><ele>4.142857142857142</ele><time>2026-03-29T15:55:34.991Z</time></trkpt><trkpt lat="42.324930328555304" lon="11.58871176090763"><ele>4.285714285714286</ele><time>2026-03-29T15:55:35.991Z</time></trkpt><trkpt lat="42.324981106721104" lon="11.588636328330082"><ele>4.428571428571429</ele><time>2026-03-29T15:55:36.991Z</time></trkpt><trkpt lat="42.325026905869414" lon="11.588561161792427"><ele>4.571428571428571</ele><time>2026-03-29T15:55:37.991Z</time></trkpt><trkpt lat="42.32507473974076" lon="11.588485224934933"><ele>4.714285714285714</ele><time>2026-03-29T15:55:38.991Z</time></trkpt><trkpt lat="42.32511917489076" lon="11.588414210025013"><ele>4.857142857142857</ele><time>2026-03-29T15:55:39.991Z</time></trkpt><trkpt lat="42.325156617936216" lon="11.588343599695195"><ele>5.0</ele><time>2026-03-29T15:55:40.991Z</time></trkpt><trkpt lat="42.325214607548084" lon="11.588291738228783"><ele>5.0</ele><time>2026-03-29T15:55:41.991Z</time></trkpt><trkpt lat="42.32525781353008" lon="11.588228174147147"><ele>5.0</ele><time>2026-03-29T15:55:42.991Z</time></trkpt><trkpt lat="42.32530146420105" lon="11.588163349456046"><ele>5.0</ele><time>2026-03-29T15:55:43.991Z</time></trkpt><trkpt lat="42.32534814810016" lon="11.588093933564823"><ele>5.0</ele><time>2026-03-29T15:55:44.991Z</time></trkpt><trkpt lat="42.32539617286331" lon="11.588018127142826"><ele>5.0</ele><time>2026-03-29T15:55:45.991Z</time></trkpt><trkpt lat="42.32544104224429" lon="11.587948409101855"><ele>5.0</ele><time>2026-03-29T15:55:46.991Z</time></trkpt><trkpt lat="42.32548466055663" lon="11.587877376049033"><ele>5.0</ele><time>2026-03-29T15:55:47.991Z</time></trkpt><trkpt lat="42.32553036877531" lon="11.587805926267583"><ele>4.833333333333334</ele><time>2026-03-29T15:55:48.991Z</time></trkpt><trkpt lat="42.325576308870126" lon="11.587733200820928"><ele>4.666666666666667</ele><time>2026-03-29T15:55:49.991Z</time></trkpt><trkpt lat="42.3256251529881" lon="11.587659452007076"><ele>4.5</ele><time>2026-03-29T15:55:50.991Z</time></trkpt><trkpt lat="42.32567011291447" lon="11.587584216660467"><ele>4.333333333333333</ele><time>2026-03-29T15:55:51.991Z</time></trkpt><trkpt lat="42.32570727540256" lon="11.58751502156445"><ele>4.166666666666666</ele><time>2026-03-29T15:55:52.991Z</time></trkpt><trkpt lat="42.3257742454375" lon="11.587388124513184"><ele>4.0</ele><time>2026-03-29T15:55:54.991Z</time></trkpt><trkpt lat="42.32585421307027" lon="11.587269180729203"><ele>3.9999999999999996</ele><time>2026-03-29T15:55:56.991Z</time></trkpt><trkpt lat="42.32590502137662" lon="11.587210388375253"><ele>4.0</ele><time>2026-03-29T15:55:57.991Z</time></trkpt><trkpt lat="42.32594783687985" lon="11.587143432469798"><ele>4.0</ele><time>2026-03-29T15:55:58.991Z</time></trkpt><trkpt lat="42.32597963448608" lon="11.587069528675192"><ele>4.0</ele><time>2026-03-29T15:55:59.991Z</time></trkpt><trkpt lat="42.32600723043792" lon="11.586989762734131"><ele>3.9999999999999996</ele><time>2026-03-29T15:56:00.991Z</time></trkpt><trkpt lat="42.326066726918675" lon="11.586854959809306"><ele>4.0</ele><time>2026-03-29T15:56:02.99Z</time></trkpt><trkpt lat="42.32612219346501" lon="11.5867461928547"><ele>4.2</ele><time>2026-03-29T15:56:04.99Z</time></trkpt><trkpt lat="42.32616653624155" lon="11.58664865858454"><ele>4.4</ele><time>2026-03-29T15:56:06.99Z</time></trkpt><trkpt lat="42.3261660807053" lon="11.586536593296913"><ele>4.6</ele><time>2026-03-29T15:56:08.99Z</time></trkpt><trkpt lat="42.326166142561" lon="11.586406058329619"><ele>4.8</ele><time>2026-03-29T15:56:10.99Z</time></trkpt><trkpt lat="42.32623198991193" lon="11.586260404390941"><ele>5.0</ele><time>2026-03-29T15:56:12.99Z</time></trkpt><trkpt lat="42.32628707834625" lon="11.586193702351707"><ele>5.333333333333334</ele><time>2026-03-29T15:56:13.99Z</time></trkpt><trkpt lat="42.32632988605754" lon="11.586129840056206"><ele>5.666666666666667</ele><time>2026-03-29T15:56:14.99Z</time></trkpt><trkpt lat="42.32637379733331" lon="11.58606280544088"><ele>6.0</ele><time>2026-03-29T15:56:15.99Z</time></trkpt><trkpt lat="42.32641986032202" lon="11.58599690763279"><ele>6.333333333333334</ele><time>2026-03-29T15:56:16.99Z</time></trkpt><trkpt lat="42.32648950009542" lon="11.585854558185945"><ele>6.666666666666667</ele><time>2026-03-29T15:56:18.99Z</time></trkpt><trkpt lat="42.3265668459004" lon="11.585723355394284"><ele>7.0</ele><time>2026-03-29T15:56:20.99Z</time></trkpt><trkpt lat="42.326635766888" lon="11.585595035088389"><ele>7.0</ele><time>2026-03-29T15:56:22.99Z</time></trkpt><trkpt lat="42.32669636350578" lon="11.585469758408362"><ele>6.999999999999999</ele><time>2026-03-29T15:56:24.99Z</time></trkpt><trkpt lat="42.32677508565179" lon="11.585356675504704"><ele>6.999999999999999</ele><time>2026-03-29T15:56:26.99Z</time></trkpt><trkpt lat="42.32681641454994" lon="11.585265998818139"><ele>7.0</ele><time>2026-03-29T15:56:27.99Z</time></trkpt><trkpt lat="42.3268605434463" lon="11.5851699997999"><ele>7.0</ele><time>2026-03-29T15:56:28.99Z</time></trkpt><trkpt lat="42.32691163337991" lon="11.58507617213429"><ele>7.3999999999999995</ele><time>2026-03-29T15:56:29.99Z</time></trkpt><trkpt lat="42.32696477440948" lon="11.584978372740867"><ele>7.799999999999999</ele><time>2026-03-29T15:56:30.99Z</time></trkpt><trkpt lat="42.32701522842663" lon="11.58487805200813"><ele>8.2</ele><time>2026-03-29T15:56:31.99Z</time></trkpt><trkpt lat="42.32706992609688" lon="11.584777187095122"><ele>8.6</ele><time>2026-03-29T15:56:32.99Z</time></trkpt><trkpt lat="42.32712254728122" lon="11.584668869090892"><ele>9.0</ele><time>2026-03-29T15:56:33.99Z</time></trkpt><trkpt lat="42.32717629277182" lon="11.584564731120768"><ele>9.333333333333334</ele><time>2026-03-29T15:56:34.99Z</time></trkpt><trkpt lat="42.32722716303305" lon="11.58446580500784"><ele>9.666666666666666</ele><time>2026-03-29T15:56:35.99Z</time></trkpt><trkpt lat="42.32727818284462" lon="11.584370973926132"><ele>10.0</ele><time>2026-03-29T15:56:36.99Z</time></trkpt><trkpt lat="42.32732996752372" lon="11.584272235949975"><ele>10.333333333333332</ele><time>2026-03-29T15:56:37.99Z</time></trkpt><trkpt lat="42.32738042659249" lon="11.5841781256964"><ele>10.666666666666666</ele><time>2026-03-29T15:56:38.99Z</time></trkpt><trkpt lat="42.32744922811804" lon="11.584095840133001"><ele>11.0</ele><time>2026-03-29T15:56:39.991Z</time></trkpt><trkpt lat="42.32749161795865" lon="11.584016660617946"><ele>10.666666666666666</ele><time>2026-03-29T15:56:40.991Z</time></trkpt><trkpt lat="42.3275317162196" lon="11.583948101083646"><ele>10.333333333333332</ele><time>2026-03-29T15:56:41.99Z</time></trkpt><trkpt lat="42.32760223611276" lon="11.583825220957257"><ele>10.0</ele><time>2026-03-29T15:56:43.991Z</time></trkpt><trkpt lat="42.327678448786344" lon="11.58369535701494"><ele>9.666666666666666</ele><time>2026-03-29T15:56:45.99Z</time></trkpt><trkpt lat="42.327718097573204" lon="11.583613698636292"><ele>9.333333333333334</ele><time>2026-03-29T15:56:46.99Z</time></trkpt><trkpt lat="42.32775044404133" lon="11.583527681724027"><ele>9.0</ele><time>2026-03-29T15:56:47.99Z</time></trkpt><trkpt lat="42.327784628320835" lon="11.583441401705528"><ele>9.0</ele><time>2026-03-29T15:56:48.99Z</time></trkpt><trkpt lat="42.32782491848708" lon="11.583356974599404"><ele>9.0</ele><time>2026-03-29T15:56:49.99Z</time></trkpt><trkpt lat="42.327880450471255" lon="11.583288527765736"><ele>9.0</ele><time>2026-03-29T15:56:50.99Z</time></trkpt><trkpt lat="42.32792553841163" lon="11.583206472862067"><ele>9.0</ele><time>2026-03-29T15:56:51.99Z</time></trkpt><trkpt lat="42.327970018176124" lon="11.583126604944278"><ele>9.0</ele><time>2026-03-29T15:56:52.99Z</time></trkpt><trkpt lat="42.32801207359971" lon="11.583051090892761"><ele>9.0</ele><time>2026-03-29T15:56:53.99Z</time></trkpt><trkpt lat="42.32806828780426" lon="11.582946174295774"><ele>8.2</ele><time>2026-03-29T15:56:54.99Z</time></trkpt><trkpt lat="42.3281230056562" lon="11.582856060458798"><ele>7.4</ele><time>2026-03-29T15:56:55.99Z</time></trkpt><trkpt lat="42.328177450295215" lon="11.582767916257925"><ele>6.6</ele><time>2026-03-29T15:56:56.99Z</time></trkpt><trkpt lat="42.328222345275" lon="11.582674018174078"><ele>5.8</ele><time>2026-03-29T15:56:57.99Z</time></trkpt><trkpt lat="42.328281262211995" lon="11.582565593463707"><ele>5.0</ele><time>2026-03-29T15:56:58.99Z</time></trkpt><trkpt lat="42.32833825475173" lon="11.582455364827892"><ele>5.0</ele><time>2026-03-29T15:56:59.99Z</time></trkpt><trkpt lat="42.32838713000341" lon="11.582347435836946"><ele>5.0</ele><time>2026-03-29T15:57:00.99Z</time></trkpt><trkpt lat="42.3284418348259" lon="11.582242248269122"><ele>5.0</ele><time>2026-03-29T15:57:01.99Z</time></trkpt><trkpt lat="42.32850438919943" lon="11.582122369003283"><ele>5.0</ele><time>2026-03-29T15:57:02.99Z</time></trkpt><trkpt lat="42.328583291944874" lon="11.581999982876557"><ele>5.0</ele><time>2026-03-29T15:57:03.99Z</time></trkpt><trkpt lat="42.328640222492005" lon="11.5818773856019"><ele>4.6</ele><time>2026-03-29T15:57:04.99Z</time></trkpt><trkpt lat="42.32870389392779" lon="11.58174910867388"><ele>4.2</ele><time>2026-03-29T15:57:05.99Z</time></trkpt><trkpt lat="42.32878993738954" lon="11.581639733642444"><ele>3.8</ele><time>2026-03-29T15:57:06.99Z</time></trkpt><trkpt lat="42.328850943270766" lon="11.581526110401295"><ele>3.4</ele><time>2026-03-29T15:57:07.99Z</time></trkpt><trkpt lat="42.32890864900693" lon="11.581406323211795"><ele>3.0</ele><time>2026-03-29T15:57:08.99Z</time></trkpt><trkpt lat="42.3289639133742" lon="11.581295196839326"><ele>3.0</ele><time>2026-03-29T15:57:09.99Z</time></trkpt><trkpt lat="42.32902297665901" lon="11.581189273087187"><ele>3.0</ele><time>2026-03-29T15:57:10.99Z</time></trkpt><trkpt lat="42.329075078546616" lon="11.581077070129396"><ele>3.0</ele><time>2026-03-29T15:57:11.99Z</time></trkpt><trkpt lat="42.329130786621754" lon="11.580975079174928"><ele>3.0</ele><time>2026-03-29T15:57:12.99Z</time></trkpt><trkpt lat="42.32918489511979" lon="11.580868775704355"><ele>3.0</ele><time>2026-03-29T15:57:13.99Z</time></trkpt><trkpt lat="42.32924052638981" lon="11.580754005767288"><ele>3.2</ele><time>2026-03-29T15:57:14.99Z</time></trkpt><trkpt lat="42.32929410014743" lon="11.580632032104619"><ele>3.4</ele><time>2026-03-29T15:57:15.99Z</time></trkpt><trkpt lat="42.329343891650275" lon="11.580514460513822"><ele>3.6000000000000005</ele><time>2026-03-29T15:57:16.99Z</time></trkpt><trkpt lat="42.32939151872356" lon="11.580378924772711"><ele>3.8000000000000003</ele><time>2026-03-29T15:57:17.99Z</time></trkpt><trkpt lat="42.3294404663337" lon="11.580241025439815"><ele>4.0</ele><time>2026-03-29T15:57:18.99Z</time></trkpt><trkpt lat="42.32948005586082" lon="11.580101065918546"><ele>4.75</ele><time>2026-03-29T15:57:19.99Z</time></trkpt><trkpt lat="42.329527617547264" lon="11.579962866414078"><ele>5.5</ele><time>2026-03-29T15:57:20.99Z</time></trkpt><trkpt lat="42.32957721082918" lon="11.579825495841032"><ele>6.25</ele><time>2026-03-29T15:57:21.99Z</time></trkpt><trkpt lat="42.329641588111805" lon="11.579699249604229"><ele>7.0</ele><time>2026-03-29T15:57:22.99Z</time></trkpt><trkpt lat="42.329700449687444" lon="11.579551162820797"><ele>6.5</ele><time>2026-03-29T15:57:23.99Z</time></trkpt><trkpt lat="42.32975753091061" lon="11.579391209630359"><ele>6.0</ele><time>2026-03-29T15:57:24.99Z</time></trkpt><trkpt lat="42.32981131992111" lon="11.57922597641899"><ele>5.5</ele><time>2026-03-29T15:57:25.99Z</time></trkpt><trkpt lat="42.3298484911333" lon="11.579040844538978"><ele>5.0</ele><time>2026-03-29T15:57:26.99Z</time></trkpt><trkpt lat="42.32991350409416" lon="11.578863987193055"><ele>5.0</ele><time>2026-03-29T15:57:27.99Z</time></trkpt><trkpt lat="42.32996278806212" lon="11.578695598140817"><ele>5.0</ele><time>2026-03-29T15:57:28.99Z</time></trkpt><trkpt lat="42.33000980454644" lon="11.578535894673903"><ele>5.0</ele><time>2026-03-29T15:57:29.99Z</time></trkpt><trkpt lat="42.33004602883083" lon="11.57837198918535"><ele>5.0</ele><time>2026-03-29T15:57:30.99Z</time></trkpt><trkpt lat="42.33008043885132" lon="11.578214777734562"><ele>5.2</ele><time>2026-03-29T15:57:31.99Z</time></trkpt><trkpt lat="42.33011251103345" lon="11.578071353270627"><ele>5.4</ele><time>2026-03-29T15:57:32.99Z</time></trkpt><trkpt lat="42.3301563024887" lon="11.577937976278365"><ele>5.6</ele><time>2026-03-29T15:57:33.99Z</time></trkpt><trkpt lat="42.33020594195694" lon="11.577817999575368"><ele>5.8</ele><time>2026-03-29T15:57:34.99Z</time></trkpt><trkpt lat="42.33025699476825" lon="11.577713525772324"><ele>6.0</ele><time>2026-03-29T15:57:35.99Z</time></trkpt><trkpt lat="42.3303079339164" lon="11.577621401614861"><ele>6.0</ele><time>2026-03-29T15:57:36.99Z</time></trkpt><trkpt lat="42.33037699566588" lon="11.577535727284063"><ele>6.0</ele><time>2026-03-29T15:57:37.99Z</time></trkpt><trkpt lat="42.330441007971736" lon="11.577451196443251"><ele>6.0</ele><time>2026-03-29T15:57:38.99Z</time></trkpt><trkpt lat="42.33049542564547" lon="11.577376270026903"><ele>6.0</ele><time>2026-03-29T15:57:39.99Z</time></trkpt><trkpt lat="42.33054692959606" lon="11.577295697685772"><ele>6.0</ele><time>2026-03-29T15:57:40.99Z</time></trkpt><trkpt lat="42.33060858201891" lon="11.577243655393554"><ele>6.0</ele><time>2026-03-29T15:57:41.99Z</time></trkpt><trkpt lat="42.33076748371884" lon="11.577202085112972"><ele>4.8</ele><time>2026-03-29T15:57:43.99Z</time></trkpt><trkpt lat="42.33087259413868" lon="11.577257522117621"><ele>3.5999999999999996</ele><time>2026-03-29T15:57:44.99Z</time></trkpt><trkpt lat="42.330961188930225" lon="11.577333707855137"><ele>2.4</ele><time>2026-03-29T15:57:45.99Z</time></trkpt><trkpt lat="42.33105027422313" lon="11.57741699469908"><ele>1.2</ele><time>2026-03-29T15:57:46.99Z</time></trkpt><trkpt lat="42.331151979053644" lon="11.577482935982303"><ele>0.0</ele><time>2026-03-29T15:57:47.989Z</time></trkpt><trkpt lat="42.331267480871816" lon="11.577554112590448"><ele>0.0</ele><time>2026-03-29T15:57:48.989Z</time></trkpt><trkpt lat="42.33137253457116" lon="11.577617041639677"><ele>0.0</ele><time>2026-03-29T15:57:49.989Z</time></trkpt><trkpt lat="42.331478480567064" lon="11.577659278161262"><ele>0.0</ele><time>2026-03-29T15:57:50.989Z</time></trkpt><trkpt lat="42.331560865438945" lon="11.57774127883511"><ele>0.0</ele><time>2026-03-29T15:57:51.989Z</time></trkpt><trkpt lat="42.33163839966821" lon="11.57782536079639"><ele>0.0</ele><time>2026-03-29T15:57:52.989Z</time></trkpt><trkpt lat="42.33169755267148" lon="11.577915831662752"><ele>0.2</ele><time>2026-03-29T15:57:53.989Z</time></trkpt><trkpt lat="42.33174445780678" lon="11.578025337551786"><ele>0.4</ele><time>2026-03-29T15:57:54.989Z</time></trkpt><trkpt lat="42.33178691534982" lon="11.578160103042633"><ele>0.6000000000000001</ele><time>2026-03-29T15:57:55.989Z</time></trkpt><trkpt lat="42.3318255178365" lon="11.57830125736698"><ele>0.8</ele><time>2026-03-29T15:57:56.989Z</time></trkpt><trkpt lat="42.33187352603981" lon="11.578431543842235"><ele>1.0</ele><time>2026-03-29T15:57:57.989Z</time></trkpt><trkpt lat="42.33191464384224" lon="11.578568570875886"><ele>0.75</ele><time>2026-03-29T15:57:58.989Z</time></trkpt><trkpt lat="42.33196121325533" lon="11.5787101924312"><ele>0.5</ele><time>2026-03-29T15:57:59.989Z</time></trkpt><trkpt lat="42.33200731080454" lon="11.57884829610315"><ele>0.25</ele><time>2026-03-29T15:58:00.989Z</time></trkpt><trkpt lat="42.33204961126075" lon="11.578976811773122"><ele>0.0</ele><time>2026-03-29T15:58:01.989Z</time></trkpt><trkpt lat="42.33218145247334" lon="11.579378243112092"><ele>0.5</ele><time>2026-03-29T15:58:04.989Z</time></trkpt><trkpt lat="42.33223254683603" lon="11.57951592996664"><ele>1.0</ele><time>2026-03-29T15:58:05.989Z</time></trkpt><trkpt lat="42.33225642736832" lon="11.57966947725393"><ele>1.5</ele><time>2026-03-29T15:58:06.989Z</time></trkpt><trkpt lat="42.33230162593432" lon="11.579824918115225"><ele>2.0</ele><time>2026-03-29T15:58:07.989Z</time></trkpt><trkpt lat="42.332349957946946" lon="11.57998264107206"><ele>2.0</ele><time>2026-03-29T15:58:08.989Z</time></trkpt><trkpt lat="42.33240257020478" lon="11.580144984894146"><ele>2.0</ele><time>2026-03-29T15:58:09.989Z</time></trkpt><trkpt lat="42.33245711373405" lon="11.580303402403528"><ele>2.0</ele><time>2026-03-29T15:58:10.989Z</time></trkpt><trkpt lat="42.33251197375822" lon="11.580462625806595"><ele>2.0</ele><time>2026-03-29T15:58:11.989Z</time></trkpt><trkpt lat="42.33256544070166" lon="11.580625495898968"><ele>1.75</ele><time>2026-03-29T15:58:12.989Z</time></trkpt><trkpt lat="42.33262212698165" lon="11.58078912839898"><ele>1.5</ele><time>2026-03-29T15:58:13.989Z</time></trkpt><trkpt lat="42.33268109707459" lon="11.580947915794125"><ele>1.25</ele><time>2026-03-29T15:58:14.989Z</time></trkpt><trkpt lat="42.332740527049026" lon="11.581118313573391"><ele>1.0</ele><time>2026-03-29T15:58:15.989Z</time></trkpt><trkpt lat="42.33279196208189" lon="11.581280833296129"><ele>1.0</ele><time>2026-03-29T15:58:16.989Z</time></trkpt><trkpt lat="42.33284337087384" lon="11.581443617114456"><ele>1.0</ele><time>2026-03-29T15:58:17.989Z</time></trkpt><trkpt lat="42.33289710458651" lon="11.581606332969672"><ele>1.0</ele><time>2026-03-29T15:58:18.989Z</time></trkpt><trkpt lat="42.33295203946578" lon="11.581766450183613"><ele>1.0</ele><time>2026-03-29T15:58:19.989Z</time></trkpt><trkpt lat="42.333007362768015" lon="11.581930705585862"><ele>0.75</ele><time>2026-03-29T15:58:20.989Z</time></trkpt><trkpt lat="42.33306084371527" lon="11.582092928918199"><ele>0.5</ele><time>2026-03-29T15:58:21.989Z</time></trkpt><trkpt lat="42.33311417934526" lon="11.582258624815333"><ele>0.25</ele><time>2026-03-29T15:58:22.989Z</time></trkpt><trkpt lat="42.33316961823753" lon="11.582421048157865"><ele>0.0</ele><time>2026-03-29T15:58:23.989Z</time></trkpt><trkpt lat="42.333222591266164" lon="11.582585389034271"><ele>0.0</ele><time>2026-03-29T15:58:24.989Z</time></trkpt><trkpt lat="42.33327478300632" lon="11.582747429458733"><ele>0.0</ele><time>2026-03-29T15:58:25.989Z</time></trkpt><trkpt lat="42.33332539372069" lon="11.582909196152933"><ele>0.0</ele><time>2026-03-29T15:58:26.989Z</time></trkpt><trkpt lat="42.33338174383313" lon="11.583068703646918"><ele>0.0</ele><time>2026-03-29T15:58:27.989Z</time></trkpt><trkpt lat="42.33344120825529" lon="11.583224020173239"><ele>0.0</ele><time>2026-03-29T15:58:28.989Z</time></trkpt><trkpt lat="42.33349412427866" lon="11.583384487219089"><ele>0.0</ele><time>2026-03-29T15:58:29.989Z</time></trkpt><trkpt lat="42.33354302002909" lon="11.583546805721356"><ele>0.0</ele><time>2026-03-29T15:58:30.989Z</time></trkpt><trkpt lat="42.33359483206165" lon="11.583709085665204"><ele>0.0</ele><time>2026-03-29T15:58:31.989Z</time></trkpt><trkpt lat="42.33364999848676" lon="11.58387183731881"><ele>0.5</ele><time>2026-03-29T15:58:32.989Z</time></trkpt><trkpt lat="42.333705596992004" lon="11.584039149188971"><ele>1.0</ele><time>2026-03-29T15:58:33.989Z</time></trkpt><trkpt lat="42.33376498240332" lon="11.584212985610666"><ele>1.5</ele><time>2026-03-29T15:58:34.989Z</time></trkpt><trkpt lat="42.33381966937301" lon="11.584383014003365"><ele>2.0</ele><time>2026-03-29T15:58:35.989Z</time></trkpt><trkpt lat="42.33387435981158" lon="11.584554411554693"><ele>2.0</ele><time>2026-03-29T15:58:36.989Z</time></trkpt><trkpt lat="42.33392654114603" lon="11.584713612456845"><ele>2.0</ele><time>2026-03-29T15:58:37.989Z</time></trkpt><trkpt lat="42.333979367416" lon="11.584864367833024"><ele>2.0</ele><time>2026-03-29T15:58:38.989Z</time></trkpt><trkpt lat="42.33402144671243" lon="11.584999834093777"><ele>2.0</ele><time>2026-03-29T15:58:39.989Z</time></trkpt><trkpt lat="42.33406313817925" lon="11.585124397069377"><ele>1.9999999999999998</ele><time>2026-03-29T15:58:40.989Z</time></trkpt><trkpt lat="42.33410205874101" lon="11.585243112868813"><ele>2.0</ele><time>2026-03-29T15:58:41.989Z</time></trkpt><trkpt lat="42.33413880455852" lon="11.58535298660025"><ele>2.0</ele><time>2026-03-29T15:58:42.989Z</time></trkpt><trkpt lat="42.33417370550894" lon="11.585461675596793"><ele>2.0</ele><time>2026-03-29T15:58:43.989Z</time></trkpt><trkpt lat="42.334206544576126" lon="11.585576002395975"><ele>1.9999999999999998</ele><time>2026-03-29T15:58:44.988Z</time></trkpt><trkpt lat="42.33423657925849" lon="11.585679948975177"><ele>2.0</ele><time>2026-03-29T15:58:45.988Z</time></trkpt><trkpt lat="42.33427179252144" lon="11.58577737413514"><ele>1.9999999999999998</ele><time>2026-03-29T15:58:46.988Z</time></trkpt><trkpt lat="42.334305482687064" lon="11.58586146428806"><ele>2.0</ele><time>2026-03-29T15:58:47.988Z</time></trkpt><trkpt lat="42.33433239544955" lon="11.585941346003622"><ele>2.0</ele><time>2026-03-29T15:58:48.988Z</time></trkpt><trkpt lat="42.33436548173743" lon="11.586086576961803"><ele>2.0</ele><time>2026-03-29T15:58:50.988Z</time></trkpt><trkpt lat="42.33436581237843" lon="11.586263112798797"><ele>1.9999999999999998</ele><time>2026-03-29T15:58:52.989Z</time></trkpt><trkpt lat="42.33435539154873" lon="11.586355390729631"><ele>2.0</ele><time>2026-03-29T15:58:53.989Z</time></trkpt><trkpt lat="42.334342127926206" lon="11.58644183190257"><ele>2.0</ele><time>2026-03-29T15:58:54.988Z</time></trkpt><trkpt lat="42.33436634498043" lon="11.586599176959457"><ele>2.0</ele><time>2026-03-29T15:58:56.988Z</time></trkpt><trkpt lat="42.33446042244441" lon="11.58671741342125"><ele>2.0</ele><time>2026-03-29T15:58:58.988Z</time></trkpt><trkpt lat="42.33452805040639" lon="11.58676623924404"><ele>2.0</ele><time>2026-03-29T15:58:59.988Z</time></trkpt><trkpt lat="42.334597852651164" lon="11.586803202315973"><ele>2.0</ele><time>2026-03-29T15:59:00.988Z</time></trkpt><trkpt lat="42.33465478528422" lon="11.586917011694966"><ele>1.8</ele><time>2026-03-29T15:59:01.988Z</time></trkpt><trkpt lat="42.334707409467036" lon="11.587020253823239"><ele>1.6</ele><time>2026-03-29T15:59:02.988Z</time></trkpt><trkpt lat="42.33475186698574" lon="11.587141794084511"><ele>1.4000000000000001</ele><time>2026-03-29T15:59:03.988Z</time></trkpt><trkpt lat="42.33479890340176" lon="11.587274887978358"><ele>1.2000000000000002</ele><time>2026-03-29T15:59:04.988Z</time></trkpt><trkpt lat="42.33485424508586" lon="11.587414388558749"><ele>1.0</ele><time>2026-03-29T15:59:05.988Z</time></trkpt><trkpt lat="42.33488920756319" lon="11.587582666832292"><ele>1.75</ele><time>2026-03-29T15:59:06.988Z</time></trkpt><trkpt lat="42.3349506858629" lon="11.587733364303746"><ele>2.5</ele><time>2026-03-29T15:59:07.988Z</time></trkpt><trkpt lat="42.33500904600072" lon="11.58789268841267"><ele>3.25</ele><time>2026-03-29T15:59:08.988Z</time></trkpt><trkpt lat="42.335074327718175" lon="11.588047115098702"><ele>4.0</ele><time>2026-03-29T15:59:09.988Z</time></trkpt><trkpt lat="42.335152265284485" lon="11.588190494638145"><ele>5.25</ele><time>2026-03-29T15:59:10.988Z</time></trkpt><trkpt lat="42.3352393068126" lon="11.58832807310454"><ele>6.5</ele><time>2026-03-29T15:59:11.988Z</time></trkpt><trkpt lat="42.33533699560977" lon="11.588461651837177"><ele>7.75</ele><time>2026-03-29T15:59:12.988Z</time></trkpt><trkpt lat="42.33543845057406" lon="11.588590096678638"><ele>9.0</ele><time>2026-03-29T15:59:13.988Z</time></trkpt><trkpt lat="42.33554139011325" lon="11.588710246947743"><ele>10.5</ele><time>2026-03-29T15:59:14.988Z</time></trkpt><trkpt lat="42.33563827326113" lon="11.588832131716819"><ele>12.0</ele><time>2026-03-29T15:59:15.988Z</time></trkpt><trkpt lat="42.33573522611576" lon="11.588945237027696"><ele>13.5</ele><time>2026-03-29T15:59:16.988Z</time></trkpt><trkpt lat="42.33581790442476" lon="11.589055964261252"><ele>15.0</ele><time>2026-03-29T15:59:17.988Z</time></trkpt><trkpt lat="42.33589561955103" lon="11.589164195076004"><ele>15.0</ele><time>2026-03-29T15:59:18.988Z</time></trkpt><trkpt lat="42.33597442374736" lon="11.589272567247829"><ele>15.0</ele><time>2026-03-29T15:59:19.988Z</time></trkpt><trkpt lat="42.33605720800386" lon="11.58937495509567"><ele>15.0</ele><time>2026-03-29T15:59:20.988Z</time></trkpt><trkpt lat="42.33613692115314" lon="11.589474375461043"><ele>15.0</ele><time>2026-03-29T15:59:21.988Z</time></trkpt><trkpt lat="42.336214440865724" lon="11.58957843272284"><ele>15.0</ele><time>2026-03-29T15:59:22.988Z</time></trkpt><trkpt lat="42.336293396461386" lon="11.589685582442625"><ele>15.0</ele><time>2026-03-29T15:59:23.988Z</time></trkpt><trkpt lat="42.33637526368988" lon="11.589795482730501"><ele>15.0</ele><time>2026-03-29T15:59:24.988Z</time></trkpt><trkpt lat="42.336460426404045" lon="11.589911193424925"><ele>15.0</ele><time>2026-03-29T15:59:25.988Z</time></trkpt><trkpt lat="42.33654580217674" lon="11.590035029352666"><ele>15.0</ele><time>2026-03-29T15:59:26.988Z</time></trkpt><trkpt lat="42.33663560120943" lon="11.590167411656289"><ele>15.25</ele><time>2026-03-29T15:59:27.988Z</time></trkpt><trkpt lat="42.33672777626971" lon="11.590289437597148"><ele>15.5</ele><time>2026-03-29T15:59:28.988Z</time></trkpt><trkpt lat="42.33682208161417" lon="11.590417739530963"><ele>15.75</ele><time>2026-03-29T15:59:29.988Z</time></trkpt><trkpt lat="42.336920341796926" lon="11.590551736847303"><ele>16.0</ele><time>2026-03-29T15:59:30.988Z</time></trkpt><trkpt lat="42.33702503603084" lon="11.590679244644601"><ele>16.0</ele><time>2026-03-29T15:59:31.988Z</time></trkpt><trkpt lat="42.337131082848146" lon="11.590810488395626"><ele>16.0</ele><time>2026-03-29T15:59:32.988Z</time></trkpt><trkpt lat="42.33723959266087" lon="11.590942923744068"><ele>16.0</ele><time>2026-03-29T15:59:33.988Z</time></trkpt><trkpt lat="42.33735182967748" lon="11.59107485108033"><ele>16.0</ele><time>2026-03-29T15:59:34.988Z</time></trkpt><trkpt lat="42.337469867664666" lon="11.591198657682398"><ele>17.333333333333332</ele><time>2026-03-29T15:59:35.988Z</time></trkpt><trkpt lat="42.33759166512317" lon="11.591322280211036"><ele>18.666666666666668</ele><time>2026-03-29T15:59:36.988Z</time></trkpt><trkpt lat="42.337716636183075" lon="11.591440983684949"><ele>20.0</ele><time>2026-03-29T15:59:37.988Z</time></trkpt><trkpt lat="42.337848941640026" lon="11.591551724406333"><ele>20.0</ele><time>2026-03-29T15:59:38.988Z</time></trkpt><trkpt lat="42.337976154507565" lon="11.591656406364434"><ele>20.0</ele><time>2026-03-29T15:59:39.988Z</time></trkpt><trkpt lat="42.33810179414971" lon="11.591754693008932"><ele>20.0</ele><time>2026-03-29T15:59:40.988Z</time></trkpt><trkpt lat="42.338221713528505" lon="11.59184935939061"><ele>20.0</ele><time>2026-03-29T15:59:41.988Z</time></trkpt><trkpt lat="42.338334111821275" lon="11.591939364364768"><ele>20.5</ele><time>2026-03-29T15:59:42.988Z</time></trkpt><trkpt lat="42.33844950462328" lon="11.59202127398145"><ele>21.0</ele><time>2026-03-29T15:59:43.988Z</time></trkpt><trkpt lat="42.338570322112794" lon="11.592091280891406"><ele>21.5</ele><time>2026-03-29T15:59:44.988Z</time></trkpt><trkpt lat="42.33867484600563" lon="11.592211267339074"><ele>22.0</ele><time>2026-03-29T15:59:45.988Z</time></trkpt><trkpt lat="42.33880080399692" lon="11.592291734933513"><ele>22.666666666666664</ele><time>2026-03-29T15:59:46.988Z</time></trkpt><trkpt lat="42.338937664463856" lon="11.592374293036526"><ele>23.333333333333332</ele><time>2026-03-29T15:59:47.988Z</time></trkpt><trkpt lat="42.339077320735825" lon="11.592458362272508"><ele>24.0</ele><time>2026-03-29T15:59:48.988Z</time></trkpt><trkpt lat="42.33922136914442" lon="11.592547362406966"><ele>24.0</ele><time>2026-03-29T15:59:49.988Z</time></trkpt><trkpt lat="42.33936604434232" lon="11.592637751327299"><ele>24.0</ele><time>2026-03-29T15:59:50.988Z</time></trkpt><trkpt lat="42.339510676918266" lon="11.592726541393779"><ele>24.0</ele><time>2026-03-29T15:59:51.988Z</time></trkpt><trkpt lat="42.339660517183695" lon="11.592822566014679"><ele>25.0</ele><time>2026-03-29T15:59:52.988Z</time></trkpt><trkpt lat="42.33981213117832" lon="11.59291919662396"><ele>26.0</ele><time>2026-03-29T15:59:53.988Z</time></trkpt><trkpt lat="42.33995561176619" lon="11.593008249674794"><ele>27.0</ele><time>2026-03-29T15:59:54.988Z</time></trkpt><trkpt lat="42.340117837663044" lon="11.593109248097738"><ele>27.0</ele><time>2026-03-29T15:59:55.988Z</time></trkpt><trkpt lat="42.340272505607025" lon="11.593234271803201"><ele>27.0</ele><time>2026-03-29T15:59:56.988Z</time></trkpt><trkpt lat="42.340430189291624" lon="11.593342949782693"><ele>27.0</ele><time>2026-03-29T15:59:57.988Z</time></trkpt><trkpt lat="42.340585119555264" lon="11.593450728813066"><ele>27.333333333333336</ele><time>2026-03-29T15:59:58.988Z</time></trkpt><trkpt lat="42.34073826343901" lon="11.59355742416517"><ele>27.666666666666668</ele><time>2026-03-29T15:59:59.988Z</time></trkpt><trkpt lat="42.34089771571484" lon="11.593648333890815"><ele>28.0</ele><time>2026-03-29T16:00:00.987Z</time></trkpt><trkpt lat="42.34105400304859" lon="11.593755103528595"><ele>28.0</ele><time>2026-03-29T16:00:01.987Z</time></trkpt><trkpt lat="42.34121071061805" lon="11.593870446149568"><ele>28.0</ele><time>2026-03-29T16:00:02.987Z</time></trkpt><trkpt lat="42.34136505727831" lon="11.593983550278583"><ele>28.0</ele><time>2026-03-29T16:00:03.987Z</time></trkpt><trkpt lat="42.341515923517996" lon="11.594102630774255"><ele>28.0</ele><time>2026-03-29T16:00:04.987Z</time></trkpt><trkpt lat="42.341671234785906" lon="11.594219034641622"><ele>28.0</ele><time>2026-03-29T16:00:05.987Z</time></trkpt><trkpt lat="42.3418103479801" lon="11.594356691284089"><ele>28.0</ele><time>2026-03-29T16:00:06.987Z</time></trkpt><trkpt lat="42.34195137182092" lon="11.594488133841173"><ele>28.333333333333336</ele><time>2026-03-29T16:00:07.987Z</time></trkpt><trkpt lat="42.34208825902828" lon="11.594622377371184"><ele>28.666666666666664</ele><time>2026-03-29T16:00:08.987Z</time></trkpt><trkpt lat="42.34221866879113" lon="11.594753988269723"><ele>29.0</ele><time>2026-03-29T16:00:09.987Z</time></trkpt><trkpt lat="42.34234798954151" lon="11.594887056416066"><ele>29.666666666666664</ele><time>2026-03-29T16:00:10.987Z</time></trkpt><trkpt lat="42.34247838229536" lon="11.595022065825388"><ele>30.333333333333336</ele><time>2026-03-29T16:00:11.987Z</time></trkpt><trkpt lat="42.34261019372818" lon="11.595159559609954"><ele>31.0</ele><time>2026-03-29T16:00:12.987Z</time></trkpt><trkpt lat="42.3427403122405" lon="11.595295071783244"><ele>31.0</ele><time>2026-03-29T16:00:13.987Z</time></trkpt><trkpt lat="42.34287132294326" lon="11.595430054545183"><ele>31.0</ele><time>2026-03-29T16:00:14.987Z</time></trkpt><trkpt lat="42.34300360289446" lon="11.595562947045828"><ele>31.0</ele><time>2026-03-29T16:00:15.987Z</time></trkpt><trkpt lat="42.34313962676487" lon="11.595697361499541"><ele>30.666666666666668</ele><time>2026-03-29T16:00:16.987Z</time></trkpt><trkpt lat="42.34328975949988" lon="11.595816795670398"><ele>30.333333333333336</ele><time>2026-03-29T16:00:17.987Z</time></trkpt><trkpt lat="42.34342175861371" lon="11.595968808893526"><ele>30.0</ele><time>2026-03-29T16:00:18.987Z</time></trkpt><trkpt lat="42.34357189242557" lon="11.59608987272736"><ele>30.0</ele><time>2026-03-29T16:00:19.987Z</time></trkpt><trkpt lat="42.34371396943169" lon="11.596225230170905"><ele>30.0</ele><time>2026-03-29T16:00:20.987Z</time></trkpt><trkpt lat="42.34385220415965" lon="11.596357196287427"><ele>30.0</ele><time>2026-03-29T16:00:21.987Z</time></trkpt><trkpt lat="42.34399118017688" lon="11.596479656352917"><ele>30.0</ele><time>2026-03-29T16:00:22.987Z</time></trkpt><trkpt lat="42.344125870981195" lon="11.596606853811842"><ele>30.0</ele><time>2026-03-29T16:00:23.987Z</time></trkpt><trkpt lat="42.34424783343968" lon="11.59675326812625"><ele>30.0</ele><time>2026-03-29T16:00:24.987Z</time></trkpt><trkpt lat="42.34437521392689" lon="11.59688005289944"><ele>30.0</ele><time>2026-03-29T16:00:25.987Z</time></trkpt><trkpt lat="42.344511234508595" lon="11.596996665249872"><ele>30.0</ele><time>2026-03-29T16:00:26.987Z</time></trkpt><trkpt lat="42.34462913311266" lon="11.597126709511496"><ele>30.0</ele><time>2026-03-29T16:00:27.987Z</time></trkpt><trkpt lat="42.344741625403216" lon="11.597242022892184"><ele>29.5</ele><time>2026-03-29T16:00:28.987Z</time></trkpt><trkpt lat="42.344849286939336" lon="11.597352809502867"><ele>29.0</ele><time>2026-03-29T16:00:29.987Z</time></trkpt><trkpt lat="42.3449450763516" lon="11.59746627866713"><ele>28.5</ele><time>2026-03-29T16:00:30.987Z</time></trkpt><trkpt lat="42.34502399068625" lon="11.597618882923424"><ele>28.0</ele><time>2026-03-29T16:00:31.987Z</time></trkpt><trkpt lat="42.345100855993735" lon="11.597718638168"><ele>28.000000000000004</ele><time>2026-03-29T16:00:32.987Z</time></trkpt><trkpt lat="42.34517109470652" lon="11.597816425153322"><ele>28.0</ele><time>2026-03-29T16:00:33.987Z</time></trkpt><trkpt lat="42.345238247482705" lon="11.597905434725584"><ele>28.0</ele><time>2026-03-29T16:00:34.987Z</time></trkpt><trkpt lat="42.34529568475453" lon="11.597987782860887"><ele>28.0</ele><time>2026-03-29T16:00:35.987Z</time></trkpt><trkpt lat="42.34535129675969" lon="11.59807324350534"><ele>28.000000000000004</ele><time>2026-03-29T16:00:36.987Z</time></trkpt><trkpt lat="42.3453927094202" lon="11.598152315611035"><ele>28.0</ele><time>2026-03-29T16:00:37.987Z</time></trkpt><trkpt lat="42.345427671878454" lon="11.598233425354598"><ele>28.333333333333336</ele><time>2026-03-29T16:00:38.987Z</time></trkpt><trkpt lat="42.34544669771162" lon="11.598337981237549"><ele>28.666666666666668</ele><time>2026-03-29T16:00:39.987Z</time></trkpt><trkpt lat="42.34546565887213" lon="11.598435467335257"><ele>29.0</ele><time>2026-03-29T16:00:40.987Z</time></trkpt><trkpt lat="42.34548946358141" lon="11.598539521141722"><ele>29.333333333333336</ele><time>2026-03-29T16:00:41.987Z</time></trkpt><trkpt lat="42.34552262585227" lon="11.598643129832185"><ele>29.666666666666668</ele><time>2026-03-29T16:00:42.987Z</time></trkpt><trkpt lat="42.34555788047851" lon="11.598755108004202"><ele>30.0</ele><time>2026-03-29T16:00:43.987Z</time></trkpt><trkpt lat="42.345588989037715" lon="11.59888281546592"><ele>30.6</ele><time>2026-03-29T16:00:44.987Z</time></trkpt><trkpt lat="42.34562516739066" lon="11.599010122315805"><ele>31.2</ele><time>2026-03-29T16:00:45.987Z</time></trkpt><trkpt lat="42.34566538325584" lon="11.599145167207768"><ele>31.799999999999997</ele><time>2026-03-29T16:00:46.987Z</time></trkpt><trkpt lat="42.34570667153869" lon="11.59928667330204"><ele>32.4</ele><time>2026-03-29T16:00:47.987Z</time></trkpt><trkpt lat="42.34574823124674" lon="11.59943888230247"><ele>33.0</ele><time>2026-03-29T16:00:48.987Z</time></trkpt><trkpt lat="42.34578916174899" lon="11.599589987096435"><ele>33.0</ele><time>2026-03-29T16:00:49.987Z</time></trkpt><trkpt lat="42.345834515011504" lon="11.599750904623182"><ele>33.0</ele><time>2026-03-29T16:00:50.988Z</time></trkpt><trkpt lat="42.34588426598516" lon="11.599909948412664"><ele>33.0</ele><time>2026-03-29T16:00:51.987Z</time></trkpt><trkpt lat="42.34594325327939" lon="11.6000791636607"><ele>33.0</ele><time>2026-03-29T16:00:52.987Z</time></trkpt><trkpt lat="42.34600087709651" lon="11.60026017141738"><ele>32.5</ele><time>2026-03-29T16:00:53.987Z</time></trkpt><trkpt lat="42.34605014844299" lon="11.600433305979243"><ele>32.0</ele><time>2026-03-29T16:00:54.988Z</time></trkpt><trkpt lat="42.34609921596957" lon="11.600610115461627"><ele>31.5</ele><time>2026-03-29T16:00:55.988Z</time></trkpt><trkpt lat="42.34614584850594" lon="11.600783913789916"><ele>31.0</ele><time>2026-03-29T16:00:56.988Z</time></trkpt><trkpt lat="42.346191770966065" lon="11.60095784530856"><ele>31.0</ele><time>2026-03-29T16:00:57.987Z</time></trkpt><trkpt lat="42.34623575225106" lon="11.601123995684908"><ele>31.0</ele><time>2026-03-29T16:00:58.987Z</time></trkpt><trkpt lat="42.346289694212786" lon="11.60129373650065"><ele>31.0</ele><time>2026-03-29T16:00:59.988Z</time></trkpt><trkpt lat="42.346342022875604" lon="11.601467469062102"><ele>31.0</ele><time>2026-03-29T16:01:00.987Z</time></trkpt><trkpt lat="42.34639189667355" lon="11.60164875270351"><ele>32.0</ele><time>2026-03-29T16:01:01.987Z</time></trkpt><trkpt lat="42.34644294815927" lon="11.601822342322373"><ele>33.0</ele><time>2026-03-29T16:01:02.987Z</time></trkpt><trkpt lat="42.34649282254008" lon="11.601997490513332"><ele>34.0</ele><time>2026-03-29T16:01:03.987Z</time></trkpt><trkpt lat="42.34654660027234" lon="11.602176645080286"><ele>35.0</ele><time>2026-03-29T16:01:04.987Z</time></trkpt><trkpt lat="42.346606268506946" lon="11.60235385619449"><ele>35.0</ele><time>2026-03-29T16:01:05.987Z</time></trkpt><trkpt lat="42.34666503755466" lon="11.602534607287474"><ele>35.0</ele><time>2026-03-29T16:01:06.987Z</time></trkpt><trkpt lat="42.34672681871491" lon="11.602717209915568"><ele>35.0</ele><time>2026-03-29T16:01:07.987Z</time></trkpt><trkpt lat="42.34679626900282" lon="11.60290150188543"><ele>35.0</ele><time>2026-03-29T16:01:08.987Z</time></trkpt><trkpt lat="42.34686131537189" lon="11.603088726202495"><ele>34.666666666666664</ele><time>2026-03-29T16:01:09.987Z</time></trkpt><trkpt lat="42.346925148729795" lon="11.603277514805358"><ele>34.333333333333336</ele><time>2026-03-29T16:01:10.987Z</time></trkpt><trkpt lat="42.346989213404086" lon="11.60345888793559"><ele>34.0</ele><time>2026-03-29T16:01:11.987Z</time></trkpt><trkpt lat="42.34705704962751" lon="11.6036450933895"><ele>34.0</ele><time>2026-03-29T16:01:12.987Z</time></trkpt><trkpt lat="42.34712355566872" lon="11.603831432399009"><ele>34.0</ele><time>2026-03-29T16:01:13.987Z</time></trkpt><trkpt lat="42.34719010679649" lon="11.604015396420461"><ele>34.0</ele><time>2026-03-29T16:01:14.987Z</time></trkpt><trkpt lat="42.34725457032337" lon="11.604200918916712"><ele>34.0</ele><time>2026-03-29T16:01:15.987Z</time></trkpt><trkpt lat="42.34732131481325" lon="11.60438883064455"><ele>34.0</ele><time>2026-03-29T16:01:16.987Z</time></trkpt><trkpt lat="42.347387546324356" lon="11.604574941014862"><ele>34.0</ele><time>2026-03-29T16:01:17.987Z</time></trkpt><trkpt lat="42.34744293291417" lon="11.604766735149942"><ele>34.0</ele><time>2026-03-29T16:01:18.987Z</time></trkpt><trkpt lat="42.347509468069866" lon="11.604953564500237"><ele>34.0</ele><time>2026-03-29T16:01:19.987Z</time></trkpt><trkpt lat="42.34757816357808" lon="11.60514192326975"><ele>34.0</ele><time>2026-03-29T16:01:20.987Z</time></trkpt><trkpt lat="42.34766162298983" lon="11.60532689973773"><ele>33.333333333333336</ele><time>2026-03-29T16:01:21.987Z</time></trkpt><trkpt lat="42.34773066350442" lon="11.605520756883914"><ele>32.666666666666664</ele><time>2026-03-29T16:01:22.987Z</time></trkpt><trkpt lat="42.34775895690965" lon="11.605726786324416"><ele>32.0</ele><time>2026-03-29T16:01:23.987Z</time></trkpt><trkpt lat="42.34782534423" lon="11.605925375628615"><ele>32.0</ele><time>2026-03-29T16:01:24.987Z</time></trkpt><trkpt lat="42.34789298886754" lon="11.606127067545764"><ele>32.0</ele><time>2026-03-29T16:01:25.987Z</time></trkpt><trkpt lat="42.34795881286103" lon="11.606322051570245"><ele>32.0</ele><time>2026-03-29T16:01:26.987Z</time></trkpt><trkpt lat="42.34802582768285" lon="11.606522928662395"><ele>32.0</ele><time>2026-03-29T16:01:27.987Z</time></trkpt><trkpt lat="42.3480900228539" lon="11.606723508142077"><ele>32.0</ele><time>2026-03-29T16:01:28.987Z</time></trkpt><trkpt lat="42.348157034712116" lon="11.606927778578765"><ele>32.0</ele><time>2026-03-29T16:01:29.987Z</time></trkpt><trkpt lat="42.3482215024793" lon="11.607136629550055"><ele>32.0</ele><time>2026-03-29T16:01:30.987Z</time></trkpt><trkpt lat="42.34828163991301" lon="11.607347704748431"><ele>32.0</ele><time>2026-03-29T16:01:31.987Z</time></trkpt><trkpt lat="42.34833953723269" lon="11.607540649075533"><ele>32.0</ele><time>2026-03-29T16:01:32.987Z</time></trkpt><trkpt lat="42.34839380219183" lon="11.607733345915708"><ele>32.25</ele><time>2026-03-29T16:01:33.987Z</time></trkpt><trkpt lat="42.3484446372451" lon="11.60791697173129"><ele>32.5</ele><time>2026-03-29T16:01:34.987Z</time></trkpt><trkpt lat="42.34850124020731" lon="11.608097541338314"><ele>32.75</ele><time>2026-03-29T16:01:35.987Z</time></trkpt><trkpt lat="42.34855446183302" lon="11.608282552537354"><ele>33.0</ele><time>2026-03-29T16:01:36.987Z</time></trkpt><trkpt lat="42.34860384651745" lon="11.608460882926117"><ele>33.0</ele><time>2026-03-29T16:01:37.987Z</time></trkpt><trkpt lat="42.3486503150264" lon="11.608635716586527"><ele>33.0</ele><time>2026-03-29T16:01:38.987Z</time></trkpt><trkpt lat="42.34868594716328" lon="11.608809117599241"><ele>33.0</ele><time>2026-03-29T16:01:39.987Z</time></trkpt><trkpt lat="42.34872916200803" lon="11.608968052374964"><ele>33.0</ele><time>2026-03-29T16:01:40.987Z</time></trkpt><trkpt lat="42.34877158718303" lon="11.609122985756906"><ele>33.25</ele><time>2026-03-29T16:01:41.987Z</time></trkpt><trkpt lat="42.34881296752464" lon="11.60928095405354"><ele>33.5</ele><time>2026-03-29T16:01:42.987Z</time></trkpt><trkpt lat="42.348849389193234" lon="11.609439032906769"><ele>33.75</ele><time>2026-03-29T16:01:43.987Z</time></trkpt><trkpt lat="42.34888910597562" lon="11.6096049538203"><ele>34.0</ele><time>2026-03-29T16:01:44.987Z</time></trkpt><trkpt lat="42.3489300879148" lon="11.609772233402449"><ele>34.5</ele><time>2026-03-29T16:01:45.987Z</time></trkpt><trkpt lat="42.34896837962441" lon="11.609954328700223"><ele>35.0</ele><time>2026-03-29T16:01:46.987Z</time></trkpt><trkpt lat="42.34900603598481" lon="11.61013941022346"><ele>35.5</ele><time>2026-03-29T16:01:47.987Z</time></trkpt><trkpt lat="42.34904485205172" lon="11.610310438666204"><ele>36.0</ele><time>2026-03-29T16:01:48.987Z</time></trkpt><trkpt lat="42.349095012038156" lon="11.610484711559478"><ele>36.25</ele><time>2026-03-29T16:01:49.987Z</time></trkpt><trkpt lat="42.34912786992125" lon="11.610669698415744"><ele>36.5</ele><time>2026-03-29T16:01:50.987Z</time></trkpt><trkpt lat="42.349168877012325" lon="11.61085058839995"><ele>36.75</ele><time>2026-03-29T16:01:51.987Z</time></trkpt><trkpt lat="42.349212111614705" lon="11.611040737224155"><ele>37.0</ele><time>2026-03-29T16:01:52.987Z</time></trkpt><trkpt lat="42.34925248769681" lon="11.61122018968727"><ele>37.0</ele><time>2026-03-29T16:01:53.987Z</time></trkpt><trkpt lat="42.34929370744603" lon="11.611407434486225"><ele>37.0</ele><time>2026-03-29T16:01:54.987Z</time></trkpt><trkpt lat="42.34933572742719" lon="11.611603288024355"><ele>37.0</ele><time>2026-03-29T16:01:55.987Z</time></trkpt><trkpt lat="42.34937775737122" lon="11.611798954658507"><ele>37.0</ele><time>2026-03-29T16:01:56.987Z</time></trkpt><trkpt lat="42.34941817277961" lon="11.611987080268177"><ele>37.0</ele><time>2026-03-29T16:01:57.987Z</time></trkpt><trkpt lat="42.34946237459194" lon="11.612183219708673"><ele>37.0</ele><time>2026-03-29T16:01:58.987Z</time></trkpt><trkpt lat="42.349505530031955" lon="11.612377555485367"><ele>37.0</ele><time>2026-03-29T16:01:59.987Z</time></trkpt><trkpt lat="42.34954950406737" lon="11.612576885081207"><ele>37.0</ele><time>2026-03-29T16:02:00.987Z</time></trkpt><trkpt lat="42.34959233799638" lon="11.612771708384322"><ele>37.0</ele><time>2026-03-29T16:02:01.987Z</time></trkpt><trkpt lat="42.349634839955776" lon="11.612965021985872"><ele>37.0</ele><time>2026-03-29T16:02:02.987Z</time></trkpt><trkpt lat="42.34968877899285" lon="11.613133070568265"><ele>37.0</ele><time>2026-03-29T16:02:03.987Z</time></trkpt><trkpt lat="42.349724363904855" lon="11.613308294431507"><ele>37.0</ele><time>2026-03-29T16:02:04.987Z</time></trkpt><trkpt lat="42.349759558492714" lon="11.613477598451668"><ele>37.0</ele><time>2026-03-29T16:02:05.986Z</time></trkpt><trkpt lat="42.34977977205703" lon="11.61365985895991"><ele>37.0</ele><time>2026-03-29T16:02:06.986Z</time></trkpt><trkpt lat="42.349812426823895" lon="11.613840079578296"><ele>37.0</ele><time>2026-03-29T16:02:07.986Z</time></trkpt><trkpt lat="42.34983991513596" lon="11.614022389224091"><ele>37.25</ele><time>2026-03-29T16:02:08.986Z</time></trkpt><trkpt lat="42.349876431155884" lon="11.614196576972065"><ele>37.5</ele><time>2026-03-29T16:02:09.986Z</time></trkpt><trkpt lat="42.34989003427094" lon="11.614382826656618"><ele>37.75</ele><time>2026-03-29T16:02:10.986Z</time></trkpt><trkpt lat="42.34989748907367" lon="11.614567157396575"><ele>38.0</ele><time>2026-03-29T16:02:11.986Z</time></trkpt><trkpt lat="42.3499084878306" lon="11.614743080845573"><ele>38.0</ele><time>2026-03-29T16:02:12.986Z</time></trkpt><trkpt lat="42.349915734105394" lon="11.61491453281374"><ele>38.0</ele><time>2026-03-29T16:02:13.986Z</time></trkpt><trkpt lat="42.34992429233903" lon="11.615083172761778"><ele>38.0</ele><time>2026-03-29T16:02:14.986Z</time></trkpt><trkpt lat="42.34989800887683" lon="11.615248470712034"><ele>38.0</ele><time>2026-03-29T16:02:15.986Z</time></trkpt><trkpt lat="42.3499057074267" lon="11.615398319076306"><ele>38.25</ele><time>2026-03-29T16:02:16.986Z</time></trkpt><trkpt lat="42.34991294039725" lon="11.615538452870211"><ele>38.5</ele><time>2026-03-29T16:02:17.986Z</time></trkpt><trkpt lat="42.3499154989797" lon="11.615684236960712"><ele>38.75</ele><time>2026-03-29T16:02:18.986Z</time></trkpt><trkpt lat="42.34992697499238" lon="11.615835685873256"><ele>39.0</ele><time>2026-03-29T16:02:19.986Z</time></trkpt><trkpt lat="42.34993947844739" lon="11.616010338851495"><ele>39.25</ele><time>2026-03-29T16:02:20.986Z</time></trkpt><trkpt lat="42.34995256877537" lon="11.616188860781945"><ele>39.5</ele><time>2026-03-29T16:02:21.986Z</time></trkpt><trkpt lat="42.3499630197707" lon="11.616381374548688"><ele>39.75</ele><time>2026-03-29T16:02:22.986Z</time></trkpt><trkpt lat="42.34997255230647" lon="11.616563805066065"><ele>40.0</ele><time>2026-03-29T16:02:23.986Z</time></trkpt><trkpt lat="42.34998435066423" lon="11.616749890929452"><ele>40.0</ele><time>2026-03-29T16:02:24.986Z</time></trkpt><trkpt lat="42.34999788621337" lon="11.61694576272262"><ele>40.0</ele><time>2026-03-29T16:02:25.986Z</time></trkpt><trkpt lat="42.35000782459909" lon="11.61714346883817"><ele>40.0</ele><time>2026-03-29T16:02:26.986Z</time></trkpt><trkpt lat="42.35001595280385" lon="11.617346465987726"><ele>40.0</ele><time>2026-03-29T16:02:27.986Z</time></trkpt><trkpt lat="42.35002865090017" lon="11.617549742491654"><ele>40.0</ele><time>2026-03-29T16:02:28.986Z</time></trkpt><trkpt lat="42.35004129798736" lon="11.617748308127357"><ele>40.0</ele><time>2026-03-29T16:02:29.986Z</time></trkpt><trkpt lat="42.35005182827671" lon="11.617951747999543"><ele>40.0</ele><time>2026-03-29T16:02:30.986Z</time></trkpt><trkpt lat="42.350061784622575" lon="11.618152908993297"><ele>40.0</ele><time>2026-03-29T16:02:31.986Z</time></trkpt><trkpt lat="42.35007135390181" lon="11.618351614589308"><ele>40.0</ele><time>2026-03-29T16:02:32.986Z</time></trkpt><trkpt lat="42.350082996203575" lon="11.618552058639027"><ele>40.0</ele><time>2026-03-29T16:02:33.986Z</time></trkpt><trkpt lat="42.35008891360744" lon="11.618745666792453"><ele>40.0</ele><time>2026-03-29T16:02:34.986Z</time></trkpt><trkpt lat="42.35009794371869" lon="11.618941550137215"><ele>40.0</ele><time>2026-03-29T16:02:35.986Z</time></trkpt><trkpt lat="42.35010638346091" lon="11.619127512649762"><ele>40.5</ele><time>2026-03-29T16:02:36.986Z</time></trkpt><trkpt lat="42.3501172833412" lon="11.61930776661825"><ele>41.0</ele><time>2026-03-29T16:02:37.986Z</time></trkpt><trkpt lat="42.35012792940029" lon="11.619481780311046"><ele>41.5</ele><time>2026-03-29T16:02:38.986Z</time></trkpt><trkpt lat="42.350137865290954" lon="11.619652905037567"><ele>42.0</ele><time>2026-03-29T16:02:39.986Z</time></trkpt><trkpt lat="42.350149640686745" lon="11.61982032393666"><ele>42.0</ele><time>2026-03-29T16:02:40.986Z</time></trkpt><trkpt lat="42.35016340812299" lon="11.619987091298741"><ele>42.0</ele><time>2026-03-29T16:02:41.986Z</time></trkpt><trkpt lat="42.35016984562262" lon="11.62015801090177"><ele>42.0</ele><time>2026-03-29T16:02:42.986Z</time></trkpt><trkpt lat="42.35017048654371" lon="11.62032689534596"><ele>42.0</ele><time>2026-03-29T16:02:43.986Z</time></trkpt><trkpt lat="42.35017445944147" lon="11.620494203446876"><ele>42.0</ele><time>2026-03-29T16:02:44.986Z</time></trkpt><trkpt lat="42.35018661628368" lon="11.620651073567897"><ele>42.0</ele><time>2026-03-29T16:02:45.986Z</time></trkpt><trkpt lat="42.35019663706118" lon="11.620818359389494"><ele>42.0</ele><time>2026-03-29T16:02:46.986Z</time></trkpt><trkpt lat="42.3502111072375" lon="11.620990727637121"><ele>42.0</ele><time>2026-03-29T16:02:47.986Z</time></trkpt><trkpt lat="42.3502178737959" lon="11.621178371512476"><ele>42.0</ele><time>2026-03-29T16:02:48.986Z</time></trkpt><trkpt lat="42.35022858926993" lon="11.621367438091065"><ele>42.0</ele><time>2026-03-29T16:02:49.986Z</time></trkpt><trkpt lat="42.350241315821165" lon="11.621563019196667"><ele>42.0</ele><time>2026-03-29T16:02:50.986Z</time></trkpt><trkpt lat="42.350250233487145" lon="11.621753695096283"><ele>42.0</ele><time>2026-03-29T16:02:51.986Z</time></trkpt><trkpt lat="42.3502604475915" lon="11.621956067472036"><ele>42.333333333333336</ele><time>2026-03-29T16:02:52.986Z</time></trkpt><trkpt lat="42.350276284289016" lon="11.622160097585985"><ele>42.66666666666667</ele><time>2026-03-29T16:02:53.986Z</time></trkpt><trkpt lat="42.35029180316372" lon="11.622376290420705"><ele>43.0</ele><time>2026-03-29T16:02:54.986Z</time></trkpt><trkpt lat="42.35030458441573" lon="11.622600706903654"><ele>43.333333333333336</ele><time>2026-03-29T16:02:55.986Z</time></trkpt><trkpt lat="42.35031799907808" lon="11.622819958348858"><ele>43.666666666666664</ele><time>2026-03-29T16:02:56.987Z</time></trkpt><trkpt lat="42.35033081347748" lon="11.62304199389247"><ele>44.0</ele><time>2026-03-29T16:02:57.986Z</time></trkpt><trkpt lat="42.35030366972815" lon="11.623276899862898"><ele>44.0</ele><time>2026-03-29T16:02:58.986Z</time></trkpt><trkpt lat="42.35031563288737" lon="11.6235008535675"><ele>44.0</ele><time>2026-03-29T16:02:59.986Z</time></trkpt><trkpt lat="42.350325997826104" lon="11.623730981968079"><ele>44.0</ele><time>2026-03-29T16:03:00.987Z</time></trkpt><trkpt lat="42.350341196428666" lon="11.623964936733397"><ele>43.666666666666664</ele><time>2026-03-29T16:03:01.987Z</time></trkpt><trkpt lat="42.350352334846214" lon="11.6241944754511"><ele>43.333333333333336</ele><time>2026-03-29T16:03:02.987Z</time></trkpt><trkpt lat="42.35036295865855" lon="11.624424293004086"><ele>43.0</ele><time>2026-03-29T16:03:03.987Z</time></trkpt><trkpt lat="42.35037590275325" lon="11.624659059862482"><ele>43.0</ele><time>2026-03-29T16:03:04.987Z</time></trkpt><trkpt lat="42.350386742125096" lon="11.62489929694198"><ele>43.0</ele><time>2026-03-29T16:03:05.987Z</time></trkpt><trkpt lat="42.350399657919134" lon="11.625143406435525"><ele>43.0</ele><time>2026-03-29T16:03:06.986Z</time></trkpt><trkpt lat="42.35041352115442" lon="11.625385227615334"><ele>43.0</ele><time>2026-03-29T16:03:07.986Z</time></trkpt><trkpt lat="42.350422434772476" lon="11.625631245467149"><ele>43.0</ele><time>2026-03-29T16:03:08.986Z</time></trkpt><trkpt lat="42.35043390429776" lon="11.62587660957766"><ele>43.0</ele><time>2026-03-29T16:03:09.987Z</time></trkpt><trkpt lat="42.35045234854056" lon="11.626120077584403"><ele>43.333333333333336</ele><time>2026-03-29T16:03:10.987Z</time></trkpt><trkpt lat="42.35046696206817" lon="11.626360698986863"><ele>43.666666666666664</ele><time>2026-03-29T16:03:11.987Z</time></trkpt><trkpt lat="42.35047900293171" lon="11.626605065629871"><ele>44.0</ele><time>2026-03-29T16:03:12.987Z</time></trkpt><trkpt lat="42.35049503829054" lon="11.626845544271927"><ele>43.666666666666664</ele><time>2026-03-29T16:03:13.987Z</time></trkpt><trkpt lat="42.350509882118274" lon="11.627082433632104"><ele>43.333333333333336</ele><time>2026-03-29T16:03:14.987Z</time></trkpt><trkpt lat="42.350526120466995" lon="11.627309801221488"><ele>43.0</ele><time>2026-03-29T16:03:15.987Z</time></trkpt><trkpt lat="42.350538832625" lon="11.627539324013027"><ele>42.333333333333336</ele><time>2026-03-29T16:03:16.987Z</time></trkpt><trkpt lat="42.35054958912791" lon="11.62776776946161"><ele>41.666666666666664</ele><time>2026-03-29T16:03:17.987Z</time></trkpt><trkpt lat="42.35056221587905" lon="11.62799293926233"><ele>41.0</ele><time>2026-03-29T16:03:18.986Z</time></trkpt><trkpt lat="42.350570083680964" lon="11.628215797758099"><ele>41.0</ele><time>2026-03-29T16:03:19.986Z</time></trkpt><trkpt lat="42.35058069496681" lon="11.62843927355119"><ele>41.0</ele><time>2026-03-29T16:03:20.986Z</time></trkpt><trkpt lat="42.35060416825821" lon="11.628660260712998"><ele>41.0</ele><time>2026-03-29T16:03:21.986Z</time></trkpt><trkpt lat="42.35061789608416" lon="11.628879086092892"><ele>41.33333333333333</ele><time>2026-03-29T16:03:22.986Z</time></trkpt><trkpt lat="42.350629939539864" lon="11.629105351710841"><ele>41.666666666666664</ele><time>2026-03-29T16:03:23.986Z</time></trkpt><trkpt lat="42.35064014382893" lon="11.629334364376572"><ele>42.0</ele><time>2026-03-29T16:03:24.986Z</time></trkpt><trkpt lat="42.35065119737394" lon="11.62956658276904"><ele>42.0</ele><time>2026-03-29T16:03:25.986Z</time></trkpt><trkpt lat="42.35066830411375" lon="11.629804083654287"><ele>42.0</ele><time>2026-03-29T16:03:26.986Z</time></trkpt><trkpt lat="42.35069403222697" lon="11.630048517664953"><ele>42.0</ele><time>2026-03-29T16:03:27.986Z</time></trkpt><trkpt lat="42.35072414593564" lon="11.630295916876953"><ele>42.333333333333336</ele><time>2026-03-29T16:03:28.986Z</time></trkpt><trkpt lat="42.350772087635754" lon="11.630537231438256"><ele>42.66666666666667</ele><time>2026-03-29T16:03:29.986Z</time></trkpt><trkpt lat="42.350830018901505" lon="11.630770694060724"><ele>43.0</ele><time>2026-03-29T16:03:30.986Z</time></trkpt><trkpt lat="42.35091009826607" lon="11.63099224712383"><ele>43.333333333333336</ele><time>2026-03-29T16:03:31.986Z</time></trkpt><trkpt lat="42.35099980391768" lon="11.631210138459618"><ele>43.666666666666664</ele><time>2026-03-29T16:03:32.986Z</time></trkpt><trkpt lat="42.35110441614881" lon="11.631412377433465"><ele>44.0</ele><time>2026-03-29T16:03:33.986Z</time></trkpt><trkpt lat="42.35122140898154" lon="11.63160646163598"><ele>44.0</ele><time>2026-03-29T16:03:34.986Z</time></trkpt><trkpt lat="42.35136161442526" lon="11.631797957615849"><ele>44.0</ele><time>2026-03-29T16:03:35.986Z</time></trkpt><trkpt lat="42.351503904560566" lon="11.632012019061996"><ele>44.0</ele><time>2026-03-29T16:03:36.986Z</time></trkpt><trkpt lat="42.351668752144555" lon="11.632240827187129"><ele>44.5</ele><time>2026-03-29T16:03:37.986Z</time></trkpt><trkpt lat="42.35183442105615" lon="11.632466657110717"><ele>45.0</ele><time>2026-03-29T16:03:38.986Z</time></trkpt><trkpt lat="42.35199965485605" lon="11.632691760373365"><ele>45.0</ele><time>2026-03-29T16:03:39.986Z</time></trkpt><trkpt lat="42.35216094461742" lon="11.632913353926256"><ele>45.0</ele><time>2026-03-29T16:03:40.986Z</time></trkpt><trkpt lat="42.35233059673744" lon="11.633121411947608"><ele>44.0</ele><time>2026-03-29T16:03:41.986Z</time></trkpt><trkpt lat="42.352486230423274" lon="11.633338552039884"><ele>43.0</ele><time>2026-03-29T16:03:42.986Z</time></trkpt><trkpt lat="42.352636976863" lon="11.633568827769398"><ele>42.5</ele><time>2026-03-29T16:03:43.986Z</time></trkpt><trkpt lat="42.352800431564646" lon="11.633795841778328"><ele>42.0</ele><time>2026-03-29T16:03:44.986Z</time></trkpt><trkpt lat="42.3529699313558" lon="11.63403125148894"><ele>42.0</ele><time>2026-03-29T16:03:45.986Z</time></trkpt><trkpt lat="42.35314540026029" lon="11.63427348724536"><ele>42.0</ele><time>2026-03-29T16:03:46.986Z</time></trkpt><trkpt lat="42.35334289002963" lon="11.634512959275845"><ele>42.5</ele><time>2026-03-29T16:03:47.986Z</time></trkpt><trkpt lat="42.353510546830776" lon="11.634797382460702"><ele>43.0</ele><time>2026-03-29T16:03:48.986Z</time></trkpt><trkpt lat="42.35368884535077" lon="11.63505271543131"><ele>43.0</ele><time>2026-03-29T16:03:49.986Z</time></trkpt><trkpt lat="42.35386794398863" lon="11.635301509437317"><ele>43.0</ele><time>2026-03-29T16:03:50.986Z</time></trkpt><trkpt lat="42.35405149811526" lon="11.635543070138729"><ele>44.0</ele><time>2026-03-29T16:03:51.986Z</time></trkpt><trkpt lat="42.35423448498223" lon="11.63579433760595"><ele>45.0</ele><time>2026-03-29T16:03:52.986Z</time></trkpt><trkpt lat="42.35441499813294" lon="11.636049954414046"><ele>45.0</ele><time>2026-03-29T16:03:53.986Z</time></trkpt><trkpt lat="42.354595666965054" lon="11.636294230025904"><ele>45.0</ele><time>2026-03-29T16:03:54.986Z</time></trkpt><trkpt lat="42.35477892011261" lon="11.63653338195804"><ele>45.0</ele><time>2026-03-29T16:03:55.986Z</time></trkpt><trkpt lat="42.3549596622928" lon="11.636773183661933"><ele>45.0</ele><time>2026-03-29T16:03:56.986Z</time></trkpt><trkpt lat="42.35513822029493" lon="11.637026343118285"><ele>44.5</ele><time>2026-03-29T16:03:57.986Z</time></trkpt><trkpt lat="42.35532308176095" lon="11.637273500244747"><ele>44.0</ele><time>2026-03-29T16:03:58.986Z</time></trkpt><trkpt lat="42.355502420227644" lon="11.637520759628913"><ele>44.0</ele><time>2026-03-29T16:03:59.986Z</time></trkpt><trkpt lat="42.35568687195328" lon="11.637766208629893"><ele>44.0</ele><time>2026-03-29T16:04:00.986Z</time></trkpt><trkpt lat="42.35586952131766" lon="11.638016585893782"><ele>44.0</ele><time>2026-03-29T16:04:01.986Z</time></trkpt><trkpt lat="42.356049771615105" lon="11.638267332141016"><ele>44.0</ele><time>2026-03-29T16:04:02.986Z</time></trkpt><trkpt lat="42.356230020594474" lon="11.63851316754864"><ele>44.5</ele><time>2026-03-29T16:04:03.986Z</time></trkpt><trkpt lat="42.3564117448981" lon="11.638771390907147"><ele>45.0</ele><time>2026-03-29T16:04:04.986Z</time></trkpt><trkpt lat="42.3565957137415" lon="11.639028718108777"><ele>45.0</ele><time>2026-03-29T16:04:05.986Z</time></trkpt><trkpt lat="42.356780094460035" lon="11.639275414296984"><ele>45.0</ele><time>2026-03-29T16:04:06.986Z</time></trkpt><trkpt lat="42.35695925980585" lon="11.639526128832333"><ele>45.5</ele><time>2026-03-29T16:04:07.986Z</time></trkpt><trkpt lat="42.35713694088137" lon="11.639766919890633"><ele>46.0</ele><time>2026-03-29T16:04:08.986Z</time></trkpt><trkpt lat="42.35730631151861" lon="11.640001580005361"><ele>46.0</ele><time>2026-03-29T16:04:09.986Z</time></trkpt><trkpt lat="42.357468439554125" lon="11.64024119788361"><ele>46.0</ele><time>2026-03-29T16:04:10.986Z</time></trkpt><trkpt lat="42.35763030280643" lon="11.640478481621638"><ele>45.5</ele><time>2026-03-29T16:04:11.986Z</time></trkpt><trkpt lat="42.357795996796995" lon="11.640700758390567"><ele>45.0</ele><time>2026-03-29T16:04:12.986Z</time></trkpt><trkpt lat="42.35795920244696" lon="11.640922851748444"><ele>45.333333333333336</ele><time>2026-03-29T16:04:13.986Z</time></trkpt><trkpt lat="42.35811660826732" lon="11.641138506230961"><ele>45.66666666666667</ele><time>2026-03-29T16:04:14.986Z</time></trkpt><trkpt lat="42.35827354129999" lon="11.64135029486466"><ele>46.0</ele><time>2026-03-29T16:04:15.986Z</time></trkpt><trkpt lat="42.35843231187844" lon="11.641567720455548"><ele>46.0</ele><time>2026-03-29T16:04:16.986Z</time></trkpt><trkpt lat="42.358586138223075" lon="11.641779757569156"><ele>46.0</ele><time>2026-03-29T16:04:17.986Z</time></trkpt><trkpt lat="42.35873995103979" lon="11.641989839514391"><ele>46.0</ele><time>2026-03-29T16:04:18.986Z</time></trkpt><trkpt lat="42.358892112066016" lon="11.642207481088226"><ele>46.0</ele><time>2026-03-29T16:04:19.986Z</time></trkpt><trkpt lat="42.35906365884223" lon="11.642435084888387"><ele>46.0</ele><time>2026-03-29T16:04:20.985Z</time></trkpt><trkpt lat="42.35922922458543" lon="11.642645956619768"><ele>46.0</ele><time>2026-03-29T16:04:21.985Z</time></trkpt><trkpt lat="42.35935992682374" lon="11.642860227790376"><ele>46.0</ele><time>2026-03-29T16:04:22.985Z</time></trkpt><trkpt lat="42.35948738957338" lon="11.6430518936241"><ele>46.0</ele><time>2026-03-29T16:04:23.985Z</time></trkpt><trkpt lat="42.35960798920785" lon="11.643236824227781"><ele>46.25</ele><time>2026-03-29T16:04:24.985Z</time></trkpt><trkpt lat="42.35971366585629" lon="11.64341814204617"><ele>46.5</ele><time>2026-03-29T16:04:25.985Z</time></trkpt><trkpt lat="42.35979687958886" lon="11.64356480547638"><ele>46.75</ele><time>2026-03-29T16:04:26.985Z</time></trkpt><trkpt lat="42.3598624957927" lon="11.643709514368561"><ele>47.0</ele><time>2026-03-29T16:04:27.985Z</time></trkpt><trkpt lat="42.35989821049852" lon="11.643878494122722"><ele>47.0</ele><time>2026-03-29T16:04:28.985Z</time></trkpt><trkpt lat="42.359915267859016" lon="11.644061626515152"><ele>47.0</ele><time>2026-03-29T16:04:29.985Z</time></trkpt><trkpt lat="42.35990692830486" lon="11.644251742663313"><ele>47.0</ele><time>2026-03-29T16:04:30.985Z</time></trkpt><trkpt lat="42.359896638506655" lon="11.6444753562256"><ele>47.0</ele><time>2026-03-29T16:04:31.985Z</time></trkpt><trkpt lat="42.359910636100395" lon="11.644715945804878"><ele>47.0</ele><time>2026-03-29T16:04:32.985Z</time></trkpt><trkpt lat="42.35993160547993" lon="11.6449825133477"><ele>47.0</ele><time>2026-03-29T16:04:33.985Z</time></trkpt><trkpt lat="42.35996922065487" lon="11.645267045990822"><ele>47.0</ele><time>2026-03-29T16:04:34.985Z</time></trkpt><trkpt lat="42.36000966460836" lon="11.645562501758503"><ele>47.0</ele><time>2026-03-29T16:04:35.985Z</time></trkpt><trkpt lat="42.3600453092285" lon="11.645870758214306"><ele>47.0</ele><time>2026-03-29T16:04:36.985Z</time></trkpt><trkpt lat="42.360089717578596" lon="11.64618011127717"><ele>47.0</ele><time>2026-03-29T16:04:37.985Z</time></trkpt><trkpt lat="42.36013116621256" lon="11.646497294921858"><ele>47.0</ele><time>2026-03-29T16:04:38.985Z</time></trkpt><trkpt lat="42.36016899727097" lon="11.646817790822285"><ele>47.5</ele><time>2026-03-29T16:04:39.985Z</time></trkpt><trkpt lat="42.36020427041653" lon="11.647137549500664"><ele>48.0</ele><time>2026-03-29T16:04:40.985Z</time></trkpt><trkpt lat="42.360230057192" lon="11.647458194481057"><ele>48.0</ele><time>2026-03-29T16:04:41.985Z</time></trkpt><trkpt lat="42.3602634002598" lon="11.647767845298917"><ele>48.0</ele><time>2026-03-29T16:04:42.985Z</time></trkpt><trkpt lat="42.360297942497766" lon="11.648069600541314"><ele>48.5</ele><time>2026-03-29T16:04:43.985Z</time></trkpt><trkpt lat="42.360334867539194" lon="11.648373420537874"><ele>49.0</ele><time>2026-03-29T16:04:44.985Z</time></trkpt><trkpt lat="42.36036861776581" lon="11.64867591041634"><ele>49.0</ele><time>2026-03-29T16:04:45.985Z</time></trkpt><trkpt lat="42.3604080026513" lon="11.648986621499997"><ele>49.0</ele><time>2026-03-29T16:04:46.985Z</time></trkpt><trkpt lat="42.360440154070346" lon="11.649296578514791"><ele>49.0</ele><time>2026-03-29T16:04:47.985Z</time></trkpt><trkpt lat="42.36047531151567" lon="11.649604788633617"><ele>49.0</ele><time>2026-03-29T16:04:48.985Z</time></trkpt><trkpt lat="42.36051104041848" lon="11.649913842735597"><ele>49.0</ele><time>2026-03-29T16:04:49.985Z</time></trkpt><trkpt lat="42.36054421495699" lon="11.650219651993424"><ele>49.0</ele><time>2026-03-29T16:04:50.985Z</time></trkpt><trkpt lat="42.36058208458718" lon="11.650505934279918"><ele>49.0</ele><time>2026-03-29T16:04:51.985Z</time></trkpt><trkpt lat="42.36061636809971" lon="11.65079835543042"><ele>49.5</ele><time>2026-03-29T16:04:52.985Z</time></trkpt><trkpt lat="42.36065196411841" lon="11.651099061762944"><ele>50.0</ele><time>2026-03-29T16:04:53.985Z</time></trkpt><trkpt lat="42.36068990707164" lon="11.65140550656314"><ele>50.0</ele><time>2026-03-29T16:04:54.985Z</time></trkpt><trkpt lat="42.360730798833174" lon="11.651715461064619"><ele>50.0</ele><time>2026-03-29T16:04:55.985Z</time></trkpt><trkpt lat="42.360775888910965" lon="11.65203427577127"><ele>51.0</ele><time>2026-03-29T16:04:56.985Z</time></trkpt><trkpt lat="42.36080583358693" lon="11.652365450471505"><ele>52.0</ele><time>2026-03-29T16:04:57.985Z</time></trkpt><trkpt lat="42.360825752388365" lon="11.652712723848431"><ele>53.0</ele><time>2026-03-29T16:04:58.985Z</time></trkpt><trkpt lat="42.36086425287846" lon="11.653051161864306"><ele>54.0</ele><time>2026-03-29T16:04:59.985Z</time></trkpt><trkpt lat="42.36089687923627" lon="11.653385530313491"><ele>54.0</ele><time>2026-03-29T16:05:00.985Z</time></trkpt><trkpt lat="42.360934742208215" lon="11.653712166334982"><ele>54.0</ele><time>2026-03-29T16:05:01.985Z</time></trkpt><trkpt lat="42.36097004208748" lon="11.65403753367351"><ele>54.0</ele><time>2026-03-29T16:05:02.986Z</time></trkpt><trkpt lat="42.361004450092146" lon="11.6543632487648"><ele>54.0</ele><time>2026-03-29T16:05:03.985Z</time></trkpt><trkpt lat="42.36103765787966" lon="11.654685942606802"><ele>54.0</ele><time>2026-03-29T16:05:04.985Z</time></trkpt><trkpt lat="42.36108012941723" lon="11.655002404943632"><ele>54.0</ele><time>2026-03-29T16:05:05.985Z</time></trkpt><trkpt lat="42.36111325375278" lon="11.655316904409954"><ele>54.0</ele><time>2026-03-29T16:05:06.986Z</time></trkpt><trkpt lat="42.361144319822436" lon="11.655624418071532"><ele>54.0</ele><time>2026-03-29T16:05:07.986Z</time></trkpt><trkpt lat="42.36118126105358" lon="11.655924312246581"><ele>54.0</ele><time>2026-03-29T16:05:08.986Z</time></trkpt><trkpt lat="42.36121158442963" lon="11.656219502088918"><ele>54.0</ele><time>2026-03-29T16:05:09.985Z</time></trkpt><trkpt lat="42.361249243852704" lon="11.65651249056808"><ele>54.0</ele><time>2026-03-29T16:05:10.985Z</time></trkpt><trkpt lat="42.36128169346171" lon="11.656806179533167"><ele>54.0</ele><time>2026-03-29T16:05:11.985Z</time></trkpt><trkpt lat="42.361311115027355" lon="11.65709743917544"><ele>54.0</ele><time>2026-03-29T16:05:12.986Z</time></trkpt><trkpt lat="42.36133555854952" lon="11.65739172810689"><ele>54.0</ele><time>2026-03-29T16:05:13.986Z</time></trkpt><trkpt lat="42.36136579314772" lon="11.657684902825212"><ele>55.33333333333333</ele><time>2026-03-29T16:05:14.985Z</time></trkpt><trkpt lat="42.361402258075344" lon="11.65797966849195"><ele>56.666666666666664</ele><time>2026-03-29T16:05:15.986Z</time></trkpt><trkpt lat="42.361443962290245" lon="11.658263992127248"><ele>58.0</ele><time>2026-03-29T16:05:16.986Z</time></trkpt><trkpt lat="42.36147894336488" lon="11.658553531107467"><ele>58.33333333333333</ele><time>2026-03-29T16:05:17.986Z</time></trkpt><trkpt lat="42.36151669713671" lon="11.65884211052846"><ele>58.66666666666667</ele><time>2026-03-29T16:05:18.986Z</time></trkpt><trkpt lat="42.36155511599643" lon="11.659135105694048"><ele>59.0</ele><time>2026-03-29T16:05:19.986Z</time></trkpt><trkpt lat="42.361588417675875" lon="11.659430521991197"><ele>59.5</ele><time>2026-03-29T16:05:20.986Z</time></trkpt><trkpt lat="42.361630745675434" lon="11.659734706799707"><ele>60.0</ele><time>2026-03-29T16:05:21.986Z</time></trkpt><trkpt lat="42.36165193233032" lon="11.660054169608117"><ele>60.0</ele><time>2026-03-29T16:05:22.986Z</time></trkpt><trkpt lat="42.36169080733852" lon="11.660377288137697"><ele>60.0</ele><time>2026-03-29T16:05:23.986Z</time></trkpt><trkpt lat="42.36173194114674" lon="11.660708829726273"><ele>60.0</ele><time>2026-03-29T16:05:24.986Z</time></trkpt><trkpt lat="42.36178649790035" lon="11.661042459013517"><ele>60.0</ele><time>2026-03-29T16:05:25.986Z</time></trkpt><trkpt lat="42.36183180265214" lon="11.66138338383058"><ele>61.5</ele><time>2026-03-29T16:05:26.986Z</time></trkpt><trkpt lat="42.361862436596034" lon="11.661729025165505"><ele>63.0</ele><time>2026-03-29T16:05:27.986Z</time></trkpt><trkpt lat="42.36190834272543" lon="11.662073521505512"><ele>63.0</ele><time>2026-03-29T16:05:28.986Z</time></trkpt><trkpt lat="42.36195532390267" lon="11.662426084956039"><ele>63.0</ele><time>2026-03-29T16:05:29.985Z</time></trkpt><trkpt lat="42.36200044802945" lon="11.662771659760706"><ele>63.0</ele><time>2026-03-29T16:05:30.985Z</time></trkpt><trkpt lat="42.362043823461" lon="11.663111548071539"><ele>63.0</ele><time>2026-03-29T16:05:31.985Z</time></trkpt><trkpt lat="42.36208722219362" lon="11.663451619012601"><ele>63.0</ele><time>2026-03-29T16:05:32.985Z</time></trkpt><trkpt lat="42.36213165155309" lon="11.663786731780789"><ele>63.0</ele><time>2026-03-29T16:05:33.985Z</time></trkpt><trkpt lat="42.36217585947766" lon="11.664118041063713"><ele>63.5</ele><time>2026-03-29T16:05:34.985Z</time></trkpt><trkpt lat="42.36221928940556" lon="11.664446614913006"><ele>64.0</ele><time>2026-03-29T16:05:35.985Z</time></trkpt><trkpt lat="42.36226146871391" lon="11.664774708930047"><ele>64.0</ele><time>2026-03-29T16:05:36.985Z</time></trkpt><trkpt lat="42.36230328597764" lon="11.665099986742046"><ele>64.0</ele><time>2026-03-29T16:05:37.985Z</time></trkpt><trkpt lat="42.36234467123943" lon="11.665421904218654"><ele>64.5</ele><time>2026-03-29T16:05:38.985Z</time></trkpt><trkpt lat="42.36238658172788" lon="11.66573618372645"><ele>65.0</ele><time>2026-03-29T16:05:39.985Z</time></trkpt><trkpt lat="42.36244290750094" lon="11.666048825095096"><ele>64.5</ele><time>2026-03-29T16:05:40.985Z</time></trkpt><trkpt lat="42.36246816765734" lon="11.666371944581924"><ele>64.0</ele><time>2026-03-29T16:05:41.985Z</time></trkpt><trkpt lat="42.36252266017256" lon="11.666690950492459"><ele>64.5</ele><time>2026-03-29T16:05:42.985Z</time></trkpt><trkpt lat="42.36258509218901" lon="11.66701206122031"><ele>65.0</ele><time>2026-03-29T16:05:43.985Z</time></trkpt><trkpt lat="42.362647459842634" lon="11.667330403631231"><ele>65.0</ele><time>2026-03-29T16:05:44.985Z</time></trkpt><trkpt lat="42.36271423065322" lon="11.667655351520883"><ele>65.0</ele><time>2026-03-29T16:05:45.985Z</time></trkpt><trkpt lat="42.36278224273717" lon="11.667977065967102"><ele>65.0</ele><time>2026-03-29T16:05:46.985Z</time></trkpt><trkpt lat="42.36285197039462" lon="11.668301767144806"><ele>65.0</ele><time>2026-03-29T16:05:47.985Z</time></trkpt><trkpt lat="42.36291510187934" lon="11.668628022621817"><ele>65.5</ele><time>2026-03-29T16:05:48.985Z</time></trkpt><trkpt lat="42.36297871231149" lon="11.668955529678241"><ele>66.0</ele><time>2026-03-29T16:05:49.985Z</time></trkpt><trkpt lat="42.36304676419758" lon="11.669285705045747"><ele>65.5</ele><time>2026-03-29T16:05:50.985Z</time></trkpt><trkpt lat="42.36311579707648" lon="11.66962474244042"><ele>65.0</ele><time>2026-03-29T16:05:51.985Z</time></trkpt><trkpt lat="42.36318836865836" lon="11.669965507748966"><ele>65.0</ele><time>2026-03-29T16:05:52.985Z</time></trkpt><trkpt lat="42.36325718682265" lon="11.670296154989185"><ele>65.0</ele><time>2026-03-29T16:05:53.985Z</time></trkpt><trkpt lat="42.36332515319818" lon="11.670605398271732"><ele>65.0</ele><time>2026-03-29T16:05:54.985Z</time></trkpt><trkpt lat="42.36339038247773" lon="11.670900193312361"><ele>65.0</ele><time>2026-03-29T16:05:55.985Z</time></trkpt><trkpt lat="42.36344679977521" lon="11.671175695562134"><ele>65.0</ele><time>2026-03-29T16:05:56.985Z</time></trkpt><trkpt lat="42.36349777378335" lon="11.671438550528975"><ele>65.0</ele><time>2026-03-29T16:05:57.985Z</time></trkpt><trkpt lat="42.36352905659878" lon="11.671688304781803"><ele>65.0</ele><time>2026-03-29T16:05:58.985Z</time></trkpt><trkpt lat="42.36354153091254" lon="11.671930675164727"><ele>65.0</ele><time>2026-03-29T16:05:59.985Z</time></trkpt><trkpt lat="42.36352947238722" lon="11.672166635518614"><ele>65.0</ele><time>2026-03-29T16:06:00.985Z</time></trkpt><trkpt lat="42.36348250539401" lon="11.672390713741608"><ele>65.0</ele><time>2026-03-29T16:06:01.985Z</time></trkpt><trkpt lat="42.36340921096703" lon="11.67261180292418"><ele>65.0</ele><time>2026-03-29T16:06:02.985Z</time></trkpt><trkpt lat="42.363311993126814" lon="11.672827937302245"><ele>65.0</ele><time>2026-03-29T16:06:03.985Z</time></trkpt><trkpt lat="42.363187407318634" lon="11.673029132254344"><ele>65.0</ele><time>2026-03-29T16:06:04.985Z</time></trkpt><trkpt lat="42.36303941456118" lon="11.673234962640601"><ele>65.0</ele><time>2026-03-29T16:06:05.985Z</time></trkpt><trkpt lat="42.362876821088456" lon="11.67346967197197"><ele>64.5</ele><time>2026-03-29T16:06:06.985Z</time></trkpt><trkpt lat="42.3627137934835" lon="11.67372364180047"><ele>64.0</ele><time>2026-03-29T16:06:07.985Z</time></trkpt><trkpt lat="42.36253843689374" lon="11.67398804552498"><ele>64.0</ele><time>2026-03-29T16:06:08.985Z</time></trkpt><trkpt lat="42.36235431161949" lon="11.674257584735647"><ele>64.0</ele><time>2026-03-29T16:06:09.985Z</time></trkpt><trkpt lat="42.362166608358834" lon="11.674526358791352"><ele>63.5</ele><time>2026-03-29T16:06:10.985Z</time></trkpt><trkpt lat="42.36198226524066" lon="11.674798459376902"><ele>63.0</ele><time>2026-03-29T16:06:11.985Z</time></trkpt><trkpt lat="42.36181232477656" lon="11.67507709759129"><ele>63.5</ele><time>2026-03-29T16:06:12.985Z</time></trkpt><trkpt lat="42.36163114810704" lon="11.675352761072503"><ele>64.0</ele><time>2026-03-29T16:06:13.985Z</time></trkpt><trkpt lat="42.3614449781066" lon="11.67563107371214"><ele>65.0</ele><time>2026-03-29T16:06:14.985Z</time></trkpt><trkpt lat="42.361269449611875" lon="11.675906737333621"><ele>66.0</ele><time>2026-03-29T16:06:15.985Z</time></trkpt><trkpt lat="42.36109444089251" lon="11.676176301395028"><ele>66.0</ele><time>2026-03-29T16:06:16.985Z</time></trkpt><trkpt lat="42.360927864535796" lon="11.676431761446635"><ele>66.0</ele><time>2026-03-29T16:06:17.985Z</time></trkpt><trkpt lat="42.360752192830006" lon="11.676685178926496"><ele>66.0</ele><time>2026-03-29T16:06:18.985Z</time></trkpt><trkpt lat="42.360588403688176" lon="11.676935758638471"><ele>66.0</ele><time>2026-03-29T16:06:19.985Z</time></trkpt><trkpt lat="42.36041231003963" lon="11.677175920502748"><ele>67.0</ele><time>2026-03-29T16:06:20.985Z</time></trkpt><trkpt lat="42.36025183416846" lon="11.677448057454997"><ele>68.0</ele><time>2026-03-29T16:06:21.985Z</time></trkpt><trkpt lat="42.36008197181314" lon="11.67770612572642"><ele>68.5</ele><time>2026-03-29T16:06:22.985Z</time></trkpt><trkpt lat="42.35991289784794" lon="11.677966097179423"><ele>69.0</ele><time>2026-03-29T16:06:23.985Z</time></trkpt><trkpt lat="42.359746877515086" lon="11.678223721345088"><ele>69.0</ele><time>2026-03-29T16:06:24.985Z</time></trkpt><trkpt lat="42.35958467473334" lon="11.678479282127892"><ele>69.0</ele><time>2026-03-29T16:06:25.985Z</time></trkpt><trkpt lat="42.359416542981" lon="11.678737045261464"><ele>69.0</ele><time>2026-03-29T16:06:26.985Z</time></trkpt><trkpt lat="42.35924396463172" lon="11.67899386157564"><ele>69.0</ele><time>2026-03-29T16:06:27.985Z</time></trkpt><trkpt lat="42.359081569510565" lon="11.67925179604954"><ele>68.5</ele><time>2026-03-29T16:06:28.985Z</time></trkpt><trkpt lat="42.3589164031241" lon="11.679507644482412"><ele>68.0</ele><time>2026-03-29T16:06:29.985Z</time></trkpt><trkpt lat="42.35875080132597" lon="11.679747685502424"><ele>68.0</ele><time>2026-03-29T16:06:30.985Z</time></trkpt><trkpt lat="42.358588176975836" lon="11.679984480718444"><ele>68.0</ele><time>2026-03-29T16:06:31.984Z</time></trkpt><trkpt lat="42.35843038740816" lon="11.68021713045808"><ele>67.0</ele><time>2026-03-29T16:06:32.984Z</time></trkpt><trkpt lat="42.35825749395734" lon="11.680440668397855"><ele>66.0</ele><time>2026-03-29T16:06:33.984Z</time></trkpt><trkpt lat="42.358076616099844" lon="11.680656135909803"><ele>67.0</ele><time>2026-03-29T16:06:34.984Z</time></trkpt><trkpt lat="42.35788823717621" lon="11.680870291102208"><ele>68.0</ele><time>2026-03-29T16:06:35.984Z</time></trkpt><trkpt lat="42.35769385028558" lon="11.681082735078236"><ele>67.0</ele><time>2026-03-29T16:06:36.984Z</time></trkpt><trkpt lat="42.357497451685056" lon="11.681294617534142"><ele>66.0</ele><time>2026-03-29T16:06:37.984Z</time></trkpt><trkpt lat="42.35729899602053" lon="11.681508719511712"><ele>67.0</ele><time>2026-03-29T16:06:38.984Z</time></trkpt><trkpt lat="42.35709608510227" lon="11.681724029600678"><ele>68.0</ele><time>2026-03-29T16:06:39.984Z</time></trkpt><trkpt lat="42.35689644489795" lon="11.681943055019149"><ele>68.0</ele><time>2026-03-29T16:06:40.984Z</time></trkpt><trkpt lat="42.35669551648347" lon="11.682162707095562"><ele>68.0</ele><time>2026-03-29T16:06:41.984Z</time></trkpt><trkpt lat="42.35649740023815" lon="11.682380689322807"><ele>68.5</ele><time>2026-03-29T16:06:42.984Z</time></trkpt><trkpt lat="42.356303407276755" lon="11.68259589510872"><ele>69.0</ele><time>2026-03-29T16:06:43.984Z</time></trkpt><trkpt lat="42.35612389935987" lon="11.68279769683467"><ele>68.0</ele><time>2026-03-29T16:06:44.984Z</time></trkpt><trkpt lat="42.35596171711774" lon="11.682971185266583"><ele>67.0</ele><time>2026-03-29T16:06:45.984Z</time></trkpt><trkpt lat="42.355814625048964" lon="11.68313834986721"><ele>66.0</ele><time>2026-03-29T16:06:46.984Z</time></trkpt><trkpt lat="42.35567489879153" lon="11.683296360719014"><ele>66.0</ele><time>2026-03-29T16:06:47.984Z</time></trkpt><trkpt lat="42.3555322951308" lon="11.683448188866853"><ele>66.0</ele><time>2026-03-29T16:06:48.984Z</time></trkpt><trkpt lat="42.35539609600448" lon="11.683594305530407"><ele>66.0</ele><time>2026-03-29T16:06:49.984Z</time></trkpt><trkpt lat="42.35526451224576" lon="11.683734421162924"><ele>65.66666666666667</ele><time>2026-03-29T16:06:50.984Z</time></trkpt><trkpt lat="42.355136924518746" lon="11.683867339931833"><ele>65.33333333333334</ele><time>2026-03-29T16:06:51.984Z</time></trkpt><trkpt lat="42.35502375787825" lon="11.68399854735295"><ele>65.0</ele><time>2026-03-29T16:06:52.984Z</time></trkpt><trkpt lat="42.35490769457998" lon="11.684127962470187"><ele>65.0</ele><time>2026-03-29T16:06:53.984Z</time></trkpt><trkpt lat="42.35480616733437" lon="11.684275058761388"><ele>65.0</ele><time>2026-03-29T16:06:54.984Z</time></trkpt><trkpt lat="42.35471062831789" lon="11.684429188000498"><ele>65.0</ele><time>2026-03-29T16:06:55.984Z</time></trkpt><trkpt lat="42.354626839956715" lon="11.684617529380045"><ele>64.33333333333334</ele><time>2026-03-29T16:06:56.984Z</time></trkpt><trkpt lat="42.354538448561044" lon="11.6848397578891"><ele>63.66666666666667</ele><time>2026-03-29T16:06:57.984Z</time></trkpt><trkpt lat="42.35444912533401" lon="11.685089680394897"><ele>63.0</ele><time>2026-03-29T16:06:58.984Z</time></trkpt><trkpt lat="42.35436734324013" lon="11.685340866118766"><ele>62.66666666666667</ele><time>2026-03-29T16:06:59.984Z</time></trkpt><trkpt lat="42.35429593345574" lon="11.685585159223828"><ele>62.333333333333336</ele><time>2026-03-29T16:07:00.984Z</time></trkpt><trkpt lat="42.35422326948291" lon="11.685817014133825"><ele>62.0</ele><time>2026-03-29T16:07:01.984Z</time></trkpt><trkpt lat="42.35412857991725" lon="11.686025324654281"><ele>60.66666666666667</ele><time>2026-03-29T16:07:02.984Z</time></trkpt><trkpt lat="42.35401854336117" lon="11.686206300826012"><ele>59.33333333333333</ele><time>2026-03-29T16:07:03.984Z</time></trkpt><trkpt lat="42.35388583543406" lon="11.686364069913994"><ele>58.0</ele><time>2026-03-29T16:07:04.984Z</time></trkpt><trkpt lat="42.35372119050863" lon="11.686492929705212"><ele>56.5</ele><time>2026-03-29T16:07:05.984Z</time></trkpt><trkpt lat="42.35351308335975" lon="11.686616648650599"><ele>55.0</ele><time>2026-03-29T16:07:06.984Z</time></trkpt><trkpt lat="42.353300903058404" lon="11.686739999712511"><ele>55.0</ele><time>2026-03-29T16:07:07.984Z</time></trkpt><trkpt lat="42.35307823376428" lon="11.686881309508731"><ele>55.0</ele><time>2026-03-29T16:07:08.985Z</time></trkpt><trkpt lat="42.35283674994408" lon="11.687032432800505"><ele>50.0</ele><time>2026-03-29T16:07:09.985Z</time></trkpt><trkpt lat="42.35257938866732" lon="11.687181860793507"><ele>45.0</ele><time>2026-03-29T16:07:10.985Z</time></trkpt><trkpt lat="42.35232042458354" lon="11.687334427291068"><ele>43.0</ele><time>2026-03-29T16:07:11.985Z</time></trkpt><trkpt lat="42.35206023982262" lon="11.687492356544864"><ele>41.0</ele><time>2026-03-29T16:07:12.985Z</time></trkpt><trkpt lat="42.351793125647475" lon="11.687648976504908"><ele>39.5</ele><time>2026-03-29T16:07:13.985Z</time></trkpt><trkpt lat="42.35153303316308" lon="11.687801251670784"><ele>38.0</ele><time>2026-03-29T16:07:14.985Z</time></trkpt><trkpt lat="42.35129170001204" lon="11.68794892372603"><ele>37.0</ele><time>2026-03-29T16:07:15.985Z</time></trkpt><trkpt lat="42.35105768907337" lon="11.688090914054513"><ele>36.0</ele><time>2026-03-29T16:07:16.984Z</time></trkpt><trkpt lat="42.350842047917716" lon="11.688221814909792"><ele>36.0</ele><time>2026-03-29T16:07:17.985Z</time></trkpt><trkpt lat="42.35062902149719" lon="11.688332660313598"><ele>36.0</ele><time>2026-03-29T16:07:18.985Z</time></trkpt><trkpt lat="42.35041669407114" lon="11.688419257521412"><ele>35.333333333333336</ele><time>2026-03-29T16:07:19.985Z</time></trkpt><trkpt lat="42.35021582106156" lon="11.688463372890308"><ele>34.66666666666667</ele><time>2026-03-29T16:07:20.985Z</time></trkpt><trkpt lat="42.35001540167152" lon="11.688454699635573"><ele>34.0</ele><time>2026-03-29T16:07:21.985Z</time></trkpt><trkpt lat="42.3498044045117" lon="11.688412696001539"><ele>35.333333333333336</ele><time>2026-03-29T16:07:22.985Z</time></trkpt><trkpt lat="42.34959822461535" lon="11.688329726436475"><ele>36.666666666666664</ele><time>2026-03-29T16:07:23.985Z</time></trkpt><trkpt lat="42.34938174334914" lon="11.688220331115035"><ele>38.0</ele><time>2026-03-29T16:07:24.985Z</time></trkpt><trkpt lat="42.34916752220667" lon="11.688121314584206"><ele>38.0</ele><time>2026-03-29T16:07:25.985Z</time></trkpt><trkpt lat="42.348959056332326" lon="11.688019693622937"><ele>38.0</ele><time>2026-03-29T16:07:26.985Z</time></trkpt><trkpt lat="42.34877325816334" lon="11.687862564349455"><ele>38.0</ele><time>2026-03-29T16:07:27.985Z</time></trkpt><trkpt lat="42.34858488132898" lon="11.687767902059138"><ele>37.33333333333333</ele><time>2026-03-29T16:07:28.985Z</time></trkpt><trkpt lat="42.34840989578167" lon="11.687680597007335"><ele>36.666666666666664</ele><time>2026-03-29T16:07:29.985Z</time></trkpt><trkpt lat="42.348243586616164" lon="11.687609487086892"><ele>36.0</ele><time>2026-03-29T16:07:30.985Z</time></trkpt><trkpt lat="42.34808279094505" lon="11.68758910485452"><ele>36.0</ele><time>2026-03-29T16:07:31.985Z</time></trkpt><trkpt lat="42.34792935097727" lon="11.687640871342841"><ele>36.0</ele><time>2026-03-29T16:07:32.985Z</time></trkpt><trkpt lat="42.34780804695769" lon="11.687755730097546"><ele>36.0</ele><time>2026-03-29T16:07:33.985Z</time></trkpt><trkpt lat="42.34772057559424" lon="11.687884451085447"><ele>36.0</ele><time>2026-03-29T16:07:34.985Z</time></trkpt><trkpt lat="42.347672315328495" lon="11.688031417291423"><ele>36.0</ele><time>2026-03-29T16:07:35.985Z</time></trkpt><trkpt lat="42.34763130055258" lon="11.6882083282194"><ele>36.0</ele><time>2026-03-29T16:07:36.985Z</time></trkpt><trkpt lat="42.34762030241089" lon="11.68839402213452"><ele>36.0</ele><time>2026-03-29T16:07:37.985Z</time></trkpt><trkpt lat="42.34764197004673" lon="11.68860307247892"><ele>36.0</ele><time>2026-03-29T16:07:38.985Z</time></trkpt><trkpt lat="42.34767174432957" lon="11.688818953555437"><ele>37.0</ele><time>2026-03-29T16:07:39.985Z</time></trkpt><trkpt lat="42.347709115030305" lon="11.68905556545876"><ele>38.0</ele><time>2026-03-29T16:07:40.985Z</time></trkpt><trkpt lat="42.34774375643577" lon="11.68929020903093"><ele>39.0</ele><time>2026-03-29T16:07:41.985Z</time></trkpt><trkpt lat="42.347786590000105" lon="11.68952411380388"><ele>40.0</ele><time>2026-03-29T16:07:42.985Z</time></trkpt><trkpt lat="42.347821908530356" lon="11.689744275702022"><ele>41.0</ele><time>2026-03-29T16:07:43.985Z</time></trkpt><trkpt lat="42.347856427498" lon="11.689946933825812"><ele>42.0</ele><time>2026-03-29T16:07:44.985Z</time></trkpt><trkpt lat="42.34790178157978" lon="11.690129914507642"><ele>42.0</ele><time>2026-03-29T16:07:45.985Z</time></trkpt><trkpt lat="42.347952185888424" lon="11.690296892094276"><ele>42.0</ele><time>2026-03-29T16:07:46.985Z</time></trkpt><trkpt lat="42.34801933933778" lon="11.690474925432582"><ele>42.0</ele><time>2026-03-29T16:07:47.985Z</time></trkpt><trkpt lat="42.34810355938005" lon="11.690692179506215"><ele>45.0</ele><time>2026-03-29T16:07:48.985Z</time></trkpt><trkpt lat="42.34818255508793" lon="11.690931951341616"><ele>48.0</ele><time>2026-03-29T16:07:49.985Z</time></trkpt><trkpt lat="42.34829389112141" lon="11.69113422936342"><ele>51.0</ele><time>2026-03-29T16:07:50.985Z</time></trkpt><trkpt lat="42.348378539200866" lon="11.69132464060548"><ele>51.0</ele><time>2026-03-29T16:07:51.984Z</time></trkpt><trkpt lat="42.34846623607738" lon="11.691504183784998"><ele>51.0</ele><time>2026-03-29T16:07:52.984Z</time></trkpt><trkpt lat="42.348535912080884" lon="11.691679940742866"><ele>51.0</ele><time>2026-03-29T16:07:53.984Z</time></trkpt><trkpt lat="42.34858620230913" lon="11.691844030554256"><ele>51.0</ele><time>2026-03-29T16:07:54.984Z</time></trkpt><trkpt lat="42.348628676682374" lon="11.691991370874012"><ele>51.599999999999994</ele><time>2026-03-29T16:07:55.984Z</time></trkpt><trkpt lat="42.34866635722072" lon="11.692143235263183"><ele>52.2</ele><time>2026-03-29T16:07:56.984Z</time></trkpt><trkpt lat="42.348700114355694" lon="11.69228260206041"><ele>52.800000000000004</ele><time>2026-03-29T16:07:57.984Z</time></trkpt><trkpt lat="42.348721848534005" lon="11.692411783844161"><ele>53.400000000000006</ele><time>2026-03-29T16:07:58.984Z</time></trkpt><trkpt lat="42.34873595835951" lon="11.692545062425662"><ele>54.0</ele><time>2026-03-29T16:07:59.984Z</time></trkpt><trkpt lat="42.348751822576226" lon="11.69267407352102"><ele>54.75</ele><time>2026-03-29T16:08:00.983Z</time></trkpt><trkpt lat="42.34876243697921" lon="11.69281907115734"><ele>55.5</ele><time>2026-03-29T16:08:01.983Z</time></trkpt><trkpt lat="42.348753763454404" lon="11.692982379285937"><ele>56.25</ele><time>2026-03-29T16:08:02.983Z</time></trkpt><trkpt lat="42.34874984611942" lon="11.693152219199886"><ele>57.0</ele><time>2026-03-29T16:08:03.983Z</time></trkpt><trkpt lat="42.34873412094699" lon="11.693346780506019"><ele>57.0</ele><time>2026-03-29T16:08:04.983Z</time></trkpt><trkpt lat="42.348709572669705" lon="11.693579209213254"><ele>57.0</ele><time>2026-03-29T16:08:05.983Z</time></trkpt><trkpt lat="42.34867578818362" lon="11.693846149007733"><ele>57.0</ele><time>2026-03-29T16:08:06.983Z</time></trkpt><trkpt lat="42.34863611499451" lon="11.694147441569289"><ele>58.5</ele><time>2026-03-29T16:08:07.983Z</time></trkpt><trkpt lat="42.34859442746439" lon="11.694466763326027"><ele>60.0</ele><time>2026-03-29T16:08:08.983Z</time></trkpt><trkpt lat="42.34855603212617" lon="11.69477829747307"><ele>60.0</ele><time>2026-03-29T16:08:09.983Z</time></trkpt><trkpt lat="42.34851783320462" lon="11.695088237958043"><ele>60.0</ele><time>2026-03-29T16:08:10.983Z</time></trkpt><trkpt lat="42.34847935288448" lon="11.695400461695101"><ele>59.5</ele><time>2026-03-29T16:08:11.983Z</time></trkpt><trkpt lat="42.34844094668301" lon="11.695707003245857"><ele>59.0</ele><time>2026-03-29T16:08:12.983Z</time></trkpt><trkpt lat="42.34840081832524" lon="11.696014269321141"><ele>60.0</ele><time>2026-03-29T16:08:13.983Z</time></trkpt><trkpt lat="42.34836091324471" lon="11.696322604061239"><ele>61.0</ele><time>2026-03-29T16:08:14.983Z</time></trkpt><trkpt lat="42.348338239612936" lon="11.696644074479394"><ele>62.0</ele><time>2026-03-29T16:08:15.983Z</time></trkpt><trkpt lat="42.348290715361685" lon="11.696955249443088"><ele>63.0</ele><time>2026-03-29T16:08:16.983Z</time></trkpt><trkpt lat="42.34823542118999" lon="11.697265823443805"><ele>63.0</ele><time>2026-03-29T16:08:17.983Z</time></trkpt><trkpt lat="42.34817673845075" lon="11.69758021102733"><ele>63.0</ele><time>2026-03-29T16:08:18.983Z</time></trkpt><trkpt lat="42.34811300946415" lon="11.697887068341505"><ele>63.0</ele><time>2026-03-29T16:08:19.983Z</time></trkpt><trkpt lat="42.34802504881934" lon="11.698181969533096"><ele>63.0</ele><time>2026-03-29T16:08:20.983Z</time></trkpt><trkpt lat="42.34794428157456" lon="11.698482579193605"><ele>65.5</ele><time>2026-03-29T16:08:21.983Z</time></trkpt><trkpt lat="42.347870818339246" lon="11.698784276106469"><ele>68.0</ele><time>2026-03-29T16:08:22.983Z</time></trkpt><trkpt lat="42.34776115639246" lon="11.699072843433767"><ele>68.0</ele><time>2026-03-29T16:08:23.983Z</time></trkpt><trkpt lat="42.34766651840915" lon="11.699364471070682"><ele>68.0</ele><time>2026-03-29T16:08:24.983Z</time></trkpt><trkpt lat="42.347568653032305" lon="11.699667820338098"><ele>69.5</ele><time>2026-03-29T16:08:25.983Z</time></trkpt><trkpt lat="42.347473210567074" lon="11.699965403078352"><ele>71.0</ele><time>2026-03-29T16:08:26.983Z</time></trkpt><trkpt lat="42.347380255184234" lon="11.700255231228413"><ele>72.0</ele><time>2026-03-29T16:08:27.983Z</time></trkpt><trkpt lat="42.34728834628406" lon="11.70054278694482"><ele>73.0</ele><time>2026-03-29T16:08:28.983Z</time></trkpt><trkpt lat="42.347196185946856" lon="11.700832696070504"><ele>76.0</ele><time>2026-03-29T16:08:29.983Z</time></trkpt><trkpt lat="42.3471128299827" lon="11.701133455077716"><ele>79.0</ele><time>2026-03-29T16:08:30.983Z</time></trkpt><trkpt lat="42.34702573593181" lon="11.701419078788089"><ele>79.0</ele><time>2026-03-29T16:08:31.983Z</time></trkpt><trkpt lat="42.34693304978579" lon="11.701709607205814"><ele>79.0</ele><time>2026-03-29T16:08:32.983Z</time></trkpt><trkpt lat="42.34681922453459" lon="11.701979467127815"><ele>80.0</ele><time>2026-03-29T16:08:33.983Z</time></trkpt><trkpt lat="42.34673927282335" lon="11.702227796266213"><ele>81.0</ele><time>2026-03-29T16:08:34.983Z</time></trkpt><trkpt lat="42.34667085484094" lon="11.70246552671121"><ele>82.0</ele><time>2026-03-29T16:08:35.983Z</time></trkpt><trkpt lat="42.34660515705978" lon="11.702713024662419"><ele>82.66666666666666</ele><time>2026-03-29T16:08:36.983Z</time></trkpt><trkpt lat="42.34653927569188" lon="11.702968587175032"><ele>83.33333333333333</ele><time>2026-03-29T16:08:37.983Z</time></trkpt><trkpt lat="42.34648041251096" lon="11.703221746214426"><ele>84.0</ele><time>2026-03-29T16:08:38.983Z</time></trkpt><trkpt lat="42.34641249885004" lon="11.703485450195144"><ele>81.66666666666667</ele><time>2026-03-29T16:08:39.983Z</time></trkpt><trkpt lat="42.34635069267008" lon="11.703755636713758"><ele>79.33333333333334</ele><time>2026-03-29T16:08:40.983Z</time></trkpt><trkpt lat="42.34628159132652" lon="11.704038148275954"><ele>77.0</ele><time>2026-03-29T16:08:41.983Z</time></trkpt><trkpt lat="42.34621834339735" lon="11.704327070935207"><ele>78.0</ele><time>2026-03-29T16:08:42.983Z</time></trkpt><trkpt lat="42.34615018897614" lon="11.704613757100738"><ele>79.0</ele><time>2026-03-29T16:08:43.983Z</time></trkpt><trkpt lat="42.34608820044449" lon="11.70490315846704"><ele>80.0</ele><time>2026-03-29T16:08:44.983Z</time></trkpt><trkpt lat="42.34601840641864" lon="11.705202588468795"><ele>81.5</ele><time>2026-03-29T16:08:45.983Z</time></trkpt><trkpt lat="42.34595136580408" lon="11.705495520837427"><ele>83.0</ele><time>2026-03-29T16:08:46.983Z</time></trkpt><trkpt lat="42.34588049765198" lon="11.705787530335373"><ele>84.33333333333334</ele><time>2026-03-29T16:08:47.983Z</time></trkpt><trkpt lat="42.34581153235347" lon="11.706080148971413"><ele>85.66666666666667</ele><time>2026-03-29T16:08:48.983Z</time></trkpt><trkpt lat="42.34574814993872" lon="11.706366459638433"><ele>87.0</ele><time>2026-03-29T16:08:49.983Z</time></trkpt><trkpt lat="42.34567907204798" lon="11.706658053448404"><ele>90.0</ele><time>2026-03-29T16:08:50.983Z</time></trkpt><trkpt lat="42.346044943227085" lon="11.707124847697216"><ele>90.0</ele><time>2026-03-29T16:08:51.983Z</time></trkpt><trkpt lat="42.34588721068168" lon="11.70748421606649"><ele>90.0</ele><time>2026-03-29T16:08:52.983Z</time></trkpt><trkpt lat="42.34576631913085" lon="11.707726738529963"><ele>90.5</ele><time>2026-03-29T16:08:53.983Z</time></trkpt><trkpt lat="42.34565235787757" lon="11.707965823332518"><ele>91.0</ele><time>2026-03-29T16:08:54.983Z</time></trkpt><trkpt lat="42.34534779833146" lon="11.708065977191259"><ele>92.0</ele><time>2026-03-29T16:08:55.983Z</time></trkpt><trkpt lat="42.345281150581485" lon="11.708342927215233"><ele>93.0</ele><time>2026-03-29T16:08:56.983Z</time></trkpt><trkpt lat="42.345216402470854" lon="11.708620103357017"><ele>94.0</ele><time>2026-03-29T16:08:57.983Z</time></trkpt><trkpt lat="42.34515838155057" lon="11.7089006987817"><ele>94.33333333333333</ele><time>2026-03-29T16:08:58.983Z</time></trkpt><trkpt lat="42.34509597974119" lon="11.709180749125132"><ele>94.66666666666667</ele><time>2026-03-29T16:08:59.983Z</time></trkpt><trkpt lat="42.34504163784775" lon="11.70945238642049"><ele>95.0</ele><time>2026-03-29T16:09:00.983Z</time></trkpt><trkpt lat="42.34499756066721" lon="11.709733009156807"><ele>94.0</ele><time>2026-03-29T16:09:01.982Z</time></trkpt><trkpt lat="42.34496979402311" lon="11.71002110765444"><ele>93.0</ele><time>2026-03-29T16:09:02.982Z</time></trkpt><trkpt lat="42.34495799839976" lon="11.71031951907377"><ele>92.0</ele><time>2026-03-29T16:09:03.982Z</time></trkpt><trkpt lat="42.34495034345004" lon="11.710623377176297"><ele>91.0</ele><time>2026-03-29T16:09:04.982Z</time></trkpt><trkpt lat="42.34494560360071" lon="11.71092873437619"><ele>90.0</ele><time>2026-03-29T16:09:05.982Z</time></trkpt><trkpt lat="42.34493595411603" lon="11.711238050771467"><ele>90.0</ele><time>2026-03-29T16:09:06.982Z</time></trkpt><trkpt lat="42.34493003232496" lon="11.711548696554104"><ele>90.0</ele><time>2026-03-29T16:09:07.982Z</time></trkpt><trkpt lat="42.344926612763395" lon="11.711856693581606"><ele>91.5</ele><time>2026-03-29T16:09:08.982Z</time></trkpt><trkpt lat="42.3449243269143" lon="11.712167620022948"><ele>93.0</ele><time>2026-03-29T16:09:09.982Z</time></trkpt><trkpt lat="42.344931561881104" lon="11.712476905225998"><ele>94.0</ele><time>2026-03-29T16:09:10.982Z</time></trkpt><trkpt lat="42.34496137598166" lon="11.712781581530932"><ele>95.0</ele><time>2026-03-29T16:09:11.982Z</time></trkpt><trkpt lat="42.34501218191353" lon="11.713080685689377"><ele>95.0</ele><time>2026-03-29T16:09:12.982Z</time></trkpt><trkpt lat="42.34508991825887" lon="11.713371400285496"><ele>95.0</ele><time>2026-03-29T16:09:13.982Z</time></trkpt><trkpt lat="42.3451651830104" lon="11.713655893870701"><ele>94.0</ele><time>2026-03-29T16:09:14.984Z</time></trkpt><trkpt lat="42.345258167296286" lon="11.713931048590853"><ele>93.0</ele><time>2026-03-29T16:09:15.983Z</time></trkpt><trkpt lat="42.34536625218461" lon="11.714200823550549"><ele>94.0</ele><time>2026-03-29T16:09:16.983Z</time></trkpt><trkpt lat="42.34548632680571" lon="11.714464733657053"><ele>95.0</ele><time>2026-03-29T16:09:17.984Z</time></trkpt><trkpt lat="42.34561269094026" lon="11.714723629088759"><ele>95.0</ele><time>2026-03-29T16:09:18.984Z</time></trkpt><trkpt lat="42.345738428680136" lon="11.714982777427203"><ele>95.0</ele><time>2026-03-29T16:09:19.984Z</time></trkpt><trkpt lat="42.34585944490762" lon="11.715232636172729"><ele>95.0</ele><time>2026-03-29T16:09:20.983Z</time></trkpt><trkpt lat="42.34597065607337" lon="11.715478577977025"><ele>95.0</ele><time>2026-03-29T16:09:21.984Z</time></trkpt><trkpt lat="42.346074218414195" lon="11.715701434440174"><ele>95.0</ele><time>2026-03-29T16:09:22.984Z</time></trkpt><trkpt lat="42.34617545488664" lon="11.715919923452118"><ele>96.0</ele><time>2026-03-29T16:09:23.983Z</time></trkpt><trkpt lat="42.34627190619988" lon="11.716145787524994"><ele>97.0</ele><time>2026-03-29T16:09:24.984Z</time></trkpt><trkpt lat="42.346353744143826" lon="11.716384602046388"><ele>98.0</ele><time>2026-03-29T16:09:25.984Z</time></trkpt><trkpt lat="42.346424200699744" lon="11.716614802815176"><ele>98.0</ele><time>2026-03-29T16:09:26.983Z</time></trkpt><trkpt lat="42.346474616305066" lon="11.716854940788297"><ele>98.0</ele><time>2026-03-29T16:09:27.984Z</time></trkpt><trkpt lat="42.346521813359495" lon="11.717109498829196"><ele>98.0</ele><time>2026-03-29T16:09:28.984Z</time></trkpt><trkpt lat="42.34656580364291" lon="11.717384179670805"><ele>100.0</ele><time>2026-03-29T16:09:29.984Z</time></trkpt><trkpt lat="42.34660167864512" lon="11.71768152280283"><ele>102.0</ele><time>2026-03-29T16:09:30.984Z</time></trkpt><trkpt lat="42.346626827828295" lon="11.717997774337732"><ele>103.0</ele><time>2026-03-29T16:09:31.984Z</time></trkpt><trkpt lat="42.346666502270885" lon="11.718320917008922"><ele>104.0</ele><time>2026-03-29T16:09:32.984Z</time></trkpt><trkpt lat="42.346700361868024" lon="11.718658728884689"><ele>104.5</ele><time>2026-03-29T16:09:33.984Z</time></trkpt><trkpt lat="42.34673435322328" lon="11.719006683098947"><ele>105.0</ele><time>2026-03-29T16:09:34.984Z</time></trkpt><trkpt lat="42.34675818636688" lon="11.719357877953094"><ele>105.5</ele><time>2026-03-29T16:09:35.984Z</time></trkpt><trkpt lat="42.346780948860726" lon="11.719708132347767"><ele>106.0</ele><time>2026-03-29T16:09:36.984Z</time></trkpt><trkpt lat="42.34680197274638" lon="11.720051761289508"><ele>106.5</ele><time>2026-03-29T16:09:37.983Z</time></trkpt><trkpt lat="42.346815949905356" lon="11.720387357140664"><ele>107.0</ele><time>2026-03-29T16:09:38.983Z</time></trkpt><trkpt lat="42.34680864622931" lon="11.720717846535734"><ele>107.0</ele><time>2026-03-29T16:09:39.983Z</time></trkpt><trkpt lat="42.34677603830315" lon="11.721051243285473"><ele>107.0</ele><time>2026-03-29T16:09:40.983Z</time></trkpt><trkpt lat="42.346735838320555" lon="11.721368903184826"><ele>109.0</ele><time>2026-03-29T16:09:41.983Z</time></trkpt><trkpt lat="42.34667817066434" lon="11.721677891386205"><ele>111.0</ele><time>2026-03-29T16:09:42.983Z</time></trkpt><trkpt lat="42.346607738414676" lon="11.721978919336408"><ele>112.5</ele><time>2026-03-29T16:09:43.983Z</time></trkpt><trkpt lat="42.346516501148294" lon="11.722276294130307"><ele>114.0</ele><time>2026-03-29T16:09:44.983Z</time></trkpt><trkpt lat="42.34640697224699" lon="11.722562158531634"><ele>115.5</ele><time>2026-03-29T16:09:45.983Z</time></trkpt><trkpt lat="42.3462825214458" lon="11.722844425649383"><ele>117.0</ele><time>2026-03-29T16:09:46.983Z</time></trkpt><trkpt lat="42.34616377943917" lon="11.723121104763408"><ele>117.0</ele><time>2026-03-29T16:09:47.983Z</time></trkpt><trkpt lat="42.34605017201264" lon="11.723397395187964"><ele>117.0</ele><time>2026-03-29T16:09:48.983Z</time></trkpt><trkpt lat="42.34593638172163" lon="11.723676898180146"><ele>119.0</ele><time>2026-03-29T16:09:49.983Z</time></trkpt><trkpt lat="42.34585230468839" lon="11.723961583150206"><ele>121.0</ele><time>2026-03-29T16:09:50.983Z</time></trkpt><trkpt lat="42.34578884320395" lon="11.724262221619579"><ele>123.5</ele><time>2026-03-29T16:09:51.983Z</time></trkpt><trkpt lat="42.3457321885835" lon="11.724581211002175"><ele>126.0</ele><time>2026-03-29T16:09:52.983Z</time></trkpt><trkpt lat="42.34569454336366" lon="11.72491667033424"><ele>127.5</ele><time>2026-03-29T16:09:53.983Z</time></trkpt><trkpt lat="42.34565474651084" lon="11.725258241760036"><ele>129.0</ele><time>2026-03-29T16:09:54.983Z</time></trkpt><trkpt lat="42.34561077367376" lon="11.725606859080443"><ele>129.0</ele><time>2026-03-29T16:09:55.983Z</time></trkpt><trkpt lat="42.345580624358426" lon="11.725948969846018"><ele>129.0</ele><time>2026-03-29T16:09:56.983Z</time></trkpt><trkpt lat="42.345568042865594" lon="11.726284698986955"><ele>131.0</ele><time>2026-03-29T16:09:57.983Z</time></trkpt><trkpt lat="42.34556298310311" lon="11.726609411893822"><ele>133.0</ele><time>2026-03-29T16:09:58.983Z</time></trkpt><trkpt lat="42.34557465251092" lon="11.72692175744845"><ele>134.33333333333334</ele><time>2026-03-29T16:09:59.983Z</time></trkpt><trkpt lat="42.345607260544035" lon="11.727221714721956"><ele>135.66666666666666</ele><time>2026-03-29T16:10:00.983Z</time></trkpt><trkpt lat="42.3456531567151" lon="11.727512625125707"><ele>137.0</ele><time>2026-03-29T16:10:01.983Z</time></trkpt><trkpt lat="42.345707167580606" lon="11.727796013878026"><ele>137.0</ele><time>2026-03-29T16:10:02.983Z</time></trkpt><trkpt lat="42.345785087829235" lon="11.728071786625666"><ele>137.0</ele><time>2026-03-29T16:10:03.983Z</time></trkpt><trkpt lat="42.34588486627245" lon="11.728348895557826"><ele>137.0</ele><time>2026-03-29T16:10:04.983Z</time></trkpt><trkpt lat="42.34600068262581" lon="11.728626517170534"><ele>137.0</ele><time>2026-03-29T16:10:05.983Z</time></trkpt><trkpt lat="42.34613095753971" lon="11.728908979487805"><ele>137.0</ele><time>2026-03-29T16:10:06.983Z</time></trkpt><trkpt lat="42.34627141726078" lon="11.72919646683817"><ele>134.0</ele><time>2026-03-29T16:10:07.983Z</time></trkpt><trkpt lat="42.34641224635879" lon="11.729492577468791"><ele>131.0</ele><time>2026-03-29T16:10:08.983Z</time></trkpt><trkpt lat="42.34656294841823" lon="11.729782842326703"><ele>131.0</ele><time>2026-03-29T16:10:09.983Z</time></trkpt><trkpt lat="42.34672162134571" lon="11.730074481586566"><ele>131.0</ele><time>2026-03-29T16:10:10.983Z</time></trkpt><trkpt lat="42.34688528172976" lon="11.730365397244658"><ele>128.5</ele><time>2026-03-29T16:10:11.983Z</time></trkpt><trkpt lat="42.34705491592701" lon="11.730653366263851"><ele>126.0</ele><time>2026-03-29T16:10:12.983Z</time></trkpt><trkpt lat="42.3472312667378" lon="11.730929326392646"><ele>129.5</ele><time>2026-03-29T16:10:13.983Z</time></trkpt><trkpt lat="42.34741902982086" lon="11.731191745057815"><ele>133.0</ele><time>2026-03-29T16:10:14.983Z</time></trkpt><trkpt lat="42.347608666522255" lon="11.731457634710415"><ele>133.0</ele><time>2026-03-29T16:10:15.983Z</time></trkpt><trkpt lat="42.347808986405234" lon="11.731714149151074"><ele>133.0</ele><time>2026-03-29T16:10:16.983Z</time></trkpt><trkpt lat="42.34800776979885" lon="11.73197575290801"><ele>131.0</ele><time>2026-03-29T16:10:17.983Z</time></trkpt><trkpt lat="42.34820896271133" lon="11.732238992162843"><ele>129.0</ele><time>2026-03-29T16:10:18.983Z</time></trkpt><trkpt lat="42.348407140278" lon="11.73250919354643"><ele>127.5</ele><time>2026-03-29T16:10:19.983Z</time></trkpt><trkpt lat="42.348600114807226" lon="11.73277959283214"><ele>126.0</ele><time>2026-03-29T16:10:20.983Z</time></trkpt><trkpt lat="42.34879056101242" lon="11.733061935933602"><ele>129.0</ele><time>2026-03-29T16:10:21.983Z</time></trkpt><trkpt lat="42.348976014463304" lon="11.733351092270073"><ele>132.0</ele><time>2026-03-29T16:10:22.983Z</time></trkpt><trkpt lat="42.349155702257605" lon="11.733646742411358"><ele>132.0</ele><time>2026-03-29T16:10:23.983Z</time></trkpt><trkpt lat="42.34932529768213" lon="11.733955319681494"><ele>132.0</ele><time>2026-03-29T16:10:24.983Z</time></trkpt><trkpt lat="42.34948677812238" lon="11.734273853428514"><ele>133.5</ele><time>2026-03-29T16:10:25.983Z</time></trkpt><trkpt lat="42.34964770233079" lon="11.734599812748348"><ele>135.0</ele><time>2026-03-29T16:10:26.983Z</time></trkpt><trkpt lat="42.34980188576826" lon="11.734917692495513"><ele>137.0</ele><time>2026-03-29T16:10:27.983Z</time></trkpt><trkpt lat="42.34995732743452" lon="11.735244227868389"><ele>139.0</ele><time>2026-03-29T16:10:28.983Z</time></trkpt><trkpt lat="42.350106493288436" lon="11.735561999186771"><ele>139.0</ele><time>2026-03-29T16:10:29.983Z</time></trkpt><trkpt lat="42.35023658781854" lon="11.735887265075027"><ele>139.0</ele><time>2026-03-29T16:10:30.983Z</time></trkpt><trkpt lat="42.35038695876413" lon="11.7361808057508"><ele>139.5</ele><time>2026-03-29T16:10:31.983Z</time></trkpt><trkpt lat="42.3505170521587" lon="11.736495610639977"><ele>140.0</ele><time>2026-03-29T16:10:32.983Z</time></trkpt><trkpt lat="42.350651120111934" lon="11.73679860516694"><ele>143.0</ele><time>2026-03-29T16:10:33.983Z</time></trkpt><trkpt lat="42.35077330841205" lon="11.737106429903996"><ele>146.0</ele><time>2026-03-29T16:10:34.983Z</time></trkpt><trkpt lat="42.350896991840926" lon="11.737428519549919"><ele>148.0</ele><time>2026-03-29T16:10:35.983Z</time></trkpt><trkpt lat="42.35101269248973" lon="11.737758206553917"><ele>150.0</ele><time>2026-03-29T16:10:36.983Z</time></trkpt><trkpt lat="42.35112389498466" lon="11.73808966463448"><ele>150.0</ele><time>2026-03-29T16:10:37.983Z</time></trkpt><trkpt lat="42.351232788355226" lon="11.73842830937462"><ele>150.0</ele><time>2026-03-29T16:10:38.983Z</time></trkpt><trkpt lat="42.35134160332201" lon="11.738771027624816"><ele>149.0</ele><time>2026-03-29T16:10:39.982Z</time></trkpt><trkpt lat="42.351442923329834" lon="11.739111393595234"><ele>148.0</ele><time>2026-03-29T16:10:40.982Z</time></trkpt><trkpt lat="42.3515400222223" lon="11.73946486985715"><ele>148.0</ele><time>2026-03-29T16:10:41.982Z</time></trkpt><trkpt lat="42.351636453369565" lon="11.739817583610419"><ele>148.0</ele><time>2026-03-29T16:10:42.982Z</time></trkpt><trkpt lat="42.351730492190796" lon="11.740172094357996"><ele>148.0</ele><time>2026-03-29T16:10:43.982Z</time></trkpt><trkpt lat="42.35180932694676" lon="11.74050926604518"><ele>148.0</ele><time>2026-03-29T16:10:44.982Z</time></trkpt><trkpt lat="42.35189685813921" lon="11.740835174973864"><ele>146.5</ele><time>2026-03-29T16:10:45.982Z</time></trkpt><trkpt lat="42.35198093598081" lon="11.741148442040034"><ele>145.0</ele><time>2026-03-29T16:10:46.982Z</time></trkpt><trkpt lat="42.352068744515265" lon="11.741446920271846"><ele>145.0</ele><time>2026-03-29T16:10:47.982Z</time></trkpt><trkpt lat="42.35216860410975" lon="11.741728966661757"><ele>145.0</ele><time>2026-03-29T16:10:48.982Z</time></trkpt><trkpt lat="42.35227153875985" lon="11.742006428831646"><ele>146.5</ele><time>2026-03-29T16:10:49.982Z</time></trkpt><trkpt lat="42.35238116329486" lon="11.742280752825357"><ele>148.0</ele><time>2026-03-29T16:10:50.982Z</time></trkpt><trkpt lat="42.35249780372062" lon="11.742551212716759"><ele>148.5</ele><time>2026-03-29T16:10:51.982Z</time></trkpt><trkpt lat="42.35262363605432" lon="11.742819244235859"><ele>149.0</ele><time>2026-03-29T16:10:52.982Z</time></trkpt><trkpt lat="42.35275256171476" lon="11.743081229254003"><ele>149.0</ele><time>2026-03-29T16:10:53.982Z</time></trkpt><trkpt lat="42.352877322233304" lon="11.743341089175633"><ele>149.0</ele><time>2026-03-29T16:10:54.982Z</time></trkpt><trkpt lat="42.352994672633265" lon="11.743581626166407"><ele>149.0</ele><time>2026-03-29T16:10:55.982Z</time></trkpt><trkpt lat="42.35311288738524" lon="11.743807581695966"><ele>150.33333333333331</ele><time>2026-03-29T16:10:56.982Z</time></trkpt><trkpt lat="42.353228987461826" lon="11.74403150060429"><ele>151.66666666666666</ele><time>2026-03-29T16:10:57.982Z</time></trkpt><trkpt lat="42.35334699387729" lon="11.744253350134343"><ele>153.0</ele><time>2026-03-29T16:10:58.982Z</time></trkpt><trkpt lat="42.353460087015655" lon="11.744484544669644"><ele>153.0</ele><time>2026-03-29T16:10:59.982Z</time></trkpt><trkpt lat="42.35357038863402" lon="11.744725857481953"><ele>153.0</ele><time>2026-03-29T16:11:00.982Z</time></trkpt><trkpt lat="42.35368604800018" lon="11.74496926334244"><ele>153.0</ele><time>2026-03-29T16:11:01.982Z</time></trkpt><trkpt lat="42.353795408096744" lon="11.745234576597928"><ele>149.0</ele><time>2026-03-29T16:11:02.982Z</time></trkpt><trkpt lat="42.35391003024965" lon="11.745509870359752"><ele>145.0</ele><time>2026-03-29T16:11:03.982Z</time></trkpt><trkpt lat="42.35402483055256" lon="11.745796818515743"><ele>142.5</ele><time>2026-03-29T16:11:04.982Z</time></trkpt><trkpt lat="42.35414157481737" lon="11.746077915834865"><ele>140.0</ele><time>2026-03-29T16:11:05.982Z</time></trkpt><trkpt lat="42.35425646450546" lon="11.74634664540086"><ele>140.0</ele><time>2026-03-29T16:11:06.982Z</time></trkpt><trkpt lat="42.354368581060406" lon="11.746600608436559"><ele>140.0</ele><time>2026-03-29T16:11:07.982Z</time></trkpt><trkpt lat="42.35448215431067" lon="11.746837126781015"><ele>140.0</ele><time>2026-03-29T16:11:08.982Z</time></trkpt><trkpt lat="42.35459038396948" lon="11.74705360591764"><ele>139.0</ele><time>2026-03-29T16:11:09.982Z</time></trkpt><trkpt lat="42.35468786816207" lon="11.7472431899014"><ele>138.0</ele><time>2026-03-29T16:11:10.982Z</time></trkpt><trkpt lat="42.354775592827224" lon="11.747408296569345"><ele>137.0</ele><time>2026-03-29T16:11:11.982Z</time></trkpt><trkpt lat="42.354861222136414" lon="11.747557983225184"><ele>136.79999999999998</ele><time>2026-03-29T16:11:12.982Z</time></trkpt><trkpt lat="42.35494469728277" lon="11.747698106067391"><ele>136.6</ele><time>2026-03-29T16:11:13.982Z</time></trkpt><trkpt lat="42.355007469452616" lon="11.747818873858293"><ele>136.39999999999998</ele><time>2026-03-29T16:11:14.982Z</time></trkpt><trkpt lat="42.3550512355475" lon="11.74792510322966"><ele>136.2</ele><time>2026-03-29T16:11:15.982Z</time></trkpt><trkpt lat="42.35509281037813" lon="11.748000629366764"><ele>136.0</ele><time>2026-03-29T16:11:16.982Z</time></trkpt><trkpt lat="42.35514748332914" lon="11.748099977269742"><ele>136.0</ele><time>2026-03-29T16:11:18.982Z</time></trkpt><trkpt lat="42.355235006822056" lon="11.74817477504057"><ele>136.0</ele><time>2026-03-29T16:13:29.983Z</time></trkpt><trkpt lat="42.35530472675041" lon="11.74832176353927"><ele>136.0</ele><time>2026-03-29T16:13:31.983Z</time></trkpt><trkpt lat="42.355362008217945" lon="11.748390821257019"><ele>136.0</ele><time>2026-03-29T16:13:32.983Z</time></trkpt><trkpt lat="42.35539677745413" lon="11.748498576736765"><ele>136.0</ele><time>2026-03-29T16:13:33.983Z</time></trkpt><trkpt lat="42.35544817728897" lon="11.748593079486806"><ele>136.6</ele><time>2026-03-29T16:13:34.983Z</time></trkpt><trkpt lat="42.35551008216185" lon="11.748708265258411"><ele>137.2</ele><time>2026-03-29T16:13:35.984Z</time></trkpt><trkpt lat="42.35557920324627" lon="11.74881912148999"><ele>137.8</ele><time>2026-03-29T16:13:36.983Z</time></trkpt><trkpt lat="42.3556539236529" lon="11.748939573357143"><ele>138.4</ele><time>2026-03-29T16:13:37.983Z</time></trkpt><trkpt lat="42.35572608891527" lon="11.749069734941921"><ele>139.0</ele><time>2026-03-29T16:13:38.983Z</time></trkpt><trkpt lat="42.355802006354175" lon="11.74919954860897"><ele>139.0</ele><time>2026-03-29T16:13:39.983Z</time></trkpt><trkpt lat="42.355880465614064" lon="11.749332823749606"><ele>139.0</ele><time>2026-03-29T16:13:40.983Z</time></trkpt><trkpt lat="42.355958467278455" lon="11.749461442295539"><ele>139.0</ele><time>2026-03-29T16:13:41.983Z</time></trkpt><trkpt lat="42.35603583106374" lon="11.749589842398377"><ele>139.0</ele><time>2026-03-29T16:13:42.983Z</time></trkpt><trkpt lat="42.35609687305662" lon="11.749754363970602"><ele>140.0</ele><time>2026-03-29T16:13:43.983Z</time></trkpt><trkpt lat="42.35618808588484" lon="11.749879992383715"><ele>141.0</ele><time>2026-03-29T16:13:44.983Z</time></trkpt><trkpt lat="42.356289194852124" lon="11.750002467715357"><ele>142.0</ele><time>2026-03-29T16:13:45.983Z</time></trkpt><trkpt lat="42.35640038584154" lon="11.750126583143176"><ele>143.0</ele><time>2026-03-29T16:13:46.983Z</time></trkpt><trkpt lat="42.35652391789578" lon="11.750233838486754"><ele>144.25</ele><time>2026-03-29T16:13:47.983Z</time></trkpt><trkpt lat="42.356651881167856" lon="11.750338521108144"><ele>145.5</ele><time>2026-03-29T16:13:48.983Z</time></trkpt><trkpt lat="42.35677810862241" lon="11.750446565373906"><ele>146.75</ele><time>2026-03-29T16:13:49.983Z</time></trkpt><trkpt lat="42.35689544959313" lon="11.750552302775079"><ele>148.0</ele><time>2026-03-29T16:13:50.983Z</time></trkpt><trkpt lat="42.35700851759313" lon="11.75065717374647"><ele>148.0</ele><time>2026-03-29T16:13:51.983Z</time></trkpt><trkpt lat="42.35712547091145" lon="11.75076184367909"><ele>148.0</ele><time>2026-03-29T16:13:52.983Z</time></trkpt><trkpt lat="42.35724810481558" lon="11.750874775277499"><ele>148.0</ele><time>2026-03-29T16:13:53.983Z</time></trkpt><trkpt lat="42.35736979100491" lon="11.750976831052958"><ele>148.0</ele><time>2026-03-29T16:13:54.983Z</time></trkpt><trkpt lat="42.35749691648572" lon="11.751082058836118"><ele>148.33333333333334</ele><time>2026-03-29T16:13:55.983Z</time></trkpt><trkpt lat="42.357631397467955" lon="11.75119521508647"><ele>148.66666666666666</ele><time>2026-03-29T16:13:56.983Z</time></trkpt><trkpt lat="42.35777369288674" lon="11.751309094224014"><ele>149.0</ele><time>2026-03-29T16:13:57.983Z</time></trkpt><trkpt lat="42.357913699263214" lon="11.751451901668744"><ele>149.33333333333331</ele><time>2026-03-29T16:13:58.983Z</time></trkpt><trkpt lat="42.35806911554815" lon="11.751591437714579"><ele>149.66666666666666</ele><time>2026-03-29T16:13:59.983Z</time></trkpt><trkpt lat="42.35823527134555" lon="11.751739319701533"><ele>150.0</ele><time>2026-03-29T16:14:00.983Z</time></trkpt><trkpt lat="42.358409776289264" lon="11.751894632591657"><ele>150.0</ele><time>2026-03-29T16:14:01.983Z</time></trkpt><trkpt lat="42.35860255438917" lon="11.752065709624045"><ele>150.0</ele><time>2026-03-29T16:14:02.983Z</time></trkpt><trkpt lat="42.35879581033753" lon="11.752236288193942"><ele>149.0</ele><time>2026-03-29T16:14:03.983Z</time></trkpt><trkpt lat="42.35899743207822" lon="11.752414250808208"><ele>148.0</ele><time>2026-03-29T16:14:04.983Z</time></trkpt><trkpt lat="42.3592015849611" lon="11.75259457411502"><ele>147.5</ele><time>2026-03-29T16:14:05.983Z</time></trkpt><trkpt lat="42.35940865364797" lon="11.75277750608479"><ele>147.0</ele><time>2026-03-29T16:14:06.983Z</time></trkpt><trkpt lat="42.359619659354856" lon="11.752963915865072"><ele>145.5</ele><time>2026-03-29T16:14:07.983Z</time></trkpt><trkpt lat="42.35983721185088" lon="11.753158116071283"><ele>144.0</ele><time>2026-03-29T16:14:08.983Z</time></trkpt><trkpt lat="42.360062374347" lon="11.753361185443607"><ele>143.0</ele><time>2026-03-29T16:14:09.983Z</time></trkpt><trkpt lat="42.36027962215525" lon="11.753578951182634"><ele>142.0</ele><time>2026-03-29T16:14:10.983Z</time></trkpt><trkpt lat="42.360489503236636" lon="11.753814828739806"><ele>141.0</ele><time>2026-03-29T16:14:11.983Z</time></trkpt><trkpt lat="42.360667197074164" lon="11.754055967133667"><ele>140.0</ele><time>2026-03-29T16:14:12.983Z</time></trkpt><trkpt lat="42.36083266834412" lon="11.754299568394432"><ele>138.5</ele><time>2026-03-29T16:14:13.983Z</time></trkpt><trkpt lat="42.360974403662425" lon="11.75455695411451"><ele>137.0</ele><time>2026-03-29T16:14:14.983Z</time></trkpt><trkpt lat="42.361099959241606" lon="11.754819513183406"><ele>137.0</ele><time>2026-03-29T16:14:15.983Z</time></trkpt><trkpt lat="42.36121529108914" lon="11.755085727952281"><ele>137.0</ele><time>2026-03-29T16:14:16.983Z</time></trkpt><trkpt lat="42.36132718008746" lon="11.755357031339495"><ele>139.0</ele><time>2026-03-29T16:14:17.983Z</time></trkpt><trkpt lat="42.36142366416048" lon="11.755647100592464"><ele>141.0</ele><time>2026-03-29T16:14:18.983Z</time></trkpt><trkpt lat="42.36153654783699" lon="11.75593330768792"><ele>141.0</ele><time>2026-03-29T16:14:19.983Z</time></trkpt><trkpt lat="42.36164877613745" lon="11.756214106456733"><ele>141.0</ele><time>2026-03-29T16:14:20.983Z</time></trkpt><trkpt lat="42.361754885954845" lon="11.756479596548774"><ele>141.0</ele><time>2026-03-29T16:14:21.983Z</time></trkpt><trkpt lat="42.36185560322629" lon="11.75673196219984"><ele>141.0</ele><time>2026-03-29T16:14:22.983Z</time></trkpt><trkpt lat="42.36197014287806" lon="11.756978216810156"><ele>141.0</ele><time>2026-03-29T16:14:23.983Z</time></trkpt><trkpt lat="42.362072236942424" lon="11.757239647109047"><ele>142.5</ele><time>2026-03-29T16:14:24.983Z</time></trkpt><trkpt lat="42.362180937899076" lon="11.757506703601093"><ele>144.0</ele><time>2026-03-29T16:14:25.983Z</time></trkpt><trkpt lat="42.362294123512925" lon="11.757798055975488"><ele>145.0</ele><time>2026-03-29T16:14:26.983Z</time></trkpt><trkpt lat="42.36241517874948" lon="11.758102300762625"><ele>146.0</ele><time>2026-03-29T16:14:27.983Z</time></trkpt><trkpt lat="42.36254077652266" lon="11.758418919522317"><ele>146.5</ele><time>2026-03-29T16:14:28.983Z</time></trkpt><trkpt lat="42.362661241619385" lon="11.758757330667537"><ele>147.0</ele><time>2026-03-29T16:14:29.983Z</time></trkpt><trkpt lat="42.362779393047106" lon="11.759089290068841"><ele>146.5</ele><time>2026-03-29T16:14:30.983Z</time></trkpt><trkpt lat="42.36289818013879" lon="11.759431104599805"><ele>146.0</ele><time>2026-03-29T16:14:31.983Z</time></trkpt><trkpt lat="42.363014598114965" lon="11.759775576863424"><ele>146.0</ele><time>2026-03-29T16:14:32.983Z</time></trkpt><trkpt lat="42.36312971365175" lon="11.760117890459439"><ele>146.0</ele><time>2026-03-29T16:14:33.983Z</time></trkpt><trkpt lat="42.363249391185974" lon="11.760452267008276"><ele>146.0</ele><time>2026-03-29T16:14:34.983Z</time></trkpt><trkpt lat="42.36336487491257" lon="11.760776485509398"><ele>146.0</ele><time>2026-03-29T16:14:35.983Z</time></trkpt><trkpt lat="42.36346832127738" lon="11.761118727767396"><ele>144.0</ele><time>2026-03-29T16:14:36.983Z</time></trkpt><trkpt lat="42.36355807568279" lon="11.761444306351994"><ele>142.0</ele><time>2026-03-29T16:14:37.982Z</time></trkpt><trkpt lat="42.36364063942553" lon="11.761767040315542"><ele>141.5</ele><time>2026-03-29T16:14:38.982Z</time></trkpt><trkpt lat="42.36372487511494" lon="11.762075315681729"><ele>141.0</ele><time>2026-03-29T16:14:39.982Z</time></trkpt><trkpt lat="42.36380555404104" lon="11.7623770102761"><ele>142.5</ele><time>2026-03-29T16:14:40.982Z</time></trkpt><trkpt lat="42.363888426376434" lon="11.762678413923842"><ele>144.0</ele><time>2026-03-29T16:14:41.982Z</time></trkpt><trkpt lat="42.36396485503682" lon="11.762972482122073"><ele>144.0</ele><time>2026-03-29T16:14:42.982Z</time></trkpt><trkpt lat="42.36403822199829" lon="11.763264810676361"><ele>144.0</ele><time>2026-03-29T16:14:43.982Z</time></trkpt><trkpt lat="42.364102821974505" lon="11.76356052942335"><ele>142.5</ele><time>2026-03-29T16:14:44.982Z</time></trkpt><trkpt lat="42.364174348664896" lon="11.76385484491915"><ele>141.0</ele><time>2026-03-29T16:14:45.982Z</time></trkpt><trkpt lat="42.36424203997616" lon="11.764152169469611"><ele>140.5</ele><time>2026-03-29T16:14:46.982Z</time></trkpt><trkpt lat="42.364306855390915" lon="11.764452081484135"><ele>140.0</ele><time>2026-03-29T16:14:47.982Z</time></trkpt><trkpt lat="42.364363524360705" lon="11.764752844397044"><ele>140.0</ele><time>2026-03-29T16:14:48.982Z</time></trkpt><trkpt lat="42.36441928197395" lon="11.765056340321257"><ele>140.0</ele><time>2026-03-29T16:14:49.982Z</time></trkpt><trkpt lat="42.364489025213835" lon="11.765354849812809"><ele>139.5</ele><time>2026-03-29T16:14:50.982Z</time></trkpt><trkpt lat="42.364554479653385" lon="11.765656398238614"><ele>139.0</ele><time>2026-03-29T16:14:51.982Z</time></trkpt><trkpt lat="42.36461141924504" lon="11.765961409278885"><ele>139.5</ele><time>2026-03-29T16:14:52.982Z</time></trkpt><trkpt lat="42.36466914469763" lon="11.766261872877203"><ele>140.0</ele><time>2026-03-29T16:14:53.982Z</time></trkpt><trkpt lat="42.36472132531285" lon="11.766568095844663"><ele>139.5</ele><time>2026-03-29T16:14:54.982Z</time></trkpt><trkpt lat="42.36476879029962" lon="11.766873554624096"><ele>139.0</ele><time>2026-03-29T16:14:55.982Z</time></trkpt><trkpt lat="42.364821337141315" lon="11.767174781659588"><ele>139.0</ele><time>2026-03-29T16:14:56.982Z</time></trkpt><trkpt lat="42.36487635901897" lon="11.767473050070208"><ele>139.0</ele><time>2026-03-29T16:14:57.982Z</time></trkpt><trkpt lat="42.364936498385774" lon="11.767775487555891"><ele>137.5</ele><time>2026-03-29T16:14:58.982Z</time></trkpt><trkpt lat="42.36500154386657" lon="11.768073086049151"><ele>136.0</ele><time>2026-03-29T16:14:59.982Z</time></trkpt><trkpt lat="42.36506406409525" lon="11.768371592435065"><ele>135.0</ele><time>2026-03-29T16:15:00.982Z</time></trkpt><trkpt lat="42.3651280806923" lon="11.768675672787259"><ele>134.0</ele><time>2026-03-29T16:15:01.982Z</time></trkpt><trkpt lat="42.36519540000098" lon="11.768971737129851"><ele>134.0</ele><time>2026-03-29T16:15:02.982Z</time></trkpt><trkpt lat="42.365256943908854" lon="11.769265238619203"><ele>134.0</ele><time>2026-03-29T16:15:03.982Z</time></trkpt><trkpt lat="42.36531891536629" lon="11.769561793227698"><ele>133.0</ele><time>2026-03-29T16:15:04.982Z</time></trkpt><trkpt lat="42.36539098547995" lon="11.76985234725956"><ele>132.0</ele><time>2026-03-29T16:15:05.982Z</time></trkpt><trkpt lat="42.36546250345386" lon="11.770146384371817"><ele>134.0</ele><time>2026-03-29T16:15:06.982Z</time></trkpt><trkpt lat="42.365526310863686" lon="11.770440982240558"><ele>136.0</ele><time>2026-03-29T16:15:07.982Z</time></trkpt><trkpt lat="42.36559351138049" lon="11.770739254364992"><ele>135.5</ele><time>2026-03-29T16:15:08.982Z</time></trkpt><trkpt lat="42.365658802708275" lon="11.771037738942619"><ele>135.0</ele><time>2026-03-29T16:15:09.982Z</time></trkpt><trkpt lat="42.365728031426244" lon="11.77132934697457"><ele>135.0</ele><time>2026-03-29T16:15:10.982Z</time></trkpt><trkpt lat="42.36581153557071" lon="11.771618063523515"><ele>135.0</ele><time>2026-03-29T16:15:11.982Z</time></trkpt><trkpt lat="42.365909273471765" lon="11.771896700142902"><ele>137.0</ele><time>2026-03-29T16:15:12.982Z</time></trkpt><trkpt lat="42.36602658587847" lon="11.772164466560131"><ele>139.0</ele><time>2026-03-29T16:15:13.982Z</time></trkpt><trkpt lat="42.36615312423177" lon="11.77242653359143"><ele>139.0</ele><time>2026-03-29T16:15:14.982Z</time></trkpt><trkpt lat="42.366280420416324" lon="11.772683356808534"><ele>139.0</ele><time>2026-03-29T16:15:15.982Z</time></trkpt><trkpt lat="42.366414781842124" lon="11.772932422469745"><ele>138.5</ele><time>2026-03-29T16:15:16.982Z</time></trkpt><trkpt lat="42.366561992648755" lon="11.773173249151634"><ele>138.0</ele><time>2026-03-29T16:15:17.982Z</time></trkpt><trkpt lat="42.366714644722016" lon="11.77340855745104"><ele>138.0</ele><time>2026-03-29T16:15:18.982Z</time></trkpt><trkpt lat="42.36687425338447" lon="11.773635803102964"><ele>138.0</ele><time>2026-03-29T16:15:19.982Z</time></trkpt><trkpt lat="42.36703911875698" lon="11.773858335142974"><ele>135.0</ele><time>2026-03-29T16:15:20.982Z</time></trkpt><trkpt lat="42.36720938274678" lon="11.77406878255444"><ele>132.0</ele><time>2026-03-29T16:15:21.982Z</time></trkpt><trkpt lat="42.367385200228185" lon="11.77427090840703"><ele>135.0</ele><time>2026-03-29T16:15:22.982Z</time></trkpt><trkpt lat="42.36757083762268" lon="11.774466484131178"><ele>138.0</ele><time>2026-03-29T16:15:23.982Z</time></trkpt><trkpt lat="42.367763800838446" lon="11.774650421442864"><ele>138.0</ele><time>2026-03-29T16:15:24.982Z</time></trkpt><trkpt lat="42.3679711342447" lon="11.774826598017906"><ele>138.0</ele><time>2026-03-29T16:15:25.982Z</time></trkpt><trkpt lat="42.36818883913655" lon="11.77499607208433"><ele>138.0</ele><time>2026-03-29T16:15:26.982Z</time></trkpt><trkpt lat="42.36839547978306" lon="11.775177663988222"><ele>138.0</ele><time>2026-03-29T16:15:27.982Z</time></trkpt><trkpt lat="42.368589656159315" lon="11.775378522695538"><ele>138.0</ele><time>2026-03-29T16:15:28.982Z</time></trkpt><trkpt lat="42.36877659593" lon="11.775580420711682"><ele>138.0</ele><time>2026-03-29T16:15:29.982Z</time></trkpt><trkpt lat="42.36896820569701" lon="11.775814598273215"><ele>137.0</ele><time>2026-03-29T16:15:30.982Z</time></trkpt><trkpt lat="42.36914519589772" lon="11.776069533976887"><ele>136.0</ele><time>2026-03-29T16:15:31.982Z</time></trkpt><trkpt lat="42.36931074721135" lon="11.776302455900227"><ele>136.0</ele><time>2026-03-29T16:15:32.984Z</time></trkpt><trkpt lat="42.369471072477126" lon="11.776545569153788"><ele>136.0</ele><time>2026-03-29T16:15:33.983Z</time></trkpt><trkpt lat="42.36962754864692" lon="11.77682544091815"><ele>134.0</ele><time>2026-03-29T16:15:34.983Z</time></trkpt><trkpt lat="42.36977400376756" lon="11.77709957538177"><ele>132.0</ele><time>2026-03-29T16:15:35.983Z</time></trkpt><trkpt lat="42.369910570520986" lon="11.777394723069536"><ele>132.0</ele><time>2026-03-29T16:15:36.983Z</time></trkpt><trkpt lat="42.370046427079444" lon="11.777705522134466"><ele>132.0</ele><time>2026-03-29T16:15:37.983Z</time></trkpt><trkpt lat="42.37017298826094" lon="11.778043879361139"><ele>132.0</ele><time>2026-03-29T16:15:38.983Z</time></trkpt><trkpt lat="42.37029107995514" lon="11.77840137510514"><ele>132.0</ele><time>2026-03-29T16:15:39.983Z</time></trkpt><trkpt lat="42.37040936656696" lon="11.778750376095703"><ele>131.5</ele><time>2026-03-29T16:15:40.983Z</time></trkpt><trkpt lat="42.37053472107167" lon="11.779094815541045"><ele>131.0</ele><time>2026-03-29T16:15:41.984Z</time></trkpt><trkpt lat="42.370673466043804" lon="11.779430873598828"><ele>131.0</ele><time>2026-03-29T16:15:42.983Z</time></trkpt><trkpt lat="42.37082052946313" lon="11.779769724094377"><ele>131.0</ele><time>2026-03-29T16:15:43.983Z</time></trkpt><trkpt lat="42.370980519291074" lon="11.780094337673827"><ele>131.0</ele><time>2026-03-29T16:15:44.983Z</time></trkpt><trkpt lat="42.371144784132056" lon="11.780420182293593"><ele>131.0</ele><time>2026-03-29T16:15:45.983Z</time></trkpt><trkpt lat="42.371315766247605" lon="11.780734613705695"><ele>131.5</ele><time>2026-03-29T16:15:46.983Z</time></trkpt><trkpt lat="42.371498136838156" lon="11.781052987745005"><ele>132.0</ele><time>2026-03-29T16:15:47.983Z</time></trkpt><trkpt lat="42.37168361410983" lon="11.781368739933475"><ele>132.0</ele><time>2026-03-29T16:15:48.983Z</time></trkpt><trkpt lat="42.371876152273074" lon="11.781672421644112"><ele>132.0</ele><time>2026-03-29T16:15:49.983Z</time></trkpt><trkpt lat="42.37207802745451" lon="11.781965338594114"><ele>134.0</ele><time>2026-03-29T16:15:50.983Z</time></trkpt><trkpt lat="42.37228208177691" lon="11.7822621882764"><ele>136.0</ele><time>2026-03-29T16:15:51.983Z</time></trkpt><trkpt lat="42.37248939606393" lon="11.782551405856156"><ele>138.0</ele><time>2026-03-29T16:15:52.983Z</time></trkpt><trkpt lat="42.372685326622104" lon="11.78285523963433"><ele>140.0</ele><time>2026-03-29T16:15:53.983Z</time></trkpt><trkpt lat="42.37288615106625" lon="11.783143751495004"><ele>141.5</ele><time>2026-03-29T16:15:54.983Z</time></trkpt><trkpt lat="42.373077759584504" lon="11.783436941053044"><ele>143.0</ele><time>2026-03-29T16:15:55.983Z</time></trkpt><trkpt lat="42.37326639792981" lon="11.783720909309512"><ele>144.5</ele><time>2026-03-29T16:15:56.983Z</time></trkpt><trkpt lat="42.37345475774504" lon="11.783989793550678"><ele>146.0</ele><time>2026-03-29T16:15:57.983Z</time></trkpt><trkpt lat="42.37364353868183" lon="11.784266760552903"><ele>147.5</ele><time>2026-03-29T16:15:58.983Z</time></trkpt><trkpt lat="42.37381294429913" lon="11.784529618676087"><ele>149.0</ele><time>2026-03-29T16:15:59.983Z</time></trkpt><trkpt lat="42.373968946818394" lon="11.784768846966363"><ele>150.0</ele><time>2026-03-29T16:16:00.983Z</time></trkpt><trkpt lat="42.3741203859196" lon="11.785002815908047"><ele>151.0</ele><time>2026-03-29T16:16:01.983Z</time></trkpt><trkpt lat="42.37427376285251" lon="11.785234795807446"><ele>153.0</ele><time>2026-03-29T16:16:02.983Z</time></trkpt><trkpt lat="42.374420225979954" lon="11.78547555027651"><ele>155.0</ele><time>2026-03-29T16:16:03.983Z</time></trkpt><trkpt lat="42.37456674431308" lon="11.785733667797414"><ele>155.0</ele><time>2026-03-29T16:16:04.983Z</time></trkpt><trkpt lat="42.374716799226164" lon="11.78599175787337"><ele>155.0</ele><time>2026-03-29T16:16:05.983Z</time></trkpt><trkpt lat="42.37485596345051" lon="11.786245284369407"><ele>155.0</ele><time>2026-03-29T16:16:06.983Z</time></trkpt><trkpt lat="42.374983437554796" lon="11.786503686447071"><ele>155.0</ele><time>2026-03-29T16:16:07.983Z</time></trkpt><trkpt lat="42.375106411582124" lon="11.786767619866463"><ele>155.0</ele><time>2026-03-29T16:16:08.983Z</time></trkpt><trkpt lat="42.375227935935364" lon="11.787032206746375"><ele>155.0</ele><time>2026-03-29T16:16:09.983Z</time></trkpt><trkpt lat="42.37535495827387" lon="11.787315447355315"><ele>155.0</ele><time>2026-03-29T16:16:10.983Z</time></trkpt><trkpt lat="42.37548150834323" lon="11.787599720643817"><ele>155.0</ele><time>2026-03-29T16:16:11.983Z</time></trkpt><trkpt lat="42.37560893279739" lon="11.787904303134665"><ele>154.0</ele><time>2026-03-29T16:16:12.983Z</time></trkpt><trkpt lat="42.37574222137604" lon="11.788213477355557"><ele>153.0</ele><time>2026-03-29T16:16:13.983Z</time></trkpt><trkpt lat="42.375875231095094" lon="11.788535628887772"><ele>153.0</ele><time>2026-03-29T16:16:14.983Z</time></trkpt><trkpt lat="42.37601160540461" lon="11.788860707068409"><ele>153.0</ele><time>2026-03-29T16:16:15.983Z</time></trkpt><trkpt lat="42.37614892414588" lon="11.789198920822175"><ele>152.5</ele><time>2026-03-29T16:16:16.983Z</time></trkpt><trkpt lat="42.37628994074414" lon="11.789541929970117"><ele>152.0</ele><time>2026-03-29T16:16:17.983Z</time></trkpt><trkpt lat="42.37644053416296" lon="11.789906995316871"><ele>149.5</ele><time>2026-03-29T16:16:18.983Z</time></trkpt><trkpt lat="42.37658527175301" lon="11.790263367527855"><ele>147.0</ele><time>2026-03-29T16:16:19.983Z</time></trkpt><trkpt lat="42.376724988766355" lon="11.79060375711085"><ele>147.0</ele><time>2026-03-29T16:16:20.983Z</time></trkpt><trkpt lat="42.376863748042474" lon="11.79094344638752"><ele>147.0</ele><time>2026-03-29T16:16:21.983Z</time></trkpt><trkpt lat="42.37700424691361" lon="11.791286303556829"><ele>146.5</ele><time>2026-03-29T16:16:22.983Z</time></trkpt><trkpt lat="42.37714620433719" lon="11.791620255281597"><ele>146.0</ele><time>2026-03-29T16:16:23.983Z</time></trkpt><trkpt lat="42.37728771299764" lon="11.791952619241936"><ele>145.0</ele><time>2026-03-29T16:16:24.983Z</time></trkpt><trkpt lat="42.377423798038166" lon="11.792293269296296"><ele>144.0</ele><time>2026-03-29T16:16:25.983Z</time></trkpt><trkpt lat="42.37755685818566" lon="11.792630161327603"><ele>144.5</ele><time>2026-03-29T16:16:26.983Z</time></trkpt><trkpt lat="42.377693642106856" lon="11.792974186899329"><ele>145.0</ele><time>2026-03-29T16:16:27.983Z</time></trkpt><trkpt lat="42.37784085183216" lon="11.79333454508751"><ele>145.0</ele><time>2026-03-29T16:16:28.983Z</time></trkpt><trkpt lat="42.377982804135954" lon="11.793704493524015"><ele>145.0</ele><time>2026-03-29T16:16:29.983Z</time></trkpt><trkpt lat="42.37812314781066" lon="11.794080423306522"><ele>144.0</ele><time>2026-03-29T16:16:30.983Z</time></trkpt><trkpt lat="42.3782659055967" lon="11.794456550426894"><ele>143.0</ele><time>2026-03-29T16:16:31.983Z</time></trkpt><trkpt lat="42.37840910978603" lon="11.794839230113245"><ele>142.5</ele><time>2026-03-29T16:16:32.983Z</time></trkpt><trkpt lat="42.37855234951587" lon="11.79522547817888"><ele>142.0</ele><time>2026-03-29T16:16:33.983Z</time></trkpt><trkpt lat="42.37869757576312" lon="11.795609850979348"><ele>142.0</ele><time>2026-03-29T16:16:34.983Z</time></trkpt><trkpt lat="42.37884354709818" lon="11.79599622098709"><ele>142.0</ele><time>2026-03-29T16:16:35.983Z</time></trkpt><trkpt lat="42.3789907917657" lon="11.796375269752508"><ele>143.0</ele><time>2026-03-29T16:16:36.983Z</time></trkpt><trkpt lat="42.379132461536344" lon="11.796763323279205"><ele>144.0</ele><time>2026-03-29T16:16:37.983Z</time></trkpt><trkpt lat="42.37927578355038" lon="11.79714324898206"><ele>142.0</ele><time>2026-03-29T16:16:38.983Z</time></trkpt><trkpt lat="42.37940326698068" lon="11.797533603831685"><ele>140.0</ele><time>2026-03-29T16:16:39.983Z</time></trkpt><trkpt lat="42.37955833698663" lon="11.797903926550193"><ele>140.0</ele><time>2026-03-29T16:16:40.983Z</time></trkpt><trkpt lat="42.37969648585965" lon="11.798281268787179"><ele>140.0</ele><time>2026-03-29T16:16:41.983Z</time></trkpt><trkpt lat="42.3798351959968" lon="11.798662511295058"><ele>140.0</ele><time>2026-03-29T16:16:42.983Z</time></trkpt><trkpt lat="42.37997594251625" lon="11.799038598342452"><ele>140.0</ele><time>2026-03-29T16:16:43.982Z</time></trkpt><trkpt lat="42.38010831908522" lon="11.799405980964895"><ele>139.0</ele><time>2026-03-29T16:16:44.982Z</time></trkpt><trkpt lat="42.38023327925739" lon="11.799749820124122"><ele>138.0</ele><time>2026-03-29T16:16:45.982Z</time></trkpt><trkpt lat="42.38035444242934" lon="11.800080059129481"><ele>138.0</ele><time>2026-03-29T16:16:46.982Z</time></trkpt><trkpt lat="42.3804774097049" lon="11.80040232965443"><ele>138.0</ele><time>2026-03-29T16:16:47.982Z</time></trkpt><trkpt lat="42.38060371482036" lon="11.800730388280446"><ele>137.0</ele><time>2026-03-29T16:16:48.982Z</time></trkpt><trkpt lat="42.380738054410244" lon="11.801062155521805"><ele>136.0</ele><time>2026-03-29T16:16:49.982Z</time></trkpt><trkpt lat="42.380875542453865" lon="11.801392377119761"><ele>136.0</ele><time>2026-03-29T16:16:50.982Z</time></trkpt><trkpt lat="42.38101583373883" lon="11.801720251520269"><ele>136.0</ele><time>2026-03-29T16:16:51.982Z</time></trkpt><trkpt lat="42.381154506488365" lon="11.802045980532602"><ele>136.0</ele><time>2026-03-29T16:16:52.982Z</time></trkpt><trkpt lat="42.38129097020499" lon="11.80235843170993"><ele>136.0</ele><time>2026-03-29T16:16:53.982Z</time></trkpt><trkpt lat="42.38143092867414" lon="11.802658875493925"><ele>137.0</ele><time>2026-03-29T16:16:54.982Z</time></trkpt><trkpt lat="42.381574175024525" lon="11.802952413033687"><ele>138.0</ele><time>2026-03-29T16:16:55.982Z</time></trkpt><trkpt lat="42.38172197827381" lon="11.803242289468802"><ele>139.5</ele><time>2026-03-29T16:16:56.982Z</time></trkpt><trkpt lat="42.38188185035339" lon="11.803509418835313"><ele>141.0</ele><time>2026-03-29T16:16:57.982Z</time></trkpt><trkpt lat="42.382037107090575" lon="11.803766768678011"><ele>141.5</ele><time>2026-03-29T16:16:58.982Z</time></trkpt><trkpt lat="42.38219404609328" lon="11.804007268252654"><ele>142.0</ele><time>2026-03-29T16:16:59.982Z</time></trkpt><trkpt lat="42.38235388890945" lon="11.804227168077471"><ele>142.33333333333334</ele><time>2026-03-29T16:17:00.982Z</time></trkpt><trkpt lat="42.38251341469734" lon="11.804432348230957"><ele>142.66666666666666</ele><time>2026-03-29T16:17:01.982Z</time></trkpt><trkpt lat="42.38268052326132" lon="11.804626443063183"><ele>143.0</ele><time>2026-03-29T16:17:02.982Z</time></trkpt><trkpt lat="42.382855964295324" lon="11.804819434805639"><ele>142.5</ele><time>2026-03-29T16:17:03.982Z</time></trkpt><trkpt lat="42.38303638319069" lon="11.805013216933702"><ele>142.0</ele><time>2026-03-29T16:17:04.982Z</time></trkpt><trkpt lat="42.38323506148917" lon="11.805202883958255"><ele>142.0</ele><time>2026-03-29T16:17:05.982Z</time></trkpt><trkpt lat="42.383431028075094" lon="11.805402008555609"><ele>142.0</ele><time>2026-03-29T16:17:06.982Z</time></trkpt><trkpt lat="42.383629441903615" lon="11.805605964121415"><ele>142.0</ele><time>2026-03-29T16:17:07.982Z</time></trkpt><trkpt lat="42.383837654807216" lon="11.80581007675956"><ele>142.0</ele><time>2026-03-29T16:17:08.982Z</time></trkpt><trkpt lat="42.38404818372208" lon="11.806015385255133"><ele>142.0</ele><time>2026-03-29T16:17:09.982Z</time></trkpt><trkpt lat="42.384262013639315" lon="11.806225111666649"><ele>142.0</ele><time>2026-03-29T16:17:10.982Z</time></trkpt><trkpt lat="42.38448405106502" lon="11.806434786934217"><ele>142.0</ele><time>2026-03-29T16:17:11.982Z</time></trkpt><trkpt lat="42.38471261539284" lon="11.806649438379372"><ele>142.0</ele><time>2026-03-29T16:17:12.982Z</time></trkpt><trkpt lat="42.38494627358215" lon="11.806871858533992"><ele>142.0</ele><time>2026-03-29T16:17:13.982Z</time></trkpt><trkpt lat="42.38517701884798" lon="11.80710057828372"><ele>142.0</ele><time>2026-03-29T16:17:14.982Z</time></trkpt><trkpt lat="42.38539120425917" lon="11.80731018140212"><ele>143.0</ele><time>2026-03-29T16:17:15.982Z</time></trkpt><trkpt lat="42.38560075928413" lon="11.807524262071272"><ele>144.0</ele><time>2026-03-29T16:17:16.982Z</time></trkpt><trkpt lat="42.385806357777284" lon="11.807727278042249"><ele>144.0</ele><time>2026-03-29T16:17:17.982Z</time></trkpt><trkpt lat="42.386015456545124" lon="11.807946816513871"><ele>144.0</ele><time>2026-03-29T16:17:18.982Z</time></trkpt><trkpt lat="42.386212081947484" lon="11.808148374866281"><ele>145.0</ele><time>2026-03-29T16:17:19.982Z</time></trkpt><trkpt lat="42.386393720032366" lon="11.808347603979323"><ele>146.0</ele><time>2026-03-29T16:17:20.982Z</time></trkpt><trkpt lat="42.38656902849064" lon="11.808558740192096"><ele>146.0</ele><time>2026-03-29T16:17:21.982Z</time></trkpt><trkpt lat="42.38673931904317" lon="11.808778385460519"><ele>146.0</ele><time>2026-03-29T16:17:22.982Z</time></trkpt><trkpt lat="42.386910359733875" lon="11.809000255192457"><ele>146.0</ele><time>2026-03-29T16:17:23.982Z</time></trkpt><trkpt lat="42.38708792023205" lon="11.809213514059861"><ele>146.0</ele><time>2026-03-29T16:17:24.982Z</time></trkpt><trkpt lat="42.38726070410927" lon="11.809448081458198"><ele>144.5</ele><time>2026-03-29T16:17:25.982Z</time></trkpt><trkpt lat="42.38743836306338" lon="11.809698468104452"><ele>143.0</ele><time>2026-03-29T16:17:26.982Z</time></trkpt><trkpt lat="42.38761933920268" lon="11.809953052256676"><ele>142.5</ele><time>2026-03-29T16:17:27.982Z</time></trkpt><trkpt lat="42.38780227663962" lon="11.810209079783577"><ele>142.0</ele><time>2026-03-29T16:17:28.982Z</time></trkpt><trkpt lat="42.387985894859234" lon="11.810459478403969"><ele>143.0</ele><time>2026-03-29T16:17:29.982Z</time></trkpt><trkpt lat="42.388172220065854" lon="11.810712654298896"><ele>144.0</ele><time>2026-03-29T16:17:30.982Z</time></trkpt><trkpt lat="42.38835118413127" lon="11.810967333149044"><ele>143.5</ele><time>2026-03-29T16:17:31.982Z</time></trkpt><trkpt lat="42.38852917759269" lon="11.811232422986254"><ele>143.0</ele><time>2026-03-29T16:17:32.982Z</time></trkpt><trkpt lat="42.38869852357322" lon="11.811509153871969"><ele>144.0</ele><time>2026-03-29T16:17:33.982Z</time></trkpt><trkpt lat="42.38886560080898" lon="11.811786955556556"><ele>145.0</ele><time>2026-03-29T16:17:34.982Z</time></trkpt><trkpt lat="42.389035542307894" lon="11.812069587914356"><ele>145.0</ele><time>2026-03-29T16:17:35.982Z</time></trkpt><trkpt lat="42.38921324925027" lon="11.812350367325381"><ele>145.0</ele><time>2026-03-29T16:17:36.982Z</time></trkpt><trkpt lat="42.38939455163778" lon="11.812647103474934"><ele>145.5</ele><time>2026-03-29T16:17:37.982Z</time></trkpt><trkpt lat="42.389580249056834" lon="11.812948032667261"><ele>146.0</ele><time>2026-03-29T16:17:38.984Z</time></trkpt><trkpt lat="42.38976988121564" lon="11.813253614905483"><ele>146.0</ele><time>2026-03-29T16:17:39.984Z</time></trkpt><trkpt lat="42.389953534697796" lon="11.81356419722281"><ele>146.0</ele><time>2026-03-29T16:17:40.984Z</time></trkpt><trkpt lat="42.39013195293319" lon="11.813860666640393"><ele>146.0</ele><time>2026-03-29T16:17:41.983Z</time></trkpt><trkpt lat="42.390300092692335" lon="11.814146141965978"><ele>146.0</ele><time>2026-03-29T16:17:42.983Z</time></trkpt><trkpt lat="42.39046437625794" lon="11.814420552507384"><ele>148.0</ele><time>2026-03-29T16:17:43.983Z</time></trkpt><trkpt lat="42.39062861263686" lon="11.814684568534327"><ele>150.0</ele><time>2026-03-29T16:17:44.984Z</time></trkpt><trkpt lat="42.390791348347115" lon="11.81494618486445"><ele>149.5</ele><time>2026-03-29T16:17:45.984Z</time></trkpt><trkpt lat="42.39094173790994" lon="11.815216441962965"><ele>149.0</ele><time>2026-03-29T16:17:46.984Z</time></trkpt><trkpt lat="42.39108343414963" lon="11.815493060887844"><ele>149.0</ele><time>2026-03-29T16:17:47.983Z</time></trkpt><trkpt lat="42.39122293572036" lon="11.815771161181171"><ele>149.0</ele><time>2026-03-29T16:17:48.983Z</time></trkpt><trkpt lat="42.391358807081865" lon="11.816066761302123"><ele>148.5</ele><time>2026-03-29T16:17:49.983Z</time></trkpt><trkpt lat="42.39149771918944" lon="11.81635545667851"><ele>148.0</ele><time>2026-03-29T16:17:50.984Z</time></trkpt><trkpt lat="42.39163634181658" lon="11.81665077394178"><ele>147.0</ele><time>2026-03-29T16:17:51.983Z</time></trkpt><trkpt lat="42.39178666781055" lon="11.816939203950776"><ele>146.0</ele><time>2026-03-29T16:17:52.983Z</time></trkpt><trkpt lat="42.39194480240335" lon="11.817233116974581"><ele>146.0</ele><time>2026-03-29T16:17:53.983Z</time></trkpt><trkpt lat="42.392108999135324" lon="11.817532470812882"><ele>146.0</ele><time>2026-03-29T16:17:54.983Z</time></trkpt><trkpt lat="42.39228071162769" lon="11.81783340553839"><ele>145.5</ele><time>2026-03-29T16:17:55.983Z</time></trkpt><trkpt lat="42.39245962535254" lon="11.818132759413011"><ele>145.0</ele><time>2026-03-29T16:17:56.983Z</time></trkpt><trkpt lat="42.392646370744984" lon="11.818419068701735"><ele>145.0</ele><time>2026-03-29T16:17:57.983Z</time></trkpt><trkpt lat="42.39284157960035" lon="11.818701056391813"><ele>145.0</ele><time>2026-03-29T16:17:58.983Z</time></trkpt><trkpt lat="42.3930354528325" lon="11.818989135957278"><ele>145.0</ele><time>2026-03-29T16:17:59.983Z</time></trkpt><trkpt lat="42.393228284186314" lon="11.819281949539423"><ele>145.0</ele><time>2026-03-29T16:18:00.983Z</time></trkpt><trkpt lat="42.39342615922733" lon="11.819571264198062"><ele>145.0</ele><time>2026-03-29T16:18:01.983Z</time></trkpt><trkpt lat="42.393620568581184" lon="11.819866596234208"><ele>145.0</ele><time>2026-03-29T16:18:02.983Z</time></trkpt><trkpt lat="42.39381509803324" lon="11.820167013633407"><ele>145.5</ele><time>2026-03-29T16:18:03.983Z</time></trkpt><trkpt lat="42.394002805780694" lon="11.8204605926595"><ele>146.0</ele><time>2026-03-29T16:18:04.983Z</time></trkpt><trkpt lat="42.39419160375506" lon="11.820745142906194"><ele>146.0</ele><time>2026-03-29T16:18:05.983Z</time></trkpt><trkpt lat="42.39438017445831" lon="11.821022764817595"><ele>146.0</ele><time>2026-03-29T16:18:06.983Z</time></trkpt><trkpt lat="42.39457111607614" lon="11.821310945393293"><ele>146.5</ele><time>2026-03-29T16:18:07.983Z</time></trkpt><trkpt lat="42.39475945713277" lon="11.821603706824616"><ele>147.0</ele><time>2026-03-29T16:18:08.983Z</time></trkpt><trkpt lat="42.39495008748915" lon="11.821897261987694"><ele>147.0</ele><time>2026-03-29T16:18:09.983Z</time></trkpt><trkpt lat="42.395140975244544" lon="11.822194446581573"><ele>147.0</ele><time>2026-03-29T16:18:10.983Z</time></trkpt><trkpt lat="42.39532673741802" lon="11.822484688510938"><ele>147.5</ele><time>2026-03-29T16:18:11.983Z</time></trkpt><trkpt lat="42.395506759527116" lon="11.822743955155063"><ele>148.0</ele><time>2026-03-29T16:18:12.983Z</time></trkpt><trkpt lat="42.39568280771766" lon="11.822996116670371"><ele>148.0</ele><time>2026-03-29T16:18:13.983Z</time></trkpt><trkpt lat="42.39585533879708" lon="11.823232771813414"><ele>148.0</ele><time>2026-03-29T16:18:14.983Z</time></trkpt><trkpt lat="42.396012926233496" lon="11.823464595607145"><ele>148.0</ele><time>2026-03-29T16:18:15.983Z</time></trkpt><trkpt lat="42.39615814598895" lon="11.823695489385647"><ele>148.0</ele><time>2026-03-29T16:18:16.983Z</time></trkpt><trkpt lat="42.396289433310336" lon="11.823938135335238"><ele>148.0</ele><time>2026-03-29T16:18:17.983Z</time></trkpt><trkpt lat="42.39640902628784" lon="11.824168379096026"><ele>147.66666666666669</ele><time>2026-03-29T16:18:18.983Z</time></trkpt><trkpt lat="42.39650866871292" lon="11.824404375467939"><ele>147.33333333333334</ele><time>2026-03-29T16:18:19.983Z</time></trkpt><trkpt lat="42.3965845689339" lon="11.824641618175376"><ele>147.0</ele><time>2026-03-29T16:18:20.983Z</time></trkpt><trkpt lat="42.39664381044448" lon="11.824887020210717"><ele>147.0</ele><time>2026-03-29T16:18:21.983Z</time></trkpt><trkpt lat="42.39669348283003" lon="11.825144816083869"><ele>147.0</ele><time>2026-03-29T16:18:22.983Z</time></trkpt><trkpt lat="42.39673084044892" lon="11.825388487893203"><ele>147.0</ele><time>2026-03-29T16:18:23.983Z</time></trkpt><trkpt lat="42.39675069093428" lon="11.825651520307815"><ele>147.0</ele><time>2026-03-29T16:18:24.983Z</time></trkpt><trkpt lat="42.39675616960101" lon="11.825930200892024"><ele>147.0</ele><time>2026-03-29T16:18:25.983Z</time></trkpt><trkpt lat="42.396743834150975" lon="11.826214225004788"><ele>147.0</ele><time>2026-03-29T16:18:26.983Z</time></trkpt><trkpt lat="42.39671643041762" lon="11.826503794966063"><ele>147.33333333333334</ele><time>2026-03-29T16:18:27.982Z</time></trkpt><trkpt lat="42.39667273245891" lon="11.826794011443521"><ele>147.66666666666669</ele><time>2026-03-29T16:18:28.982Z</time></trkpt><trkpt lat="42.39662142531574" lon="11.82707746879661"><ele>148.0</ele><time>2026-03-29T16:18:29.982Z</time></trkpt><trkpt lat="42.39656674433874" lon="11.827357612319274"><ele>148.33333333333334</ele><time>2026-03-29T16:18:30.982Z</time></trkpt><trkpt lat="42.39650674937176" lon="11.827634455243224"><ele>148.66666666666666</ele><time>2026-03-29T16:18:31.982Z</time></trkpt><trkpt lat="42.396443355955725" lon="11.827906372108096"><ele>149.0</ele><time>2026-03-29T16:18:32.982Z</time></trkpt><trkpt lat="42.39636216032827" lon="11.828178096712712"><ele>150.66666666666666</ele><time>2026-03-29T16:18:33.982Z</time></trkpt><trkpt lat="42.39627830085222" lon="11.828440352421628"><ele>152.33333333333334</ele><time>2026-03-29T16:18:34.982Z</time></trkpt><trkpt lat="42.39618112183624" lon="11.828699723537806"><ele>154.0</ele><time>2026-03-29T16:18:35.982Z</time></trkpt><trkpt lat="42.39608944203112" lon="11.82895209412881"><ele>154.0</ele><time>2026-03-29T16:18:36.982Z</time></trkpt><trkpt lat="42.39598531371067" lon="11.829209707161436"><ele>154.0</ele><time>2026-03-29T16:18:37.982Z</time></trkpt><trkpt lat="42.395885224870064" lon="11.829460230440132"><ele>154.0</ele><time>2026-03-29T16:18:38.982Z</time></trkpt><trkpt lat="42.395788054699885" lon="11.829705354822496"><ele>153.66666666666669</ele><time>2026-03-29T16:18:39.982Z</time></trkpt><trkpt lat="42.39567722417299" lon="11.829955792250772"><ele>153.33333333333334</ele><time>2026-03-29T16:18:40.982Z</time></trkpt><trkpt lat="42.39557035471668" lon="11.830197588121687"><ele>153.0</ele><time>2026-03-29T16:18:41.982Z</time></trkpt><trkpt lat="42.395472992784256" lon="11.830427280122686"><ele>153.0</ele><time>2026-03-29T16:18:42.982Z</time></trkpt><trkpt lat="42.39537696678396" lon="11.830649835252437"><ele>153.0</ele><time>2026-03-29T16:18:43.982Z</time></trkpt><trkpt lat="42.3952800490579" lon="11.830860594237391"><ele>153.0</ele><time>2026-03-29T16:18:44.982Z</time></trkpt><trkpt lat="42.39519860318293" lon="11.831061756957713"><ele>153.66666666666666</ele><time>2026-03-29T16:18:45.982Z</time></trkpt><trkpt lat="42.39510973218624" lon="11.831260789363077"><ele>154.33333333333331</ele><time>2026-03-29T16:18:46.982Z</time></trkpt><trkpt lat="42.39503728422192" lon="11.831444970342929"><ele>155.0</ele><time>2026-03-29T16:18:47.982Z</time></trkpt><trkpt lat="42.394959821170744" lon="11.831622965871707"><ele>155.0</ele><time>2026-03-29T16:18:48.982Z</time></trkpt><trkpt lat="42.39488994028533" lon="11.831787999774901"><ele>155.0</ele><time>2026-03-29T16:18:49.982Z</time></trkpt><trkpt lat="42.394824658570776" lon="11.831920427704398"><ele>155.0</ele><time>2026-03-29T16:18:50.982Z</time></trkpt><trkpt lat="42.39477125323429" lon="11.832022435973451"><ele>155.0</ele><time>2026-03-29T16:18:51.982Z</time></trkpt><trkpt lat="42.39473328401594" lon="11.832102064765015"><ele>155.0</ele><time>2026-03-29T16:18:52.982Z</time></trkpt><trkpt lat="42.39471391017543" lon="11.832210707018097"><ele>154.8</ele><time>2026-03-29T16:18:54.982Z</time></trkpt><trkpt lat="42.39478406245228" lon="11.832310721470565"><ele>154.6</ele><time>2026-03-29T16:19:01.982Z</time></trkpt><trkpt lat="42.39485810461616" lon="11.832358569655783"><ele>154.4</ele><time>2026-03-29T16:19:02.982Z</time></trkpt><trkpt lat="42.39496505759721" lon="11.832395133145067"><ele>154.2</ele><time>2026-03-29T16:19:03.982Z</time></trkpt><trkpt lat="42.39511080335416" lon="11.832455157465423"><ele>154.0</ele><time>2026-03-29T16:19:04.982Z</time></trkpt><trkpt lat="42.395280624059765" lon="11.832530986519417"><ele>154.0</ele><time>2026-03-29T16:19:05.982Z</time></trkpt><trkpt lat="42.39546596670489" lon="11.832608944817872"><ele>154.0</ele><time>2026-03-29T16:19:06.982Z</time></trkpt><trkpt lat="42.395678715305955" lon="11.832698932242224"><ele>154.0</ele><time>2026-03-29T16:19:07.982Z</time></trkpt><trkpt lat="42.39591832242922" lon="11.832801163775203"><ele>154.0</ele><time>2026-03-29T16:19:08.982Z</time></trkpt><trkpt lat="42.3961613086291" lon="11.832908766627696"><ele>154.0</ele><time>2026-03-29T16:19:09.982Z</time></trkpt><trkpt lat="42.39639429192928" lon="11.833004955378666"><ele>154.0</ele><time>2026-03-29T16:19:10.982Z</time></trkpt><trkpt lat="42.39660848024617" lon="11.833089644353224"><ele>154.0</ele><time>2026-03-29T16:19:11.982Z</time></trkpt><trkpt lat="42.396811806324266" lon="11.833175017365786"><ele>154.0</ele><time>2026-03-29T16:19:12.982Z</time></trkpt><trkpt lat="42.397012291803854" lon="11.833266123079031"><ele>154.33333333333334</ele><time>2026-03-29T16:19:13.982Z</time></trkpt><trkpt lat="42.39720570055114" lon="11.833370205274663"><ele>154.66666666666666</ele><time>2026-03-29T16:19:14.982Z</time></trkpt><trkpt lat="42.39739771005482" lon="11.83346731735422"><ele>155.0</ele><time>2026-03-29T16:19:15.982Z</time></trkpt><trkpt lat="42.397586516240864" lon="11.833577500451616"><ele>155.0</ele><time>2026-03-29T16:19:16.982Z</time></trkpt><trkpt lat="42.397779447631684" lon="11.833692999352733"><ele>155.0</ele><time>2026-03-29T16:19:17.982Z</time></trkpt><trkpt lat="42.39796929197524" lon="11.833805875333857"><ele>155.0</ele><time>2026-03-29T16:19:18.982Z</time></trkpt><trkpt lat="42.39815492056975" lon="11.833927509763802"><ele>156.0</ele><time>2026-03-29T16:19:19.982Z</time></trkpt><trkpt lat="42.39834084847178" lon="11.834046002640164"><ele>157.0</ele><time>2026-03-29T16:19:20.982Z</time></trkpt><trkpt lat="42.39852647826454" lon="11.834170078018975"><ele>158.0</ele><time>2026-03-29T16:19:21.982Z</time></trkpt><trkpt lat="42.398710570160866" lon="11.834314314122832"><ele>158.0</ele><time>2026-03-29T16:19:22.982Z</time></trkpt><trkpt lat="42.398892148031216" lon="11.83444759463242"><ele>158.0</ele><time>2026-03-29T16:19:23.982Z</time></trkpt><trkpt lat="42.39906155125101" lon="11.834597584232734"><ele>158.0</ele><time>2026-03-29T16:19:24.982Z</time></trkpt><trkpt lat="42.399224817156004" lon="11.83475994347866"><ele>158.0</ele><time>2026-03-29T16:19:25.982Z</time></trkpt><trkpt lat="42.39938426618421" lon="11.834927912122248"><ele>158.0</ele><time>2026-03-29T16:19:26.982Z</time></trkpt><trkpt lat="42.39953542977067" lon="11.835150789179979"><ele>158.0</ele><time>2026-03-29T16:19:27.982Z</time></trkpt><trkpt lat="42.39968419303164" lon="11.835372923648288"><ele>158.0</ele><time>2026-03-29T16:19:28.982Z</time></trkpt><trkpt lat="42.39984220302493" lon="11.835575758502815"><ele>158.0</ele><time>2026-03-29T16:19:29.981Z</time></trkpt><trkpt lat="42.39999105815593" lon="11.835800918483478"><ele>158.0</ele><time>2026-03-29T16:19:30.981Z</time></trkpt><trkpt lat="42.400141390213626" lon="11.836001418791778"><ele>158.0</ele><time>2026-03-29T16:19:31.981Z</time></trkpt><trkpt lat="42.400292088358036" lon="11.836202224087678"><ele>158.0</ele><time>2026-03-29T16:19:32.981Z</time></trkpt><trkpt lat="42.40043827153938" lon="11.836408344551943"><ele>158.0</ele><time>2026-03-29T16:19:33.981Z</time></trkpt><trkpt lat="42.400589245356215" lon="11.836614148396054"><ele>157.33333333333331</ele><time>2026-03-29T16:19:34.981Z</time></trkpt><trkpt lat="42.40073813260426" lon="11.836817447525874"><ele>156.66666666666666</ele><time>2026-03-29T16:19:35.981Z</time></trkpt><trkpt lat="42.400882462039725" lon="11.837023397715587"><ele>156.0</ele><time>2026-03-29T16:19:36.981Z</time></trkpt><trkpt lat="42.40101887793472" lon="11.837233049628402"><ele>156.0</ele><time>2026-03-29T16:19:37.981Z</time></trkpt><trkpt lat="42.401152064607516" lon="11.837450629092851"><ele>156.0</ele><time>2026-03-29T16:19:38.981Z</time></trkpt><trkpt lat="42.401292938616656" lon="11.837654364744493"><ele>156.0</ele><time>2026-03-29T16:19:39.981Z</time></trkpt><trkpt lat="42.40142380767192" lon="11.837875397673725"><ele>156.33333333333334</ele><time>2026-03-29T16:19:40.981Z</time></trkpt><trkpt lat="42.401561621132004" lon="11.838094182871409"><ele>156.66666666666669</ele><time>2026-03-29T16:19:41.981Z</time></trkpt><trkpt lat="42.401693276774424" lon="11.838310186405032"><ele>157.0</ele><time>2026-03-29T16:19:42.981Z</time></trkpt><trkpt lat="42.40182433538795" lon="11.838522991542101"><ele>157.0</ele><time>2026-03-29T16:19:43.981Z</time></trkpt><trkpt lat="42.40196181187079" lon="11.838738134685332"><ele>157.0</ele><time>2026-03-29T16:19:44.983Z</time></trkpt><trkpt lat="42.40210580707674" lon="11.838946072947344"><ele>157.0</ele><time>2026-03-29T16:19:45.984Z</time></trkpt><trkpt lat="42.40224985194303" lon="11.839152364947848"><ele>159.33333333333334</ele><time>2026-03-29T16:19:46.984Z</time></trkpt><trkpt lat="42.40240165028911" lon="11.83935277157894"><ele>161.66666666666666</ele><time>2026-03-29T16:19:47.984Z</time></trkpt><trkpt lat="42.40256026985075" lon="11.839543810252716"><ele>164.0</ele><time>2026-03-29T16:19:48.984Z</time></trkpt><trkpt lat="42.40271746539167" lon="11.839736652309433"><ele>164.0</ele><time>2026-03-29T16:19:49.984Z</time></trkpt><trkpt lat="42.40287849921603" lon="11.839916622854332"><ele>164.0</ele><time>2026-03-29T16:19:50.984Z</time></trkpt><trkpt lat="42.40304331206019" lon="11.840090506680127"><ele>164.0</ele><time>2026-03-29T16:19:51.983Z</time></trkpt><trkpt lat="42.40320695886071" lon="11.840277337347585"><ele>164.0</ele><time>2026-03-29T16:19:52.983Z</time></trkpt><trkpt lat="42.40337110090545" lon="11.8404496100728"><ele>164.0</ele><time>2026-03-29T16:19:53.983Z</time></trkpt><trkpt lat="42.40354396183158" lon="11.840606065603845"><ele>164.0</ele><time>2026-03-29T16:19:54.983Z</time></trkpt><trkpt lat="42.403707809647884" lon="11.840777226603288"><ele>164.33333333333331</ele><time>2026-03-29T16:19:55.983Z</time></trkpt><trkpt lat="42.40389400463759" lon="11.840913466279655"><ele>164.66666666666666</ele><time>2026-03-29T16:19:56.984Z</time></trkpt><trkpt lat="42.40406685112689" lon="11.841101477919809"><ele>165.0</ele><time>2026-03-29T16:19:57.983Z</time></trkpt><trkpt lat="42.404243935953524" lon="11.841263011497224"><ele>165.33333333333334</ele><time>2026-03-29T16:19:58.983Z</time></trkpt><trkpt lat="42.4044238907858" lon="11.841420178424707"><ele>165.66666666666669</ele><time>2026-03-29T16:19:59.983Z</time></trkpt><trkpt lat="42.40459851577545" lon="11.841582093018438"><ele>166.0</ele><time>2026-03-29T16:20:00.983Z</time></trkpt><trkpt lat="42.40476767962913" lon="11.841745439027346"><ele>167.0</ele><time>2026-03-29T16:20:01.983Z</time></trkpt><trkpt lat="42.40493889542639" lon="11.841910499781688"><ele>168.0</ele><time>2026-03-29T16:20:02.983Z</time></trkpt><trkpt lat="42.405108813644596" lon="11.8420870167365"><ele>169.0</ele><time>2026-03-29T16:20:03.983Z</time></trkpt><trkpt lat="42.40526783618828" lon="11.84227018273407"><ele>169.0</ele><time>2026-03-29T16:20:04.983Z</time></trkpt><trkpt lat="42.40541618173738" lon="11.842450816985195"><ele>169.0</ele><time>2026-03-29T16:20:05.983Z</time></trkpt><trkpt lat="42.405562820725414" lon="11.842647997827353"><ele>169.0</ele><time>2026-03-29T16:20:06.983Z</time></trkpt><trkpt lat="42.4056794425687" lon="11.842863280847965"><ele>169.33333333333334</ele><time>2026-03-29T16:20:07.983Z</time></trkpt><trkpt lat="42.40579806837635" lon="11.84309102921549"><ele>169.66666666666666</ele><time>2026-03-29T16:20:08.983Z</time></trkpt><trkpt lat="42.40590797207503" lon="11.843322901193917"><ele>170.0</ele><time>2026-03-29T16:20:09.983Z</time></trkpt><trkpt lat="42.40600971272436" lon="11.843567713527202"><ele>170.0</ele><time>2026-03-29T16:20:10.983Z</time></trkpt><trkpt lat="42.406111856312805" lon="11.843803965868206"><ele>170.0</ele><time>2026-03-29T16:20:11.983Z</time></trkpt><trkpt lat="42.40620521833608" lon="11.84406343456737"><ele>170.0</ele><time>2026-03-29T16:20:12.983Z</time></trkpt><trkpt lat="42.4063146364367" lon="11.844301387254001"><ele>170.33333333333331</ele><time>2026-03-29T16:20:13.983Z</time></trkpt><trkpt lat="42.40641085501827" lon="11.844559256006834"><ele>170.66666666666666</ele><time>2026-03-29T16:20:14.983Z</time></trkpt><trkpt lat="42.40650856652844" lon="11.844808316950763"><ele>171.0</ele><time>2026-03-29T16:20:15.983Z</time></trkpt><trkpt lat="42.40660832965758" lon="11.845051881447915"><ele>171.0</ele><time>2026-03-29T16:20:16.983Z</time></trkpt><trkpt lat="42.40671579726296" lon="11.845286608078824"><ele>171.0</ele><time>2026-03-29T16:20:17.983Z</time></trkpt><trkpt lat="42.406838402513955" lon="11.845508525259392"><ele>171.0</ele><time>2026-03-29T16:20:18.983Z</time></trkpt><trkpt lat="42.406980432311215" lon="11.845711975980576"><ele>171.0</ele><time>2026-03-29T16:20:19.983Z</time></trkpt><trkpt lat="42.40713497736187" lon="11.845897806363247"><ele>171.0</ele><time>2026-03-29T16:20:20.983Z</time></trkpt><trkpt lat="42.40731183567023" lon="11.8460552793331"><ele>171.0</ele><time>2026-03-29T16:20:21.983Z</time></trkpt><trkpt lat="42.407488955224395" lon="11.8462151000306"><ele>171.66666666666666</ele><time>2026-03-29T16:20:22.983Z</time></trkpt><trkpt lat="42.40765250480266" lon="11.84636435376205"><ele>172.33333333333331</ele><time>2026-03-29T16:20:23.983Z</time></trkpt><trkpt lat="42.40780006808798" lon="11.846507107504047"><ele>173.0</ele><time>2026-03-29T16:20:24.983Z</time></trkpt><trkpt lat="42.407935790354074" lon="11.846638445075412"><ele>173.33333333333331</ele><time>2026-03-29T16:20:25.983Z</time></trkpt><trkpt lat="42.40806282718634" lon="11.84676366244764"><ele>173.66666666666666</ele><time>2026-03-29T16:20:26.983Z</time></trkpt><trkpt lat="42.40819428238175" lon="11.846881381302435"><ele>174.0</ele><time>2026-03-29T16:20:27.983Z</time></trkpt><trkpt lat="42.40833144488644" lon="11.847004167802865"><ele>174.0</ele><time>2026-03-29T16:20:28.983Z</time></trkpt><trkpt lat="42.40847361459759" lon="11.847136566783561"><ele>174.0</ele><time>2026-03-29T16:20:29.983Z</time></trkpt><trkpt lat="42.40861339524126" lon="11.847267762720055"><ele>174.0</ele><time>2026-03-29T16:20:30.983Z</time></trkpt><trkpt lat="42.40875005403268" lon="11.847391535337929"><ele>174.0</ele><time>2026-03-29T16:20:31.982Z</time></trkpt><trkpt lat="42.408887823459054" lon="11.847516349404737"><ele>174.0</ele><time>2026-03-29T16:20:32.982Z</time></trkpt><trkpt lat="42.40902304608347" lon="11.847641316418168"><ele>174.0</ele><time>2026-03-29T16:20:33.982Z</time></trkpt><trkpt lat="42.40916368504578" lon="11.847769101740383"><ele>174.0</ele><time>2026-03-29T16:20:34.982Z</time></trkpt><trkpt lat="42.40931771359664" lon="11.847895004688288"><ele>174.0</ele><time>2026-03-29T16:20:35.982Z</time></trkpt><trkpt lat="42.40948536902445" lon="11.848034481270822"><ele>174.0</ele><time>2026-03-29T16:20:36.982Z</time></trkpt><trkpt lat="42.40966304693444" lon="11.84818277898509"><ele>174.0</ele><time>2026-03-29T16:20:37.982Z</time></trkpt><trkpt lat="42.40982790707165" lon="11.84835642573159"><ele>174.0</ele><time>2026-03-29T16:20:38.982Z</time></trkpt><trkpt lat="42.40999416936885" lon="11.84852187559293"><ele>174.0</ele><time>2026-03-29T16:20:39.982Z</time></trkpt><trkpt lat="42.410165144427786" lon="11.848675416623346"><ele>174.33333333333334</ele><time>2026-03-29T16:20:40.982Z</time></trkpt><trkpt lat="42.41033415121487" lon="11.848831519248666"><ele>174.66666666666669</ele><time>2026-03-29T16:20:41.982Z</time></trkpt><trkpt lat="42.41050058951061" lon="11.848987880928153"><ele>175.0</ele><time>2026-03-29T16:20:42.982Z</time></trkpt><trkpt lat="42.41066662682471" lon="11.849145346687294"><ele>175.33333333333334</ele><time>2026-03-29T16:20:43.982Z</time></trkpt><trkpt lat="42.41081715946704" lon="11.849301720195063"><ele>175.66666666666666</ele><time>2026-03-29T16:20:44.982Z</time></trkpt><trkpt lat="42.410962992609626" lon="11.849463743083646"><ele>176.0</ele><time>2026-03-29T16:20:45.982Z</time></trkpt><trkpt lat="42.41110000359483" lon="11.849628230083177"><ele>176.0</ele><time>2026-03-29T16:20:46.982Z</time></trkpt><trkpt lat="42.41123490301139" lon="11.84979889798837"><ele>176.0</ele><time>2026-03-29T16:20:47.982Z</time></trkpt><trkpt lat="42.411358042962995" lon="11.849955259958634"><ele>176.0</ele><time>2026-03-29T16:20:48.982Z</time></trkpt><trkpt lat="42.41148515208213" lon="11.850102121761562"><ele>176.0</ele><time>2026-03-29T16:20:49.982Z</time></trkpt><trkpt lat="42.41160679929296" lon="11.850246571865659"><ele>176.0</ele><time>2026-03-29T16:20:50.982Z</time></trkpt><trkpt lat="42.411729862601334" lon="11.850385108495521"><ele>176.0</ele><time>2026-03-29T16:20:51.982Z</time></trkpt><trkpt lat="42.41185338483468" lon="11.850533854334989"><ele>176.0</ele><time>2026-03-29T16:20:52.982Z</time></trkpt><trkpt lat="42.411970473762494" lon="11.850672223998691"><ele>176.0</ele><time>2026-03-29T16:20:53.982Z</time></trkpt><trkpt lat="42.41209164970053" lon="11.850808164111752"><ele>176.0</ele><time>2026-03-29T16:20:54.982Z</time></trkpt><trkpt lat="42.41220783468928" lon="11.850946678730924"><ele>175.33333333333331</ele><time>2026-03-29T16:20:55.982Z</time></trkpt><trkpt lat="42.41232542289272" lon="11.851089465831587"><ele>174.66666666666666</ele><time>2026-03-29T16:20:56.982Z</time></trkpt><trkpt lat="42.41244825753418" lon="11.851230293162072"><ele>174.0</ele><time>2026-03-29T16:20:57.982Z</time></trkpt><trkpt lat="42.41257101204402" lon="11.851377538658236"><ele>174.0</ele><time>2026-03-29T16:20:58.982Z</time></trkpt><trkpt lat="42.41269183330308" lon="11.851524060922753"><ele>174.0</ele><time>2026-03-29T16:20:59.982Z</time></trkpt><trkpt lat="42.41280893191676" lon="11.851674921769796"><ele>174.0</ele><time>2026-03-29T16:21:00.982Z</time></trkpt><trkpt lat="42.412927814139245" lon="11.85181401797331"><ele>174.33333333333334</ele><time>2026-03-29T16:21:01.982Z</time></trkpt><trkpt lat="42.413054339187916" lon="11.851953277698737"><ele>174.66666666666669</ele><time>2026-03-29T16:21:02.982Z</time></trkpt><trkpt lat="42.41317232765446" lon="11.852095972518294"><ele>175.0</ele><time>2026-03-29T16:21:03.982Z</time></trkpt><trkpt lat="42.41328984150933" lon="11.852246319558088"><ele>175.0</ele><time>2026-03-29T16:21:04.982Z</time></trkpt><trkpt lat="42.41340994849921" lon="11.852385176441018"><ele>175.0</ele><time>2026-03-29T16:21:05.982Z</time></trkpt><trkpt lat="42.413530250337566" lon="11.852525633281479"><ele>175.0</ele><time>2026-03-29T16:21:06.982Z</time></trkpt><trkpt lat="42.41365094811935" lon="11.85267331673626"><ele>175.33333333333334</ele><time>2026-03-29T16:21:07.982Z</time></trkpt><trkpt lat="42.41376835264973" lon="11.852817370143107"><ele>175.66666666666666</ele><time>2026-03-29T16:21:08.982Z</time></trkpt><trkpt lat="42.41388765239002" lon="11.852957005648191"><ele>176.0</ele><time>2026-03-29T16:21:09.982Z</time></trkpt><trkpt lat="42.41400441883725" lon="11.853101376276982"><ele>176.0</ele><time>2026-03-29T16:21:10.982Z</time></trkpt><trkpt lat="42.414123722460666" lon="11.853245473910247"><ele>176.0</ele><time>2026-03-29T16:21:11.982Z</time></trkpt><trkpt lat="42.414240472751395" lon="11.853391051634533"><ele>176.0</ele><time>2026-03-29T16:21:12.982Z</time></trkpt><trkpt lat="42.4143584313426" lon="11.853533980336191"><ele>176.0</ele><time>2026-03-29T16:21:13.982Z</time></trkpt><trkpt lat="42.41448103767549" lon="11.853673482701177"><ele>176.0</ele><time>2026-03-29T16:21:14.982Z</time></trkpt><trkpt lat="42.414605070652605" lon="11.85381558903268"><ele>176.0</ele><time>2026-03-29T16:21:15.982Z</time></trkpt><trkpt lat="42.41472802161798" lon="11.853953040702857"><ele>176.33333333333331</ele><time>2026-03-29T16:21:16.982Z</time></trkpt><trkpt lat="42.41484777308811" lon="11.8540945863952"><ele>176.66666666666666</ele><time>2026-03-29T16:21:17.982Z</time></trkpt><trkpt lat="42.41496887998524" lon="11.854238713466087"><ele>177.0</ele><time>2026-03-29T16:21:18.982Z</time></trkpt><trkpt lat="42.41509044695294" lon="11.854384084433006"><ele>177.33333333333334</ele><time>2026-03-29T16:21:19.982Z</time></trkpt><trkpt lat="42.415214251926784" lon="11.854525509914716"><ele>177.66666666666669</ele><time>2026-03-29T16:21:20.982Z</time></trkpt><trkpt lat="42.41533158879982" lon="11.854670017200768"><ele>178.0</ele><time>2026-03-29T16:21:21.982Z</time></trkpt><trkpt lat="42.41545230115098" lon="11.854812021061917"><ele>178.0</ele><time>2026-03-29T16:21:22.982Z</time></trkpt><trkpt lat="42.41557424595669" lon="11.854956128593317"><ele>178.0</ele><time>2026-03-29T16:21:23.982Z</time></trkpt><trkpt lat="42.4156954954249" lon="11.85509538586301"><ele>178.0</ele><time>2026-03-29T16:21:24.982Z</time></trkpt><trkpt lat="42.41580949093769" lon="11.855228942547676"><ele>178.0</ele><time>2026-03-29T16:21:25.982Z</time></trkpt><trkpt lat="42.415915781140015" lon="11.855365617340732"><ele>178.0</ele><time>2026-03-29T16:21:26.982Z</time></trkpt><trkpt lat="42.41601866881477" lon="11.85550339428395"><ele>178.0</ele><time>2026-03-29T16:21:27.982Z</time></trkpt><trkpt lat="42.416100874969196" lon="11.855657969515052"><ele>178.0</ele><time>2026-03-29T16:21:28.982Z</time></trkpt><trkpt lat="42.41616961484234" lon="11.85582839055218"><ele>177.0</ele><time>2026-03-29T16:21:29.982Z</time></trkpt><trkpt lat="42.41622218177822" lon="11.856002001577137"><ele>176.0</ele><time>2026-03-29T16:21:30.982Z</time></trkpt><trkpt lat="42.41624301999621" lon="11.856188739350836"><ele>175.0</ele><time>2026-03-29T16:21:31.982Z</time></trkpt><trkpt lat="42.416249181134965" lon="11.856363571961007"><ele>174.0</ele><time>2026-03-29T16:21:32.982Z</time></trkpt><trkpt lat="42.416235588138946" lon="11.85653094774731"><ele>174.0</ele><time>2026-03-29T16:21:33.981Z</time></trkpt><trkpt lat="42.4162263318424" lon="11.856703450354328"><ele>174.0</ele><time>2026-03-29T16:21:34.981Z</time></trkpt><trkpt lat="42.416223362377785" lon="11.856868747204189"><ele>174.0</ele><time>2026-03-29T16:21:35.981Z</time></trkpt><trkpt lat="42.41622463217336" lon="11.857041206113834"><ele>174.0</ele><time>2026-03-29T16:21:36.981Z</time></trkpt><trkpt lat="42.41623374003398" lon="11.857221672030521"><ele>174.0</ele><time>2026-03-29T16:21:37.981Z</time></trkpt><trkpt lat="42.416261192407084" lon="11.857396318199314"><ele>174.0</ele><time>2026-03-29T16:21:38.981Z</time></trkpt><trkpt lat="42.416291422964534" lon="11.857571489485649"><ele>174.0</ele><time>2026-03-29T16:21:39.981Z</time></trkpt><trkpt lat="42.41632209377053" lon="11.857752159780807"><ele>174.0</ele><time>2026-03-29T16:21:40.981Z</time></trkpt><trkpt lat="42.41634682845007" lon="11.857932992319018"><ele>174.0</ele><time>2026-03-29T16:21:41.981Z</time></trkpt><trkpt lat="42.4163738597362" lon="11.858120423668545"><ele>174.0</ele><time>2026-03-29T16:21:42.981Z</time></trkpt><trkpt lat="42.41640279084453" lon="11.858298938907271"><ele>174.0</ele><time>2026-03-29T16:21:43.981Z</time></trkpt><trkpt lat="42.41642767755346" lon="11.858481047918824"><ele>174.0</ele><time>2026-03-29T16:21:44.981Z</time></trkpt><trkpt lat="42.416453484159405" lon="11.858662855938089"><ele>174.5</ele><time>2026-03-29T16:21:45.981Z</time></trkpt><trkpt lat="42.416487552649976" lon="11.858844168359692"><ele>175.0</ele><time>2026-03-29T16:21:46.981Z</time></trkpt><trkpt lat="42.416516713770314" lon="11.8590204051922"><ele>175.5</ele><time>2026-03-29T16:21:47.981Z</time></trkpt><trkpt lat="42.41655169431027" lon="11.859199565969167"><ele>176.0</ele><time>2026-03-29T16:21:48.981Z</time></trkpt><trkpt lat="42.416577652431044" lon="11.859382804802765"><ele>176.5</ele><time>2026-03-29T16:21:49.981Z</time></trkpt><trkpt lat="42.41660949105148" lon="11.85956563324449"><ele>177.0</ele><time>2026-03-29T16:21:50.983Z</time></trkpt><trkpt lat="42.41665011892273" lon="11.859746204863821"><ele>177.5</ele><time>2026-03-29T16:21:51.983Z</time></trkpt><trkpt lat="42.416677600315246" lon="11.859929537067506"><ele>178.0</ele><time>2026-03-29T16:21:52.983Z</time></trkpt><trkpt lat="42.416679194290396" lon="11.860114722176498"><ele>178.5</ele><time>2026-03-29T16:21:53.983Z</time></trkpt><trkpt lat="42.41670910791139" lon="11.860299745529431"><ele>179.0</ele><time>2026-03-29T16:21:54.983Z</time></trkpt><trkpt lat="42.41674406100271" lon="11.860479941099289"><ele>179.5</ele><time>2026-03-29T16:21:55.983Z</time></trkpt><trkpt lat="42.41678221819407" lon="11.860666587270298"><ele>180.0</ele><time>2026-03-29T16:21:56.983Z</time></trkpt><trkpt lat="42.41682275210626" lon="11.860847612787484"><ele>180.5</ele><time>2026-03-29T16:21:57.983Z</time></trkpt><trkpt lat="42.416873635709784" lon="11.86102400121302"><ele>181.0</ele><time>2026-03-29T16:21:58.983Z</time></trkpt><trkpt lat="42.416923528631145" lon="11.861201406087442"><ele>181.5</ele><time>2026-03-29T16:21:59.984Z</time></trkpt><trkpt lat="42.416976109760796" lon="11.861375964899217"><ele>182.0</ele><time>2026-03-29T16:22:00.983Z</time></trkpt><trkpt lat="42.41702966197407" lon="11.861550351805182"><ele>182.0</ele><time>2026-03-29T16:22:01.983Z</time></trkpt><trkpt lat="42.41708454428653" lon="11.861725539907994"><ele>182.0</ele><time>2026-03-29T16:22:02.983Z</time></trkpt><trkpt lat="42.417139974276786" lon="11.861896292417828"><ele>182.0</ele><time>2026-03-29T16:22:03.983Z</time></trkpt><trkpt lat="42.41719790587451" lon="11.862066641278364"><ele>182.0</ele><time>2026-03-29T16:22:04.983Z</time></trkpt><trkpt lat="42.41725630905477" lon="11.862244290065712"><ele>182.75</ele><time>2026-03-29T16:22:05.983Z</time></trkpt><trkpt lat="42.41730937600693" lon="11.862413163201756"><ele>183.5</ele><time>2026-03-29T16:22:06.983Z</time></trkpt><trkpt lat="42.41736437929749" lon="11.862588291635273"><ele>184.25</ele><time>2026-03-29T16:22:07.983Z</time></trkpt><trkpt lat="42.417413787093544" lon="11.86276443679182"><ele>185.0</ele><time>2026-03-29T16:22:08.983Z</time></trkpt><trkpt lat="42.41745399448194" lon="11.862940061170143"><ele>185.25</ele><time>2026-03-29T16:22:09.983Z</time></trkpt><trkpt lat="42.41748472817862" lon="11.863116708137381"><ele>185.5</ele><time>2026-03-29T16:22:10.983Z</time></trkpt><trkpt lat="42.41751790358816" lon="11.863291198222807"><ele>185.75</ele><time>2026-03-29T16:22:11.983Z</time></trkpt><trkpt lat="42.4175548907442" lon="11.863462146358692"><ele>186.0</ele><time>2026-03-29T16:22:12.983Z</time></trkpt><trkpt lat="42.417597327582214" lon="11.863639017073769"><ele>186.0</ele><time>2026-03-29T16:22:13.983Z</time></trkpt><trkpt lat="42.41763247042766" lon="11.863812805043262"><ele>186.0</ele><time>2026-03-29T16:22:14.983Z</time></trkpt><trkpt lat="42.417670308104654" lon="11.86397743336351"><ele>186.0</ele><time>2026-03-29T16:22:15.983Z</time></trkpt><trkpt lat="42.417704533599206" lon="11.864141612595088"><ele>186.0</ele><time>2026-03-29T16:22:16.983Z</time></trkpt><trkpt lat="42.41771575251412" lon="11.864305653542463"><ele>186.0</ele><time>2026-03-29T16:22:17.983Z</time></trkpt><trkpt lat="42.417755934620345" lon="11.86446099899038"><ele>186.0</ele><time>2026-03-29T16:22:18.983Z</time></trkpt><trkpt lat="42.41778133257858" lon="11.864614222834746"><ele>186.0</ele><time>2026-03-29T16:22:19.983Z</time></trkpt><trkpt lat="42.417809176028264" lon="11.864769962866902"><ele>186.0</ele><time>2026-03-29T16:22:20.983Z</time></trkpt><trkpt lat="42.41784019376528" lon="11.864924694844326"><ele>186.0</ele><time>2026-03-29T16:22:21.983Z</time></trkpt><trkpt lat="42.41787079789784" lon="11.865076117702936"><ele>186.0</ele><time>2026-03-29T16:22:22.983Z</time></trkpt><trkpt lat="42.417887582806216" lon="11.865235974999749"><ele>186.0</ele><time>2026-03-29T16:22:23.983Z</time></trkpt><trkpt lat="42.41791915760036" lon="11.865398443476252"><ele>186.0</ele><time>2026-03-29T16:22:24.983Z</time></trkpt><trkpt lat="42.41792364038808" lon="11.86558168431733"><ele>186.25</ele><time>2026-03-29T16:22:25.983Z</time></trkpt><trkpt lat="42.41795424177881" lon="11.865777698604381"><ele>186.5</ele><time>2026-03-29T16:22:26.983Z</time></trkpt><trkpt lat="42.417988731546274" lon="11.865967376778679"><ele>186.75</ele><time>2026-03-29T16:22:27.983Z</time></trkpt><trkpt lat="42.41802035429792" lon="11.866141547669603"><ele>187.0</ele><time>2026-03-29T16:22:28.983Z</time></trkpt><trkpt lat="42.418050210253774" lon="11.866305987452527"><ele>187.39999999999998</ele><time>2026-03-29T16:22:29.983Z</time></trkpt><trkpt lat="42.41807818499965" lon="11.866459966837832"><ele>187.79999999999998</ele><time>2026-03-29T16:22:30.983Z</time></trkpt><trkpt lat="42.4181050527158" lon="11.86660785968158"><ele>188.2</ele><time>2026-03-29T16:22:31.983Z</time></trkpt><trkpt lat="42.418129333449365" lon="11.866746774633635"><ele>188.6</ele><time>2026-03-29T16:22:32.983Z</time></trkpt><trkpt lat="42.4181515539247" lon="11.86687980655457"><ele>189.0</ele><time>2026-03-29T16:22:33.983Z</time></trkpt><trkpt lat="42.418173867041745" lon="11.867014973430848"><ele>189.0</ele><time>2026-03-29T16:22:34.983Z</time></trkpt><trkpt lat="42.418195531936725" lon="11.867146213469871"><ele>189.0</ele><time>2026-03-29T16:22:35.983Z</time></trkpt><trkpt lat="42.41821939234286" lon="11.867286074466902"><ele>189.0</ele><time>2026-03-29T16:22:36.983Z</time></trkpt><trkpt lat="42.418245094871295" lon="11.867440289524794"><ele>189.0</ele><time>2026-03-29T16:22:37.983Z</time></trkpt><trkpt lat="42.41827210157765" lon="11.867601249745697"><ele>189.0</ele><time>2026-03-29T16:22:38.983Z</time></trkpt><trkpt lat="42.41830387526608" lon="11.867764247562928"><ele>189.0</ele><time>2026-03-29T16:22:39.983Z</time></trkpt><trkpt lat="42.418341364183064" lon="11.867927576370583"><ele>189.0</ele><time>2026-03-29T16:22:40.983Z</time></trkpt><trkpt lat="42.41839159507936" lon="11.868092389333917"><ele>189.0</ele><time>2026-03-29T16:22:41.983Z</time></trkpt><trkpt lat="42.41843851836677" lon="11.868242822374231"><ele>189.0</ele><time>2026-03-29T16:22:42.983Z</time></trkpt><trkpt lat="42.41847401369644" lon="11.868401699594283"><ele>188.6</ele><time>2026-03-29T16:22:43.983Z</time></trkpt><trkpt lat="42.41853000086887" lon="11.868553265519203"><ele>188.2</ele><time>2026-03-29T16:22:44.983Z</time></trkpt><trkpt lat="42.418532928051896" lon="11.868701590966756"><ele>187.79999999999998</ele><time>2026-03-29T16:22:45.983Z</time></trkpt><trkpt lat="42.4185366205818" lon="11.868848914977368"><ele>187.39999999999998</ele><time>2026-03-29T16:22:46.983Z</time></trkpt><trkpt lat="42.41854485706375" lon="11.868982051416468"><ele>187.0</ele><time>2026-03-29T16:22:47.983Z</time></trkpt><trkpt lat="42.41848066124035" lon="11.869099501973084"><ele>187.0</ele><time>2026-03-29T16:22:48.983Z</time></trkpt><trkpt lat="42.41847822299772" lon="11.869196880928614"><ele>187.0</ele><time>2026-03-29T16:22:49.983Z</time></trkpt><trkpt lat="42.41849124521794" lon="11.869295770122944"><ele>187.0</ele><time>2026-03-29T16:22:50.983Z</time></trkpt><trkpt lat="42.41848894295454" lon="11.86939431610763"><ele>187.0</ele><time>2026-03-29T16:22:51.983Z</time></trkpt><trkpt lat="42.41845867088389" lon="11.869481100941547"><ele>187.0</ele><time>2026-03-29T16:22:52.983Z</time></trkpt><trkpt lat="42.41845766871633" lon="11.86956672011061"><ele>187.0</ele><time>2026-03-29T16:22:53.983Z</time></trkpt><trkpt lat="42.41844737677554" lon="11.869667128472416"><ele>187.0</ele><time>2026-03-29T16:22:54.983Z</time></trkpt><trkpt lat="42.41843718014771" lon="11.869771122599925"><ele>186.0</ele><time>2026-03-29T16:22:55.983Z</time></trkpt><trkpt lat="42.418437703281455" lon="11.869863648735242"><ele>185.0</ele><time>2026-03-29T16:22:56.983Z</time></trkpt><trkpt lat="42.41843086508052" lon="11.869953086385214"><ele>184.0</ele><time>2026-03-29T16:22:57.983Z</time></trkpt><trkpt lat="42.418424686389" lon="11.870101224854588"><ele>183.0</ele><time>2026-03-29T16:22:59.983Z</time></trkpt><trkpt lat="42.41843556339422" lon="11.870207037978977"><ele>182.0</ele><time>2026-03-29T16:23:02.982Z</time></trkpt><trkpt lat="42.4184282245522" lon="11.870301137047143"><ele>181.0</ele><time>2026-03-29T16:23:04.977Z</time></trkpt><trkpt lat="42.41841542336564" lon="11.87040646532166"><ele>180.8</ele><time>2026-03-29T16:23:06.973Z</time></trkpt><trkpt lat="42.41842862871153" lon="11.870548724921248"><ele>180.60000000000002</ele><time>2026-03-29T16:23:08.969Z</time></trkpt><trkpt lat="42.41850492621631" lon="11.870654102625764"><ele>180.4</ele><time>2026-03-29T16:23:10.965Z</time></trkpt><trkpt lat="42.41860551789115" lon="11.870713159978846"><ele>180.2</ele><time>2026-03-29T16:23:12.962Z</time></trkpt><trkpt lat="42.418694871373205" lon="11.870801387203878"><ele>180.0</ele><time>2026-03-29T16:23:14.959Z</time></trkpt><trkpt lat="42.41880550152779" lon="11.87088764398329"><ele>179.83333333333334</ele><time>2026-03-29T16:23:16.957Z</time></trkpt><trkpt lat="42.41886839968717" lon="11.870940070706814"><ele>179.66666666666666</ele><time>2026-03-29T16:23:17.955Z</time></trkpt><trkpt lat="42.41892939690012" lon="11.87102575089866"><ele>179.5</ele><time>2026-03-29T16:23:18.954Z</time></trkpt><trkpt lat="42.41900589553897" lon="11.871076757867119"><ele>179.33333333333331</ele><time>2026-03-29T16:23:19.953Z</time></trkpt><trkpt lat="42.419075758945745" lon="11.871123340662605"><ele>179.16666666666666</ele><time>2026-03-29T16:23:20.952Z</time></trkpt><trkpt lat="42.419149792908286" lon="11.871146422059983"><ele>179.0</ele><time>2026-03-29T16:23:21.952Z</time></trkpt><trkpt lat="42.41920107096729" lon="11.871209376935488"><ele>179.33333333333331</ele><time>2026-03-29T16:23:22.951Z</time></trkpt><trkpt lat="42.419265189505595" lon="11.871240419483604"><ele>179.66666666666666</ele><time>2026-03-29T16:23:23.95Z</time></trkpt><trkpt lat="42.419333052398635" lon="11.871271031779624"><ele>180.0</ele><time>2026-03-29T16:23:24.949Z</time></trkpt><trkpt lat="42.419404373693474" lon="11.871325129799882"><ele>180.33333333333334</ele><time>2026-03-29T16:23:25.948Z</time></trkpt><trkpt lat="42.41948316584204" lon="11.871380197103532"><ele>180.66666666666669</ele><time>2026-03-29T16:23:26.948Z</time></trkpt><trkpt lat="42.41956909693892" lon="11.87143141578913"><ele>181.0</ele><time>2026-03-29T16:23:27.947Z</time></trkpt><trkpt lat="42.41965965150776" lon="11.871488190930013"><ele>181.5</ele><time>2026-03-29T16:23:28.947Z</time></trkpt><trkpt lat="42.41975827608838" lon="11.871549469522048"><ele>182.0</ele><time>2026-03-29T16:23:29.946Z</time></trkpt><trkpt lat="42.419862075351595" lon="11.871611532960632"><ele>182.5</ele><time>2026-03-29T16:23:30.946Z</time></trkpt><trkpt lat="42.41997101037451" lon="11.871677025962923"><ele>183.0</ele><time>2026-03-29T16:23:31.945Z</time></trkpt><trkpt lat="42.42007476476127" lon="11.871743929152569"><ele>183.60000000000002</ele><time>2026-03-29T16:23:32.945Z</time></trkpt><trkpt lat="42.420174201012934" lon="11.871811741849738"><ele>184.20000000000002</ele><time>2026-03-29T16:23:33.944Z</time></trkpt><trkpt lat="42.42027351965201" lon="11.871871674661351"><ele>184.8</ele><time>2026-03-29T16:23:34.944Z</time></trkpt><trkpt lat="42.42037103456175" lon="11.871935832830703"><ele>185.4</ele><time>2026-03-29T16:23:35.943Z</time></trkpt><trkpt lat="42.4204731751539" lon="11.871995547249591"><ele>186.0</ele><time>2026-03-29T16:23:36.943Z</time></trkpt><trkpt lat="42.42057555469546" lon="11.872058877313215"><ele>186.0</ele><time>2026-03-29T16:23:37.943Z</time></trkpt><trkpt lat="42.42067374881771" lon="11.872121543452868"><ele>186.0</ele><time>2026-03-29T16:23:38.942Z</time></trkpt><trkpt lat="42.420753288315886" lon="11.87218874527322"><ele>186.0</ele><time>2026-03-29T16:23:39.942Z</time></trkpt><trkpt lat="42.42084296078441" lon="11.872242000221958"><ele>186.0</ele><time>2026-03-29T16:23:40.942Z</time></trkpt><trkpt lat="42.420945775815674" lon="11.872293826309647"><ele>186.0</ele><time>2026-03-29T16:23:41.942Z</time></trkpt><trkpt lat="42.421055682413446" lon="11.872318713744338"><ele>186.0</ele><time>2026-03-29T16:23:42.941Z</time></trkpt><trkpt lat="42.42116796425879" lon="11.872376363485946"><ele>186.0</ele><time>2026-03-29T16:23:43.941Z</time></trkpt><trkpt lat="42.42128514906445" lon="11.872408905027797"><ele>186.0</ele><time>2026-03-29T16:23:44.941Z</time></trkpt><trkpt lat="42.421397148809795" lon="11.872414238101424"><ele>186.0</ele><time>2026-03-29T16:23:45.941Z</time></trkpt><trkpt lat="42.42150471052747" lon="11.87241277986794"><ele>185.75</ele><time>2026-03-29T16:23:46.941Z</time></trkpt><trkpt lat="42.42161995546462" lon="11.872417851647358"><ele>185.5</ele><time>2026-03-29T16:23:47.94Z</time></trkpt><trkpt lat="42.421738772708714" lon="11.872421195816607"><ele>185.25</ele><time>2026-03-29T16:23:48.94Z</time></trkpt><trkpt lat="42.42185561366755" lon="11.872433651871237"><ele>185.0</ele><time>2026-03-29T16:23:49.94Z</time></trkpt><trkpt lat="42.421971404172005" lon="11.872464100878606"><ele>185.0</ele><time>2026-03-29T16:23:50.94Z</time></trkpt><trkpt lat="42.42208835521726" lon="11.872501174452992"><ele>185.0</ele><time>2026-03-29T16:23:51.94Z</time></trkpt><trkpt lat="42.42220360772815" lon="11.87255442760842"><ele>185.0</ele><time>2026-03-29T16:23:52.94Z</time></trkpt><trkpt lat="42.42231964954696" lon="11.872609214909872"><ele>185.0</ele><time>2026-03-29T16:23:53.939Z</time></trkpt><trkpt lat="42.42243189056479" lon="11.872662148890173"><ele>186.25</ele><time>2026-03-29T16:23:54.939Z</time></trkpt><trkpt lat="42.42254474280924" lon="11.872727651742588"><ele>187.5</ele><time>2026-03-29T16:23:55.939Z</time></trkpt><trkpt lat="42.4226623951492" lon="11.872783537504157"><ele>188.75</ele><time>2026-03-29T16:23:56.94Z</time></trkpt><trkpt lat="42.42277029985007" lon="11.872837900594321"><ele>190.0</ele><time>2026-03-29T16:23:57.94Z</time></trkpt><trkpt lat="42.42287603759937" lon="11.872903466073234"><ele>190.0</ele><time>2026-03-29T16:23:58.94Z</time></trkpt><trkpt lat="42.42297911895204" lon="11.872957557023218"><ele>190.0</ele><time>2026-03-29T16:23:59.94Z</time></trkpt><trkpt lat="42.42308262347188" lon="11.873005414230262"><ele>190.0</ele><time>2026-03-29T16:24:00.94Z</time></trkpt><trkpt lat="42.42318664968984" lon="11.873042057938086"><ele>190.0</ele><time>2026-03-29T16:24:01.94Z</time></trkpt><trkpt lat="42.423299754842084" lon="11.873083133539332"><ele>190.0</ele><time>2026-03-29T16:24:02.94Z</time></trkpt><trkpt lat="42.42341478109552" lon="11.873111887153268"><ele>190.5</ele><time>2026-03-29T16:24:03.94Z</time></trkpt><trkpt lat="42.42352899645198" lon="11.87314370892051"><ele>191.0</ele><time>2026-03-29T16:24:04.94Z</time></trkpt><trkpt lat="42.42364802303049" lon="11.87316945774916"><ele>191.5</ele><time>2026-03-29T16:24:05.94Z</time></trkpt><trkpt lat="42.423768063615206" lon="11.873195643292608"><ele>192.0</ele><time>2026-03-29T16:24:06.94Z</time></trkpt><trkpt lat="42.423890624219716" lon="11.873220254424806"><ele>192.25</ele><time>2026-03-29T16:24:07.939Z</time></trkpt><trkpt lat="42.424013606037676" lon="11.873240481658636"><ele>192.5</ele><time>2026-03-29T16:24:08.94Z</time></trkpt><trkpt lat="42.42413431972881" lon="11.873279661467878"><ele>192.75</ele><time>2026-03-29T16:24:09.94Z</time></trkpt><trkpt lat="42.424266048120415" lon="11.873312168628571"><ele>193.0</ele><time>2026-03-29T16:24:10.94Z</time></trkpt><trkpt lat="42.42439837065665" lon="11.873341121714898"><ele>193.0</ele><time>2026-03-29T16:24:11.94Z</time></trkpt><trkpt lat="42.42452443905721" lon="11.873363749837058"><ele>193.0</ele><time>2026-03-29T16:24:12.94Z</time></trkpt><trkpt lat="42.424660047424666" lon="11.873420592150811"><ele>193.0</ele><time>2026-03-29T16:24:13.94Z</time></trkpt><trkpt lat="42.424792018426764" lon="11.873503699405942"><ele>193.0</ele><time>2026-03-29T16:24:14.939Z</time></trkpt><trkpt lat="42.4249160755446" lon="11.873616874475132"><ele>193.0</ele><time>2026-03-29T16:24:15.939Z</time></trkpt><trkpt lat="42.42504203294801" lon="11.873742494871978"><ele>193.0</ele><time>2026-03-29T16:24:16.939Z</time></trkpt><trkpt lat="42.425166354708765" lon="11.873880405781346"><ele>193.0</ele><time>2026-03-29T16:24:17.939Z</time></trkpt><trkpt lat="42.425287998348246" lon="11.874020596291462"><ele>193.0</ele><time>2026-03-29T16:24:18.939Z</time></trkpt><trkpt lat="42.42541330052085" lon="11.874164084984773"><ele>193.0</ele><time>2026-03-29T16:24:19.939Z</time></trkpt><trkpt lat="42.42553877234687" lon="11.874302176808024"><ele>193.0</ele><time>2026-03-29T16:24:20.939Z</time></trkpt><trkpt lat="42.42565987671689" lon="11.874438469219617"><ele>194.0</ele><time>2026-03-29T16:24:21.939Z</time></trkpt><trkpt lat="42.42578376973954" lon="11.874575497426116"><ele>195.0</ele><time>2026-03-29T16:24:22.939Z</time></trkpt><trkpt lat="42.42590673583344" lon="11.874720114332778"><ele>196.0</ele><time>2026-03-29T16:24:23.939Z</time></trkpt><trkpt lat="42.426030662493005" lon="11.874866967263749"><ele>196.0</ele><time>2026-03-29T16:24:24.939Z</time></trkpt><trkpt lat="42.426153853649225" lon="11.875012493087684"><ele>196.0</ele><time>2026-03-29T16:24:25.939Z</time></trkpt><trkpt lat="42.426278986522206" lon="11.875153716910553"><ele>196.0</ele><time>2026-03-29T16:24:26.939Z</time></trkpt><trkpt lat="42.426405394697575" lon="11.875289339400483"><ele>196.66666666666666</ele><time>2026-03-29T16:24:27.939Z</time></trkpt><trkpt lat="42.42652991095464" lon="11.875430854556067"><ele>197.33333333333331</ele><time>2026-03-29T16:24:28.939Z</time></trkpt><trkpt lat="42.42665415830191" lon="11.875573068694624"><ele>198.0</ele><time>2026-03-29T16:24:29.939Z</time></trkpt><trkpt lat="42.42677654130609" lon="11.875713550835647"><ele>198.0</ele><time>2026-03-29T16:24:30.939Z</time></trkpt><trkpt lat="42.426898528437654" lon="11.875856765349749"><ele>198.0</ele><time>2026-03-29T16:24:31.939Z</time></trkpt><trkpt lat="42.427023823140765" lon="11.875991287049331"><ele>198.0</ele><time>2026-03-29T16:24:32.939Z</time></trkpt><trkpt lat="42.4271506671413" lon="11.876127604379501"><ele>198.66666666666669</ele><time>2026-03-29T16:24:33.939Z</time></trkpt><trkpt lat="42.42730083970788" lon="11.876214717267956"><ele>199.33333333333334</ele><time>2026-03-29T16:24:34.939Z</time></trkpt><trkpt lat="42.427476402764725" lon="11.876241008383591"><ele>200.0</ele><time>2026-03-29T16:24:35.938Z</time></trkpt><trkpt lat="42.42764955091944" lon="11.876258150565132"><ele>200.0</ele><time>2026-03-29T16:24:36.938Z</time></trkpt><trkpt lat="42.42783297342865" lon="11.876270933389558"><ele>200.0</ele><time>2026-03-29T16:24:37.938Z</time></trkpt><trkpt lat="42.42801056260545" lon="11.876294096480372"><ele>200.0</ele><time>2026-03-29T16:24:38.938Z</time></trkpt><trkpt lat="42.42818589573198" lon="11.876389112136726"><ele>200.33333333333334</ele><time>2026-03-29T16:24:39.938Z</time></trkpt><trkpt lat="42.42836076314669" lon="11.876420417516552"><ele>200.66666666666669</ele><time>2026-03-29T16:24:40.938Z</time></trkpt><trkpt lat="42.428542874759955" lon="11.87645301977401"><ele>201.0</ele><time>2026-03-29T16:24:41.938Z</time></trkpt><trkpt lat="42.428735927642315" lon="11.87648758077623"><ele>201.66666666666669</ele><time>2026-03-29T16:24:42.938Z</time></trkpt><trkpt lat="42.42893102155594" lon="11.876522507175304"><ele>202.33333333333334</ele><time>2026-03-29T16:24:43.938Z</time></trkpt><trkpt lat="42.42913558422717" lon="11.876559128655794"><ele>203.0</ele><time>2026-03-29T16:24:44.938Z</time></trkpt><trkpt lat="42.42933278118012" lon="11.876595421304426"><ele>203.0</ele><time>2026-03-29T16:24:45.938Z</time></trkpt><trkpt lat="42.429534305262656" lon="11.87663248380449"><ele>203.0</ele><time>2026-03-29T16:24:46.938Z</time></trkpt><trkpt lat="42.429734754909624" lon="11.876669348707939"><ele>203.0</ele><time>2026-03-29T16:24:47.938Z</time></trkpt><trkpt lat="42.42993905597083" lon="11.8767071378195"><ele>202.66666666666669</ele><time>2026-03-29T16:24:48.938Z</time></trkpt><trkpt lat="42.43014702042221" lon="11.87674664456617"><ele>202.33333333333331</ele><time>2026-03-29T16:24:49.938Z</time></trkpt><trkpt lat="42.43036134796893" lon="11.876787360091477"><ele>202.0</ele><time>2026-03-29T16:24:50.938Z</time></trkpt><trkpt lat="42.43057338257721" lon="11.876827640037703"><ele>203.0</ele><time>2026-03-29T16:24:51.938Z</time></trkpt><trkpt lat="42.43079003174851" lon="11.8768687966014"><ele>204.0</ele><time>2026-03-29T16:24:52.938Z</time></trkpt><trkpt lat="42.4310062765593" lon="11.876909876353421"><ele>205.0</ele><time>2026-03-29T16:24:53.938Z</time></trkpt><trkpt lat="42.431221311530756" lon="11.87695072627205"><ele>205.66666666666666</ele><time>2026-03-29T16:24:54.938Z</time></trkpt><trkpt lat="42.4314364176616" lon="11.876991589708263"><ele>206.33333333333331</ele><time>2026-03-29T16:24:55.938Z</time></trkpt><trkpt lat="42.43165360860629" lon="11.876968535047878"><ele>207.0</ele><time>2026-03-29T16:24:56.938Z</time></trkpt><trkpt lat="42.43186728397915" lon="11.877010069997462"><ele>207.0</ele><time>2026-03-29T16:24:57.938Z</time></trkpt><trkpt lat="42.43208109851417" lon="11.877058733453593"><ele>207.0</ele><time>2026-03-29T16:24:58.938Z</time></trkpt><trkpt lat="42.432303491035" lon="11.877106116223382"><ele>207.0</ele><time>2026-03-29T16:24:59.938Z</time></trkpt><trkpt lat="42.432522549983965" lon="11.877193553172793"><ele>208.5</ele><time>2026-03-29T16:25:00.938Z</time></trkpt><trkpt lat="42.43274460376614" lon="11.877235118316587"><ele>210.0</ele><time>2026-03-29T16:25:01.938Z</time></trkpt><trkpt lat="42.4329687485695" lon="11.877277074868758"><ele>208.0</ele><time>2026-03-29T16:25:02.938Z</time></trkpt><trkpt lat="42.43319774193289" lon="11.877319939001735"><ele>206.0</ele><time>2026-03-29T16:25:03.938Z</time></trkpt><trkpt lat="42.43342152742245" lon="11.877361828292253"><ele>206.0</ele><time>2026-03-29T16:25:04.938Z</time></trkpt><trkpt lat="42.433645360437616" lon="11.8774033271458"><ele>206.0</ele><time>2026-03-29T16:25:05.937Z</time></trkpt><trkpt lat="42.43386819326702" lon="11.877443953181254"><ele>206.0</ele><time>2026-03-29T16:25:06.937Z</time></trkpt><trkpt lat="42.43409093074555" lon="11.87748456183287"><ele>206.0</ele><time>2026-03-29T16:25:07.937Z</time></trkpt><trkpt lat="42.4343118481262" lon="11.877524838653404"><ele>206.0</ele><time>2026-03-29T16:25:08.937Z</time></trkpt><trkpt lat="42.434527596641" lon="11.877564900023556"><ele>204.33333333333334</ele><time>2026-03-29T16:25:09.937Z</time></trkpt><trkpt lat="42.43474490141892" lon="11.877607578907112"><ele>202.66666666666669</ele><time>2026-03-29T16:25:10.937Z</time></trkpt><trkpt lat="42.434960905624386" lon="11.87765131849466"><ele>201.0</ele><time>2026-03-29T16:25:11.937Z</time></trkpt><trkpt lat="42.4351732880351" lon="11.877699551664389"><ele>201.0</ele><time>2026-03-29T16:25:12.937Z</time></trkpt><trkpt lat="42.43538735205744" lon="11.877756873225687"><ele>201.0</ele><time>2026-03-29T16:25:13.937Z</time></trkpt><trkpt lat="42.43560537955006" lon="11.877819115032082"><ele>201.0</ele><time>2026-03-29T16:25:14.937Z</time></trkpt><trkpt lat="42.43582439522916" lon="11.877887718376483"><ele>202.5</ele><time>2026-03-29T16:25:15.937Z</time></trkpt><trkpt lat="42.4360473401934" lon="11.877959312181318"><ele>204.0</ele><time>2026-03-29T16:25:16.937Z</time></trkpt><trkpt lat="42.43626864660437" lon="11.878030435478784"><ele>205.0</ele><time>2026-03-29T16:25:17.937Z</time></trkpt><trkpt lat="42.43649046281284" lon="11.878101722529529"><ele>206.0</ele><time>2026-03-29T16:25:18.937Z</time></trkpt><trkpt lat="42.436709528606876" lon="11.878174341981133"><ele>206.0</ele><time>2026-03-29T16:25:19.937Z</time></trkpt><trkpt lat="42.43693685948548" lon="11.878249086703416"><ele>206.0</ele><time>2026-03-29T16:25:20.937Z</time></trkpt><trkpt lat="42.437166619571386" lon="11.878319845608692"><ele>205.5</ele><time>2026-03-29T16:25:21.937Z</time></trkpt><trkpt lat="42.43739901857326" lon="11.878391676782632"><ele>205.0</ele><time>2026-03-29T16:25:22.937Z</time></trkpt><trkpt lat="42.437628349453895" lon="11.878464194842575"><ele>205.0</ele><time>2026-03-29T16:25:23.937Z</time></trkpt><trkpt lat="42.437863360458806" lon="11.878539276430848"><ele>205.0</ele><time>2026-03-29T16:25:24.937Z</time></trkpt><trkpt lat="42.43810073630517" lon="11.878615113555774"><ele>207.5</ele><time>2026-03-29T16:25:25.937Z</time></trkpt><trkpt lat="42.43833688245883" lon="11.878690557807868"><ele>210.0</ele><time>2026-03-29T16:25:26.937Z</time></trkpt><trkpt lat="42.43857735621582" lon="11.878767384654084"><ele>210.0</ele><time>2026-03-29T16:25:27.937Z</time></trkpt><trkpt lat="42.438814710867604" lon="11.87884321424991"><ele>210.0</ele><time>2026-03-29T16:25:28.937Z</time></trkpt><trkpt lat="42.43905624969859" lon="11.878917597917823"><ele>210.0</ele><time>2026-03-29T16:25:29.937Z</time></trkpt><trkpt lat="42.43929489839854" lon="11.87899416031498"><ele>210.0</ele><time>2026-03-29T16:25:30.937Z</time></trkpt><trkpt lat="42.439536551494754" lon="11.879068684236895"><ele>210.0</ele><time>2026-03-29T16:25:31.937Z</time></trkpt><trkpt lat="42.43977739259753" lon="11.87914200468486"><ele>210.0</ele><time>2026-03-29T16:25:32.937Z</time></trkpt><trkpt lat="42.440017671350084" lon="11.879218076513418"><ele>210.0</ele><time>2026-03-29T16:25:33.937Z</time></trkpt><trkpt lat="42.44025754975434" lon="11.87929859956216"><ele>210.0</ele><time>2026-03-29T16:25:34.937Z</time></trkpt><trkpt lat="42.440499089409926" lon="11.879368986852834"><ele>210.5</ele><time>2026-03-29T16:25:35.937Z</time></trkpt><trkpt lat="42.440737261797246" lon="11.879447305735223"><ele>211.0</ele><time>2026-03-29T16:25:36.937Z</time></trkpt><trkpt lat="42.44097576002715" lon="11.879515604487835"><ele>211.0</ele><time>2026-03-29T16:25:37.936Z</time></trkpt><trkpt lat="42.441216944704514" lon="11.879591397804198"><ele>211.0</ele><time>2026-03-29T16:25:38.936Z</time></trkpt><trkpt lat="42.441461085776396" lon="11.879669318783812"><ele>212.0</ele><time>2026-03-29T16:25:39.936Z</time></trkpt><trkpt lat="42.441700302226" lon="11.879746369526876"><ele>213.0</ele><time>2026-03-29T16:25:40.936Z</time></trkpt><trkpt lat="42.441937109140774" lon="11.879822393792951"><ele>213.5</ele><time>2026-03-29T16:25:41.936Z</time></trkpt><trkpt lat="42.44217405735285" lon="11.879898919906866"><ele>214.0</ele><time>2026-03-29T16:25:42.936Z</time></trkpt><trkpt lat="42.44240749823498" lon="11.879969009246057"><ele>214.0</ele><time>2026-03-29T16:25:43.936Z</time></trkpt><trkpt lat="42.44264239877746" lon="11.880038982082088"><ele>214.0</ele><time>2026-03-29T16:25:44.936Z</time></trkpt><trkpt lat="42.44287998441863" lon="11.880109714378435"><ele>210.5</ele><time>2026-03-29T16:25:45.936Z</time></trkpt><trkpt lat="42.44311930004999" lon="11.880182984638271"><ele>207.0</ele><time>2026-03-29T16:25:46.936Z</time></trkpt><trkpt lat="42.44335439949595" lon="11.880253635856059"><ele>207.0</ele><time>2026-03-29T16:25:47.936Z</time></trkpt><trkpt lat="42.44359100923447" lon="11.88032125986342"><ele>207.0</ele><time>2026-03-29T16:25:48.936Z</time></trkpt><trkpt lat="42.44382868933469" lon="11.880399465223329"><ele>209.5</ele><time>2026-03-29T16:25:49.936Z</time></trkpt><trkpt lat="42.444064144930934" lon="11.880469819931292"><ele>212.0</ele><time>2026-03-29T16:25:50.936Z</time></trkpt><trkpt lat="42.444305062417854" lon="11.88054089858199"><ele>212.0</ele><time>2026-03-29T16:25:51.936Z</time></trkpt><trkpt lat="42.44454357620074" lon="11.880613555358059"><ele>212.0</ele><time>2026-03-29T16:25:52.936Z</time></trkpt><trkpt lat="42.4447807849668" lon="11.880676650405647"><ele>212.0</ele><time>2026-03-29T16:25:53.936Z</time></trkpt><trkpt lat="42.445021733750245" lon="11.880738044181658"><ele>212.0</ele><time>2026-03-29T16:25:54.936Z</time></trkpt><trkpt lat="42.44526036315767" lon="11.880801341275081"><ele>211.5</ele><time>2026-03-29T16:25:55.936Z</time></trkpt><trkpt lat="42.44549258912265" lon="11.880865660404377"><ele>211.0</ele><time>2026-03-29T16:25:56.936Z</time></trkpt><trkpt lat="42.445706250379914" lon="11.880933443091585"><ele>210.66666666666666</ele><time>2026-03-29T16:25:57.936Z</time></trkpt><trkpt lat="42.44591403813579" lon="11.880991132488994"><ele>210.33333333333331</ele><time>2026-03-29T16:25:58.936Z</time></trkpt><trkpt lat="42.446108220565435" lon="11.881038698544113"><ele>210.0</ele><time>2026-03-29T16:25:59.936Z</time></trkpt><trkpt lat="42.446275547525225" lon="11.881104951681728"><ele>210.33333333333331</ele><time>2026-03-29T16:26:00.936Z</time></trkpt><trkpt lat="42.44645062960224" lon="11.881177708117788"><ele>210.66666666666666</ele><time>2026-03-29T16:26:01.936Z</time></trkpt><trkpt lat="42.44661244230781" lon="11.881265647453931"><ele>211.0</ele><time>2026-03-29T16:26:02.937Z</time></trkpt><trkpt lat="42.44673505708187" lon="11.8813998141779"><ele>211.0</ele><time>2026-03-29T16:26:03.938Z</time></trkpt><trkpt lat="42.44684363443155" lon="11.881558605561011"><ele>211.0</ele><time>2026-03-29T16:26:04.938Z</time></trkpt><trkpt lat="42.44694050757666" lon="11.881731478201194"><ele>211.0</ele><time>2026-03-29T16:26:05.937Z</time></trkpt><trkpt lat="42.44702070405456" lon="11.881936419682956"><ele>211.0</ele><time>2026-03-29T16:26:06.936Z</time></trkpt><trkpt lat="42.44708439513295" lon="11.882162065152404"><ele>211.0</ele><time>2026-03-29T16:26:07.936Z</time></trkpt><trkpt lat="42.44711221033029" lon="11.882397258877292"><ele>211.0</ele><time>2026-03-29T16:26:08.936Z</time></trkpt><trkpt lat="42.44714254898796" lon="11.882642506559172"><ele>213.0</ele><time>2026-03-29T16:26:09.936Z</time></trkpt><trkpt lat="42.44717152388263" lon="11.882900554053576"><ele>215.0</ele><time>2026-03-29T16:26:10.936Z</time></trkpt><trkpt lat="42.44720343942412" lon="11.883171215756642"><ele>217.0</ele><time>2026-03-29T16:26:11.936Z</time></trkpt><trkpt lat="42.44723497590211" lon="11.883443461126168"><ele>217.0</ele><time>2026-03-29T16:26:12.937Z</time></trkpt><trkpt lat="42.4472694720911" lon="11.883718723527771"><ele>217.0</ele><time>2026-03-29T16:26:13.936Z</time></trkpt><trkpt lat="42.44730365712702" lon="11.883998401723652"><ele>217.0</ele><time>2026-03-29T16:26:14.936Z</time></trkpt><trkpt lat="42.44733891601512" lon="11.884284816626263"><ele>217.66666666666666</ele><time>2026-03-29T16:26:15.936Z</time></trkpt><trkpt lat="42.44736515279059" lon="11.88457509016488"><ele>218.33333333333331</ele><time>2026-03-29T16:26:16.936Z</time></trkpt><trkpt lat="42.44739838988319" lon="11.884871097116031"><ele>219.0</ele><time>2026-03-29T16:26:17.936Z</time></trkpt><trkpt lat="42.4474359329096" lon="11.8851569400398"><ele>219.0</ele><time>2026-03-29T16:26:18.936Z</time></trkpt><trkpt lat="42.447468867196754" lon="11.885443876975918"><ele>219.0</ele><time>2026-03-29T16:26:19.936Z</time></trkpt><trkpt lat="42.44749820884172" lon="11.885727397999965"><ele>219.0</ele><time>2026-03-29T16:26:20.936Z</time></trkpt><trkpt lat="42.44752159696883" lon="11.886009281067029"><ele>219.33333333333331</ele><time>2026-03-29T16:26:21.936Z</time></trkpt><trkpt lat="42.44755652418732" lon="11.886268028753824"><ele>219.66666666666666</ele><time>2026-03-29T16:26:22.936Z</time></trkpt><trkpt lat="42.44760334514073" lon="11.886512518896687"><ele>220.0</ele><time>2026-03-29T16:26:23.936Z</time></trkpt><trkpt lat="42.44769103067904" lon="11.886726799067606"><ele>219.66666666666666</ele><time>2026-03-29T16:26:24.936Z</time></trkpt><trkpt lat="42.44779559574394" lon="11.886912960312939"><ele>219.33333333333331</ele><time>2026-03-29T16:26:25.936Z</time></trkpt><trkpt lat="42.447923174399556" lon="11.88705414102533"><ele>219.0</ele><time>2026-03-29T16:26:26.936Z</time></trkpt><trkpt lat="42.44807667853721" lon="11.887158135470479"><ele>220.66666666666669</ele><time>2026-03-29T16:26:27.936Z</time></trkpt><trkpt lat="42.4482492515814" lon="11.887225749780775"><ele>222.33333333333334</ele><time>2026-03-29T16:26:28.936Z</time></trkpt><trkpt lat="42.44843127795611" lon="11.887267616294947"><ele>224.0</ele><time>2026-03-29T16:26:29.935Z</time></trkpt><trkpt lat="42.44862322055146" lon="11.887321336215647"><ele>224.66666666666669</ele><time>2026-03-29T16:26:30.935Z</time></trkpt><trkpt lat="42.448814980442904" lon="11.88738388834561"><ele>225.33333333333331</ele><time>2026-03-29T16:26:31.935Z</time></trkpt><trkpt lat="42.44901167502624" lon="11.887425423208835"><ele>226.0</ele><time>2026-03-29T16:26:32.935Z</time></trkpt><trkpt lat="42.44920285267665" lon="11.887482997594613"><ele>226.0</ele><time>2026-03-29T16:26:33.935Z</time></trkpt><trkpt lat="42.44940349512081" lon="11.887536869289418"><ele>226.0</ele><time>2026-03-29T16:26:34.935Z</time></trkpt><trkpt lat="42.449608846200704" lon="11.887593635772099"><ele>226.0</ele><time>2026-03-29T16:26:35.935Z</time></trkpt><trkpt lat="42.44982230444931" lon="11.887649829747954"><ele>225.0</ele><time>2026-03-29T16:26:36.935Z</time></trkpt><trkpt lat="42.4500310542088" lon="11.887696685800496"><ele>224.0</ele><time>2026-03-29T16:26:37.935Z</time></trkpt><trkpt lat="42.45024982782572" lon="11.88776041421276"><ele>223.0</ele><time>2026-03-29T16:26:38.935Z</time></trkpt><trkpt lat="42.450461738545194" lon="11.887820222506935"><ele>223.0</ele><time>2026-03-29T16:26:39.935Z</time></trkpt><trkpt lat="42.450677829678156" lon="11.88788232527606"><ele>223.0</ele><time>2026-03-29T16:26:40.935Z</time></trkpt><trkpt lat="42.4508960528785" lon="11.887942048355903"><ele>223.0</ele><time>2026-03-29T16:26:41.935Z</time></trkpt><trkpt lat="42.45110777131409" lon="11.887998175224373"><ele>223.66666666666666</ele><time>2026-03-29T16:26:42.935Z</time></trkpt><trkpt lat="42.45132530480435" lon="11.888064368777686"><ele>224.33333333333331</ele><time>2026-03-29T16:26:43.935Z</time></trkpt><trkpt lat="42.451543310106764" lon="11.888130944056666"><ele>225.0</ele><time>2026-03-29T16:26:44.935Z</time></trkpt><trkpt lat="42.451769960070905" lon="11.888191884222424"><ele>225.0</ele><time>2026-03-29T16:26:45.935Z</time></trkpt><trkpt lat="42.45199558999428" lon="11.888259291223847"><ele>225.0</ele><time>2026-03-29T16:26:46.935Z</time></trkpt><trkpt lat="42.45221723738957" lon="11.888326822193823"><ele>225.0</ele><time>2026-03-29T16:26:47.935Z</time></trkpt><trkpt lat="42.45243809961124" lon="11.888372115692574"><ele>225.0</ele><time>2026-03-29T16:26:48.935Z</time></trkpt><trkpt lat="42.45265876066852" lon="11.8884290851322"><ele>225.0</ele><time>2026-03-29T16:26:49.935Z</time></trkpt><trkpt lat="42.45287016504683" lon="11.88849939278476"><ele>225.0</ele><time>2026-03-29T16:26:50.935Z</time></trkpt><trkpt lat="42.453078532297454" lon="11.888561765896915"><ele>225.0</ele><time>2026-03-29T16:26:51.935Z</time></trkpt><trkpt lat="42.45329162717496" lon="11.888631030201289"><ele>225.0</ele><time>2026-03-29T16:26:52.935Z</time></trkpt><trkpt lat="42.45350985993274" lon="11.888702133158795"><ele>225.0</ele><time>2026-03-29T16:26:53.935Z</time></trkpt><trkpt lat="42.45372568349219" lon="11.888782154181381"><ele>225.0</ele><time>2026-03-29T16:26:54.935Z</time></trkpt><trkpt lat="42.453933757761945" lon="11.888887881371936"><ele>225.0</ele><time>2026-03-29T16:26:55.935Z</time></trkpt><trkpt lat="42.45413131617722" lon="11.88902231055928"><ele>225.0</ele><time>2026-03-29T16:26:56.935Z</time></trkpt><trkpt lat="42.45432357339065" lon="11.8891616835981"><ele>225.0</ele><time>2026-03-29T16:26:57.935Z</time></trkpt><trkpt lat="42.454513504836385" lon="11.88930124013427"><ele>225.0</ele><time>2026-03-29T16:26:58.935Z</time></trkpt><trkpt lat="42.4547014429065" lon="11.889453325054735"><ele>225.0</ele><time>2026-03-29T16:26:59.935Z</time></trkpt><trkpt lat="42.45488809747545" lon="11.889602707037483"><ele>225.0</ele><time>2026-03-29T16:27:00.935Z</time></trkpt><trkpt lat="42.455077388889684" lon="11.889751645468516"><ele>225.0</ele><time>2026-03-29T16:27:01.934Z</time></trkpt><trkpt lat="42.455268296860616" lon="11.889898860816702"><ele>225.33333333333331</ele><time>2026-03-29T16:27:02.934Z</time></trkpt><trkpt lat="42.455459437461926" lon="11.890053329290051"><ele>225.66666666666666</ele><time>2026-03-29T16:27:03.934Z</time></trkpt><trkpt lat="42.455642151600124" lon="11.890213361063699"><ele>226.0</ele><time>2026-03-29T16:27:04.934Z</time></trkpt><trkpt lat="42.45582316498727" lon="11.89036378811881"><ele>226.0</ele><time>2026-03-29T16:27:05.934Z</time></trkpt><trkpt lat="42.45601282741268" lon="11.890514158687123"><ele>226.0</ele><time>2026-03-29T16:27:06.934Z</time></trkpt><trkpt lat="42.45620152205909" lon="11.890662223280035"><ele>226.0</ele><time>2026-03-29T16:27:07.934Z</time></trkpt><trkpt lat="42.45638566531892" lon="11.890817617060348"><ele>226.66666666666666</ele><time>2026-03-29T16:27:08.934Z</time></trkpt><trkpt lat="42.456567642419934" lon="11.890970645657653"><ele>227.33333333333331</ele><time>2026-03-29T16:27:09.934Z</time></trkpt><trkpt lat="42.45674513235235" lon="11.891123412643779"><ele>228.0</ele><time>2026-03-29T16:27:10.934Z</time></trkpt><trkpt lat="42.45692644645129" lon="11.891272282654123"><ele>228.0</ele><time>2026-03-29T16:27:11.934Z</time></trkpt><trkpt lat="42.4571124649992" lon="11.891421326779625"><ele>228.0</ele><time>2026-03-29T16:27:12.934Z</time></trkpt><trkpt lat="42.45729308958921" lon="11.891561124839269"><ele>228.0</ele><time>2026-03-29T16:27:13.934Z</time></trkpt><trkpt lat="42.45747705793784" lon="11.89169872886911"><ele>229.33333333333331</ele><time>2026-03-29T16:27:14.934Z</time></trkpt><trkpt lat="42.45764697043676" lon="11.891833400027346"><ele>230.66666666666666</ele><time>2026-03-29T16:27:15.934Z</time></trkpt><trkpt lat="42.45782146576174" lon="11.891970102737652"><ele>232.0</ele><time>2026-03-29T16:27:16.934Z</time></trkpt><trkpt lat="42.45798884748236" lon="11.892112496607922"><ele>232.0</ele><time>2026-03-29T16:27:17.934Z</time></trkpt><trkpt lat="42.45814903030299" lon="11.892265104949098"><ele>232.0</ele><time>2026-03-29T16:27:18.934Z</time></trkpt><trkpt lat="42.458298015024845" lon="11.892411497337942"><ele>232.0</ele><time>2026-03-29T16:27:19.934Z</time></trkpt><trkpt lat="42.45843444330236" lon="11.892547466725572"><ele>232.0</ele><time>2026-03-29T16:27:20.934Z</time></trkpt><trkpt lat="42.45856587109381" lon="11.892689682836311"><ele>232.0</ele><time>2026-03-29T16:27:21.934Z</time></trkpt><trkpt lat="42.45869981889949" lon="11.892846079183377"><ele>232.0</ele><time>2026-03-29T16:27:22.934Z</time></trkpt><trkpt lat="42.45883514258639" lon="11.893010078531958"><ele>231.66666666666666</ele><time>2026-03-29T16:27:23.934Z</time></trkpt><trkpt lat="42.45898555287709" lon="11.89317934045949"><ele>231.33333333333331</ele><time>2026-03-29T16:27:24.934Z</time></trkpt><trkpt lat="42.459140475337406" lon="11.893363616047619"><ele>231.0</ele><time>2026-03-29T16:27:25.934Z</time></trkpt><trkpt lat="42.459299266344495" lon="11.893548111312287"><ele>230.0</ele><time>2026-03-29T16:27:26.934Z</time></trkpt><trkpt lat="42.459456441589325" lon="11.893739898488771"><ele>229.0</ele><time>2026-03-29T16:27:27.934Z</time></trkpt><trkpt lat="42.45961539026195" lon="11.893935139052285"><ele>228.0</ele><time>2026-03-29T16:27:28.934Z</time></trkpt><trkpt lat="42.4597819925048" lon="11.8941231991628"><ele>226.0</ele><time>2026-03-29T16:27:29.934Z</time></trkpt><trkpt lat="42.45995472527167" lon="11.894313420476768"><ele>224.0</ele><time>2026-03-29T16:27:30.934Z</time></trkpt><trkpt lat="42.460122552072455" lon="11.894513853674473"><ele>222.0</ele><time>2026-03-29T16:27:31.934Z</time></trkpt><trkpt lat="42.46028825125691" lon="11.894723173529806"><ele>222.0</ele><time>2026-03-29T16:27:32.934Z</time></trkpt><trkpt lat="42.460462808827955" lon="11.89492841644972"><ele>222.0</ele><time>2026-03-29T16:27:33.934Z</time></trkpt><trkpt lat="42.46063414845928" lon="11.895138087393994"><ele>220.5</ele><time>2026-03-29T16:27:34.933Z</time></trkpt><trkpt lat="42.46081006749899" lon="11.895345483130157"><ele>219.0</ele><time>2026-03-29T16:27:35.933Z</time></trkpt><trkpt lat="42.46098445568389" lon="11.895556866252313"><ele>219.0</ele><time>2026-03-29T16:27:36.933Z</time></trkpt><trkpt lat="42.46116167691949" lon="11.895764610656355"><ele>219.0</ele><time>2026-03-29T16:27:37.933Z</time></trkpt><trkpt lat="42.461332776179155" lon="11.895977177761825"><ele>220.0</ele><time>2026-03-29T16:27:38.933Z</time></trkpt><trkpt lat="42.461504137877846" lon="11.896182501445159"><ele>221.0</ele><time>2026-03-29T16:27:39.933Z</time></trkpt><trkpt lat="42.46166296889331" lon="11.896422332191806"><ele>221.0</ele><time>2026-03-29T16:27:40.933Z</time></trkpt><trkpt lat="42.461841422904456" lon="11.896626528568417"><ele>221.0</ele><time>2026-03-29T16:27:41.933Z</time></trkpt><trkpt lat="42.46201637787945" lon="11.896831459759088"><ele>222.5</ele><time>2026-03-29T16:27:42.933Z</time></trkpt><trkpt lat="42.46218891373202" lon="11.89703742941918"><ele>224.0</ele><time>2026-03-29T16:27:43.933Z</time></trkpt><trkpt lat="42.46236492665667" lon="11.897238778818394"><ele>224.0</ele><time>2026-03-29T16:27:44.933Z</time></trkpt><trkpt lat="42.462532655769955" lon="11.89743396551268"><ele>224.0</ele><time>2026-03-29T16:27:45.933Z</time></trkpt><trkpt lat="42.46270088801086" lon="11.897625952512142"><ele>224.0</ele><time>2026-03-29T16:27:46.933Z</time></trkpt><trkpt lat="42.46286264963356" lon="11.897824381100781"><ele>226.0</ele><time>2026-03-29T16:27:47.933Z</time></trkpt><trkpt lat="42.4630237204825" lon="11.898026298561593"><ele>228.0</ele><time>2026-03-29T16:27:48.933Z</time></trkpt><trkpt lat="42.46317931282231" lon="11.898232427813568"><ele>230.0</ele><time>2026-03-29T16:27:49.933Z</time></trkpt><trkpt lat="42.46333348494171" lon="11.898430136952111"><ele>231.66666666666669</ele><time>2026-03-29T16:27:50.933Z</time></trkpt><trkpt lat="42.4634899216441" lon="11.898619159038576"><ele>233.33333333333331</ele><time>2026-03-29T16:27:51.933Z</time></trkpt><trkpt lat="42.46364355450472" lon="11.8988071960962"><ele>235.0</ele><time>2026-03-29T16:27:52.933Z</time></trkpt><trkpt lat="42.46379379270088" lon="11.89901104483853"><ele>235.0</ele><time>2026-03-29T16:27:53.933Z</time></trkpt><trkpt lat="42.463932795841295" lon="11.899216678885834"><ele>235.0</ele><time>2026-03-29T16:27:54.933Z</time></trkpt><trkpt lat="42.46406628498278" lon="11.899436590837478"><ele>235.0</ele><time>2026-03-29T16:27:55.933Z</time></trkpt><trkpt lat="42.464204048381774" lon="11.899641022757264"><ele>236.33333333333331</ele><time>2026-03-29T16:27:56.933Z</time></trkpt><trkpt lat="42.46433876715701" lon="11.899853210631859"><ele>237.66666666666669</ele><time>2026-03-29T16:27:57.933Z</time></trkpt><trkpt lat="42.46446891671172" lon="11.900060560209134"><ele>239.0</ele><time>2026-03-29T16:27:58.933Z</time></trkpt><trkpt lat="42.46460215162279" lon="11.900285024601745"><ele>241.0</ele><time>2026-03-29T16:27:59.933Z</time></trkpt><trkpt lat="42.46473175285365" lon="11.90049830173344"><ele>243.0</ele><time>2026-03-29T16:28:00.933Z</time></trkpt><trkpt lat="42.464858317715645" lon="11.90072297474645"><ele>245.0</ele><time>2026-03-29T16:28:01.933Z</time></trkpt><trkpt lat="42.4649737169569" lon="11.900964891728128"><ele>245.33333333333334</ele><time>2026-03-29T16:28:02.933Z</time></trkpt><trkpt lat="42.465089596619805" lon="11.901207020286886"><ele>245.66666666666669</ele><time>2026-03-29T16:28:03.933Z</time></trkpt><trkpt lat="42.46520194248421" lon="11.901445447027967"><ele>246.0</ele><time>2026-03-29T16:28:04.933Z</time></trkpt><trkpt lat="42.4653158485151" lon="11.901700294979229"><ele>246.0</ele><time>2026-03-29T16:28:05.933Z</time></trkpt><trkpt lat="42.46542502345368" lon="11.901968175676087"><ele>246.0</ele><time>2026-03-29T16:28:06.932Z</time></trkpt><trkpt lat="42.465527271608906" lon="11.90222101324657"><ele>246.0</ele><time>2026-03-29T16:28:07.932Z</time></trkpt><trkpt lat="42.46563028529372" lon="11.902469747708082"><ele>246.33333333333331</ele><time>2026-03-29T16:28:08.935Z</time></trkpt><trkpt lat="42.465716336401584" lon="11.902712336509339"><ele>246.66666666666666</ele><time>2026-03-29T16:28:09.934Z</time></trkpt><trkpt lat="42.465806966819066" lon="11.902938719070022"><ele>247.0</ele><time>2026-03-29T16:28:10.934Z</time></trkpt><trkpt lat="42.465897385500405" lon="11.903144755611267"><ele>247.0</ele><time>2026-03-29T16:28:11.935Z</time></trkpt><trkpt lat="42.46598110853841" lon="11.903356829243553"><ele>247.0</ele><time>2026-03-29T16:28:12.934Z</time></trkpt><trkpt lat="42.46607022445113" lon="11.903566199341723"><ele>247.0</ele><time>2026-03-29T16:28:13.934Z</time></trkpt><trkpt lat="42.46615845071449" lon="11.903766432485648"><ele>247.0</ele><time>2026-03-29T16:28:14.935Z</time></trkpt><trkpt lat="42.466243500869396" lon="11.903970856991624"><ele>247.0</ele><time>2026-03-29T16:28:15.935Z</time></trkpt><trkpt lat="42.4663384184991" lon="11.904175810762686"><ele>247.0</ele><time>2026-03-29T16:28:16.935Z</time></trkpt><trkpt lat="42.46643649055932" lon="11.904391994255862"><ele>245.66666666666666</ele><time>2026-03-29T16:28:17.934Z</time></trkpt><trkpt lat="42.46653359873693" lon="11.904626690139674"><ele>244.33333333333331</ele><time>2026-03-29T16:28:18.934Z</time></trkpt><trkpt lat="42.46663699471693" lon="11.904866478704331"><ele>243.0</ele><time>2026-03-29T16:28:19.934Z</time></trkpt><trkpt lat="42.4667415751203" lon="11.905113971188669"><ele>241.33333333333331</ele><time>2026-03-29T16:28:20.935Z</time></trkpt><trkpt lat="42.46685787890572" lon="11.90536941306204"><ele>239.66666666666666</ele><time>2026-03-29T16:28:21.935Z</time></trkpt><trkpt lat="42.46697425233799" lon="11.9056332739966"><ele>238.0</ele><time>2026-03-29T16:28:22.935Z</time></trkpt><trkpt lat="42.467083442291525" lon="11.905911297215827"><ele>238.0</ele><time>2026-03-29T16:28:23.934Z</time></trkpt><trkpt lat="42.46720122467161" lon="11.906193575705593"><ele>238.0</ele><time>2026-03-29T16:28:24.934Z</time></trkpt><trkpt lat="42.46731744226431" lon="11.906479712961731"><ele>236.0</ele><time>2026-03-29T16:28:25.934Z</time></trkpt><trkpt lat="42.467441798207695" lon="11.906764002490318"><ele>234.0</ele><time>2026-03-29T16:28:26.934Z</time></trkpt><trkpt lat="42.46755961568102" lon="11.90704627865019"><ele>234.0</ele><time>2026-03-29T16:28:27.934Z</time></trkpt><trkpt lat="42.46768292614127" lon="11.907333731466979"><ele>234.0</ele><time>2026-03-29T16:28:28.934Z</time></trkpt><trkpt lat="42.46780084708458" lon="11.907625161862223"><ele>234.0</ele><time>2026-03-29T16:28:29.934Z</time></trkpt><trkpt lat="42.46791510503991" lon="11.907911959714497"><ele>234.0</ele><time>2026-03-29T16:28:30.934Z</time></trkpt><trkpt lat="42.46803081071438" lon="11.90820275371475"><ele>237.0</ele><time>2026-03-29T16:28:31.934Z</time></trkpt><trkpt lat="42.46814815816403" lon="11.908495688656155"><ele>240.0</ele><time>2026-03-29T16:28:32.934Z</time></trkpt><trkpt lat="42.46826844361054" lon="11.90878643219411"><ele>240.0</ele><time>2026-03-29T16:28:33.934Z</time></trkpt><trkpt lat="42.468391789398915" lon="11.909072694118706"><ele>240.0</ele><time>2026-03-29T16:28:34.934Z</time></trkpt><trkpt lat="42.46850722627705" lon="11.909361362397586"><ele>240.5</ele><time>2026-03-29T16:28:35.934Z</time></trkpt><trkpt lat="42.46862669229034" lon="11.909639853635012"><ele>241.0</ele><time>2026-03-29T16:28:36.934Z</time></trkpt><trkpt lat="42.46874544950888" lon="11.909924484239479"><ele>242.0</ele><time>2026-03-29T16:28:37.934Z</time></trkpt><trkpt lat="42.468867090733674" lon="11.910214532136898"><ele>243.0</ele><time>2026-03-29T16:28:38.934Z</time></trkpt><trkpt lat="42.468989140647224" lon="11.91050107273391"><ele>243.0</ele><time>2026-03-29T16:28:39.934Z</time></trkpt><trkpt lat="42.469105727196414" lon="11.910794283427334"><ele>243.0</ele><time>2026-03-29T16:28:40.934Z</time></trkpt><trkpt lat="42.469217003241475" lon="11.911075645000167"><ele>243.66666666666669</ele><time>2026-03-29T16:28:41.934Z</time></trkpt><trkpt lat="42.46931562659023" lon="11.911334562494101"><ele>244.33333333333334</ele><time>2026-03-29T16:28:42.934Z</time></trkpt><trkpt lat="42.46941931921045" lon="11.911581218722214"><ele>245.0</ele><time>2026-03-29T16:28:43.934Z</time></trkpt><trkpt lat="42.469525104577784" lon="11.911813060943"><ele>246.33333333333334</ele><time>2026-03-29T16:28:44.934Z</time></trkpt><trkpt lat="42.46961234931126" lon="11.912043861470801"><ele>247.66666666666669</ele><time>2026-03-29T16:28:45.934Z</time></trkpt><trkpt lat="42.46970956310158" lon="11.912238068766655"><ele>249.0</ele><time>2026-03-29T16:28:46.934Z</time></trkpt><trkpt lat="42.4698173206905" lon="11.912420259823437"><ele>249.0</ele><time>2026-03-29T16:28:47.934Z</time></trkpt><trkpt lat="42.46994072885925" lon="11.91258221724376"><ele>249.0</ele><time>2026-03-29T16:28:48.934Z</time></trkpt><trkpt lat="42.47009234328772" lon="11.91271835314254"><ele>249.0</ele><time>2026-03-29T16:28:49.934Z</time></trkpt><trkpt lat="42.47025214431" lon="11.912831874690596"><ele>249.0</ele><time>2026-03-29T16:28:50.934Z</time></trkpt><trkpt lat="42.47043553751653" lon="11.912915636946048"><ele>249.0</ele><time>2026-03-29T16:28:51.934Z</time></trkpt><trkpt lat="42.47062559721405" lon="11.912972241378213"><ele>249.0</ele><time>2026-03-29T16:28:52.934Z</time></trkpt><trkpt lat="42.47082033487351" lon="11.913014777534517"><ele>249.66666666666669</ele><time>2026-03-29T16:28:53.934Z</time></trkpt><trkpt lat="42.471029812501634" lon="11.913060695181278"><ele>250.33333333333334</ele><time>2026-03-29T16:28:54.934Z</time></trkpt><trkpt lat="42.471238726707746" lon="11.913138275871415"><ele>251.0</ele><time>2026-03-29T16:28:55.934Z</time></trkpt><trkpt lat="42.471461199228045" lon="11.913191869717258"><ele>251.5</ele><time>2026-03-29T16:28:56.933Z</time></trkpt><trkpt lat="42.471691881860885" lon="11.913241856839603"><ele>252.0</ele><time>2026-03-29T16:28:57.933Z</time></trkpt><trkpt lat="42.47192595045822" lon="11.913290241502626"><ele>252.0</ele><time>2026-03-29T16:28:58.933Z</time></trkpt><trkpt lat="42.47216049682952" lon="11.913339414566993"><ele>252.0</ele><time>2026-03-29T16:28:59.933Z</time></trkpt><trkpt lat="42.47239685360655" lon="11.913388926950299"><ele>251.5</ele><time>2026-03-29T16:29:00.933Z</time></trkpt><trkpt lat="42.47263582725395" lon="11.913437896820813"><ele>251.0</ele><time>2026-03-29T16:29:01.933Z</time></trkpt><trkpt lat="42.472884500002074" lon="11.913485530962387"><ele>253.0</ele><time>2026-03-29T16:29:02.933Z</time></trkpt><trkpt lat="42.47314568272474" lon="11.913533869370948"><ele>255.0</ele><time>2026-03-29T16:29:03.933Z</time></trkpt><trkpt lat="42.47340124281966" lon="11.913600177531903"><ele>255.0</ele><time>2026-03-29T16:29:04.933Z</time></trkpt><trkpt lat="42.47365395029433" lon="11.913654399304685"><ele>255.0</ele><time>2026-03-29T16:29:05.933Z</time></trkpt><trkpt lat="42.47390527032335" lon="11.913708323377142"><ele>256.5</ele><time>2026-03-29T16:29:06.933Z</time></trkpt><trkpt lat="42.474155610907154" lon="11.913762467633502"><ele>258.0</ele><time>2026-03-29T16:29:07.933Z</time></trkpt><trkpt lat="42.47440471114273" lon="11.913816575126619"><ele>259.0</ele><time>2026-03-29T16:29:08.933Z</time></trkpt><trkpt lat="42.474649435337625" lon="11.913869732436426"><ele>260.0</ele><time>2026-03-29T16:29:09.933Z</time></trkpt><trkpt lat="42.47489269913604" lon="11.913926250816731"><ele>260.0</ele><time>2026-03-29T16:29:10.933Z</time></trkpt><trkpt lat="42.47513409578603" lon="11.913978940344867"><ele>260.0</ele><time>2026-03-29T16:29:11.933Z</time></trkpt><trkpt lat="42.47537357839657" lon="11.914030874741174"><ele>261.5</ele><time>2026-03-29T16:29:12.933Z</time></trkpt><trkpt lat="42.47561582687367" lon="11.914084579252224"><ele>263.0</ele><time>2026-03-29T16:29:13.933Z</time></trkpt><trkpt lat="42.475859713949106" lon="11.914138722169774"><ele>263.0</ele><time>2026-03-29T16:29:14.933Z</time></trkpt><trkpt lat="42.476106575432226" lon="11.914193525392461"><ele>263.0</ele><time>2026-03-29T16:29:15.933Z</time></trkpt><trkpt lat="42.47635491274602" lon="11.914248656227052"><ele>265.0</ele><time>2026-03-29T16:29:16.933Z</time></trkpt><trkpt lat="42.47660239987827" lon="11.914303598334902"><ele>267.0</ele><time>2026-03-29T16:29:17.933Z</time></trkpt><trkpt lat="42.476831594723116" lon="11.914354479539869"><ele>267.0</ele><time>2026-03-29T16:29:18.933Z</time></trkpt><trkpt lat="42.477050071130044" lon="11.914402981310786"><ele>267.0</ele><time>2026-03-29T16:29:19.933Z</time></trkpt><trkpt lat="42.477261920639016" lon="11.914450965210582"><ele>267.0</ele><time>2026-03-29T16:29:20.933Z</time></trkpt><trkpt lat="42.477466020421815" lon="11.91449656708301"><ele>268.3333333333333</ele><time>2026-03-29T16:29:21.933Z</time></trkpt><trkpt lat="42.47766847062073" lon="11.914540028966215"><ele>269.66666666666663</ele><time>2026-03-29T16:29:22.933Z</time></trkpt><trkpt lat="42.47787601212369" lon="11.91458458384219"><ele>271.0</ele><time>2026-03-29T16:29:23.933Z</time></trkpt><trkpt lat="42.478086287354124" lon="11.914629725601309"><ele>271.5</ele><time>2026-03-29T16:29:24.933Z</time></trkpt><trkpt lat="42.478310341956075" lon="11.914678237375433"><ele>272.0</ele><time>2026-03-29T16:29:25.933Z</time></trkpt><trkpt lat="42.4785349884805" lon="11.914727067754542"><ele>272.5</ele><time>2026-03-29T16:29:26.933Z</time></trkpt><trkpt lat="42.478769576131114" lon="11.914778057256157"><ele>273.0</ele><time>2026-03-29T16:29:27.933Z</time></trkpt><trkpt lat="42.4790047798549" lon="11.914828761907264"><ele>273.0</ele><time>2026-03-29T16:29:28.932Z</time></trkpt><trkpt lat="42.479247302722634" lon="11.91487990618371"><ele>273.0</ele><time>2026-03-29T16:29:29.932Z</time></trkpt><trkpt lat="42.47949238841731" lon="11.914933103774855"><ele>274.5</ele><time>2026-03-29T16:29:30.932Z</time></trkpt><trkpt lat="42.479738800454754" lon="11.914988026171674"><ele>276.0</ele><time>2026-03-29T16:29:31.932Z</time></trkpt><trkpt lat="42.47999371955323" lon="11.91504484488405"><ele>276.5</ele><time>2026-03-29T16:29:32.932Z</time></trkpt><trkpt lat="42.48025221111365" lon="11.915085283912715"><ele>277.0</ele><time>2026-03-29T16:29:33.932Z</time></trkpt><trkpt lat="42.48051107229144" lon="11.915163405357818"><ele>278.5</ele><time>2026-03-29T16:29:34.932Z</time></trkpt><trkpt lat="42.480763835652525" lon="11.915221830276437"><ele>280.0</ele><time>2026-03-29T16:29:35.932Z</time></trkpt><trkpt lat="42.481016717327755" lon="11.915279792922128"><ele>281.5</ele><time>2026-03-29T16:29:36.932Z</time></trkpt><trkpt lat="42.48126834659139" lon="11.915336122980461"><ele>283.0</ele><time>2026-03-29T16:29:37.932Z</time></trkpt><trkpt lat="42.48152662317888" lon="11.915397363272682"><ele>283.0</ele><time>2026-03-29T16:29:38.932Z</time></trkpt><trkpt lat="42.48178186060254" lon="11.91546184298898"><ele>283.0</ele><time>2026-03-29T16:29:39.932Z</time></trkpt><trkpt lat="42.4820372879531" lon="11.915512364998193"><ele>284.5</ele><time>2026-03-29T16:29:40.932Z</time></trkpt><trkpt lat="42.482288418690096" lon="11.91555925506727"><ele>286.0</ele><time>2026-03-29T16:29:41.932Z</time></trkpt><trkpt lat="42.48254084133452" lon="11.915596590373902"><ele>286.0</ele><time>2026-03-29T16:29:42.932Z</time></trkpt><trkpt lat="42.4827956686492" lon="11.915638642688684"><ele>286.0</ele><time>2026-03-29T16:29:43.932Z</time></trkpt><trkpt lat="42.4830476199205" lon="11.915691448263491"><ele>288.0</ele><time>2026-03-29T16:29:44.932Z</time></trkpt><trkpt lat="42.483296568323865" lon="11.91574042008628"><ele>290.0</ele><time>2026-03-29T16:29:45.932Z</time></trkpt><trkpt lat="42.48354167197418" lon="11.915787156759166"><ele>290.0</ele><time>2026-03-29T16:29:46.932Z</time></trkpt><trkpt lat="42.483780812731496" lon="11.915835880595187"><ele>290.0</ele><time>2026-03-29T16:29:47.932Z</time></trkpt><trkpt lat="42.48401916057751" lon="11.915868254950869"><ele>290.0</ele><time>2026-03-29T16:29:48.932Z</time></trkpt><trkpt lat="42.484246229588706" lon="11.915914485259817"><ele>290.0</ele><time>2026-03-29T16:29:49.932Z</time></trkpt><trkpt lat="42.484473945363185" lon="11.915955033733372"><ele>291.0</ele><time>2026-03-29T16:29:50.932Z</time></trkpt><trkpt lat="42.484703055343154" lon="11.915990590485208"><ele>292.0</ele><time>2026-03-29T16:29:51.932Z</time></trkpt><trkpt lat="42.484945201683736" lon="11.91603675986711"><ele>292.0</ele><time>2026-03-29T16:29:52.932Z</time></trkpt><trkpt lat="42.485191403338334" lon="11.916088126313232"><ele>292.0</ele><time>2026-03-29T16:29:53.932Z</time></trkpt><trkpt lat="42.48544648130371" lon="11.916137924699601"><ele>292.5</ele><time>2026-03-29T16:29:54.932Z</time></trkpt><trkpt lat="42.48570521322017" lon="11.91617979446765"><ele>293.0</ele><time>2026-03-29T16:29:55.932Z</time></trkpt><trkpt lat="42.485964196851754" lon="11.91623196336987"><ele>293.0</ele><time>2026-03-29T16:29:56.932Z</time></trkpt><trkpt lat="42.486223065827204" lon="11.916284984261491"><ele>293.0</ele><time>2026-03-29T16:29:57.932Z</time></trkpt><trkpt lat="42.48648764677406" lon="11.916340020241456"><ele>293.5</ele><time>2026-03-29T16:29:58.932Z</time></trkpt><trkpt lat="42.486754434232175" lon="11.916397628394964"><ele>294.0</ele><time>2026-03-29T16:29:59.932Z</time></trkpt><trkpt lat="42.48701420789636" lon="11.916452872811384"><ele>293.5</ele><time>2026-03-29T16:30:00.932Z</time></trkpt><trkpt lat="42.48726863890997" lon="11.916512544770999"><ele>293.0</ele><time>2026-03-29T16:30:01.931Z</time></trkpt><trkpt lat="42.48753255178696" lon="11.916572705980961"><ele>293.0</ele><time>2026-03-29T16:30:02.931Z</time></trkpt><trkpt lat="42.487781820619894" lon="11.916626033640894"><ele>293.0</ele><time>2026-03-29T16:30:03.931Z</time></trkpt><trkpt lat="42.488017742220904" lon="11.916676468868229"><ele>295.0</ele><time>2026-03-29T16:30:04.931Z</time></trkpt><trkpt lat="42.48824003134095" lon="11.916740864500902"><ele>297.0</ele><time>2026-03-29T16:30:05.931Z</time></trkpt><trkpt lat="42.48846698233344" lon="11.916781807890255"><ele>297.0</ele><time>2026-03-29T16:30:06.931Z</time></trkpt><trkpt lat="42.4887014155889" lon="11.91681782089849"><ele>297.0</ele><time>2026-03-29T16:30:07.931Z</time></trkpt><trkpt lat="42.48894643359897" lon="11.916885734001248"><ele>296.5</ele><time>2026-03-29T16:30:08.931Z</time></trkpt><trkpt lat="42.48919442630399" lon="11.91693811537747"><ele>296.0</ele><time>2026-03-29T16:30:09.931Z</time></trkpt><trkpt lat="42.489446085332474" lon="11.917000976541996"><ele>294.5</ele><time>2026-03-29T16:30:10.931Z</time></trkpt><trkpt lat="42.48969416451965" lon="11.917045908300505"><ele>293.0</ele><time>2026-03-29T16:30:11.931Z</time></trkpt><trkpt lat="42.48993893578734" lon="11.917087007627568"><ele>293.0</ele><time>2026-03-29T16:30:12.931Z</time></trkpt><trkpt lat="42.490186581953886" lon="11.917134756984218"><ele>293.0</ele><time>2026-03-29T16:30:13.931Z</time></trkpt><trkpt lat="42.49043540650818" lon="11.917194722266537"><ele>293.5</ele><time>2026-03-29T16:30:14.933Z</time></trkpt><trkpt lat="42.490688144432454" lon="11.917249939222392"><ele>294.0</ele><time>2026-03-29T16:30:15.933Z</time></trkpt><trkpt lat="42.490946520236726" lon="11.91730651804801"><ele>294.0</ele><time>2026-03-29T16:30:16.933Z</time></trkpt><trkpt lat="42.49121262321525" lon="11.917369759329715"><ele>294.0</ele><time>2026-03-29T16:30:17.933Z</time></trkpt><trkpt lat="42.49148530598643" lon="11.917419536090389"><ele>293.5</ele><time>2026-03-29T16:30:18.933Z</time></trkpt><trkpt lat="42.49175696475609" lon="11.917475015895313"><ele>293.0</ele><time>2026-03-29T16:30:19.933Z</time></trkpt><trkpt lat="42.49202808127826" lon="11.917536269313583"><ele>294.5</ele><time>2026-03-29T16:30:20.933Z</time></trkpt><trkpt lat="42.49230097802491" lon="11.91760459501065"><ele>296.0</ele><time>2026-03-29T16:30:21.933Z</time></trkpt><trkpt lat="42.49257150046635" lon="11.917671658517811"><ele>296.0</ele><time>2026-03-29T16:30:22.933Z</time></trkpt><trkpt lat="42.49284132217653" lon="11.917728625416958"><ele>296.0</ele><time>2026-03-29T16:30:23.933Z</time></trkpt><trkpt lat="42.49311538713082" lon="11.917789658318853"><ele>296.0</ele><time>2026-03-29T16:30:24.933Z</time></trkpt><trkpt lat="42.49338844930211" lon="11.917853840928174"><ele>296.0</ele><time>2026-03-29T16:30:25.933Z</time></trkpt><trkpt lat="42.49365714869903" lon="11.917924534537136"><ele>297.0</ele><time>2026-03-29T16:30:26.933Z</time></trkpt><trkpt lat="42.49392836710663" lon="11.917983726701468"><ele>298.0</ele><time>2026-03-29T16:30:27.933Z</time></trkpt><trkpt lat="42.494203203617765" lon="11.918041070911881"><ele>298.0</ele><time>2026-03-29T16:30:28.933Z</time></trkpt><trkpt lat="42.49447663560807" lon="11.918097591283152"><ele>298.0</ele><time>2026-03-29T16:30:29.933Z</time></trkpt><trkpt lat="42.494749979024824" lon="11.91815267601844"><ele>300.0</ele><time>2026-03-29T16:30:30.933Z</time></trkpt><trkpt lat="42.495021262107834" lon="11.91820156325087"><ele>302.0</ele><time>2026-03-29T16:30:31.933Z</time></trkpt><trkpt lat="42.495293971327136" lon="11.918263269464456"><ele>303.0</ele><time>2026-03-29T16:30:32.933Z</time></trkpt><trkpt lat="42.495568345729254" lon="11.918326341128822"><ele>304.0</ele><time>2026-03-29T16:30:33.933Z</time></trkpt><trkpt lat="42.49584137077823" lon="11.91838701073023"><ele>305.0</ele><time>2026-03-29T16:30:34.932Z</time></trkpt><trkpt lat="42.49611958211921" lon="11.918453457177787"><ele>306.0</ele><time>2026-03-29T16:30:35.932Z</time></trkpt><trkpt lat="42.49639551083391" lon="11.91851671904261"><ele>307.0</ele><time>2026-03-29T16:30:36.932Z</time></trkpt><trkpt lat="42.49666961526702" lon="11.91858087599366"><ele>308.0</ele><time>2026-03-29T16:30:37.932Z</time></trkpt><trkpt lat="42.496946740881704" lon="11.918639579040716"><ele>308.5</ele><time>2026-03-29T16:30:38.932Z</time></trkpt><trkpt lat="42.49721957209908" lon="11.91869766398603"><ele>309.0</ele><time>2026-03-29T16:30:39.932Z</time></trkpt><trkpt lat="42.49749507468188" lon="11.918754199685255"><ele>309.0</ele><time>2026-03-29T16:30:40.932Z</time></trkpt><trkpt lat="42.49775554869984" lon="11.918923779597232"><ele>309.0</ele><time>2026-03-29T16:30:41.932Z</time></trkpt><trkpt lat="42.498023544833565" lon="11.91898059106077"><ele>309.5</ele><time>2026-03-29T16:30:42.932Z</time></trkpt><trkpt lat="42.498291141282365" lon="11.919036027980408"><ele>310.0</ele><time>2026-03-29T16:30:43.932Z</time></trkpt><trkpt lat="42.4985589380717" lon="11.91909102208525"><ele>311.0</ele><time>2026-03-29T16:30:44.932Z</time></trkpt><trkpt lat="42.498829150108975" lon="11.919146998892673"><ele>312.0</ele><time>2026-03-29T16:30:45.932Z</time></trkpt><trkpt lat="42.4991011789761" lon="11.919203980750297"><ele>313.5</ele><time>2026-03-29T16:30:46.932Z</time></trkpt><trkpt lat="42.49937456961479" lon="11.919262050609795"><ele>315.0</ele><time>2026-03-29T16:30:47.932Z</time></trkpt><trkpt lat="42.499655674477594" lon="11.919322806681203"><ele>315.0</ele><time>2026-03-29T16:30:48.932Z</time></trkpt><trkpt lat="42.49993277374641" lon="11.9193826970102"><ele>315.0</ele><time>2026-03-29T16:30:49.932Z</time></trkpt><trkpt lat="42.50020331681323" lon="11.919441170326811"><ele>316.5</ele><time>2026-03-29T16:30:50.932Z</time></trkpt><trkpt lat="42.50047960861249" lon="11.919502604430054"><ele>318.0</ele><time>2026-03-29T16:30:51.932Z</time></trkpt><trkpt lat="42.50075387133639" lon="11.919565501006609"><ele>318.0</ele><time>2026-03-29T16:30:52.932Z</time></trkpt><trkpt lat="42.50103130669204" lon="11.919629086329438"><ele>318.0</ele><time>2026-03-29T16:30:53.932Z</time></trkpt><trkpt lat="42.501309900243726" lon="11.919691857319798"><ele>318.5</ele><time>2026-03-29T16:30:54.932Z</time></trkpt><trkpt lat="42.50159096476334" lon="11.919754017524985"><ele>319.0</ele><time>2026-03-29T16:30:55.932Z</time></trkpt><trkpt lat="42.501872732766856" lon="11.919812038083146"><ele>320.0</ele><time>2026-03-29T16:30:56.932Z</time></trkpt><trkpt lat="42.50215343763937" lon="11.9198744764067"><ele>321.0</ele><time>2026-03-29T16:30:57.932Z</time></trkpt><trkpt lat="42.50243089113525" lon="11.919938500420669"><ele>321.0</ele><time>2026-03-29T16:30:58.932Z</time></trkpt><trkpt lat="42.502716935310815" lon="11.92000104916293"><ele>321.0</ele><time>2026-03-29T16:30:59.932Z</time></trkpt><trkpt lat="42.502975649542925" lon="11.920055306117696"><ele>324.0</ele><time>2026-03-29T16:31:00.932Z</time></trkpt><trkpt lat="42.5032239698493" lon="11.920085450727834"><ele>327.0</ele><time>2026-03-29T16:31:01.932Z</time></trkpt><trkpt lat="42.50343877204" lon="11.920153764128147"><ele>327.0</ele><time>2026-03-29T16:31:02.932Z</time></trkpt><trkpt lat="42.50364235885896" lon="11.92019813977102"><ele>327.0</ele><time>2026-03-29T16:31:03.932Z</time></trkpt><trkpt lat="42.50384195742657" lon="11.920241252250177"><ele>327.0</ele><time>2026-03-29T16:31:04.932Z</time></trkpt><trkpt lat="42.5040398393635" lon="11.920266242467935"><ele>327.0</ele><time>2026-03-29T16:31:05.932Z</time></trkpt><trkpt lat="42.50423700274439" lon="11.920303587989727"><ele>327.0</ele><time>2026-03-29T16:31:06.931Z</time></trkpt><trkpt lat="42.50442273407592" lon="11.92035633396294"><ele>327.0</ele><time>2026-03-29T16:31:07.931Z</time></trkpt><trkpt lat="42.504595796486534" lon="11.920377460556942"><ele>327.3333333333333</ele><time>2026-03-29T16:31:08.931Z</time></trkpt><trkpt lat="42.504763296948845" lon="11.920390359051726"><ele>327.66666666666663</ele><time>2026-03-29T16:31:09.931Z</time></trkpt><trkpt lat="42.504927126423745" lon="11.920400653611829"><ele>328.0</ele><time>2026-03-29T16:31:10.931Z</time></trkpt><trkpt lat="42.50509351113252" lon="11.920407105989037"><ele>328.0</ele><time>2026-03-29T16:31:11.931Z</time></trkpt><trkpt lat="42.50526380538447" lon="11.920410031727306"><ele>328.0</ele><time>2026-03-29T16:31:12.931Z</time></trkpt><trkpt lat="42.505430440407764" lon="11.920392417791337"><ele>328.0</ele><time>2026-03-29T16:31:13.931Z</time></trkpt><trkpt lat="42.50561887381306" lon="11.920487607463006"><ele>328.3333333333333</ele><time>2026-03-29T16:31:14.931Z</time></trkpt><trkpt lat="42.505795939216924" lon="11.920549142046973"><ele>328.6666666666667</ele><time>2026-03-29T16:31:15.931Z</time></trkpt><trkpt lat="42.50598068964302" lon="11.920605931788232"><ele>329.0</ele><time>2026-03-29T16:31:16.931Z</time></trkpt><trkpt lat="42.506165509652504" lon="11.920656239610908"><ele>330.0</ele><time>2026-03-29T16:31:17.931Z</time></trkpt><trkpt lat="42.506338069654056" lon="11.920695149280148"><ele>331.0</ele><time>2026-03-29T16:31:18.931Z</time></trkpt><trkpt lat="42.50650460240638" lon="11.920746456009807"><ele>332.0</ele><time>2026-03-29T16:31:19.931Z</time></trkpt><trkpt lat="42.506675719170175" lon="11.920748519619604"><ele>332.0</ele><time>2026-03-29T16:31:20.931Z</time></trkpt><trkpt lat="42.5068418204417" lon="11.92074958252922"><ele>332.0</ele><time>2026-03-29T16:31:21.931Z</time></trkpt><trkpt lat="42.50700880226565" lon="11.92075016341128"><ele>332.0</ele><time>2026-03-29T16:31:22.931Z</time></trkpt><trkpt lat="42.50717912231784" lon="11.920746918700091"><ele>332.33333333333337</ele><time>2026-03-29T16:31:23.931Z</time></trkpt><trkpt lat="42.50735094205099" lon="11.920722603031189"><ele>332.6666666666667</ele><time>2026-03-29T16:31:24.931Z</time></trkpt><trkpt lat="42.50752054021639" lon="11.92073608378296"><ele>333.0</ele><time>2026-03-29T16:31:25.931Z</time></trkpt><trkpt lat="42.50768589000571" lon="11.92073096094843"><ele>333.0</ele><time>2026-03-29T16:31:26.931Z</time></trkpt><trkpt lat="42.50785086334359" lon="11.92073027226494"><ele>333.0</ele><time>2026-03-29T16:31:27.931Z</time></trkpt><trkpt lat="42.50801479167554" lon="11.920724129680488"><ele>333.0</ele><time>2026-03-29T16:31:28.931Z</time></trkpt><trkpt lat="42.50818199997816" lon="11.920714210852502"><ele>333.0</ele><time>2026-03-29T16:31:29.931Z</time></trkpt><trkpt lat="42.50834878069585" lon="11.920704434668227"><ele>333.0</ele><time>2026-03-29T16:31:30.931Z</time></trkpt><trkpt lat="42.50851835383292" lon="11.920697564951235"><ele>333.0</ele><time>2026-03-29T16:31:31.931Z</time></trkpt><trkpt lat="42.508682134552046" lon="11.920695290639726"><ele>333.3333333333333</ele><time>2026-03-29T16:31:32.931Z</time></trkpt><trkpt lat="42.50883856413156" lon="11.920728833568864"><ele>333.66666666666663</ele><time>2026-03-29T16:31:33.931Z</time></trkpt><trkpt lat="42.50899759774817" lon="11.920791936382251"><ele>334.0</ele><time>2026-03-29T16:31:34.931Z</time></trkpt><trkpt lat="42.509166737629535" lon="11.92089229942525"><ele>333.66666666666663</ele><time>2026-03-29T16:31:35.931Z</time></trkpt><trkpt lat="42.50933872385013" lon="11.921020543177077"><ele>333.3333333333333</ele><time>2026-03-29T16:31:36.931Z</time></trkpt><trkpt lat="42.509501209068304" lon="11.9211651479942"><ele>333.0</ele><time>2026-03-29T16:31:37.931Z</time></trkpt><trkpt lat="42.50965747991438" lon="11.92131974035736"><ele>333.6666666666667</ele><time>2026-03-29T16:31:38.931Z</time></trkpt><trkpt lat="42.509813352491264" lon="11.921476189735776"><ele>334.33333333333337</ele><time>2026-03-29T16:31:39.93Z</time></trkpt><trkpt lat="42.5099796446091" lon="11.92162348419766"><ele>335.0</ele><time>2026-03-29T16:31:40.93Z</time></trkpt><trkpt lat="42.51014835030674" lon="11.921747292241538"><ele>335.0</ele><time>2026-03-29T16:31:41.93Z</time></trkpt><trkpt lat="42.5103192557078" lon="11.921866099359807"><ele>335.0</ele><time>2026-03-29T16:31:42.93Z</time></trkpt><trkpt lat="42.51049105772153" lon="11.921995820660811"><ele>335.0</ele><time>2026-03-29T16:31:43.93Z</time></trkpt><trkpt lat="42.51064992600863" lon="11.922117305448364"><ele>335.6666666666667</ele><time>2026-03-29T16:31:44.93Z</time></trkpt><trkpt lat="42.5108197955655" lon="11.92222094253952"><ele>336.3333333333333</ele><time>2026-03-29T16:31:45.93Z</time></trkpt><trkpt lat="42.51097989640591" lon="11.922369129536705"><ele>337.0</ele><time>2026-03-29T16:31:46.93Z</time></trkpt><trkpt lat="42.51114253455137" lon="11.922509594991123"><ele>337.3333333333333</ele><time>2026-03-29T16:31:47.93Z</time></trkpt><trkpt lat="42.511307296808795" lon="11.922654035053126"><ele>337.6666666666667</ele><time>2026-03-29T16:31:48.93Z</time></trkpt><trkpt lat="42.511444584807286" lon="11.922835417483125"><ele>338.0</ele><time>2026-03-29T16:31:49.93Z</time></trkpt><trkpt lat="42.511572660621724" lon="11.92302816520168"><ele>338.0</ele><time>2026-03-29T16:31:50.93Z</time></trkpt><trkpt lat="42.51168528522215" lon="11.923223382582822"><ele>338.0</ele><time>2026-03-29T16:31:51.93Z</time></trkpt><trkpt lat="42.51178432080842" lon="11.923424430861491"><ele>338.0</ele><time>2026-03-29T16:31:52.93Z</time></trkpt><trkpt lat="42.51188178915847" lon="11.923636300543839"><ele>339.33333333333337</ele><time>2026-03-29T16:31:53.93Z</time></trkpt><trkpt lat="42.51197667009373" lon="11.923851192240207"><ele>340.6666666666667</ele><time>2026-03-29T16:31:54.93Z</time></trkpt><trkpt lat="42.512073582722884" lon="11.924045736313595"><ele>342.0</ele><time>2026-03-29T16:31:55.93Z</time></trkpt><trkpt lat="42.51217511453717" lon="11.924223039261957"><ele>343.0</ele><time>2026-03-29T16:31:56.93Z</time></trkpt><trkpt lat="42.51227210372191" lon="11.92439343517512"><ele>344.0</ele><time>2026-03-29T16:31:57.93Z</time></trkpt><trkpt lat="42.51236881207931" lon="11.924556334799485"><ele>345.0</ele><time>2026-03-29T16:31:58.93Z</time></trkpt><trkpt lat="42.51248149238607" lon="11.924722862728593"><ele>345.0</ele><time>2026-03-29T16:31:59.93Z</time></trkpt><trkpt lat="42.512605186947745" lon="11.924878166307128"><ele>345.0</ele><time>2026-03-29T16:32:00.93Z</time></trkpt><trkpt lat="42.5127310774902" lon="11.925022496922573"><ele>345.0</ele><time>2026-03-29T16:32:01.93Z</time></trkpt><trkpt lat="42.51286106226045" lon="11.925155781100083"><ele>344.3333333333333</ele><time>2026-03-29T16:32:02.93Z</time></trkpt><trkpt lat="42.51300308899788" lon="11.925266769930024"><ele>343.66666666666663</ele><time>2026-03-29T16:32:03.93Z</time></trkpt><trkpt lat="42.513126885141624" lon="11.925378415973535"><ele>343.0</ele><time>2026-03-29T16:32:04.93Z</time></trkpt><trkpt lat="42.513242901258735" lon="11.925494175624609"><ele>343.0</ele><time>2026-03-29T16:32:05.93Z</time></trkpt><trkpt lat="42.51335588204989" lon="11.925630763093734"><ele>343.0</ele><time>2026-03-29T16:32:06.93Z</time></trkpt><trkpt lat="42.5134707399993" lon="11.92576393342286"><ele>343.0</ele><time>2026-03-29T16:32:07.93Z</time></trkpt><trkpt lat="42.51358505526236" lon="11.925896154032776"><ele>343.0</ele><time>2026-03-29T16:32:08.93Z</time></trkpt><trkpt lat="42.51369601113557" lon="11.926037049667892"><ele>343.0</ele><time>2026-03-29T16:32:09.93Z</time></trkpt><trkpt lat="42.51382183099884" lon="11.926193436253287"><ele>343.0</ele><time>2026-03-29T16:32:10.93Z</time></trkpt><trkpt lat="42.5139543060299" lon="11.926319868136996"><ele>343.0</ele><time>2026-03-29T16:32:11.929Z</time></trkpt><trkpt lat="42.51409446078175" lon="11.92645139306312"><ele>343.0</ele><time>2026-03-29T16:32:12.929Z</time></trkpt><trkpt lat="42.51424178422229" lon="11.92656321356134"><ele>343.0</ele><time>2026-03-29T16:32:13.929Z</time></trkpt><trkpt lat="42.514390207273316" lon="11.926686456231735"><ele>343.0</ele><time>2026-03-29T16:32:14.929Z</time></trkpt><trkpt lat="42.51454441448476" lon="11.926816791915774"><ele>343.0</ele><time>2026-03-29T16:32:15.929Z</time></trkpt><trkpt lat="42.5146979011441" lon="11.926944602307183"><ele>343.0</ele><time>2026-03-29T16:32:16.929Z</time></trkpt><trkpt lat="42.51485421649123" lon="11.927061566456047"><ele>343.0</ele><time>2026-03-29T16:32:17.929Z</time></trkpt><trkpt lat="42.51501849512533" lon="11.927181123283477"><ele>343.0</ele><time>2026-03-29T16:32:18.929Z</time></trkpt><trkpt lat="42.51518251280557" lon="11.927289818401041"><ele>343.0</ele><time>2026-03-29T16:32:19.931Z</time></trkpt><trkpt lat="42.515346993859005" lon="11.927402770233552"><ele>343.0</ele><time>2026-03-29T16:32:20.931Z</time></trkpt><trkpt lat="42.51551538383271" lon="11.927512144411049"><ele>343.0</ele><time>2026-03-29T16:32:21.931Z</time></trkpt><trkpt lat="42.51568062113235" lon="11.927617851098129"><ele>343.0</ele><time>2026-03-29T16:32:22.931Z</time></trkpt><trkpt lat="42.51584813417275" lon="11.927734562845808"><ele>343.0</ele><time>2026-03-29T16:32:23.932Z</time></trkpt><trkpt lat="42.51602570322445" lon="11.927839821409034"><ele>343.0</ele><time>2026-03-29T16:32:24.931Z</time></trkpt><trkpt lat="42.51620449493221" lon="11.927953227817277"><ele>343.0</ele><time>2026-03-29T16:32:25.931Z</time></trkpt><trkpt lat="42.516368858934584" lon="11.928084782231643"><ele>343.3333333333333</ele><time>2026-03-29T16:32:26.932Z</time></trkpt><trkpt lat="42.51654265915187" lon="11.928199762767202"><ele>343.6666666666667</ele><time>2026-03-29T16:32:27.932Z</time></trkpt><trkpt lat="42.51671577153927" lon="11.928314530301929"><ele>344.0</ele><time>2026-03-29T16:32:28.932Z</time></trkpt><trkpt lat="42.51689307293064" lon="11.928432221085885"><ele>344.0</ele><time>2026-03-29T16:32:29.931Z</time></trkpt><trkpt lat="42.51706841949128" lon="11.928552627599284"><ele>344.0</ele><time>2026-03-29T16:32:30.931Z</time></trkpt><trkpt lat="42.51724158120797" lon="11.928671788955269"><ele>344.0</ele><time>2026-03-29T16:32:31.931Z</time></trkpt><trkpt lat="42.51742085538111" lon="11.9287940629984"><ele>344.6666666666667</ele><time>2026-03-29T16:32:32.931Z</time></trkpt><trkpt lat="42.51760073480943" lon="11.928916749721564"><ele>345.3333333333333</ele><time>2026-03-29T16:32:33.931Z</time></trkpt><trkpt lat="42.51778090967461" lon="11.929040418737355"><ele>346.0</ele><time>2026-03-29T16:32:34.931Z</time></trkpt><trkpt lat="42.517955987238125" lon="11.929161143668749"><ele>346.3333333333333</ele><time>2026-03-29T16:32:35.931Z</time></trkpt><trkpt lat="42.518121127241045" lon="11.92927668903377"><ele>346.6666666666667</ele><time>2026-03-29T16:32:36.931Z</time></trkpt><trkpt lat="42.51828317456125" lon="11.92939032646895"><ele>347.0</ele><time>2026-03-29T16:32:37.931Z</time></trkpt><trkpt lat="42.518448008121496" lon="11.929505004225602"><ele>347.0</ele><time>2026-03-29T16:32:38.931Z</time></trkpt><trkpt lat="42.51861245419789" lon="11.92961332424245"><ele>347.0</ele><time>2026-03-29T16:32:39.931Z</time></trkpt><trkpt lat="42.51877158480431" lon="11.929715267362704"><ele>347.0</ele><time>2026-03-29T16:32:40.931Z</time></trkpt><trkpt lat="42.51892426054124" lon="11.929812016959145"><ele>346.5</ele><time>2026-03-29T16:32:41.931Z</time></trkpt><trkpt lat="42.51905753528513" lon="11.929894904741774"><ele>346.0</ele><time>2026-03-29T16:32:42.931Z</time></trkpt><trkpt lat="42.51919398252582" lon="11.929979638961512"><ele>345.5</ele><time>2026-03-29T16:32:43.931Z</time></trkpt><trkpt lat="42.519330963577794" lon="11.930064254093974"><ele>345.0</ele><time>2026-03-29T16:32:44.93Z</time></trkpt><trkpt lat="42.5194707728822" lon="11.930149231937275"><ele>344.6666666666667</ele><time>2026-03-29T16:32:45.93Z</time></trkpt><trkpt lat="42.51961373820395" lon="11.930236128990138"><ele>344.33333333333337</ele><time>2026-03-29T16:32:46.93Z</time></trkpt><trkpt lat="42.51976393894071" lon="11.930304691611665"><ele>344.0</ele><time>2026-03-29T16:32:47.93Z</time></trkpt><trkpt lat="42.519915358116236" lon="11.930403377886666"><ele>344.0</ele><time>2026-03-29T16:32:48.93Z</time></trkpt><trkpt lat="42.52006459535634" lon="11.9304972677499"><ele>344.0</ele><time>2026-03-29T16:32:49.93Z</time></trkpt><trkpt lat="42.52021186765746" lon="11.930593567086756"><ele>344.0</ele><time>2026-03-29T16:32:50.93Z</time></trkpt><trkpt lat="42.5203619478133" lon="11.93068456865675"><ele>343.6666666666667</ele><time>2026-03-29T16:32:51.93Z</time></trkpt><trkpt lat="42.52051125280858" lon="11.93077377377813"><ele>343.3333333333333</ele><time>2026-03-29T16:32:52.93Z</time></trkpt><trkpt lat="42.520661031717715" lon="11.93088223260697"><ele>343.0</ele><time>2026-03-29T16:32:53.93Z</time></trkpt><trkpt lat="42.52081107057654" lon="11.930979007581946"><ele>343.0</ele><time>2026-03-29T16:32:54.93Z</time></trkpt><trkpt lat="42.5209590654543" lon="11.931076378220004"><ele>343.0</ele><time>2026-03-29T16:32:55.93Z</time></trkpt><trkpt lat="42.52110843166021" lon="11.931180470508721"><ele>343.0</ele><time>2026-03-29T16:32:56.93Z</time></trkpt><trkpt lat="42.52126890259435" lon="11.931296702573388"><ele>342.66666666666663</ele><time>2026-03-29T16:32:57.93Z</time></trkpt><trkpt lat="42.52141124716658" lon="11.93140403001816"><ele>342.3333333333333</ele><time>2026-03-29T16:32:58.93Z</time></trkpt><trkpt lat="42.52156061546986" lon="11.931523084691442"><ele>342.0</ele><time>2026-03-29T16:32:59.93Z</time></trkpt><trkpt lat="42.521702667469384" lon="11.931641625697665"><ele>341.5</ele><time>2026-03-29T16:33:00.93Z</time></trkpt><trkpt lat="42.52183990278895" lon="11.931750155096676"><ele>341.0</ele><time>2026-03-29T16:33:01.93Z</time></trkpt><trkpt lat="42.521974664931484" lon="11.931843576380023"><ele>340.5</ele><time>2026-03-29T16:33:02.93Z</time></trkpt><trkpt lat="42.52209686427939" lon="11.931922109299148"><ele>340.0</ele><time>2026-03-29T16:33:03.93Z</time></trkpt><trkpt lat="42.52223354496567" lon="11.931976267303437"><ele>339.8</ele><time>2026-03-29T16:33:04.93Z</time></trkpt><trkpt lat="42.52232067608738" lon="11.932046682976823"><ele>339.6</ele><time>2026-03-29T16:33:05.93Z</time></trkpt><trkpt lat="42.52241059128496" lon="11.932094814636711"><ele>339.4</ele><time>2026-03-29T16:33:06.93Z</time></trkpt><trkpt lat="42.52250364265245" lon="11.93213063752839"><ele>339.2</ele><time>2026-03-29T16:33:07.93Z</time></trkpt><trkpt lat="42.5226144556392" lon="11.93215780111947"><ele>339.0</ele><time>2026-03-29T16:33:08.93Z</time></trkpt><trkpt lat="42.52273799000595" lon="11.932177378319075"><ele>339.0</ele><time>2026-03-29T16:33:09.93Z</time></trkpt><trkpt lat="42.52286818603426" lon="11.932196148278935"><ele>339.0</ele><time>2026-03-29T16:33:10.93Z</time></trkpt><trkpt lat="42.523016964759464" lon="11.932216712284381"><ele>339.0</ele><time>2026-03-29T16:33:11.93Z</time></trkpt><trkpt lat="42.5231781397594" lon="11.932216947655261"><ele>339.0</ele><time>2026-03-29T16:33:12.93Z</time></trkpt><trkpt lat="42.52333753357194" lon="11.932260875781578"><ele>339.3333333333333</ele><time>2026-03-29T16:33:13.93Z</time></trkpt><trkpt lat="42.52350173997906" lon="11.93228314160549"><ele>339.66666666666663</ele><time>2026-03-29T16:33:14.93Z</time></trkpt><trkpt lat="42.52366693475343" lon="11.932303113960762"><ele>340.0</ele><time>2026-03-29T16:33:15.93Z</time></trkpt><trkpt lat="42.52383786455044" lon="11.932314138440088"><ele>340.0</ele><time>2026-03-29T16:33:16.93Z</time></trkpt><trkpt lat="42.524010033045734" lon="11.932330147856678"><ele>340.0</ele><time>2026-03-29T16:33:17.929Z</time></trkpt><trkpt lat="42.524187806299665" lon="11.93236000264906"><ele>340.0</ele><time>2026-03-29T16:33:18.929Z</time></trkpt><trkpt lat="42.52437354454172" lon="11.9323826701118"><ele>340.0</ele><time>2026-03-29T16:33:19.929Z</time></trkpt><trkpt lat="42.52454987197805" lon="11.932427175939361"><ele>340.0</ele><time>2026-03-29T16:33:20.929Z</time></trkpt><trkpt lat="42.5247247577821" lon="11.932452784458228"><ele>340.0</ele><time>2026-03-29T16:33:21.929Z</time></trkpt><trkpt lat="42.52489130537436" lon="11.932475909224149"><ele>340.3333333333333</ele><time>2026-03-29T16:33:22.929Z</time></trkpt><trkpt lat="42.525062734664644" lon="11.932496864194821"><ele>340.6666666666667</ele><time>2026-03-29T16:33:23.929Z</time></trkpt><trkpt lat="42.525236899136" lon="11.93250766011364"><ele>341.0</ele><time>2026-03-29T16:33:24.929Z</time></trkpt><trkpt lat="42.52541200809131" lon="11.932517859367623"><ele>340.5</ele><time>2026-03-29T16:33:25.929Z</time></trkpt><trkpt lat="42.525570424525604" lon="11.932532387974051"><ele>340.0</ele><time>2026-03-29T16:33:26.929Z</time></trkpt><trkpt lat="42.52571078379549" lon="11.932549677184339"><ele>339.5</ele><time>2026-03-29T16:33:27.929Z</time></trkpt><trkpt lat="42.525834947083126" lon="11.932565933051384"><ele>339.0</ele><time>2026-03-29T16:33:28.929Z</time></trkpt><trkpt lat="42.525941393561595" lon="11.932607258431593"><ele>338.4</ele><time>2026-03-29T16:33:29.929Z</time></trkpt><trkpt lat="42.52602679342404" lon="11.932621526644272"><ele>337.79999999999995</ele><time>2026-03-29T16:33:30.929Z</time></trkpt><trkpt lat="42.52611315594851" lon="11.932632743576685"><ele>337.20000000000005</ele><time>2026-03-29T16:33:31.929Z</time></trkpt><trkpt lat="42.526213765831706" lon="11.932644608774485"><ele>336.6</ele><time>2026-03-29T16:33:32.929Z</time></trkpt><trkpt lat="42.52632428433784" lon="11.932660154884891"><ele>336.0</ele><time>2026-03-29T16:33:33.929Z</time></trkpt><trkpt lat="42.52644641179519" lon="11.932664406634625"><ele>336.0</ele><time>2026-03-29T16:33:34.929Z</time></trkpt><trkpt lat="42.52657642082031" lon="11.932673117987939"><ele>336.0</ele><time>2026-03-29T16:33:35.929Z</time></trkpt><trkpt lat="42.52671624218372" lon="11.932693495125356"><ele>336.0</ele><time>2026-03-29T16:33:36.929Z</time></trkpt><trkpt lat="42.52686856053696" lon="11.932728194444856"><ele>336.0</ele><time>2026-03-29T16:33:37.929Z</time></trkpt><trkpt lat="42.527017821148135" lon="11.932747234262196"><ele>335.5</ele><time>2026-03-29T16:33:38.929Z</time></trkpt><trkpt lat="42.52716016661171" lon="11.932768800312633"><ele>335.0</ele><time>2026-03-29T16:33:39.929Z</time></trkpt><trkpt lat="42.52729869895143" lon="11.932785990847224"><ele>334.5</ele><time>2026-03-29T16:33:40.929Z</time></trkpt><trkpt lat="42.52743571991883" lon="11.932853119320164"><ele>334.0</ele><time>2026-03-29T16:33:41.929Z</time></trkpt><trkpt lat="42.52756133271194" lon="11.932875644095413"><ele>334.0</ele><time>2026-03-29T16:33:42.929Z</time></trkpt><trkpt lat="42.52768460543467" lon="11.932902210455074"><ele>334.0</ele><time>2026-03-29T16:33:43.929Z</time></trkpt><trkpt lat="42.52778118044394" lon="11.932932293931763"><ele>334.0</ele><time>2026-03-29T16:33:44.929Z</time></trkpt><trkpt lat="42.527862374041234" lon="11.932969539572252"><ele>334.0</ele><time>2026-03-29T16:33:45.929Z</time></trkpt><trkpt lat="42.52793213471614" lon="11.933009084702176"><ele>334.0</ele><time>2026-03-29T16:33:46.929Z</time></trkpt><trkpt lat="42.52800824653485" lon="11.933052783200186"><ele>333.25</ele><time>2026-03-29T16:33:49.928Z</time></trkpt><trkpt lat="42.52801698181519" lon="11.93324565826955"><ele>332.5</ele><time>2026-03-29T16:33:51.928Z</time></trkpt><trkpt lat="42.528028902171584" lon="11.933427559194062"><ele>331.75</ele><time>2026-03-29T16:33:52.928Z</time></trkpt><trkpt lat="42.528045690707884" lon="11.9336366981029"><ele>331.0</ele><time>2026-03-29T16:33:53.928Z</time></trkpt><trkpt lat="42.528067173353975" lon="11.933876597540063"><ele>331.0</ele><time>2026-03-29T16:33:54.928Z</time></trkpt><trkpt lat="42.52809286205521" lon="11.934147830283797"><ele>331.0</ele><time>2026-03-29T16:33:55.928Z</time></trkpt><trkpt lat="42.52812086319418" lon="11.934442377068345"><ele>331.0</ele><time>2026-03-29T16:33:56.928Z</time></trkpt><trkpt lat="42.528148833257646" lon="11.93473306281832"><ele>332.0</ele><time>2026-03-29T16:33:57.928Z</time></trkpt><trkpt lat="42.52817654248949" lon="11.935018200636158"><ele>333.0</ele><time>2026-03-29T16:33:58.928Z</time></trkpt><trkpt lat="42.52820362589701" lon="11.935296898194643"><ele>334.0</ele><time>2026-03-29T16:33:59.928Z</time></trkpt><trkpt lat="42.52822989924433" lon="11.935567260041756"><ele>334.3333333333333</ele><time>2026-03-29T16:34:00.928Z</time></trkpt><trkpt lat="42.52825697079192" lon="11.935845835629559"><ele>334.6666666666667</ele><time>2026-03-29T16:34:01.928Z</time></trkpt><trkpt lat="42.528284382163335" lon="11.936127908024268"><ele>335.0</ele><time>2026-03-29T16:34:02.928Z</time></trkpt><trkpt lat="42.52831300047627" lon="11.9364064915799"><ele>335.0</ele><time>2026-03-29T16:34:03.928Z</time></trkpt><trkpt lat="42.52834139134009" lon="11.936682741717734"><ele>335.0</ele><time>2026-03-29T16:34:04.928Z</time></trkpt><trkpt lat="42.52837048686064" lon="11.936965848469175"><ele>335.0</ele><time>2026-03-29T16:34:05.928Z</time></trkpt><trkpt lat="42.52839902439606" lon="11.937248732818711"><ele>335.0</ele><time>2026-03-29T16:34:06.928Z</time></trkpt><trkpt lat="42.528426511074244" lon="11.937529653556387"><ele>335.0</ele><time>2026-03-29T16:34:07.928Z</time></trkpt><trkpt lat="42.52845451646085" lon="11.937811699217184"><ele>335.0</ele><time>2026-03-29T16:34:08.928Z</time></trkpt><trkpt lat="42.528483282993434" lon="11.938092350331596"><ele>335.33333333333337</ele><time>2026-03-29T16:34:09.928Z</time></trkpt><trkpt lat="42.528512591449626" lon="11.93836843148826"><ele>335.6666666666667</ele><time>2026-03-29T16:34:10.928Z</time></trkpt><trkpt lat="42.52853939224191" lon="11.938645354139046"><ele>336.0</ele><time>2026-03-29T16:34:11.928Z</time></trkpt><trkpt lat="42.52855828087227" lon="11.938923517382444"><ele>336.6666666666667</ele><time>2026-03-29T16:34:12.928Z</time></trkpt><trkpt lat="42.52856600714895" lon="11.93920247931691"><ele>337.33333333333337</ele><time>2026-03-29T16:34:13.928Z</time></trkpt><trkpt lat="42.528577427587976" lon="11.939482974936968"><ele>338.0</ele><time>2026-03-29T16:34:14.928Z</time></trkpt><trkpt lat="42.528544151650244" lon="11.939759683303713"><ele>339.33333333333337</ele><time>2026-03-29T16:34:15.928Z</time></trkpt><trkpt lat="42.528521040170695" lon="11.940030442963735"><ele>340.6666666666667</ele><time>2026-03-29T16:34:16.928Z</time></trkpt><trkpt lat="42.52848870846177" lon="11.940294907558684"><ele>342.0</ele><time>2026-03-29T16:34:17.928Z</time></trkpt><trkpt lat="42.52843829125958" lon="11.940545284716725"><ele>342.6666666666667</ele><time>2026-03-29T16:34:18.928Z</time></trkpt><trkpt lat="42.528363845273944" lon="11.940788683017075"><ele>343.33333333333337</ele><time>2026-03-29T16:34:19.928Z</time></trkpt><trkpt lat="42.528293295806556" lon="11.941043962450777"><ele>344.0</ele><time>2026-03-29T16:34:20.928Z</time></trkpt><trkpt lat="42.528191136563855" lon="11.941273423471753"><ele>344.0</ele><time>2026-03-29T16:34:21.928Z</time></trkpt><trkpt lat="42.528097893696525" lon="11.941509292467188"><ele>344.0</ele><time>2026-03-29T16:34:22.927Z</time></trkpt><trkpt lat="42.5280152643617" lon="11.941751724622078"><ele>344.0</ele><time>2026-03-29T16:34:23.927Z</time></trkpt><trkpt lat="42.527904750390974" lon="11.941968237421996"><ele>345.6666666666667</ele><time>2026-03-29T16:34:24.93Z</time></trkpt><trkpt lat="42.52780515565548" lon="11.942191159332683"><ele>347.3333333333333</ele><time>2026-03-29T16:34:25.93Z</time></trkpt><trkpt lat="42.527710103258805" lon="11.94240885046646"><ele>349.0</ele><time>2026-03-29T16:34:26.93Z</time></trkpt><trkpt lat="42.52761470912353" lon="11.94262732429046"><ele>349.3333333333333</ele><time>2026-03-29T16:34:27.93Z</time></trkpt><trkpt lat="42.52752701942472" lon="11.94285953561596"><ele>349.6666666666667</ele><time>2026-03-29T16:34:28.93Z</time></trkpt><trkpt lat="42.52742912095498" lon="11.94307552458764"><ele>350.0</ele><time>2026-03-29T16:34:29.93Z</time></trkpt><trkpt lat="42.52732000307711" lon="11.943286562638251"><ele>350.6666666666667</ele><time>2026-03-29T16:34:30.93Z</time></trkpt><trkpt lat="42.52721733561202" lon="11.94350807549064"><ele>351.3333333333333</ele><time>2026-03-29T16:34:31.93Z</time></trkpt><trkpt lat="42.52710954697697" lon="11.94374044802234"><ele>352.0</ele><time>2026-03-29T16:34:32.93Z</time></trkpt><trkpt lat="42.52699147475783" lon="11.943988475427208"><ele>353.5</ele><time>2026-03-29T16:34:33.929Z</time></trkpt><trkpt lat="42.52685983476057" lon="11.944259231335467"><ele>355.0</ele><time>2026-03-29T16:34:34.93Z</time></trkpt><trkpt lat="42.52671722888562" lon="11.944544199885458"><ele>355.0</ele><time>2026-03-29T16:34:35.93Z</time></trkpt><trkpt lat="42.5265662054619" lon="11.94484414988884"><ele>355.0</ele><time>2026-03-29T16:34:36.93Z</time></trkpt><trkpt lat="42.52642131560208" lon="11.945134973187338"><ele>355.0</ele><time>2026-03-29T16:34:37.929Z</time></trkpt><trkpt lat="42.52627382412577" lon="11.945431029458495"><ele>355.0</ele><time>2026-03-29T16:34:38.929Z</time></trkpt><trkpt lat="42.52612980294757" lon="11.94571803714616"><ele>355.5</ele><time>2026-03-29T16:34:39.929Z</time></trkpt><trkpt lat="42.52598831955363" lon="11.94599998753986"><ele>356.0</ele><time>2026-03-29T16:34:40.929Z</time></trkpt><trkpt lat="42.525850808969345" lon="11.946277056009624"><ele>356.0</ele><time>2026-03-29T16:34:41.929Z</time></trkpt><trkpt lat="42.5257222688544" lon="11.946548008361269"><ele>356.0</ele><time>2026-03-29T16:34:42.929Z</time></trkpt><trkpt lat="42.52560381854864" lon="11.946811600439354"><ele>356.33333333333337</ele><time>2026-03-29T16:34:43.929Z</time></trkpt><trkpt lat="42.52549098053513" lon="11.947071809237492"><ele>356.6666666666667</ele><time>2026-03-29T16:34:44.929Z</time></trkpt><trkpt lat="42.525382412820655" lon="11.947325081526124"><ele>357.0</ele><time>2026-03-29T16:34:45.929Z</time></trkpt><trkpt lat="42.52528749232143" lon="11.947570393144524"><ele>358.3333333333333</ele><time>2026-03-29T16:34:46.929Z</time></trkpt><trkpt lat="42.5252056167166" lon="11.947791586302952"><ele>359.66666666666663</ele><time>2026-03-29T16:34:47.929Z</time></trkpt><trkpt lat="42.52512478532689" lon="11.948016194903573"><ele>361.0</ele><time>2026-03-29T16:34:48.929Z</time></trkpt><trkpt lat="42.52504459256727" lon="11.948241734213507"><ele>361.0</ele><time>2026-03-29T16:34:49.929Z</time></trkpt><trkpt lat="42.52496747968729" lon="11.948487537282134"><ele>361.0</ele><time>2026-03-29T16:34:50.929Z</time></trkpt><trkpt lat="42.52488597470716" lon="11.948746809159314"><ele>361.0</ele><time>2026-03-29T16:34:51.929Z</time></trkpt><trkpt lat="42.524794605396146" lon="11.949020200819945"><ele>362.0</ele><time>2026-03-29T16:34:52.929Z</time></trkpt><trkpt lat="42.524700708478974" lon="11.949306174944134"><ele>363.0</ele><time>2026-03-29T16:34:53.929Z</time></trkpt><trkpt lat="42.524601873683466" lon="11.949607187885979"><ele>365.0</ele><time>2026-03-29T16:34:54.929Z</time></trkpt><trkpt lat="42.524504254723304" lon="11.949910548241549"><ele>367.0</ele><time>2026-03-29T16:34:55.929Z</time></trkpt><trkpt lat="42.52441666511131" lon="11.950210473712517"><ele>367.0</ele><time>2026-03-29T16:34:56.929Z</time></trkpt><trkpt lat="42.52434109616229" lon="11.95050478899727"><ele>367.0</ele><time>2026-03-29T16:34:57.929Z</time></trkpt><trkpt lat="42.5242859907675" lon="11.950777597619565"><ele>367.0</ele><time>2026-03-29T16:34:58.929Z</time></trkpt><trkpt lat="42.52425476291311" lon="11.951041029288442"><ele>367.0</ele><time>2026-03-29T16:34:59.929Z</time></trkpt><trkpt lat="42.5242040012309" lon="11.951298130865482"><ele>367.0</ele><time>2026-03-29T16:35:00.929Z</time></trkpt><trkpt lat="42.524165819321" lon="11.951555277349657"><ele>367.0</ele><time>2026-03-29T16:35:01.929Z</time></trkpt><trkpt lat="42.5241247792376" lon="11.951821794604857"><ele>367.66666666666663</ele><time>2026-03-29T16:35:02.929Z</time></trkpt><trkpt lat="42.52407229174151" lon="11.952088005637162"><ele>368.3333333333333</ele><time>2026-03-29T16:35:03.929Z</time></trkpt><trkpt lat="42.52403060181713" lon="11.95235971362789"><ele>369.0</ele><time>2026-03-29T16:35:04.929Z</time></trkpt><trkpt lat="42.524035970764274" lon="11.952647968742353"><ele>369.3333333333333</ele><time>2026-03-29T16:35:05.929Z</time></trkpt><trkpt lat="42.524023973617254" lon="11.95291682683643"><ele>369.66666666666663</ele><time>2026-03-29T16:35:06.929Z</time></trkpt><trkpt lat="42.52402951782845" lon="11.953171993105382"><ele>370.0</ele><time>2026-03-29T16:35:07.929Z</time></trkpt><trkpt lat="42.5240512869988" lon="11.953423915970742"><ele>371.0</ele><time>2026-03-29T16:35:08.929Z</time></trkpt><trkpt lat="42.52408395386895" lon="11.953665598075563"><ele>372.0</ele><time>2026-03-29T16:35:09.928Z</time></trkpt><trkpt lat="42.52411209455257" lon="11.95389330750532"><ele>373.0</ele><time>2026-03-29T16:35:10.928Z</time></trkpt><trkpt lat="42.52413600947089" lon="11.954111474037118"><ele>374.66666666666663</ele><time>2026-03-29T16:35:11.928Z</time></trkpt><trkpt lat="42.52416082796704" lon="11.954316171298265"><ele>376.3333333333333</ele><time>2026-03-29T16:35:12.928Z</time></trkpt><trkpt lat="42.52418257109252" lon="11.954514467386916"><ele>378.0</ele><time>2026-03-29T16:35:13.928Z</time></trkpt><trkpt lat="42.52419802325038" lon="11.954721484177748"><ele>378.0</ele><time>2026-03-29T16:35:14.928Z</time></trkpt><trkpt lat="42.52419174518537" lon="11.954933749799755"><ele>378.0</ele><time>2026-03-29T16:35:15.928Z</time></trkpt><trkpt lat="42.52417664721672" lon="11.955145977936436"><ele>378.0</ele><time>2026-03-29T16:35:16.928Z</time></trkpt><trkpt lat="42.52414757990206" lon="11.955356623526718"><ele>379.0</ele><time>2026-03-29T16:35:17.928Z</time></trkpt><trkpt lat="42.5241069659477" lon="11.955574495708271"><ele>380.0</ele><time>2026-03-29T16:35:18.928Z</time></trkpt><trkpt lat="42.5240746400301" lon="11.955791432177378"><ele>381.0</ele><time>2026-03-29T16:35:19.928Z</time></trkpt><trkpt lat="42.52403920514046" lon="11.956015744810843"><ele>381.3333333333333</ele><time>2026-03-29T16:35:20.928Z</time></trkpt><trkpt lat="42.52400578896637" lon="11.956254671806128"><ele>381.66666666666663</ele><time>2026-03-29T16:35:21.928Z</time></trkpt><trkpt lat="42.52396176716974" lon="11.956499491480459"><ele>382.0</ele><time>2026-03-29T16:35:22.928Z</time></trkpt><trkpt lat="42.52393012176308" lon="11.956740917664838"><ele>381.3333333333333</ele><time>2026-03-29T16:35:23.928Z</time></trkpt><trkpt lat="42.52389946363094" lon="11.956986698441478"><ele>380.6666666666667</ele><time>2026-03-29T16:35:24.928Z</time></trkpt><trkpt lat="42.52387680807874" lon="11.957234943991145"><ele>380.0</ele><time>2026-03-29T16:35:25.928Z</time></trkpt><trkpt lat="42.52387293839999" lon="11.957475984264427"><ele>379.33333333333337</ele><time>2026-03-29T16:35:26.928Z</time></trkpt><trkpt lat="42.523886153569315" lon="11.957711864935558"><ele>378.6666666666667</ele><time>2026-03-29T16:35:27.928Z</time></trkpt><trkpt lat="42.52390154356307" lon="11.957951491326973"><ele>378.0</ele><time>2026-03-29T16:35:28.928Z</time></trkpt><trkpt lat="42.52391861538991" lon="11.958208563081154"><ele>376.6666666666667</ele><time>2026-03-29T16:35:29.928Z</time></trkpt><trkpt lat="42.52395329673466" lon="11.95848346974509"><ele>375.33333333333337</ele><time>2026-03-29T16:35:30.928Z</time></trkpt><trkpt lat="42.52398201530134" lon="11.958786954736967"><ele>374.0</ele><time>2026-03-29T16:35:31.928Z</time></trkpt><trkpt lat="42.52400890433643" lon="11.95911793699112"><ele>375.0</ele><time>2026-03-29T16:35:32.928Z</time></trkpt><trkpt lat="42.52402905600192" lon="11.959461589345334"><ele>376.0</ele><time>2026-03-29T16:35:33.928Z</time></trkpt><trkpt lat="42.52405169966905" lon="11.959794178326929"><ele>377.0</ele><time>2026-03-29T16:35:34.928Z</time></trkpt><trkpt lat="42.52407421963008" lon="11.960122132738732"><ele>378.0</ele><time>2026-03-29T16:35:35.928Z</time></trkpt><trkpt lat="42.52410427028478" lon="11.960441616757008"><ele>378.0</ele><time>2026-03-29T16:35:36.928Z</time></trkpt><trkpt lat="42.52414072708327" lon="11.960761026038936"><ele>378.0</ele><time>2026-03-29T16:35:37.928Z</time></trkpt><trkpt lat="42.52417125178747" lon="11.961072261481355"><ele>377.6666666666667</ele><time>2026-03-29T16:35:38.928Z</time></trkpt><trkpt lat="42.52421325411817" lon="11.961365684870882"><ele>377.33333333333337</ele><time>2026-03-29T16:35:39.928Z</time></trkpt><trkpt lat="42.524251606176215" lon="11.961643735791428"><ele>377.0</ele><time>2026-03-29T16:35:40.928Z</time></trkpt><trkpt lat="42.524293225067844" lon="11.961905262366885"><ele>376.0</ele><time>2026-03-29T16:35:41.928Z</time></trkpt><trkpt lat="42.52432145921088" lon="11.962132265393967"><ele>375.0</ele><time>2026-03-29T16:35:42.927Z</time></trkpt><trkpt lat="42.52435445421882" lon="11.962343058335936"><ele>374.0</ele><time>2026-03-29T16:35:43.927Z</time></trkpt><trkpt lat="42.52438161209262" lon="11.962540791269628"><ele>373.6666666666667</ele><time>2026-03-29T16:35:44.927Z</time></trkpt><trkpt lat="42.52440054077898" lon="11.96274218513291"><ele>373.3333333333333</ele><time>2026-03-29T16:35:45.927Z</time></trkpt><trkpt lat="42.52444687549558" lon="11.962955830496263"><ele>373.0</ele><time>2026-03-29T16:35:46.927Z</time></trkpt><trkpt lat="42.524485445961005" lon="11.963205576984109"><ele>372.3333333333333</ele><time>2026-03-29T16:35:47.927Z</time></trkpt><trkpt lat="42.524537222434425" lon="11.9634825772356"><ele>371.6666666666667</ele><time>2026-03-29T16:35:48.927Z</time></trkpt><trkpt lat="42.52456170300373" lon="11.96379520659544"><ele>371.0</ele><time>2026-03-29T16:35:49.927Z</time></trkpt><trkpt lat="42.52455725955823" lon="11.964113937366635"><ele>371.5</ele><time>2026-03-29T16:35:50.927Z</time></trkpt><trkpt lat="42.52453400780038" lon="11.96443407707219"><ele>372.0</ele><time>2026-03-29T16:35:51.927Z</time></trkpt><trkpt lat="42.524480635944904" lon="11.964762703573816"><ele>374.5</ele><time>2026-03-29T16:35:52.927Z</time></trkpt><trkpt lat="42.524409564530835" lon="11.965081051231532"><ele>377.0</ele><time>2026-03-29T16:35:53.927Z</time></trkpt><trkpt lat="42.52433425073897" lon="11.965397252496972"><ele>377.0</ele><time>2026-03-29T16:35:54.927Z</time></trkpt><trkpt lat="42.524266769127365" lon="11.965696758696717"><ele>377.0</ele><time>2026-03-29T16:35:55.927Z</time></trkpt><trkpt lat="42.52418612561495" lon="11.96598203942087"><ele>378.0</ele><time>2026-03-29T16:35:56.927Z</time></trkpt><trkpt lat="42.52412830373883" lon="11.966241183800808"><ele>379.0</ele><time>2026-03-29T16:35:57.927Z</time></trkpt><trkpt lat="42.52405038956567" lon="11.966470122538928"><ele>380.0</ele><time>2026-03-29T16:35:58.927Z</time></trkpt><trkpt lat="42.52397592943532" lon="11.966668355825455"><ele>381.0</ele><time>2026-03-29T16:35:59.927Z</time></trkpt><trkpt lat="42.52390362465429" lon="11.966846640988216"><ele>382.0</ele><time>2026-03-29T16:36:00.927Z</time></trkpt><trkpt lat="42.523884276269385" lon="11.967011910759556"><ele>383.0</ele><time>2026-03-29T16:36:01.927Z</time></trkpt><trkpt lat="42.52388866787117" lon="11.967175373114143"><ele>384.0</ele><time>2026-03-29T16:36:02.927Z</time></trkpt><trkpt lat="42.52391226810815" lon="11.96735273003469"><ele>386.66666666666663</ele><time>2026-03-29T16:36:03.927Z</time></trkpt><trkpt lat="42.5239201026044" lon="11.967554727531887"><ele>389.3333333333333</ele><time>2026-03-29T16:36:04.927Z</time></trkpt><trkpt lat="42.52390455721577" lon="11.967767383040904"><ele>392.0</ele><time>2026-03-29T16:36:05.927Z</time></trkpt><trkpt lat="42.523833513789974" lon="11.967997404689719"><ele>392.0</ele><time>2026-03-29T16:36:06.927Z</time></trkpt><trkpt lat="42.52374140196031" lon="11.968225872812058"><ele>392.0</ele><time>2026-03-29T16:36:07.927Z</time></trkpt><trkpt lat="42.523621598129424" lon="11.968455092183245"><ele>392.0</ele><time>2026-03-29T16:36:08.927Z</time></trkpt><trkpt lat="42.52348063091489" lon="11.968683177426797"><ele>393.0</ele><time>2026-03-29T16:36:09.927Z</time></trkpt><trkpt lat="42.523294990686544" lon="11.968886774411096"><ele>394.0</ele><time>2026-03-29T16:36:10.927Z</time></trkpt><trkpt lat="42.523146599847415" lon="11.969125858565612"><ele>393.6666666666667</ele><time>2026-03-29T16:36:11.927Z</time></trkpt><trkpt lat="42.523009092008124" lon="11.969357896851482"><ele>393.33333333333337</ele><time>2026-03-29T16:36:12.927Z</time></trkpt><trkpt lat="42.52288863353786" lon="11.969606744913605"><ele>393.0</ele><time>2026-03-29T16:36:13.927Z</time></trkpt><trkpt lat="42.522791677711744" lon="11.969865590598758"><ele>394.0</ele><time>2026-03-29T16:36:14.926Z</time></trkpt><trkpt lat="42.522714584239" lon="11.970127086582131"><ele>395.0</ele><time>2026-03-29T16:36:15.926Z</time></trkpt><trkpt lat="42.522661243358144" lon="11.970409670447872"><ele>396.0</ele><time>2026-03-29T16:36:16.926Z</time></trkpt><trkpt lat="42.522635940631055" lon="11.970708167465197"><ele>397.0</ele><time>2026-03-29T16:36:17.926Z</time></trkpt><trkpt lat="42.522619190630415" lon="11.97101450503459"><ele>398.0</ele><time>2026-03-29T16:36:18.926Z</time></trkpt><trkpt lat="42.52260163159804" lon="11.97134432157673"><ele>398.0</ele><time>2026-03-29T16:36:19.926Z</time></trkpt><trkpt lat="42.522586063351454" lon="11.97167754846671"><ele>398.0</ele><time>2026-03-29T16:36:20.926Z</time></trkpt><trkpt lat="42.522568358914235" lon="11.972015436796807"><ele>401.0</ele><time>2026-03-29T16:36:21.926Z</time></trkpt><trkpt lat="42.52255004537405" lon="11.972335954591873"><ele>404.0</ele><time>2026-03-29T16:36:22.926Z</time></trkpt><trkpt lat="42.52252051443587" lon="11.972639774501776"><ele>405.0</ele><time>2026-03-29T16:36:23.926Z</time></trkpt><trkpt lat="42.52247218150859" lon="11.972934147595971"><ele>406.0</ele><time>2026-03-29T16:36:24.926Z</time></trkpt><trkpt lat="42.52240437539776" lon="11.973227806632586"><ele>407.0</ele><time>2026-03-29T16:36:25.926Z</time></trkpt><trkpt lat="42.52232537307016" lon="11.973502839730141"><ele>407.66666666666663</ele><time>2026-03-29T16:36:26.926Z</time></trkpt><trkpt lat="42.52222742506426" lon="11.973768857698337"><ele>408.33333333333337</ele><time>2026-03-29T16:36:27.926Z</time></trkpt><trkpt lat="42.52211921518126" lon="11.974035715943087"><ele>409.0</ele><time>2026-03-29T16:36:28.926Z</time></trkpt><trkpt lat="42.522017662405304" lon="11.97427533006957"><ele>409.0</ele><time>2026-03-29T16:36:29.926Z</time></trkpt><trkpt lat="42.52192662556121" lon="11.97449850909288"><ele>409.0</ele><time>2026-03-29T16:36:30.928Z</time></trkpt><trkpt lat="42.52185217314143" lon="11.974708626041574"><ele>409.0</ele><time>2026-03-29T16:36:31.929Z</time></trkpt><trkpt lat="42.52181554987412" lon="11.974940676696558"><ele>409.6666666666667</ele><time>2026-03-29T16:36:32.929Z</time></trkpt><trkpt lat="42.52182763953514" lon="11.975172550387517"><ele>410.33333333333337</ele><time>2026-03-29T16:36:33.928Z</time></trkpt><trkpt lat="42.52186005131901" lon="11.975393902002745"><ele>411.0</ele><time>2026-03-29T16:36:34.929Z</time></trkpt><trkpt lat="42.52193153758322" lon="11.975598326746015"><ele>411.0</ele><time>2026-03-29T16:36:35.929Z</time></trkpt><trkpt lat="42.52203460561894" lon="11.975774729789807"><ele>411.0</ele><time>2026-03-29T16:36:36.928Z</time></trkpt><trkpt lat="42.52216155980678" lon="11.975914549082692"><ele>411.0</ele><time>2026-03-29T16:36:37.929Z</time></trkpt><trkpt lat="42.52232484335972" lon="11.976028967312491"><ele>410.66666666666663</ele><time>2026-03-29T16:36:38.928Z</time></trkpt><trkpt lat="42.5224998962982" lon="11.976137197888475"><ele>410.3333333333333</ele><time>2026-03-29T16:36:39.928Z</time></trkpt><trkpt lat="42.52268089269152" lon="11.97626655644755"><ele>410.0</ele><time>2026-03-29T16:36:40.928Z</time></trkpt><trkpt lat="42.52286340683863" lon="11.976404146301913"><ele>413.0</ele><time>2026-03-29T16:36:41.928Z</time></trkpt><trkpt lat="42.523063836869134" lon="11.976528991312549"><ele>416.0</ele><time>2026-03-29T16:36:42.928Z</time></trkpt><trkpt lat="42.52325823537931" lon="11.976682246657933"><ele>419.0</ele><time>2026-03-29T16:36:43.928Z</time></trkpt><trkpt lat="42.52344326495632" lon="11.976817063015352"><ele>419.0</ele><time>2026-03-29T16:36:44.928Z</time></trkpt><trkpt lat="42.52361337652544" lon="11.976956889910998"><ele>419.0</ele><time>2026-03-29T16:36:45.928Z</time></trkpt><trkpt lat="42.52374918113052" lon="11.977125494997768"><ele>419.0</ele><time>2026-03-29T16:36:46.928Z</time></trkpt><trkpt lat="42.523854489738945" lon="11.97731561750178"><ele>422.0</ele><time>2026-03-29T16:36:47.928Z</time></trkpt><trkpt lat="42.52395328772103" lon="11.977528705535004"><ele>425.0</ele><time>2026-03-29T16:36:48.928Z</time></trkpt><trkpt lat="42.524048124938844" lon="11.977742420099045"><ele>428.0</ele><time>2026-03-29T16:36:49.928Z</time></trkpt><trkpt lat="42.524150363042054" lon="11.977971211998055"><ele>428.0</ele><time>2026-03-29T16:36:50.928Z</time></trkpt><trkpt lat="42.52425913454989" lon="11.978210693946421"><ele>428.0</ele><time>2026-03-29T16:36:51.928Z</time></trkpt><trkpt lat="42.524370741159444" lon="11.978458692092774"><ele>428.0</ele><time>2026-03-29T16:36:52.928Z</time></trkpt><trkpt lat="42.52448831377159" lon="11.97872056092105"><ele>429.3333333333333</ele><time>2026-03-29T16:36:53.928Z</time></trkpt><trkpt lat="42.52460235257764" lon="11.97897217454801"><ele>430.66666666666663</ele><time>2026-03-29T16:36:54.928Z</time></trkpt><trkpt lat="42.52471379724116" lon="11.979221240470912"><ele>432.0</ele><time>2026-03-29T16:36:55.928Z</time></trkpt><trkpt lat="42.52482387692978" lon="11.97944999851831"><ele>433.66666666666663</ele><time>2026-03-29T16:36:56.928Z</time></trkpt><trkpt lat="42.52495261191707" lon="11.979672248489901"><ele>435.3333333333333</ele><time>2026-03-29T16:36:57.928Z</time></trkpt><trkpt lat="42.52509146180124" lon="11.97988085269073"><ele>437.0</ele><time>2026-03-29T16:36:58.928Z</time></trkpt><trkpt lat="42.52524861141024" lon="11.98010457758502"><ele>441.5</ele><time>2026-03-29T16:36:59.928Z</time></trkpt><trkpt lat="42.525409344139305" lon="11.980329903738555"><ele>446.0</ele><time>2026-03-29T16:37:00.928Z</time></trkpt><trkpt lat="42.525564690954646" lon="11.980547039952665"><ele>446.0</ele><time>2026-03-29T16:37:01.927Z</time></trkpt><trkpt lat="42.5257128155441" lon="11.980757775186598"><ele>446.0</ele><time>2026-03-29T16:37:02.927Z</time></trkpt><trkpt lat="42.525863328564256" lon="11.980938375348304"><ele>446.0</ele><time>2026-03-29T16:37:03.927Z</time></trkpt><trkpt lat="42.52599829121505" lon="11.981144295035095"><ele>445.66666666666663</ele><time>2026-03-29T16:37:04.927Z</time></trkpt><trkpt lat="42.52612669289828" lon="11.981352667952422"><ele>445.33333333333337</ele><time>2026-03-29T16:37:05.927Z</time></trkpt><trkpt lat="42.52623702430345" lon="11.98157561373781"><ele>445.0</ele><time>2026-03-29T16:37:06.927Z</time></trkpt><trkpt lat="42.526337346695826" lon="11.981811833465748"><ele>446.33333333333337</ele><time>2026-03-29T16:37:07.927Z</time></trkpt><trkpt lat="42.526395636429925" lon="11.98207549948709"><ele>447.66666666666663</ele><time>2026-03-29T16:37:08.927Z</time></trkpt><trkpt lat="42.526464881652835" lon="11.982318060211671"><ele>449.0</ele><time>2026-03-29T16:37:09.927Z</time></trkpt><trkpt lat="42.526512434529465" lon="11.982550073695949"><ele>449.0</ele><time>2026-03-29T16:37:10.927Z</time></trkpt><trkpt lat="42.52656043498901" lon="11.98275961600914"><ele>449.0</ele><time>2026-03-29T16:37:11.927Z</time></trkpt><trkpt lat="42.52660733292733" lon="11.982958916568451"><ele>449.0</ele><time>2026-03-29T16:37:12.927Z</time></trkpt><trkpt lat="42.526643250255816" lon="11.98315585874859"><ele>449.0</ele><time>2026-03-29T16:37:13.927Z</time></trkpt><trkpt lat="42.52668526138516" lon="11.983329544809482"><ele>449.0</ele><time>2026-03-29T16:37:14.927Z</time></trkpt><trkpt lat="42.52673904371742" lon="11.983509178677549"><ele>449.0</ele><time>2026-03-29T16:37:15.927Z</time></trkpt><trkpt lat="42.52681832789307" lon="11.983675539426839"><ele>449.0</ele><time>2026-03-29T16:37:16.927Z</time></trkpt><trkpt lat="42.526915221953004" lon="11.983843499531037"><ele>448.3333333333333</ele><time>2026-03-29T16:37:17.927Z</time></trkpt><trkpt lat="42.527024609071674" lon="11.983999298728014"><ele>447.66666666666663</ele><time>2026-03-29T16:37:18.927Z</time></trkpt><trkpt lat="42.52714089157009" lon="11.98413442620734"><ele>447.0</ele><time>2026-03-29T16:37:19.927Z</time></trkpt><trkpt lat="42.527255373440696" lon="11.98427249911522"><ele>446.66666666666663</ele><time>2026-03-29T16:37:20.927Z</time></trkpt><trkpt lat="42.52736158518887" lon="11.984426504615206"><ele>446.3333333333333</ele><time>2026-03-29T16:37:21.927Z</time></trkpt><trkpt lat="42.527433226975226" lon="11.98461160074866"><ele>446.0</ele><time>2026-03-29T16:37:22.927Z</time></trkpt><trkpt lat="42.52751176433013" lon="11.984781834911274"><ele>446.0</ele><time>2026-03-29T16:37:23.927Z</time></trkpt><trkpt lat="42.52756455962222" lon="11.984995232106815"><ele>446.0</ele><time>2026-03-29T16:37:24.927Z</time></trkpt><trkpt lat="42.52759801907494" lon="11.985226334678096"><ele>446.0</ele><time>2026-03-29T16:37:25.927Z</time></trkpt><trkpt lat="42.527620287010436" lon="11.985478540670481"><ele>446.0</ele><time>2026-03-29T16:37:26.927Z</time></trkpt><trkpt lat="42.52762537475852" lon="11.985759805447298"><ele>446.0</ele><time>2026-03-29T16:37:27.927Z</time></trkpt><trkpt lat="42.527615149014544" lon="11.986096054227854"><ele>447.5</ele><time>2026-03-29T16:37:28.927Z</time></trkpt><trkpt lat="42.52762639185797" lon="11.986456682105109"><ele>449.0</ele><time>2026-03-29T16:37:29.927Z</time></trkpt><trkpt lat="42.52763882525324" lon="11.986826831997188"><ele>449.5</ele><time>2026-03-29T16:37:30.927Z</time></trkpt><trkpt lat="42.52763867156431" lon="11.987221652153307"><ele>450.0</ele><time>2026-03-29T16:37:31.927Z</time></trkpt><trkpt lat="42.52764542824458" lon="11.987624682817414"><ele>451.0</ele><time>2026-03-29T16:37:32.927Z</time></trkpt><trkpt lat="42.52766219623753" lon="11.988016854511116"><ele>452.0</ele><time>2026-03-29T16:37:33.927Z</time></trkpt><trkpt lat="42.52767573049378" lon="11.988376105117965"><ele>453.5</ele><time>2026-03-29T16:37:34.926Z</time></trkpt><trkpt lat="42.527689303430314" lon="11.98872955856357"><ele>455.0</ele><time>2026-03-29T16:37:35.926Z</time></trkpt><trkpt lat="42.52771122676491" lon="11.9890579288551"><ele>456.0</ele><time>2026-03-29T16:37:36.926Z</time></trkpt><trkpt lat="42.52772975230788" lon="11.989382730585497"><ele>457.0</ele><time>2026-03-29T16:37:37.926Z</time></trkpt><trkpt lat="42.52774691497292" lon="11.989688676559005"><ele>457.0</ele><time>2026-03-29T16:37:38.926Z</time></trkpt><trkpt lat="42.527768896410166" lon="11.989967371772579"><ele>457.0</ele><time>2026-03-29T16:37:39.926Z</time></trkpt><trkpt lat="42.527779583711315" lon="11.990242806565737"><ele>457.0</ele><time>2026-03-29T16:37:40.926Z</time></trkpt><trkpt lat="42.527791395032324" lon="11.990506505281045"><ele>457.0</ele><time>2026-03-29T16:37:41.926Z</time></trkpt><trkpt lat="42.527808384172225" lon="11.990760424520792"><ele>457.0</ele><time>2026-03-29T16:37:42.926Z</time></trkpt><trkpt lat="42.52781799827094" lon="11.991005109522856"><ele>457.0</ele><time>2026-03-29T16:37:43.926Z</time></trkpt><trkpt lat="42.527816640183175" lon="11.99125316870461"><ele>458.0</ele><time>2026-03-29T16:37:44.926Z</time></trkpt><trkpt lat="42.52778079141836" lon="11.991490856466985"><ele>459.0</ele><time>2026-03-29T16:37:45.926Z</time></trkpt><trkpt lat="42.52772698576257" lon="11.991727210680901"><ele>460.0</ele><time>2026-03-29T16:37:46.926Z</time></trkpt><trkpt lat="42.527642461038155" lon="11.991946310397987"><ele>461.33333333333337</ele><time>2026-03-29T16:37:47.926Z</time></trkpt><trkpt lat="42.52752716111683" lon="11.99215790432158"><ele>462.66666666666663</ele><time>2026-03-29T16:37:48.926Z</time></trkpt><trkpt lat="42.52740794938916" lon="11.99236349829516"><ele>464.0</ele><time>2026-03-29T16:37:49.926Z</time></trkpt><trkpt lat="42.527250315289095" lon="11.992580507973292"><ele>468.0</ele><time>2026-03-29T16:37:50.926Z</time></trkpt><trkpt lat="42.52706442044185" lon="11.992807436057353"><ele>472.0</ele><time>2026-03-29T16:37:51.926Z</time></trkpt><trkpt lat="42.52690518755916" lon="11.993035255655967"><ele>472.0</ele><time>2026-03-29T16:37:52.926Z</time></trkpt><trkpt lat="42.526754603129845" lon="11.993251523029747"><ele>472.0</ele><time>2026-03-29T16:37:53.926Z</time></trkpt><trkpt lat="42.526600809869414" lon="11.993461692955794"><ele>472.0</ele><time>2026-03-29T16:37:54.926Z</time></trkpt><trkpt lat="42.52648940418224" lon="11.993674288667133"><ele>473.6666666666667</ele><time>2026-03-29T16:37:55.926Z</time></trkpt><trkpt lat="42.52639133682333" lon="11.993912593530666"><ele>475.33333333333337</ele><time>2026-03-29T16:37:56.926Z</time></trkpt><trkpt lat="42.52633172784183" lon="11.994168983395031"><ele>477.0</ele><time>2026-03-29T16:37:57.926Z</time></trkpt><trkpt lat="42.526297655733046" lon="11.994438113445282"><ele>477.5</ele><time>2026-03-29T16:37:58.926Z</time></trkpt><trkpt lat="42.526278333342766" lon="11.994736948372015"><ele>478.0</ele><time>2026-03-29T16:37:59.926Z</time></trkpt><trkpt lat="42.52626836116217" lon="11.995052195762435"><ele>478.0</ele><time>2026-03-29T16:38:00.926Z</time></trkpt><trkpt lat="42.526256405594815" lon="11.995398291932073"><ele>478.0</ele><time>2026-03-29T16:38:01.926Z</time></trkpt><trkpt lat="42.52623697544608" lon="11.995751083794106"><ele>479.0</ele><time>2026-03-29T16:38:02.926Z</time></trkpt><trkpt lat="42.52621255704484" lon="11.996087904627695"><ele>480.0</ele><time>2026-03-29T16:38:03.926Z</time></trkpt><trkpt lat="42.52619662698983" lon="11.996418190234378"><ele>480.5</ele><time>2026-03-29T16:38:04.926Z</time></trkpt><trkpt lat="42.526184868227745" lon="11.99673622159033"><ele>481.0</ele><time>2026-03-29T16:38:05.926Z</time></trkpt><trkpt lat="42.52617998292766" lon="11.997044525639277"><ele>481.0</ele><time>2026-03-29T16:38:06.926Z</time></trkpt><trkpt lat="42.526214571432085" lon="11.997341105006909"><ele>481.0</ele><time>2026-03-29T16:38:07.925Z</time></trkpt><trkpt lat="42.52625499339091" lon="11.997618209737533"><ele>481.0</ele><time>2026-03-29T16:38:08.925Z</time></trkpt><trkpt lat="42.52631394634116" lon="11.997878062858314"><ele>481.6666666666667</ele><time>2026-03-29T16:38:09.925Z</time></trkpt><trkpt lat="42.526362697983714" lon="11.998128812986886"><ele>482.33333333333337</ele><time>2026-03-29T16:38:10.925Z</time></trkpt><trkpt lat="42.5264135676748" lon="11.998371686765955"><ele>483.0</ele><time>2026-03-29T16:38:11.925Z</time></trkpt><trkpt lat="42.526455962248924" lon="11.998617578868199"><ele>484.0</ele><time>2026-03-29T16:38:12.925Z</time></trkpt><trkpt lat="42.5264953281842" lon="11.998868338041007"><ele>485.0</ele><time>2026-03-29T16:38:13.925Z</time></trkpt><trkpt lat="42.526512478394785" lon="11.999138154391815"><ele>486.0</ele><time>2026-03-29T16:38:14.925Z</time></trkpt><trkpt lat="42.52650464947021" lon="11.999431242913088"><ele>488.0</ele><time>2026-03-29T16:38:15.925Z</time></trkpt><trkpt lat="42.52649124240649" lon="11.999744690519746"><ele>490.0</ele><time>2026-03-29T16:38:16.925Z</time></trkpt><trkpt lat="42.52646189967511" lon="12.000084581860646"><ele>490.0</ele><time>2026-03-29T16:38:17.925Z</time></trkpt><trkpt lat="42.52642533956295" lon="12.000429682415005"><ele>490.0</ele><time>2026-03-29T16:38:18.925Z</time></trkpt><trkpt lat="42.52637039215102" lon="12.000754356128526"><ele>492.5</ele><time>2026-03-29T16:38:19.925Z</time></trkpt><trkpt lat="42.526368623026336" lon="12.001088244811873"><ele>495.0</ele><time>2026-03-29T16:38:20.925Z</time></trkpt><trkpt lat="42.52639053821232" lon="12.001417214042865"><ele>498.0</ele><time>2026-03-29T16:38:21.925Z</time></trkpt><trkpt lat="42.52642893051356" lon="12.001736974549114"><ele>501.0</ele><time>2026-03-29T16:38:22.925Z</time></trkpt><trkpt lat="42.52647045929409" lon="12.002069963969966"><ele>501.0</ele><time>2026-03-29T16:38:23.925Z</time></trkpt><trkpt lat="42.52651159464975" lon="12.002399244341833"><ele>501.0</ele><time>2026-03-29T16:38:24.925Z</time></trkpt><trkpt lat="42.52655215115026" lon="12.002723890123882"><ele>502.5</ele><time>2026-03-29T16:38:25.925Z</time></trkpt><trkpt lat="42.52659128026157" lon="12.003048838758142"><ele>504.0</ele><time>2026-03-29T16:38:26.925Z</time></trkpt><trkpt lat="42.526626066776416" lon="12.003362093559097"><ele>504.33333333333337</ele><time>2026-03-29T16:38:27.925Z</time></trkpt><trkpt lat="42.526659616694694" lon="12.003664211687974"><ele>504.6666666666667</ele><time>2026-03-29T16:38:28.925Z</time></trkpt><trkpt lat="42.526693561090276" lon="12.003959221095034"><ele>505.0</ele><time>2026-03-29T16:38:29.925Z</time></trkpt><trkpt lat="42.5267344271065" lon="12.00426390226445"><ele>506.0</ele><time>2026-03-29T16:38:30.925Z</time></trkpt><trkpt lat="42.526785996336166" lon="12.004569285150923"><ele>507.0</ele><time>2026-03-29T16:38:31.925Z</time></trkpt><trkpt lat="42.5268427366784" lon="12.004868544396922"><ele>509.33333333333337</ele><time>2026-03-29T16:38:32.925Z</time></trkpt><trkpt lat="42.52691252647263" lon="12.00515901867727"><ele>511.6666666666667</ele><time>2026-03-29T16:38:33.925Z</time></trkpt><trkpt lat="42.52697540295597" lon="12.005430668731272"><ele>514.0</ele><time>2026-03-29T16:38:34.925Z</time></trkpt><trkpt lat="42.52705941570684" lon="12.00568207787851"><ele>516.0</ele><time>2026-03-29T16:38:35.925Z</time></trkpt><trkpt lat="42.527154260152386" lon="12.005925528523644"><ele>518.0</ele><time>2026-03-29T16:38:36.927Z</time></trkpt><trkpt lat="42.52725458205299" lon="12.00614156568311"><ele>520.0</ele><time>2026-03-29T16:38:37.927Z</time></trkpt><trkpt lat="42.52734701173454" lon="12.006332068129586"><ele>520.0</ele><time>2026-03-29T16:38:38.927Z</time></trkpt><trkpt lat="42.527431851494384" lon="12.006510716878239"><ele>520.0</ele><time>2026-03-29T16:38:39.927Z</time></trkpt><trkpt lat="42.52748221451506" lon="12.006682995770307"><ele>520.0</ele><time>2026-03-29T16:38:40.927Z</time></trkpt><trkpt lat="42.527518993685405" lon="12.006849217437033"><ele>520.0</ele><time>2026-03-29T16:38:41.927Z</time></trkpt><trkpt lat="42.527526192254946" lon="12.007046829586391"><ele>519.5</ele><time>2026-03-29T16:38:42.926Z</time></trkpt><trkpt lat="42.52751543816795" lon="12.007227243930227"><ele>519.0</ele><time>2026-03-29T16:38:43.926Z</time></trkpt><trkpt lat="42.527479042606316" lon="12.007409427206184"><ele>518.5</ele><time>2026-03-29T16:38:44.926Z</time></trkpt><trkpt lat="42.52742061036912" lon="12.007589129385366"><ele>518.0</ele><time>2026-03-29T16:38:45.926Z</time></trkpt><trkpt lat="42.52736614904891" lon="12.007801192480576"><ele>517.25</ele><time>2026-03-29T16:38:46.927Z</time></trkpt><trkpt lat="42.52732102837564" lon="12.0080106778219"><ele>516.5</ele><time>2026-03-29T16:38:47.927Z</time></trkpt><trkpt lat="42.52727797192829" lon="12.008195684896442"><ele>515.75</ele><time>2026-03-29T16:38:48.927Z</time></trkpt><trkpt lat="42.52722728438304" lon="12.008369070071517"><ele>515.0</ele><time>2026-03-29T16:38:49.927Z</time></trkpt><trkpt lat="42.52718447345243" lon="12.008516829354257"><ele>513.1666666666666</ele><time>2026-03-29T16:38:50.927Z</time></trkpt><trkpt lat="42.527158497506434" lon="12.008643399261167"><ele>511.3333333333333</ele><time>2026-03-29T16:38:51.927Z</time></trkpt><trkpt lat="42.52715119997008" lon="12.008755864277314"><ele>509.5</ele><time>2026-03-29T16:38:52.927Z</time></trkpt><trkpt lat="42.52715289334645" lon="12.008867948549657"><ele>507.66666666666663</ele><time>2026-03-29T16:38:53.927Z</time></trkpt><trkpt lat="42.52716750938692" lon="12.008979820615838"><ele>505.8333333333333</ele><time>2026-03-29T16:38:54.927Z</time></trkpt><trkpt lat="42.527185543548654" lon="12.009102623501438"><ele>504.0</ele><time>2026-03-29T16:38:55.927Z</time></trkpt><trkpt lat="42.52720848236311" lon="12.009228321228223"><ele>503.6</ele><time>2026-03-29T16:38:56.927Z</time></trkpt><trkpt lat="42.52723497094433" lon="12.009358380453529"><ele>503.2</ele><time>2026-03-29T16:38:57.927Z</time></trkpt><trkpt lat="42.52725017336682" lon="12.009480009421315"><ele>502.80000000000007</ele><time>2026-03-29T16:38:58.927Z</time></trkpt><trkpt lat="42.52728723800854" lon="12.009617205010331"><ele>502.40000000000003</ele><time>2026-03-29T16:38:59.927Z</time></trkpt><trkpt lat="42.52731466702223" lon="12.009776591341245"><ele>502.0</ele><time>2026-03-29T16:39:00.927Z</time></trkpt><trkpt lat="42.527335768999066" lon="12.009956503411253"><ele>503.75</ele><time>2026-03-29T16:39:01.927Z</time></trkpt><trkpt lat="42.527373362475245" lon="12.010144081100146"><ele>505.5</ele><time>2026-03-29T16:39:02.927Z</time></trkpt><trkpt lat="42.52740989335413" lon="12.010340320977507"><ele>507.25</ele><time>2026-03-29T16:39:03.927Z</time></trkpt><trkpt lat="42.52744594429365" lon="12.010540828358456"><ele>509.0</ele><time>2026-03-29T16:39:04.927Z</time></trkpt><trkpt lat="42.52748607431805" lon="12.010752756970057"><ele>512.0</ele><time>2026-03-29T16:39:05.927Z</time></trkpt><trkpt lat="42.5275336088505" lon="12.010971039243456"><ele>515.0</ele><time>2026-03-29T16:39:06.927Z</time></trkpt><trkpt lat="42.527585924802025" lon="12.0111949264682"><ele>518.0</ele><time>2026-03-29T16:39:07.927Z</time></trkpt><trkpt lat="42.52763419446225" lon="12.011416803229906"><ele>518.0</ele><time>2026-03-29T16:39:08.927Z</time></trkpt><trkpt lat="42.52768847217772" lon="12.011638672378993"><ele>518.0</ele><time>2026-03-29T16:39:09.927Z</time></trkpt><trkpt lat="42.527739750105276" lon="12.011867054963078"><ele>518.0</ele><time>2026-03-29T16:39:10.926Z</time></trkpt><trkpt lat="42.527790046802444" lon="12.012087784993236"><ele>519.0</ele><time>2026-03-29T16:39:11.926Z</time></trkpt><trkpt lat="42.52784361612245" lon="12.01229512140756"><ele>520.0</ele><time>2026-03-29T16:39:12.926Z</time></trkpt><trkpt lat="42.52788911608" lon="12.01250888469553"><ele>521.0</ele><time>2026-03-29T16:39:13.926Z</time></trkpt><trkpt lat="42.52793500989915" lon="12.012721216549705"><ele>521.0</ele><time>2026-03-29T16:39:14.926Z</time></trkpt><trkpt lat="42.52798050788318" lon="12.012938402926453"><ele>521.0</ele><time>2026-03-29T16:39:15.926Z</time></trkpt><trkpt lat="42.52801274862292" lon="12.013158176497814"><ele>521.0</ele><time>2026-03-29T16:39:16.926Z</time></trkpt><trkpt lat="42.52804194624993" lon="12.013375531897186"><ele>524.3333333333333</ele><time>2026-03-29T16:39:17.926Z</time></trkpt><trkpt lat="42.52809058132942" lon="12.013589581074399"><ele>527.6666666666666</ele><time>2026-03-29T16:39:18.926Z</time></trkpt><trkpt lat="42.52814135927962" lon="12.013809018719519"><ele>531.0</ele><time>2026-03-29T16:39:19.926Z</time></trkpt><trkpt lat="42.52818777155234" lon="12.014022769820691"><ele>531.0</ele><time>2026-03-29T16:39:20.926Z</time></trkpt><trkpt lat="42.52822591112591" lon="12.014233437756294"><ele>531.0</ele><time>2026-03-29T16:39:21.926Z</time></trkpt><trkpt lat="42.52826257106393" lon="12.014439176648784"><ele>531.0</ele><time>2026-03-29T16:39:22.926Z</time></trkpt><trkpt lat="42.528303975917986" lon="12.014637900475078"><ele>531.0</ele><time>2026-03-29T16:39:23.926Z</time></trkpt><trkpt lat="42.52834574307516" lon="12.014845087441365"><ele>531.0</ele><time>2026-03-29T16:39:24.926Z</time></trkpt><trkpt lat="42.52838451072648" lon="12.015039157755128"><ele>531.0</ele><time>2026-03-29T16:39:25.926Z</time></trkpt><trkpt lat="42.528421118522616" lon="12.015229827054721"><ele>531.0</ele><time>2026-03-29T16:39:26.926Z</time></trkpt><trkpt lat="42.528458513281166" lon="12.015409932704046"><ele>531.0</ele><time>2026-03-29T16:39:27.926Z</time></trkpt><trkpt lat="42.52849784113974" lon="12.015577729610524"><ele>531.0</ele><time>2026-03-29T16:39:28.926Z</time></trkpt><trkpt lat="42.5285322113905" lon="12.01572972201945"><ele>531.0</ele><time>2026-03-29T16:39:29.926Z</time></trkpt><trkpt lat="42.528560895781425" lon="12.015869700236369"><ele>531.0</ele><time>2026-03-29T16:39:30.926Z</time></trkpt><trkpt lat="42.52859809571454" lon="12.015997066477443"><ele>531.0</ele><time>2026-03-29T16:39:31.926Z</time></trkpt><trkpt lat="42.52863116331781" lon="12.016118402464052"><ele>531.0</ele><time>2026-03-29T16:39:32.926Z</time></trkpt><trkpt lat="42.52864066136256" lon="12.016225754447472"><ele>531.0</ele><time>2026-03-29T16:39:33.926Z</time></trkpt><trkpt lat="42.528636860172064" lon="12.016319353134197"><ele>531.0</ele><time>2026-03-29T16:39:34.926Z</time></trkpt><trkpt lat="42.528654470195484" lon="12.01646087404556"><ele>531.0</ele><time>2026-03-29T16:39:36.926Z</time></trkpt><trkpt lat="42.52868105161485" lon="12.016588471468559"><ele>531.0</ele><time>2026-03-29T16:39:38.926Z</time></trkpt><trkpt lat="42.52870492369302" lon="12.016680105044992"><ele>531.0</ele><time>2026-03-29T16:39:41.926Z</time></trkpt><trkpt lat="42.528760167359394" lon="12.016789282399154"><ele>531.0</ele><time>2026-03-29T16:39:44.925Z</time></trkpt><trkpt lat="42.528780675828976" lon="12.016956046595277"><ele>531.0</ele><time>2026-03-29T16:39:46.925Z</time></trkpt><trkpt lat="42.52880611022177" lon="12.017083975484741"><ele>533.75</ele><time>2026-03-29T16:39:47.925Z</time></trkpt><trkpt lat="42.528837374835085" lon="12.017222838705225"><ele>536.5</ele><time>2026-03-29T16:39:48.925Z</time></trkpt><trkpt lat="42.528884427433184" lon="12.017396449603574"><ele>539.25</ele><time>2026-03-29T16:39:49.925Z</time></trkpt><trkpt lat="42.52893998454791" lon="12.017582159369487"><ele>542.0</ele><time>2026-03-29T16:39:50.925Z</time></trkpt><trkpt lat="42.52900732546362" lon="12.017744187485697"><ele>542.25</ele><time>2026-03-29T16:39:51.925Z</time></trkpt><trkpt lat="42.52907464399911" lon="12.017911908840757"><ele>542.5</ele><time>2026-03-29T16:39:52.925Z</time></trkpt><trkpt lat="42.5291432685237" lon="12.018069178407659"><ele>542.75</ele><time>2026-03-29T16:39:53.925Z</time></trkpt><trkpt lat="42.52921096756841" lon="12.018220159312424"><ele>543.0</ele><time>2026-03-29T16:39:54.925Z</time></trkpt><trkpt lat="42.52928607488985" lon="12.018386738956018"><ele>543.0</ele><time>2026-03-29T16:39:55.925Z</time></trkpt><trkpt lat="42.52936279041468" lon="12.018522583904618"><ele>543.0</ele><time>2026-03-29T16:39:56.925Z</time></trkpt><trkpt lat="42.52943749518414" lon="12.018657895869625"><ele>543.0</ele><time>2026-03-29T16:39:57.925Z</time></trkpt><trkpt lat="42.52950822353398" lon="12.018799526615195"><ele>543.0</ele><time>2026-03-29T16:39:58.925Z</time></trkpt><trkpt lat="42.52957908643386" lon="12.018926528935872"><ele>543.0</ele><time>2026-03-29T16:39:59.925Z</time></trkpt><trkpt lat="42.52964740700918" lon="12.019049014647692"><ele>543.0</ele><time>2026-03-29T16:40:00.925Z</time></trkpt><trkpt lat="42.52971659748239" lon="12.019169232426677"><ele>543.0</ele><time>2026-03-29T16:40:01.925Z</time></trkpt><trkpt lat="42.529771340143625" lon="12.01929804040516"><ele>543.0</ele><time>2026-03-29T16:40:02.925Z</time></trkpt><trkpt lat="42.529834071501526" lon="12.019422840418695"><ele>543.0</ele><time>2026-03-29T16:40:03.925Z</time></trkpt><trkpt lat="42.52990133791978" lon="12.019544686006178"><ele>543.0</ele><time>2026-03-29T16:40:04.925Z</time></trkpt><trkpt lat="42.52992357848405" lon="12.019682147898251"><ele>543.0</ele><time>2026-03-29T16:40:05.925Z</time></trkpt><trkpt lat="42.529936927892024" lon="12.019809677882929"><ele>543.0</ele><time>2026-03-29T16:40:06.925Z</time></trkpt><trkpt lat="42.52993259603142" lon="12.019949613578236"><ele>543.0</ele><time>2026-03-29T16:40:07.925Z</time></trkpt><trkpt lat="42.529905004317534" lon="12.02010479023236"><ele>543.0</ele><time>2026-03-29T16:40:08.925Z</time></trkpt><trkpt lat="42.529861085466855" lon="12.020264083183736"><ele>542.5</ele><time>2026-03-29T16:40:09.925Z</time></trkpt><trkpt lat="42.529804610567986" lon="12.020426704618636"><ele>542.0</ele><time>2026-03-29T16:40:10.925Z</time></trkpt><trkpt lat="42.529756089579365" lon="12.020573693827199"><ele>541.5</ele><time>2026-03-29T16:40:11.925Z</time></trkpt><trkpt lat="42.52971598564828" lon="12.020713840030675"><ele>541.0</ele><time>2026-03-29T16:40:12.925Z</time></trkpt><trkpt lat="42.529683634162645" lon="12.02085655409209"><ele>541.8</ele><time>2026-03-29T16:40:13.925Z</time></trkpt><trkpt lat="42.52966868290107" lon="12.020994483842811"><ele>542.6</ele><time>2026-03-29T16:40:14.925Z</time></trkpt><trkpt lat="42.52967488419526" lon="12.021143644266573"><ele>543.4</ele><time>2026-03-29T16:40:15.924Z</time></trkpt><trkpt lat="42.52970886686457" lon="12.021289399106301"><ele>544.2</ele><time>2026-03-29T16:40:16.924Z</time></trkpt><trkpt lat="42.529772411094115" lon="12.02141523596857"><ele>545.0</ele><time>2026-03-29T16:40:17.924Z</time></trkpt><trkpt lat="42.52983571295966" lon="12.021566111235837"><ele>546.5</ele><time>2026-03-29T16:40:18.924Z</time></trkpt><trkpt lat="42.529929807601135" lon="12.021678324880162"><ele>548.0</ele><time>2026-03-29T16:40:19.924Z</time></trkpt><trkpt lat="42.52999769516893" lon="12.021814222760316"><ele>549.5</ele><time>2026-03-29T16:40:20.924Z</time></trkpt><trkpt lat="42.53009819978702" lon="12.021948755225239"><ele>551.0</ele><time>2026-03-29T16:40:21.924Z</time></trkpt><trkpt lat="42.53019201079904" lon="12.022094788448307"><ele>551.0</ele><time>2026-03-29T16:40:22.924Z</time></trkpt><trkpt lat="42.53028380139642" lon="12.022252227161653"><ele>551.0</ele><time>2026-03-29T16:40:23.924Z</time></trkpt><trkpt lat="42.53037989671147" lon="12.022397958365282"><ele>551.0</ele><time>2026-03-29T16:40:24.924Z</time></trkpt><trkpt lat="42.53048326817383" lon="12.022527744530814"><ele>551.0</ele><time>2026-03-29T16:40:25.924Z</time></trkpt><trkpt lat="42.530575658109264" lon="12.022668207618771"><ele>552.5</ele><time>2026-03-29T16:40:26.924Z</time></trkpt><trkpt lat="42.53066833536977" lon="12.022809419962755"><ele>554.0</ele><time>2026-03-29T16:40:27.924Z</time></trkpt><trkpt lat="42.53076162445609" lon="12.022947299401466"><ele>555.5</ele><time>2026-03-29T16:40:28.924Z</time></trkpt><trkpt lat="42.53085421890393" lon="12.023087256937519"><ele>557.0</ele><time>2026-03-29T16:40:29.924Z</time></trkpt><trkpt lat="42.530950535296384" lon="12.023224933762078"><ele>556.25</ele><time>2026-03-29T16:40:30.924Z</time></trkpt><trkpt lat="42.53104518489143" lon="12.023373022699776"><ele>555.5</ele><time>2026-03-29T16:40:31.924Z</time></trkpt><trkpt lat="42.531140281600486" lon="12.023505487488316"><ele>554.75</ele><time>2026-03-29T16:40:32.924Z</time></trkpt><trkpt lat="42.531245480684454" lon="12.02363969690163"><ele>554.0</ele><time>2026-03-29T16:40:33.924Z</time></trkpt><trkpt lat="42.53133250009252" lon="12.023808123587877"><ele>554.0</ele><time>2026-03-29T16:40:34.924Z</time></trkpt><trkpt lat="42.53143454070772" lon="12.023924844611882"><ele>554.0</ele><time>2026-03-29T16:40:35.924Z</time></trkpt><trkpt lat="42.53153926289525" lon="12.024030993265635"><ele>554.0</ele><time>2026-03-29T16:40:36.924Z</time></trkpt><trkpt lat="42.531648118577024" lon="12.02412325899581"><ele>554.0</ele><time>2026-03-29T16:40:37.924Z</time></trkpt><trkpt lat="42.53176620949722" lon="12.02418145679844"><ele>555.75</ele><time>2026-03-29T16:40:38.924Z</time></trkpt><trkpt lat="42.531886146343865" lon="12.024247558403886"><ele>557.5</ele><time>2026-03-29T16:40:39.924Z</time></trkpt><trkpt lat="42.53200593610734" lon="12.024316615496716"><ele>559.25</ele><time>2026-03-29T16:40:40.924Z</time></trkpt><trkpt lat="42.53212521844668" lon="12.024390943350246"><ele>561.0</ele><time>2026-03-29T16:40:41.924Z</time></trkpt><trkpt lat="42.53224542352573" lon="12.024454260434988"><ele>561.0</ele><time>2026-03-29T16:40:42.926Z</time></trkpt><trkpt lat="42.532379855477174" lon="12.024528906327374"><ele>561.0</ele><time>2026-03-29T16:40:43.926Z</time></trkpt><trkpt lat="42.532513836181224" lon="12.024614051546994"><ele>561.0</ele><time>2026-03-29T16:40:44.926Z</time></trkpt><trkpt lat="42.53262527435554" lon="12.024711376626039"><ele>561.0</ele><time>2026-03-29T16:40:45.925Z</time></trkpt><trkpt lat="42.53274180174967" lon="12.024820364149177"><ele>561.0</ele><time>2026-03-29T16:40:46.925Z</time></trkpt><trkpt lat="42.53284520293005" lon="12.024926825533203"><ele>561.0</ele><time>2026-03-29T16:40:47.925Z</time></trkpt><trkpt lat="42.53294405429834" lon="12.025029695696245"><ele>561.0</ele><time>2026-03-29T16:40:48.925Z</time></trkpt><trkpt lat="42.53303514467481" lon="12.025111759471047"><ele>561.0</ele><time>2026-03-29T16:40:49.925Z</time></trkpt><trkpt lat="42.533126773057646" lon="12.02518892040699"><ele>562.4</ele><time>2026-03-29T16:40:50.925Z</time></trkpt><trkpt lat="42.53321025120706" lon="12.0252538148724"><ele>563.8</ele><time>2026-03-29T16:40:51.925Z</time></trkpt><trkpt lat="42.53329196269935" lon="12.025318987975027"><ele>565.1999999999999</ele><time>2026-03-29T16:40:52.925Z</time></trkpt><trkpt lat="42.533372769010086" lon="12.025378156034526"><ele>566.6</ele><time>2026-03-29T16:40:53.925Z</time></trkpt><trkpt lat="42.53345845514685" lon="12.025439022031113"><ele>568.0</ele><time>2026-03-29T16:40:54.925Z</time></trkpt><trkpt lat="42.533546115049994" lon="12.025494603877462"><ele>568.0</ele><time>2026-03-29T16:40:55.925Z</time></trkpt><trkpt lat="42.533621712222526" lon="12.025543457625352"><ele>568.0</ele><time>2026-03-29T16:40:56.925Z</time></trkpt><trkpt lat="42.53369937221547" lon="12.025581521630011"><ele>568.0</ele><time>2026-03-29T16:40:57.925Z</time></trkpt><trkpt lat="42.53379498431702" lon="12.025642662492826"><ele>568.0</ele><time>2026-03-29T16:40:58.925Z</time></trkpt><trkpt lat="42.53389926508456" lon="12.025732598507124"><ele>568.0</ele><time>2026-03-29T16:40:59.925Z</time></trkpt><trkpt lat="42.53399640029447" lon="12.025839481467905"><ele>571.75</ele><time>2026-03-29T16:41:00.925Z</time></trkpt><trkpt lat="42.53406892565912" lon="12.026014666509214"><ele>575.5</ele><time>2026-03-29T16:41:01.925Z</time></trkpt><trkpt lat="42.53414262143154" lon="12.026192088603329"><ele>579.25</ele><time>2026-03-29T16:41:02.925Z</time></trkpt><trkpt lat="42.534217006914666" lon="12.026368226102502"><ele>583.0</ele><time>2026-03-29T16:41:03.925Z</time></trkpt><trkpt lat="42.534286464428284" lon="12.026534019898785"><ele>582.25</ele><time>2026-03-29T16:41:04.925Z</time></trkpt><trkpt lat="42.53435500515909" lon="12.0266976238376"><ele>581.5</ele><time>2026-03-29T16:41:05.925Z</time></trkpt><trkpt lat="42.53442434425491" lon="12.026862537045714"><ele>580.75</ele><time>2026-03-29T16:41:06.925Z</time></trkpt><trkpt lat="42.53448966289784" lon="12.02701755077204"><ele>580.0</ele><time>2026-03-29T16:41:07.925Z</time></trkpt><trkpt lat="42.5345488711077" lon="12.02715806328668"><ele>582.0</ele><time>2026-03-29T16:41:08.925Z</time></trkpt><trkpt lat="42.534605127310634" lon="12.027291570128376"><ele>584.0</ele><time>2026-03-29T16:41:09.925Z</time></trkpt><trkpt lat="42.534655095014834" lon="12.027409728047278"><ele>586.0</ele><time>2026-03-29T16:41:10.925Z</time></trkpt><trkpt lat="42.53471098241828" lon="12.02754184053931"><ele>588.0</ele><time>2026-03-29T16:41:11.925Z</time></trkpt><trkpt lat="42.53477946723949" lon="12.027661747746816"><ele>590.0</ele><time>2026-03-29T16:41:12.925Z</time></trkpt><trkpt lat="42.53482414412626" lon="12.027797852507428"><ele>590.0</ele><time>2026-03-29T16:41:13.925Z</time></trkpt><trkpt lat="42.53487579103558" lon="12.027928872952964"><ele>590.0</ele><time>2026-03-29T16:41:14.925Z</time></trkpt><trkpt lat="42.53492262965903" lon="12.02805933921189"><ele>590.0</ele><time>2026-03-29T16:41:15.924Z</time></trkpt><trkpt lat="42.534973191621546" lon="12.028194782011319"><ele>590.0</ele><time>2026-03-29T16:41:16.924Z</time></trkpt><trkpt lat="42.53502667052222" lon="12.028321045026509"><ele>590.0</ele><time>2026-03-29T16:41:17.924Z</time></trkpt><trkpt lat="42.535076277307624" lon="12.028463144552848"><ele>589.4</ele><time>2026-03-29T16:41:18.924Z</time></trkpt><trkpt lat="42.535126281055526" lon="12.02859663067401"><ele>588.8</ele><time>2026-03-29T16:41:19.924Z</time></trkpt><trkpt lat="42.53517053638049" lon="12.028724313243547"><ele>588.2</ele><time>2026-03-29T16:41:20.924Z</time></trkpt><trkpt lat="42.535209590345026" lon="12.028845890130357"><ele>587.6</ele><time>2026-03-29T16:41:21.924Z</time></trkpt><trkpt lat="42.535226408721144" lon="12.028982173385447"><ele>587.0</ele><time>2026-03-29T16:41:22.924Z</time></trkpt><trkpt lat="42.53525499117643" lon="12.029120332843716"><ele>586.6</ele><time>2026-03-29T16:41:23.924Z</time></trkpt><trkpt lat="42.535281401853304" lon="12.029253455743506"><ele>586.2</ele><time>2026-03-29T16:41:24.924Z</time></trkpt><trkpt lat="42.53530745080165" lon="12.029392193527013"><ele>585.8</ele><time>2026-03-29T16:41:25.924Z</time></trkpt><trkpt lat="42.53532526752947" lon="12.0295252137023"><ele>585.4</ele><time>2026-03-29T16:41:26.924Z</time></trkpt><trkpt lat="42.53533985326813" lon="12.029646874809451"><ele>585.0</ele><time>2026-03-29T16:41:27.924Z</time></trkpt><trkpt lat="42.535366189121085" lon="12.029766419696934"><ele>585.0</ele><time>2026-03-29T16:41:28.924Z</time></trkpt><trkpt lat="42.53537794548416" lon="12.029898193947641"><ele>585.0</ele><time>2026-03-29T16:41:29.924Z</time></trkpt><trkpt lat="42.535392938445995" lon="12.030018241133103"><ele>585.0</ele><time>2026-03-29T16:41:30.924Z</time></trkpt><trkpt lat="42.53541648695795" lon="12.030138908871821"><ele>585.0</ele><time>2026-03-29T16:41:31.924Z</time></trkpt><trkpt lat="42.53544731469957" lon="12.030254339299123"><ele>585.0</ele><time>2026-03-29T16:41:32.924Z</time></trkpt><trkpt lat="42.535487936388776" lon="12.030355942203437"><ele>587.7142857142858</ele><time>2026-03-29T16:41:33.924Z</time></trkpt><trkpt lat="42.53554097679425" lon="12.030447672135065"><ele>590.4285714285714</ele><time>2026-03-29T16:41:34.924Z</time></trkpt><trkpt lat="42.5356001283179" lon="12.030517511690912"><ele>593.1428571428571</ele><time>2026-03-29T16:41:35.924Z</time></trkpt><trkpt lat="42.535667623507436" lon="12.03057317871366"><ele>595.8571428571429</ele><time>2026-03-29T16:41:36.924Z</time></trkpt><trkpt lat="42.53572822223171" lon="12.030610236740621"><ele>598.5714285714286</ele><time>2026-03-29T16:41:37.924Z</time></trkpt><trkpt lat="42.535792699713234" lon="12.030630207634903"><ele>601.2857142857143</ele><time>2026-03-29T16:41:38.924Z</time></trkpt><trkpt lat="42.53583728018228" lon="12.030696237762411"><ele>604.0</ele><time>2026-03-29T16:41:39.924Z</time></trkpt><trkpt lat="42.53594107337954" lon="12.030778216438764"><ele>604.1428571428572</ele><time>2026-03-29T16:41:41.924Z</time></trkpt><trkpt lat="42.5359955183849" lon="12.030825007681766"><ele>604.2857142857143</ele><time>2026-03-29T16:41:42.924Z</time></trkpt><trkpt lat="42.536056495604385" lon="12.030883545916685"><ele>604.4285714285714</ele><time>2026-03-29T16:41:43.924Z</time></trkpt><trkpt lat="42.536120327361424" lon="12.030930863586173"><ele>604.5714285714287</ele><time>2026-03-29T16:41:44.924Z</time></trkpt><trkpt lat="42.53618139385631" lon="12.03097613650674"><ele>604.7142857142858</ele><time>2026-03-29T16:41:45.924Z</time></trkpt><trkpt lat="42.53624124880597" lon="12.03101713580236"><ele>604.8571428571429</ele><time>2026-03-29T16:41:46.924Z</time></trkpt><trkpt lat="42.53631030052576" lon="12.031045969560992"><ele>605.0</ele><time>2026-03-29T16:41:47.924Z</time></trkpt><trkpt lat="42.536398360865626" lon="12.031048426600496"><ele>605.0</ele><time>2026-03-29T16:41:48.923Z</time></trkpt><trkpt lat="42.53647348823624" lon="12.03105849445388"><ele>605.0</ele><time>2026-03-29T16:41:49.923Z</time></trkpt><trkpt lat="42.53654118195182" lon="12.03107174838291"><ele>605.0</ele><time>2026-03-29T16:41:50.923Z</time></trkpt><trkpt lat="42.536606449084815" lon="12.031081682160186"><ele>605.0</ele><time>2026-03-29T16:41:51.923Z</time></trkpt><trkpt lat="42.536709012736196" lon="12.031111841626382"><ele>605.0</ele><time>2026-03-29T16:41:53.923Z</time></trkpt><trkpt lat="42.536769162678745" lon="12.031023976196481"><ele>605.0</ele><time>2026-03-29T16:41:54.923Z</time></trkpt><trkpt lat="42.53684708129798" lon="12.031010582070643"><ele>605.0</ele><time>2026-03-29T16:41:55.923Z</time></trkpt><trkpt lat="42.5369246757426" lon="12.031020481994696"><ele>605.0</ele><time>2026-03-29T16:41:56.923Z</time></trkpt><trkpt lat="42.537004395964715" lon="12.031058063070567"><ele>605.0</ele><time>2026-03-29T16:41:57.923Z</time></trkpt><trkpt lat="42.53710078497147" lon="12.031072419174329"><ele>605.0</ele><time>2026-03-29T16:41:59.923Z</time></trkpt><trkpt lat="42.53711908797019" lon="12.031158859926881"><ele>605.0</ele><time>2026-03-29T16:42:01.923Z</time></trkpt><trkpt lat="42.53717704323616" lon="12.031232125453954"><ele>605.0</ele><time>2026-03-29T16:42:03.923Z</time></trkpt><trkpt lat="42.537235698366224" lon="12.031326575891981"><ele>604.4</ele><time>2026-03-29T16:42:06.923Z</time></trkpt><trkpt lat="42.53730099638915" lon="12.031419599676987"><ele>603.8</ele><time>2026-03-29T16:42:08.923Z</time></trkpt><trkpt lat="42.53736829034403" lon="12.031524038017823"><ele>603.2</ele><time>2026-03-29T16:42:10.923Z</time></trkpt><trkpt lat="42.53740915243835" lon="12.031591853556971"><ele>602.6</ele><time>2026-03-29T16:42:12.923Z</time></trkpt><trkpt lat="42.53733989986305" lon="12.031565806742432"><ele>602.0</ele><time>2026-03-29T16:42:24.922Z</time></trkpt><trkpt lat="42.53695524984462" lon="12.032158136409013"><ele>598.1666666666666</ele><time>2026-03-29T16:42:39.922Z</time></trkpt><trkpt lat="42.53687374055531" lon="12.032150266951787"><ele>594.3333333333333</ele><time>2026-03-29T16:42:40.922Z</time></trkpt><trkpt lat="42.53678809187197" lon="12.032121717144593"><ele>590.5</ele><time>2026-03-29T16:42:42.922Z</time></trkpt><trkpt lat="42.53676698581682" lon="12.032221429364157"><ele>586.6666666666666</ele><time>2026-03-29T16:42:45.922Z</time></trkpt><trkpt lat="42.53684607431872" lon="12.032284585645305"><ele>582.8333333333334</ele><time>2026-03-29T16:42:47.922Z</time></trkpt><trkpt lat="42.53691238241912" lon="12.032305083182555"><ele>579.0</ele><time>2026-03-29T16:42:48.923Z</time></trkpt><trkpt lat="42.536979285718566" lon="12.03239370431607"><ele>580.3333333333334</ele><time>2026-03-29T16:42:49.923Z</time></trkpt><trkpt lat="42.537060291838706" lon="12.032422582295473"><ele>581.6666666666666</ele><time>2026-03-29T16:42:50.923Z</time></trkpt><trkpt lat="42.53712849230098" lon="12.032458410744972"><ele>583.0</ele><time>2026-03-29T16:42:51.924Z</time></trkpt><trkpt lat="42.537226840783916" lon="12.032525240409985"><ele>584.3333333333333</ele><time>2026-03-29T16:42:53.924Z</time></trkpt><trkpt lat="42.53729061009023" lon="12.032570288242233"><ele>585.6666666666666</ele><time>2026-03-29T16:42:54.924Z</time></trkpt><trkpt lat="42.53730072147858" lon="12.032702731459915"><ele>587.0</ele><time>2026-03-29T16:42:56.923Z</time></trkpt><trkpt lat="42.53729963021531" lon="12.032811146946127"><ele>582.5</ele><time>2026-03-29T16:42:57.923Z</time></trkpt><trkpt lat="42.53722627024457" lon="12.032927333959668"><ele>578.0</ele><time>2026-03-29T16:42:58.923Z</time></trkpt><trkpt lat="42.537123103985174" lon="12.03297717875779"><ele>573.5</ele><time>2026-03-29T16:42:59.923Z</time></trkpt><trkpt lat="42.53700993652795" lon="12.033007879007297"><ele>569.0</ele><time>2026-03-29T16:43:00.923Z</time></trkpt><trkpt lat="42.536875108804296" lon="12.03302631132126"><ele>566.25</ele><time>2026-03-29T16:43:01.924Z</time></trkpt><trkpt lat="42.536738409739726" lon="12.033067517100813"><ele>563.5</ele><time>2026-03-29T16:43:02.924Z</time></trkpt><trkpt lat="42.53659693993104" lon="12.033114989517541"><ele>560.75</ele><time>2026-03-29T16:43:03.924Z</time></trkpt><trkpt lat="42.536449956622306" lon="12.033158578505569"><ele>558.0</ele><time>2026-03-29T16:43:04.924Z</time></trkpt><trkpt lat="42.53629887765014" lon="12.03318403140959"><ele>556.25</ele><time>2026-03-29T16:43:05.924Z</time></trkpt><trkpt lat="42.53615815889036" lon="12.033220052897581"><ele>554.5</ele><time>2026-03-29T16:43:06.924Z</time></trkpt><trkpt lat="42.5360266292173" lon="12.033240381083928"><ele>552.75</ele><time>2026-03-29T16:43:07.924Z</time></trkpt><trkpt lat="42.535907180707184" lon="12.0332465885377"><ele>551.0</ele><time>2026-03-29T16:43:08.923Z</time></trkpt><trkpt lat="42.535805603055934" lon="12.03326409600124"><ele>551.0</ele><time>2026-03-29T16:43:09.923Z</time></trkpt><trkpt lat="42.53573553641765" lon="12.033280966867537"><ele>551.0</ele><time>2026-03-29T16:43:10.923Z</time></trkpt><trkpt lat="42.53566031143986" lon="12.033284551936235"><ele>551.0</ele><time>2026-03-29T16:43:11.923Z</time></trkpt><trkpt lat="42.535590441777146" lon="12.03325861185268"><ele>551.0</ele><time>2026-03-29T16:43:12.923Z</time></trkpt><trkpt lat="42.535516966532406" lon="12.03323886833399"><ele>551.0</ele><time>2026-03-29T16:43:13.923Z</time></trkpt><trkpt lat="42.5354515820611" lon="12.033169490842493"><ele>551.0</ele><time>2026-03-29T16:43:14.923Z</time></trkpt><trkpt lat="42.535387285864566" lon="12.033082816858066"><ele>549.4</ele><time>2026-03-29T16:43:15.923Z</time></trkpt><trkpt lat="42.53534142418422" lon="12.0330134673995"><ele>547.8</ele><time>2026-03-29T16:43:16.923Z</time></trkpt><trkpt lat="42.53521779994674" lon="12.033008379075662"><ele>546.1999999999999</ele><time>2026-03-29T16:43:18.923Z</time></trkpt><trkpt lat="42.53514723461404" lon="12.033046327372746"><ele>544.6</ele><time>2026-03-29T16:43:19.923Z</time></trkpt><trkpt lat="42.535101564318694" lon="12.033165088893108"><ele>543.0</ele><time>2026-03-29T16:43:20.923Z</time></trkpt><trkpt lat="42.53505030438028" lon="12.033279595526052"><ele>540.1999999999999</ele><time>2026-03-29T16:43:21.923Z</time></trkpt><trkpt lat="42.534995989350776" lon="12.033381119495836"><ele>537.4</ele><time>2026-03-29T16:43:22.923Z</time></trkpt><trkpt lat="42.534947746216915" lon="12.033469259560135"><ele>534.5999999999999</ele><time>2026-03-29T16:43:23.923Z</time></trkpt><trkpt lat="42.53487604597705" lon="12.033507594868716"><ele>531.8</ele><time>2026-03-29T16:43:24.923Z</time></trkpt><trkpt lat="42.534840640425436" lon="12.033582560262532"><ele>529.0</ele><time>2026-03-29T16:43:26.923Z</time></trkpt><trkpt lat="42.534966991630476" lon="12.033776233656663"><ele>529.0</ele><time>2026-03-29T16:43:29.923Z</time></trkpt><trkpt lat="42.53512042939652" lon="12.033862230166255"><ele>529.0</ele><time>2026-03-29T16:43:31.923Z</time></trkpt><trkpt lat="42.53523207620735" lon="12.03392662664581"><ele>529.0</ele><time>2026-03-29T16:43:32.923Z</time></trkpt><trkpt lat="42.53538113904972" lon="12.033999171388489"><ele>529.0</ele><time>2026-03-29T16:43:33.923Z</time></trkpt><trkpt lat="42.53554565661931" lon="12.034053252304597"><ele>531.0</ele><time>2026-03-29T16:43:34.923Z</time></trkpt><trkpt lat="42.53571902159086" lon="12.03405895646496"><ele>533.0</ele><time>2026-03-29T16:43:35.923Z</time></trkpt><trkpt lat="42.53590481147755" lon="12.034025778563079"><ele>535.0</ele><time>2026-03-29T16:43:36.923Z</time></trkpt><trkpt lat="42.53608167315394" lon="12.034000600902461"><ele>537.75</ele><time>2026-03-29T16:43:37.923Z</time></trkpt><trkpt lat="42.53623415255602" lon="12.033971017419628"><ele>540.5</ele><time>2026-03-29T16:43:38.923Z</time></trkpt><trkpt lat="42.53638402470361" lon="12.033983059433465"><ele>543.25</ele><time>2026-03-29T16:43:39.923Z</time></trkpt><trkpt lat="42.53651076989591" lon="12.034006877355063"><ele>546.0</ele><time>2026-03-29T16:43:40.923Z</time></trkpt><trkpt lat="42.5366293844188" lon="12.03406213142591"><ele>547.25</ele><time>2026-03-29T16:43:41.922Z</time></trkpt><trkpt lat="42.5367385556999" lon="12.0341412091946"><ele>548.5</ele><time>2026-03-29T16:43:42.922Z</time></trkpt><trkpt lat="42.53687384636615" lon="12.034243444068183"><ele>549.75</ele><time>2026-03-29T16:43:43.922Z</time></trkpt><trkpt lat="42.53701525247505" lon="12.034364251048212"><ele>551.0</ele><time>2026-03-29T16:43:44.922Z</time></trkpt><trkpt lat="42.53715118171909" lon="12.03448921555082"><ele>551.0</ele><time>2026-03-29T16:43:45.922Z</time></trkpt><trkpt lat="42.53727985943448" lon="12.034604288762136"><ele>551.0</ele><time>2026-03-29T16:43:46.922Z</time></trkpt><trkpt lat="42.53740237363459" lon="12.034714479462158"><ele>551.0</ele><time>2026-03-29T16:43:47.922Z</time></trkpt><trkpt lat="42.53751594414125" lon="12.034791836641354"><ele>551.0</ele><time>2026-03-29T16:43:48.922Z</time></trkpt><trkpt lat="42.53759153299868" lon="12.034897207796494"><ele>550.4</ele><time>2026-03-29T16:43:49.922Z</time></trkpt><trkpt lat="42.53765024334933" lon="12.035001025048464"><ele>549.8</ele><time>2026-03-29T16:43:50.922Z</time></trkpt><trkpt lat="42.537690562542494" lon="12.035115603242751"><ele>549.1999999999999</ele><time>2026-03-29T16:43:51.922Z</time></trkpt><trkpt lat="42.53770662064738" lon="12.03523677197774"><ele>548.6</ele><time>2026-03-29T16:43:52.922Z</time></trkpt><trkpt lat="42.53769620450011" lon="12.035359769919097"><ele>548.0</ele><time>2026-03-29T16:43:53.922Z</time></trkpt><trkpt lat="42.53765622310436" lon="12.035497816702781"><ele>548.0</ele><time>2026-03-29T16:43:54.922Z</time></trkpt><trkpt lat="42.53763239460378" lon="12.035631810442867"><ele>548.0</ele><time>2026-03-29T16:43:55.922Z</time></trkpt><trkpt lat="42.53761780578128" lon="12.035772223850877"><ele>548.0</ele><time>2026-03-29T16:43:56.922Z</time></trkpt><trkpt lat="42.53764577220285" lon="12.035923032875424"><ele>548.0</ele><time>2026-03-29T16:43:57.922Z</time></trkpt><trkpt lat="42.53771533185887" lon="12.036041021725069"><ele>548.0</ele><time>2026-03-29T16:43:58.922Z</time></trkpt><trkpt lat="42.5377870948266" lon="12.036139189470653"><ele>548.0</ele><time>2026-03-29T16:43:59.922Z</time></trkpt><trkpt lat="42.53783971376764" lon="12.036220421301364"><ele>548.0</ele><time>2026-03-29T16:44:00.922Z</time></trkpt><trkpt lat="42.537886223583286" lon="12.036299777989914"><ele>548.0</ele><time>2026-03-29T16:44:01.922Z</time></trkpt><trkpt lat="42.53792789129916" lon="12.036405209392031"><ele>548.0</ele><time>2026-03-29T16:44:03.922Z</time></trkpt><trkpt lat="42.53788880313342" lon="12.036522806485895"><ele>548.0</ele><time>2026-03-29T16:44:06.922Z</time></trkpt><trkpt lat="42.53781054801758" lon="12.03661064963906"><ele>548.0</ele><time>2026-03-29T16:44:08.922Z</time></trkpt><trkpt lat="42.5377376543594" lon="12.036663488716131"><ele>547.3333333333333</ele><time>2026-03-29T16:44:11.922Z</time></trkpt><trkpt lat="42.53766411415436" lon="12.036662340362458"><ele>546.6666666666666</ele><time>2026-03-29T16:44:14.921Z</time></trkpt><trkpt lat="42.537648048293654" lon="12.036751599543033"><ele>546.0</ele><time>2026-03-29T16:44:20.921Z</time></trkpt><trkpt lat="42.537583019810704" lon="12.036822204181503"><ele>545.3333333333334</ele><time>2026-03-29T16:44:27.92Z</time></trkpt><trkpt lat="42.537520866587585" lon="12.036883697899915"><ele>544.6666666666667</ele><time>2026-03-29T16:44:34.92Z</time></trkpt><trkpt lat="42.53750397748261" lon="12.036750749680358"><ele>544.0</ele><time>2026-03-29T16:44:42.92Z</time></trkpt><trkpt lat="42.537266943030986" lon="12.036823621355115"><ele>544.0</ele><time>2026-03-29T16:45:45.912Z</time></trkpt><trkpt lat="42.537328331240786" lon="12.036843544838911"><ele>544.0</ele><time>2026-03-29T16:46:05.911Z</time></trkpt><trkpt lat="42.537378945468454" lon="12.036994985633996"><ele>544.0</ele><time>2026-03-29T16:46:08.911Z</time></trkpt><trkpt lat="42.53745232406772" lon="12.037023134775394"><ele>544.0</ele><time>2026-03-29T16:46:12.911Z</time></trkpt><trkpt lat="42.53751779620807" lon="12.037027062193156"><ele>544.0</ele><time>2026-03-29T16:46:16.91Z</time></trkpt><trkpt lat="42.53764423414659" lon="12.036969898273485"><ele>544.0</ele><time>2026-03-29T16:46:18.91Z</time></trkpt><trkpt lat="42.53770600486575" lon="12.03687114493716"><ele>544.0</ele><time>2026-03-29T16:46:19.91Z</time></trkpt><trkpt lat="42.53776930675152" lon="12.036758272470557"><ele>544.0</ele><time>2026-03-29T16:46:20.91Z</time></trkpt><trkpt lat="42.537827939772946" lon="12.03665978396342"><ele>544.0</ele><time>2026-03-29T16:46:21.91Z</time></trkpt><trkpt lat="42.53788703119126" lon="12.036579593945362"><ele>544.0</ele><time>2026-03-29T16:46:22.91Z</time></trkpt><trkpt lat="42.537942760621995" lon="12.036501595352577"><ele>544.5</ele><time>2026-03-29T16:46:23.91Z</time></trkpt><trkpt lat="42.53799528430932" lon="12.036420702062777"><ele>545.0</ele><time>2026-03-29T16:46:24.91Z</time></trkpt><trkpt lat="42.538033443978904" lon="12.036350596162434"><ele>545.5</ele><time>2026-03-29T16:46:25.91Z</time></trkpt><trkpt lat="42.5380895122117" lon="12.036261254057948"><ele>546.0</ele><time>2026-03-29T16:46:27.91Z</time></trkpt><trkpt lat="42.538152554337216" lon="12.036190545836853"><ele>546.5</ele><time>2026-03-29T16:46:29.91Z</time></trkpt><trkpt lat="42.5382146993133" lon="12.036111773487775"><ele>547.0</ele><time>2026-03-29T16:46:31.91Z</time></trkpt><trkpt lat="42.53827245793165" lon="12.035987113583754"><ele>547.0</ele><time>2026-03-29T16:46:33.91Z</time></trkpt><trkpt lat="42.538321112740476" lon="12.03586748196683"><ele>547.0</ele><time>2026-03-29T16:46:35.91Z</time></trkpt><trkpt lat="42.53837558363867" lon="12.035758071406647"><ele>547.0</ele><time>2026-03-29T16:46:37.91Z</time></trkpt><trkpt lat="42.538430431011484" lon="12.03561008077485"><ele>547.0</ele><time>2026-03-29T16:46:39.91Z</time></trkpt><trkpt lat="42.538422967950105" lon="12.035493121979691"><ele>547.0</ele><time>2026-03-29T16:46:40.909Z</time></trkpt><trkpt lat="42.538434459064945" lon="12.035370617745881"><ele>547.6666666666667</ele><time>2026-03-29T16:46:41.909Z</time></trkpt><trkpt lat="42.53843231252453" lon="12.03526709479807"><ele>548.3333333333334</ele><time>2026-03-29T16:46:42.909Z</time></trkpt><trkpt lat="42.538428681155935" lon="12.0351530322962"><ele>549.0</ele><time>2026-03-29T16:46:43.909Z</time></trkpt><trkpt lat="42.538418826081475" lon="12.035035770191364"><ele>549.6666666666666</ele><time>2026-03-29T16:46:44.909Z</time></trkpt><trkpt lat="42.53840445961762" lon="12.03491368483103"><ele>550.3333333333333</ele><time>2026-03-29T16:46:45.909Z</time></trkpt><trkpt lat="42.53837307245813" lon="12.034773979898382"><ele>551.0</ele><time>2026-03-29T16:46:46.909Z</time></trkpt><trkpt lat="42.53832402564199" lon="12.034644684936652"><ele>553.2</ele><time>2026-03-29T16:46:47.909Z</time></trkpt><trkpt lat="42.5382666370156" lon="12.034542479513867"><ele>555.4000000000001</ele><time>2026-03-29T16:46:48.909Z</time></trkpt><trkpt lat="42.53818972883282" lon="12.034451751235173"><ele>557.6</ele><time>2026-03-29T16:46:49.909Z</time></trkpt><trkpt lat="42.53809506022985" lon="12.03439696143396"><ele>559.8000000000001</ele><time>2026-03-29T16:46:50.909Z</time></trkpt><trkpt lat="42.537993494395906" lon="12.034346749706664"><ele>562.0</ele><time>2026-03-29T16:46:51.909Z</time></trkpt><trkpt lat="42.53788756262808" lon="12.034307704499739"><ele>561.6</ele><time>2026-03-29T16:46:52.909Z</time></trkpt><trkpt lat="42.53779170875107" lon="12.034199191926815"><ele>561.2</ele><time>2026-03-29T16:46:53.909Z</time></trkpt><trkpt lat="42.53771916437719" lon="12.034093618522867"><ele>560.8</ele><time>2026-03-29T16:46:54.909Z</time></trkpt><trkpt lat="42.53765539140182" lon="12.033985320540475"><ele>560.4</ele><time>2026-03-29T16:46:55.909Z</time></trkpt><trkpt lat="42.53759803474661" lon="12.033881100020357"><ele>560.0</ele><time>2026-03-29T16:46:56.909Z</time></trkpt><trkpt lat="42.53754680308911" lon="12.033784085795553"><ele>560.0</ele><time>2026-03-29T16:46:57.909Z</time></trkpt><trkpt lat="42.537516638105664" lon="12.033671905837561"><ele>560.0</ele><time>2026-03-29T16:46:58.909Z</time></trkpt><trkpt lat="42.537504587640335" lon="12.033569765264803"><ele>560.0</ele><time>2026-03-29T16:46:59.909Z</time></trkpt><trkpt lat="42.537534223817005" lon="12.033481850754102"><ele>560.0</ele><time>2026-03-29T16:47:00.911Z</time></trkpt><trkpt lat="42.537578562187456" lon="12.033384656116345"><ele>560.0</ele><time>2026-03-29T16:47:01.91Z</time></trkpt><trkpt lat="42.53763338622533" lon="12.033304879856777"><ele>560.0</ele><time>2026-03-29T16:47:02.91Z</time></trkpt><trkpt lat="42.53770320808055" lon="12.033241396573"><ele>561.8</ele><time>2026-03-29T16:47:03.911Z</time></trkpt><trkpt lat="42.53779167382212" lon="12.033184013191656"><ele>563.6</ele><time>2026-03-29T16:47:04.91Z</time></trkpt><trkpt lat="42.53787575911338" lon="12.033171234813427"><ele>565.4</ele><time>2026-03-29T16:47:05.91Z</time></trkpt><trkpt lat="42.537936435630726" lon="12.033206211210686"><ele>567.2</ele><time>2026-03-29T16:47:06.911Z</time></trkpt><trkpt lat="42.53801104983614" lon="12.033263271787867"><ele>569.0</ele><time>2026-03-29T16:47:07.91Z</time></trkpt><trkpt lat="42.538098420497356" lon="12.033367220210948"><ele>569.6</ele><time>2026-03-29T16:47:08.91Z</time></trkpt><trkpt lat="42.53816932306608" lon="12.033482794552848"><ele>570.2</ele><time>2026-03-29T16:47:09.91Z</time></trkpt><trkpt lat="42.53822709788523" lon="12.033572395033735"><ele>570.8000000000001</ele><time>2026-03-29T16:47:10.91Z</time></trkpt><trkpt lat="42.53828450178547" lon="12.033658854019887"><ele>571.4</ele><time>2026-03-29T16:47:11.91Z</time></trkpt><trkpt lat="42.538346682616044" lon="12.033744500730043"><ele>572.0</ele><time>2026-03-29T16:47:12.91Z</time></trkpt><trkpt lat="42.538418432764885" lon="12.033798987728805"><ele>572.0</ele><time>2026-03-29T16:47:13.91Z</time></trkpt><trkpt lat="42.53849883592039" lon="12.033834156091563"><ele>572.0</ele><time>2026-03-29T16:47:14.91Z</time></trkpt><trkpt lat="42.53859179024473" lon="12.033869875672863"><ele>572.0</ele><time>2026-03-29T16:47:15.91Z</time></trkpt><trkpt lat="42.538670079263056" lon="12.033878830548533"><ele>572.0</ele><time>2026-03-29T16:47:16.91Z</time></trkpt><trkpt lat="42.53873110150651" lon="12.033930170330537"><ele>572.0</ele><time>2026-03-29T16:47:17.91Z</time></trkpt><trkpt lat="42.5388500366881" lon="12.033978071680279"><ele>574.75</ele><time>2026-03-29T16:47:19.91Z</time></trkpt><trkpt lat="42.53895827877078" lon="12.033998029020966"><ele>577.5</ele><time>2026-03-29T16:47:21.909Z</time></trkpt><trkpt lat="42.53907270982031" lon="12.033983132802689"><ele>580.25</ele><time>2026-03-29T16:47:23.909Z</time></trkpt><trkpt lat="42.53919000139397" lon="12.033950474312263"><ele>583.0</ele><time>2026-03-29T16:47:25.909Z</time></trkpt><trkpt lat="42.53931321416379" lon="12.033957530860796"><ele>583.0</ele><time>2026-03-29T16:47:27.909Z</time></trkpt><trkpt lat="42.539421482967455" lon="12.033937847594135"><ele>583.0</ele><time>2026-03-29T16:47:29.909Z</time></trkpt><trkpt lat="42.53951291420637" lon="12.033910564000404"><ele>583.0</ele><time>2026-03-29T16:47:31.909Z</time></trkpt><trkpt lat="42.5396298912731" lon="12.033898598476384"><ele>583.0</ele><time>2026-03-29T16:47:33.909Z</time></trkpt><trkpt lat="42.53971484936442" lon="12.033875254428729"><ele>583.0</ele><time>2026-03-29T16:47:35.909Z</time></trkpt><trkpt lat="42.539781553935306" lon="12.033856963928447"><ele>582.0</ele><time>2026-03-29T16:47:37.909Z</time></trkpt><trkpt lat="42.53986044122762" lon="12.033835970133863"><ele>581.0</ele><time>2026-03-29T16:47:39.909Z</time></trkpt><trkpt lat="42.539945576517425" lon="12.033812665349998"><ele>580.0</ele><time>2026-03-29T16:47:41.909Z</time></trkpt><trkpt lat="42.54003242002009" lon="12.033781405880958"><ele>579.0</ele><time>2026-03-29T16:47:43.909Z</time></trkpt><trkpt lat="42.54010019897939" lon="12.033729524774538"><ele>578.0</ele><time>2026-03-29T16:47:44.909Z</time></trkpt><trkpt lat="42.54014336097704" lon="12.033554527668391"><ele>578.0</ele><time>2026-03-29T16:47:45.909Z</time></trkpt><trkpt lat="42.54015646232253" lon="12.033436326120398"><ele>578.0</ele><time>2026-03-29T16:47:46.909Z</time></trkpt><trkpt lat="42.54017642370426" lon="12.033345124917158"><ele>578.0</ele><time>2026-03-29T16:47:47.909Z</time></trkpt><trkpt lat="42.540217019258556" lon="12.03327281040736"><ele>578.0</ele><time>2026-03-29T16:47:48.909Z</time></trkpt><trkpt lat="42.54027758266314" lon="12.033196230825295"><ele>578.0</ele><time>2026-03-29T16:47:49.909Z</time></trkpt><trkpt lat="42.540356031947965" lon="12.033108383461922"><ele>578.0</ele><time>2026-03-29T16:47:50.909Z</time></trkpt><trkpt lat="42.540430594230486" lon="12.033041491924399"><ele>576.1666666666666</ele><time>2026-03-29T16:47:51.909Z</time></trkpt><trkpt lat="42.5405065234851" lon="12.032982930077461"><ele>574.3333333333333</ele><time>2026-03-29T16:47:52.908Z</time></trkpt><trkpt lat="42.54057655219423" lon="12.032927713503167"><ele>572.5</ele><time>2026-03-29T16:47:53.908Z</time></trkpt><trkpt lat="42.54064304228616" lon="12.032877303172873"><ele>570.6666666666666</ele><time>2026-03-29T16:47:54.908Z</time></trkpt><trkpt lat="42.54070958746582" lon="12.03282698053579"><ele>568.8333333333334</ele><time>2026-03-29T16:47:55.908Z</time></trkpt><trkpt lat="42.54076764988935" lon="12.032788249688211"><ele>567.0</ele><time>2026-03-29T16:47:56.908Z</time></trkpt><trkpt lat="42.54083389026249" lon="12.032743280053323"><ele>567.0</ele><time>2026-03-29T16:47:59.908Z</time></trkpt><trkpt lat="42.540763653599186" lon="12.032814167099877"><ele>567.0</ele><time>2026-03-29T16:48:02.908Z</time></trkpt><trkpt lat="42.5408302713832" lon="12.032804374187574"><ele>567.0</ele><time>2026-03-29T16:48:03.908Z</time></trkpt><trkpt lat="42.540656738525136" lon="12.032965323980854"><ele>567.0</ele><time>2026-03-29T16:48:04.908Z</time></trkpt><trkpt lat="42.5406902303396" lon="12.03316553815854"><ele>567.0</ele><time>2026-03-29T16:48:06.908Z</time></trkpt><trkpt lat="42.54076043716919" lon="12.033284466467094"><ele>567.0</ele><time>2026-03-29T16:48:07.908Z</time></trkpt><trkpt lat="42.54083742326713" lon="12.033424957190016"><ele>567.0</ele><time>2026-03-29T16:48:08.908Z</time></trkpt><trkpt lat="42.54092282267968" lon="12.033568740390358"><ele>567.0</ele><time>2026-03-29T16:48:09.908Z</time></trkpt><trkpt lat="42.54099357402098" lon="12.033692262109332"><ele>566.75</ele><time>2026-03-29T16:48:10.908Z</time></trkpt><trkpt lat="42.541065633765534" lon="12.033833421236048"><ele>566.5</ele><time>2026-03-29T16:48:11.908Z</time></trkpt><trkpt lat="42.54113795451662" lon="12.033969196606455"><ele>566.25</ele><time>2026-03-29T16:48:12.908Z</time></trkpt><trkpt lat="42.541213023950434" lon="12.034101775113289"><ele>566.0</ele><time>2026-03-29T16:48:13.908Z</time></trkpt><trkpt lat="42.54128438478813" lon="12.034215810759004"><ele>564.0</ele><time>2026-03-29T16:48:14.908Z</time></trkpt><trkpt lat="42.54134479964846" lon="12.034321392305147"><ele>562.0</ele><time>2026-03-29T16:48:15.908Z</time></trkpt><trkpt lat="42.541400399797105" lon="12.034424239403137"><ele>560.0</ele><time>2026-03-29T16:48:16.908Z</time></trkpt><trkpt lat="42.54145648560647" lon="12.034529229440706"><ele>558.0</ele><time>2026-03-29T16:48:17.908Z</time></trkpt><trkpt lat="42.54151284559939" lon="12.034635714501517"><ele>556.0</ele><time>2026-03-29T16:48:18.908Z</time></trkpt><trkpt lat="42.541585786888675" lon="12.034722504550068"><ele>556.0</ele><time>2026-03-29T16:48:19.908Z</time></trkpt><trkpt lat="42.54162935725038" lon="12.03482346001256"><ele>556.0</ele><time>2026-03-29T16:48:20.908Z</time></trkpt><trkpt lat="42.54167018353289" lon="12.034919077330468"><ele>556.0</ele><time>2026-03-29T16:48:21.908Z</time></trkpt><trkpt lat="42.541719744236254" lon="12.035027663912807"><ele>556.0</ele><time>2026-03-29T16:48:23.907Z</time></trkpt><trkpt lat="42.541880551970266" lon="12.035580222150514"><ele>552.0</ele><time>2026-03-29T16:50:30.944Z</time></trkpt><trkpt lat="42.54183207285015" lon="12.035496851231926"><ele>548.0</ele><time>2026-03-29T16:50:32.139Z</time></trkpt><trkpt lat="42.54163190077821" lon="12.035044517577772"><ele>548.0</ele><time>2026-03-29T16:50:34.905Z</time></trkpt><trkpt lat="42.54163556581587" lon="12.035130645606689"><ele>548.0</ele><time>2026-03-29T16:51:16.904Z</time></trkpt><trkpt lat="42.541655554695566" lon="12.03521609601492"><ele>548.0</ele><time>2026-03-29T16:51:18.905Z</time></trkpt><trkpt lat="42.54170517355507" lon="12.035304047747152"><ele>548.0</ele><time>2026-03-29T16:51:19.905Z</time></trkpt><trkpt lat="42.54176579205351" lon="12.035438262085409"><ele>548.0</ele><time>2026-03-29T16:51:20.905Z</time></trkpt><trkpt lat="42.541807329685845" lon="12.035570617039525"><ele>548.0</ele><time>2026-03-29T16:51:21.904Z</time></trkpt><trkpt lat="42.54186702586893" lon="12.035688311837363"><ele>546.5</ele><time>2026-03-29T16:51:22.904Z</time></trkpt><trkpt lat="42.54193655075273" lon="12.035804697986777"><ele>545.0</ele><time>2026-03-29T16:51:23.904Z</time></trkpt><trkpt lat="42.54201960320492" lon="12.035925544762653"><ele>543.5</ele><time>2026-03-29T16:51:24.904Z</time></trkpt><trkpt lat="42.54207674216699" lon="12.036055783738313"><ele>542.0</ele><time>2026-03-29T16:51:25.905Z</time></trkpt><trkpt lat="42.54216836773095" lon="12.036187590193203"><ele>540.75</ele><time>2026-03-29T16:51:26.905Z</time></trkpt><trkpt lat="42.54232388521392" lon="12.036233306293463"><ele>539.5</ele><time>2026-03-29T16:51:27.905Z</time></trkpt><trkpt lat="42.542358965430424" lon="12.036409657220403"><ele>538.25</ele><time>2026-03-29T16:51:28.905Z</time></trkpt><trkpt lat="42.54246723495989" lon="12.036429821646655"><ele>537.0</ele><time>2026-03-29T16:51:29.905Z</time></trkpt><trkpt lat="42.54252609464348" lon="12.036471313622593"><ele>537.0</ele><time>2026-03-29T16:51:30.905Z</time></trkpt><trkpt lat="42.542575480971365" lon="12.03652916448175"><ele>537.0</ele><time>2026-03-29T16:51:32.904Z</time></trkpt><trkpt lat="42.542702828109235" lon="12.036651438921107"><ele>537.0</ele><time>2026-03-29T16:51:34.904Z</time></trkpt><trkpt lat="42.54278511731422" lon="12.036764312564575"><ele>537.0</ele><time>2026-03-29T16:51:35.904Z</time></trkpt><trkpt lat="42.54288250362377" lon="12.036953998215141"><ele>537.0</ele><time>2026-03-29T16:51:36.904Z</time></trkpt><trkpt lat="42.54296810180933" lon="12.037158809941108"><ele>537.0</ele><time>2026-03-29T16:51:37.904Z</time></trkpt><trkpt lat="42.54302816892499" lon="12.037337841441397"><ele>537.0</ele><time>2026-03-29T16:51:38.904Z</time></trkpt><trkpt lat="42.54308908314984" lon="12.037504850340975"><ele>536.4</ele><time>2026-03-29T16:51:39.904Z</time></trkpt><trkpt lat="42.54312936529423" lon="12.037641803319662"><ele>535.8000000000001</ele><time>2026-03-29T16:51:40.904Z</time></trkpt><trkpt lat="42.5431862012702" lon="12.03775753785763"><ele>535.2</ele><time>2026-03-29T16:51:41.904Z</time></trkpt><trkpt lat="42.54324922606014" lon="12.03785105259854"><ele>534.6</ele><time>2026-03-29T16:51:42.904Z</time></trkpt><trkpt lat="42.5432997743387" lon="12.03793286149632"><ele>534.0</ele><time>2026-03-29T16:51:43.904Z</time></trkpt><trkpt lat="42.543346488883905" lon="12.038021065950748"><ele>534.0</ele><time>2026-03-29T16:51:44.904Z</time></trkpt><trkpt lat="42.543395811808246" lon="12.038089049424425"><ele>534.0</ele><time>2026-03-29T16:51:45.904Z</time></trkpt><trkpt lat="42.54345923463222" lon="12.038125690677502"><ele>534.0</ele><time>2026-03-29T16:51:46.904Z</time></trkpt><trkpt lat="42.543545892363966" lon="12.038157706492276"><ele>534.0</ele><time>2026-03-29T16:51:47.904Z</time></trkpt><trkpt lat="42.543645151366924" lon="12.038205041592237"><ele>534.0</ele><time>2026-03-29T16:51:48.904Z</time></trkpt><trkpt lat="42.54373010366347" lon="12.038248505772998"><ele>534.0</ele><time>2026-03-29T16:51:49.904Z</time></trkpt><trkpt lat="42.54379331791481" lon="12.038353354469542"><ele>533.2</ele><time>2026-03-29T16:51:52.904Z</time></trkpt><trkpt lat="42.54379815168625" lon="12.038448471745687"><ele>532.4</ele><time>2026-03-29T16:51:53.904Z</time></trkpt><trkpt lat="42.543754676154904" lon="12.038564047097625"><ele>531.6</ele><time>2026-03-29T16:51:54.904Z</time></trkpt><trkpt lat="42.54373008372258" lon="12.038665232154546"><ele>530.8</ele><time>2026-03-29T16:51:55.904Z</time></trkpt><trkpt lat="42.54369911589438" lon="12.03880690779013"><ele>530.0</ele><time>2026-03-29T16:51:57.904Z</time></trkpt><trkpt lat="42.54355047857256" lon="12.038574994880602"><ele>530.0</ele><time>2026-03-29T16:54:39.449Z</time></trkpt><trkpt lat="42.543581874778525" lon="12.038874211739705"><ele>530.0</ele><time>2026-03-29T16:55:37.121Z</time></trkpt></trkseg></trk></gpx>